<?xml version="1.0" encoding="UTF-8" standalone="no" ?>
<gpx xmlns="http://www.topografix.com/GPX/1/1" xmlns:xsi="http://www.w3.org/2001/XMLSchema-instance" xsi:schemaLocation="http://www.topografix.com/GPX/1/1 http://www.topografix.com/GPX/1/1/gpx.xsd" version="1.1" creator="VisuGPX - https://www.visugpx.com">
  <metadata>
    <name>GTMC Realise</name>
  </metadata>
  <trk>
    <name><![CDATA[GTMC J4]]></name>
    <extensions>
      <line xmlns="http://www.topografix.com/GPX/gpx_style/0/2">
        <color>008800</color>
        <width>4</width>
      </line>
    </extensions>
    <trkseg>
      <trkpt lat="45.09116" lon="2.99149">
        <ele>952.780777</ele>
        <time>2021-07-09T08:24:10+0200</time>
      </trkpt>
      <trkpt lat="45.09116" lon="2.99149">
        <ele>952.780777</ele>
        <time>2021-07-09T08:24:10+0200</time>
      </trkpt>
      <trkpt lat="45.09115" lon="2.99156">
        <ele>952.621557</ele>
        <time>2021-07-09T08:24:11+0200</time>
      </trkpt>
      <trkpt lat="45.09114" lon="2.99164">
        <ele>952.497797</ele>
        <time>2021-07-09T08:24:12+0200</time>
      </trkpt>
      <trkpt lat="45.09114" lon="2.99171">
        <ele>952.268235</ele>
        <time>2021-07-09T08:24:13+0200</time>
      </trkpt>
      <trkpt lat="45.09114" lon="2.99177">
        <ele>952.082183</ele>
        <time>2021-07-09T08:24:14+0200</time>
      </trkpt>
      <trkpt lat="45.09114" lon="2.99184">
        <ele>951.855133</ele>
        <time>2021-07-09T08:24:15+0200</time>
      </trkpt>
      <trkpt lat="45.09114" lon="2.9919">
        <ele>951.687063</ele>
        <time>2021-07-09T08:24:16+0200</time>
      </trkpt>
      <trkpt lat="45.09114" lon="2.99197">
        <ele>951.541253</ele>
        <time>2021-07-09T08:24:17+0200</time>
      </trkpt>
      <trkpt lat="45.09114" lon="2.99204">
        <ele>951.28084</ele>
        <time>2021-07-09T08:24:18+0200</time>
      </trkpt>
      <trkpt lat="45.09114" lon="2.99211">
        <ele>951.128424</ele>
        <time>2021-07-09T08:24:19+0200</time>
      </trkpt>
      <trkpt lat="45.09114" lon="2.99218">
        <ele>951.00104</ele>
        <time>2021-07-09T08:24:20+0200</time>
      </trkpt>
      <trkpt lat="45.09114" lon="2.99224">
        <ele>951.001043</ele>
        <time>2021-07-09T08:24:21+0200</time>
      </trkpt>
      <trkpt lat="45.09114" lon="2.99231">
        <ele>950.893793</ele>
        <time>2021-07-09T08:24:22+0200</time>
      </trkpt>
      <trkpt lat="45.09113" lon="2.99239">
        <ele>950.753817</ele>
        <time>2021-07-09T08:24:23+0200</time>
      </trkpt>
      <trkpt lat="45.09113" lon="2.99246">
        <ele>950.616402</ele>
        <time>2021-07-09T08:24:24+0200</time>
      </trkpt>
      <trkpt lat="45.09113" lon="2.99253">
        <ele>950.496664</ele>
        <time>2021-07-09T08:24:24+0200</time>
      </trkpt>
      <trkpt lat="45.09113" lon="2.9926">
        <ele>950.392167</ele>
        <time>2021-07-09T08:24:25+0200</time>
      </trkpt>
      <trkpt lat="45.09113" lon="2.99267">
        <ele>950.209431</ele>
        <time>2021-07-09T08:24:26+0200</time>
      </trkpt>
      <trkpt lat="45.09113" lon="2.99275">
        <ele>950.052695</ele>
        <time>2021-07-09T08:24:27+0200</time>
      </trkpt>
      <trkpt lat="45.09113" lon="2.99283">
        <ele>949.967022</ele>
        <time>2021-07-09T08:24:28+0200</time>
      </trkpt>
      <trkpt lat="45.09113" lon="2.99291">
        <ele>949.881068</ele>
        <time>2021-07-09T08:24:29+0200</time>
      </trkpt>
      <trkpt lat="45.09113" lon="2.99299">
        <ele>949.775431</ele>
        <time>2021-07-09T08:24:30+0200</time>
      </trkpt>
      <trkpt lat="45.09113" lon="2.99306">
        <ele>949.686922</ele>
        <time>2021-07-09T08:24:31+0200</time>
      </trkpt>
      <trkpt lat="45.09112" lon="2.99314">
        <ele>949.601363</ele>
        <time>2021-07-09T08:24:32+0200</time>
      </trkpt>
      <trkpt lat="45.09113" lon="2.99322">
        <ele>949.536923</ele>
        <time>2021-07-09T08:24:33+0200</time>
      </trkpt>
      <trkpt lat="45.09113" lon="2.99329">
        <ele>949.515896</ele>
        <time>2021-07-09T08:24:34+0200</time>
      </trkpt>
      <trkpt lat="45.09113" lon="2.99337">
        <ele>949.417214</ele>
        <time>2021-07-09T08:24:35+0200</time>
      </trkpt>
      <trkpt lat="45.09112" lon="2.99345">
        <ele>949.395448</ele>
        <time>2021-07-09T08:24:36+0200</time>
      </trkpt>
      <trkpt lat="45.09113" lon="2.99352">
        <ele>949.351559</ele>
        <time>2021-07-09T08:24:37+0200</time>
      </trkpt>
      <trkpt lat="45.09112" lon="2.9936">
        <ele>949.268356</ele>
        <time>2021-07-09T08:24:38+0200</time>
      </trkpt>
      <trkpt lat="45.09112" lon="2.99367">
        <ele>949.163032</ele>
        <time>2021-07-09T08:24:39+0200</time>
      </trkpt>
      <trkpt lat="45.09111" lon="2.99374">
        <ele>947.988704</ele>
        <time>2021-07-09T08:24:40+0200</time>
      </trkpt>
      <trkpt lat="45.09111" lon="2.99383">
        <ele>948.058687</ele>
        <time>2021-07-09T08:24:41+0200</time>
      </trkpt>
      <trkpt lat="45.09111" lon="2.99391">
        <ele>947.998692</ele>
        <time>2021-07-09T08:24:42+0200</time>
      </trkpt>
      <trkpt lat="45.09111" lon="2.99399">
        <ele>947.976665</ele>
        <time>2021-07-09T08:24:43+0200</time>
      </trkpt>
      <trkpt lat="45.0911" lon="2.99407">
        <ele>947.97773</ele>
        <time>2021-07-09T08:24:44+0200</time>
      </trkpt>
      <trkpt lat="45.0911" lon="2.99417">
        <ele>947.843271</ele>
        <time>2021-07-09T08:24:45+0200</time>
      </trkpt>
      <trkpt lat="45.0911" lon="2.99425">
        <ele>947.874708</ele>
        <time>2021-07-09T08:24:46+0200</time>
      </trkpt>
      <trkpt lat="45.0911" lon="2.99434">
        <ele>947.763787</ele>
        <time>2021-07-09T08:24:47+0200</time>
      </trkpt>
      <trkpt lat="45.09109" lon="2.99442">
        <ele>947.650068</ele>
        <time>2021-07-09T08:24:48+0200</time>
      </trkpt>
      <trkpt lat="45.09109" lon="2.9945">
        <ele>947.511194</ele>
        <time>2021-07-09T08:24:49+0200</time>
      </trkpt>
      <trkpt lat="45.09109" lon="2.99459">
        <ele>947.174105</ele>
        <time>2021-07-09T08:24:50+0200</time>
      </trkpt>
      <trkpt lat="45.09109" lon="2.99467">
        <ele>947.156828</ele>
        <time>2021-07-09T08:24:51+0200</time>
      </trkpt>
      <trkpt lat="45.09109" lon="2.99476">
        <ele>946.738736</ele>
        <time>2021-07-09T08:24:52+0200</time>
      </trkpt>
      <trkpt lat="45.09108" lon="2.99484">
        <ele>946.765475</ele>
        <time>2021-07-09T08:24:53+0200</time>
      </trkpt>
      <trkpt lat="45.09108" lon="2.99492">
        <ele>947.008216</ele>
        <time>2021-07-09T08:24:54+0200</time>
      </trkpt>
      <trkpt lat="45.09108" lon="2.995">
        <ele>947.230528</ele>
        <time>2021-07-09T08:24:56+0200</time>
      </trkpt>
      <trkpt lat="45.09108" lon="2.99508">
        <ele>947.32666</ele>
        <time>2021-07-09T08:24:57+0200</time>
      </trkpt>
      <trkpt lat="45.09108" lon="2.99516">
        <ele>947.498829</ele>
        <time>2021-07-09T08:24:58+0200</time>
      </trkpt>
      <trkpt lat="45.09107" lon="2.99523">
        <ele>947.630248</ele>
        <time>2021-07-09T08:24:59+0200</time>
      </trkpt>
      <trkpt lat="45.09108" lon="2.9953">
        <ele>947.652438</ele>
        <time>2021-07-09T08:25:00+0200</time>
      </trkpt>
      <trkpt lat="45.09107" lon="2.99538">
        <ele>947.673713</ele>
        <time>2021-07-09T08:25:01+0200</time>
      </trkpt>
      <trkpt lat="45.09107" lon="2.99545">
        <ele>947.776213</ele>
        <time>2021-07-09T08:25:02+0200</time>
      </trkpt>
      <trkpt lat="45.09107" lon="2.99553">
        <ele>948.026336</ele>
        <time>2021-07-09T08:25:03+0200</time>
      </trkpt>
      <trkpt lat="45.09107" lon="2.9956">
        <ele>948.114895</ele>
        <time>2021-07-09T08:25:04+0200</time>
      </trkpt>
      <trkpt lat="45.09107" lon="2.99567">
        <ele>948.204233</ele>
        <time>2021-07-09T08:25:05+0200</time>
      </trkpt>
      <trkpt lat="45.09106" lon="2.99575">
        <ele>948.321717</ele>
        <time>2021-07-09T08:25:06+0200</time>
      </trkpt>
      <trkpt lat="45.09107" lon="2.99582">
        <ele>948.396282</ele>
        <time>2021-07-09T08:25:07+0200</time>
      </trkpt>
      <trkpt lat="45.09106" lon="2.99589">
        <ele>948.394537</ele>
        <time>2021-07-09T08:25:08+0200</time>
      </trkpt>
      <trkpt lat="45.09106" lon="2.99597">
        <ele>948.53434</ele>
        <time>2021-07-09T08:25:09+0200</time>
      </trkpt>
      <trkpt lat="45.09105" lon="2.99603">
        <ele>948.616336</ele>
        <time>2021-07-09T08:25:10+0200</time>
      </trkpt>
      <trkpt lat="45.09106" lon="2.9961">
        <ele>948.675751</ele>
        <time>2021-07-09T08:25:11+0200</time>
      </trkpt>
      <trkpt lat="45.09106" lon="2.99618">
        <ele>948.711191</ele>
        <time>2021-07-09T08:25:12+0200</time>
      </trkpt>
      <trkpt lat="45.09106" lon="2.99625">
        <ele>948.707648</ele>
        <time>2021-07-09T08:25:13+0200</time>
      </trkpt>
      <trkpt lat="45.09106" lon="2.99632">
        <ele>949.062703</ele>
        <time>2021-07-09T08:25:14+0200</time>
      </trkpt>
      <trkpt lat="45.09106" lon="2.99639">
        <ele>949.133216</ele>
        <time>2021-07-09T08:25:15+0200</time>
      </trkpt>
      <trkpt lat="45.09106" lon="2.99646">
        <ele>949.209758</ele>
        <time>2021-07-09T08:25:16+0200</time>
      </trkpt>
      <trkpt lat="45.09105" lon="2.99653">
        <ele>949.357138</ele>
        <time>2021-07-09T08:25:17+0200</time>
      </trkpt>
      <trkpt lat="45.09105" lon="2.99659">
        <ele>949.423325</ele>
        <time>2021-07-09T08:25:18+0200</time>
      </trkpt>
      <trkpt lat="45.09105" lon="2.99666">
        <ele>949.425883</ele>
        <time>2021-07-09T08:25:19+0200</time>
      </trkpt>
      <trkpt lat="45.09105" lon="2.99672">
        <ele>949.426801</ele>
        <time>2021-07-09T08:25:20+0200</time>
      </trkpt>
      <trkpt lat="45.09104" lon="2.99679">
        <ele>949.508349</ele>
        <time>2021-07-09T08:25:21+0200</time>
      </trkpt>
      <trkpt lat="45.09104" lon="2.99686">
        <ele>949.47141</ele>
        <time>2021-07-09T08:25:22+0200</time>
      </trkpt>
      <trkpt lat="45.09105" lon="2.99692">
        <ele>949.576605</ele>
        <time>2021-07-09T08:25:23+0200</time>
      </trkpt>
      <trkpt lat="45.09104" lon="2.99703">
        <ele>949.670455</ele>
        <time>2021-07-09T08:25:25+0200</time>
      </trkpt>
      <trkpt lat="45.09103" lon="2.9971">
        <ele>949.667256</ele>
        <time>2021-07-09T08:25:26+0200</time>
      </trkpt>
      <trkpt lat="45.09102" lon="2.99717">
        <ele>949.585558</ele>
        <time>2021-07-09T08:25:27+0200</time>
      </trkpt>
      <trkpt lat="45.09101" lon="2.99729">
        <ele>949.780223</ele>
        <time>2021-07-09T08:25:29+0200</time>
      </trkpt>
      <trkpt lat="45.09097" lon="2.9974">
        <ele>949.912905</ele>
        <time>2021-07-09T08:25:31+0200</time>
      </trkpt>
      <trkpt lat="45.09095" lon="2.99745">
        <ele>950.402684</ele>
        <time>2021-07-09T08:25:32+0200</time>
      </trkpt>
      <trkpt lat="45.09092" lon="2.9975">
        <ele>950.471024</ele>
        <time>2021-07-09T08:25:33+0200</time>
      </trkpt>
      <trkpt lat="45.09089" lon="2.99755">
        <ele>950.641474</ele>
        <time>2021-07-09T08:25:34+0200</time>
      </trkpt>
      <trkpt lat="45.09086" lon="2.99761">
        <ele>950.55642</ele>
        <time>2021-07-09T08:25:35+0200</time>
      </trkpt>
      <trkpt lat="45.09083" lon="2.99766">
        <ele>950.756079</ele>
        <time>2021-07-09T08:25:36+0200</time>
      </trkpt>
      <trkpt lat="45.09079" lon="2.99771">
        <ele>950.556617</ele>
        <time>2021-07-09T08:25:37+0200</time>
      </trkpt>
      <trkpt lat="45.09073" lon="2.99779">
        <ele>951.098341</ele>
        <time>2021-07-09T08:25:39+0200</time>
      </trkpt>
      <trkpt lat="45.09066" lon="2.99786">
        <ele>951.444344</ele>
        <time>2021-07-09T08:25:41+0200</time>
      </trkpt>
      <trkpt lat="45.09061" lon="2.99793">
        <ele>951.567656</ele>
        <time>2021-07-09T08:25:43+0200</time>
      </trkpt>
      <trkpt lat="45.09056" lon="2.99799">
        <ele>951.815846</ele>
        <time>2021-07-09T08:25:45+0200</time>
      </trkpt>
      <trkpt lat="45.09049" lon="2.99805">
        <ele>952.154457</ele>
        <time>2021-07-09T08:25:47+0200</time>
      </trkpt>
      <trkpt lat="45.09043" lon="2.99813">
        <ele>952.223162</ele>
        <time>2021-07-09T08:25:49+0200</time>
      </trkpt>
      <trkpt lat="45.0904" lon="2.9982">
        <ele>952.196703</ele>
        <time>2021-07-09T08:25:51+0200</time>
      </trkpt>
      <trkpt lat="45.09036" lon="2.99826">
        <ele>952.321609</ele>
        <time>2021-07-09T08:25:53+0200</time>
      </trkpt>
      <trkpt lat="45.09033" lon="2.9983">
        <ele>952.316531</ele>
        <time>2021-07-09T08:25:55+0200</time>
      </trkpt>
      <trkpt lat="45.09028" lon="2.99835">
        <ele>952.30448</ele>
        <time>2021-07-09T08:25:57+0200</time>
      </trkpt>
      <trkpt lat="45.09022" lon="2.99841">
        <ele>952.439351</ele>
        <time>2021-07-09T08:25:59+0200</time>
      </trkpt>
      <trkpt lat="45.09016" lon="2.99848">
        <ele>952.33838</ele>
        <time>2021-07-09T08:26:01+0200</time>
      </trkpt>
      <trkpt lat="45.0901" lon="2.99855">
        <ele>952.435944</ele>
        <time>2021-07-09T08:26:03+0200</time>
      </trkpt>
      <trkpt lat="45.09006" lon="2.99862">
        <ele>952.697872</ele>
        <time>2021-07-09T08:26:05+0200</time>
      </trkpt>
      <trkpt lat="45.09" lon="2.99868">
        <ele>952.911759</ele>
        <time>2021-07-09T08:26:07+0200</time>
      </trkpt>
      <trkpt lat="45.08993" lon="2.99873">
        <ele>953.398098</ele>
        <time>2021-07-09T08:26:09+0200</time>
      </trkpt>
      <trkpt lat="45.08988" lon="2.9988">
        <ele>953.518669</ele>
        <time>2021-07-09T08:26:11+0200</time>
      </trkpt>
      <trkpt lat="45.08983" lon="2.99887">
        <ele>953.612474</ele>
        <time>2021-07-09T08:26:13+0200</time>
      </trkpt>
      <trkpt lat="45.08978" lon="2.99892">
        <ele>953.790909</ele>
        <time>2021-07-09T08:26:15+0200</time>
      </trkpt>
      <trkpt lat="45.08972" lon="2.99899">
        <ele>953.738987</ele>
        <time>2021-07-09T08:26:18+0200</time>
      </trkpt>
      <trkpt lat="45.08968" lon="2.99905">
        <ele>953.113569</ele>
        <time>2021-07-09T08:26:20+0200</time>
      </trkpt>
      <trkpt lat="45.08963" lon="2.9991">
        <ele>953.833892</ele>
        <time>2021-07-09T08:26:22+0200</time>
      </trkpt>
      <trkpt lat="45.08958" lon="2.99918">
        <ele>953.643656</ele>
        <time>2021-07-09T08:26:24+0200</time>
      </trkpt>
      <trkpt lat="45.08952" lon="2.99925">
        <ele>953.50522</ele>
        <time>2021-07-09T08:26:26+0200</time>
      </trkpt>
      <trkpt lat="45.08947" lon="2.99933">
        <ele>952.841659</ele>
        <time>2021-07-09T08:26:28+0200</time>
      </trkpt>
      <trkpt lat="45.08941" lon="2.99941">
        <ele>952.92109</ele>
        <time>2021-07-09T08:26:30+0200</time>
      </trkpt>
      <trkpt lat="45.08933" lon="2.99948">
        <ele>952.895101</ele>
        <time>2021-07-09T08:26:32+0200</time>
      </trkpt>
      <trkpt lat="45.08929" lon="2.99952">
        <ele>953.166799</ele>
        <time>2021-07-09T08:26:33+0200</time>
      </trkpt>
      <trkpt lat="45.08926" lon="2.99957">
        <ele>953.035782</ele>
        <time>2021-07-09T08:26:34+0200</time>
      </trkpt>
      <trkpt lat="45.08922" lon="2.9996">
        <ele>953.132731</ele>
        <time>2021-07-09T08:26:35+0200</time>
      </trkpt>
      <trkpt lat="45.08919" lon="2.99964">
        <ele>953.410816</ele>
        <time>2021-07-09T08:26:36+0200</time>
      </trkpt>
      <trkpt lat="45.08915" lon="2.99969">
        <ele>953.339671</ele>
        <time>2021-07-09T08:26:37+0200</time>
      </trkpt>
      <trkpt lat="45.08911" lon="2.99973">
        <ele>953.035696</ele>
        <time>2021-07-09T08:26:38+0200</time>
      </trkpt>
      <trkpt lat="45.08906" lon="2.99978">
        <ele>952.435678</ele>
        <time>2021-07-09T08:26:39+0200</time>
      </trkpt>
      <trkpt lat="45.08902" lon="2.99983">
        <ele>952.283012</ele>
        <time>2021-07-09T08:26:40+0200</time>
      </trkpt>
      <trkpt lat="45.08898" lon="2.99988">
        <ele>952.086613</ele>
        <time>2021-07-09T08:26:41+0200</time>
      </trkpt>
      <trkpt lat="45.08893" lon="2.99994">
        <ele>951.98086</ele>
        <time>2021-07-09T08:26:42+0200</time>
      </trkpt>
      <trkpt lat="45.08889" lon="2.99999">
        <ele>951.690957</ele>
        <time>2021-07-09T08:26:43+0200</time>
      </trkpt>
      <trkpt lat="45.08885" lon="3.00005">
        <ele>951.310397</ele>
        <time>2021-07-09T08:26:44+0200</time>
      </trkpt>
      <trkpt lat="45.08879" lon="3.00011">
        <ele>950.940101</ele>
        <time>2021-07-09T08:26:45+0200</time>
      </trkpt>
      <trkpt lat="45.08874" lon="3.00017">
        <ele>950.58343</ele>
        <time>2021-07-09T08:26:46+0200</time>
      </trkpt>
      <trkpt lat="45.08869" lon="3.00023">
        <ele>950.380923</ele>
        <time>2021-07-09T08:26:47+0200</time>
      </trkpt>
      <trkpt lat="45.08863" lon="3.00029">
        <ele>949.945899</ele>
        <time>2021-07-09T08:26:48+0200</time>
      </trkpt>
      <trkpt lat="45.08858" lon="3.00035">
        <ele>949.619681</ele>
        <time>2021-07-09T08:26:49+0200</time>
      </trkpt>
      <trkpt lat="45.08851" lon="3.00042">
        <ele>949.16531</ele>
        <time>2021-07-09T08:26:50+0200</time>
      </trkpt>
      <trkpt lat="45.08845" lon="3.00048">
        <ele>948.931113</ele>
        <time>2021-07-09T08:26:51+0200</time>
      </trkpt>
      <trkpt lat="45.0884" lon="3.00054">
        <ele>948.745591</ele>
        <time>2021-07-09T08:26:52+0200</time>
      </trkpt>
      <trkpt lat="45.08834" lon="3.00061">
        <ele>948.378608</ele>
        <time>2021-07-09T08:26:53+0200</time>
      </trkpt>
      <trkpt lat="45.08828" lon="3.00068">
        <ele>947.894516</ele>
        <time>2021-07-09T08:26:54+0200</time>
      </trkpt>
      <trkpt lat="45.08822" lon="3.00074">
        <ele>947.434929</ele>
        <time>2021-07-09T08:26:55+0200</time>
      </trkpt>
      <trkpt lat="45.08816" lon="3.00081">
        <ele>947.157832</ele>
        <time>2021-07-09T08:26:56+0200</time>
      </trkpt>
      <trkpt lat="45.08811" lon="3.00089">
        <ele>946.785566</ele>
        <time>2021-07-09T08:26:57+0200</time>
      </trkpt>
      <trkpt lat="45.08805" lon="3.00096">
        <ele>946.256934</ele>
        <time>2021-07-09T08:26:58+0200</time>
      </trkpt>
      <trkpt lat="45.08799" lon="3.00103">
        <ele>945.853587</ele>
        <time>2021-07-09T08:26:59+0200</time>
      </trkpt>
      <trkpt lat="45.08792" lon="3.00111">
        <ele>945.520022</ele>
        <time>2021-07-09T08:27:00+0200</time>
      </trkpt>
      <trkpt lat="45.08786" lon="3.00118">
        <ele>945.165202</ele>
        <time>2021-07-09T08:27:01+0200</time>
      </trkpt>
      <trkpt lat="45.08779" lon="3.00126">
        <ele>944.877313</ele>
        <time>2021-07-09T08:27:02+0200</time>
      </trkpt>
      <trkpt lat="45.08772" lon="3.00134">
        <ele>944.353719</ele>
        <time>2021-07-09T08:27:03+0200</time>
      </trkpt>
      <trkpt lat="45.08765" lon="3.00142">
        <ele>944.01361</ele>
        <time>2021-07-09T08:27:04+0200</time>
      </trkpt>
      <trkpt lat="45.08758" lon="3.00149">
        <ele>943.562991</ele>
        <time>2021-07-09T08:27:05+0200</time>
      </trkpt>
      <trkpt lat="45.08751" lon="3.00157">
        <ele>942.886901</ele>
        <time>2021-07-09T08:27:06+0200</time>
      </trkpt>
      <trkpt lat="45.08745" lon="3.00165">
        <ele>942.684675</ele>
        <time>2021-07-09T08:27:07+0200</time>
      </trkpt>
      <trkpt lat="45.08739" lon="3.00173">
        <ele>942.408588</ele>
        <time>2021-07-09T08:27:08+0200</time>
      </trkpt>
      <trkpt lat="45.08733" lon="3.00182">
        <ele>942.176387</ele>
        <time>2021-07-09T08:27:09+0200</time>
      </trkpt>
      <trkpt lat="45.08726" lon="3.00189">
        <ele>941.360268</ele>
        <time>2021-07-09T08:27:10+0200</time>
      </trkpt>
      <trkpt lat="45.08721" lon="3.00198">
        <ele>941.143112</ele>
        <time>2021-07-09T08:27:11+0200</time>
      </trkpt>
      <trkpt lat="45.08716" lon="3.00207">
        <ele>941.075497</ele>
        <time>2021-07-09T08:27:12+0200</time>
      </trkpt>
      <trkpt lat="45.08713" lon="3.00216">
        <ele>941.436898</ele>
        <time>2021-07-09T08:27:13+0200</time>
      </trkpt>
      <trkpt lat="45.0871" lon="3.00225">
        <ele>941.341618</ele>
        <time>2021-07-09T08:27:14+0200</time>
      </trkpt>
      <trkpt lat="45.08708" lon="3.00236">
        <ele>941.148501</ele>
        <time>2021-07-09T08:27:15+0200</time>
      </trkpt>
      <trkpt lat="45.08706" lon="3.00247">
        <ele>941.195981</ele>
        <time>2021-07-09T08:27:16+0200</time>
      </trkpt>
      <trkpt lat="45.08705" lon="3.00257">
        <ele>941.314776</ele>
        <time>2021-07-09T08:27:17+0200</time>
      </trkpt>
      <trkpt lat="45.08706" lon="3.00267">
        <ele>941.031794</ele>
        <time>2021-07-09T08:27:18+0200</time>
      </trkpt>
      <trkpt lat="45.08707" lon="3.00277">
        <ele>940.685007</ele>
        <time>2021-07-09T08:27:19+0200</time>
      </trkpt>
      <trkpt lat="45.08708" lon="3.00287">
        <ele>940.583999</ele>
        <time>2021-07-09T08:27:20+0200</time>
      </trkpt>
      <trkpt lat="45.08709" lon="3.00297">
        <ele>940.368931</ele>
        <time>2021-07-09T08:27:21+0200</time>
      </trkpt>
      <trkpt lat="45.0871" lon="3.00308">
        <ele>939.729866</ele>
        <time>2021-07-09T08:27:22+0200</time>
      </trkpt>
      <trkpt lat="45.0871" lon="3.00319">
        <ele>939.45055</ele>
        <time>2021-07-09T08:27:23+0200</time>
      </trkpt>
      <trkpt lat="45.08712" lon="3.0033">
        <ele>939.251166</ele>
        <time>2021-07-09T08:27:24+0200</time>
      </trkpt>
      <trkpt lat="45.08713" lon="3.0034">
        <ele>939.268154</ele>
        <time>2021-07-09T08:27:25+0200</time>
      </trkpt>
      <trkpt lat="45.08714" lon="3.0035">
        <ele>939.077663</ele>
        <time>2021-07-09T08:27:26+0200</time>
      </trkpt>
      <trkpt lat="45.08715" lon="3.0036">
        <ele>939.005418</ele>
        <time>2021-07-09T08:27:27+0200</time>
      </trkpt>
      <trkpt lat="45.08716" lon="3.0037">
        <ele>938.918597</ele>
        <time>2021-07-09T08:27:28+0200</time>
      </trkpt>
      <trkpt lat="45.08716" lon="3.0038">
        <ele>939.095496</ele>
        <time>2021-07-09T08:27:29+0200</time>
      </trkpt>
      <trkpt lat="45.08716" lon="3.00389">
        <ele>939.241422</ele>
        <time>2021-07-09T08:27:30+0200</time>
      </trkpt>
      <trkpt lat="45.08716" lon="3.00399">
        <ele>939.209698</ele>
        <time>2021-07-09T08:27:31+0200</time>
      </trkpt>
      <trkpt lat="45.08716" lon="3.00409">
        <ele>939.202321</ele>
        <time>2021-07-09T08:27:32+0200</time>
      </trkpt>
      <trkpt lat="45.08715" lon="3.00418">
        <ele>939.319198</ele>
        <time>2021-07-09T08:27:33+0200</time>
      </trkpt>
      <trkpt lat="45.08714" lon="3.00427">
        <ele>939.24304</ele>
        <time>2021-07-09T08:27:34+0200</time>
      </trkpt>
      <trkpt lat="45.08713" lon="3.00436">
        <ele>939.55451</ele>
        <time>2021-07-09T08:27:35+0200</time>
      </trkpt>
      <trkpt lat="45.0871" lon="3.00443">
        <ele>939.712473</ele>
        <time>2021-07-09T08:27:36+0200</time>
      </trkpt>
      <trkpt lat="45.08708" lon="3.00451">
        <ele>939.703373</ele>
        <time>2021-07-09T08:27:37+0200</time>
      </trkpt>
      <trkpt lat="45.08706" lon="3.00459">
        <ele>939.96562</ele>
        <time>2021-07-09T08:27:38+0200</time>
      </trkpt>
      <trkpt lat="45.08704" lon="3.00466">
        <ele>940.002814</ele>
        <time>2021-07-09T08:27:39+0200</time>
      </trkpt>
      <trkpt lat="45.08702" lon="3.00473">
        <ele>940.262498</ele>
        <time>2021-07-09T08:27:40+0200</time>
      </trkpt>
      <trkpt lat="45.087" lon="3.00481">
        <ele>940.279809</ele>
        <time>2021-07-09T08:27:41+0200</time>
      </trkpt>
      <trkpt lat="45.08698" lon="3.00488">
        <ele>940.507137</ele>
        <time>2021-07-09T08:27:42+0200</time>
      </trkpt>
      <trkpt lat="45.08697" lon="3.00496">
        <ele>940.773967</ele>
        <time>2021-07-09T08:27:43+0200</time>
      </trkpt>
      <trkpt lat="45.08694" lon="3.00503">
        <ele>940.742959</ele>
        <time>2021-07-09T08:27:44+0200</time>
      </trkpt>
      <trkpt lat="45.08691" lon="3.0051">
        <ele>940.590377</ele>
        <time>2021-07-09T08:27:45+0200</time>
      </trkpt>
      <trkpt lat="45.08689" lon="3.00518">
        <ele>940.319635</ele>
        <time>2021-07-09T08:27:46+0200</time>
      </trkpt>
      <trkpt lat="45.08687" lon="3.00525">
        <ele>940.41917</ele>
        <time>2021-07-09T08:27:47+0200</time>
      </trkpt>
      <trkpt lat="45.08685" lon="3.00532">
        <ele>940.168201</ele>
        <time>2021-07-09T08:27:48+0200</time>
      </trkpt>
      <trkpt lat="45.08683" lon="3.0054">
        <ele>940.022082</ele>
        <time>2021-07-09T08:27:49+0200</time>
      </trkpt>
      <trkpt lat="45.08681" lon="3.00548">
        <ele>939.986415</ele>
        <time>2021-07-09T08:27:50+0200</time>
      </trkpt>
      <trkpt lat="45.08679" lon="3.00555">
        <ele>939.832133</ele>
        <time>2021-07-09T08:27:51+0200</time>
      </trkpt>
      <trkpt lat="45.08676" lon="3.00562">
        <ele>939.784376</ele>
        <time>2021-07-09T08:27:52+0200</time>
      </trkpt>
      <trkpt lat="45.08673" lon="3.00569">
        <ele>939.576248</ele>
        <time>2021-07-09T08:27:53+0200</time>
      </trkpt>
      <trkpt lat="45.08671" lon="3.00577">
        <ele>939.648138</ele>
        <time>2021-07-09T08:27:54+0200</time>
      </trkpt>
      <trkpt lat="45.08669" lon="3.00585">
        <ele>939.634901</ele>
        <time>2021-07-09T08:27:55+0200</time>
      </trkpt>
      <trkpt lat="45.08666" lon="3.00592">
        <ele>939.666346</ele>
        <time>2021-07-09T08:27:56+0200</time>
      </trkpt>
      <trkpt lat="45.08664" lon="3.00599">
        <ele>939.627467</ele>
        <time>2021-07-09T08:27:57+0200</time>
      </trkpt>
      <trkpt lat="45.08662" lon="3.00606">
        <ele>939.638448</ele>
        <time>2021-07-09T08:27:58+0200</time>
      </trkpt>
      <trkpt lat="45.0866" lon="3.00613">
        <ele>939.811368</ele>
        <time>2021-07-09T08:27:59+0200</time>
      </trkpt>
      <trkpt lat="45.08658" lon="3.0062">
        <ele>939.712953</ele>
        <time>2021-07-09T08:28:00+0200</time>
      </trkpt>
      <trkpt lat="45.08656" lon="3.00627">
        <ele>939.608327</ele>
        <time>2021-07-09T08:28:01+0200</time>
      </trkpt>
      <trkpt lat="45.08653" lon="3.00634">
        <ele>939.443483</ele>
        <time>2021-07-09T08:28:02+0200</time>
      </trkpt>
      <trkpt lat="45.08651" lon="3.00641">
        <ele>939.528124</ele>
        <time>2021-07-09T08:28:03+0200</time>
      </trkpt>
      <trkpt lat="45.0865" lon="3.00647">
        <ele>939.436384</ele>
        <time>2021-07-09T08:28:04+0200</time>
      </trkpt>
      <trkpt lat="45.08648" lon="3.00654">
        <ele>939.341501</ele>
        <time>2021-07-09T08:28:05+0200</time>
      </trkpt>
      <trkpt lat="45.08646" lon="3.0066">
        <ele>939.334005</ele>
        <time>2021-07-09T08:28:06+0200</time>
      </trkpt>
      <trkpt lat="45.08644" lon="3.00667">
        <ele>939.523444</ele>
        <time>2021-07-09T08:28:07+0200</time>
      </trkpt>
      <trkpt lat="45.0864" lon="3.00677">
        <ele>939.867961</ele>
        <time>2021-07-09T08:28:09+0200</time>
      </trkpt>
      <trkpt lat="45.08639" lon="3.00684">
        <ele>939.655146</ele>
        <time>2021-07-09T08:28:10+0200</time>
      </trkpt>
      <trkpt lat="45.08637" lon="3.0069">
        <ele>939.949741</ele>
        <time>2021-07-09T08:28:11+0200</time>
      </trkpt>
      <trkpt lat="45.08635" lon="3.00696">
        <ele>939.656629</ele>
        <time>2021-07-09T08:28:12+0200</time>
      </trkpt>
      <trkpt lat="45.08633" lon="3.00703">
        <ele>939.513971</ele>
        <time>2021-07-09T08:28:13+0200</time>
      </trkpt>
      <trkpt lat="45.08631" lon="3.00709">
        <ele>939.342141</ele>
        <time>2021-07-09T08:28:14+0200</time>
      </trkpt>
      <trkpt lat="45.08628" lon="3.00721">
        <ele>939.459515</ele>
        <time>2021-07-09T08:28:16+0200</time>
      </trkpt>
      <trkpt lat="45.08624" lon="3.00731">
        <ele>939.704073</ele>
        <time>2021-07-09T08:28:18+0200</time>
      </trkpt>
      <trkpt lat="45.08622" lon="3.00737">
        <ele>939.954676</ele>
        <time>2021-07-09T08:28:19+0200</time>
      </trkpt>
      <trkpt lat="45.0862" lon="3.00743">
        <ele>940.139596</ele>
        <time>2021-07-09T08:28:20+0200</time>
      </trkpt>
      <trkpt lat="45.08618" lon="3.00749">
        <ele>940.265886</ele>
        <time>2021-07-09T08:28:21+0200</time>
      </trkpt>
      <trkpt lat="45.08616" lon="3.00755">
        <ele>940.697781</ele>
        <time>2021-07-09T08:28:22+0200</time>
      </trkpt>
      <trkpt lat="45.08614" lon="3.00762">
        <ele>940.958572</ele>
        <time>2021-07-09T08:28:23+0200</time>
      </trkpt>
      <trkpt lat="45.08612" lon="3.00768">
        <ele>941.213989</ele>
        <time>2021-07-09T08:28:24+0200</time>
      </trkpt>
      <trkpt lat="45.08611" lon="3.00774">
        <ele>941.540276</ele>
        <time>2021-07-09T08:28:25+0200</time>
      </trkpt>
      <trkpt lat="45.08608" lon="3.00781">
        <ele>941.531848</ele>
        <time>2021-07-09T08:28:26+0200</time>
      </trkpt>
      <trkpt lat="45.08606" lon="3.00787">
        <ele>941.562318</ele>
        <time>2021-07-09T08:28:27+0200</time>
      </trkpt>
      <trkpt lat="45.08604" lon="3.00794">
        <ele>941.497243</ele>
        <time>2021-07-09T08:28:28+0200</time>
      </trkpt>
      <trkpt lat="45.08602" lon="3.008">
        <ele>940.943582</ele>
        <time>2021-07-09T08:28:29+0200</time>
      </trkpt>
      <trkpt lat="45.086" lon="3.00807">
        <ele>940.370074</ele>
        <time>2021-07-09T08:28:30+0200</time>
      </trkpt>
      <trkpt lat="45.08598" lon="3.00814">
        <ele>939.838267</ele>
        <time>2021-07-09T08:28:31+0200</time>
      </trkpt>
      <trkpt lat="45.08596" lon="3.00821">
        <ele>939.343641</ele>
        <time>2021-07-09T08:28:32+0200</time>
      </trkpt>
      <trkpt lat="45.08594" lon="3.00827">
        <ele>939.238185</ele>
        <time>2021-07-09T08:28:33+0200</time>
      </trkpt>
      <trkpt lat="45.08592" lon="3.00833">
        <ele>939.32831</ele>
        <time>2021-07-09T08:28:34+0200</time>
      </trkpt>
      <trkpt lat="45.0859" lon="3.00839">
        <ele>939.375302</ele>
        <time>2021-07-09T08:28:35+0200</time>
      </trkpt>
      <trkpt lat="45.08588" lon="3.00845">
        <ele>939.328655</ele>
        <time>2021-07-09T08:28:36+0200</time>
      </trkpt>
      <trkpt lat="45.08584" lon="3.00856">
        <ele>939.9176</ele>
        <time>2021-07-09T08:28:38+0200</time>
      </trkpt>
      <trkpt lat="45.08581" lon="3.00868">
        <ele>939.666484</ele>
        <time>2021-07-09T08:28:40+0200</time>
      </trkpt>
      <trkpt lat="45.08577" lon="3.0088">
        <ele>939.356325</ele>
        <time>2021-07-09T08:28:42+0200</time>
      </trkpt>
      <trkpt lat="45.08575" lon="3.00887">
        <ele>939.225889</ele>
        <time>2021-07-09T08:28:43+0200</time>
      </trkpt>
      <trkpt lat="45.08573" lon="3.00893">
        <ele>939.169301</ele>
        <time>2021-07-09T08:28:44+0200</time>
      </trkpt>
      <trkpt lat="45.08571" lon="3.00899">
        <ele>939.178313</ele>
        <time>2021-07-09T08:28:45+0200</time>
      </trkpt>
      <trkpt lat="45.08569" lon="3.00905">
        <ele>939.152174</ele>
        <time>2021-07-09T08:28:46+0200</time>
      </trkpt>
      <trkpt lat="45.08567" lon="3.00911">
        <ele>938.98631</ele>
        <time>2021-07-09T08:28:47+0200</time>
      </trkpt>
      <trkpt lat="45.08565" lon="3.00918">
        <ele>938.997644</ele>
        <time>2021-07-09T08:28:48+0200</time>
      </trkpt>
      <trkpt lat="45.08564" lon="3.00925">
        <ele>939.087016</ele>
        <time>2021-07-09T08:28:49+0200</time>
      </trkpt>
      <trkpt lat="45.08561" lon="3.00932">
        <ele>939.223537</ele>
        <time>2021-07-09T08:28:50+0200</time>
      </trkpt>
      <trkpt lat="45.08559" lon="3.00938">
        <ele>939.168288</ele>
        <time>2021-07-09T08:28:51+0200</time>
      </trkpt>
      <trkpt lat="45.08556" lon="3.00945">
        <ele>939.107918</ele>
        <time>2021-07-09T08:28:52+0200</time>
      </trkpt>
      <trkpt lat="45.08554" lon="3.00951">
        <ele>939.188591</ele>
        <time>2021-07-09T08:28:53+0200</time>
      </trkpt>
      <trkpt lat="45.08552" lon="3.00957">
        <ele>939.234126</ele>
        <time>2021-07-09T08:28:54+0200</time>
      </trkpt>
      <trkpt lat="45.0855" lon="3.00963">
        <ele>939.22299</ele>
        <time>2021-07-09T08:28:55+0200</time>
      </trkpt>
      <trkpt lat="45.08547" lon="3.00968">
        <ele>939.21426</ele>
        <time>2021-07-09T08:28:56+0200</time>
      </trkpt>
      <trkpt lat="45.08544" lon="3.00974">
        <ele>939.440554</ele>
        <time>2021-07-09T08:28:57+0200</time>
      </trkpt>
      <trkpt lat="45.08542" lon="3.0098">
        <ele>939.292986</ele>
        <time>2021-07-09T08:28:58+0200</time>
      </trkpt>
      <trkpt lat="45.08539" lon="3.00985">
        <ele>939.457198</ele>
        <time>2021-07-09T08:28:59+0200</time>
      </trkpt>
      <trkpt lat="45.08536" lon="3.00991">
        <ele>939.694185</ele>
        <time>2021-07-09T08:29:00+0200</time>
      </trkpt>
      <trkpt lat="45.08533" lon="3.00996">
        <ele>939.673559</ele>
        <time>2021-07-09T08:29:01+0200</time>
      </trkpt>
      <trkpt lat="45.0853" lon="3.01003">
        <ele>939.574092</ele>
        <time>2021-07-09T08:29:02+0200</time>
      </trkpt>
      <trkpt lat="45.08527" lon="3.0101">
        <ele>939.476812</ele>
        <time>2021-07-09T08:29:03+0200</time>
      </trkpt>
      <trkpt lat="45.08525" lon="3.01016">
        <ele>939.290369</ele>
        <time>2021-07-09T08:29:04+0200</time>
      </trkpt>
      <trkpt lat="45.08522" lon="3.01022">
        <ele>939.065482</ele>
        <time>2021-07-09T08:29:05+0200</time>
      </trkpt>
      <trkpt lat="45.0852" lon="3.01028">
        <ele>939.31048</ele>
        <time>2021-07-09T08:29:06+0200</time>
      </trkpt>
      <trkpt lat="45.08517" lon="3.01035">
        <ele>939.129942</ele>
        <time>2021-07-09T08:29:07+0200</time>
      </trkpt>
      <trkpt lat="45.08515" lon="3.01041">
        <ele>939.059267</ele>
        <time>2021-07-09T08:29:08+0200</time>
      </trkpt>
      <trkpt lat="45.08512" lon="3.01048">
        <ele>938.999446</ele>
        <time>2021-07-09T08:29:09+0200</time>
      </trkpt>
      <trkpt lat="45.0851" lon="3.01054">
        <ele>939.071276</ele>
        <time>2021-07-09T08:29:10+0200</time>
      </trkpt>
      <trkpt lat="45.08507" lon="3.01061">
        <ele>939.151435</ele>
        <time>2021-07-09T08:29:11+0200</time>
      </trkpt>
      <trkpt lat="45.08505" lon="3.01067">
        <ele>938.872589</ele>
        <time>2021-07-09T08:29:12+0200</time>
      </trkpt>
      <trkpt lat="45.08503" lon="3.01075">
        <ele>938.701855</ele>
        <time>2021-07-09T08:29:13+0200</time>
      </trkpt>
      <trkpt lat="45.085" lon="3.01082">
        <ele>938.669815</ele>
        <time>2021-07-09T08:29:14+0200</time>
      </trkpt>
      <trkpt lat="45.08498" lon="3.01089">
        <ele>938.671627</ele>
        <time>2021-07-09T08:29:15+0200</time>
      </trkpt>
      <trkpt lat="45.08496" lon="3.01096">
        <ele>938.663146</ele>
        <time>2021-07-09T08:29:16+0200</time>
      </trkpt>
      <trkpt lat="45.08493" lon="3.01103">
        <ele>938.556043</ele>
        <time>2021-07-09T08:29:17+0200</time>
      </trkpt>
      <trkpt lat="45.08491" lon="3.0111">
        <ele>938.55717</ele>
        <time>2021-07-09T08:29:18+0200</time>
      </trkpt>
      <trkpt lat="45.08488" lon="3.01116">
        <ele>938.370542</ele>
        <time>2021-07-09T08:29:19+0200</time>
      </trkpt>
      <trkpt lat="45.08486" lon="3.01122">
        <ele>938.416579</ele>
        <time>2021-07-09T08:29:20+0200</time>
      </trkpt>
      <trkpt lat="45.08483" lon="3.01128">
        <ele>938.377755</ele>
        <time>2021-07-09T08:29:21+0200</time>
      </trkpt>
      <trkpt lat="45.0848" lon="3.01134">
        <ele>938.645408</ele>
        <time>2021-07-09T08:29:22+0200</time>
      </trkpt>
      <trkpt lat="45.08476" lon="3.0114">
        <ele>938.493537</ele>
        <time>2021-07-09T08:29:23+0200</time>
      </trkpt>
      <trkpt lat="45.08473" lon="3.01146">
        <ele>938.601848</ele>
        <time>2021-07-09T08:29:25+0200</time>
      </trkpt>
      <trkpt lat="45.08469" lon="3.01148">
        <ele>938.888439</ele>
        <time>2021-07-09T08:29:28+0200</time>
      </trkpt>
      <trkpt lat="45.08464" lon="3.01152">
        <ele>939.205372</ele>
        <time>2021-07-09T08:29:31+0200</time>
      </trkpt>
      <trkpt lat="45.08459" lon="3.01153">
        <ele>939.454447</ele>
        <time>2021-07-09T08:29:33+0200</time>
      </trkpt>
      <trkpt lat="45.08455" lon="3.01156">
        <ele>939.074272</ele>
        <time>2021-07-09T08:29:35+0200</time>
      </trkpt>
      <trkpt lat="45.08448" lon="3.01159">
        <ele>939.459001</ele>
        <time>2021-07-09T08:29:37+0200</time>
      </trkpt>
      <trkpt lat="45.08444" lon="3.0116">
        <ele>939.379501</ele>
        <time>2021-07-09T08:29:39+0200</time>
      </trkpt>
      <trkpt lat="45.08439" lon="3.01163">
        <ele>938.942474</ele>
        <time>2021-07-09T08:29:41+0200</time>
      </trkpt>
      <trkpt lat="45.08434" lon="3.01168">
        <ele>939.251272</ele>
        <time>2021-07-09T08:29:43+0200</time>
      </trkpt>
      <trkpt lat="45.08429" lon="3.01176">
        <ele>938.622804</ele>
        <time>2021-07-09T08:29:45+0200</time>
      </trkpt>
      <trkpt lat="45.08423" lon="3.01184">
        <ele>938.472292</ele>
        <time>2021-07-09T08:29:47+0200</time>
      </trkpt>
      <trkpt lat="45.08419" lon="3.01193">
        <ele>938.718906</ele>
        <time>2021-07-09T08:29:49+0200</time>
      </trkpt>
      <trkpt lat="45.08415" lon="3.01201">
        <ele>939.05144</ele>
        <time>2021-07-09T08:29:51+0200</time>
      </trkpt>
      <trkpt lat="45.0841" lon="3.01209">
        <ele>939.571953</ele>
        <time>2021-07-09T08:29:53+0200</time>
      </trkpt>
      <trkpt lat="45.08406" lon="3.01217">
        <ele>940.488415</ele>
        <time>2021-07-09T08:29:55+0200</time>
      </trkpt>
      <trkpt lat="45.08403" lon="3.01222">
        <ele>940.513095</ele>
        <time>2021-07-09T08:29:57+0200</time>
      </trkpt>
      <trkpt lat="45.084" lon="3.01229">
        <ele>940.926264</ele>
        <time>2021-07-09T08:29:59+0200</time>
      </trkpt>
      <trkpt lat="45.08397" lon="3.01237">
        <ele>941.052848</ele>
        <time>2021-07-09T08:30:02+0200</time>
      </trkpt>
      <trkpt lat="45.08395" lon="3.01243">
        <ele>940.976427</ele>
        <time>2021-07-09T08:30:04+0200</time>
      </trkpt>
      <trkpt lat="45.08392" lon="3.01249">
        <ele>941.054162</ele>
        <time>2021-07-09T08:30:06+0200</time>
      </trkpt>
      <trkpt lat="45.0839" lon="3.01257">
        <ele>941.502797</ele>
        <time>2021-07-09T08:30:09+0200</time>
      </trkpt>
      <trkpt lat="45.08387" lon="3.01263">
        <ele>941.927809</ele>
        <time>2021-07-09T08:30:11+0200</time>
      </trkpt>
      <trkpt lat="45.08385" lon="3.0127">
        <ele>941.837629</ele>
        <time>2021-07-09T08:30:13+0200</time>
      </trkpt>
      <trkpt lat="45.08383" lon="3.01277">
        <ele>940.999768</ele>
        <time>2021-07-09T08:30:15+0200</time>
      </trkpt>
      <trkpt lat="45.0838" lon="3.01286">
        <ele>941.320315</ele>
        <time>2021-07-09T08:30:18+0200</time>
      </trkpt>
      <trkpt lat="45.08377" lon="3.01291">
        <ele>941.498789</ele>
        <time>2021-07-09T08:30:20+0200</time>
      </trkpt>
      <trkpt lat="45.08374" lon="3.01297">
        <ele>941.493094</ele>
        <time>2021-07-09T08:30:24+0200</time>
      </trkpt>
      <trkpt lat="45.08371" lon="3.01303">
        <ele>941.531269</ele>
        <time>2021-07-09T08:30:27+0200</time>
      </trkpt>
      <trkpt lat="45.0837" lon="3.0131">
        <ele>940.430941</ele>
        <time>2021-07-09T08:30:31+0200</time>
      </trkpt>
      <trkpt lat="45.08368" lon="3.01318">
        <ele>940.572498</ele>
        <time>2021-07-09T08:30:36+0200</time>
      </trkpt>
      <trkpt lat="45.08367" lon="3.01325">
        <ele>939.796194</ele>
        <time>2021-07-09T08:30:39+0200</time>
      </trkpt>
      <trkpt lat="45.08364" lon="3.01332">
        <ele>940.184726</ele>
        <time>2021-07-09T08:30:42+0200</time>
      </trkpt>
      <trkpt lat="45.08362" lon="3.0134">
        <ele>940.404528</ele>
        <time>2021-07-09T08:30:44+0200</time>
      </trkpt>
      <trkpt lat="45.0836" lon="3.01346">
        <ele>940.279428</ele>
        <time>2021-07-09T08:30:47+0200</time>
      </trkpt>
      <trkpt lat="45.08356" lon="3.01353">
        <ele>941.195224</ele>
        <time>2021-07-09T08:30:50+0200</time>
      </trkpt>
      <trkpt lat="45.08352" lon="3.01358">
        <ele>941.39024</ele>
        <time>2021-07-09T08:30:52+0200</time>
      </trkpt>
      <trkpt lat="45.08349" lon="3.01364">
        <ele>941.632193</ele>
        <time>2021-07-09T08:30:54+0200</time>
      </trkpt>
      <trkpt lat="45.08346" lon="3.0137">
        <ele>940.995903</ele>
        <time>2021-07-09T08:30:56+0200</time>
      </trkpt>
      <trkpt lat="45.08342" lon="3.01375">
        <ele>941.411055</ele>
        <time>2021-07-09T08:30:58+0200</time>
      </trkpt>
      <trkpt lat="45.08337" lon="3.01377">
        <ele>941.339254</ele>
        <time>2021-07-09T08:31:00+0200</time>
      </trkpt>
      <trkpt lat="45.08332" lon="3.01381">
        <ele>941.39797</ele>
        <time>2021-07-09T08:31:03+0200</time>
      </trkpt>
      <trkpt lat="45.08328" lon="3.01385">
        <ele>941.423044</ele>
        <time>2021-07-09T08:31:05+0200</time>
      </trkpt>
      <trkpt lat="45.08324" lon="3.01388">
        <ele>942.050042</ele>
        <time>2021-07-09T08:31:07+0200</time>
      </trkpt>
      <trkpt lat="45.08319" lon="3.01392">
        <ele>942.52459</ele>
        <time>2021-07-09T08:31:09+0200</time>
      </trkpt>
      <trkpt lat="45.08315" lon="3.01395">
        <ele>942.717861</ele>
        <time>2021-07-09T08:31:11+0200</time>
      </trkpt>
      <trkpt lat="45.0831" lon="3.01401">
        <ele>943.673606</ele>
        <time>2021-07-09T08:31:14+0200</time>
      </trkpt>
      <trkpt lat="45.08305" lon="3.01403">
        <ele>943.980474</ele>
        <time>2021-07-09T08:31:17+0200</time>
      </trkpt>
      <trkpt lat="45.08301" lon="3.01407">
        <ele>943.620243</ele>
        <time>2021-07-09T08:31:19+0200</time>
      </trkpt>
      <trkpt lat="45.08297" lon="3.01411">
        <ele>943.484129</ele>
        <time>2021-07-09T08:31:21+0200</time>
      </trkpt>
      <trkpt lat="45.08292" lon="3.01417">
        <ele>943.869847</ele>
        <time>2021-07-09T08:31:24+0200</time>
      </trkpt>
      <trkpt lat="45.08287" lon="3.01421">
        <ele>944.442918</ele>
        <time>2021-07-09T08:31:27+0200</time>
      </trkpt>
      <trkpt lat="45.08281" lon="3.01427">
        <ele>943.728082</ele>
        <time>2021-07-09T08:31:30+0200</time>
      </trkpt>
      <trkpt lat="45.08277" lon="3.01431">
        <ele>943.91469</ele>
        <time>2021-07-09T08:31:32+0200</time>
      </trkpt>
      <trkpt lat="45.08272" lon="3.01435">
        <ele>944.181964</ele>
        <time>2021-07-09T08:31:34+0200</time>
      </trkpt>
      <trkpt lat="45.08267" lon="3.01438">
        <ele>943.979218</ele>
        <time>2021-07-09T08:31:36+0200</time>
      </trkpt>
      <trkpt lat="45.08262" lon="3.0144">
        <ele>944.08066</ele>
        <time>2021-07-09T08:31:38+0200</time>
      </trkpt>
      <trkpt lat="45.08256" lon="3.01441">
        <ele>944.239865</ele>
        <time>2021-07-09T08:31:41+0200</time>
      </trkpt>
      <trkpt lat="45.08255" lon="3.01447">
        <ele>944.316418</ele>
        <time>2021-07-09T08:31:44+0200</time>
      </trkpt>
      <trkpt lat="45.08261" lon="3.01451">
        <ele>944.19867</ele>
        <time>2021-07-09T08:31:47+0200</time>
      </trkpt>
      <trkpt lat="45.08265" lon="3.01453">
        <ele>944.398526</ele>
        <time>2021-07-09T08:31:51+0200</time>
      </trkpt>
      <trkpt lat="45.0827" lon="3.01455">
        <ele>944.422084</ele>
        <time>2021-07-09T08:31:55+0200</time>
      </trkpt>
      <trkpt lat="45.08275" lon="3.01458">
        <ele>943.477513</ele>
        <time>2021-07-09T08:31:58+0200</time>
      </trkpt>
      <trkpt lat="45.0828" lon="3.01464">
        <ele>943.627472</ele>
        <time>2021-07-09T08:32:01+0200</time>
      </trkpt>
      <trkpt lat="45.08284" lon="3.0147">
        <ele>943.215946</ele>
        <time>2021-07-09T08:32:03+0200</time>
      </trkpt>
      <trkpt lat="45.0829" lon="3.0148">
        <ele>942.53991</ele>
        <time>2021-07-09T08:32:05+0200</time>
      </trkpt>
      <trkpt lat="45.08294" lon="3.01485">
        <ele>942.210429</ele>
        <time>2021-07-09T08:32:06+0200</time>
      </trkpt>
      <trkpt lat="45.08298" lon="3.01491">
        <ele>942.12912</ele>
        <time>2021-07-09T08:32:07+0200</time>
      </trkpt>
      <trkpt lat="45.083" lon="3.01498">
        <ele>941.516486</ele>
        <time>2021-07-09T08:32:08+0200</time>
      </trkpt>
      <trkpt lat="45.08304" lon="3.01505">
        <ele>941.285579</ele>
        <time>2021-07-09T08:32:09+0200</time>
      </trkpt>
      <trkpt lat="45.08308" lon="3.01513">
        <ele>940.745473</ele>
        <time>2021-07-09T08:32:10+0200</time>
      </trkpt>
      <trkpt lat="45.08311" lon="3.01521">
        <ele>940.538217</ele>
        <time>2021-07-09T08:32:11+0200</time>
      </trkpt>
      <trkpt lat="45.08315" lon="3.01529">
        <ele>940.415926</ele>
        <time>2021-07-09T08:32:12+0200</time>
      </trkpt>
      <trkpt lat="45.0832" lon="3.01537">
        <ele>940.142261</ele>
        <time>2021-07-09T08:32:13+0200</time>
      </trkpt>
      <trkpt lat="45.08324" lon="3.01545">
        <ele>939.879891</ele>
        <time>2021-07-09T08:32:14+0200</time>
      </trkpt>
      <trkpt lat="45.08328" lon="3.01554">
        <ele>939.605476</ele>
        <time>2021-07-09T08:32:15+0200</time>
      </trkpt>
      <trkpt lat="45.08331" lon="3.01565">
        <ele>938.999428</ele>
        <time>2021-07-09T08:32:16+0200</time>
      </trkpt>
      <trkpt lat="45.08333" lon="3.01576">
        <ele>938.040775</ele>
        <time>2021-07-09T08:32:17+0200</time>
      </trkpt>
      <trkpt lat="45.08332" lon="3.01589">
        <ele>937.17902</ele>
        <time>2021-07-09T08:32:18+0200</time>
      </trkpt>
      <trkpt lat="45.0833" lon="3.01601">
        <ele>937.027353</ele>
        <time>2021-07-09T08:32:19+0200</time>
      </trkpt>
      <trkpt lat="45.08329" lon="3.01612">
        <ele>936.638945</ele>
        <time>2021-07-09T08:32:20+0200</time>
      </trkpt>
      <trkpt lat="45.08327" lon="3.01621">
        <ele>936.732631</ele>
        <time>2021-07-09T08:32:21+0200</time>
      </trkpt>
      <trkpt lat="45.08329" lon="3.0163">
        <ele>936.79987</ele>
        <time>2021-07-09T08:32:22+0200</time>
      </trkpt>
      <trkpt lat="45.08333" lon="3.01636">
        <ele>937.272504</ele>
        <time>2021-07-09T08:32:26+0200</time>
      </trkpt>
      <trkpt lat="45.08337" lon="3.01641">
        <ele>937.244538</ele>
        <time>2021-07-09T08:32:29+0200</time>
      </trkpt>
      <trkpt lat="45.08342" lon="3.01645">
        <ele>937.000519</ele>
        <time>2021-07-09T08:32:31+0200</time>
      </trkpt>
      <trkpt lat="45.08349" lon="3.01647">
        <ele>936.880681</ele>
        <time>2021-07-09T08:32:33+0200</time>
      </trkpt>
      <trkpt lat="45.08356" lon="3.01647">
        <ele>936.855042</ele>
        <time>2021-07-09T08:32:35+0200</time>
      </trkpt>
      <trkpt lat="45.08362" lon="3.01646">
        <ele>936.835455</ele>
        <time>2021-07-09T08:32:37+0200</time>
      </trkpt>
      <trkpt lat="45.08366" lon="3.01653">
        <ele>937.373439</ele>
        <time>2021-07-09T08:32:39+0200</time>
      </trkpt>
      <trkpt lat="45.08364" lon="3.01659">
        <ele>937.70499</ele>
        <time>2021-07-09T08:32:41+0200</time>
      </trkpt>
      <trkpt lat="45.0836" lon="3.01662">
        <ele>937.769686</ele>
        <time>2021-07-09T08:32:43+0200</time>
      </trkpt>
      <trkpt lat="45.08354" lon="3.01666">
        <ele>937.753265</ele>
        <time>2021-07-09T08:32:46+0200</time>
      </trkpt>
      <trkpt lat="45.0835" lon="3.01672">
        <ele>938.87138</ele>
        <time>2021-07-09T08:32:48+0200</time>
      </trkpt>
      <trkpt lat="45.08346" lon="3.01676">
        <ele>939.989873</ele>
        <time>2021-07-09T08:32:50+0200</time>
      </trkpt>
      <trkpt lat="45.08342" lon="3.01682">
        <ele>939.634703</ele>
        <time>2021-07-09T08:32:53+0200</time>
      </trkpt>
      <trkpt lat="45.08337" lon="3.01686">
        <ele>940.334159</ele>
        <time>2021-07-09T08:32:56+0200</time>
      </trkpt>
      <trkpt lat="45.08331" lon="3.01689">
        <ele>940.734401</ele>
        <time>2021-07-09T08:32:59+0200</time>
      </trkpt>
      <trkpt lat="45.08326" lon="3.01691">
        <ele>941.973829</ele>
        <time>2021-07-09T08:33:01+0200</time>
      </trkpt>
      <trkpt lat="45.08321" lon="3.01695">
        <ele>941.335633</ele>
        <time>2021-07-09T08:33:04+0200</time>
      </trkpt>
      <trkpt lat="45.08316" lon="3.01696">
        <ele>941.069917</ele>
        <time>2021-07-09T08:33:06+0200</time>
      </trkpt>
      <trkpt lat="45.0831" lon="3.01698">
        <ele>941.65239</ele>
        <time>2021-07-09T08:33:08+0200</time>
      </trkpt>
      <trkpt lat="45.08305" lon="3.017">
        <ele>942.223118</ele>
        <time>2021-07-09T08:33:10+0200</time>
      </trkpt>
      <trkpt lat="45.08299" lon="3.01702">
        <ele>942.41007</ele>
        <time>2021-07-09T08:33:12+0200</time>
      </trkpt>
      <trkpt lat="45.08295" lon="3.01705">
        <ele>941.926031</ele>
        <time>2021-07-09T08:33:14+0200</time>
      </trkpt>
      <trkpt lat="45.08289" lon="3.01708">
        <ele>942.133293</ele>
        <time>2021-07-09T08:33:16+0200</time>
      </trkpt>
      <trkpt lat="45.08285" lon="3.01712">
        <ele>941.923753</ele>
        <time>2021-07-09T08:33:18+0200</time>
      </trkpt>
      <trkpt lat="45.08279" lon="3.01714">
        <ele>942.306956</ele>
        <time>2021-07-09T08:33:20+0200</time>
      </trkpt>
      <trkpt lat="45.08274" lon="3.01717">
        <ele>942.539037</ele>
        <time>2021-07-09T08:33:22+0200</time>
      </trkpt>
      <trkpt lat="45.08269" lon="3.01718">
        <ele>943.743771</ele>
        <time>2021-07-09T08:33:24+0200</time>
      </trkpt>
      <trkpt lat="45.08265" lon="3.01722">
        <ele>944.949869</ele>
        <time>2021-07-09T08:33:26+0200</time>
      </trkpt>
      <trkpt lat="45.0826" lon="3.01726">
        <ele>944.612763</ele>
        <time>2021-07-09T08:33:28+0200</time>
      </trkpt>
      <trkpt lat="45.08254" lon="3.0173">
        <ele>944.806317</ele>
        <time>2021-07-09T08:33:30+0200</time>
      </trkpt>
      <trkpt lat="45.08248" lon="3.01733">
        <ele>945.283752</ele>
        <time>2021-07-09T08:33:32+0200</time>
      </trkpt>
      <trkpt lat="45.08244" lon="3.01738">
        <ele>946.055837</ele>
        <time>2021-07-09T08:33:35+0200</time>
      </trkpt>
      <trkpt lat="45.0824" lon="3.01743">
        <ele>946.678804</ele>
        <time>2021-07-09T08:33:37+0200</time>
      </trkpt>
      <trkpt lat="45.08238" lon="3.0175">
        <ele>947.07635</ele>
        <time>2021-07-09T08:33:40+0200</time>
      </trkpt>
      <trkpt lat="45.08236" lon="3.01756">
        <ele>946.93301</ele>
        <time>2021-07-09T08:33:42+0200</time>
      </trkpt>
      <trkpt lat="45.08234" lon="3.01762">
        <ele>947.050679</ele>
        <time>2021-07-09T08:33:44+0200</time>
      </trkpt>
      <trkpt lat="45.08233" lon="3.01769">
        <ele>947.41765</ele>
        <time>2021-07-09T08:33:46+0200</time>
      </trkpt>
      <trkpt lat="45.08232" lon="3.01776">
        <ele>948.268111</ele>
        <time>2021-07-09T08:33:48+0200</time>
      </trkpt>
      <trkpt lat="45.08231" lon="3.01783">
        <ele>948.412196</ele>
        <time>2021-07-09T08:33:50+0200</time>
      </trkpt>
      <trkpt lat="45.08231" lon="3.01791">
        <ele>949.37268</ele>
        <time>2021-07-09T08:33:52+0200</time>
      </trkpt>
      <trkpt lat="45.08229" lon="3.01799">
        <ele>950.232893</ele>
        <time>2021-07-09T08:33:55+0200</time>
      </trkpt>
      <trkpt lat="45.08229" lon="3.01805">
        <ele>950.284463</ele>
        <time>2021-07-09T08:33:57+0200</time>
      </trkpt>
      <trkpt lat="45.08228" lon="3.01812">
        <ele>950.565668</ele>
        <time>2021-07-09T08:33:59+0200</time>
      </trkpt>
      <trkpt lat="45.08226" lon="3.01821">
        <ele>951.038989</ele>
        <time>2021-07-09T08:34:02+0200</time>
      </trkpt>
      <trkpt lat="45.08225" lon="3.01827">
        <ele>951.076259</ele>
        <time>2021-07-09T08:34:04+0200</time>
      </trkpt>
      <trkpt lat="45.08223" lon="3.01834">
        <ele>950.983419</ele>
        <time>2021-07-09T08:34:06+0200</time>
      </trkpt>
      <trkpt lat="45.08223" lon="3.01842">
        <ele>951.968082</ele>
        <time>2021-07-09T08:34:09+0200</time>
      </trkpt>
      <trkpt lat="45.08222" lon="3.01849">
        <ele>952.168071</ele>
        <time>2021-07-09T08:34:11+0200</time>
      </trkpt>
      <trkpt lat="45.08219" lon="3.01858">
        <ele>952.950561</ele>
        <time>2021-07-09T08:34:14+0200</time>
      </trkpt>
      <trkpt lat="45.08218" lon="3.01866">
        <ele>954.166544</ele>
        <time>2021-07-09T08:34:17+0200</time>
      </trkpt>
      <trkpt lat="45.08217" lon="3.01876">
        <ele>954.679024</ele>
        <time>2021-07-09T08:34:20+0200</time>
      </trkpt>
      <trkpt lat="45.08215" lon="3.01883">
        <ele>955.358854</ele>
        <time>2021-07-09T08:34:22+0200</time>
      </trkpt>
      <trkpt lat="45.08214" lon="3.01889">
        <ele>955.881994</ele>
        <time>2021-07-09T08:34:24+0200</time>
      </trkpt>
      <trkpt lat="45.08213" lon="3.01895">
        <ele>956.257507</ele>
        <time>2021-07-09T08:34:26+0200</time>
      </trkpt>
      <trkpt lat="45.08211" lon="3.01902">
        <ele>956.737389</ele>
        <time>2021-07-09T08:34:28+0200</time>
      </trkpt>
      <trkpt lat="45.08209" lon="3.0191">
        <ele>957.301848</ele>
        <time>2021-07-09T08:34:31+0200</time>
      </trkpt>
      <trkpt lat="45.08208" lon="3.01917">
        <ele>957.759275</ele>
        <time>2021-07-09T08:34:33+0200</time>
      </trkpt>
      <trkpt lat="45.08207" lon="3.01924">
        <ele>958.041004</ele>
        <time>2021-07-09T08:34:35+0200</time>
      </trkpt>
      <trkpt lat="45.08206" lon="3.01931">
        <ele>958.171011</ele>
        <time>2021-07-09T08:34:37+0200</time>
      </trkpt>
      <trkpt lat="45.08205" lon="3.01938">
        <ele>958.416289</ele>
        <time>2021-07-09T08:34:39+0200</time>
      </trkpt>
      <trkpt lat="45.08204" lon="3.01944">
        <ele>958.664816</ele>
        <time>2021-07-09T08:34:41+0200</time>
      </trkpt>
      <trkpt lat="45.08203" lon="3.01951">
        <ele>958.806652</ele>
        <time>2021-07-09T08:34:43+0200</time>
      </trkpt>
      <trkpt lat="45.08201" lon="3.01958">
        <ele>959.195415</ele>
        <time>2021-07-09T08:34:45+0200</time>
      </trkpt>
      <trkpt lat="45.082" lon="3.01965">
        <ele>959.176162</ele>
        <time>2021-07-09T08:34:47+0200</time>
      </trkpt>
      <trkpt lat="45.08199" lon="3.01972">
        <ele>959.750755</ele>
        <time>2021-07-09T08:34:49+0200</time>
      </trkpt>
      <trkpt lat="45.08198" lon="3.0198">
        <ele>960.105865</ele>
        <time>2021-07-09T08:34:51+0200</time>
      </trkpt>
      <trkpt lat="45.08196" lon="3.01987">
        <ele>960.553125</ele>
        <time>2021-07-09T08:34:53+0200</time>
      </trkpt>
      <trkpt lat="45.08196" lon="3.01994">
        <ele>960.805653</ele>
        <time>2021-07-09T08:34:55+0200</time>
      </trkpt>
      <trkpt lat="45.08195" lon="3.02002">
        <ele>961.022821</ele>
        <time>2021-07-09T08:34:57+0200</time>
      </trkpt>
      <trkpt lat="45.08194" lon="3.02009">
        <ele>961.325975</ele>
        <time>2021-07-09T08:34:59+0200</time>
      </trkpt>
      <trkpt lat="45.08193" lon="3.02016">
        <ele>961.305047</ele>
        <time>2021-07-09T08:35:01+0200</time>
      </trkpt>
      <trkpt lat="45.08191" lon="3.02024">
        <ele>961.597622</ele>
        <time>2021-07-09T08:35:03+0200</time>
      </trkpt>
      <trkpt lat="45.0819" lon="3.02031">
        <ele>961.584358</ele>
        <time>2021-07-09T08:35:05+0200</time>
      </trkpt>
      <trkpt lat="45.08188" lon="3.02039">
        <ele>961.549537</ele>
        <time>2021-07-09T08:35:07+0200</time>
      </trkpt>
      <trkpt lat="45.08185" lon="3.02047">
        <ele>961.502512</ele>
        <time>2021-07-09T08:35:09+0200</time>
      </trkpt>
      <trkpt lat="45.08182" lon="3.02054">
        <ele>961.444331</ele>
        <time>2021-07-09T08:35:11+0200</time>
      </trkpt>
      <trkpt lat="45.0818" lon="3.02062">
        <ele>961.880059</ele>
        <time>2021-07-09T08:35:13+0200</time>
      </trkpt>
      <trkpt lat="45.08177" lon="3.02071">
        <ele>962.047919</ele>
        <time>2021-07-09T08:35:15+0200</time>
      </trkpt>
      <trkpt lat="45.08175" lon="3.02078">
        <ele>961.898709</ele>
        <time>2021-07-09T08:35:17+0200</time>
      </trkpt>
      <trkpt lat="45.08173" lon="3.02086">
        <ele>961.92902</ele>
        <time>2021-07-09T08:35:19+0200</time>
      </trkpt>
      <trkpt lat="45.08171" lon="3.02092">
        <ele>961.818326</ele>
        <time>2021-07-09T08:35:21+0200</time>
      </trkpt>
      <trkpt lat="45.08169" lon="3.02099">
        <ele>961.974587</ele>
        <time>2021-07-09T08:35:23+0200</time>
      </trkpt>
      <trkpt lat="45.08167" lon="3.02106">
        <ele>961.94905</ele>
        <time>2021-07-09T08:35:25+0200</time>
      </trkpt>
      <trkpt lat="45.08164" lon="3.02113">
        <ele>962.21751</ele>
        <time>2021-07-09T08:35:27+0200</time>
      </trkpt>
      <trkpt lat="45.08162" lon="3.02121">
        <ele>962.338249</ele>
        <time>2021-07-09T08:35:29+0200</time>
      </trkpt>
      <trkpt lat="45.0816" lon="3.0213">
        <ele>962.130526</ele>
        <time>2021-07-09T08:35:31+0200</time>
      </trkpt>
      <trkpt lat="45.08156" lon="3.02136">
        <ele>962.084163</ele>
        <time>2021-07-09T08:35:33+0200</time>
      </trkpt>
      <trkpt lat="45.08154" lon="3.02144">
        <ele>962.230184</ele>
        <time>2021-07-09T08:35:36+0200</time>
      </trkpt>
      <trkpt lat="45.08152" lon="3.02152">
        <ele>962.267037</ele>
        <time>2021-07-09T08:35:39+0200</time>
      </trkpt>
      <trkpt lat="45.0815" lon="3.02158">
        <ele>962.479543</ele>
        <time>2021-07-09T08:35:41+0200</time>
      </trkpt>
      <trkpt lat="45.08147" lon="3.02164">
        <ele>962.779637</ele>
        <time>2021-07-09T08:35:43+0200</time>
      </trkpt>
      <trkpt lat="45.08146" lon="3.0217">
        <ele>963.048415</ele>
        <time>2021-07-09T08:35:45+0200</time>
      </trkpt>
      <trkpt lat="45.08144" lon="3.02177">
        <ele>963.393745</ele>
        <time>2021-07-09T08:35:47+0200</time>
      </trkpt>
      <trkpt lat="45.08143" lon="3.02183">
        <ele>963.594029</ele>
        <time>2021-07-09T08:35:49+0200</time>
      </trkpt>
      <trkpt lat="45.08142" lon="3.02189">
        <ele>963.651738</ele>
        <time>2021-07-09T08:35:51+0200</time>
      </trkpt>
      <trkpt lat="45.0814" lon="3.02196">
        <ele>963.847711</ele>
        <time>2021-07-09T08:35:53+0200</time>
      </trkpt>
      <trkpt lat="45.08138" lon="3.02203">
        <ele>964.101486</ele>
        <time>2021-07-09T08:35:55+0200</time>
      </trkpt>
      <trkpt lat="45.08135" lon="3.0221">
        <ele>964.531828</ele>
        <time>2021-07-09T08:35:57+0200</time>
      </trkpt>
      <trkpt lat="45.08133" lon="3.02217">
        <ele>964.694059</ele>
        <time>2021-07-09T08:35:59+0200</time>
      </trkpt>
      <trkpt lat="45.08131" lon="3.02224">
        <ele>965.047007</ele>
        <time>2021-07-09T08:36:01+0200</time>
      </trkpt>
      <trkpt lat="45.08129" lon="3.0223">
        <ele>965.104329</ele>
        <time>2021-07-09T08:36:03+0200</time>
      </trkpt>
      <trkpt lat="45.08126" lon="3.02238">
        <ele>965.166887</ele>
        <time>2021-07-09T08:36:05+0200</time>
      </trkpt>
      <trkpt lat="45.08125" lon="3.02245">
        <ele>965.332251</ele>
        <time>2021-07-09T08:36:07+0200</time>
      </trkpt>
      <trkpt lat="45.08122" lon="3.02253">
        <ele>965.687949</ele>
        <time>2021-07-09T08:36:10+0200</time>
      </trkpt>
      <trkpt lat="45.08118" lon="3.02259">
        <ele>965.733994</ele>
        <time>2021-07-09T08:36:13+0200</time>
      </trkpt>
      <trkpt lat="45.08116" lon="3.02267">
        <ele>966.340515</ele>
        <time>2021-07-09T08:36:18+0200</time>
      </trkpt>
      <trkpt lat="45.08115" lon="3.02274">
        <ele>966.424308</ele>
        <time>2021-07-09T08:36:21+0200</time>
      </trkpt>
      <trkpt lat="45.08113" lon="3.0228">
        <ele>966.031323</ele>
        <time>2021-07-09T08:36:25+0200</time>
      </trkpt>
      <trkpt lat="45.0811" lon="3.02289">
        <ele>965.418599</ele>
        <time>2021-07-09T08:36:28+0200</time>
      </trkpt>
      <trkpt lat="45.08108" lon="3.02297">
        <ele>965.70953</ele>
        <time>2021-07-09T08:36:30+0200</time>
      </trkpt>
      <trkpt lat="45.08105" lon="3.02306">
        <ele>965.63334</ele>
        <time>2021-07-09T08:36:32+0200</time>
      </trkpt>
      <trkpt lat="45.08103" lon="3.02316">
        <ele>965.760542</ele>
        <time>2021-07-09T08:36:34+0200</time>
      </trkpt>
      <trkpt lat="45.081" lon="3.02325">
        <ele>965.729878</ele>
        <time>2021-07-09T08:36:36+0200</time>
      </trkpt>
      <trkpt lat="45.08097" lon="3.02334">
        <ele>965.832028</ele>
        <time>2021-07-09T08:36:38+0200</time>
      </trkpt>
      <trkpt lat="45.08094" lon="3.02343">
        <ele>966.133635</ele>
        <time>2021-07-09T08:36:40+0200</time>
      </trkpt>
      <trkpt lat="45.08091" lon="3.02352">
        <ele>966.127793</ele>
        <time>2021-07-09T08:36:42+0200</time>
      </trkpt>
      <trkpt lat="45.08088" lon="3.02362">
        <ele>966.083393</ele>
        <time>2021-07-09T08:36:44+0200</time>
      </trkpt>
      <trkpt lat="45.08085" lon="3.02372">
        <ele>966.008792</ele>
        <time>2021-07-09T08:36:46+0200</time>
      </trkpt>
      <trkpt lat="45.08081" lon="3.0238">
        <ele>965.929021</ele>
        <time>2021-07-09T08:36:48+0200</time>
      </trkpt>
      <trkpt lat="45.08078" lon="3.0239">
        <ele>966.193116</ele>
        <time>2021-07-09T08:36:51+0200</time>
      </trkpt>
      <trkpt lat="45.08075" lon="3.02399">
        <ele>966.466615</ele>
        <time>2021-07-09T08:36:53+0200</time>
      </trkpt>
      <trkpt lat="45.08072" lon="3.02409">
        <ele>966.488021</ele>
        <time>2021-07-09T08:36:55+0200</time>
      </trkpt>
      <trkpt lat="45.08068" lon="3.02418">
        <ele>966.231496</ele>
        <time>2021-07-09T08:36:57+0200</time>
      </trkpt>
      <trkpt lat="45.08065" lon="3.02429">
        <ele>966.123514</ele>
        <time>2021-07-09T08:36:59+0200</time>
      </trkpt>
      <trkpt lat="45.08061" lon="3.02438">
        <ele>966.301635</ele>
        <time>2021-07-09T08:37:01+0200</time>
      </trkpt>
      <trkpt lat="45.08058" lon="3.02449">
        <ele>966.348407</ele>
        <time>2021-07-09T08:37:03+0200</time>
      </trkpt>
      <trkpt lat="45.08055" lon="3.02458">
        <ele>966.2924</ele>
        <time>2021-07-09T08:37:05+0200</time>
      </trkpt>
      <trkpt lat="45.08052" lon="3.02468">
        <ele>966.305782</ele>
        <time>2021-07-09T08:37:07+0200</time>
      </trkpt>
      <trkpt lat="45.08049" lon="3.02478">
        <ele>966.422639</ele>
        <time>2021-07-09T08:37:09+0200</time>
      </trkpt>
      <trkpt lat="45.08046" lon="3.02488">
        <ele>966.570021</ele>
        <time>2021-07-09T08:37:11+0200</time>
      </trkpt>
      <trkpt lat="45.08043" lon="3.02498">
        <ele>966.781547</ele>
        <time>2021-07-09T08:37:13+0200</time>
      </trkpt>
      <trkpt lat="45.0804" lon="3.02509">
        <ele>966.947385</ele>
        <time>2021-07-09T08:37:15+0200</time>
      </trkpt>
      <trkpt lat="45.08036" lon="3.02519">
        <ele>967.257021</ele>
        <time>2021-07-09T08:37:17+0200</time>
      </trkpt>
      <trkpt lat="45.08033" lon="3.02529">
        <ele>967.466621</ele>
        <time>2021-07-09T08:37:19+0200</time>
      </trkpt>
      <trkpt lat="45.08029" lon="3.02539">
        <ele>967.678984</ele>
        <time>2021-07-09T08:37:21+0200</time>
      </trkpt>
      <trkpt lat="45.08026" lon="3.02549">
        <ele>968.061635</ele>
        <time>2021-07-09T08:37:23+0200</time>
      </trkpt>
      <trkpt lat="45.08022" lon="3.02559">
        <ele>968.012908</ele>
        <time>2021-07-09T08:37:25+0200</time>
      </trkpt>
      <trkpt lat="45.08018" lon="3.0257">
        <ele>968.211614</ele>
        <time>2021-07-09T08:37:27+0200</time>
      </trkpt>
      <trkpt lat="45.08014" lon="3.0258">
        <ele>968.183005</ele>
        <time>2021-07-09T08:37:29+0200</time>
      </trkpt>
      <trkpt lat="45.0801" lon="3.0259">
        <ele>968.28718</ele>
        <time>2021-07-09T08:37:30+0200</time>
      </trkpt>
      <trkpt lat="45.08006" lon="3.02602">
        <ele>968.112823</ele>
        <time>2021-07-09T08:37:32+0200</time>
      </trkpt>
      <trkpt lat="45.08004" lon="3.02608">
        <ele>967.99208</ele>
        <time>2021-07-09T08:37:33+0200</time>
      </trkpt>
      <trkpt lat="45.08" lon="3.02619">
        <ele>967.672901</ele>
        <time>2021-07-09T08:37:35+0200</time>
      </trkpt>
      <trkpt lat="45.07997" lon="3.02629">
        <ele>967.542197</ele>
        <time>2021-07-09T08:37:37+0200</time>
      </trkpt>
      <trkpt lat="45.07993" lon="3.0264">
        <ele>967.656504</ele>
        <time>2021-07-09T08:37:39+0200</time>
      </trkpt>
      <trkpt lat="45.07989" lon="3.02651">
        <ele>967.599905</ele>
        <time>2021-07-09T08:37:41+0200</time>
      </trkpt>
      <trkpt lat="45.07985" lon="3.02662">
        <ele>967.79725</ele>
        <time>2021-07-09T08:37:43+0200</time>
      </trkpt>
      <trkpt lat="45.07981" lon="3.02672">
        <ele>967.78128</ele>
        <time>2021-07-09T08:37:45+0200</time>
      </trkpt>
      <trkpt lat="45.07979" lon="3.02678">
        <ele>967.782467</ele>
        <time>2021-07-09T08:37:46+0200</time>
      </trkpt>
      <trkpt lat="45.07976" lon="3.02684">
        <ele>967.772546</ele>
        <time>2021-07-09T08:37:47+0200</time>
      </trkpt>
      <trkpt lat="45.07973" lon="3.02694">
        <ele>967.752213</ele>
        <time>2021-07-09T08:37:49+0200</time>
      </trkpt>
      <trkpt lat="45.07968" lon="3.02704">
        <ele>967.671894</ele>
        <time>2021-07-09T08:37:51+0200</time>
      </trkpt>
      <trkpt lat="45.07964" lon="3.02715">
        <ele>968.177291</ele>
        <time>2021-07-09T08:37:53+0200</time>
      </trkpt>
      <trkpt lat="45.07961" lon="3.02725">
        <ele>968.293279</ele>
        <time>2021-07-09T08:37:55+0200</time>
      </trkpt>
      <trkpt lat="45.07956" lon="3.02735">
        <ele>968.339367</ele>
        <time>2021-07-09T08:37:57+0200</time>
      </trkpt>
      <trkpt lat="45.07952" lon="3.02745">
        <ele>968.469839</ele>
        <time>2021-07-09T08:37:59+0200</time>
      </trkpt>
      <trkpt lat="45.0795" lon="3.02751">
        <ele>968.672283</ele>
        <time>2021-07-09T08:38:00+0200</time>
      </trkpt>
      <trkpt lat="45.07947" lon="3.02757">
        <ele>968.627245</ele>
        <time>2021-07-09T08:38:01+0200</time>
      </trkpt>
      <trkpt lat="45.07944" lon="3.02767">
        <ele>968.452186</ele>
        <time>2021-07-09T08:38:03+0200</time>
      </trkpt>
      <trkpt lat="45.0794" lon="3.02778">
        <ele>968.288864</ele>
        <time>2021-07-09T08:38:05+0200</time>
      </trkpt>
      <trkpt lat="45.07937" lon="3.02789">
        <ele>968.243318</ele>
        <time>2021-07-09T08:38:07+0200</time>
      </trkpt>
      <trkpt lat="45.07934" lon="3.02795">
        <ele>968.416815</ele>
        <time>2021-07-09T08:38:08+0200</time>
      </trkpt>
      <trkpt lat="45.07932" lon="3.02801">
        <ele>968.555495</ele>
        <time>2021-07-09T08:38:09+0200</time>
      </trkpt>
      <trkpt lat="45.0793" lon="3.02807">
        <ele>968.624763</ele>
        <time>2021-07-09T08:38:10+0200</time>
      </trkpt>
      <trkpt lat="45.07928" lon="3.02812">
        <ele>968.671184</ele>
        <time>2021-07-09T08:38:11+0200</time>
      </trkpt>
      <trkpt lat="45.07924" lon="3.02824">
        <ele>968.124678</ele>
        <time>2021-07-09T08:38:13+0200</time>
      </trkpt>
      <trkpt lat="45.0792" lon="3.02835">
        <ele>967.828315</ele>
        <time>2021-07-09T08:38:15+0200</time>
      </trkpt>
      <trkpt lat="45.07915" lon="3.02845">
        <ele>967.552229</ele>
        <time>2021-07-09T08:38:17+0200</time>
      </trkpt>
      <trkpt lat="45.07911" lon="3.02855">
        <ele>967.485639</ele>
        <time>2021-07-09T08:38:19+0200</time>
      </trkpt>
      <trkpt lat="45.07907" lon="3.02864">
        <ele>967.47339</ele>
        <time>2021-07-09T08:38:21+0200</time>
      </trkpt>
      <trkpt lat="45.07902" lon="3.02874">
        <ele>967.839829</ele>
        <time>2021-07-09T08:38:23+0200</time>
      </trkpt>
      <trkpt lat="45.07898" lon="3.02882">
        <ele>967.482372</ele>
        <time>2021-07-09T08:38:25+0200</time>
      </trkpt>
      <trkpt lat="45.07892" lon="3.02888">
        <ele>967.403107</ele>
        <time>2021-07-09T08:38:27+0200</time>
      </trkpt>
      <trkpt lat="45.07885" lon="3.02893">
        <ele>966.953235</ele>
        <time>2021-07-09T08:38:29+0200</time>
      </trkpt>
      <trkpt lat="45.07879" lon="3.02897">
        <ele>966.764953</ele>
        <time>2021-07-09T08:38:31+0200</time>
      </trkpt>
      <trkpt lat="45.07874" lon="3.02902">
        <ele>966.845455</ele>
        <time>2021-07-09T08:38:33+0200</time>
      </trkpt>
      <trkpt lat="45.07868" lon="3.02909">
        <ele>966.746336</ele>
        <time>2021-07-09T08:38:35+0200</time>
      </trkpt>
      <trkpt lat="45.07863" lon="3.02915">
        <ele>967.065478</ele>
        <time>2021-07-09T08:38:37+0200</time>
      </trkpt>
      <trkpt lat="45.07858" lon="3.02921">
        <ele>967.315349</ele>
        <time>2021-07-09T08:38:39+0200</time>
      </trkpt>
      <trkpt lat="45.07853" lon="3.02927">
        <ele>967.43332</ele>
        <time>2021-07-09T08:38:41+0200</time>
      </trkpt>
      <trkpt lat="45.07847" lon="3.02934">
        <ele>967.515372</ele>
        <time>2021-07-09T08:38:43+0200</time>
      </trkpt>
      <trkpt lat="45.07841" lon="3.0294">
        <ele>967.16907</ele>
        <time>2021-07-09T08:38:45+0200</time>
      </trkpt>
      <trkpt lat="45.07835" lon="3.02945">
        <ele>967.2935</ele>
        <time>2021-07-09T08:38:47+0200</time>
      </trkpt>
      <trkpt lat="45.07829" lon="3.0295">
        <ele>967.266409</ele>
        <time>2021-07-09T08:38:49+0200</time>
      </trkpt>
      <trkpt lat="45.07823" lon="3.02957">
        <ele>967.780616</ele>
        <time>2021-07-09T08:38:51+0200</time>
      </trkpt>
      <trkpt lat="45.07817" lon="3.02962">
        <ele>967.555512</ele>
        <time>2021-07-09T08:38:53+0200</time>
      </trkpt>
      <trkpt lat="45.07811" lon="3.02968">
        <ele>967.565497</ele>
        <time>2021-07-09T08:38:56+0200</time>
      </trkpt>
      <trkpt lat="45.07805" lon="3.02974">
        <ele>967.426357</ele>
        <time>2021-07-09T08:38:58+0200</time>
      </trkpt>
      <trkpt lat="45.078" lon="3.02981">
        <ele>967.325518</ele>
        <time>2021-07-09T08:39:00+0200</time>
      </trkpt>
      <trkpt lat="45.07794" lon="3.02988">
        <ele>967.348769</ele>
        <time>2021-07-09T08:39:02+0200</time>
      </trkpt>
      <trkpt lat="45.07788" lon="3.02995">
        <ele>967.31556</ele>
        <time>2021-07-09T08:39:04+0200</time>
      </trkpt>
      <trkpt lat="45.07782" lon="3.03001">
        <ele>967.417533</ele>
        <time>2021-07-09T08:39:06+0200</time>
      </trkpt>
      <trkpt lat="45.07776" lon="3.03007">
        <ele>967.561618</ele>
        <time>2021-07-09T08:39:08+0200</time>
      </trkpt>
      <trkpt lat="45.0777" lon="3.03014">
        <ele>967.752769</ele>
        <time>2021-07-09T08:39:10+0200</time>
      </trkpt>
      <trkpt lat="45.07764" lon="3.03021">
        <ele>967.896196</ele>
        <time>2021-07-09T08:39:12+0200</time>
      </trkpt>
      <trkpt lat="45.07758" lon="3.03027">
        <ele>967.799982</ele>
        <time>2021-07-09T08:39:14+0200</time>
      </trkpt>
      <trkpt lat="45.07752" lon="3.03034">
        <ele>968.031018</ele>
        <time>2021-07-09T08:39:16+0200</time>
      </trkpt>
      <trkpt lat="45.07746" lon="3.03041">
        <ele>968.141427</ele>
        <time>2021-07-09T08:39:18+0200</time>
      </trkpt>
      <trkpt lat="45.07741" lon="3.03049">
        <ele>968.237929</ele>
        <time>2021-07-09T08:39:20+0200</time>
      </trkpt>
      <trkpt lat="45.07736" lon="3.03055">
        <ele>968.293565</ele>
        <time>2021-07-09T08:39:22+0200</time>
      </trkpt>
      <trkpt lat="45.0773" lon="3.03061">
        <ele>968.066998</ele>
        <time>2021-07-09T08:39:24+0200</time>
      </trkpt>
      <trkpt lat="45.07724" lon="3.03066">
        <ele>968.170649</ele>
        <time>2021-07-09T08:39:26+0200</time>
      </trkpt>
      <trkpt lat="45.07719" lon="3.03071">
        <ele>968.253413</ele>
        <time>2021-07-09T08:39:28+0200</time>
      </trkpt>
      <trkpt lat="45.07713" lon="3.03076">
        <ele>967.936339</ele>
        <time>2021-07-09T08:39:30+0200</time>
      </trkpt>
      <trkpt lat="45.07708" lon="3.03082">
        <ele>968.234309</ele>
        <time>2021-07-09T08:39:32+0200</time>
      </trkpt>
      <trkpt lat="45.07702" lon="3.03086">
        <ele>968.381668</ele>
        <time>2021-07-09T08:39:34+0200</time>
      </trkpt>
      <trkpt lat="45.07696" lon="3.03091">
        <ele>968.415675</ele>
        <time>2021-07-09T08:39:36+0200</time>
      </trkpt>
      <trkpt lat="45.0769" lon="3.03097">
        <ele>968.39407</ele>
        <time>2021-07-09T08:39:38+0200</time>
      </trkpt>
      <trkpt lat="45.07684" lon="3.03102">
        <ele>968.507261</ele>
        <time>2021-07-09T08:39:40+0200</time>
      </trkpt>
      <trkpt lat="45.07679" lon="3.03109">
        <ele>968.749892</ele>
        <time>2021-07-09T08:39:42+0200</time>
      </trkpt>
      <trkpt lat="45.07675" lon="3.03116">
        <ele>968.491161</ele>
        <time>2021-07-09T08:39:44+0200</time>
      </trkpt>
      <trkpt lat="45.07671" lon="3.03124">
        <ele>968.888985</ele>
        <time>2021-07-09T08:39:46+0200</time>
      </trkpt>
      <trkpt lat="45.07668" lon="3.03131">
        <ele>968.634306</ele>
        <time>2021-07-09T08:39:48+0200</time>
      </trkpt>
      <trkpt lat="45.07664" lon="3.03139">
        <ele>968.425814</ele>
        <time>2021-07-09T08:39:50+0200</time>
      </trkpt>
      <trkpt lat="45.07661" lon="3.03146">
        <ele>968.410261</ele>
        <time>2021-07-09T08:39:52+0200</time>
      </trkpt>
      <trkpt lat="45.07657" lon="3.03154">
        <ele>968.696317</ele>
        <time>2021-07-09T08:39:54+0200</time>
      </trkpt>
      <trkpt lat="45.07652" lon="3.03161">
        <ele>968.809873</ele>
        <time>2021-07-09T08:39:56+0200</time>
      </trkpt>
      <trkpt lat="45.07648" lon="3.03168">
        <ele>968.748593</ele>
        <time>2021-07-09T08:39:58+0200</time>
      </trkpt>
      <trkpt lat="45.07643" lon="3.03174">
        <ele>968.621359</ele>
        <time>2021-07-09T08:40:00+0200</time>
      </trkpt>
      <trkpt lat="45.07638" lon="3.0318">
        <ele>969.171589</ele>
        <time>2021-07-09T08:40:02+0200</time>
      </trkpt>
      <trkpt lat="45.07633" lon="3.03186">
        <ele>969.361578</ele>
        <time>2021-07-09T08:40:04+0200</time>
      </trkpt>
      <trkpt lat="45.07628" lon="3.03192">
        <ele>969.080838</ele>
        <time>2021-07-09T08:40:06+0200</time>
      </trkpt>
      <trkpt lat="45.07622" lon="3.03196">
        <ele>968.900391</ele>
        <time>2021-07-09T08:40:08+0200</time>
      </trkpt>
      <trkpt lat="45.07617" lon="3.03201">
        <ele>968.63061</ele>
        <time>2021-07-09T08:40:10+0200</time>
      </trkpt>
      <trkpt lat="45.07612" lon="3.03206">
        <ele>968.176669</ele>
        <time>2021-07-09T08:40:12+0200</time>
      </trkpt>
      <trkpt lat="45.07606" lon="3.03211">
        <ele>968.303424</ele>
        <time>2021-07-09T08:40:14+0200</time>
      </trkpt>
      <trkpt lat="45.07601" lon="3.03216">
        <ele>968.523256</ele>
        <time>2021-07-09T08:40:16+0200</time>
      </trkpt>
      <trkpt lat="45.07595" lon="3.03221">
        <ele>968.547283</ele>
        <time>2021-07-09T08:40:18+0200</time>
      </trkpt>
      <trkpt lat="45.07589" lon="3.03226">
        <ele>968.627486</ele>
        <time>2021-07-09T08:40:20+0200</time>
      </trkpt>
      <trkpt lat="45.07586" lon="3.03233">
        <ele>968.915539</ele>
        <time>2021-07-09T08:40:21+0200</time>
      </trkpt>
      <trkpt lat="45.07582" lon="3.03237">
        <ele>969.235535</ele>
        <time>2021-07-09T08:40:23+0200</time>
      </trkpt>
      <trkpt lat="45.07575" lon="3.03238">
        <ele>969.250952</ele>
        <time>2021-07-09T08:40:25+0200</time>
      </trkpt>
      <trkpt lat="45.07568" lon="3.03238">
        <ele>969.273153</ele>
        <time>2021-07-09T08:40:27+0200</time>
      </trkpt>
      <trkpt lat="45.0756" lon="3.03238">
        <ele>969.213177</ele>
        <time>2021-07-09T08:40:29+0200</time>
      </trkpt>
      <trkpt lat="45.07553" lon="3.03237">
        <ele>968.73041</ele>
        <time>2021-07-09T08:40:31+0200</time>
      </trkpt>
      <trkpt lat="45.07545" lon="3.03237">
        <ele>968.962903</ele>
        <time>2021-07-09T08:40:33+0200</time>
      </trkpt>
      <trkpt lat="45.07538" lon="3.03237">
        <ele>968.959896</ele>
        <time>2021-07-09T08:40:35+0200</time>
      </trkpt>
      <trkpt lat="45.0753" lon="3.03239">
        <ele>968.989087</ele>
        <time>2021-07-09T08:40:37+0200</time>
      </trkpt>
      <trkpt lat="45.07523" lon="3.03241">
        <ele>968.841648</ele>
        <time>2021-07-09T08:40:39+0200</time>
      </trkpt>
      <trkpt lat="45.07515" lon="3.03244">
        <ele>968.730632</ele>
        <time>2021-07-09T08:40:41+0200</time>
      </trkpt>
      <trkpt lat="45.07507" lon="3.03247">
        <ele>968.459238</ele>
        <time>2021-07-09T08:40:43+0200</time>
      </trkpt>
      <trkpt lat="45.075" lon="3.03251">
        <ele>968.822617</ele>
        <time>2021-07-09T08:40:45+0200</time>
      </trkpt>
      <trkpt lat="45.07492" lon="3.03254">
        <ele>968.635376</ele>
        <time>2021-07-09T08:40:47+0200</time>
      </trkpt>
      <trkpt lat="45.07486" lon="3.03256">
        <ele>968.411495</ele>
        <time>2021-07-09T08:40:49+0200</time>
      </trkpt>
      <trkpt lat="45.07491" lon="3.03258">
        <ele>969.315487</ele>
        <time>2021-07-09T08:40:58+0200</time>
      </trkpt>
      <trkpt lat="45.07495" lon="3.03251">
        <ele>969.121603</ele>
        <time>2021-07-09T08:41:04+0200</time>
      </trkpt>
      <trkpt lat="45.07494" lon="3.03242">
        <ele>969.207969</ele>
        <time>2021-07-09T08:41:06+0200</time>
      </trkpt>
      <trkpt lat="45.07492" lon="3.03235">
        <ele>969.236241</ele>
        <time>2021-07-09T08:41:08+0200</time>
      </trkpt>
      <trkpt lat="45.07492" lon="3.03227">
        <ele>969.731587</ele>
        <time>2021-07-09T08:41:10+0200</time>
      </trkpt>
      <trkpt lat="45.07491" lon="3.03219">
        <ele>970.175415</ele>
        <time>2021-07-09T08:41:12+0200</time>
      </trkpt>
      <trkpt lat="45.07491" lon="3.0321">
        <ele>970.048293</ele>
        <time>2021-07-09T08:41:14+0200</time>
      </trkpt>
      <trkpt lat="45.0749" lon="3.03204">
        <ele>969.771196</ele>
        <time>2021-07-09T08:41:16+0200</time>
      </trkpt>
      <trkpt lat="45.07489" lon="3.03195">
        <ele>969.671723</ele>
        <time>2021-07-09T08:41:18+0200</time>
      </trkpt>
      <trkpt lat="45.07488" lon="3.03186">
        <ele>969.72165</ele>
        <time>2021-07-09T08:41:19+0200</time>
      </trkpt>
      <trkpt lat="45.07488" lon="3.03178">
        <ele>969.971939</ele>
        <time>2021-07-09T08:41:21+0200</time>
      </trkpt>
      <trkpt lat="45.07489" lon="3.03169">
        <ele>969.84193</ele>
        <time>2021-07-09T08:41:23+0200</time>
      </trkpt>
      <trkpt lat="45.07489" lon="3.03161">
        <ele>969.817292</ele>
        <time>2021-07-09T08:41:25+0200</time>
      </trkpt>
      <trkpt lat="45.07489" lon="3.03152">
        <ele>970.069231</ele>
        <time>2021-07-09T08:41:27+0200</time>
      </trkpt>
      <trkpt lat="45.07489" lon="3.03143">
        <ele>969.737774</ele>
        <time>2021-07-09T08:41:29+0200</time>
      </trkpt>
      <trkpt lat="45.0749" lon="3.03135">
        <ele>969.877569</ele>
        <time>2021-07-09T08:41:31+0200</time>
      </trkpt>
      <trkpt lat="45.0749" lon="3.03128">
        <ele>969.744783</ele>
        <time>2021-07-09T08:41:33+0200</time>
      </trkpt>
      <trkpt lat="45.07489" lon="3.0312">
        <ele>969.707475</ele>
        <time>2021-07-09T08:41:35+0200</time>
      </trkpt>
      <trkpt lat="45.07488" lon="3.03112">
        <ele>969.937323</ele>
        <time>2021-07-09T08:41:37+0200</time>
      </trkpt>
      <trkpt lat="45.07488" lon="3.03104">
        <ele>970.014865</ele>
        <time>2021-07-09T08:41:39+0200</time>
      </trkpt>
      <trkpt lat="45.07487" lon="3.03096">
        <ele>970.043508</ele>
        <time>2021-07-09T08:41:41+0200</time>
      </trkpt>
      <trkpt lat="45.07487" lon="3.03088">
        <ele>970.132722</ele>
        <time>2021-07-09T08:41:43+0200</time>
      </trkpt>
      <trkpt lat="45.07485" lon="3.0308">
        <ele>969.905067</ele>
        <time>2021-07-09T08:41:45+0200</time>
      </trkpt>
      <trkpt lat="45.07485" lon="3.03072">
        <ele>970.06026</ele>
        <time>2021-07-09T08:41:47+0200</time>
      </trkpt>
      <trkpt lat="45.07485" lon="3.03063">
        <ele>970.039646</ele>
        <time>2021-07-09T08:41:49+0200</time>
      </trkpt>
      <trkpt lat="45.07485" lon="3.03055">
        <ele>969.977824</ele>
        <time>2021-07-09T08:41:51+0200</time>
      </trkpt>
      <trkpt lat="45.07485" lon="3.03048">
        <ele>969.795018</ele>
        <time>2021-07-09T08:41:53+0200</time>
      </trkpt>
      <trkpt lat="45.07484" lon="3.03039">
        <ele>970.058628</ele>
        <time>2021-07-09T08:41:55+0200</time>
      </trkpt>
      <trkpt lat="45.07484" lon="3.03031">
        <ele>969.974327</ele>
        <time>2021-07-09T08:41:57+0200</time>
      </trkpt>
      <trkpt lat="45.07483" lon="3.03022">
        <ele>969.955281</ele>
        <time>2021-07-09T08:41:59+0200</time>
      </trkpt>
      <trkpt lat="45.07482" lon="3.03013">
        <ele>969.88028</ele>
        <time>2021-07-09T08:42:01+0200</time>
      </trkpt>
      <trkpt lat="45.0748" lon="3.03005">
        <ele>970.106494</ele>
        <time>2021-07-09T08:42:03+0200</time>
      </trkpt>
      <trkpt lat="45.07479" lon="3.02995">
        <ele>970.141678</ele>
        <time>2021-07-09T08:42:05+0200</time>
      </trkpt>
      <trkpt lat="45.07478" lon="3.02987">
        <ele>969.903425</ele>
        <time>2021-07-09T08:42:07+0200</time>
      </trkpt>
      <trkpt lat="45.07476" lon="3.02978">
        <ele>970.080956</ele>
        <time>2021-07-09T08:42:09+0200</time>
      </trkpt>
      <trkpt lat="45.07475" lon="3.0297">
        <ele>970.235774</ele>
        <time>2021-07-09T08:42:11+0200</time>
      </trkpt>
      <trkpt lat="45.07473" lon="3.02961">
        <ele>969.829357</ele>
        <time>2021-07-09T08:42:13+0200</time>
      </trkpt>
      <trkpt lat="45.0747" lon="3.02952">
        <ele>970.272101</ele>
        <time>2021-07-09T08:42:15+0200</time>
      </trkpt>
      <trkpt lat="45.07468" lon="3.02945">
        <ele>970.340449</ele>
        <time>2021-07-09T08:42:17+0200</time>
      </trkpt>
      <trkpt lat="45.07466" lon="3.02935">
        <ele>970.343239</ele>
        <time>2021-07-09T08:42:19+0200</time>
      </trkpt>
      <trkpt lat="45.07462" lon="3.02927">
        <ele>970.010658</ele>
        <time>2021-07-09T08:42:21+0200</time>
      </trkpt>
      <trkpt lat="45.07458" lon="3.02918">
        <ele>969.642788</ele>
        <time>2021-07-09T08:42:23+0200</time>
      </trkpt>
      <trkpt lat="45.07456" lon="3.0291">
        <ele>969.33065</ele>
        <time>2021-07-09T08:42:25+0200</time>
      </trkpt>
      <trkpt lat="45.07452" lon="3.02902">
        <ele>969.234249</ele>
        <time>2021-07-09T08:42:27+0200</time>
      </trkpt>
      <trkpt lat="45.0745" lon="3.02893">
        <ele>968.816523</ele>
        <time>2021-07-09T08:42:29+0200</time>
      </trkpt>
      <trkpt lat="45.07447" lon="3.02885">
        <ele>968.900305</ele>
        <time>2021-07-09T08:42:31+0200</time>
      </trkpt>
      <trkpt lat="45.07445" lon="3.02876">
        <ele>968.933592</ele>
        <time>2021-07-09T08:42:33+0200</time>
      </trkpt>
      <trkpt lat="45.07444" lon="3.02867">
        <ele>969.101194</ele>
        <time>2021-07-09T08:42:35+0200</time>
      </trkpt>
      <trkpt lat="45.07444" lon="3.02859">
        <ele>969.418462</ele>
        <time>2021-07-09T08:42:37+0200</time>
      </trkpt>
      <trkpt lat="45.07443" lon="3.02851">
        <ele>968.929873</ele>
        <time>2021-07-09T08:42:39+0200</time>
      </trkpt>
      <trkpt lat="45.07443" lon="3.02842">
        <ele>968.644365</ele>
        <time>2021-07-09T08:42:41+0200</time>
      </trkpt>
      <trkpt lat="45.07443" lon="3.02835">
        <ele>968.913476</ele>
        <time>2021-07-09T08:42:43+0200</time>
      </trkpt>
      <trkpt lat="45.07443" lon="3.02826">
        <ele>969.40321</ele>
        <time>2021-07-09T08:42:45+0200</time>
      </trkpt>
      <trkpt lat="45.07442" lon="3.02816">
        <ele>969.879399</ele>
        <time>2021-07-09T08:42:47+0200</time>
      </trkpt>
      <trkpt lat="45.07441" lon="3.02807">
        <ele>969.715892</ele>
        <time>2021-07-09T08:42:49+0200</time>
      </trkpt>
      <trkpt lat="45.07441" lon="3.02797">
        <ele>969.296526</ele>
        <time>2021-07-09T08:42:51+0200</time>
      </trkpt>
      <trkpt lat="45.0744" lon="3.02788">
        <ele>969.22081</ele>
        <time>2021-07-09T08:42:53+0200</time>
      </trkpt>
      <trkpt lat="45.07438" lon="3.02779">
        <ele>969.381527</ele>
        <time>2021-07-09T08:42:55+0200</time>
      </trkpt>
      <trkpt lat="45.07438" lon="3.02769">
        <ele>969.369485</ele>
        <time>2021-07-09T08:42:57+0200</time>
      </trkpt>
      <trkpt lat="45.07438" lon="3.0276">
        <ele>969.587349</ele>
        <time>2021-07-09T08:42:59+0200</time>
      </trkpt>
      <trkpt lat="45.07438" lon="3.02751">
        <ele>969.848493</ele>
        <time>2021-07-09T08:43:01+0200</time>
      </trkpt>
      <trkpt lat="45.07438" lon="3.02742">
        <ele>969.851576</ele>
        <time>2021-07-09T08:43:03+0200</time>
      </trkpt>
      <trkpt lat="45.07437" lon="3.02735">
        <ele>970.223841</ele>
        <time>2021-07-09T08:43:05+0200</time>
      </trkpt>
      <trkpt lat="45.07437" lon="3.02725">
        <ele>970.666802</ele>
        <time>2021-07-09T08:43:08+0200</time>
      </trkpt>
      <trkpt lat="45.07437" lon="3.02716">
        <ele>970.659675</ele>
        <time>2021-07-09T08:43:10+0200</time>
      </trkpt>
      <trkpt lat="45.07438" lon="3.02707">
        <ele>970.703245</ele>
        <time>2021-07-09T08:43:12+0200</time>
      </trkpt>
      <trkpt lat="45.07437" lon="3.02699">
        <ele>970.550678</ele>
        <time>2021-07-09T08:43:14+0200</time>
      </trkpt>
      <trkpt lat="45.07437" lon="3.0269">
        <ele>970.79307</ele>
        <time>2021-07-09T08:43:15+0200</time>
      </trkpt>
      <trkpt lat="45.07436" lon="3.02681">
        <ele>970.853282</ele>
        <time>2021-07-09T08:43:17+0200</time>
      </trkpt>
      <trkpt lat="45.07437" lon="3.02673">
        <ele>971.069613</ele>
        <time>2021-07-09T08:43:19+0200</time>
      </trkpt>
      <trkpt lat="45.07437" lon="3.02665">
        <ele>971.140194</ele>
        <time>2021-07-09T08:43:21+0200</time>
      </trkpt>
      <trkpt lat="45.07436" lon="3.02656">
        <ele>970.924308</ele>
        <time>2021-07-09T08:43:24+0200</time>
      </trkpt>
      <trkpt lat="45.07434" lon="3.02649">
        <ele>970.464279</ele>
        <time>2021-07-09T08:43:29+0200</time>
      </trkpt>
      <trkpt lat="45.07433" lon="3.0264">
        <ele>970.253744</ele>
        <time>2021-07-09T08:43:32+0200</time>
      </trkpt>
      <trkpt lat="45.07433" lon="3.02633">
        <ele>970.614193</ele>
        <time>2021-07-09T08:43:34+0200</time>
      </trkpt>
      <trkpt lat="45.07433" lon="3.02625">
        <ele>970.523712</ele>
        <time>2021-07-09T08:43:36+0200</time>
      </trkpt>
      <trkpt lat="45.07433" lon="3.02615">
        <ele>970.666415</ele>
        <time>2021-07-09T08:43:38+0200</time>
      </trkpt>
      <trkpt lat="45.07434" lon="3.02607">
        <ele>970.814672</ele>
        <time>2021-07-09T08:43:40+0200</time>
      </trkpt>
      <trkpt lat="45.07433" lon="3.02598">
        <ele>970.995614</ele>
        <time>2021-07-09T08:43:42+0200</time>
      </trkpt>
      <trkpt lat="45.07432" lon="3.0259">
        <ele>971.042516</ele>
        <time>2021-07-09T08:43:44+0200</time>
      </trkpt>
      <trkpt lat="45.07431" lon="3.02582">
        <ele>971.474104</ele>
        <time>2021-07-09T08:43:46+0200</time>
      </trkpt>
      <trkpt lat="45.07431" lon="3.02574">
        <ele>971.515051</ele>
        <time>2021-07-09T08:43:48+0200</time>
      </trkpt>
      <trkpt lat="45.0743" lon="3.02567">
        <ele>971.401767</ele>
        <time>2021-07-09T08:43:50+0200</time>
      </trkpt>
      <trkpt lat="45.07429" lon="3.0256">
        <ele>971.473208</ele>
        <time>2021-07-09T08:43:52+0200</time>
      </trkpt>
      <trkpt lat="45.07429" lon="3.02553">
        <ele>971.119556</ele>
        <time>2021-07-09T08:43:54+0200</time>
      </trkpt>
      <trkpt lat="45.07428" lon="3.02546">
        <ele>971.575795</ele>
        <time>2021-07-09T08:43:56+0200</time>
      </trkpt>
      <trkpt lat="45.07429" lon="3.02538">
        <ele>971.515292</ele>
        <time>2021-07-09T08:43:58+0200</time>
      </trkpt>
      <trkpt lat="45.07428" lon="3.02529">
        <ele>971.158203</ele>
        <time>2021-07-09T08:44:00+0200</time>
      </trkpt>
      <trkpt lat="45.07427" lon="3.02521">
        <ele>970.521012</ele>
        <time>2021-07-09T08:44:02+0200</time>
      </trkpt>
      <trkpt lat="45.07427" lon="3.02513">
        <ele>970.822557</ele>
        <time>2021-07-09T08:44:04+0200</time>
      </trkpt>
      <trkpt lat="45.07427" lon="3.02504">
        <ele>970.93813</ele>
        <time>2021-07-09T08:44:06+0200</time>
      </trkpt>
      <trkpt lat="45.07426" lon="3.02495">
        <ele>970.918374</ele>
        <time>2021-07-09T08:44:08+0200</time>
      </trkpt>
      <trkpt lat="45.07425" lon="3.02486">
        <ele>970.468851</ele>
        <time>2021-07-09T08:44:10+0200</time>
      </trkpt>
      <trkpt lat="45.07424" lon="3.02476">
        <ele>970.477165</ele>
        <time>2021-07-09T08:44:12+0200</time>
      </trkpt>
      <trkpt lat="45.07424" lon="3.02466">
        <ele>970.383506</ele>
        <time>2021-07-09T08:44:14+0200</time>
      </trkpt>
      <trkpt lat="45.07423" lon="3.02457">
        <ele>970.273604</ele>
        <time>2021-07-09T08:44:16+0200</time>
      </trkpt>
      <trkpt lat="45.07423" lon="3.02448">
        <ele>970.40741</ele>
        <time>2021-07-09T08:44:18+0200</time>
      </trkpt>
      <trkpt lat="45.0742" lon="3.02439">
        <ele>970.296951</ele>
        <time>2021-07-09T08:44:20+0200</time>
      </trkpt>
      <trkpt lat="45.07418" lon="3.0243">
        <ele>970.802117</ele>
        <time>2021-07-09T08:44:22+0200</time>
      </trkpt>
      <trkpt lat="45.07416" lon="3.02422">
        <ele>970.777189</ele>
        <time>2021-07-09T08:44:24+0200</time>
      </trkpt>
      <trkpt lat="45.07414" lon="3.02413">
        <ele>970.573698</ele>
        <time>2021-07-09T08:44:26+0200</time>
      </trkpt>
      <trkpt lat="45.07414" lon="3.02403">
        <ele>971.177002</ele>
        <time>2021-07-09T08:44:28+0200</time>
      </trkpt>
      <trkpt lat="45.07414" lon="3.02394">
        <ele>971.173245</ele>
        <time>2021-07-09T08:44:30+0200</time>
      </trkpt>
      <trkpt lat="45.07414" lon="3.02386">
        <ele>970.936575</ele>
        <time>2021-07-09T08:44:32+0200</time>
      </trkpt>
      <trkpt lat="45.07413" lon="3.02378">
        <ele>970.667994</ele>
        <time>2021-07-09T08:44:34+0200</time>
      </trkpt>
      <trkpt lat="45.07413" lon="3.02369">
        <ele>970.660671</ele>
        <time>2021-07-09T08:44:36+0200</time>
      </trkpt>
      <trkpt lat="45.07414" lon="3.02359">
        <ele>970.83272</ele>
        <time>2021-07-09T08:44:38+0200</time>
      </trkpt>
      <trkpt lat="45.07412" lon="3.0235">
        <ele>970.645267</ele>
        <time>2021-07-09T08:44:40+0200</time>
      </trkpt>
      <trkpt lat="45.07411" lon="3.02342">
        <ele>970.851285</ele>
        <time>2021-07-09T08:44:42+0200</time>
      </trkpt>
      <trkpt lat="45.0741" lon="3.02333">
        <ele>970.988983</ele>
        <time>2021-07-09T08:44:44+0200</time>
      </trkpt>
      <trkpt lat="45.07409" lon="3.02325">
        <ele>970.997806</ele>
        <time>2021-07-09T08:44:46+0200</time>
      </trkpt>
      <trkpt lat="45.07406" lon="3.02317">
        <ele>971.177745</ele>
        <time>2021-07-09T08:44:48+0200</time>
      </trkpt>
      <trkpt lat="45.07404" lon="3.02308">
        <ele>970.955611</ele>
        <time>2021-07-09T08:44:50+0200</time>
      </trkpt>
      <trkpt lat="45.07403" lon="3.02302">
        <ele>970.597402</ele>
        <time>2021-07-09T08:44:52+0200</time>
      </trkpt>
      <trkpt lat="45.07402" lon="3.02295">
        <ele>970.887129</ele>
        <time>2021-07-09T08:44:54+0200</time>
      </trkpt>
      <trkpt lat="45.07401" lon="3.02286">
        <ele>971.118316</ele>
        <time>2021-07-09T08:44:56+0200</time>
      </trkpt>
      <trkpt lat="45.07401" lon="3.02277">
        <ele>971.327696</ele>
        <time>2021-07-09T08:44:58+0200</time>
      </trkpt>
      <trkpt lat="45.07401" lon="3.02268">
        <ele>971.411705</ele>
        <time>2021-07-09T08:45:00+0200</time>
      </trkpt>
      <trkpt lat="45.074" lon="3.0226">
        <ele>971.397938</ele>
        <time>2021-07-09T08:45:02+0200</time>
      </trkpt>
      <trkpt lat="45.07399" lon="3.02251">
        <ele>971.337068</ele>
        <time>2021-07-09T08:45:04+0200</time>
      </trkpt>
      <trkpt lat="45.07399" lon="3.02243">
        <ele>971.228682</ele>
        <time>2021-07-09T08:45:06+0200</time>
      </trkpt>
      <trkpt lat="45.07398" lon="3.02234">
        <ele>971.156885</ele>
        <time>2021-07-09T08:45:08+0200</time>
      </trkpt>
      <trkpt lat="45.07396" lon="3.02226">
        <ele>971.270946</ele>
        <time>2021-07-09T08:45:10+0200</time>
      </trkpt>
      <trkpt lat="45.07394" lon="3.02217">
        <ele>971.360699</ele>
        <time>2021-07-09T08:45:12+0200</time>
      </trkpt>
      <trkpt lat="45.07392" lon="3.02208">
        <ele>971.080232</ele>
        <time>2021-07-09T08:45:15+0200</time>
      </trkpt>
      <trkpt lat="45.0739" lon="3.022">
        <ele>971.007</ele>
        <time>2021-07-09T08:45:17+0200</time>
      </trkpt>
      <trkpt lat="45.07387" lon="3.02191">
        <ele>970.923988</ele>
        <time>2021-07-09T08:45:19+0200</time>
      </trkpt>
      <trkpt lat="45.07386" lon="3.02182">
        <ele>970.880331</ele>
        <time>2021-07-09T08:45:21+0200</time>
      </trkpt>
      <trkpt lat="45.07386" lon="3.02173">
        <ele>970.681292</ele>
        <time>2021-07-09T08:45:22+0200</time>
      </trkpt>
      <trkpt lat="45.07384" lon="3.02164">
        <ele>970.672372</ele>
        <time>2021-07-09T08:45:24+0200</time>
      </trkpt>
      <trkpt lat="45.07383" lon="3.02154">
        <ele>970.79325</ele>
        <time>2021-07-09T08:45:26+0200</time>
      </trkpt>
      <trkpt lat="45.0738" lon="3.02145">
        <ele>970.984626</ele>
        <time>2021-07-09T08:45:28+0200</time>
      </trkpt>
      <trkpt lat="45.07379" lon="3.02135">
        <ele>971.181011</ele>
        <time>2021-07-09T08:45:30+0200</time>
      </trkpt>
      <trkpt lat="45.07377" lon="3.02124">
        <ele>970.914837</ele>
        <time>2021-07-09T08:45:32+0200</time>
      </trkpt>
      <trkpt lat="45.07376" lon="3.02113">
        <ele>971.17174</ele>
        <time>2021-07-09T08:45:34+0200</time>
      </trkpt>
      <trkpt lat="45.07374" lon="3.02102">
        <ele>971.223422</ele>
        <time>2021-07-09T08:45:36+0200</time>
      </trkpt>
      <trkpt lat="45.07373" lon="3.02091">
        <ele>971.408093</ele>
        <time>2021-07-09T08:45:38+0200</time>
      </trkpt>
      <trkpt lat="45.07371" lon="3.02081">
        <ele>971.218828</ele>
        <time>2021-07-09T08:45:40+0200</time>
      </trkpt>
      <trkpt lat="45.07369" lon="3.02071">
        <ele>971.459399</ele>
        <time>2021-07-09T08:45:42+0200</time>
      </trkpt>
      <trkpt lat="45.07366" lon="3.02061">
        <ele>971.318546</ele>
        <time>2021-07-09T08:45:44+0200</time>
      </trkpt>
      <trkpt lat="45.07363" lon="3.02052">
        <ele>971.216285</ele>
        <time>2021-07-09T08:45:46+0200</time>
      </trkpt>
      <trkpt lat="45.07358" lon="3.02043">
        <ele>970.57486</ele>
        <time>2021-07-09T08:45:48+0200</time>
      </trkpt>
      <trkpt lat="45.07354" lon="3.02033">
        <ele>970.16359</ele>
        <time>2021-07-09T08:45:50+0200</time>
      </trkpt>
      <trkpt lat="45.07351" lon="3.02022">
        <ele>970.268967</ele>
        <time>2021-07-09T08:45:52+0200</time>
      </trkpt>
      <trkpt lat="45.07348" lon="3.02012">
        <ele>970.094281</ele>
        <time>2021-07-09T08:45:54+0200</time>
      </trkpt>
      <trkpt lat="45.07345" lon="3.02003">
        <ele>970.475765</ele>
        <time>2021-07-09T08:45:56+0200</time>
      </trkpt>
      <trkpt lat="45.0734" lon="3.01995">
        <ele>970.487287</ele>
        <time>2021-07-09T08:45:58+0200</time>
      </trkpt>
      <trkpt lat="45.07337" lon="3.01986">
        <ele>970.683115</ele>
        <time>2021-07-09T08:46:00+0200</time>
      </trkpt>
      <trkpt lat="45.07332" lon="3.01977">
        <ele>970.720861</ele>
        <time>2021-07-09T08:46:02+0200</time>
      </trkpt>
      <trkpt lat="45.0733" lon="3.01969">
        <ele>970.674215</ele>
        <time>2021-07-09T08:46:04+0200</time>
      </trkpt>
      <trkpt lat="45.07327" lon="3.01959">
        <ele>970.84457</ele>
        <time>2021-07-09T08:46:06+0200</time>
      </trkpt>
      <trkpt lat="45.07322" lon="3.0195">
        <ele>970.344031</ele>
        <time>2021-07-09T08:46:08+0200</time>
      </trkpt>
      <trkpt lat="45.07318" lon="3.01941">
        <ele>970.515558</ele>
        <time>2021-07-09T08:46:10+0200</time>
      </trkpt>
      <trkpt lat="45.07314" lon="3.01932">
        <ele>970.478847</ele>
        <time>2021-07-09T08:46:12+0200</time>
      </trkpt>
      <trkpt lat="45.0731" lon="3.01923">
        <ele>970.560143</ele>
        <time>2021-07-09T08:46:14+0200</time>
      </trkpt>
      <trkpt lat="45.07306" lon="3.01913">
        <ele>970.511842</ele>
        <time>2021-07-09T08:46:16+0200</time>
      </trkpt>
      <trkpt lat="45.07302" lon="3.01903">
        <ele>970.763723</ele>
        <time>2021-07-09T08:46:18+0200</time>
      </trkpt>
      <trkpt lat="45.07298" lon="3.01892">
        <ele>970.831712</ele>
        <time>2021-07-09T08:46:20+0200</time>
      </trkpt>
      <trkpt lat="45.07293" lon="3.01883">
        <ele>970.72758</ele>
        <time>2021-07-09T08:46:22+0200</time>
      </trkpt>
      <trkpt lat="45.0729" lon="3.01878">
        <ele>970.500152</ele>
        <time>2021-07-09T08:46:23+0200</time>
      </trkpt>
      <trkpt lat="45.07287" lon="3.01874">
        <ele>970.41231</ele>
        <time>2021-07-09T08:46:24+0200</time>
      </trkpt>
      <trkpt lat="45.0728" lon="3.01868">
        <ele>970.387189</ele>
        <time>2021-07-09T08:46:26+0200</time>
      </trkpt>
      <trkpt lat="45.07274" lon="3.01862">
        <ele>970.179594</ele>
        <time>2021-07-09T08:46:28+0200</time>
      </trkpt>
      <trkpt lat="45.07266" lon="3.01857">
        <ele>970.096771</ele>
        <time>2021-07-09T08:46:30+0200</time>
      </trkpt>
      <trkpt lat="45.07259" lon="3.01853">
        <ele>969.891773</ele>
        <time>2021-07-09T08:46:32+0200</time>
      </trkpt>
      <trkpt lat="45.07255" lon="3.0185">
        <ele>969.782467</ele>
        <time>2021-07-09T08:46:33+0200</time>
      </trkpt>
      <trkpt lat="45.07247" lon="3.01844">
        <ele>969.917863</ele>
        <time>2021-07-09T08:46:35+0200</time>
      </trkpt>
      <trkpt lat="45.07239" lon="3.01838">
        <ele>969.884895</ele>
        <time>2021-07-09T08:46:37+0200</time>
      </trkpt>
      <trkpt lat="45.07233" lon="3.01833">
        <ele>969.041002</ele>
        <time>2021-07-09T08:46:39+0200</time>
      </trkpt>
      <trkpt lat="45.07225" lon="3.01829">
        <ele>968.792814</ele>
        <time>2021-07-09T08:46:41+0200</time>
      </trkpt>
      <trkpt lat="45.0722" lon="3.01827">
        <ele>968.909567</ele>
        <time>2021-07-09T08:46:42+0200</time>
      </trkpt>
      <trkpt lat="45.07215" lon="3.01819">
        <ele>968.378152</ele>
        <time>2021-07-09T08:46:44+0200</time>
      </trkpt>
      <trkpt lat="45.07209" lon="3.01812">
        <ele>967.566344</ele>
        <time>2021-07-09T08:46:46+0200</time>
      </trkpt>
      <trkpt lat="45.07202" lon="3.01808">
        <ele>966.837556</ele>
        <time>2021-07-09T08:46:48+0200</time>
      </trkpt>
      <trkpt lat="45.07196" lon="3.01805">
        <ele>966.416511</ele>
        <time>2021-07-09T08:46:50+0200</time>
      </trkpt>
      <trkpt lat="45.0719" lon="3.01804">
        <ele>965.823836</ele>
        <time>2021-07-09T08:46:52+0200</time>
      </trkpt>
      <trkpt lat="45.07184" lon="3.01807">
        <ele>965.13485</ele>
        <time>2021-07-09T08:46:54+0200</time>
      </trkpt>
      <trkpt lat="45.07178" lon="3.0181">
        <ele>965.266283</ele>
        <time>2021-07-09T08:46:56+0200</time>
      </trkpt>
      <trkpt lat="45.07173" lon="3.01817">
        <ele>965.217683</ele>
        <time>2021-07-09T08:46:58+0200</time>
      </trkpt>
      <trkpt lat="45.07169" lon="3.01826">
        <ele>965.428818</ele>
        <time>2021-07-09T08:47:00+0200</time>
      </trkpt>
      <trkpt lat="45.07167" lon="3.01838">
        <ele>965.436485</ele>
        <time>2021-07-09T08:47:02+0200</time>
      </trkpt>
      <trkpt lat="45.07168" lon="3.0185">
        <ele>965.81429</ele>
        <time>2021-07-09T08:47:04+0200</time>
      </trkpt>
      <trkpt lat="45.07171" lon="3.0186">
        <ele>966.065835</ele>
        <time>2021-07-09T08:47:06+0200</time>
      </trkpt>
      <trkpt lat="45.07173" lon="3.01872">
        <ele>965.814158</ele>
        <time>2021-07-09T08:47:08+0200</time>
      </trkpt>
      <trkpt lat="45.07174" lon="3.01884">
        <ele>965.784852</ele>
        <time>2021-07-09T08:47:10+0200</time>
      </trkpt>
      <trkpt lat="45.07174" lon="3.01896">
        <ele>965.917169</ele>
        <time>2021-07-09T08:47:12+0200</time>
      </trkpt>
      <trkpt lat="45.07174" lon="3.01903">
        <ele>965.849082</ele>
        <time>2021-07-09T08:47:13+0200</time>
      </trkpt>
      <trkpt lat="45.07172" lon="3.0191">
        <ele>965.867274</ele>
        <time>2021-07-09T08:47:14+0200</time>
      </trkpt>
      <trkpt lat="45.0717" lon="3.01917">
        <ele>965.63162</ele>
        <time>2021-07-09T08:47:15+0200</time>
      </trkpt>
      <trkpt lat="45.07169" lon="3.01924">
        <ele>965.430279</ele>
        <time>2021-07-09T08:47:16+0200</time>
      </trkpt>
      <trkpt lat="45.07167" lon="3.0193">
        <ele>965.409769</ele>
        <time>2021-07-09T08:47:17+0200</time>
      </trkpt>
      <trkpt lat="45.07166" lon="3.01937">
        <ele>965.266022</ele>
        <time>2021-07-09T08:47:18+0200</time>
      </trkpt>
      <trkpt lat="45.07164" lon="3.01944">
        <ele>965.29712</ele>
        <time>2021-07-09T08:47:20+0200</time>
      </trkpt>
      <trkpt lat="45.07162" lon="3.01951">
        <ele>965.348128</ele>
        <time>2021-07-09T08:47:21+0200</time>
      </trkpt>
      <trkpt lat="45.07161" lon="3.01958">
        <ele>965.539329</ele>
        <time>2021-07-09T08:47:22+0200</time>
      </trkpt>
      <trkpt lat="45.07162" lon="3.01965">
        <ele>965.608544</ele>
        <time>2021-07-09T08:47:23+0200</time>
      </trkpt>
      <trkpt lat="45.07163" lon="3.01972">
        <ele>965.289895</ele>
        <time>2021-07-09T08:47:24+0200</time>
      </trkpt>
      <trkpt lat="45.07163" lon="3.0198">
        <ele>965.065023</ele>
        <time>2021-07-09T08:47:25+0200</time>
      </trkpt>
      <trkpt lat="45.07163" lon="3.01987">
        <ele>965.036329</ele>
        <time>2021-07-09T08:47:26+0200</time>
      </trkpt>
      <trkpt lat="45.07164" lon="3.01995">
        <ele>965.236254</ele>
        <time>2021-07-09T08:47:27+0200</time>
      </trkpt>
      <trkpt lat="45.07164" lon="3.02003">
        <ele>965.257096</ele>
        <time>2021-07-09T08:47:27+0200</time>
      </trkpt>
      <trkpt lat="45.07165" lon="3.02011">
        <ele>965.408227</ele>
        <time>2021-07-09T08:47:28+0200</time>
      </trkpt>
      <trkpt lat="45.07167" lon="3.02018">
        <ele>965.63491</ele>
        <time>2021-07-09T08:47:29+0200</time>
      </trkpt>
      <trkpt lat="45.07168" lon="3.02026">
        <ele>965.602736</ele>
        <time>2021-07-09T08:47:30+0200</time>
      </trkpt>
      <trkpt lat="45.0717" lon="3.02034">
        <ele>965.534414</ele>
        <time>2021-07-09T08:47:31+0200</time>
      </trkpt>
      <trkpt lat="45.07171" lon="3.02042">
        <ele>965.538094</ele>
        <time>2021-07-09T08:47:32+0200</time>
      </trkpt>
      <trkpt lat="45.07172" lon="3.0205">
        <ele>965.020724</ele>
        <time>2021-07-09T08:47:33+0200</time>
      </trkpt>
      <trkpt lat="45.07173" lon="3.02058">
        <ele>964.822004</ele>
        <time>2021-07-09T08:47:34+0200</time>
      </trkpt>
      <trkpt lat="45.07174" lon="3.02066">
        <ele>964.077652</ele>
        <time>2021-07-09T08:47:35+0200</time>
      </trkpt>
      <trkpt lat="45.07174" lon="3.02075">
        <ele>964.113488</ele>
        <time>2021-07-09T08:47:36+0200</time>
      </trkpt>
      <trkpt lat="45.07175" lon="3.02083">
        <ele>963.883798</ele>
        <time>2021-07-09T08:47:37+0200</time>
      </trkpt>
      <trkpt lat="45.07175" lon="3.02092">
        <ele>963.66156</ele>
        <time>2021-07-09T08:47:38+0200</time>
      </trkpt>
      <trkpt lat="45.07176" lon="3.021">
        <ele>963.794315</ele>
        <time>2021-07-09T08:47:39+0200</time>
      </trkpt>
      <trkpt lat="45.07177" lon="3.02108">
        <ele>963.825313</ele>
        <time>2021-07-09T08:47:40+0200</time>
      </trkpt>
      <trkpt lat="45.07179" lon="3.02116">
        <ele>963.595251</ele>
        <time>2021-07-09T08:47:41+0200</time>
      </trkpt>
      <trkpt lat="45.07181" lon="3.02125">
        <ele>963.524694</ele>
        <time>2021-07-09T08:47:42+0200</time>
      </trkpt>
      <trkpt lat="45.07184" lon="3.02132">
        <ele>963.640352</ele>
        <time>2021-07-09T08:47:43+0200</time>
      </trkpt>
      <trkpt lat="45.07187" lon="3.02139">
        <ele>963.673088</ele>
        <time>2021-07-09T08:47:44+0200</time>
      </trkpt>
      <trkpt lat="45.07187" lon="3.02147">
        <ele>963.486285</ele>
        <time>2021-07-09T08:47:45+0200</time>
      </trkpt>
      <trkpt lat="45.07186" lon="3.02156">
        <ele>963.364237</ele>
        <time>2021-07-09T08:47:46+0200</time>
      </trkpt>
      <trkpt lat="45.07183" lon="3.02165">
        <ele>963.07266</ele>
        <time>2021-07-09T08:47:47+0200</time>
      </trkpt>
      <trkpt lat="45.07181" lon="3.02174">
        <ele>963.284798</ele>
        <time>2021-07-09T08:47:48+0200</time>
      </trkpt>
      <trkpt lat="45.07178" lon="3.02182">
        <ele>963.106827</ele>
        <time>2021-07-09T08:47:49+0200</time>
      </trkpt>
      <trkpt lat="45.07176" lon="3.0219">
        <ele>962.978751</ele>
        <time>2021-07-09T08:47:50+0200</time>
      </trkpt>
      <trkpt lat="45.07175" lon="3.02199">
        <ele>963.015669</ele>
        <time>2021-07-09T08:47:51+0200</time>
      </trkpt>
      <trkpt lat="45.07174" lon="3.02208">
        <ele>962.943967</ele>
        <time>2021-07-09T08:47:52+0200</time>
      </trkpt>
      <trkpt lat="45.07173" lon="3.02216">
        <ele>962.790379</ele>
        <time>2021-07-09T08:47:53+0200</time>
      </trkpt>
      <trkpt lat="45.07173" lon="3.02225">
        <ele>962.744808</ele>
        <time>2021-07-09T08:47:54+0200</time>
      </trkpt>
      <trkpt lat="45.07172" lon="3.02234">
        <ele>962.648547</ele>
        <time>2021-07-09T08:47:55+0200</time>
      </trkpt>
      <trkpt lat="45.07171" lon="3.02242">
        <ele>962.452103</ele>
        <time>2021-07-09T08:47:56+0200</time>
      </trkpt>
      <trkpt lat="45.07171" lon="3.02251">
        <ele>962.416945</ele>
        <time>2021-07-09T08:47:57+0200</time>
      </trkpt>
      <trkpt lat="45.0717" lon="3.02258">
        <ele>962.494426</ele>
        <time>2021-07-09T08:47:58+0200</time>
      </trkpt>
      <trkpt lat="45.07169" lon="3.02267">
        <ele>962.530843</ele>
        <time>2021-07-09T08:47:59+0200</time>
      </trkpt>
      <trkpt lat="45.07168" lon="3.02276">
        <ele>962.434067</ele>
        <time>2021-07-09T08:48:00+0200</time>
      </trkpt>
      <trkpt lat="45.07167" lon="3.02284">
        <ele>962.271708</ele>
        <time>2021-07-09T08:48:01+0200</time>
      </trkpt>
      <trkpt lat="45.07166" lon="3.02293">
        <ele>962.138359</ele>
        <time>2021-07-09T08:48:02+0200</time>
      </trkpt>
      <trkpt lat="45.07165" lon="3.02301">
        <ele>961.957407</ele>
        <time>2021-07-09T08:48:03+0200</time>
      </trkpt>
      <trkpt lat="45.07163" lon="3.0231">
        <ele>961.867815</ele>
        <time>2021-07-09T08:48:04+0200</time>
      </trkpt>
      <trkpt lat="45.07162" lon="3.02318">
        <ele>961.779248</ele>
        <time>2021-07-09T08:48:05+0200</time>
      </trkpt>
      <trkpt lat="45.07162" lon="3.02327">
        <ele>961.788505</ele>
        <time>2021-07-09T08:48:06+0200</time>
      </trkpt>
      <trkpt lat="45.07161" lon="3.02335">
        <ele>961.410482</ele>
        <time>2021-07-09T08:48:07+0200</time>
      </trkpt>
      <trkpt lat="45.07159" lon="3.02344">
        <ele>961.48832</ele>
        <time>2021-07-09T08:48:08+0200</time>
      </trkpt>
      <trkpt lat="45.07157" lon="3.02352">
        <ele>961.245061</ele>
        <time>2021-07-09T08:48:09+0200</time>
      </trkpt>
      <trkpt lat="45.07156" lon="3.02361">
        <ele>961.045927</ele>
        <time>2021-07-09T08:48:10+0200</time>
      </trkpt>
      <trkpt lat="45.07154" lon="3.0237">
        <ele>960.8708</ele>
        <time>2021-07-09T08:48:11+0200</time>
      </trkpt>
      <trkpt lat="45.07153" lon="3.02379">
        <ele>960.937065</ele>
        <time>2021-07-09T08:48:12+0200</time>
      </trkpt>
      <trkpt lat="45.07151" lon="3.02388">
        <ele>960.852251</ele>
        <time>2021-07-09T08:48:13+0200</time>
      </trkpt>
      <trkpt lat="45.07149" lon="3.02396">
        <ele>960.728027</ele>
        <time>2021-07-09T08:48:14+0200</time>
      </trkpt>
      <trkpt lat="45.07148" lon="3.02406">
        <ele>960.446122</ele>
        <time>2021-07-09T08:48:15+0200</time>
      </trkpt>
      <trkpt lat="45.07148" lon="3.02414">
        <ele>960.22002</ele>
        <time>2021-07-09T08:48:16+0200</time>
      </trkpt>
      <trkpt lat="45.07148" lon="3.02423">
        <ele>960.279489</ele>
        <time>2021-07-09T08:48:17+0200</time>
      </trkpt>
      <trkpt lat="45.07149" lon="3.02432">
        <ele>960.232432</ele>
        <time>2021-07-09T08:48:18+0200</time>
      </trkpt>
      <trkpt lat="45.07149" lon="3.0244">
        <ele>960.225906</ele>
        <time>2021-07-09T08:48:19+0200</time>
      </trkpt>
      <trkpt lat="45.0715" lon="3.02449">
        <ele>959.989417</ele>
        <time>2021-07-09T08:48:20+0200</time>
      </trkpt>
      <trkpt lat="45.07151" lon="3.02457">
        <ele>959.644729</ele>
        <time>2021-07-09T08:48:21+0200</time>
      </trkpt>
      <trkpt lat="45.07152" lon="3.02465">
        <ele>959.343328</ele>
        <time>2021-07-09T08:48:22+0200</time>
      </trkpt>
      <trkpt lat="45.07153" lon="3.02474">
        <ele>959.23561</ele>
        <time>2021-07-09T08:48:23+0200</time>
      </trkpt>
      <trkpt lat="45.07153" lon="3.02484">
        <ele>958.712577</ele>
        <time>2021-07-09T08:48:24+0200</time>
      </trkpt>
      <trkpt lat="45.07154" lon="3.02494">
        <ele>958.467923</ele>
        <time>2021-07-09T08:48:25+0200</time>
      </trkpt>
      <trkpt lat="45.07154" lon="3.02504">
        <ele>958.233526</ele>
        <time>2021-07-09T08:48:26+0200</time>
      </trkpt>
      <trkpt lat="45.07154" lon="3.02513">
        <ele>957.964582</ele>
        <time>2021-07-09T08:48:27+0200</time>
      </trkpt>
      <trkpt lat="45.07154" lon="3.02524">
        <ele>957.792097</ele>
        <time>2021-07-09T08:48:28+0200</time>
      </trkpt>
      <trkpt lat="45.07155" lon="3.02534">
        <ele>957.37052</ele>
        <time>2021-07-09T08:48:29+0200</time>
      </trkpt>
      <trkpt lat="45.07157" lon="3.02545">
        <ele>956.845645</ele>
        <time>2021-07-09T08:48:30+0200</time>
      </trkpt>
      <trkpt lat="45.07158" lon="3.02554">
        <ele>956.58743</ele>
        <time>2021-07-09T08:48:31+0200</time>
      </trkpt>
      <trkpt lat="45.07159" lon="3.02564">
        <ele>956.342974</ele>
        <time>2021-07-09T08:48:32+0200</time>
      </trkpt>
      <trkpt lat="45.07161" lon="3.02574">
        <ele>955.896345</ele>
        <time>2021-07-09T08:48:33+0200</time>
      </trkpt>
      <trkpt lat="45.07164" lon="3.02583">
        <ele>955.554875</ele>
        <time>2021-07-09T08:48:34+0200</time>
      </trkpt>
      <trkpt lat="45.07168" lon="3.02592">
        <ele>955.456063</ele>
        <time>2021-07-09T08:48:35+0200</time>
      </trkpt>
      <trkpt lat="45.07169" lon="3.02601">
        <ele>955.460873</ele>
        <time>2021-07-09T08:48:36+0200</time>
      </trkpt>
      <trkpt lat="45.07166" lon="3.0261">
        <ele>954.692621</ele>
        <time>2021-07-09T08:48:37+0200</time>
      </trkpt>
      <trkpt lat="45.07161" lon="3.02617">
        <ele>954.666171</ele>
        <time>2021-07-09T08:48:38+0200</time>
      </trkpt>
      <trkpt lat="45.07155" lon="3.02622">
        <ele>954.189888</ele>
        <time>2021-07-09T08:48:39+0200</time>
      </trkpt>
      <trkpt lat="45.07149" lon="3.02626">
        <ele>954.341975</ele>
        <time>2021-07-09T08:48:40+0200</time>
      </trkpt>
      <trkpt lat="45.07144" lon="3.02631">
        <ele>954.391147</ele>
        <time>2021-07-09T08:48:41+0200</time>
      </trkpt>
      <trkpt lat="45.0714" lon="3.02638">
        <ele>954.144585</ele>
        <time>2021-07-09T08:48:42+0200</time>
      </trkpt>
      <trkpt lat="45.07135" lon="3.02645">
        <ele>953.75074</ele>
        <time>2021-07-09T08:48:43+0200</time>
      </trkpt>
      <trkpt lat="45.0713" lon="3.02651">
        <ele>953.776282</ele>
        <time>2021-07-09T08:48:44+0200</time>
      </trkpt>
      <trkpt lat="45.07125" lon="3.02657">
        <ele>953.639268</ele>
        <time>2021-07-09T08:48:45+0200</time>
      </trkpt>
      <trkpt lat="45.0712" lon="3.02662">
        <ele>953.485615</ele>
        <time>2021-07-09T08:48:46+0200</time>
      </trkpt>
      <trkpt lat="45.07116" lon="3.02667">
        <ele>953.187339</ele>
        <time>2021-07-09T08:48:47+0200</time>
      </trkpt>
      <trkpt lat="45.07111" lon="3.02672">
        <ele>953.647488</ele>
        <time>2021-07-09T08:48:48+0200</time>
      </trkpt>
      <trkpt lat="45.07109" lon="3.02679">
        <ele>953.626009</ele>
        <time>2021-07-09T08:48:49+0200</time>
      </trkpt>
      <trkpt lat="45.07108" lon="3.02688">
        <ele>953.721104</ele>
        <time>2021-07-09T08:48:50+0200</time>
      </trkpt>
      <trkpt lat="45.07108" lon="3.02697">
        <ele>953.783603</ele>
        <time>2021-07-09T08:48:51+0200</time>
      </trkpt>
      <trkpt lat="45.07111" lon="3.02707">
        <ele>952.694396</ele>
        <time>2021-07-09T08:48:52+0200</time>
      </trkpt>
      <trkpt lat="45.07113" lon="3.02717">
        <ele>951.974715</ele>
        <time>2021-07-09T08:48:53+0200</time>
      </trkpt>
      <trkpt lat="45.07115" lon="3.02728">
        <ele>951.993381</ele>
        <time>2021-07-09T08:48:54+0200</time>
      </trkpt>
      <trkpt lat="45.07116" lon="3.02739">
        <ele>951.415539</ele>
        <time>2021-07-09T08:48:55+0200</time>
      </trkpt>
      <trkpt lat="45.07119" lon="3.02751">
        <ele>950.634553</ele>
        <time>2021-07-09T08:48:56+0200</time>
      </trkpt>
      <trkpt lat="45.07121" lon="3.02763">
        <ele>950.127653</ele>
        <time>2021-07-09T08:48:57+0200</time>
      </trkpt>
      <trkpt lat="45.07123" lon="3.02776">
        <ele>949.995238</ele>
        <time>2021-07-09T08:48:58+0200</time>
      </trkpt>
      <trkpt lat="45.07124" lon="3.02787">
        <ele>949.632517</ele>
        <time>2021-07-09T08:48:59+0200</time>
      </trkpt>
      <trkpt lat="45.07126" lon="3.02798">
        <ele>948.578878</ele>
        <time>2021-07-09T08:49:00+0200</time>
      </trkpt>
      <trkpt lat="45.07131" lon="3.02806">
        <ele>948.085797</ele>
        <time>2021-07-09T08:49:01+0200</time>
      </trkpt>
      <trkpt lat="45.07138" lon="3.02816">
        <ele>947.583124</ele>
        <time>2021-07-09T08:49:02+0200</time>
      </trkpt>
      <trkpt lat="45.07145" lon="3.02824">
        <ele>946.453436</ele>
        <time>2021-07-09T08:49:03+0200</time>
      </trkpt>
      <trkpt lat="45.07151" lon="3.02833">
        <ele>945.285075</ele>
        <time>2021-07-09T08:49:04+0200</time>
      </trkpt>
      <trkpt lat="45.07158" lon="3.02842">
        <ele>944.786996</ele>
        <time>2021-07-09T08:49:05+0200</time>
      </trkpt>
      <trkpt lat="45.07165" lon="3.02852">
        <ele>944.149093</ele>
        <time>2021-07-09T08:49:06+0200</time>
      </trkpt>
      <trkpt lat="45.07171" lon="3.02863">
        <ele>943.378741</ele>
        <time>2021-07-09T08:49:07+0200</time>
      </trkpt>
      <trkpt lat="45.07174" lon="3.02876">
        <ele>942.003631</ele>
        <time>2021-07-09T08:49:08+0200</time>
      </trkpt>
      <trkpt lat="45.07177" lon="3.0289">
        <ele>940.918634</ele>
        <time>2021-07-09T08:49:09+0200</time>
      </trkpt>
      <trkpt lat="45.0718" lon="3.02904">
        <ele>939.350571</ele>
        <time>2021-07-09T08:49:10+0200</time>
      </trkpt>
      <trkpt lat="45.07181" lon="3.02918">
        <ele>938.516349</ele>
        <time>2021-07-09T08:49:11+0200</time>
      </trkpt>
      <trkpt lat="45.07181" lon="3.02934">
        <ele>937.670673</ele>
        <time>2021-07-09T08:49:12+0200</time>
      </trkpt>
      <trkpt lat="45.07183" lon="3.0295">
        <ele>936.492986</ele>
        <time>2021-07-09T08:49:13+0200</time>
      </trkpt>
      <trkpt lat="45.07186" lon="3.02965">
        <ele>935.564127</ele>
        <time>2021-07-09T08:49:14+0200</time>
      </trkpt>
      <trkpt lat="45.07189" lon="3.02979">
        <ele>935.101233</ele>
        <time>2021-07-09T08:49:15+0200</time>
      </trkpt>
      <trkpt lat="45.07193" lon="3.02994">
        <ele>934.462821</ele>
        <time>2021-07-09T08:49:16+0200</time>
      </trkpt>
      <trkpt lat="45.07199" lon="3.03007">
        <ele>933.791644</ele>
        <time>2021-07-09T08:49:17+0200</time>
      </trkpt>
      <trkpt lat="45.07203" lon="3.0302">
        <ele>933.572047</ele>
        <time>2021-07-09T08:49:18+0200</time>
      </trkpt>
      <trkpt lat="45.07206" lon="3.03035">
        <ele>933.172238</ele>
        <time>2021-07-09T08:49:19+0200</time>
      </trkpt>
      <trkpt lat="45.07208" lon="3.03051">
        <ele>932.850363</ele>
        <time>2021-07-09T08:49:20+0200</time>
      </trkpt>
      <trkpt lat="45.07211" lon="3.03065">
        <ele>932.429874</ele>
        <time>2021-07-09T08:49:21+0200</time>
      </trkpt>
      <trkpt lat="45.07213" lon="3.0308">
        <ele>931.261692</ele>
        <time>2021-07-09T08:49:22+0200</time>
      </trkpt>
      <trkpt lat="45.07215" lon="3.03094">
        <ele>930.156897</ele>
        <time>2021-07-09T08:49:23+0200</time>
      </trkpt>
      <trkpt lat="45.07215" lon="3.03105">
        <ele>929.108393</ele>
        <time>2021-07-09T08:49:24+0200</time>
      </trkpt>
      <trkpt lat="45.07217" lon="3.03118">
        <ele>928.204807</ele>
        <time>2021-07-09T08:49:26+0200</time>
      </trkpt>
      <trkpt lat="45.07218" lon="3.03132">
        <ele>927.252532</ele>
        <time>2021-07-09T08:49:27+0200</time>
      </trkpt>
      <trkpt lat="45.0722" lon="3.03146">
        <ele>926.469907</ele>
        <time>2021-07-09T08:49:28+0200</time>
      </trkpt>
      <trkpt lat="45.07221" lon="3.0316">
        <ele>925.94761</ele>
        <time>2021-07-09T08:49:29+0200</time>
      </trkpt>
      <trkpt lat="45.07222" lon="3.03175">
        <ele>925.280701</ele>
        <time>2021-07-09T08:49:30+0200</time>
      </trkpt>
      <trkpt lat="45.07222" lon="3.03189">
        <ele>924.42671</ele>
        <time>2021-07-09T08:49:31+0200</time>
      </trkpt>
      <trkpt lat="45.07224" lon="3.03204">
        <ele>923.733144</ele>
        <time>2021-07-09T08:49:32+0200</time>
      </trkpt>
      <trkpt lat="45.07226" lon="3.03219">
        <ele>922.686057</ele>
        <time>2021-07-09T08:49:33+0200</time>
      </trkpt>
      <trkpt lat="45.0723" lon="3.03234">
        <ele>920.838251</ele>
        <time>2021-07-09T08:49:33+0200</time>
      </trkpt>
      <trkpt lat="45.07231" lon="3.03248">
        <ele>919.257675</ele>
        <time>2021-07-09T08:49:34+0200</time>
      </trkpt>
      <trkpt lat="45.07233" lon="3.03262">
        <ele>917.696186</ele>
        <time>2021-07-09T08:49:35+0200</time>
      </trkpt>
      <trkpt lat="45.07235" lon="3.03273">
        <ele>916.764486</ele>
        <time>2021-07-09T08:49:36+0200</time>
      </trkpt>
      <trkpt lat="45.07236" lon="3.03282">
        <ele>916.119649</ele>
        <time>2021-07-09T08:49:37+0200</time>
      </trkpt>
      <trkpt lat="45.07237" lon="3.03291">
        <ele>916.171697</ele>
        <time>2021-07-09T08:49:40+0200</time>
      </trkpt>
      <trkpt lat="45.07231" lon="3.03293">
        <ele>916.606099</ele>
        <time>2021-07-09T08:49:42+0200</time>
      </trkpt>
      <trkpt lat="45.07227" lon="3.03297">
        <ele>915.790712</ele>
        <time>2021-07-09T08:49:46+0200</time>
      </trkpt>
      <trkpt lat="45.07221" lon="3.033">
        <ele>915.799728</ele>
        <time>2021-07-09T08:49:48+0200</time>
      </trkpt>
      <trkpt lat="45.07216" lon="3.03299">
        <ele>914.833878</ele>
        <time>2021-07-09T08:49:58+0200</time>
      </trkpt>
      <trkpt lat="45.07211" lon="3.03305">
        <ele>914.9798</ele>
        <time>2021-07-09T08:50:08+0200</time>
      </trkpt>
      <trkpt lat="45.07208" lon="3.03311">
        <ele>913.965407</ele>
        <time>2021-07-09T08:50:11+0200</time>
      </trkpt>
      <trkpt lat="45.07203" lon="3.03316">
        <ele>913.415923</ele>
        <time>2021-07-09T08:50:14+0200</time>
      </trkpt>
      <trkpt lat="45.072" lon="3.03323">
        <ele>911.339486</ele>
        <time>2021-07-09T08:50:23+0200</time>
      </trkpt>
      <trkpt lat="45.07196" lon="3.03331">
        <ele>910.42165</ele>
        <time>2021-07-09T08:50:26+0200</time>
      </trkpt>
      <trkpt lat="45.07193" lon="3.03336">
        <ele>910.463414</ele>
        <time>2021-07-09T08:50:27+0200</time>
      </trkpt>
      <trkpt lat="45.07192" lon="3.03345">
        <ele>911.521151</ele>
        <time>2021-07-09T08:50:29+0200</time>
      </trkpt>
      <trkpt lat="45.07187" lon="3.03356">
        <ele>911.546908</ele>
        <time>2021-07-09T08:50:31+0200</time>
      </trkpt>
      <trkpt lat="45.07185" lon="3.03363">
        <ele>911.753935</ele>
        <time>2021-07-09T08:50:32+0200</time>
      </trkpt>
      <trkpt lat="45.07183" lon="3.0337">
        <ele>911.290965</ele>
        <time>2021-07-09T08:50:33+0200</time>
      </trkpt>
      <trkpt lat="45.0718" lon="3.03376">
        <ele>910.898022</ele>
        <time>2021-07-09T08:50:34+0200</time>
      </trkpt>
      <trkpt lat="45.07176" lon="3.0338">
        <ele>910.132987</ele>
        <time>2021-07-09T08:50:35+0200</time>
      </trkpt>
      <trkpt lat="45.07173" lon="3.03388">
        <ele>909.645532</ele>
        <time>2021-07-09T08:50:36+0200</time>
      </trkpt>
      <trkpt lat="45.07167" lon="3.03393">
        <ele>909.418471</ele>
        <time>2021-07-09T08:50:37+0200</time>
      </trkpt>
      <trkpt lat="45.07161" lon="3.03399">
        <ele>910.175168</ele>
        <time>2021-07-09T08:50:38+0200</time>
      </trkpt>
      <trkpt lat="45.07154" lon="3.03403">
        <ele>910.323975</ele>
        <time>2021-07-09T08:50:39+0200</time>
      </trkpt>
      <trkpt lat="45.07147" lon="3.03408">
        <ele>910.437933</ele>
        <time>2021-07-09T08:50:40+0200</time>
      </trkpt>
      <trkpt lat="45.07141" lon="3.03412">
        <ele>910.517227</ele>
        <time>2021-07-09T08:50:41+0200</time>
      </trkpt>
      <trkpt lat="45.07134" lon="3.03414">
        <ele>910.398704</ele>
        <time>2021-07-09T08:50:42+0200</time>
      </trkpt>
      <trkpt lat="45.07127" lon="3.03418">
        <ele>910.742885</ele>
        <time>2021-07-09T08:50:43+0200</time>
      </trkpt>
      <trkpt lat="45.07122" lon="3.03424">
        <ele>911.033271</ele>
        <time>2021-07-09T08:50:44+0200</time>
      </trkpt>
      <trkpt lat="45.07115" lon="3.03428">
        <ele>910.755526</ele>
        <time>2021-07-09T08:50:45+0200</time>
      </trkpt>
      <trkpt lat="45.07109" lon="3.03433">
        <ele>910.009385</ele>
        <time>2021-07-09T08:50:46+0200</time>
      </trkpt>
      <trkpt lat="45.07105" lon="3.03441">
        <ele>909.958416</ele>
        <time>2021-07-09T08:50:47+0200</time>
      </trkpt>
      <trkpt lat="45.07102" lon="3.03449">
        <ele>909.809869</ele>
        <time>2021-07-09T08:50:48+0200</time>
      </trkpt>
      <trkpt lat="45.07099" lon="3.03458">
        <ele>909.125785</ele>
        <time>2021-07-09T08:50:49+0200</time>
      </trkpt>
      <trkpt lat="45.07096" lon="3.03467">
        <ele>909.81348</ele>
        <time>2021-07-09T08:50:50+0200</time>
      </trkpt>
      <trkpt lat="45.07092" lon="3.03475">
        <ele>910.144015</ele>
        <time>2021-07-09T08:50:51+0200</time>
      </trkpt>
      <trkpt lat="45.07089" lon="3.03482">
        <ele>909.763306</ele>
        <time>2021-07-09T08:50:52+0200</time>
      </trkpt>
      <trkpt lat="45.07085" lon="3.0349">
        <ele>907.749432</ele>
        <time>2021-07-09T08:50:53+0200</time>
      </trkpt>
      <trkpt lat="45.07082" lon="3.03501">
        <ele>906.560523</ele>
        <time>2021-07-09T08:50:54+0200</time>
      </trkpt>
      <trkpt lat="45.0708" lon="3.03511">
        <ele>904.755421</ele>
        <time>2021-07-09T08:50:55+0200</time>
      </trkpt>
      <trkpt lat="45.07079" lon="3.03521">
        <ele>902.861723</ele>
        <time>2021-07-09T08:50:56+0200</time>
      </trkpt>
      <trkpt lat="45.07077" lon="3.03532">
        <ele>901.050404</ele>
        <time>2021-07-09T08:50:57+0200</time>
      </trkpt>
      <trkpt lat="45.07076" lon="3.03542">
        <ele>900.399452</ele>
        <time>2021-07-09T08:50:58+0200</time>
      </trkpt>
      <trkpt lat="45.07074" lon="3.03552">
        <ele>899.958316</ele>
        <time>2021-07-09T08:50:59+0200</time>
      </trkpt>
      <trkpt lat="45.07073" lon="3.03563">
        <ele>899.101312</ele>
        <time>2021-07-09T08:51:00+0200</time>
      </trkpt>
      <trkpt lat="45.07069" lon="3.03574">
        <ele>897.928642</ele>
        <time>2021-07-09T08:51:01+0200</time>
      </trkpt>
      <trkpt lat="45.07065" lon="3.03582">
        <ele>897.056443</ele>
        <time>2021-07-09T08:51:02+0200</time>
      </trkpt>
      <trkpt lat="45.07062" lon="3.03591">
        <ele>897.446424</ele>
        <time>2021-07-09T08:51:03+0200</time>
      </trkpt>
      <trkpt lat="45.07058" lon="3.03601">
        <ele>897.814609</ele>
        <time>2021-07-09T08:51:04+0200</time>
      </trkpt>
      <trkpt lat="45.07054" lon="3.03611">
        <ele>897.38635</ele>
        <time>2021-07-09T08:51:05+0200</time>
      </trkpt>
      <trkpt lat="45.07048" lon="3.0362">
        <ele>896.290003</ele>
        <time>2021-07-09T08:51:06+0200</time>
      </trkpt>
      <trkpt lat="45.07042" lon="3.0363">
        <ele>895.071899</ele>
        <time>2021-07-09T08:51:07+0200</time>
      </trkpt>
      <trkpt lat="45.07037" lon="3.03642">
        <ele>894.294033</ele>
        <time>2021-07-09T08:51:08+0200</time>
      </trkpt>
      <trkpt lat="45.07034" lon="3.03654">
        <ele>893.851126</ele>
        <time>2021-07-09T08:51:09+0200</time>
      </trkpt>
      <trkpt lat="45.07031" lon="3.03666">
        <ele>892.749331</ele>
        <time>2021-07-09T08:51:10+0200</time>
      </trkpt>
      <trkpt lat="45.07028" lon="3.03681">
        <ele>890.290042</ele>
        <time>2021-07-09T08:51:11+0200</time>
      </trkpt>
      <trkpt lat="45.07027" lon="3.03691">
        <ele>887.185621</ele>
        <time>2021-07-09T08:51:12+0200</time>
      </trkpt>
      <trkpt lat="45.07024" lon="3.03699">
        <ele>884.931484</ele>
        <time>2021-07-09T08:51:13+0200</time>
      </trkpt>
      <trkpt lat="45.07019" lon="3.03704">
        <ele>883.894391</ele>
        <time>2021-07-09T08:51:14+0200</time>
      </trkpt>
      <trkpt lat="45.07013" lon="3.03706">
        <ele>883.064134</ele>
        <time>2021-07-09T08:51:15+0200</time>
      </trkpt>
      <trkpt lat="45.07012" lon="3.03714">
        <ele>883.059633</ele>
        <time>2021-07-09T08:51:17+0200</time>
      </trkpt>
      <trkpt lat="45.07018" lon="3.0372">
        <ele>883.871657</ele>
        <time>2021-07-09T08:51:19+0200</time>
      </trkpt>
      <trkpt lat="45.07023" lon="3.03721">
        <ele>884.816455</ele>
        <time>2021-07-09T08:51:20+0200</time>
      </trkpt>
      <trkpt lat="45.07028" lon="3.03725">
        <ele>883.752645</ele>
        <time>2021-07-09T08:51:21+0200</time>
      </trkpt>
      <trkpt lat="45.07033" lon="3.03731">
        <ele>884.059662</ele>
        <time>2021-07-09T08:51:22+0200</time>
      </trkpt>
      <trkpt lat="45.07036" lon="3.0374">
        <ele>883.181968</ele>
        <time>2021-07-09T08:51:23+0200</time>
      </trkpt>
      <trkpt lat="45.07038" lon="3.03747">
        <ele>882.206202</ele>
        <time>2021-07-09T08:51:24+0200</time>
      </trkpt>
      <trkpt lat="45.07037" lon="3.03755">
        <ele>881.814808</ele>
        <time>2021-07-09T08:51:25+0200</time>
      </trkpt>
      <trkpt lat="45.07035" lon="3.03762">
        <ele>881.472553</ele>
        <time>2021-07-09T08:51:26+0200</time>
      </trkpt>
      <trkpt lat="45.07032" lon="3.03769">
        <ele>880.473455</ele>
        <time>2021-07-09T08:51:27+0200</time>
      </trkpt>
      <trkpt lat="45.07028" lon="3.03777">
        <ele>880.708881</ele>
        <time>2021-07-09T08:51:28+0200</time>
      </trkpt>
      <trkpt lat="45.07025" lon="3.03785">
        <ele>879.787233</ele>
        <time>2021-07-09T08:51:29+0200</time>
      </trkpt>
      <trkpt lat="45.07022" lon="3.03794">
        <ele>879.694781</ele>
        <time>2021-07-09T08:51:30+0200</time>
      </trkpt>
      <trkpt lat="45.07018" lon="3.03803">
        <ele>879.213388</ele>
        <time>2021-07-09T08:51:31+0200</time>
      </trkpt>
      <trkpt lat="45.07016" lon="3.03817">
        <ele>876.37398</ele>
        <time>2021-07-09T08:51:32+0200</time>
      </trkpt>
      <trkpt lat="45.07013" lon="3.03828">
        <ele>874.034632</ele>
        <time>2021-07-09T08:51:33+0200</time>
      </trkpt>
      <trkpt lat="45.07011" lon="3.03842">
        <ele>871.303253</ele>
        <time>2021-07-09T08:51:34+0200</time>
      </trkpt>
      <trkpt lat="45.07009" lon="3.03854">
        <ele>869.870126</ele>
        <time>2021-07-09T08:51:35+0200</time>
      </trkpt>
      <trkpt lat="45.07007" lon="3.03868">
        <ele>867.861394</ele>
        <time>2021-07-09T08:51:36+0200</time>
      </trkpt>
      <trkpt lat="45.07006" lon="3.03881">
        <ele>866.993501</ele>
        <time>2021-07-09T08:51:37+0200</time>
      </trkpt>
      <trkpt lat="45.07005" lon="3.03894">
        <ele>865.920779</ele>
        <time>2021-07-09T08:51:37+0200</time>
      </trkpt>
      <trkpt lat="45.07007" lon="3.03905">
        <ele>864.940656</ele>
        <time>2021-07-09T08:51:38+0200</time>
      </trkpt>
      <trkpt lat="45.07009" lon="3.03918">
        <ele>864.325416</ele>
        <time>2021-07-09T08:51:39+0200</time>
      </trkpt>
      <trkpt lat="45.07011" lon="3.03931">
        <ele>863.617842</ele>
        <time>2021-07-09T08:51:40+0200</time>
      </trkpt>
      <trkpt lat="45.07013" lon="3.03945">
        <ele>862.161592</ele>
        <time>2021-07-09T08:51:41+0200</time>
      </trkpt>
      <trkpt lat="45.07014" lon="3.03958">
        <ele>861.654238</ele>
        <time>2021-07-09T08:51:42+0200</time>
      </trkpt>
      <trkpt lat="45.07017" lon="3.03973">
        <ele>861.194785</ele>
        <time>2021-07-09T08:51:43+0200</time>
      </trkpt>
      <trkpt lat="45.07018" lon="3.03984">
        <ele>860.309797</ele>
        <time>2021-07-09T08:51:44+0200</time>
      </trkpt>
      <trkpt lat="45.0702" lon="3.03993">
        <ele>860.044067</ele>
        <time>2021-07-09T08:51:46+0200</time>
      </trkpt>
      <trkpt lat="45.07022" lon="3.04">
        <ele>860.446033</ele>
        <time>2021-07-09T08:51:47+0200</time>
      </trkpt>
      <trkpt lat="45.07019" lon="3.04009">
        <ele>858.899848</ele>
        <time>2021-07-09T08:51:48+0200</time>
      </trkpt>
      <trkpt lat="45.07015" lon="3.04022">
        <ele>857.626286</ele>
        <time>2021-07-09T08:51:50+0200</time>
      </trkpt>
      <trkpt lat="45.07011" lon="3.04026">
        <ele>857.25195</ele>
        <time>2021-07-09T08:51:51+0200</time>
      </trkpt>
      <trkpt lat="45.07006" lon="3.04031">
        <ele>856.685165</ele>
        <time>2021-07-09T08:51:53+0200</time>
      </trkpt>
      <trkpt lat="45.07001" lon="3.04037">
        <ele>855.796419</ele>
        <time>2021-07-09T08:51:55+0200</time>
      </trkpt>
      <trkpt lat="45.06997" lon="3.0404">
        <ele>857.577353</ele>
        <time>2021-07-09T08:52:13+0200</time>
      </trkpt>
      <trkpt lat="45.06991" lon="3.04037">
        <ele>856.273803</ele>
        <time>2021-07-09T08:52:16+0200</time>
      </trkpt>
      <trkpt lat="45.06988" lon="3.04033">
        <ele>855.797589</ele>
        <time>2021-07-09T08:52:18+0200</time>
      </trkpt>
      <trkpt lat="45.06984" lon="3.04029">
        <ele>855.305372</ele>
        <time>2021-07-09T08:52:20+0200</time>
      </trkpt>
      <trkpt lat="45.06977" lon="3.04024">
        <ele>854.658675</ele>
        <time>2021-07-09T08:52:22+0200</time>
      </trkpt>
      <trkpt lat="45.06972" lon="3.0402">
        <ele>854.775836</ele>
        <time>2021-07-09T08:52:23+0200</time>
      </trkpt>
      <trkpt lat="45.06967" lon="3.04014">
        <ele>854.692203</ele>
        <time>2021-07-09T08:52:24+0200</time>
      </trkpt>
      <trkpt lat="45.06962" lon="3.04008">
        <ele>853.6073</ele>
        <time>2021-07-09T08:52:25+0200</time>
      </trkpt>
      <trkpt lat="45.06956" lon="3.04002">
        <ele>852.67518</ele>
        <time>2021-07-09T08:52:26+0200</time>
      </trkpt>
      <trkpt lat="45.06949" lon="3.03998">
        <ele>851.544067</ele>
        <time>2021-07-09T08:52:27+0200</time>
      </trkpt>
      <trkpt lat="45.0694" lon="3.03994">
        <ele>850.562941</ele>
        <time>2021-07-09T08:52:28+0200</time>
      </trkpt>
      <trkpt lat="45.06931" lon="3.0399">
        <ele>849.171079</ele>
        <time>2021-07-09T08:52:29+0200</time>
      </trkpt>
      <trkpt lat="45.06922" lon="3.03988">
        <ele>847.354322</ele>
        <time>2021-07-09T08:52:30+0200</time>
      </trkpt>
      <trkpt lat="45.06912" lon="3.03992">
        <ele>847.026262</ele>
        <time>2021-07-09T08:52:31+0200</time>
      </trkpt>
      <trkpt lat="45.06904" lon="3.03998">
        <ele>846.253404</ele>
        <time>2021-07-09T08:52:32+0200</time>
      </trkpt>
      <trkpt lat="45.06896" lon="3.04007">
        <ele>843.883501</ele>
        <time>2021-07-09T08:52:33+0200</time>
      </trkpt>
      <trkpt lat="45.06888" lon="3.04015">
        <ele>842.225315</ele>
        <time>2021-07-09T08:52:34+0200</time>
      </trkpt>
      <trkpt lat="45.06879" lon="3.04021">
        <ele>840.928663</ele>
        <time>2021-07-09T08:52:35+0200</time>
      </trkpt>
      <trkpt lat="45.0687" lon="3.04027">
        <ele>840.723015</ele>
        <time>2021-07-09T08:52:36+0200</time>
      </trkpt>
      <trkpt lat="45.0686" lon="3.04033">
        <ele>839.310409</ele>
        <time>2021-07-09T08:52:37+0200</time>
      </trkpt>
      <trkpt lat="45.0685" lon="3.04039">
        <ele>838.177325</ele>
        <time>2021-07-09T08:52:38+0200</time>
      </trkpt>
      <trkpt lat="45.0684" lon="3.04045">
        <ele>837.299834</ele>
        <time>2021-07-09T08:52:39+0200</time>
      </trkpt>
      <trkpt lat="45.06829" lon="3.0405">
        <ele>835.953493</ele>
        <time>2021-07-09T08:52:40+0200</time>
      </trkpt>
      <trkpt lat="45.06819" lon="3.04057">
        <ele>836.079131</ele>
        <time>2021-07-09T08:52:41+0200</time>
      </trkpt>
      <trkpt lat="45.0681" lon="3.04061">
        <ele>834.386023</ele>
        <time>2021-07-09T08:52:42+0200</time>
      </trkpt>
      <trkpt lat="45.06803" lon="3.04063">
        <ele>832.812958</ele>
        <time>2021-07-09T08:52:43+0200</time>
      </trkpt>
      <trkpt lat="45.0681" lon="3.04065">
        <ele>835.429982</ele>
        <time>2021-07-09T08:52:47+0200</time>
      </trkpt>
      <trkpt lat="45.06816" lon="3.04063">
        <ele>833.719841</ele>
        <time>2021-07-09T08:52:52+0200</time>
      </trkpt>
      <trkpt lat="45.06815" lon="3.04056">
        <ele>832.422779</ele>
        <time>2021-07-09T08:52:57+0200</time>
      </trkpt>
      <trkpt lat="45.0681" lon="3.04053">
        <ele>831.8114</ele>
        <time>2021-07-09T08:53:00+0200</time>
      </trkpt>
      <trkpt lat="45.06804" lon="3.0405">
        <ele>831.234756</ele>
        <time>2021-07-09T08:53:03+0200</time>
      </trkpt>
      <trkpt lat="45.06796" lon="3.04051">
        <ele>835.396394</ele>
        <time>2021-07-09T08:53:06+0200</time>
      </trkpt>
      <trkpt lat="45.0679" lon="3.04048">
        <ele>836.611776</ele>
        <time>2021-07-09T08:53:09+0200</time>
      </trkpt>
      <trkpt lat="45.06785" lon="3.04044">
        <ele>837.824418</ele>
        <time>2021-07-09T08:53:14+0200</time>
      </trkpt>
      <trkpt lat="45.06784" lon="3.04038">
        <ele>837.486114</ele>
        <time>2021-07-09T08:53:16+0200</time>
      </trkpt>
      <trkpt lat="45.06784" lon="3.0403">
        <ele>837.924675</ele>
        <time>2021-07-09T08:53:19+0200</time>
      </trkpt>
      <trkpt lat="45.06781" lon="3.04025">
        <ele>837.94672</ele>
        <time>2021-07-09T08:53:21+0200</time>
      </trkpt>
      <trkpt lat="45.06778" lon="3.0402">
        <ele>839.020736</ele>
        <time>2021-07-09T08:53:24+0200</time>
      </trkpt>
      <trkpt lat="45.06774" lon="3.04015">
        <ele>840.669534</ele>
        <time>2021-07-09T08:53:26+0200</time>
      </trkpt>
      <trkpt lat="45.06772" lon="3.04009">
        <ele>842.819207</ele>
        <time>2021-07-09T08:53:29+0200</time>
      </trkpt>
      <trkpt lat="45.06769" lon="3.04004">
        <ele>843.394529</ele>
        <time>2021-07-09T08:53:33+0200</time>
      </trkpt>
      <trkpt lat="45.06764" lon="3.04">
        <ele>843.173008</ele>
        <time>2021-07-09T08:53:36+0200</time>
      </trkpt>
      <trkpt lat="45.06759" lon="3.03996">
        <ele>844.030241</ele>
        <time>2021-07-09T08:53:41+0200</time>
      </trkpt>
      <trkpt lat="45.06755" lon="3.03992">
        <ele>844.378926</ele>
        <time>2021-07-09T08:53:44+0200</time>
      </trkpt>
      <trkpt lat="45.06752" lon="3.03986">
        <ele>844.134125</ele>
        <time>2021-07-09T08:53:47+0200</time>
      </trkpt>
      <trkpt lat="45.06748" lon="3.03979">
        <ele>846.358819</ele>
        <time>2021-07-09T08:53:51+0200</time>
      </trkpt>
      <trkpt lat="45.06743" lon="3.03973">
        <ele>847.899624</ele>
        <time>2021-07-09T08:53:55+0200</time>
      </trkpt>
      <trkpt lat="45.06739" lon="3.03967">
        <ele>849.518853</ele>
        <time>2021-07-09T08:53:59+0200</time>
      </trkpt>
      <trkpt lat="45.06736" lon="3.0396">
        <ele>849.246106</ele>
        <time>2021-07-09T08:54:03+0200</time>
      </trkpt>
      <trkpt lat="45.06733" lon="3.03955">
        <ele>850.333755</ele>
        <time>2021-07-09T08:54:06+0200</time>
      </trkpt>
      <trkpt lat="45.06729" lon="3.03951">
        <ele>850.887768</ele>
        <time>2021-07-09T08:54:10+0200</time>
      </trkpt>
      <trkpt lat="45.06725" lon="3.03946">
        <ele>852.065669</ele>
        <time>2021-07-09T08:54:14+0200</time>
      </trkpt>
      <trkpt lat="45.06719" lon="3.03943">
        <ele>852.558159</ele>
        <time>2021-07-09T08:54:17+0200</time>
      </trkpt>
      <trkpt lat="45.06714" lon="3.0394">
        <ele>854.27467</ele>
        <time>2021-07-09T08:54:21+0200</time>
      </trkpt>
      <trkpt lat="45.06709" lon="3.03937">
        <ele>854.145008</ele>
        <time>2021-07-09T08:54:24+0200</time>
      </trkpt>
      <trkpt lat="45.06704" lon="3.03934">
        <ele>854.204786</ele>
        <time>2021-07-09T08:54:27+0200</time>
      </trkpt>
      <trkpt lat="45.06701" lon="3.03928">
        <ele>853.577675</ele>
        <time>2021-07-09T08:54:30+0200</time>
      </trkpt>
      <trkpt lat="45.06696" lon="3.03925">
        <ele>854.152241</ele>
        <time>2021-07-09T08:54:33+0200</time>
      </trkpt>
      <trkpt lat="45.06692" lon="3.03921">
        <ele>855.35271</ele>
        <time>2021-07-09T08:54:36+0200</time>
      </trkpt>
      <trkpt lat="45.06687" lon="3.03917">
        <ele>855.855783</ele>
        <time>2021-07-09T08:54:39+0200</time>
      </trkpt>
      <trkpt lat="45.06682" lon="3.03913">
        <ele>856.633597</ele>
        <time>2021-07-09T08:54:43+0200</time>
      </trkpt>
      <trkpt lat="45.06678" lon="3.03909">
        <ele>857.799044</ele>
        <time>2021-07-09T08:54:47+0200</time>
      </trkpt>
      <trkpt lat="45.06674" lon="3.03906">
        <ele>860.083417</ele>
        <time>2021-07-09T08:54:50+0200</time>
      </trkpt>
      <trkpt lat="45.06669" lon="3.03902">
        <ele>861.213113</ele>
        <time>2021-07-09T08:54:53+0200</time>
      </trkpt>
      <trkpt lat="45.06665" lon="3.03895">
        <ele>862.378347</ele>
        <time>2021-07-09T08:54:58+0200</time>
      </trkpt>
      <trkpt lat="45.06662" lon="3.0389">
        <ele>863.473171</ele>
        <time>2021-07-09T08:55:01+0200</time>
      </trkpt>
      <trkpt lat="45.06661" lon="3.03884">
        <ele>863.319345</ele>
        <time>2021-07-09T08:55:04+0200</time>
      </trkpt>
      <trkpt lat="45.06657" lon="3.03878">
        <ele>864.310872</ele>
        <time>2021-07-09T08:55:08+0200</time>
      </trkpt>
      <trkpt lat="45.06654" lon="3.03872">
        <ele>863.921056</ele>
        <time>2021-07-09T08:55:13+0200</time>
      </trkpt>
      <trkpt lat="45.06651" lon="3.03866">
        <ele>865.351339</ele>
        <time>2021-07-09T08:55:17+0200</time>
      </trkpt>
      <trkpt lat="45.06648" lon="3.0386">
        <ele>866.822723</ele>
        <time>2021-07-09T08:55:21+0200</time>
      </trkpt>
      <trkpt lat="45.06643" lon="3.03854">
        <ele>867.570671</ele>
        <time>2021-07-09T08:55:26+0200</time>
      </trkpt>
      <trkpt lat="45.06639" lon="3.0385">
        <ele>868.287753</ele>
        <time>2021-07-09T08:55:30+0200</time>
      </trkpt>
      <trkpt lat="45.06634" lon="3.03845">
        <ele>869.52214</ele>
        <time>2021-07-09T08:55:34+0200</time>
      </trkpt>
      <trkpt lat="45.06629" lon="3.03844">
        <ele>871.899364</ele>
        <time>2021-07-09T08:55:39+0200</time>
      </trkpt>
      <trkpt lat="45.06625" lon="3.03839">
        <ele>872.179812</ele>
        <time>2021-07-09T08:55:42+0200</time>
      </trkpt>
      <trkpt lat="45.06622" lon="3.03834">
        <ele>873.444868</ele>
        <time>2021-07-09T08:55:46+0200</time>
      </trkpt>
      <trkpt lat="45.06619" lon="3.03829">
        <ele>873.829406</ele>
        <time>2021-07-09T08:55:50+0200</time>
      </trkpt>
      <trkpt lat="45.06615" lon="3.03823">
        <ele>874.604255</ele>
        <time>2021-07-09T08:55:54+0200</time>
      </trkpt>
      <trkpt lat="45.06611" lon="3.03819">
        <ele>875.930769</ele>
        <time>2021-07-09T08:55:57+0200</time>
      </trkpt>
      <trkpt lat="45.06607" lon="3.03814">
        <ele>875.956942</ele>
        <time>2021-07-09T08:56:01+0200</time>
      </trkpt>
      <trkpt lat="45.06604" lon="3.03808">
        <ele>876.176428</ele>
        <time>2021-07-09T08:56:06+0200</time>
      </trkpt>
      <trkpt lat="45.06602" lon="3.03802">
        <ele>876.377557</ele>
        <time>2021-07-09T08:56:09+0200</time>
      </trkpt>
      <trkpt lat="45.06598" lon="3.03795">
        <ele>879.837579</ele>
        <time>2021-07-09T08:56:14+0200</time>
      </trkpt>
      <trkpt lat="45.06593" lon="3.0379">
        <ele>880.355606</ele>
        <time>2021-07-09T08:56:18+0200</time>
      </trkpt>
      <trkpt lat="45.0659" lon="3.03785">
        <ele>881.36284</ele>
        <time>2021-07-09T08:56:21+0200</time>
      </trkpt>
      <trkpt lat="45.06586" lon="3.03781">
        <ele>882.890758</ele>
        <time>2021-07-09T08:56:26+0200</time>
      </trkpt>
      <trkpt lat="45.06585" lon="3.03774">
        <ele>883.245039</ele>
        <time>2021-07-09T08:56:30+0200</time>
      </trkpt>
      <trkpt lat="45.06583" lon="3.03768">
        <ele>882.567996</ele>
        <time>2021-07-09T08:56:35+0200</time>
      </trkpt>
      <trkpt lat="45.06578" lon="3.03763">
        <ele>882.991266</ele>
        <time>2021-07-09T08:56:38+0200</time>
      </trkpt>
      <trkpt lat="45.06574" lon="3.0376">
        <ele>885.188621</ele>
        <time>2021-07-09T08:56:42+0200</time>
      </trkpt>
      <trkpt lat="45.06571" lon="3.03754">
        <ele>885.323024</ele>
        <time>2021-07-09T08:56:45+0200</time>
      </trkpt>
      <trkpt lat="45.06569" lon="3.03747">
        <ele>884.978349</ele>
        <time>2021-07-09T08:56:48+0200</time>
      </trkpt>
      <trkpt lat="45.06565" lon="3.03743">
        <ele>887.348981</ele>
        <time>2021-07-09T08:56:53+0200</time>
      </trkpt>
      <trkpt lat="45.0656" lon="3.0374">
        <ele>888.449663</ele>
        <time>2021-07-09T08:56:57+0200</time>
      </trkpt>
      <trkpt lat="45.06557" lon="3.03734">
        <ele>888.193806</ele>
        <time>2021-07-09T08:57:01+0200</time>
      </trkpt>
      <trkpt lat="45.06553" lon="3.03731">
        <ele>889.428953</ele>
        <time>2021-07-09T08:57:05+0200</time>
      </trkpt>
      <trkpt lat="45.0655" lon="3.03726">
        <ele>891.915825</ele>
        <time>2021-07-09T08:57:10+0200</time>
      </trkpt>
      <trkpt lat="45.06547" lon="3.03719">
        <ele>891.402763</ele>
        <time>2021-07-09T08:57:15+0200</time>
      </trkpt>
      <trkpt lat="45.06542" lon="3.03715">
        <ele>894.040171</ele>
        <time>2021-07-09T08:57:20+0200</time>
      </trkpt>
      <trkpt lat="45.06537" lon="3.03709">
        <ele>894.741856</ele>
        <time>2021-07-09T08:57:23+0200</time>
      </trkpt>
      <trkpt lat="45.06533" lon="3.03704">
        <ele>894.1907</ele>
        <time>2021-07-09T08:57:27+0200</time>
      </trkpt>
      <trkpt lat="45.06529" lon="3.037">
        <ele>894.562602</ele>
        <time>2021-07-09T08:57:32+0200</time>
      </trkpt>
      <trkpt lat="45.06525" lon="3.03695">
        <ele>894.395716</ele>
        <time>2021-07-09T08:57:37+0200</time>
      </trkpt>
      <trkpt lat="45.06522" lon="3.03689">
        <ele>894.496003</ele>
        <time>2021-07-09T08:57:41+0200</time>
      </trkpt>
      <trkpt lat="45.06517" lon="3.0369">
        <ele>897.920921</ele>
        <time>2021-07-09T08:57:47+0200</time>
      </trkpt>
      <trkpt lat="45.06513" lon="3.03693">
        <ele>899.901641</ele>
        <time>2021-07-09T08:58:07+0200</time>
      </trkpt>
      <trkpt lat="45.06516" lon="3.03689">
        <ele>896.114751</ele>
        <time>2021-07-09T08:59:21+0200</time>
      </trkpt>
      <trkpt lat="45.06521" lon="3.0369">
        <ele>901.373275</ele>
        <time>2021-07-09T08:59:40+0200</time>
      </trkpt>
      <trkpt lat="45.06516" lon="3.03687">
        <ele>900.035156</ele>
        <time>2021-07-09T08:59:46+0200</time>
      </trkpt>
      <trkpt lat="45.06512" lon="3.03686">
        <ele>899.154145</ele>
        <time>2021-07-09T08:59:50+0200</time>
      </trkpt>
      <trkpt lat="45.06506" lon="3.03683">
        <ele>899.111048</ele>
        <time>2021-07-09T08:59:53+0200</time>
      </trkpt>
      <trkpt lat="45.06502" lon="3.03678">
        <ele>898.040821</ele>
        <time>2021-07-09T08:59:58+0200</time>
      </trkpt>
      <trkpt lat="45.06496" lon="3.03677">
        <ele>897.808945</ele>
        <time>2021-07-09T09:00:03+0200</time>
      </trkpt>
      <trkpt lat="45.06492" lon="3.03673">
        <ele>897.914047</ele>
        <time>2021-07-09T09:00:05+0200</time>
      </trkpt>
      <trkpt lat="45.06487" lon="3.0367">
        <ele>898.023071</ele>
        <time>2021-07-09T09:00:08+0200</time>
      </trkpt>
      <trkpt lat="45.06481" lon="3.03666">
        <ele>898.893089</ele>
        <time>2021-07-09T09:00:10+0200</time>
      </trkpt>
      <trkpt lat="45.06478" lon="3.03662">
        <ele>898.454951</ele>
        <time>2021-07-09T09:00:12+0200</time>
      </trkpt>
      <trkpt lat="45.06472" lon="3.03659">
        <ele>900.151877</ele>
        <time>2021-07-09T09:00:15+0200</time>
      </trkpt>
      <trkpt lat="45.06467" lon="3.03656">
        <ele>900.295144</ele>
        <time>2021-07-09T09:00:18+0200</time>
      </trkpt>
      <trkpt lat="45.06462" lon="3.03653">
        <ele>901.965134</ele>
        <time>2021-07-09T09:00:21+0200</time>
      </trkpt>
      <trkpt lat="45.06458" lon="3.03651">
        <ele>902.958778</ele>
        <time>2021-07-09T09:00:23+0200</time>
      </trkpt>
      <trkpt lat="45.06453" lon="3.03647">
        <ele>902.739899</ele>
        <time>2021-07-09T09:00:26+0200</time>
      </trkpt>
      <trkpt lat="45.06449" lon="3.03642">
        <ele>902.425974</ele>
        <time>2021-07-09T09:00:29+0200</time>
      </trkpt>
      <trkpt lat="45.06443" lon="3.03637">
        <ele>901.67354</ele>
        <time>2021-07-09T09:00:33+0200</time>
      </trkpt>
      <trkpt lat="45.06438" lon="3.03634">
        <ele>903.467446</ele>
        <time>2021-07-09T09:00:37+0200</time>
      </trkpt>
      <trkpt lat="45.06434" lon="3.03629">
        <ele>905.431988</ele>
        <time>2021-07-09T09:00:41+0200</time>
      </trkpt>
      <trkpt lat="45.06428" lon="3.03624">
        <ele>906.963895</ele>
        <time>2021-07-09T09:00:45+0200</time>
      </trkpt>
      <trkpt lat="45.06423" lon="3.03621">
        <ele>906.902151</ele>
        <time>2021-07-09T09:00:49+0200</time>
      </trkpt>
      <trkpt lat="45.06418" lon="3.03619">
        <ele>908.319491</ele>
        <time>2021-07-09T09:00:53+0200</time>
      </trkpt>
      <trkpt lat="45.06414" lon="3.03616">
        <ele>908.540855</ele>
        <time>2021-07-09T09:00:56+0200</time>
      </trkpt>
      <trkpt lat="45.06409" lon="3.03613">
        <ele>909.460321</ele>
        <time>2021-07-09T09:01:01+0200</time>
      </trkpt>
      <trkpt lat="45.06406" lon="3.03608">
        <ele>910.169235</ele>
        <time>2021-07-09T09:01:05+0200</time>
      </trkpt>
      <trkpt lat="45.06401" lon="3.03605">
        <ele>910.73976</ele>
        <time>2021-07-09T09:01:08+0200</time>
      </trkpt>
      <trkpt lat="45.06397" lon="3.03601">
        <ele>912.49947</ele>
        <time>2021-07-09T09:01:15+0200</time>
      </trkpt>
      <trkpt lat="45.06392" lon="3.03599">
        <ele>911.949956</ele>
        <time>2021-07-09T09:01:18+0200</time>
      </trkpt>
      <trkpt lat="45.06388" lon="3.03597">
        <ele>913.389901</ele>
        <time>2021-07-09T09:01:23+0200</time>
      </trkpt>
      <trkpt lat="45.06383" lon="3.03594">
        <ele>914.900235</ele>
        <time>2021-07-09T09:01:27+0200</time>
      </trkpt>
      <trkpt lat="45.0638" lon="3.03589">
        <ele>914.543922</ele>
        <time>2021-07-09T09:01:30+0200</time>
      </trkpt>
      <trkpt lat="45.06376" lon="3.03585">
        <ele>916.782832</ele>
        <time>2021-07-09T09:01:33+0200</time>
      </trkpt>
      <trkpt lat="45.0637" lon="3.03581">
        <ele>915.44509</ele>
        <time>2021-07-09T09:01:38+0200</time>
      </trkpt>
      <trkpt lat="45.06364" lon="3.03581">
        <ele>915.484599</ele>
        <time>2021-07-09T09:01:42+0200</time>
      </trkpt>
      <trkpt lat="45.0636" lon="3.03578">
        <ele>916.31672</ele>
        <time>2021-07-09T09:01:45+0200</time>
      </trkpt>
      <trkpt lat="45.06356" lon="3.03574">
        <ele>916.634386</ele>
        <time>2021-07-09T09:01:49+0200</time>
      </trkpt>
      <trkpt lat="45.06352" lon="3.0357">
        <ele>914.711011</ele>
        <time>2021-07-09T09:01:53+0200</time>
      </trkpt>
      <trkpt lat="45.06347" lon="3.03569">
        <ele>916.566785</ele>
        <time>2021-07-09T09:01:56+0200</time>
      </trkpt>
      <trkpt lat="45.06342" lon="3.03566">
        <ele>917.499172</ele>
        <time>2021-07-09T09:01:59+0200</time>
      </trkpt>
      <trkpt lat="45.06338" lon="3.03564">
        <ele>918.846546</ele>
        <time>2021-07-09T09:02:03+0200</time>
      </trkpt>
      <trkpt lat="45.06333" lon="3.03561">
        <ele>919.31199</ele>
        <time>2021-07-09T09:02:05+0200</time>
      </trkpt>
      <trkpt lat="45.06328" lon="3.03555">
        <ele>920.181368</ele>
        <time>2021-07-09T09:02:09+0200</time>
      </trkpt>
      <trkpt lat="45.06324" lon="3.03551">
        <ele>920.247851</ele>
        <time>2021-07-09T09:02:12+0200</time>
      </trkpt>
      <trkpt lat="45.06319" lon="3.03547">
        <ele>920.981136</ele>
        <time>2021-07-09T09:02:15+0200</time>
      </trkpt>
      <trkpt lat="45.06314" lon="3.03544">
        <ele>921.518741</ele>
        <time>2021-07-09T09:02:18+0200</time>
      </trkpt>
      <trkpt lat="45.06308" lon="3.03541">
        <ele>921.234399</ele>
        <time>2021-07-09T09:02:21+0200</time>
      </trkpt>
      <trkpt lat="45.06304" lon="3.0354">
        <ele>921.034371</ele>
        <time>2021-07-09T09:02:24+0200</time>
      </trkpt>
      <trkpt lat="45.063" lon="3.03535">
        <ele>920.998099</ele>
        <time>2021-07-09T09:02:27+0200</time>
      </trkpt>
      <trkpt lat="45.06297" lon="3.03531">
        <ele>922.780895</ele>
        <time>2021-07-09T09:02:30+0200</time>
      </trkpt>
      <trkpt lat="45.06295" lon="3.03525">
        <ele>924.510225</ele>
        <time>2021-07-09T09:02:44+0200</time>
      </trkpt>
      <trkpt lat="45.06291" lon="3.0352">
        <ele>925.670643</ele>
        <time>2021-07-09T09:03:04+0200</time>
      </trkpt>
      <trkpt lat="45.06285" lon="3.03517">
        <ele>925.872664</ele>
        <time>2021-07-09T09:03:06+0200</time>
      </trkpt>
      <trkpt lat="45.0628" lon="3.03515">
        <ele>925.455047</ele>
        <time>2021-07-09T09:03:08+0200</time>
      </trkpt>
      <trkpt lat="45.06274" lon="3.03513">
        <ele>925.931943</ele>
        <time>2021-07-09T09:03:11+0200</time>
      </trkpt>
      <trkpt lat="45.06269" lon="3.03509">
        <ele>926.137599</ele>
        <time>2021-07-09T09:03:13+0200</time>
      </trkpt>
      <trkpt lat="45.06264" lon="3.03505">
        <ele>924.425528</ele>
        <time>2021-07-09T09:03:16+0200</time>
      </trkpt>
      <trkpt lat="45.06257" lon="3.035">
        <ele>924.741436</ele>
        <time>2021-07-09T09:03:18+0200</time>
      </trkpt>
      <trkpt lat="45.06251" lon="3.03495">
        <ele>923.034432</ele>
        <time>2021-07-09T09:03:20+0200</time>
      </trkpt>
      <trkpt lat="45.06245" lon="3.0349">
        <ele>921.686712</ele>
        <time>2021-07-09T09:03:22+0200</time>
      </trkpt>
      <trkpt lat="45.06238" lon="3.03485">
        <ele>920.143691</ele>
        <time>2021-07-09T09:03:24+0200</time>
      </trkpt>
      <trkpt lat="45.06233" lon="3.03482">
        <ele>920.135971</ele>
        <time>2021-07-09T09:03:26+0200</time>
      </trkpt>
      <trkpt lat="45.06228" lon="3.03474">
        <ele>920.097487</ele>
        <time>2021-07-09T09:03:28+0200</time>
      </trkpt>
      <trkpt lat="45.06223" lon="3.03467">
        <ele>918.914872</ele>
        <time>2021-07-09T09:03:30+0200</time>
      </trkpt>
      <trkpt lat="45.06218" lon="3.03461">
        <ele>919.965427</ele>
        <time>2021-07-09T09:03:32+0200</time>
      </trkpt>
      <trkpt lat="45.06212" lon="3.03454">
        <ele>920.878886</ele>
        <time>2021-07-09T09:03:34+0200</time>
      </trkpt>
      <trkpt lat="45.06207" lon="3.03446">
        <ele>920.131368</ele>
        <time>2021-07-09T09:03:36+0200</time>
      </trkpt>
      <trkpt lat="45.06199" lon="3.0344">
        <ele>921.030042</ele>
        <time>2021-07-09T09:03:38+0200</time>
      </trkpt>
      <trkpt lat="45.06193" lon="3.03434">
        <ele>920.813046</ele>
        <time>2021-07-09T09:03:40+0200</time>
      </trkpt>
      <trkpt lat="45.06188" lon="3.03429">
        <ele>920.039252</ele>
        <time>2021-07-09T09:03:42+0200</time>
      </trkpt>
      <trkpt lat="45.06183" lon="3.03422">
        <ele>919.49318</ele>
        <time>2021-07-09T09:03:46+0200</time>
      </trkpt>
      <trkpt lat="45.06178" lon="3.03417">
        <ele>920.977051</ele>
        <time>2021-07-09T09:03:48+0200</time>
      </trkpt>
      <trkpt lat="45.06174" lon="3.03414">
        <ele>920.558725</ele>
        <time>2021-07-09T09:03:50+0200</time>
      </trkpt>
      <trkpt lat="45.06169" lon="3.0341">
        <ele>920.163158</ele>
        <time>2021-07-09T09:03:52+0200</time>
      </trkpt>
      <trkpt lat="45.06165" lon="3.03406">
        <ele>919.818671</ele>
        <time>2021-07-09T09:03:54+0200</time>
      </trkpt>
      <trkpt lat="45.06159" lon="3.03405">
        <ele>921.052264</ele>
        <time>2021-07-09T09:03:56+0200</time>
      </trkpt>
      <trkpt lat="45.06152" lon="3.03402">
        <ele>923.467083</ele>
        <time>2021-07-09T09:03:58+0200</time>
      </trkpt>
      <trkpt lat="45.06145" lon="3.03398">
        <ele>922.938497</ele>
        <time>2021-07-09T09:04:00+0200</time>
      </trkpt>
      <trkpt lat="45.06141" lon="3.03395">
        <ele>922.178984</ele>
        <time>2021-07-09T09:04:02+0200</time>
      </trkpt>
      <trkpt lat="45.06135" lon="3.03392">
        <ele>921.73541</ele>
        <time>2021-07-09T09:04:05+0200</time>
      </trkpt>
      <trkpt lat="45.06131" lon="3.0339">
        <ele>921.776405</ele>
        <time>2021-07-09T09:04:08+0200</time>
      </trkpt>
      <trkpt lat="45.06122" lon="3.03385">
        <ele>920.521956</ele>
        <time>2021-07-09T09:04:10+0200</time>
      </trkpt>
      <trkpt lat="45.06117" lon="3.03382">
        <ele>918.875389</ele>
        <time>2021-07-09T09:04:12+0200</time>
      </trkpt>
      <trkpt lat="45.0611" lon="3.03379">
        <ele>917.873169</ele>
        <time>2021-07-09T09:04:13+0200</time>
      </trkpt>
      <trkpt lat="45.06104" lon="3.03376">
        <ele>917.932045</ele>
        <time>2021-07-09T09:04:15+0200</time>
      </trkpt>
      <trkpt lat="45.06099" lon="3.03372">
        <ele>918.039487</ele>
        <time>2021-07-09T09:04:16+0200</time>
      </trkpt>
      <trkpt lat="45.06093" lon="3.03372">
        <ele>919.265253</ele>
        <time>2021-07-09T09:04:18+0200</time>
      </trkpt>
      <trkpt lat="45.06086" lon="3.03369">
        <ele>919.72298</ele>
        <time>2021-07-09T09:04:20+0200</time>
      </trkpt>
      <trkpt lat="45.06079" lon="3.03366">
        <ele>918.551337</ele>
        <time>2021-07-09T09:04:22+0200</time>
      </trkpt>
      <trkpt lat="45.06071" lon="3.03364">
        <ele>919.260845</ele>
        <time>2021-07-09T09:04:24+0200</time>
      </trkpt>
      <trkpt lat="45.06066" lon="3.03362">
        <ele>919.208008</ele>
        <time>2021-07-09T09:04:25+0200</time>
      </trkpt>
      <trkpt lat="45.06062" lon="3.03359">
        <ele>919.323199</ele>
        <time>2021-07-09T09:04:26+0200</time>
      </trkpt>
      <trkpt lat="45.06056" lon="3.03359">
        <ele>920.852003</ele>
        <time>2021-07-09T09:04:28+0200</time>
      </trkpt>
      <trkpt lat="45.06048" lon="3.03357">
        <ele>920.854259</ele>
        <time>2021-07-09T09:04:30+0200</time>
      </trkpt>
      <trkpt lat="45.06044" lon="3.03353">
        <ele>922.361567</ele>
        <time>2021-07-09T09:04:32+0200</time>
      </trkpt>
      <trkpt lat="45.06035" lon="3.03349">
        <ele>919.099601</ele>
        <time>2021-07-09T09:04:34+0200</time>
      </trkpt>
      <trkpt lat="45.06028" lon="3.03346">
        <ele>918.920382</ele>
        <time>2021-07-09T09:04:36+0200</time>
      </trkpt>
      <trkpt lat="45.06023" lon="3.03343">
        <ele>918.76779</ele>
        <time>2021-07-09T09:04:37+0200</time>
      </trkpt>
      <trkpt lat="45.06017" lon="3.03342">
        <ele>921.701944</ele>
        <time>2021-07-09T09:04:38+0200</time>
      </trkpt>
      <trkpt lat="45.06009" lon="3.03338">
        <ele>921.257857</ele>
        <time>2021-07-09T09:04:40+0200</time>
      </trkpt>
      <trkpt lat="45.06002" lon="3.03334">
        <ele>921.861442</ele>
        <time>2021-07-09T09:04:42+0200</time>
      </trkpt>
      <trkpt lat="45.05996" lon="3.03335">
        <ele>921.128856</ele>
        <time>2021-07-09T09:04:44+0200</time>
      </trkpt>
      <trkpt lat="45.05989" lon="3.03335">
        <ele>920.459989</ele>
        <time>2021-07-09T09:04:46+0200</time>
      </trkpt>
      <trkpt lat="45.05985" lon="3.03341">
        <ele>922.436571</ele>
        <time>2021-07-09T09:04:49+0200</time>
      </trkpt>
      <trkpt lat="45.05981" lon="3.03346">
        <ele>923.411525</ele>
        <time>2021-07-09T09:04:51+0200</time>
      </trkpt>
      <trkpt lat="45.05978" lon="3.03352">
        <ele>923.173939</ele>
        <time>2021-07-09T09:04:53+0200</time>
      </trkpt>
      <trkpt lat="45.05975" lon="3.0336">
        <ele>922.980006</ele>
        <time>2021-07-09T09:04:55+0200</time>
      </trkpt>
      <trkpt lat="45.05974" lon="3.03369">
        <ele>923.015059</ele>
        <time>2021-07-09T09:04:57+0200</time>
      </trkpt>
      <trkpt lat="45.05972" lon="3.03378">
        <ele>922.762244</ele>
        <time>2021-07-09T09:05:00+0200</time>
      </trkpt>
      <trkpt lat="45.05968" lon="3.03385">
        <ele>922.36749</ele>
        <time>2021-07-09T09:05:03+0200</time>
      </trkpt>
      <trkpt lat="45.05966" lon="3.03392">
        <ele>922.491021</ele>
        <time>2021-07-09T09:05:05+0200</time>
      </trkpt>
      <trkpt lat="45.05964" lon="3.03398">
        <ele>921.636019</ele>
        <time>2021-07-09T09:05:07+0200</time>
      </trkpt>
      <trkpt lat="45.05961" lon="3.03404">
        <ele>921.797587</ele>
        <time>2021-07-09T09:05:09+0200</time>
      </trkpt>
      <trkpt lat="45.05956" lon="3.03412">
        <ele>921.871433</ele>
        <time>2021-07-09T09:05:11+0200</time>
      </trkpt>
      <trkpt lat="45.05952" lon="3.0342">
        <ele>923.163673</ele>
        <time>2021-07-09T09:05:14+0200</time>
      </trkpt>
      <trkpt lat="45.0595" lon="3.03426">
        <ele>924.334295</ele>
        <time>2021-07-09T09:05:16+0200</time>
      </trkpt>
      <trkpt lat="45.05948" lon="3.03434">
        <ele>924.10741</ele>
        <time>2021-07-09T09:05:18+0200</time>
      </trkpt>
      <trkpt lat="45.05943" lon="3.0344">
        <ele>923.622795</ele>
        <time>2021-07-09T09:05:20+0200</time>
      </trkpt>
      <trkpt lat="45.05939" lon="3.03448">
        <ele>924.930206</ele>
        <time>2021-07-09T09:05:22+0200</time>
      </trkpt>
      <trkpt lat="45.05937" lon="3.03455">
        <ele>923.880438</ele>
        <time>2021-07-09T09:05:24+0200</time>
      </trkpt>
      <trkpt lat="45.05932" lon="3.03462">
        <ele>923.88953</ele>
        <time>2021-07-09T09:05:26+0200</time>
      </trkpt>
      <trkpt lat="45.05928" lon="3.03468">
        <ele>924.282977</ele>
        <time>2021-07-09T09:05:28+0200</time>
      </trkpt>
      <trkpt lat="45.05924" lon="3.03475">
        <ele>924.200308</ele>
        <time>2021-07-09T09:05:30+0200</time>
      </trkpt>
      <trkpt lat="45.05921" lon="3.03481">
        <ele>924.480648</ele>
        <time>2021-07-09T09:05:32+0200</time>
      </trkpt>
      <trkpt lat="45.05917" lon="3.03488">
        <ele>925.261837</ele>
        <time>2021-07-09T09:05:34+0200</time>
      </trkpt>
      <trkpt lat="45.05913" lon="3.03494">
        <ele>924.817912</ele>
        <time>2021-07-09T09:05:36+0200</time>
      </trkpt>
      <trkpt lat="45.05908" lon="3.03502">
        <ele>924.204414</ele>
        <time>2021-07-09T09:05:39+0200</time>
      </trkpt>
      <trkpt lat="45.05905" lon="3.03507">
        <ele>923.655118</ele>
        <time>2021-07-09T09:05:42+0200</time>
      </trkpt>
      <trkpt lat="45.05901" lon="3.03512">
        <ele>922.348233</ele>
        <time>2021-07-09T09:05:46+0200</time>
      </trkpt>
      <trkpt lat="45.05897" lon="3.03516">
        <ele>922.551805</ele>
        <time>2021-07-09T09:05:48+0200</time>
      </trkpt>
      <trkpt lat="45.05893" lon="3.03522">
        <ele>923.422019</ele>
        <time>2021-07-09T09:05:51+0200</time>
      </trkpt>
      <trkpt lat="45.05889" lon="3.03532">
        <ele>922.028728</ele>
        <time>2021-07-09T09:05:56+0200</time>
      </trkpt>
      <trkpt lat="45.05887" lon="3.03537">
        <ele>922.866329</ele>
        <time>2021-07-09T09:05:58+0200</time>
      </trkpt>
      <trkpt lat="45.05884" lon="3.03544">
        <ele>924.881407</ele>
        <time>2021-07-09T09:06:01+0200</time>
      </trkpt>
      <trkpt lat="45.0588" lon="3.0355">
        <ele>922.457775</ele>
        <time>2021-07-09T09:06:06+0200</time>
      </trkpt>
      <trkpt lat="45.05879" lon="3.03558">
        <ele>921.236556</ele>
        <time>2021-07-09T09:06:09+0200</time>
      </trkpt>
      <trkpt lat="45.05876" lon="3.03563">
        <ele>921.490933</ele>
        <time>2021-07-09T09:06:11+0200</time>
      </trkpt>
      <trkpt lat="45.05874" lon="3.03574">
        <ele>918.563235</ele>
        <time>2021-07-09T09:06:14+0200</time>
      </trkpt>
      <trkpt lat="45.0587" lon="3.0358">
        <ele>916.281074</ele>
        <time>2021-07-09T09:06:16+0200</time>
      </trkpt>
      <trkpt lat="45.05867" lon="3.03587">
        <ele>917.262329</ele>
        <time>2021-07-09T09:06:19+0200</time>
      </trkpt>
      <trkpt lat="45.05863" lon="3.03592">
        <ele>918.715264</ele>
        <time>2021-07-09T09:06:21+0200</time>
      </trkpt>
      <trkpt lat="45.05859" lon="3.03595">
        <ele>917.344581</ele>
        <time>2021-07-09T09:06:23+0200</time>
      </trkpt>
      <trkpt lat="45.05855" lon="3.03602">
        <ele>915.383597</ele>
        <time>2021-07-09T09:06:26+0200</time>
      </trkpt>
      <trkpt lat="45.05851" lon="3.03608">
        <ele>912.895024</ele>
        <time>2021-07-09T09:06:29+0200</time>
      </trkpt>
      <trkpt lat="45.05848" lon="3.03614">
        <ele>911.935899</ele>
        <time>2021-07-09T09:06:32+0200</time>
      </trkpt>
      <trkpt lat="45.05845" lon="3.0362">
        <ele>911.082414</ele>
        <time>2021-07-09T09:06:35+0200</time>
      </trkpt>
      <trkpt lat="45.05842" lon="3.03625">
        <ele>910.022592</ele>
        <time>2021-07-09T09:06:37+0200</time>
      </trkpt>
      <trkpt lat="45.05839" lon="3.03635">
        <ele>910.460757</ele>
        <time>2021-07-09T09:06:39+0200</time>
      </trkpt>
      <trkpt lat="45.05835" lon="3.03643">
        <ele>909.22987</ele>
        <time>2021-07-09T09:06:41+0200</time>
      </trkpt>
      <trkpt lat="45.05832" lon="3.03651">
        <ele>907.20542</ele>
        <time>2021-07-09T09:06:43+0200</time>
      </trkpt>
      <trkpt lat="45.05828" lon="3.03658">
        <ele>905.784674</ele>
        <time>2021-07-09T09:06:45+0200</time>
      </trkpt>
      <trkpt lat="45.05825" lon="3.03666">
        <ele>906.227844</ele>
        <time>2021-07-09T09:06:47+0200</time>
      </trkpt>
      <trkpt lat="45.05821" lon="3.03675">
        <ele>905.637957</ele>
        <time>2021-07-09T09:06:49+0200</time>
      </trkpt>
      <trkpt lat="45.05817" lon="3.03681">
        <ele>906.169606</ele>
        <time>2021-07-09T09:06:51+0200</time>
      </trkpt>
      <trkpt lat="45.05813" lon="3.03689">
        <ele>906.120098</ele>
        <time>2021-07-09T09:06:53+0200</time>
      </trkpt>
      <trkpt lat="45.05808" lon="3.03697">
        <ele>906.071187</ele>
        <time>2021-07-09T09:06:55+0200</time>
      </trkpt>
      <trkpt lat="45.05803" lon="3.03704">
        <ele>906.349111</ele>
        <time>2021-07-09T09:06:57+0200</time>
      </trkpt>
      <trkpt lat="45.05797" lon="3.03711">
        <ele>906.587055</ele>
        <time>2021-07-09T09:06:59+0200</time>
      </trkpt>
      <trkpt lat="45.05792" lon="3.03719">
        <ele>906.502402</ele>
        <time>2021-07-09T09:07:01+0200</time>
      </trkpt>
      <trkpt lat="45.05786" lon="3.03726">
        <ele>908.078807</ele>
        <time>2021-07-09T09:07:03+0200</time>
      </trkpt>
      <trkpt lat="45.05781" lon="3.03732">
        <ele>909.244408</ele>
        <time>2021-07-09T09:07:05+0200</time>
      </trkpt>
      <trkpt lat="45.05775" lon="3.03735">
        <ele>908.876636</ele>
        <time>2021-07-09T09:07:07+0200</time>
      </trkpt>
      <trkpt lat="45.0577" lon="3.03739">
        <ele>909.815235</ele>
        <time>2021-07-09T09:07:09+0200</time>
      </trkpt>
      <trkpt lat="45.05764" lon="3.03741">
        <ele>908.462525</ele>
        <time>2021-07-09T09:07:11+0200</time>
      </trkpt>
      <trkpt lat="45.05759" lon="3.03745">
        <ele>908.656676</ele>
        <time>2021-07-09T09:07:13+0200</time>
      </trkpt>
      <trkpt lat="45.05754" lon="3.0375">
        <ele>907.662637</ele>
        <time>2021-07-09T09:07:15+0200</time>
      </trkpt>
      <trkpt lat="45.05755" lon="3.03758">
        <ele>908.457748</ele>
        <time>2021-07-09T09:07:59+0200</time>
      </trkpt>
      <trkpt lat="45.05757" lon="3.03764">
        <ele>908.015403</ele>
        <time>2021-07-09T09:08:01+0200</time>
      </trkpt>
      <trkpt lat="45.05761" lon="3.03772">
        <ele>907.283812</ele>
        <time>2021-07-09T09:08:04+0200</time>
      </trkpt>
      <trkpt lat="45.05763" lon="3.03781">
        <ele>907.338287</ele>
        <time>2021-07-09T09:08:06+0200</time>
      </trkpt>
      <trkpt lat="45.05764" lon="3.03791">
        <ele>907.159394</ele>
        <time>2021-07-09T09:08:08+0200</time>
      </trkpt>
      <trkpt lat="45.05765" lon="3.03802">
        <ele>907.171208</ele>
        <time>2021-07-09T09:08:10+0200</time>
      </trkpt>
      <trkpt lat="45.05767" lon="3.03808">
        <ele>906.519829</ele>
        <time>2021-07-09T09:08:11+0200</time>
      </trkpt>
      <trkpt lat="45.05767" lon="3.0382">
        <ele>905.848073</ele>
        <time>2021-07-09T09:08:13+0200</time>
      </trkpt>
      <trkpt lat="45.05767" lon="3.03832">
        <ele>905.762329</ele>
        <time>2021-07-09T09:08:15+0200</time>
      </trkpt>
      <trkpt lat="45.05766" lon="3.03838">
        <ele>905.710792</ele>
        <time>2021-07-09T09:08:16+0200</time>
      </trkpt>
      <trkpt lat="45.05766" lon="3.03846">
        <ele>905.411561</ele>
        <time>2021-07-09T09:08:17+0200</time>
      </trkpt>
      <trkpt lat="45.05765" lon="3.03853">
        <ele>905.037912</ele>
        <time>2021-07-09T09:08:18+0200</time>
      </trkpt>
      <trkpt lat="45.05763" lon="3.03862">
        <ele>904.407439</ele>
        <time>2021-07-09T09:08:20+0200</time>
      </trkpt>
      <trkpt lat="45.05762" lon="3.03869">
        <ele>903.958413</ele>
        <time>2021-07-09T09:08:21+0200</time>
      </trkpt>
      <trkpt lat="45.0576" lon="3.03877">
        <ele>903.520064</ele>
        <time>2021-07-09T09:08:22+0200</time>
      </trkpt>
      <trkpt lat="45.05758" lon="3.03884">
        <ele>903.403718</ele>
        <time>2021-07-09T09:08:23+0200</time>
      </trkpt>
      <trkpt lat="45.05756" lon="3.03891">
        <ele>903.400709</ele>
        <time>2021-07-09T09:08:24+0200</time>
      </trkpt>
      <trkpt lat="45.05754" lon="3.03899">
        <ele>902.972866</ele>
        <time>2021-07-09T09:08:25+0200</time>
      </trkpt>
      <trkpt lat="45.05751" lon="3.03907">
        <ele>902.349725</ele>
        <time>2021-07-09T09:08:25+0200</time>
      </trkpt>
      <trkpt lat="45.05749" lon="3.03915">
        <ele>901.827278</ele>
        <time>2021-07-09T09:08:26+0200</time>
      </trkpt>
      <trkpt lat="45.05747" lon="3.03924">
        <ele>900.809759</ele>
        <time>2021-07-09T09:08:27+0200</time>
      </trkpt>
      <trkpt lat="45.05745" lon="3.03934">
        <ele>900.484219</ele>
        <time>2021-07-09T09:08:28+0200</time>
      </trkpt>
      <trkpt lat="45.05743" lon="3.03944">
        <ele>899.874863</ele>
        <time>2021-07-09T09:08:29+0200</time>
      </trkpt>
      <trkpt lat="45.0574" lon="3.03955">
        <ele>898.747713</ele>
        <time>2021-07-09T09:08:30+0200</time>
      </trkpt>
      <trkpt lat="45.05736" lon="3.03966">
        <ele>897.612266</ele>
        <time>2021-07-09T09:08:31+0200</time>
      </trkpt>
      <trkpt lat="45.05733" lon="3.03978">
        <ele>896.148418</ele>
        <time>2021-07-09T09:08:32+0200</time>
      </trkpt>
      <trkpt lat="45.0573" lon="3.03991">
        <ele>895.091428</ele>
        <time>2021-07-09T09:08:33+0200</time>
      </trkpt>
      <trkpt lat="45.05727" lon="3.04005">
        <ele>893.755934</ele>
        <time>2021-07-09T09:08:34+0200</time>
      </trkpt>
      <trkpt lat="45.05723" lon="3.04021">
        <ele>892.270259</ele>
        <time>2021-07-09T09:08:35+0200</time>
      </trkpt>
      <trkpt lat="45.05719" lon="3.04037">
        <ele>890.879866</ele>
        <time>2021-07-09T09:08:36+0200</time>
      </trkpt>
      <trkpt lat="45.05716" lon="3.04053">
        <ele>889.41405</ele>
        <time>2021-07-09T09:08:37+0200</time>
      </trkpt>
      <trkpt lat="45.05713" lon="3.04069">
        <ele>887.427422</ele>
        <time>2021-07-09T09:08:38+0200</time>
      </trkpt>
      <trkpt lat="45.05711" lon="3.04086">
        <ele>885.743919</ele>
        <time>2021-07-09T09:08:39+0200</time>
      </trkpt>
      <trkpt lat="45.05709" lon="3.04103">
        <ele>884.042683</ele>
        <time>2021-07-09T09:08:40+0200</time>
      </trkpt>
      <trkpt lat="45.05707" lon="3.04118">
        <ele>882.499551</ele>
        <time>2021-07-09T09:08:41+0200</time>
      </trkpt>
      <trkpt lat="45.05705" lon="3.0413">
        <ele>880.980566</ele>
        <time>2021-07-09T09:08:42+0200</time>
      </trkpt>
      <trkpt lat="45.05701" lon="3.04143">
        <ele>879.866546</ele>
        <time>2021-07-09T09:08:43+0200</time>
      </trkpt>
      <trkpt lat="45.05696" lon="3.04157">
        <ele>878.24424</ele>
        <time>2021-07-09T09:08:44+0200</time>
      </trkpt>
      <trkpt lat="45.0569" lon="3.04172">
        <ele>876.385978</ele>
        <time>2021-07-09T09:08:45+0200</time>
      </trkpt>
      <trkpt lat="45.05686" lon="3.04187">
        <ele>873.751029</ele>
        <time>2021-07-09T09:08:46+0200</time>
      </trkpt>
      <trkpt lat="45.05683" lon="3.04202">
        <ele>870.778719</ele>
        <time>2021-07-09T09:08:47+0200</time>
      </trkpt>
      <trkpt lat="45.0568" lon="3.04217">
        <ele>868.914155</ele>
        <time>2021-07-09T09:08:48+0200</time>
      </trkpt>
      <trkpt lat="45.0568" lon="3.04234">
        <ele>867.002477</ele>
        <time>2021-07-09T09:08:49+0200</time>
      </trkpt>
      <trkpt lat="45.05679" lon="3.04251">
        <ele>865.878282</ele>
        <time>2021-07-09T09:08:50+0200</time>
      </trkpt>
      <trkpt lat="45.0568" lon="3.04266">
        <ele>864.385471</ele>
        <time>2021-07-09T09:08:51+0200</time>
      </trkpt>
      <trkpt lat="45.05681" lon="3.04283">
        <ele>862.586058</ele>
        <time>2021-07-09T09:08:52+0200</time>
      </trkpt>
      <trkpt lat="45.05682" lon="3.043">
        <ele>861.245047</ele>
        <time>2021-07-09T09:08:53+0200</time>
      </trkpt>
      <trkpt lat="45.05682" lon="3.04316">
        <ele>860.04051</ele>
        <time>2021-07-09T09:08:54+0200</time>
      </trkpt>
      <trkpt lat="45.0568" lon="3.04333">
        <ele>859.566622</ele>
        <time>2021-07-09T09:08:55+0200</time>
      </trkpt>
      <trkpt lat="45.05676" lon="3.04348">
        <ele>858.382007</ele>
        <time>2021-07-09T09:08:56+0200</time>
      </trkpt>
      <trkpt lat="45.05673" lon="3.04365">
        <ele>856.487535</ele>
        <time>2021-07-09T09:08:57+0200</time>
      </trkpt>
      <trkpt lat="45.05669" lon="3.04382">
        <ele>854.621745</ele>
        <time>2021-07-09T09:08:58+0200</time>
      </trkpt>
      <trkpt lat="45.05666" lon="3.04398">
        <ele>852.494294</ele>
        <time>2021-07-09T09:08:59+0200</time>
      </trkpt>
      <trkpt lat="45.05663" lon="3.04414">
        <ele>850.470755</ele>
        <time>2021-07-09T09:09:00+0200</time>
      </trkpt>
      <trkpt lat="45.05662" lon="3.04428">
        <ele>848.84602</ele>
        <time>2021-07-09T09:09:01+0200</time>
      </trkpt>
      <trkpt lat="45.05663" lon="3.0444">
        <ele>847.753457</ele>
        <time>2021-07-09T09:09:02+0200</time>
      </trkpt>
      <trkpt lat="45.05665" lon="3.0445">
        <ele>846.628909</ele>
        <time>2021-07-09T09:09:03+0200</time>
      </trkpt>
      <trkpt lat="45.05669" lon="3.0446">
        <ele>845.546412</ele>
        <time>2021-07-09T09:09:04+0200</time>
      </trkpt>
      <trkpt lat="45.05673" lon="3.04469">
        <ele>845.524388</ele>
        <time>2021-07-09T09:09:05+0200</time>
      </trkpt>
      <trkpt lat="45.05675" lon="3.04476">
        <ele>845.924527</ele>
        <time>2021-07-09T09:09:06+0200</time>
      </trkpt>
      <trkpt lat="45.0567" lon="3.04483">
        <ele>844.737818</ele>
        <time>2021-07-09T09:09:08+0200</time>
      </trkpt>
      <trkpt lat="45.05662" lon="3.04481">
        <ele>845.129189</ele>
        <time>2021-07-09T09:09:10+0200</time>
      </trkpt>
      <trkpt lat="45.05657" lon="3.04472">
        <ele>844.529995</ele>
        <time>2021-07-09T09:09:12+0200</time>
      </trkpt>
      <trkpt lat="45.05651" lon="3.04464">
        <ele>843.8576</ele>
        <time>2021-07-09T09:09:14+0200</time>
      </trkpt>
      <trkpt lat="45.05644" lon="3.04457">
        <ele>843.472339</ele>
        <time>2021-07-09T09:09:16+0200</time>
      </trkpt>
      <trkpt lat="45.05641" lon="3.04463">
        <ele>842.900414</ele>
        <time>2021-07-09T09:09:18+0200</time>
      </trkpt>
      <trkpt lat="45.05643" lon="3.04468">
        <ele>842.566371</ele>
        <time>2021-07-09T09:09:21+0200</time>
      </trkpt>
      <trkpt lat="45.05646" lon="3.04474">
        <ele>842.467128</ele>
        <time>2021-07-09T09:09:25+0200</time>
      </trkpt>
      <trkpt lat="45.05649" lon="3.04481">
        <ele>841.668765</ele>
        <time>2021-07-09T09:09:28+0200</time>
      </trkpt>
      <trkpt lat="45.05654" lon="3.04486">
        <ele>841.180162</ele>
        <time>2021-07-09T09:09:31+0200</time>
      </trkpt>
      <trkpt lat="45.05658" lon="3.04491">
        <ele>840.144559</ele>
        <time>2021-07-09T09:09:34+0200</time>
      </trkpt>
      <trkpt lat="45.05662" lon="3.04499">
        <ele>839.63342</ele>
        <time>2021-07-09T09:09:37+0200</time>
      </trkpt>
      <trkpt lat="45.05665" lon="3.04506">
        <ele>839.036071</ele>
        <time>2021-07-09T09:09:39+0200</time>
      </trkpt>
      <trkpt lat="45.0567" lon="3.04514">
        <ele>838.527505</ele>
        <time>2021-07-09T09:09:41+0200</time>
      </trkpt>
      <trkpt lat="45.05673" lon="3.04519">
        <ele>838.273096</ele>
        <time>2021-07-09T09:09:42+0200</time>
      </trkpt>
      <trkpt lat="45.05679" lon="3.0453">
        <ele>837.506769</ele>
        <time>2021-07-09T09:09:44+0200</time>
      </trkpt>
      <trkpt lat="45.05682" lon="3.04535">
        <ele>837.011625</ele>
        <time>2021-07-09T09:09:45+0200</time>
      </trkpt>
      <trkpt lat="45.05686" lon="3.04541">
        <ele>836.829966</ele>
        <time>2021-07-09T09:09:46+0200</time>
      </trkpt>
      <trkpt lat="45.0569" lon="3.04547">
        <ele>836.556783</ele>
        <time>2021-07-09T09:09:47+0200</time>
      </trkpt>
      <trkpt lat="45.05695" lon="3.04552">
        <ele>836.141124</ele>
        <time>2021-07-09T09:09:48+0200</time>
      </trkpt>
      <trkpt lat="45.05699" lon="3.04559">
        <ele>836.93841</ele>
        <time>2021-07-09T09:09:49+0200</time>
      </trkpt>
      <trkpt lat="45.05703" lon="3.04566">
        <ele>837.192677</ele>
        <time>2021-07-09T09:09:50+0200</time>
      </trkpt>
      <trkpt lat="45.05708" lon="3.04575">
        <ele>837.60727</ele>
        <time>2021-07-09T09:09:51+0200</time>
      </trkpt>
      <trkpt lat="45.05713" lon="3.04582">
        <ele>837.611485</ele>
        <time>2021-07-09T09:09:52+0200</time>
      </trkpt>
      <trkpt lat="45.05718" lon="3.0459">
        <ele>837.213453</ele>
        <time>2021-07-09T09:09:53+0200</time>
      </trkpt>
      <trkpt lat="45.05724" lon="3.04597">
        <ele>837.427228</ele>
        <time>2021-07-09T09:09:54+0200</time>
      </trkpt>
      <trkpt lat="45.05729" lon="3.04606">
        <ele>837.110433</ele>
        <time>2021-07-09T09:09:55+0200</time>
      </trkpt>
      <trkpt lat="45.05733" lon="3.04614">
        <ele>836.984346</ele>
        <time>2021-07-09T09:09:56+0200</time>
      </trkpt>
      <trkpt lat="45.05737" lon="3.04619">
        <ele>837.576091</ele>
        <time>2021-07-09T09:09:57+0200</time>
      </trkpt>
      <trkpt lat="45.05741" lon="3.04624">
        <ele>837.884482</ele>
        <time>2021-07-09T09:09:58+0200</time>
      </trkpt>
      <trkpt lat="45.05745" lon="3.04628">
        <ele>838.494548</ele>
        <time>2021-07-09T09:09:59+0200</time>
      </trkpt>
      <trkpt lat="45.05748" lon="3.04634">
        <ele>838.57685</ele>
        <time>2021-07-09T09:10:00+0200</time>
      </trkpt>
      <trkpt lat="45.05746" lon="3.04644">
        <ele>837.786426</ele>
        <time>2021-07-09T09:10:02+0200</time>
      </trkpt>
      <trkpt lat="45.05744" lon="3.04651">
        <ele>836.854342</ele>
        <time>2021-07-09T09:10:03+0200</time>
      </trkpt>
      <trkpt lat="45.05738" lon="3.04658">
        <ele>835.843112</ele>
        <time>2021-07-09T09:10:05+0200</time>
      </trkpt>
      <trkpt lat="45.05729" lon="3.04659">
        <ele>835.222344</ele>
        <time>2021-07-09T09:10:07+0200</time>
      </trkpt>
      <trkpt lat="45.05725" lon="3.04656">
        <ele>834.920901</ele>
        <time>2021-07-09T09:10:08+0200</time>
      </trkpt>
      <trkpt lat="45.0572" lon="3.04654">
        <ele>834.357642</ele>
        <time>2021-07-09T09:10:09+0200</time>
      </trkpt>
      <trkpt lat="45.05716" lon="3.04652">
        <ele>834.008023</ele>
        <time>2021-07-09T09:10:10+0200</time>
      </trkpt>
      <trkpt lat="45.05711" lon="3.04649">
        <ele>833.162551</ele>
        <time>2021-07-09T09:10:11+0200</time>
      </trkpt>
      <trkpt lat="45.05707" lon="3.04647">
        <ele>833.025057</ele>
        <time>2021-07-09T09:10:12+0200</time>
      </trkpt>
      <trkpt lat="45.05702" lon="3.04645">
        <ele>832.966862</ele>
        <time>2021-07-09T09:10:13+0200</time>
      </trkpt>
      <trkpt lat="45.05697" lon="3.04644">
        <ele>833.06503</ele>
        <time>2021-07-09T09:10:14+0200</time>
      </trkpt>
      <trkpt lat="45.05692" lon="3.04641">
        <ele>832.721405</ele>
        <time>2021-07-09T09:10:15+0200</time>
      </trkpt>
      <trkpt lat="45.05686" lon="3.04641">
        <ele>832.831897</ele>
        <time>2021-07-09T09:10:16+0200</time>
      </trkpt>
      <trkpt lat="45.0568" lon="3.04642">
        <ele>832.838838</ele>
        <time>2021-07-09T09:10:17+0200</time>
      </trkpt>
      <trkpt lat="45.05675" lon="3.04646">
        <ele>833.010536</ele>
        <time>2021-07-09T09:10:18+0200</time>
      </trkpt>
      <trkpt lat="45.05669" lon="3.04651">
        <ele>833.045385</ele>
        <time>2021-07-09T09:10:19+0200</time>
      </trkpt>
      <trkpt lat="45.05665" lon="3.04657">
        <ele>833.122995</ele>
        <time>2021-07-09T09:10:20+0200</time>
      </trkpt>
      <trkpt lat="45.05661" lon="3.04665">
        <ele>832.457282</ele>
        <time>2021-07-09T09:10:21+0200</time>
      </trkpt>
      <trkpt lat="45.0566" lon="3.04676">
        <ele>829.760865</ele>
        <time>2021-07-09T09:10:22+0200</time>
      </trkpt>
      <trkpt lat="45.05659" lon="3.04686">
        <ele>828.736152</ele>
        <time>2021-07-09T09:10:23+0200</time>
      </trkpt>
      <trkpt lat="45.05659" lon="3.04698">
        <ele>828.403164</ele>
        <time>2021-07-09T09:10:24+0200</time>
      </trkpt>
      <trkpt lat="45.0566" lon="3.04709">
        <ele>827.759306</ele>
        <time>2021-07-09T09:10:26+0200</time>
      </trkpt>
      <trkpt lat="45.05659" lon="3.04719">
        <ele>827.179002</ele>
        <time>2021-07-09T09:10:27+0200</time>
      </trkpt>
      <trkpt lat="45.05659" lon="3.0473">
        <ele>826.841821</ele>
        <time>2021-07-09T09:10:28+0200</time>
      </trkpt>
      <trkpt lat="45.05659" lon="3.04741">
        <ele>825.926</ele>
        <time>2021-07-09T09:10:29+0200</time>
      </trkpt>
      <trkpt lat="45.05659" lon="3.04751">
        <ele>824.849926</ele>
        <time>2021-07-09T09:10:30+0200</time>
      </trkpt>
      <trkpt lat="45.05659" lon="3.04762">
        <ele>824.35709</ele>
        <time>2021-07-09T09:10:31+0200</time>
      </trkpt>
      <trkpt lat="45.0566" lon="3.04772">
        <ele>823.240171</ele>
        <time>2021-07-09T09:10:32+0200</time>
      </trkpt>
      <trkpt lat="45.05661" lon="3.04781">
        <ele>822.410154</ele>
        <time>2021-07-09T09:10:33+0200</time>
      </trkpt>
      <trkpt lat="45.05662" lon="3.0479">
        <ele>821.177915</ele>
        <time>2021-07-09T09:10:34+0200</time>
      </trkpt>
      <trkpt lat="45.05664" lon="3.04798">
        <ele>820.611538</ele>
        <time>2021-07-09T09:10:35+0200</time>
      </trkpt>
      <trkpt lat="45.05666" lon="3.04808">
        <ele>820.065035</ele>
        <time>2021-07-09T09:10:35+0200</time>
      </trkpt>
      <trkpt lat="45.05668" lon="3.04816">
        <ele>819.400729</ele>
        <time>2021-07-09T09:10:36+0200</time>
      </trkpt>
      <trkpt lat="45.0567" lon="3.04826">
        <ele>819.481018</ele>
        <time>2021-07-09T09:10:37+0200</time>
      </trkpt>
      <trkpt lat="45.05672" lon="3.04836">
        <ele>819.381939</ele>
        <time>2021-07-09T09:10:38+0200</time>
      </trkpt>
      <trkpt lat="45.05674" lon="3.04845">
        <ele>819.014105</ele>
        <time>2021-07-09T09:10:39+0200</time>
      </trkpt>
      <trkpt lat="45.05676" lon="3.04855">
        <ele>818.478232</ele>
        <time>2021-07-09T09:10:40+0200</time>
      </trkpt>
      <trkpt lat="45.05677" lon="3.04864">
        <ele>817.869532</ele>
        <time>2021-07-09T09:10:41+0200</time>
      </trkpt>
      <trkpt lat="45.05678" lon="3.04875">
        <ele>816.972202</ele>
        <time>2021-07-09T09:10:42+0200</time>
      </trkpt>
      <trkpt lat="45.05679" lon="3.04885">
        <ele>816.198564</ele>
        <time>2021-07-09T09:10:43+0200</time>
      </trkpt>
      <trkpt lat="45.0568" lon="3.04896">
        <ele>815.042368</ele>
        <time>2021-07-09T09:10:44+0200</time>
      </trkpt>
      <trkpt lat="45.05681" lon="3.04906">
        <ele>814.830062</ele>
        <time>2021-07-09T09:10:45+0200</time>
      </trkpt>
      <trkpt lat="45.05681" lon="3.04916">
        <ele>814.922691</ele>
        <time>2021-07-09T09:10:46+0200</time>
      </trkpt>
      <trkpt lat="45.05683" lon="3.04924">
        <ele>814.969559</ele>
        <time>2021-07-09T09:10:47+0200</time>
      </trkpt>
      <trkpt lat="45.05684" lon="3.04934">
        <ele>815.154227</ele>
        <time>2021-07-09T09:10:48+0200</time>
      </trkpt>
      <trkpt lat="45.05686" lon="3.04944">
        <ele>815.217097</ele>
        <time>2021-07-09T09:10:49+0200</time>
      </trkpt>
      <trkpt lat="45.05686" lon="3.04953">
        <ele>815.315163</ele>
        <time>2021-07-09T09:10:50+0200</time>
      </trkpt>
      <trkpt lat="45.05686" lon="3.04961">
        <ele>815.471969</ele>
        <time>2021-07-09T09:10:51+0200</time>
      </trkpt>
      <trkpt lat="45.05686" lon="3.04971">
        <ele>815.665181</ele>
        <time>2021-07-09T09:10:52+0200</time>
      </trkpt>
      <trkpt lat="45.05684" lon="3.04979">
        <ele>815.671003</ele>
        <time>2021-07-09T09:10:53+0200</time>
      </trkpt>
      <trkpt lat="45.05682" lon="3.04986">
        <ele>815.48944</ele>
        <time>2021-07-09T09:10:54+0200</time>
      </trkpt>
      <trkpt lat="45.05681" lon="3.04995">
        <ele>815.047577</ele>
        <time>2021-07-09T09:10:55+0200</time>
      </trkpt>
      <trkpt lat="45.05681" lon="3.05004">
        <ele>813.857854</ele>
        <time>2021-07-09T09:10:56+0200</time>
      </trkpt>
      <trkpt lat="45.05678" lon="3.05013">
        <ele>812.578141</ele>
        <time>2021-07-09T09:10:57+0200</time>
      </trkpt>
      <trkpt lat="45.05676" lon="3.05024">
        <ele>812.386565</ele>
        <time>2021-07-09T09:10:58+0200</time>
      </trkpt>
      <trkpt lat="45.05673" lon="3.05034">
        <ele>811.265823</ele>
        <time>2021-07-09T09:10:59+0200</time>
      </trkpt>
      <trkpt lat="45.05671" lon="3.05043">
        <ele>810.375526</ele>
        <time>2021-07-09T09:11:00+0200</time>
      </trkpt>
      <trkpt lat="45.0567" lon="3.05053">
        <ele>809.874397</ele>
        <time>2021-07-09T09:11:01+0200</time>
      </trkpt>
      <trkpt lat="45.05668" lon="3.05061">
        <ele>809.440056</ele>
        <time>2021-07-09T09:11:02+0200</time>
      </trkpt>
      <trkpt lat="45.05668" lon="3.05067">
        <ele>809.06476</ele>
        <time>2021-07-09T09:11:03+0200</time>
      </trkpt>
      <trkpt lat="45.05667" lon="3.05075">
        <ele>808.510126</ele>
        <time>2021-07-09T09:11:04+0200</time>
      </trkpt>
      <trkpt lat="45.05665" lon="3.05082">
        <ele>808.207377</ele>
        <time>2021-07-09T09:11:05+0200</time>
      </trkpt>
      <trkpt lat="45.05664" lon="3.05089">
        <ele>806.939771</ele>
        <time>2021-07-09T09:11:06+0200</time>
      </trkpt>
      <trkpt lat="45.05663" lon="3.05096">
        <ele>806.217714</ele>
        <time>2021-07-09T09:11:07+0200</time>
      </trkpt>
      <trkpt lat="45.05661" lon="3.05102">
        <ele>805.694442</ele>
        <time>2021-07-09T09:11:08+0200</time>
      </trkpt>
      <trkpt lat="45.05659" lon="3.05116">
        <ele>805.405504</ele>
        <time>2021-07-09T09:11:10+0200</time>
      </trkpt>
      <trkpt lat="45.05658" lon="3.05127">
        <ele>805.270126</ele>
        <time>2021-07-09T09:11:12+0200</time>
      </trkpt>
      <trkpt lat="45.05658" lon="3.0514">
        <ele>805.283521</ele>
        <time>2021-07-09T09:11:14+0200</time>
      </trkpt>
      <trkpt lat="45.05657" lon="3.05152">
        <ele>805.501621</ele>
        <time>2021-07-09T09:11:16+0200</time>
      </trkpt>
      <trkpt lat="45.05658" lon="3.05163">
        <ele>806.807264</ele>
        <time>2021-07-09T09:11:18+0200</time>
      </trkpt>
      <trkpt lat="45.0566" lon="3.05176">
        <ele>806.269039</ele>
        <time>2021-07-09T09:11:20+0200</time>
      </trkpt>
      <trkpt lat="45.0566" lon="3.05183">
        <ele>806.182325</ele>
        <time>2021-07-09T09:11:21+0200</time>
      </trkpt>
      <trkpt lat="45.05659" lon="3.0519">
        <ele>805.753648</ele>
        <time>2021-07-09T09:11:22+0200</time>
      </trkpt>
      <trkpt lat="45.05662" lon="3.05203">
        <ele>804.440774</ele>
        <time>2021-07-09T09:11:24+0200</time>
      </trkpt>
      <trkpt lat="45.05664" lon="3.05214">
        <ele>804.787273</ele>
        <time>2021-07-09T09:11:26+0200</time>
      </trkpt>
      <trkpt lat="45.05665" lon="3.05221">
        <ele>805.090533</ele>
        <time>2021-07-09T09:11:27+0200</time>
      </trkpt>
      <trkpt lat="45.05666" lon="3.05227">
        <ele>805.308989</ele>
        <time>2021-07-09T09:11:28+0200</time>
      </trkpt>
      <trkpt lat="45.05669" lon="3.05239">
        <ele>805.429027</ele>
        <time>2021-07-09T09:11:30+0200</time>
      </trkpt>
      <trkpt lat="45.05671" lon="3.05245">
        <ele>804.978315</ele>
        <time>2021-07-09T09:11:31+0200</time>
      </trkpt>
      <trkpt lat="45.05676" lon="3.05255">
        <ele>805.481913</ele>
        <time>2021-07-09T09:11:33+0200</time>
      </trkpt>
      <trkpt lat="45.05681" lon="3.05263">
        <ele>805.391673</ele>
        <time>2021-07-09T09:11:35+0200</time>
      </trkpt>
      <trkpt lat="45.05687" lon="3.05269">
        <ele>805.02102</ele>
        <time>2021-07-09T09:11:37+0200</time>
      </trkpt>
      <trkpt lat="45.05693" lon="3.05276">
        <ele>805.370384</ele>
        <time>2021-07-09T09:11:39+0200</time>
      </trkpt>
      <trkpt lat="45.05698" lon="3.05283">
        <ele>805.269182</ele>
        <time>2021-07-09T09:11:41+0200</time>
      </trkpt>
      <trkpt lat="45.05703" lon="3.05286">
        <ele>806.186026</ele>
        <time>2021-07-09T09:11:43+0200</time>
      </trkpt>
      <trkpt lat="45.05707" lon="3.05291">
        <ele>806.02834</ele>
        <time>2021-07-09T09:11:45+0200</time>
      </trkpt>
      <trkpt lat="45.05713" lon="3.05296">
        <ele>806.409141</ele>
        <time>2021-07-09T09:11:47+0200</time>
      </trkpt>
      <trkpt lat="45.05719" lon="3.05301">
        <ele>806.032186</ele>
        <time>2021-07-09T09:11:49+0200</time>
      </trkpt>
      <trkpt lat="45.05724" lon="3.05306">
        <ele>805.695901</ele>
        <time>2021-07-09T09:11:51+0200</time>
      </trkpt>
      <trkpt lat="45.05729" lon="3.05311">
        <ele>805.355626</ele>
        <time>2021-07-09T09:11:53+0200</time>
      </trkpt>
      <trkpt lat="45.05733" lon="3.05316">
        <ele>804.806885</ele>
        <time>2021-07-09T09:11:55+0200</time>
      </trkpt>
      <trkpt lat="45.05738" lon="3.05321">
        <ele>804.732328</ele>
        <time>2021-07-09T09:11:57+0200</time>
      </trkpt>
      <trkpt lat="45.05744" lon="3.05325">
        <ele>804.872598</ele>
        <time>2021-07-09T09:11:59+0200</time>
      </trkpt>
      <trkpt lat="45.05748" lon="3.0533">
        <ele>804.999556</ele>
        <time>2021-07-09T09:12:01+0200</time>
      </trkpt>
      <trkpt lat="45.0575" lon="3.05335">
        <ele>805.580759</ele>
        <time>2021-07-09T09:12:03+0200</time>
      </trkpt>
      <trkpt lat="45.05748" lon="3.05342">
        <ele>805.325516</ele>
        <time>2021-07-09T09:12:06+0200</time>
      </trkpt>
      <trkpt lat="45.05743" lon="3.05349">
        <ele>805.717722</ele>
        <time>2021-07-09T09:12:10+0200</time>
      </trkpt>
      <trkpt lat="45.05741" lon="3.05357">
        <ele>804.856047</ele>
        <time>2021-07-09T09:12:13+0200</time>
      </trkpt>
      <trkpt lat="45.05738" lon="3.05365">
        <ele>804.36669</ele>
        <time>2021-07-09T09:12:16+0200</time>
      </trkpt>
      <trkpt lat="45.05736" lon="3.05373">
        <ele>805.434159</ele>
        <time>2021-07-09T09:12:19+0200</time>
      </trkpt>
      <trkpt lat="45.05732" lon="3.0538">
        <ele>805.483665</ele>
        <time>2021-07-09T09:12:22+0200</time>
      </trkpt>
      <trkpt lat="45.05729" lon="3.05388">
        <ele>807.113922</ele>
        <time>2021-07-09T09:12:25+0200</time>
      </trkpt>
      <trkpt lat="45.05729" lon="3.05397">
        <ele>808.553204</ele>
        <time>2021-07-09T09:12:27+0200</time>
      </trkpt>
      <trkpt lat="45.05729" lon="3.05403">
        <ele>807.963522</ele>
        <time>2021-07-09T09:12:28+0200</time>
      </trkpt>
      <trkpt lat="45.05731" lon="3.0541">
        <ele>807.453662</ele>
        <time>2021-07-09T09:12:30+0200</time>
      </trkpt>
      <trkpt lat="45.05732" lon="3.05422">
        <ele>807.856434</ele>
        <time>2021-07-09T09:12:33+0200</time>
      </trkpt>
      <trkpt lat="45.05733" lon="3.05428">
        <ele>807.30464</ele>
        <time>2021-07-09T09:12:34+0200</time>
      </trkpt>
      <trkpt lat="45.05733" lon="3.05441">
        <ele>807.740855</ele>
        <time>2021-07-09T09:12:36+0200</time>
      </trkpt>
      <trkpt lat="45.05732" lon="3.05451">
        <ele>808.029297</ele>
        <time>2021-07-09T09:12:38+0200</time>
      </trkpt>
      <trkpt lat="45.0573" lon="3.05459">
        <ele>810.230895</ele>
        <time>2021-07-09T09:12:39+0200</time>
      </trkpt>
      <trkpt lat="45.05726" lon="3.05466">
        <ele>811.246037</ele>
        <time>2021-07-09T09:12:41+0200</time>
      </trkpt>
      <trkpt lat="45.05723" lon="3.05476">
        <ele>810.797918</ele>
        <time>2021-07-09T09:12:43+0200</time>
      </trkpt>
      <trkpt lat="45.05718" lon="3.05484">
        <ele>808.932504</ele>
        <time>2021-07-09T09:12:45+0200</time>
      </trkpt>
      <trkpt lat="45.05713" lon="3.05493">
        <ele>806.10796</ele>
        <time>2021-07-09T09:12:48+0200</time>
      </trkpt>
      <trkpt lat="45.05708" lon="3.055">
        <ele>807.219896</ele>
        <time>2021-07-09T09:12:50+0200</time>
      </trkpt>
      <trkpt lat="45.05704" lon="3.05509">
        <ele>807.616309</ele>
        <time>2021-07-09T09:12:52+0200</time>
      </trkpt>
      <trkpt lat="45.05699" lon="3.05516">
        <ele>807.856714</ele>
        <time>2021-07-09T09:12:54+0200</time>
      </trkpt>
      <trkpt lat="45.05697" lon="3.05523">
        <ele>808.609041</ele>
        <time>2021-07-09T09:12:55+0200</time>
      </trkpt>
      <trkpt lat="45.05693" lon="3.05532">
        <ele>806.667365</ele>
        <time>2021-07-09T09:12:57+0200</time>
      </trkpt>
      <trkpt lat="45.05687" lon="3.05543">
        <ele>806.128198</ele>
        <time>2021-07-09T09:12:59+0200</time>
      </trkpt>
      <trkpt lat="45.05682" lon="3.05553">
        <ele>805.335461</ele>
        <time>2021-07-09T09:13:01+0200</time>
      </trkpt>
      <trkpt lat="45.0568" lon="3.0556">
        <ele>804.410337</ele>
        <time>2021-07-09T09:13:02+0200</time>
      </trkpt>
      <trkpt lat="45.05676" lon="3.05568">
        <ele>802.46502</ele>
        <time>2021-07-09T09:13:04+0200</time>
      </trkpt>
      <trkpt lat="45.05671" lon="3.05577">
        <ele>801.773047</ele>
        <time>2021-07-09T09:13:06+0200</time>
      </trkpt>
      <trkpt lat="45.05665" lon="3.05585">
        <ele>801.220572</ele>
        <time>2021-07-09T09:13:08+0200</time>
      </trkpt>
      <trkpt lat="45.05659" lon="3.05592">
        <ele>801.705269</ele>
        <time>2021-07-09T09:13:10+0200</time>
      </trkpt>
      <trkpt lat="45.05653" lon="3.05599">
        <ele>801.589069</ele>
        <time>2021-07-09T09:13:12+0200</time>
      </trkpt>
      <trkpt lat="45.05649" lon="3.05607">
        <ele>801.73695</ele>
        <time>2021-07-09T09:13:14+0200</time>
      </trkpt>
      <trkpt lat="45.05645" lon="3.05615">
        <ele>800.329261</ele>
        <time>2021-07-09T09:13:16+0200</time>
      </trkpt>
      <trkpt lat="45.05642" lon="3.05622">
        <ele>800.739195</ele>
        <time>2021-07-09T09:13:18+0200</time>
      </trkpt>
      <trkpt lat="45.05639" lon="3.05628">
        <ele>797.003263</ele>
        <time>2021-07-09T09:13:35+0200</time>
      </trkpt>
      <trkpt lat="45.05644" lon="3.05628">
        <ele>799.888421</ele>
        <time>2021-07-09T09:13:45+0200</time>
      </trkpt>
      <trkpt lat="45.05649" lon="3.05632">
        <ele>802.397122</ele>
        <time>2021-07-09T09:13:50+0200</time>
      </trkpt>
      <trkpt lat="45.05653" lon="3.05638">
        <ele>804.014861</ele>
        <time>2021-07-09T09:13:53+0200</time>
      </trkpt>
      <trkpt lat="45.05655" lon="3.05645">
        <ele>804.154517</ele>
        <time>2021-07-09T09:13:56+0200</time>
      </trkpt>
      <trkpt lat="45.05657" lon="3.05652">
        <ele>801.93703</ele>
        <time>2021-07-09T09:13:58+0200</time>
      </trkpt>
      <trkpt lat="45.05659" lon="3.05659">
        <ele>803.229853</ele>
        <time>2021-07-09T09:14:01+0200</time>
      </trkpt>
      <trkpt lat="45.0566" lon="3.05667">
        <ele>802.752027</ele>
        <time>2021-07-09T09:14:03+0200</time>
      </trkpt>
      <trkpt lat="45.05662" lon="3.05675">
        <ele>802.031592</ele>
        <time>2021-07-09T09:14:05+0200</time>
      </trkpt>
      <trkpt lat="45.05664" lon="3.05684">
        <ele>801.222501</ele>
        <time>2021-07-09T09:14:07+0200</time>
      </trkpt>
      <trkpt lat="45.05666" lon="3.05693">
        <ele>801.285836</ele>
        <time>2021-07-09T09:14:09+0200</time>
      </trkpt>
      <trkpt lat="45.05667" lon="3.05701">
        <ele>802.431368</ele>
        <time>2021-07-09T09:14:11+0200</time>
      </trkpt>
      <trkpt lat="45.05669" lon="3.05712">
        <ele>801.905449</ele>
        <time>2021-07-09T09:14:13+0200</time>
      </trkpt>
      <trkpt lat="45.05671" lon="3.05723">
        <ele>800.363136</ele>
        <time>2021-07-09T09:14:15+0200</time>
      </trkpt>
      <trkpt lat="45.05673" lon="3.05731">
        <ele>799.648973</ele>
        <time>2021-07-09T09:14:16+0200</time>
      </trkpt>
      <trkpt lat="45.05675" lon="3.05738">
        <ele>799.687619</ele>
        <time>2021-07-09T09:14:17+0200</time>
      </trkpt>
      <trkpt lat="45.05676" lon="3.05748">
        <ele>800.593046</ele>
        <time>2021-07-09T09:14:19+0200</time>
      </trkpt>
      <trkpt lat="45.05678" lon="3.0576">
        <ele>800.637116</ele>
        <time>2021-07-09T09:14:21+0200</time>
      </trkpt>
      <trkpt lat="45.0568" lon="3.05773">
        <ele>799.193199</ele>
        <time>2021-07-09T09:14:23+0200</time>
      </trkpt>
      <trkpt lat="45.05681" lon="3.0578">
        <ele>798.682431</ele>
        <time>2021-07-09T09:14:24+0200</time>
      </trkpt>
      <trkpt lat="45.05682" lon="3.0579">
        <ele>799.574996</ele>
        <time>2021-07-09T09:14:26+0200</time>
      </trkpt>
      <trkpt lat="45.05683" lon="3.05799">
        <ele>800.619001</ele>
        <time>2021-07-09T09:14:28+0200</time>
      </trkpt>
      <trkpt lat="45.05686" lon="3.05809">
        <ele>800.446445</ele>
        <time>2021-07-09T09:14:30+0200</time>
      </trkpt>
      <trkpt lat="45.05689" lon="3.05819">
        <ele>800.394796</ele>
        <time>2021-07-09T09:14:32+0200</time>
      </trkpt>
      <trkpt lat="45.05691" lon="3.05825">
        <ele>802.495755</ele>
        <time>2021-07-09T09:14:34+0200</time>
      </trkpt>
      <trkpt lat="45.05694" lon="3.05833">
        <ele>802.371586</ele>
        <time>2021-07-09T09:14:36+0200</time>
      </trkpt>
      <trkpt lat="45.05697" lon="3.05841">
        <ele>802.238229</ele>
        <time>2021-07-09T09:14:38+0200</time>
      </trkpt>
      <trkpt lat="45.05698" lon="3.0585">
        <ele>804.65749</ele>
        <time>2021-07-09T09:14:41+0200</time>
      </trkpt>
      <trkpt lat="45.057" lon="3.05858">
        <ele>805.556258</ele>
        <time>2021-07-09T09:14:42+0200</time>
      </trkpt>
      <trkpt lat="45.05703" lon="3.05867">
        <ele>807.324384</ele>
        <time>2021-07-09T09:14:44+0200</time>
      </trkpt>
      <trkpt lat="45.05706" lon="3.05879">
        <ele>806.396922</ele>
        <time>2021-07-09T09:14:46+0200</time>
      </trkpt>
      <trkpt lat="45.05708" lon="3.05888">
        <ele>806.16564</ele>
        <time>2021-07-09T09:14:48+0200</time>
      </trkpt>
      <trkpt lat="45.05711" lon="3.05896">
        <ele>806.183432</ele>
        <time>2021-07-09T09:14:50+0200</time>
      </trkpt>
      <trkpt lat="45.05712" lon="3.05902">
        <ele>805.473288</ele>
        <time>2021-07-09T09:14:51+0200</time>
      </trkpt>
      <trkpt lat="45.05715" lon="3.05911">
        <ele>804.387558</ele>
        <time>2021-07-09T09:14:53+0200</time>
      </trkpt>
      <trkpt lat="45.05719" lon="3.05919">
        <ele>803.373294</ele>
        <time>2021-07-09T09:14:55+0200</time>
      </trkpt>
      <trkpt lat="45.05722" lon="3.05928">
        <ele>802.619119</ele>
        <time>2021-07-09T09:14:57+0200</time>
      </trkpt>
      <trkpt lat="45.05725" lon="3.05939">
        <ele>799.299789</ele>
        <time>2021-07-09T09:14:59+0200</time>
      </trkpt>
      <trkpt lat="45.05727" lon="3.05948">
        <ele>798.28901</ele>
        <time>2021-07-09T09:15:01+0200</time>
      </trkpt>
      <trkpt lat="45.0573" lon="3.05956">
        <ele>798.114968</ele>
        <time>2021-07-09T09:15:03+0200</time>
      </trkpt>
      <trkpt lat="45.05733" lon="3.05965">
        <ele>798.628468</ele>
        <time>2021-07-09T09:15:05+0200</time>
      </trkpt>
      <trkpt lat="45.05735" lon="3.05971">
        <ele>799.577561</ele>
        <time>2021-07-09T09:15:07+0200</time>
      </trkpt>
      <trkpt lat="45.0574" lon="3.05979">
        <ele>800.470351</ele>
        <time>2021-07-09T09:15:10+0200</time>
      </trkpt>
      <trkpt lat="45.05742" lon="3.05989">
        <ele>798.65266</ele>
        <time>2021-07-09T09:15:13+0200</time>
      </trkpt>
      <trkpt lat="45.05742" lon="3.05998">
        <ele>799.018418</ele>
        <time>2021-07-09T09:15:15+0200</time>
      </trkpt>
      <trkpt lat="45.05743" lon="3.06005">
        <ele>799.045048</ele>
        <time>2021-07-09T09:15:17+0200</time>
      </trkpt>
      <trkpt lat="45.05743" lon="3.06014">
        <ele>799.621541</ele>
        <time>2021-07-09T09:15:19+0200</time>
      </trkpt>
      <trkpt lat="45.05743" lon="3.06022">
        <ele>799.685214</ele>
        <time>2021-07-09T09:15:21+0200</time>
      </trkpt>
      <trkpt lat="45.05743" lon="3.06031">
        <ele>800.447543</ele>
        <time>2021-07-09T09:15:24+0200</time>
      </trkpt>
      <trkpt lat="45.05744" lon="3.06037">
        <ele>798.987731</ele>
        <time>2021-07-09T09:15:29+0200</time>
      </trkpt>
      <trkpt lat="45.05749" lon="3.06038">
        <ele>799.106532</ele>
        <time>2021-07-09T09:15:36+0200</time>
      </trkpt>
      <trkpt lat="45.05754" lon="3.06033">
        <ele>799.552526</ele>
        <time>2021-07-09T09:15:40+0200</time>
      </trkpt>
      <trkpt lat="45.05758" lon="3.06029">
        <ele>799.094029</ele>
        <time>2021-07-09T09:15:42+0200</time>
      </trkpt>
      <trkpt lat="45.05761" lon="3.06023">
        <ele>799.243764</ele>
        <time>2021-07-09T09:15:44+0200</time>
      </trkpt>
      <trkpt lat="45.05767" lon="3.06015">
        <ele>799.145666</ele>
        <time>2021-07-09T09:15:46+0200</time>
      </trkpt>
      <trkpt lat="45.05772" lon="3.06007">
        <ele>798.806412</ele>
        <time>2021-07-09T09:15:48+0200</time>
      </trkpt>
      <trkpt lat="45.05776" lon="3.05999">
        <ele>798.498532</ele>
        <time>2021-07-09T09:15:50+0200</time>
      </trkpt>
      <trkpt lat="45.05782" lon="3.05994">
        <ele>798.424371</ele>
        <time>2021-07-09T09:15:52+0200</time>
      </trkpt>
      <trkpt lat="45.05786" lon="3.05989">
        <ele>799.043563</ele>
        <time>2021-07-09T09:15:54+0200</time>
      </trkpt>
      <trkpt lat="45.05791" lon="3.05984">
        <ele>799.375216</ele>
        <time>2021-07-09T09:15:56+0200</time>
      </trkpt>
      <trkpt lat="45.05795" lon="3.05978">
        <ele>799.891795</ele>
        <time>2021-07-09T09:15:57+0200</time>
      </trkpt>
      <trkpt lat="45.05799" lon="3.05972">
        <ele>800.938251</ele>
        <time>2021-07-09T09:15:59+0200</time>
      </trkpt>
      <trkpt lat="45.05804" lon="3.05967">
        <ele>800.820932</ele>
        <time>2021-07-09T09:16:01+0200</time>
      </trkpt>
      <trkpt lat="45.05809" lon="3.0596">
        <ele>802.002831</ele>
        <time>2021-07-09T09:16:03+0200</time>
      </trkpt>
      <trkpt lat="45.05814" lon="3.05954">
        <ele>802.810713</ele>
        <time>2021-07-09T09:16:05+0200</time>
      </trkpt>
      <trkpt lat="45.05818" lon="3.05949">
        <ele>803.858877</ele>
        <time>2021-07-09T09:16:07+0200</time>
      </trkpt>
      <trkpt lat="45.05823" lon="3.05944">
        <ele>803.655928</ele>
        <time>2021-07-09T09:16:10+0200</time>
      </trkpt>
      <trkpt lat="45.05827" lon="3.05939">
        <ele>803.214283</ele>
        <time>2021-07-09T09:16:12+0200</time>
      </trkpt>
      <trkpt lat="45.0583" lon="3.05933">
        <ele>804.716426</ele>
        <time>2021-07-09T09:16:14+0200</time>
      </trkpt>
      <trkpt lat="45.05835" lon="3.05927">
        <ele>803.411683</ele>
        <time>2021-07-09T09:16:16+0200</time>
      </trkpt>
      <trkpt lat="45.05839" lon="3.05921">
        <ele>803.058052</ele>
        <time>2021-07-09T09:16:18+0200</time>
      </trkpt>
      <trkpt lat="45.05841" lon="3.05915">
        <ele>803.472909</ele>
        <time>2021-07-09T09:16:20+0200</time>
      </trkpt>
      <trkpt lat="45.05844" lon="3.05908">
        <ele>803.425374</ele>
        <time>2021-07-09T09:16:23+0200</time>
      </trkpt>
      <trkpt lat="45.05844" lon="3.05901">
        <ele>804.727985</ele>
        <time>2021-07-09T09:16:29+0200</time>
      </trkpt>
      <trkpt lat="45.05847" lon="3.05894">
        <ele>804.821054</ele>
        <time>2021-07-09T09:16:32+0200</time>
      </trkpt>
      <trkpt lat="45.05849" lon="3.05886">
        <ele>805.739418</ele>
        <time>2021-07-09T09:16:35+0200</time>
      </trkpt>
      <trkpt lat="45.05848" lon="3.05879">
        <ele>806.321885</ele>
        <time>2021-07-09T09:16:37+0200</time>
      </trkpt>
      <trkpt lat="45.05849" lon="3.0587">
        <ele>806.93316</ele>
        <time>2021-07-09T09:16:40+0200</time>
      </trkpt>
      <trkpt lat="45.0585" lon="3.0586">
        <ele>807.192614</ele>
        <time>2021-07-09T09:16:44+0200</time>
      </trkpt>
      <trkpt lat="45.0585" lon="3.05854">
        <ele>807.549261</ele>
        <time>2021-07-09T09:16:46+0200</time>
      </trkpt>
      <trkpt lat="45.05849" lon="3.05847">
        <ele>809.307137</ele>
        <time>2021-07-09T09:16:48+0200</time>
      </trkpt>
      <trkpt lat="45.05849" lon="3.0584">
        <ele>810.889284</ele>
        <time>2021-07-09T09:16:50+0200</time>
      </trkpt>
      <trkpt lat="45.05849" lon="3.05833">
        <ele>811.053448</ele>
        <time>2021-07-09T09:16:52+0200</time>
      </trkpt>
      <trkpt lat="45.0585" lon="3.05824">
        <ele>810.941103</ele>
        <time>2021-07-09T09:16:55+0200</time>
      </trkpt>
      <trkpt lat="45.05851" lon="3.05816">
        <ele>808.888103</ele>
        <time>2021-07-09T09:16:57+0200</time>
      </trkpt>
      <trkpt lat="45.05852" lon="3.0581">
        <ele>808.716703</ele>
        <time>2021-07-09T09:16:59+0200</time>
      </trkpt>
      <trkpt lat="45.05853" lon="3.05803">
        <ele>808.581366</ele>
        <time>2021-07-09T09:17:01+0200</time>
      </trkpt>
      <trkpt lat="45.05853" lon="3.05794">
        <ele>809.100718</ele>
        <time>2021-07-09T09:17:04+0200</time>
      </trkpt>
      <trkpt lat="45.05853" lon="3.05785">
        <ele>808.923224</ele>
        <time>2021-07-09T09:17:06+0200</time>
      </trkpt>
      <trkpt lat="45.05854" lon="3.05777">
        <ele>808.799351</ele>
        <time>2021-07-09T09:17:09+0200</time>
      </trkpt>
      <trkpt lat="45.0586" lon="3.05777">
        <ele>808.406817</ele>
        <time>2021-07-09T09:17:12+0200</time>
      </trkpt>
      <trkpt lat="45.05863" lon="3.05782">
        <ele>809.599478</ele>
        <time>2021-07-09T09:17:16+0200</time>
      </trkpt>
      <trkpt lat="45.05867" lon="3.05788">
        <ele>811.702723</ele>
        <time>2021-07-09T09:17:20+0200</time>
      </trkpt>
      <trkpt lat="45.05871" lon="3.05792">
        <ele>811.329719</ele>
        <time>2021-07-09T09:17:24+0200</time>
      </trkpt>
      <trkpt lat="45.05871" lon="3.05799">
        <ele>812.351312</ele>
        <time>2021-07-09T09:17:28+0200</time>
      </trkpt>
      <trkpt lat="45.05876" lon="3.05801">
        <ele>815.103433</ele>
        <time>2021-07-09T09:17:32+0200</time>
      </trkpt>
      <trkpt lat="45.05878" lon="3.05809">
        <ele>815.991137</ele>
        <time>2021-07-09T09:17:36+0200</time>
      </trkpt>
      <trkpt lat="45.05879" lon="3.05815">
        <ele>818.53686</ele>
        <time>2021-07-09T09:17:40+0200</time>
      </trkpt>
      <trkpt lat="45.05881" lon="3.05821">
        <ele>819.830785</ele>
        <time>2021-07-09T09:17:44+0200</time>
      </trkpt>
      <trkpt lat="45.05882" lon="3.05828">
        <ele>820.430172</ele>
        <time>2021-07-09T09:17:47+0200</time>
      </trkpt>
      <trkpt lat="45.05885" lon="3.05835">
        <ele>821.079843</ele>
        <time>2021-07-09T09:17:51+0200</time>
      </trkpt>
      <trkpt lat="45.05887" lon="3.05842">
        <ele>820.405308</ele>
        <time>2021-07-09T09:17:54+0200</time>
      </trkpt>
      <trkpt lat="45.05889" lon="3.0585">
        <ele>818.945737</ele>
        <time>2021-07-09T09:17:57+0200</time>
      </trkpt>
      <trkpt lat="45.0589" lon="3.05856">
        <ele>818.693981</ele>
        <time>2021-07-09T09:18:00+0200</time>
      </trkpt>
      <trkpt lat="45.05891" lon="3.05863">
        <ele>818.810669</ele>
        <time>2021-07-09T09:18:03+0200</time>
      </trkpt>
      <trkpt lat="45.05893" lon="3.05872">
        <ele>819.700707</ele>
        <time>2021-07-09T09:18:07+0200</time>
      </trkpt>
      <trkpt lat="45.05895" lon="3.05879">
        <ele>820.122349</ele>
        <time>2021-07-09T09:18:10+0200</time>
      </trkpt>
      <trkpt lat="45.05897" lon="3.05885">
        <ele>821.020509</ele>
        <time>2021-07-09T09:18:14+0200</time>
      </trkpt>
      <trkpt lat="45.05901" lon="3.05892">
        <ele>821.97091</ele>
        <time>2021-07-09T09:18:18+0200</time>
      </trkpt>
      <trkpt lat="45.05902" lon="3.059">
        <ele>824.077297</ele>
        <time>2021-07-09T09:18:22+0200</time>
      </trkpt>
      <trkpt lat="45.05905" lon="3.05907">
        <ele>824.768047</ele>
        <time>2021-07-09T09:18:26+0200</time>
      </trkpt>
      <trkpt lat="45.05908" lon="3.05914">
        <ele>824.979529</ele>
        <time>2021-07-09T09:18:30+0200</time>
      </trkpt>
      <trkpt lat="45.0591" lon="3.05921">
        <ele>826.292651</ele>
        <time>2021-07-09T09:18:33+0200</time>
      </trkpt>
      <trkpt lat="45.05912" lon="3.05927">
        <ele>830.270445</ele>
        <time>2021-07-09T09:18:39+0200</time>
      </trkpt>
      <trkpt lat="45.05915" lon="3.05932">
        <ele>832.978936</ele>
        <time>2021-07-09T09:18:43+0200</time>
      </trkpt>
      <trkpt lat="45.05918" lon="3.05939">
        <ele>832.642625</ele>
        <time>2021-07-09T09:18:48+0200</time>
      </trkpt>
      <trkpt lat="45.05919" lon="3.05933">
        <ele>828.665221</ele>
        <time>2021-07-09T09:18:54+0200</time>
      </trkpt>
      <trkpt lat="45.0592" lon="3.0594">
        <ele>830.5728</ele>
        <time>2021-07-09T09:19:02+0200</time>
      </trkpt>
      <trkpt lat="45.05921" lon="3.05946">
        <ele>830.904378</ele>
        <time>2021-07-09T09:19:05+0200</time>
      </trkpt>
      <trkpt lat="45.05923" lon="3.05952">
        <ele>829.93324</ele>
        <time>2021-07-09T09:19:08+0200</time>
      </trkpt>
      <trkpt lat="45.05925" lon="3.05958">
        <ele>830.358827</ele>
        <time>2021-07-09T09:19:11+0200</time>
      </trkpt>
      <trkpt lat="45.05927" lon="3.05965">
        <ele>830.94671</ele>
        <time>2021-07-09T09:19:15+0200</time>
      </trkpt>
      <trkpt lat="45.0593" lon="3.05971">
        <ele>831.35994</ele>
        <time>2021-07-09T09:19:18+0200</time>
      </trkpt>
      <trkpt lat="45.05931" lon="3.05978">
        <ele>831.311647</ele>
        <time>2021-07-09T09:19:21+0200</time>
      </trkpt>
      <trkpt lat="45.05929" lon="3.05985">
        <ele>832.052968</ele>
        <time>2021-07-09T09:19:25+0200</time>
      </trkpt>
      <trkpt lat="45.05928" lon="3.05992">
        <ele>834.137901</ele>
        <time>2021-07-09T09:19:29+0200</time>
      </trkpt>
      <trkpt lat="45.05928" lon="3.05999">
        <ele>833.716844</ele>
        <time>2021-07-09T09:19:32+0200</time>
      </trkpt>
      <trkpt lat="45.05929" lon="3.06006">
        <ele>834.374531</ele>
        <time>2021-07-09T09:19:36+0200</time>
      </trkpt>
      <trkpt lat="45.05928" lon="3.06013">
        <ele>834.187164</ele>
        <time>2021-07-09T09:19:39+0200</time>
      </trkpt>
      <trkpt lat="45.05929" lon="3.06021">
        <ele>837.651668</ele>
        <time>2021-07-09T09:19:43+0200</time>
      </trkpt>
      <trkpt lat="45.05931" lon="3.06027">
        <ele>838.023108</ele>
        <time>2021-07-09T09:19:46+0200</time>
      </trkpt>
      <trkpt lat="45.05935" lon="3.06033">
        <ele>839.329829</ele>
        <time>2021-07-09T09:19:49+0200</time>
      </trkpt>
      <trkpt lat="45.05938" lon="3.06039">
        <ele>838.338717</ele>
        <time>2021-07-09T09:19:53+0200</time>
      </trkpt>
      <trkpt lat="45.05941" lon="3.06047">
        <ele>840.919957</ele>
        <time>2021-07-09T09:19:57+0200</time>
      </trkpt>
      <trkpt lat="45.05944" lon="3.06053">
        <ele>841.575312</ele>
        <time>2021-07-09T09:20:00+0200</time>
      </trkpt>
      <trkpt lat="45.05947" lon="3.0606">
        <ele>843.152409</ele>
        <time>2021-07-09T09:20:04+0200</time>
      </trkpt>
      <trkpt lat="45.05949" lon="3.06068">
        <ele>844.159643</ele>
        <time>2021-07-09T09:20:08+0200</time>
      </trkpt>
      <trkpt lat="45.05951" lon="3.06075">
        <ele>844.812086</ele>
        <time>2021-07-09T09:20:11+0200</time>
      </trkpt>
      <trkpt lat="45.05951" lon="3.06083">
        <ele>846.6442</ele>
        <time>2021-07-09T09:20:15+0200</time>
      </trkpt>
      <trkpt lat="45.0595" lon="3.06091">
        <ele>849.328884</ele>
        <time>2021-07-09T09:20:18+0200</time>
      </trkpt>
      <trkpt lat="45.0595" lon="3.06098">
        <ele>849.515111</ele>
        <time>2021-07-09T09:20:21+0200</time>
      </trkpt>
      <trkpt lat="45.05948" lon="3.06104">
        <ele>851.155721</ele>
        <time>2021-07-09T09:20:24+0200</time>
      </trkpt>
      <trkpt lat="45.05947" lon="3.06111">
        <ele>850.417513</ele>
        <time>2021-07-09T09:20:27+0200</time>
      </trkpt>
      <trkpt lat="45.05947" lon="3.06121">
        <ele>848.361056</ele>
        <time>2021-07-09T09:20:30+0200</time>
      </trkpt>
      <trkpt lat="45.05947" lon="3.06128">
        <ele>846.845647</ele>
        <time>2021-07-09T09:20:33+0200</time>
      </trkpt>
      <trkpt lat="45.0595" lon="3.06134">
        <ele>846.536857</ele>
        <time>2021-07-09T09:20:36+0200</time>
      </trkpt>
      <trkpt lat="45.05952" lon="3.06142">
        <ele>846.713995</ele>
        <time>2021-07-09T09:20:40+0200</time>
      </trkpt>
      <trkpt lat="45.05954" lon="3.06148">
        <ele>846.746605</ele>
        <time>2021-07-09T09:20:44+0200</time>
      </trkpt>
      <trkpt lat="45.0596" lon="3.06151">
        <ele>848.249937</ele>
        <time>2021-07-09T09:20:48+0200</time>
      </trkpt>
      <trkpt lat="45.05964" lon="3.06154">
        <ele>849.227884</ele>
        <time>2021-07-09T09:20:51+0200</time>
      </trkpt>
      <trkpt lat="45.05969" lon="3.06157">
        <ele>848.904783</ele>
        <time>2021-07-09T09:20:56+0200</time>
      </trkpt>
      <trkpt lat="45.0597" lon="3.06164">
        <ele>851.078163</ele>
        <time>2021-07-09T09:21:00+0200</time>
      </trkpt>
      <trkpt lat="45.05971" lon="3.06171">
        <ele>855.129232</ele>
        <time>2021-07-09T09:21:03+0200</time>
      </trkpt>
      <trkpt lat="45.05971" lon="3.06179">
        <ele>855.483333</ele>
        <time>2021-07-09T09:21:05+0200</time>
      </trkpt>
      <trkpt lat="45.05973" lon="3.06186">
        <ele>857.94769</ele>
        <time>2021-07-09T09:21:08+0200</time>
      </trkpt>
      <trkpt lat="45.05975" lon="3.06194">
        <ele>859.758209</ele>
        <time>2021-07-09T09:21:11+0200</time>
      </trkpt>
      <trkpt lat="45.05976" lon="3.06201">
        <ele>859.150685</ele>
        <time>2021-07-09T09:21:14+0200</time>
      </trkpt>
      <trkpt lat="45.05978" lon="3.06208">
        <ele>856.577262</ele>
        <time>2021-07-09T09:21:18+0200</time>
      </trkpt>
      <trkpt lat="45.05979" lon="3.06214">
        <ele>854.971181</ele>
        <time>2021-07-09T09:21:21+0200</time>
      </trkpt>
      <trkpt lat="45.05982" lon="3.06221">
        <ele>854.273751</ele>
        <time>2021-07-09T09:21:25+0200</time>
      </trkpt>
      <trkpt lat="45.05985" lon="3.06226">
        <ele>855.117999</ele>
        <time>2021-07-09T09:21:29+0200</time>
      </trkpt>
      <trkpt lat="45.05988" lon="3.06233">
        <ele>861.402854</ele>
        <time>2021-07-09T09:22:55+0200</time>
      </trkpt>
      <trkpt lat="45.05989" lon="3.06239">
        <ele>864.361313</ele>
        <time>2021-07-09T09:23:02+0200</time>
      </trkpt>
      <trkpt lat="45.05986" lon="3.06233">
        <ele>862.781578</ele>
        <time>2021-07-09T09:23:08+0200</time>
      </trkpt>
      <trkpt lat="45.05983" lon="3.06228">
        <ele>855.38083</ele>
        <time>2021-07-09T09:24:07+0200</time>
      </trkpt>
      <trkpt lat="45.05985" lon="3.06234">
        <ele>855.751416</ele>
        <time>2021-07-09T09:24:14+0200</time>
      </trkpt>
      <trkpt lat="45.05988" lon="3.06241">
        <ele>854.765332</ele>
        <time>2021-07-09T09:24:17+0200</time>
      </trkpt>
      <trkpt lat="45.05988" lon="3.06248">
        <ele>855.95193</ele>
        <time>2021-07-09T09:24:19+0200</time>
      </trkpt>
      <trkpt lat="45.05989" lon="3.06256">
        <ele>856.818441</ele>
        <time>2021-07-09T09:24:21+0200</time>
      </trkpt>
      <trkpt lat="45.05989" lon="3.06263">
        <ele>857.892688</ele>
        <time>2021-07-09T09:24:23+0200</time>
      </trkpt>
      <trkpt lat="45.05989" lon="3.06273">
        <ele>857.912211</ele>
        <time>2021-07-09T09:24:25+0200</time>
      </trkpt>
      <trkpt lat="45.05988" lon="3.06286">
        <ele>855.642884</ele>
        <time>2021-07-09T09:24:27+0200</time>
      </trkpt>
      <trkpt lat="45.05987" lon="3.06294">
        <ele>853.692261</ele>
        <time>2021-07-09T09:24:28+0200</time>
      </trkpt>
      <trkpt lat="45.05988" lon="3.06306">
        <ele>852.049178</ele>
        <time>2021-07-09T09:24:30+0200</time>
      </trkpt>
      <trkpt lat="45.05989" lon="3.06313">
        <ele>851.942471</ele>
        <time>2021-07-09T09:24:31+0200</time>
      </trkpt>
      <trkpt lat="45.05989" lon="3.06322">
        <ele>851.457248</ele>
        <time>2021-07-09T09:24:32+0200</time>
      </trkpt>
      <trkpt lat="45.05989" lon="3.0633">
        <ele>850.604656</ele>
        <time>2021-07-09T09:24:33+0200</time>
      </trkpt>
      <trkpt lat="45.05989" lon="3.06339">
        <ele>851.030057</ele>
        <time>2021-07-09T09:24:34+0200</time>
      </trkpt>
      <trkpt lat="45.05989" lon="3.06348">
        <ele>852.099202</ele>
        <time>2021-07-09T09:24:35+0200</time>
      </trkpt>
      <trkpt lat="45.05989" lon="3.06357">
        <ele>852.943123</ele>
        <time>2021-07-09T09:24:36+0200</time>
      </trkpt>
      <trkpt lat="45.05989" lon="3.06365">
        <ele>853.295811</ele>
        <time>2021-07-09T09:24:36+0200</time>
      </trkpt>
      <trkpt lat="45.05989" lon="3.06372">
        <ele>853.83751</ele>
        <time>2021-07-09T09:24:37+0200</time>
      </trkpt>
      <trkpt lat="45.05989" lon="3.0638">
        <ele>854.60643</ele>
        <time>2021-07-09T09:24:38+0200</time>
      </trkpt>
      <trkpt lat="45.05989" lon="3.06389">
        <ele>854.17004</ele>
        <time>2021-07-09T09:24:39+0200</time>
      </trkpt>
      <trkpt lat="45.05991" lon="3.06396">
        <ele>852.785324</ele>
        <time>2021-07-09T09:24:40+0200</time>
      </trkpt>
      <trkpt lat="45.05992" lon="3.06403">
        <ele>852.333125</ele>
        <time>2021-07-09T09:24:41+0200</time>
      </trkpt>
      <trkpt lat="45.05992" lon="3.06414">
        <ele>852.337467</ele>
        <time>2021-07-09T09:24:42+0200</time>
      </trkpt>
      <trkpt lat="45.05991" lon="3.06424">
        <ele>852.286233</ele>
        <time>2021-07-09T09:24:43+0200</time>
      </trkpt>
      <trkpt lat="45.05991" lon="3.06433">
        <ele>850.454305</ele>
        <time>2021-07-09T09:24:44+0200</time>
      </trkpt>
      <trkpt lat="45.0599" lon="3.06444">
        <ele>850.553497</ele>
        <time>2021-07-09T09:24:45+0200</time>
      </trkpt>
      <trkpt lat="45.05992" lon="3.06453">
        <ele>850.814484</ele>
        <time>2021-07-09T09:24:46+0200</time>
      </trkpt>
      <trkpt lat="45.05994" lon="3.06463">
        <ele>851.196392</ele>
        <time>2021-07-09T09:24:47+0200</time>
      </trkpt>
      <trkpt lat="45.05993" lon="3.06473">
        <ele>850.257918</ele>
        <time>2021-07-09T09:24:48+0200</time>
      </trkpt>
      <trkpt lat="45.0599" lon="3.06483">
        <ele>849.873939</ele>
        <time>2021-07-09T09:24:49+0200</time>
      </trkpt>
      <trkpt lat="45.05988" lon="3.06493">
        <ele>849.369549</ele>
        <time>2021-07-09T09:24:50+0200</time>
      </trkpt>
      <trkpt lat="45.05987" lon="3.06503">
        <ele>848.206142</ele>
        <time>2021-07-09T09:24:51+0200</time>
      </trkpt>
      <trkpt lat="45.05985" lon="3.06514">
        <ele>847.421606</ele>
        <time>2021-07-09T09:24:52+0200</time>
      </trkpt>
      <trkpt lat="45.05983" lon="3.06524">
        <ele>847.432988</ele>
        <time>2021-07-09T09:24:53+0200</time>
      </trkpt>
      <trkpt lat="45.05982" lon="3.06534">
        <ele>846.606592</ele>
        <time>2021-07-09T09:24:54+0200</time>
      </trkpt>
      <trkpt lat="45.05981" lon="3.06543">
        <ele>845.746338</ele>
        <time>2021-07-09T09:24:55+0200</time>
      </trkpt>
      <trkpt lat="45.05979" lon="3.06549">
        <ele>843.836384</ele>
        <time>2021-07-09T09:24:56+0200</time>
      </trkpt>
      <trkpt lat="45.05974" lon="3.06556">
        <ele>844.162431</ele>
        <time>2021-07-09T09:24:57+0200</time>
      </trkpt>
      <trkpt lat="45.05971" lon="3.06562">
        <ele>843.838273</ele>
        <time>2021-07-09T09:24:58+0200</time>
      </trkpt>
      <trkpt lat="45.0597" lon="3.06568">
        <ele>843.219851</ele>
        <time>2021-07-09T09:24:59+0200</time>
      </trkpt>
      <trkpt lat="45.05969" lon="3.06577">
        <ele>843.423582</ele>
        <time>2021-07-09T09:25:00+0200</time>
      </trkpt>
      <trkpt lat="45.05968" lon="3.06586">
        <ele>844.043312</ele>
        <time>2021-07-09T09:25:01+0200</time>
      </trkpt>
      <trkpt lat="45.05966" lon="3.06595">
        <ele>844.07809</ele>
        <time>2021-07-09T09:25:02+0200</time>
      </trkpt>
      <trkpt lat="45.05964" lon="3.06606">
        <ele>841.652165</ele>
        <time>2021-07-09T09:25:03+0200</time>
      </trkpt>
      <trkpt lat="45.05961" lon="3.06612">
        <ele>839.684374</ele>
        <time>2021-07-09T09:25:04+0200</time>
      </trkpt>
      <trkpt lat="45.05957" lon="3.06619">
        <ele>839.104893</ele>
        <time>2021-07-09T09:25:05+0200</time>
      </trkpt>
      <trkpt lat="45.05954" lon="3.06626">
        <ele>838.776462</ele>
        <time>2021-07-09T09:25:06+0200</time>
      </trkpt>
      <trkpt lat="45.05952" lon="3.06633">
        <ele>838.867172</ele>
        <time>2021-07-09T09:25:08+0200</time>
      </trkpt>
      <trkpt lat="45.05948" lon="3.06643">
        <ele>838.34486</ele>
        <time>2021-07-09T09:25:09+0200</time>
      </trkpt>
      <trkpt lat="45.05946" lon="3.06652">
        <ele>837.995919</ele>
        <time>2021-07-09T09:25:10+0200</time>
      </trkpt>
      <trkpt lat="45.05943" lon="3.06663">
        <ele>838.254546</ele>
        <time>2021-07-09T09:25:11+0200</time>
      </trkpt>
      <trkpt lat="45.05941" lon="3.06675">
        <ele>838.771547</ele>
        <time>2021-07-09T09:25:12+0200</time>
      </trkpt>
      <trkpt lat="45.0594" lon="3.06687">
        <ele>839.416013</ele>
        <time>2021-07-09T09:25:13+0200</time>
      </trkpt>
      <trkpt lat="45.05938" lon="3.06697">
        <ele>839.343205</ele>
        <time>2021-07-09T09:25:14+0200</time>
      </trkpt>
      <trkpt lat="45.05935" lon="3.06706">
        <ele>839.127152</ele>
        <time>2021-07-09T09:25:15+0200</time>
      </trkpt>
      <trkpt lat="45.05934" lon="3.06718">
        <ele>839.287343</ele>
        <time>2021-07-09T09:25:16+0200</time>
      </trkpt>
      <trkpt lat="45.05935" lon="3.06728">
        <ele>838.896724</ele>
        <time>2021-07-09T09:25:17+0200</time>
      </trkpt>
      <trkpt lat="45.05936" lon="3.06739">
        <ele>838.257236</ele>
        <time>2021-07-09T09:25:18+0200</time>
      </trkpt>
      <trkpt lat="45.05938" lon="3.06747">
        <ele>837.429911</ele>
        <time>2021-07-09T09:25:19+0200</time>
      </trkpt>
      <trkpt lat="45.0594" lon="3.06754">
        <ele>835.943401</ele>
        <time>2021-07-09T09:25:20+0200</time>
      </trkpt>
      <trkpt lat="45.05938" lon="3.06763">
        <ele>834.665657</ele>
        <time>2021-07-09T09:25:21+0200</time>
      </trkpt>
      <trkpt lat="45.05935" lon="3.0677">
        <ele>834.441952</ele>
        <time>2021-07-09T09:25:22+0200</time>
      </trkpt>
      <trkpt lat="45.05931" lon="3.06778">
        <ele>835.132484</ele>
        <time>2021-07-09T09:25:23+0200</time>
      </trkpt>
      <trkpt lat="45.05929" lon="3.06789">
        <ele>833.425987</ele>
        <time>2021-07-09T09:25:24+0200</time>
      </trkpt>
      <trkpt lat="45.05926" lon="3.06797">
        <ele>832.875389</ele>
        <time>2021-07-09T09:25:25+0200</time>
      </trkpt>
      <trkpt lat="45.05922" lon="3.06804">
        <ele>832.807928</ele>
        <time>2021-07-09T09:25:26+0200</time>
      </trkpt>
      <trkpt lat="45.05917" lon="3.06811">
        <ele>833.928933</ele>
        <time>2021-07-09T09:25:27+0200</time>
      </trkpt>
      <trkpt lat="45.05914" lon="3.06819">
        <ele>833.880102</ele>
        <time>2021-07-09T09:25:28+0200</time>
      </trkpt>
      <trkpt lat="45.05911" lon="3.06826">
        <ele>832.47873</ele>
        <time>2021-07-09T09:25:29+0200</time>
      </trkpt>
      <trkpt lat="45.05907" lon="3.06831">
        <ele>831.685594</ele>
        <time>2021-07-09T09:25:30+0200</time>
      </trkpt>
      <trkpt lat="45.05902" lon="3.06838">
        <ele>831.552012</ele>
        <time>2021-07-09T09:25:31+0200</time>
      </trkpt>
      <trkpt lat="45.05899" lon="3.06848">
        <ele>831.562447</ele>
        <time>2021-07-09T09:25:32+0200</time>
      </trkpt>
      <trkpt lat="45.05896" lon="3.06858">
        <ele>832.359634</ele>
        <time>2021-07-09T09:25:33+0200</time>
      </trkpt>
      <trkpt lat="45.05892" lon="3.06867">
        <ele>833.283583</ele>
        <time>2021-07-09T09:25:34+0200</time>
      </trkpt>
      <trkpt lat="45.05887" lon="3.06876">
        <ele>834.453354</ele>
        <time>2021-07-09T09:25:35+0200</time>
      </trkpt>
      <trkpt lat="45.05881" lon="3.06887">
        <ele>833.72428</ele>
        <time>2021-07-09T09:25:36+0200</time>
      </trkpt>
      <trkpt lat="45.05876" lon="3.06898">
        <ele>831.401944</ele>
        <time>2021-07-09T09:25:37+0200</time>
      </trkpt>
      <trkpt lat="45.05872" lon="3.06912">
        <ele>827.630464</ele>
        <time>2021-07-09T09:25:38+0200</time>
      </trkpt>
      <trkpt lat="45.0587" lon="3.06925">
        <ele>824.616744</ele>
        <time>2021-07-09T09:25:39+0200</time>
      </trkpt>
      <trkpt lat="45.05869" lon="3.06941">
        <ele>824.845422</ele>
        <time>2021-07-09T09:25:40+0200</time>
      </trkpt>
      <trkpt lat="45.05869" lon="3.06957">
        <ele>824.091756</ele>
        <time>2021-07-09T09:25:41+0200</time>
      </trkpt>
      <trkpt lat="45.05867" lon="3.06973">
        <ele>823.397672</ele>
        <time>2021-07-09T09:25:42+0200</time>
      </trkpt>
      <trkpt lat="45.05864" lon="3.06988">
        <ele>821.253695</ele>
        <time>2021-07-09T09:25:43+0200</time>
      </trkpt>
      <trkpt lat="45.0586" lon="3.07004">
        <ele>819.885196</ele>
        <time>2021-07-09T09:25:44+0200</time>
      </trkpt>
      <trkpt lat="45.05855" lon="3.07019">
        <ele>818.366145</ele>
        <time>2021-07-09T09:25:45+0200</time>
      </trkpt>
      <trkpt lat="45.05849" lon="3.07034">
        <ele>817.073587</ele>
        <time>2021-07-09T09:25:46+0200</time>
      </trkpt>
      <trkpt lat="45.05842" lon="3.07046">
        <ele>817.072705</ele>
        <time>2021-07-09T09:25:46+0200</time>
      </trkpt>
      <trkpt lat="45.05836" lon="3.07056">
        <ele>815.292755</ele>
        <time>2021-07-09T09:25:48+0200</time>
      </trkpt>
      <trkpt lat="45.05829" lon="3.07065">
        <ele>814.321509</ele>
        <time>2021-07-09T09:25:48+0200</time>
      </trkpt>
      <trkpt lat="45.05825" lon="3.07076">
        <ele>813.699461</ele>
        <time>2021-07-09T09:25:49+0200</time>
      </trkpt>
      <trkpt lat="45.05821" lon="3.07088">
        <ele>813.825895</ele>
        <time>2021-07-09T09:25:50+0200</time>
      </trkpt>
      <trkpt lat="45.05821" lon="3.07101">
        <ele>812.937684</ele>
        <time>2021-07-09T09:25:51+0200</time>
      </trkpt>
      <trkpt lat="45.05817" lon="3.07114">
        <ele>813.007766</ele>
        <time>2021-07-09T09:25:52+0200</time>
      </trkpt>
      <trkpt lat="45.05815" lon="3.07125">
        <ele>812.150068</ele>
        <time>2021-07-09T09:25:53+0200</time>
      </trkpt>
      <trkpt lat="45.05816" lon="3.07133">
        <ele>810.059687</ele>
        <time>2021-07-09T09:25:54+0200</time>
      </trkpt>
      <trkpt lat="45.05816" lon="3.0714">
        <ele>807.193548</ele>
        <time>2021-07-09T09:25:55+0200</time>
      </trkpt>
      <trkpt lat="45.0581" lon="3.07146">
        <ele>807.199383</ele>
        <time>2021-07-09T09:25:58+0200</time>
      </trkpt>
      <trkpt lat="45.05806" lon="3.07149">
        <ele>806.772451</ele>
        <time>2021-07-09T09:25:59+0200</time>
      </trkpt>
      <trkpt lat="45.05799" lon="3.07152">
        <ele>807.744154</ele>
        <time>2021-07-09T09:26:01+0200</time>
      </trkpt>
      <trkpt lat="45.05793" lon="3.07157">
        <ele>807.945667</ele>
        <time>2021-07-09T09:26:03+0200</time>
      </trkpt>
      <trkpt lat="45.0579" lon="3.07164">
        <ele>808.516827</ele>
        <time>2021-07-09T09:26:06+0200</time>
      </trkpt>
      <trkpt lat="45.05789" lon="3.07172">
        <ele>811.461846</ele>
        <time>2021-07-09T09:26:09+0200</time>
      </trkpt>
      <trkpt lat="45.05788" lon="3.07179">
        <ele>811.337428</ele>
        <time>2021-07-09T09:26:12+0200</time>
      </trkpt>
      <trkpt lat="45.05787" lon="3.07186">
        <ele>815.096162</ele>
        <time>2021-07-09T09:26:15+0200</time>
      </trkpt>
      <trkpt lat="45.05788" lon="3.07193">
        <ele>817.318059</ele>
        <time>2021-07-09T09:26:18+0200</time>
      </trkpt>
      <trkpt lat="45.05789" lon="3.07202">
        <ele>818.660537</ele>
        <time>2021-07-09T09:26:21+0200</time>
      </trkpt>
      <trkpt lat="45.05787" lon="3.07211">
        <ele>820.250403</ele>
        <time>2021-07-09T09:26:24+0200</time>
      </trkpt>
      <trkpt lat="45.05786" lon="3.0722">
        <ele>818.690951</ele>
        <time>2021-07-09T09:26:27+0200</time>
      </trkpt>
      <trkpt lat="45.05787" lon="3.07227">
        <ele>818.749299</ele>
        <time>2021-07-09T09:26:30+0200</time>
      </trkpt>
      <trkpt lat="45.05785" lon="3.07235">
        <ele>816.65119</ele>
        <time>2021-07-09T09:26:33+0200</time>
      </trkpt>
      <trkpt lat="45.05785" lon="3.07242">
        <ele>817.21778</ele>
        <time>2021-07-09T09:26:35+0200</time>
      </trkpt>
      <trkpt lat="45.05784" lon="3.07249">
        <ele>818.877152</ele>
        <time>2021-07-09T09:26:37+0200</time>
      </trkpt>
      <trkpt lat="45.05783" lon="3.07257">
        <ele>820.125131</ele>
        <time>2021-07-09T09:26:41+0200</time>
      </trkpt>
      <trkpt lat="45.05784" lon="3.07265">
        <ele>821.626311</ele>
        <time>2021-07-09T09:26:44+0200</time>
      </trkpt>
      <trkpt lat="45.05784" lon="3.07272">
        <ele>822.434395</ele>
        <time>2021-07-09T09:26:48+0200</time>
      </trkpt>
      <trkpt lat="45.05788" lon="3.0728">
        <ele>821.891757</ele>
        <time>2021-07-09T09:26:52+0200</time>
      </trkpt>
      <trkpt lat="45.05789" lon="3.07287">
        <ele>820.305056</ele>
        <time>2021-07-09T09:26:55+0200</time>
      </trkpt>
      <trkpt lat="45.05788" lon="3.07294">
        <ele>821.41701</ele>
        <time>2021-07-09T09:26:59+0200</time>
      </trkpt>
      <trkpt lat="45.05788" lon="3.07302">
        <ele>823.188048</ele>
        <time>2021-07-09T09:27:03+0200</time>
      </trkpt>
      <trkpt lat="45.05787" lon="3.0731">
        <ele>821.9759</ele>
        <time>2021-07-09T09:27:06+0200</time>
      </trkpt>
      <trkpt lat="45.05786" lon="3.07319">
        <ele>820.544891</ele>
        <time>2021-07-09T09:27:09+0200</time>
      </trkpt>
      <trkpt lat="45.05785" lon="3.07327">
        <ele>821.964842</ele>
        <time>2021-07-09T09:27:12+0200</time>
      </trkpt>
      <trkpt lat="45.05785" lon="3.07334">
        <ele>824.236706</ele>
        <time>2021-07-09T09:27:16+0200</time>
      </trkpt>
      <trkpt lat="45.05785" lon="3.07342">
        <ele>826.93764</ele>
        <time>2021-07-09T09:27:20+0200</time>
      </trkpt>
      <trkpt lat="45.05785" lon="3.07349">
        <ele>828.452855</ele>
        <time>2021-07-09T09:27:23+0200</time>
      </trkpt>
      <trkpt lat="45.05784" lon="3.07355">
        <ele>829.461127</ele>
        <time>2021-07-09T09:27:26+0200</time>
      </trkpt>
      <trkpt lat="45.05783" lon="3.07362">
        <ele>829.766815</ele>
        <time>2021-07-09T09:27:29+0200</time>
      </trkpt>
      <trkpt lat="45.05779" lon="3.07368">
        <ele>829.732433</ele>
        <time>2021-07-09T09:27:32+0200</time>
      </trkpt>
      <trkpt lat="45.05776" lon="3.07373">
        <ele>829.552633</ele>
        <time>2021-07-09T09:27:34+0200</time>
      </trkpt>
      <trkpt lat="45.05773" lon="3.07376">
        <ele>829.872983</ele>
        <time>2021-07-09T09:27:36+0200</time>
      </trkpt>
      <trkpt lat="45.05769" lon="3.07382">
        <ele>828.873197</ele>
        <time>2021-07-09T09:27:41+0200</time>
      </trkpt>
      <trkpt lat="45.05765" lon="3.07387">
        <ele>828.553603</ele>
        <time>2021-07-09T09:27:44+0200</time>
      </trkpt>
      <trkpt lat="45.05762" lon="3.07394">
        <ele>830.761823</ele>
        <time>2021-07-09T09:27:49+0200</time>
      </trkpt>
      <trkpt lat="45.0576" lon="3.074">
        <ele>831.514481</ele>
        <time>2021-07-09T09:27:52+0200</time>
      </trkpt>
      <trkpt lat="45.05759" lon="3.07408">
        <ele>832.418143</ele>
        <time>2021-07-09T09:27:55+0200</time>
      </trkpt>
      <trkpt lat="45.05757" lon="3.07416">
        <ele>831.917484</ele>
        <time>2021-07-09T09:27:59+0200</time>
      </trkpt>
      <trkpt lat="45.05755" lon="3.07424">
        <ele>833.03103</ele>
        <time>2021-07-09T09:28:03+0200</time>
      </trkpt>
      <trkpt lat="45.05755" lon="3.07431">
        <ele>832.74753</ele>
        <time>2021-07-09T09:28:07+0200</time>
      </trkpt>
      <trkpt lat="45.05757" lon="3.07438">
        <ele>834.265768</ele>
        <time>2021-07-09T09:28:11+0200</time>
      </trkpt>
      <trkpt lat="45.0576" lon="3.07445">
        <ele>831.846155</ele>
        <time>2021-07-09T09:28:15+0200</time>
      </trkpt>
      <trkpt lat="45.05761" lon="3.07453">
        <ele>831.150067</ele>
        <time>2021-07-09T09:28:18+0200</time>
      </trkpt>
      <trkpt lat="45.05762" lon="3.07459">
        <ele>831.517281</ele>
        <time>2021-07-09T09:28:21+0200</time>
      </trkpt>
      <trkpt lat="45.05765" lon="3.07466">
        <ele>832.372048</ele>
        <time>2021-07-09T09:28:24+0200</time>
      </trkpt>
      <trkpt lat="45.05767" lon="3.07473">
        <ele>832.456158</ele>
        <time>2021-07-09T09:28:28+0200</time>
      </trkpt>
      <trkpt lat="45.05767" lon="3.0748">
        <ele>831.880356</ele>
        <time>2021-07-09T09:28:31+0200</time>
      </trkpt>
      <trkpt lat="45.05763" lon="3.07486">
        <ele>832.401606</ele>
        <time>2021-07-09T09:28:35+0200</time>
      </trkpt>
      <trkpt lat="45.05758" lon="3.07488">
        <ele>828.524822</ele>
        <time>2021-07-09T09:29:31+0200</time>
      </trkpt>
      <trkpt lat="45.05753" lon="3.07491">
        <ele>829.567646</ele>
        <time>2021-07-09T09:29:34+0200</time>
      </trkpt>
      <trkpt lat="45.05747" lon="3.07495">
        <ele>830.650137</ele>
        <time>2021-07-09T09:29:37+0200</time>
      </trkpt>
      <trkpt lat="45.05742" lon="3.07498">
        <ele>831.129336</ele>
        <time>2021-07-09T09:29:39+0200</time>
      </trkpt>
      <trkpt lat="45.05737" lon="3.07501">
        <ele>832.460954</ele>
        <time>2021-07-09T09:29:41+0200</time>
      </trkpt>
      <trkpt lat="45.05732" lon="3.07504">
        <ele>831.894502</ele>
        <time>2021-07-09T09:29:43+0200</time>
      </trkpt>
      <trkpt lat="45.05728" lon="3.0751">
        <ele>832.049519</ele>
        <time>2021-07-09T09:29:45+0200</time>
      </trkpt>
      <trkpt lat="45.05724" lon="3.07514">
        <ele>833.397971</ele>
        <time>2021-07-09T09:29:47+0200</time>
      </trkpt>
      <trkpt lat="45.05719" lon="3.07518">
        <ele>833.993932</ele>
        <time>2021-07-09T09:29:49+0200</time>
      </trkpt>
      <trkpt lat="45.05714" lon="3.07522">
        <ele>834.6762</ele>
        <time>2021-07-09T09:29:51+0200</time>
      </trkpt>
      <trkpt lat="45.05708" lon="3.07524">
        <ele>835.004824</ele>
        <time>2021-07-09T09:29:53+0200</time>
      </trkpt>
      <trkpt lat="45.05701" lon="3.07528">
        <ele>835.67182</ele>
        <time>2021-07-09T09:29:55+0200</time>
      </trkpt>
      <trkpt lat="45.05695" lon="3.07531">
        <ele>835.711059</ele>
        <time>2021-07-09T09:29:57+0200</time>
      </trkpt>
      <trkpt lat="45.05688" lon="3.07534">
        <ele>835.137495</ele>
        <time>2021-07-09T09:29:59+0200</time>
      </trkpt>
      <trkpt lat="45.05682" lon="3.07539">
        <ele>835.471276</ele>
        <time>2021-07-09T09:30:01+0200</time>
      </trkpt>
      <trkpt lat="45.05675" lon="3.0754">
        <ele>836.069904</ele>
        <time>2021-07-09T09:30:03+0200</time>
      </trkpt>
      <trkpt lat="45.05667" lon="3.07539">
        <ele>836.439512</ele>
        <time>2021-07-09T09:30:05+0200</time>
      </trkpt>
      <trkpt lat="45.0566" lon="3.07542">
        <ele>836.594804</ele>
        <time>2021-07-09T09:30:07+0200</time>
      </trkpt>
      <trkpt lat="45.05652" lon="3.07544">
        <ele>836.798339</ele>
        <time>2021-07-09T09:30:09+0200</time>
      </trkpt>
      <trkpt lat="45.05645" lon="3.07548">
        <ele>836.093691</ele>
        <time>2021-07-09T09:30:11+0200</time>
      </trkpt>
      <trkpt lat="45.05641" lon="3.0755">
        <ele>836.138381</ele>
        <time>2021-07-09T09:30:12+0200</time>
      </trkpt>
      <trkpt lat="45.05632" lon="3.07552">
        <ele>835.291774</ele>
        <time>2021-07-09T09:30:13+0200</time>
      </trkpt>
      <trkpt lat="45.05624" lon="3.07556">
        <ele>834.92342</ele>
        <time>2021-07-09T09:30:15+0200</time>
      </trkpt>
      <trkpt lat="45.05617" lon="3.07558">
        <ele>835.191824</ele>
        <time>2021-07-09T09:30:17+0200</time>
      </trkpt>
      <trkpt lat="45.0561" lon="3.0756">
        <ele>835.204928</ele>
        <time>2021-07-09T09:30:19+0200</time>
      </trkpt>
      <trkpt lat="45.05604" lon="3.07563">
        <ele>835.608816</ele>
        <time>2021-07-09T09:30:21+0200</time>
      </trkpt>
      <trkpt lat="45.05598" lon="3.07566">
        <ele>835.631499</ele>
        <time>2021-07-09T09:30:23+0200</time>
      </trkpt>
      <trkpt lat="45.0559" lon="3.07569">
        <ele>835.786636</ele>
        <time>2021-07-09T09:30:25+0200</time>
      </trkpt>
      <trkpt lat="45.05583" lon="3.0757">
        <ele>834.796373</ele>
        <time>2021-07-09T09:30:27+0200</time>
      </trkpt>
      <trkpt lat="45.05576" lon="3.07571">
        <ele>836.057681</ele>
        <time>2021-07-09T09:30:29+0200</time>
      </trkpt>
      <trkpt lat="45.05567" lon="3.07572">
        <ele>836.384914</ele>
        <time>2021-07-09T09:30:31+0200</time>
      </trkpt>
      <trkpt lat="45.05559" lon="3.07571">
        <ele>836.374064</ele>
        <time>2021-07-09T09:30:33+0200</time>
      </trkpt>
      <trkpt lat="45.05551" lon="3.07572">
        <ele>836.044768</ele>
        <time>2021-07-09T09:30:35+0200</time>
      </trkpt>
      <trkpt lat="45.05543" lon="3.0757">
        <ele>836.46706</ele>
        <time>2021-07-09T09:30:37+0200</time>
      </trkpt>
      <trkpt lat="45.05539" lon="3.0757">
        <ele>835.87139</ele>
        <time>2021-07-09T09:30:38+0200</time>
      </trkpt>
      <trkpt lat="45.05531" lon="3.07572">
        <ele>835.145573</ele>
        <time>2021-07-09T09:30:40+0200</time>
      </trkpt>
      <trkpt lat="45.05524" lon="3.07572">
        <ele>835.808188</ele>
        <time>2021-07-09T09:30:42+0200</time>
      </trkpt>
      <trkpt lat="45.05517" lon="3.07572">
        <ele>836.044461</ele>
        <time>2021-07-09T09:30:44+0200</time>
      </trkpt>
      <trkpt lat="45.0551" lon="3.07571">
        <ele>835.847639</ele>
        <time>2021-07-09T09:30:46+0200</time>
      </trkpt>
      <trkpt lat="45.05503" lon="3.07571">
        <ele>835.303986</ele>
        <time>2021-07-09T09:30:48+0200</time>
      </trkpt>
      <trkpt lat="45.05497" lon="3.07573">
        <ele>835.155173</ele>
        <time>2021-07-09T09:30:50+0200</time>
      </trkpt>
      <trkpt lat="45.0549" lon="3.07574">
        <ele>834.742719</ele>
        <time>2021-07-09T09:30:52+0200</time>
      </trkpt>
      <trkpt lat="45.05481" lon="3.07575">
        <ele>833.978685</ele>
        <time>2021-07-09T09:30:54+0200</time>
      </trkpt>
      <trkpt lat="45.05477" lon="3.07576">
        <ele>833.020029</ele>
        <time>2021-07-09T09:30:55+0200</time>
      </trkpt>
      <trkpt lat="45.05471" lon="3.07578">
        <ele>832.456868</ele>
        <time>2021-07-09T09:30:56+0200</time>
      </trkpt>
      <trkpt lat="45.05466" lon="3.07579">
        <ele>832.264807</ele>
        <time>2021-07-09T09:30:57+0200</time>
      </trkpt>
      <trkpt lat="45.0546" lon="3.0758">
        <ele>831.535513</ele>
        <time>2021-07-09T09:30:58+0200</time>
      </trkpt>
      <trkpt lat="45.05454" lon="3.07582">
        <ele>830.745355</ele>
        <time>2021-07-09T09:30:59+0200</time>
      </trkpt>
      <trkpt lat="45.05447" lon="3.07582">
        <ele>829.965175</ele>
        <time>2021-07-09T09:31:00+0200</time>
      </trkpt>
      <trkpt lat="45.0544" lon="3.07582">
        <ele>829.129232</ele>
        <time>2021-07-09T09:31:01+0200</time>
      </trkpt>
      <trkpt lat="45.05431" lon="3.07581">
        <ele>828.386803</ele>
        <time>2021-07-09T09:31:02+0200</time>
      </trkpt>
      <trkpt lat="45.05423" lon="3.07582">
        <ele>827.857495</ele>
        <time>2021-07-09T09:31:03+0200</time>
      </trkpt>
      <trkpt lat="45.05415" lon="3.07584">
        <ele>827.129951</ele>
        <time>2021-07-09T09:31:04+0200</time>
      </trkpt>
      <trkpt lat="45.05407" lon="3.07586">
        <ele>826.795753</ele>
        <time>2021-07-09T09:31:05+0200</time>
      </trkpt>
      <trkpt lat="45.054" lon="3.07583">
        <ele>826.362618</ele>
        <time>2021-07-09T09:31:06+0200</time>
      </trkpt>
      <trkpt lat="45.05394" lon="3.07576">
        <ele>826.684033</ele>
        <time>2021-07-09T09:31:07+0200</time>
      </trkpt>
      <trkpt lat="45.05391" lon="3.07569">
        <ele>827.459986</ele>
        <time>2021-07-09T09:31:08+0200</time>
      </trkpt>
      <trkpt lat="45.05387" lon="3.07563">
        <ele>827.414035</ele>
        <time>2021-07-09T09:31:09+0200</time>
      </trkpt>
      <trkpt lat="45.05384" lon="3.07558">
        <ele>828.012119</ele>
        <time>2021-07-09T09:31:10+0200</time>
      </trkpt>
      <trkpt lat="45.0538" lon="3.07554">
        <ele>828.414567</ele>
        <time>2021-07-09T09:31:11+0200</time>
      </trkpt>
      <trkpt lat="45.05376" lon="3.0755">
        <ele>828.442624</ele>
        <time>2021-07-09T09:31:12+0200</time>
      </trkpt>
      <trkpt lat="45.0537" lon="3.07553">
        <ele>828.895431</ele>
        <time>2021-07-09T09:31:13+0200</time>
      </trkpt>
      <trkpt lat="45.05365" lon="3.07558">
        <ele>829.207342</ele>
        <time>2021-07-09T09:31:14+0200</time>
      </trkpt>
      <trkpt lat="45.05362" lon="3.07565">
        <ele>828.555534</ele>
        <time>2021-07-09T09:31:15+0200</time>
      </trkpt>
      <trkpt lat="45.05359" lon="3.07572">
        <ele>828.167899</ele>
        <time>2021-07-09T09:31:16+0200</time>
      </trkpt>
      <trkpt lat="45.05356" lon="3.0758">
        <ele>827.297184</ele>
        <time>2021-07-09T09:31:17+0200</time>
      </trkpt>
      <trkpt lat="45.05353" lon="3.07587">
        <ele>826.680379</ele>
        <time>2021-07-09T09:31:18+0200</time>
      </trkpt>
      <trkpt lat="45.0535" lon="3.07594">
        <ele>825.521078</ele>
        <time>2021-07-09T09:31:19+0200</time>
      </trkpt>
      <trkpt lat="45.05347" lon="3.07601">
        <ele>824.541892</ele>
        <time>2021-07-09T09:31:20+0200</time>
      </trkpt>
      <trkpt lat="45.05343" lon="3.07608">
        <ele>824.212401</ele>
        <time>2021-07-09T09:31:21+0200</time>
      </trkpt>
      <trkpt lat="45.05339" lon="3.07615">
        <ele>823.779268</ele>
        <time>2021-07-09T09:31:22+0200</time>
      </trkpt>
      <trkpt lat="45.05334" lon="3.0762">
        <ele>823.629338</ele>
        <time>2021-07-09T09:31:23+0200</time>
      </trkpt>
      <trkpt lat="45.05327" lon="3.07622">
        <ele>823.313627</ele>
        <time>2021-07-09T09:31:24+0200</time>
      </trkpt>
      <trkpt lat="45.0532" lon="3.07623">
        <ele>822.571901</ele>
        <time>2021-07-09T09:31:26+0200</time>
      </trkpt>
      <trkpt lat="45.05312" lon="3.07625">
        <ele>822.183481</ele>
        <time>2021-07-09T09:31:27+0200</time>
      </trkpt>
      <trkpt lat="45.05306" lon="3.07628">
        <ele>822.458643</ele>
        <time>2021-07-09T09:31:28+0200</time>
      </trkpt>
      <trkpt lat="45.05301" lon="3.07632">
        <ele>822.881951</ele>
        <time>2021-07-09T09:31:29+0200</time>
      </trkpt>
      <trkpt lat="45.05296" lon="3.07638">
        <ele>823.329586</ele>
        <time>2021-07-09T09:31:30+0200</time>
      </trkpt>
      <trkpt lat="45.0529" lon="3.07641">
        <ele>823.139592</ele>
        <time>2021-07-09T09:31:31+0200</time>
      </trkpt>
      <trkpt lat="45.05285" lon="3.07645">
        <ele>823.290812</ele>
        <time>2021-07-09T09:31:32+0200</time>
      </trkpt>
      <trkpt lat="45.0528" lon="3.07649">
        <ele>823.264448</ele>
        <time>2021-07-09T09:31:33+0200</time>
      </trkpt>
      <trkpt lat="45.05275" lon="3.07653">
        <ele>822.809674</ele>
        <time>2021-07-09T09:31:34+0200</time>
      </trkpt>
      <trkpt lat="45.0527" lon="3.07657">
        <ele>822.792616</ele>
        <time>2021-07-09T09:31:35+0200</time>
      </trkpt>
      <trkpt lat="45.05265" lon="3.07659">
        <ele>822.415131</ele>
        <time>2021-07-09T09:31:36+0200</time>
      </trkpt>
      <trkpt lat="45.0526" lon="3.07661">
        <ele>822.078805</ele>
        <time>2021-07-09T09:31:37+0200</time>
      </trkpt>
      <trkpt lat="45.05255" lon="3.07664">
        <ele>821.939888</ele>
        <time>2021-07-09T09:31:38+0200</time>
      </trkpt>
      <trkpt lat="45.05249" lon="3.07665">
        <ele>820.887448</ele>
        <time>2021-07-09T09:31:39+0200</time>
      </trkpt>
      <trkpt lat="45.05245" lon="3.07666">
        <ele>821.220212</ele>
        <time>2021-07-09T09:31:40+0200</time>
      </trkpt>
      <trkpt lat="45.0524" lon="3.07668">
        <ele>821.235194</ele>
        <time>2021-07-09T09:31:41+0200</time>
      </trkpt>
      <trkpt lat="45.05236" lon="3.07672">
        <ele>821.2057</ele>
        <time>2021-07-09T09:31:42+0200</time>
      </trkpt>
      <trkpt lat="45.05231" lon="3.07674">
        <ele>821.642735</ele>
        <time>2021-07-09T09:31:43+0200</time>
      </trkpt>
      <trkpt lat="45.05227" lon="3.07676">
        <ele>821.593608</ele>
        <time>2021-07-09T09:31:44+0200</time>
      </trkpt>
      <trkpt lat="45.05223" lon="3.07679">
        <ele>821.74625</ele>
        <time>2021-07-09T09:31:45+0200</time>
      </trkpt>
      <trkpt lat="45.05218" lon="3.07682">
        <ele>821.810086</ele>
        <time>2021-07-09T09:31:46+0200</time>
      </trkpt>
      <trkpt lat="45.05211" lon="3.07689">
        <ele>821.965289</ele>
        <time>2021-07-09T09:31:48+0200</time>
      </trkpt>
      <trkpt lat="45.05204" lon="3.07695">
        <ele>822.225899</ele>
        <time>2021-07-09T09:31:50+0200</time>
      </trkpt>
      <trkpt lat="45.05197" lon="3.07702">
        <ele>822.869969</ele>
        <time>2021-07-09T09:31:52+0200</time>
      </trkpt>
      <trkpt lat="45.05194" lon="3.07707">
        <ele>822.74703</ele>
        <time>2021-07-09T09:31:53+0200</time>
      </trkpt>
      <trkpt lat="45.0519" lon="3.0771">
        <ele>822.977654</ele>
        <time>2021-07-09T09:31:54+0200</time>
      </trkpt>
      <trkpt lat="45.05184" lon="3.07717">
        <ele>822.785646</ele>
        <time>2021-07-09T09:31:56+0200</time>
      </trkpt>
      <trkpt lat="45.05177" lon="3.07723">
        <ele>822.430629</ele>
        <time>2021-07-09T09:31:58+0200</time>
      </trkpt>
      <trkpt lat="45.05172" lon="3.07732">
        <ele>821.648738</ele>
        <time>2021-07-09T09:32:00+0200</time>
      </trkpt>
      <trkpt lat="45.05166" lon="3.07741">
        <ele>821.536545</ele>
        <time>2021-07-09T09:32:02+0200</time>
      </trkpt>
      <trkpt lat="45.05162" lon="3.07746">
        <ele>821.349764</ele>
        <time>2021-07-09T09:32:04+0200</time>
      </trkpt>
      <trkpt lat="45.0516" lon="3.07753">
        <ele>822.966625</ele>
        <time>2021-07-09T09:32:06+0200</time>
      </trkpt>
      <trkpt lat="45.05156" lon="3.07759">
        <ele>823.456414</ele>
        <time>2021-07-09T09:32:08+0200</time>
      </trkpt>
      <trkpt lat="45.05153" lon="3.07766">
        <ele>823.061804</ele>
        <time>2021-07-09T09:32:10+0200</time>
      </trkpt>
      <trkpt lat="45.05149" lon="3.07773">
        <ele>823.25532</ele>
        <time>2021-07-09T09:32:12+0200</time>
      </trkpt>
      <trkpt lat="45.05145" lon="3.07781">
        <ele>823.080048</ele>
        <time>2021-07-09T09:32:14+0200</time>
      </trkpt>
      <trkpt lat="45.05141" lon="3.07791">
        <ele>822.188364</ele>
        <time>2021-07-09T09:32:16+0200</time>
      </trkpt>
      <trkpt lat="45.05136" lon="3.07799">
        <ele>821.642726</ele>
        <time>2021-07-09T09:32:18+0200</time>
      </trkpt>
      <trkpt lat="45.05132" lon="3.07805">
        <ele>820.912022</ele>
        <time>2021-07-09T09:32:20+0200</time>
      </trkpt>
      <trkpt lat="45.05127" lon="3.07816">
        <ele>820.286286</ele>
        <time>2021-07-09T09:32:22+0200</time>
      </trkpt>
      <trkpt lat="45.05123" lon="3.07822">
        <ele>819.275684</ele>
        <time>2021-07-09T09:32:23+0200</time>
      </trkpt>
      <trkpt lat="45.05118" lon="3.0783">
        <ele>818.854575</ele>
        <time>2021-07-09T09:32:24+0200</time>
      </trkpt>
      <trkpt lat="45.05114" lon="3.07837">
        <ele>818.586817</ele>
        <time>2021-07-09T09:32:25+0200</time>
      </trkpt>
      <trkpt lat="45.05109" lon="3.07845">
        <ele>817.979987</ele>
        <time>2021-07-09T09:32:26+0200</time>
      </trkpt>
      <trkpt lat="45.05105" lon="3.07854">
        <ele>817.030812</ele>
        <time>2021-07-09T09:32:27+0200</time>
      </trkpt>
      <trkpt lat="45.051" lon="3.07865">
        <ele>815.758786</ele>
        <time>2021-07-09T09:32:27+0200</time>
      </trkpt>
      <trkpt lat="45.05097" lon="3.07878">
        <ele>814.800465</ele>
        <time>2021-07-09T09:32:29+0200</time>
      </trkpt>
      <trkpt lat="45.05096" lon="3.07892">
        <ele>814.328995</ele>
        <time>2021-07-09T09:32:29+0200</time>
      </trkpt>
      <trkpt lat="45.05093" lon="3.07903">
        <ele>812.936203</ele>
        <time>2021-07-09T09:32:30+0200</time>
      </trkpt>
      <trkpt lat="45.05088" lon="3.07908">
        <ele>812.625748</ele>
        <time>2021-07-09T09:32:31+0200</time>
      </trkpt>
      <trkpt lat="45.05083" lon="3.07915">
        <ele>811.839695</ele>
        <time>2021-07-09T09:32:32+0200</time>
      </trkpt>
      <trkpt lat="45.05071" lon="3.07905">
        <ele>808.994193</ele>
        <time>2021-07-09T09:32:33+0200</time>
      </trkpt>
      <trkpt lat="45.05063" lon="3.07906">
        <ele>808.190661</ele>
        <time>2021-07-09T09:32:34+0200</time>
      </trkpt>
      <trkpt lat="45.05055" lon="3.07907">
        <ele>806.977272</ele>
        <time>2021-07-09T09:32:35+0200</time>
      </trkpt>
      <trkpt lat="45.05045" lon="3.07907">
        <ele>806.439945</ele>
        <time>2021-07-09T09:32:36+0200</time>
      </trkpt>
      <trkpt lat="45.05035" lon="3.07907">
        <ele>805.426425</ele>
        <time>2021-07-09T09:32:37+0200</time>
      </trkpt>
      <trkpt lat="45.05025" lon="3.07908">
        <ele>804.427562</ele>
        <time>2021-07-09T09:32:38+0200</time>
      </trkpt>
      <trkpt lat="45.05016" lon="3.0791">
        <ele>803.438828</ele>
        <time>2021-07-09T09:32:39+0200</time>
      </trkpt>
      <trkpt lat="45.05006" lon="3.07911">
        <ele>802.520589</ele>
        <time>2021-07-09T09:32:40+0200</time>
      </trkpt>
      <trkpt lat="45.04996" lon="3.07914">
        <ele>801.910482</ele>
        <time>2021-07-09T09:32:41+0200</time>
      </trkpt>
      <trkpt lat="45.04989" lon="3.07918">
        <ele>802.224741</ele>
        <time>2021-07-09T09:32:42+0200</time>
      </trkpt>
      <trkpt lat="45.04982" lon="3.07923">
        <ele>801.745256</ele>
        <time>2021-07-09T09:32:43+0200</time>
      </trkpt>
      <trkpt lat="45.04978" lon="3.07927">
        <ele>801.067778</ele>
        <time>2021-07-09T09:32:44+0200</time>
      </trkpt>
      <trkpt lat="45.04972" lon="3.07932">
        <ele>800.427475</ele>
        <time>2021-07-09T09:32:45+0200</time>
      </trkpt>
      <trkpt lat="45.04966" lon="3.07937">
        <ele>799.889893</ele>
        <time>2021-07-09T09:32:46+0200</time>
      </trkpt>
      <trkpt lat="45.04959" lon="3.07944">
        <ele>799.459361</ele>
        <time>2021-07-09T09:32:47+0200</time>
      </trkpt>
      <trkpt lat="45.04953" lon="3.07951">
        <ele>798.63744</ele>
        <time>2021-07-09T09:32:48+0200</time>
      </trkpt>
      <trkpt lat="45.04946" lon="3.07957">
        <ele>797.924547</ele>
        <time>2021-07-09T09:32:49+0200</time>
      </trkpt>
      <trkpt lat="45.04939" lon="3.07964">
        <ele>797.026401</ele>
        <time>2021-07-09T09:32:50+0200</time>
      </trkpt>
      <trkpt lat="45.04932" lon="3.07971">
        <ele>796.34727</ele>
        <time>2021-07-09T09:32:51+0200</time>
      </trkpt>
      <trkpt lat="45.04924" lon="3.0798">
        <ele>795.445175</ele>
        <time>2021-07-09T09:32:52+0200</time>
      </trkpt>
      <trkpt lat="45.04917" lon="3.07988">
        <ele>794.84894</ele>
        <time>2021-07-09T09:32:53+0200</time>
      </trkpt>
      <trkpt lat="45.0491" lon="3.07996">
        <ele>794.381043</ele>
        <time>2021-07-09T09:32:54+0200</time>
      </trkpt>
      <trkpt lat="45.04902" lon="3.08004">
        <ele>793.855177</ele>
        <time>2021-07-09T09:32:55+0200</time>
      </trkpt>
      <trkpt lat="45.04895" lon="3.08014">
        <ele>793.277761</ele>
        <time>2021-07-09T09:32:56+0200</time>
      </trkpt>
      <trkpt lat="45.04888" lon="3.08024">
        <ele>792.197948</ele>
        <time>2021-07-09T09:32:57+0200</time>
      </trkpt>
      <trkpt lat="45.04882" lon="3.08035">
        <ele>791.297619</ele>
        <time>2021-07-09T09:32:58+0200</time>
      </trkpt>
      <trkpt lat="45.04877" lon="3.08047">
        <ele>790.670647</ele>
        <time>2021-07-09T09:32:59+0200</time>
      </trkpt>
      <trkpt lat="45.04872" lon="3.08059">
        <ele>790.112959</ele>
        <time>2021-07-09T09:33:00+0200</time>
      </trkpt>
      <trkpt lat="45.04866" lon="3.08072">
        <ele>789.653191</ele>
        <time>2021-07-09T09:33:01+0200</time>
      </trkpt>
      <trkpt lat="45.04863" lon="3.08082">
        <ele>789.402759</ele>
        <time>2021-07-09T09:33:02+0200</time>
      </trkpt>
      <trkpt lat="45.04861" lon="3.08089">
        <ele>788.317028</ele>
        <time>2021-07-09T09:33:03+0200</time>
      </trkpt>
      <trkpt lat="45.0486" lon="3.08096">
        <ele>787.832869</ele>
        <time>2021-07-09T09:33:04+0200</time>
      </trkpt>
      <trkpt lat="45.04862" lon="3.08105">
        <ele>788.296677</ele>
        <time>2021-07-09T09:33:05+0200</time>
      </trkpt>
      <trkpt lat="45.04866" lon="3.08113">
        <ele>788.28391</ele>
        <time>2021-07-09T09:33:06+0200</time>
      </trkpt>
      <trkpt lat="45.04868" lon="3.08121">
        <ele>788.237113</ele>
        <time>2021-07-09T09:33:07+0200</time>
      </trkpt>
      <trkpt lat="45.04866" lon="3.08128">
        <ele>788.923914</ele>
        <time>2021-07-09T09:33:08+0200</time>
      </trkpt>
      <trkpt lat="45.04863" lon="3.08134">
        <ele>789.439722</ele>
        <time>2021-07-09T09:33:09+0200</time>
      </trkpt>
      <trkpt lat="45.04862" lon="3.0814">
        <ele>789.449921</ele>
        <time>2021-07-09T09:33:10+0200</time>
      </trkpt>
      <trkpt lat="45.04859" lon="3.0815">
        <ele>790.440445</ele>
        <time>2021-07-09T09:33:12+0200</time>
      </trkpt>
      <trkpt lat="45.04858" lon="3.08157">
        <ele>791.231956</ele>
        <time>2021-07-09T09:33:14+0200</time>
      </trkpt>
      <trkpt lat="45.04857" lon="3.08164">
        <ele>791.785937</ele>
        <time>2021-07-09T09:33:16+0200</time>
      </trkpt>
      <trkpt lat="45.04855" lon="3.08172">
        <ele>792.547836</ele>
        <time>2021-07-09T09:33:18+0200</time>
      </trkpt>
      <trkpt lat="45.04852" lon="3.08178">
        <ele>793.390783</ele>
        <time>2021-07-09T09:33:20+0200</time>
      </trkpt>
      <trkpt lat="45.0485" lon="3.08184">
        <ele>794.732074</ele>
        <time>2021-07-09T09:33:22+0200</time>
      </trkpt>
      <trkpt lat="45.04847" lon="3.0819">
        <ele>794.768224</ele>
        <time>2021-07-09T09:33:24+0200</time>
      </trkpt>
      <trkpt lat="45.04843" lon="3.08196">
        <ele>795.201564</ele>
        <time>2021-07-09T09:33:26+0200</time>
      </trkpt>
      <trkpt lat="45.0484" lon="3.08203">
        <ele>794.807333</ele>
        <time>2021-07-09T09:33:28+0200</time>
      </trkpt>
      <trkpt lat="45.04837" lon="3.08209">
        <ele>794.708448</ele>
        <time>2021-07-09T09:33:30+0200</time>
      </trkpt>
      <trkpt lat="45.04834" lon="3.08214">
        <ele>794.03404</ele>
        <time>2021-07-09T09:33:33+0200</time>
      </trkpt>
      <trkpt lat="45.04831" lon="3.0822">
        <ele>794.108599</ele>
        <time>2021-07-09T09:33:35+0200</time>
      </trkpt>
      <trkpt lat="45.04826" lon="3.08227">
        <ele>794.012736</ele>
        <time>2021-07-09T09:33:37+0200</time>
      </trkpt>
      <trkpt lat="45.04822" lon="3.08236">
        <ele>793.754814</ele>
        <time>2021-07-09T09:33:38+0200</time>
      </trkpt>
      <trkpt lat="45.04819" lon="3.08241">
        <ele>792.702902</ele>
        <time>2021-07-09T09:33:39+0200</time>
      </trkpt>
      <trkpt lat="45.04815" lon="3.0825">
        <ele>792.151432</ele>
        <time>2021-07-09T09:33:41+0200</time>
      </trkpt>
      <trkpt lat="45.04811" lon="3.0826">
        <ele>791.809752</ele>
        <time>2021-07-09T09:33:43+0200</time>
      </trkpt>
      <trkpt lat="45.04808" lon="3.0827">
        <ele>791.647865</ele>
        <time>2021-07-09T09:33:45+0200</time>
      </trkpt>
      <trkpt lat="45.04805" lon="3.08279">
        <ele>791.409791</ele>
        <time>2021-07-09T09:33:47+0200</time>
      </trkpt>
      <trkpt lat="45.04804" lon="3.08289">
        <ele>791.54928</ele>
        <time>2021-07-09T09:33:50+0200</time>
      </trkpt>
      <trkpt lat="45.04803" lon="3.08299">
        <ele>791.811042</ele>
        <time>2021-07-09T09:33:52+0200</time>
      </trkpt>
      <trkpt lat="45.04801" lon="3.08308">
        <ele>792.589699</ele>
        <time>2021-07-09T09:33:54+0200</time>
      </trkpt>
      <trkpt lat="45.04802" lon="3.08318">
        <ele>793.315792</ele>
        <time>2021-07-09T09:33:56+0200</time>
      </trkpt>
      <trkpt lat="45.048" lon="3.08328">
        <ele>793.828812</ele>
        <time>2021-07-09T09:33:58+0200</time>
      </trkpt>
      <trkpt lat="45.04799" lon="3.08338">
        <ele>794.647153</ele>
        <time>2021-07-09T09:34:00+0200</time>
      </trkpt>
      <trkpt lat="45.04798" lon="3.08346">
        <ele>796.145425</ele>
        <time>2021-07-09T09:34:02+0200</time>
      </trkpt>
      <trkpt lat="45.04797" lon="3.08356">
        <ele>796.428388</ele>
        <time>2021-07-09T09:34:04+0200</time>
      </trkpt>
      <trkpt lat="45.04795" lon="3.08364">
        <ele>797.019755</ele>
        <time>2021-07-09T09:34:06+0200</time>
      </trkpt>
      <trkpt lat="45.04792" lon="3.08373">
        <ele>797.925919</ele>
        <time>2021-07-09T09:34:08+0200</time>
      </trkpt>
      <trkpt lat="45.0479" lon="3.08382">
        <ele>799.055989</ele>
        <time>2021-07-09T09:34:10+0200</time>
      </trkpt>
      <trkpt lat="45.04787" lon="3.0839">
        <ele>800.058453</ele>
        <time>2021-07-09T09:34:12+0200</time>
      </trkpt>
      <trkpt lat="45.04784" lon="3.08398">
        <ele>800.984987</ele>
        <time>2021-07-09T09:34:14+0200</time>
      </trkpt>
      <trkpt lat="45.0478" lon="3.08406">
        <ele>801.227702</ele>
        <time>2021-07-09T09:34:16+0200</time>
      </trkpt>
      <trkpt lat="45.04775" lon="3.08413">
        <ele>801.519097</ele>
        <time>2021-07-09T09:34:18+0200</time>
      </trkpt>
      <trkpt lat="45.04771" lon="3.0842">
        <ele>801.789032</ele>
        <time>2021-07-09T09:34:20+0200</time>
      </trkpt>
      <trkpt lat="45.04766" lon="3.08425">
        <ele>802.197454</ele>
        <time>2021-07-09T09:34:22+0200</time>
      </trkpt>
      <trkpt lat="45.04762" lon="3.08431">
        <ele>802.718313</ele>
        <time>2021-07-09T09:34:24+0200</time>
      </trkpt>
      <trkpt lat="45.04757" lon="3.08435">
        <ele>802.680404</ele>
        <time>2021-07-09T09:34:26+0200</time>
      </trkpt>
      <trkpt lat="45.04752" lon="3.08439">
        <ele>803.038151</ele>
        <time>2021-07-09T09:34:28+0200</time>
      </trkpt>
      <trkpt lat="45.04747" lon="3.08443">
        <ele>802.728913</ele>
        <time>2021-07-09T09:34:30+0200</time>
      </trkpt>
      <trkpt lat="45.04743" lon="3.08447">
        <ele>802.840447</ele>
        <time>2021-07-09T09:34:32+0200</time>
      </trkpt>
      <trkpt lat="45.04738" lon="3.08452">
        <ele>802.034026</ele>
        <time>2021-07-09T09:34:34+0200</time>
      </trkpt>
      <trkpt lat="45.04732" lon="3.08457">
        <ele>800.899241</ele>
        <time>2021-07-09T09:34:36+0200</time>
      </trkpt>
      <trkpt lat="45.04727" lon="3.08462">
        <ele>800.740104</ele>
        <time>2021-07-09T09:34:38+0200</time>
      </trkpt>
      <trkpt lat="45.04722" lon="3.08466">
        <ele>800.791857</ele>
        <time>2021-07-09T09:34:40+0200</time>
      </trkpt>
      <trkpt lat="45.04717" lon="3.0847">
        <ele>801.116354</ele>
        <time>2021-07-09T09:34:42+0200</time>
      </trkpt>
      <trkpt lat="45.04711" lon="3.08474">
        <ele>801.229245</ele>
        <time>2021-07-09T09:34:44+0200</time>
      </trkpt>
      <trkpt lat="45.04705" lon="3.08476">
        <ele>801.05485</ele>
        <time>2021-07-09T09:34:46+0200</time>
      </trkpt>
      <trkpt lat="45.04699" lon="3.08481">
        <ele>801.409445</ele>
        <time>2021-07-09T09:34:48+0200</time>
      </trkpt>
      <trkpt lat="45.04694" lon="3.08483">
        <ele>801.460291</ele>
        <time>2021-07-09T09:34:50+0200</time>
      </trkpt>
      <trkpt lat="45.04688" lon="3.08485">
        <ele>801.796446</ele>
        <time>2021-07-09T09:34:52+0200</time>
      </trkpt>
      <trkpt lat="45.04682" lon="3.08487">
        <ele>802.860756</ele>
        <time>2021-07-09T09:34:54+0200</time>
      </trkpt>
      <trkpt lat="45.04676" lon="3.0849">
        <ele>802.860049</ele>
        <time>2021-07-09T09:34:56+0200</time>
      </trkpt>
      <trkpt lat="45.0467" lon="3.08491">
        <ele>803.241794</ele>
        <time>2021-07-09T09:34:58+0200</time>
      </trkpt>
      <trkpt lat="45.04664" lon="3.08492">
        <ele>802.62037</ele>
        <time>2021-07-09T09:35:00+0200</time>
      </trkpt>
      <trkpt lat="45.04658" lon="3.08493">
        <ele>802.218716</ele>
        <time>2021-07-09T09:35:02+0200</time>
      </trkpt>
      <trkpt lat="45.04653" lon="3.08495">
        <ele>802.366793</ele>
        <time>2021-07-09T09:35:04+0200</time>
      </trkpt>
      <trkpt lat="45.04647" lon="3.08496">
        <ele>802.148725</ele>
        <time>2021-07-09T09:35:06+0200</time>
      </trkpt>
      <trkpt lat="45.0464" lon="3.08497">
        <ele>801.853047</ele>
        <time>2021-07-09T09:35:08+0200</time>
      </trkpt>
      <trkpt lat="45.04633" lon="3.08498">
        <ele>802.002705</ele>
        <time>2021-07-09T09:35:10+0200</time>
      </trkpt>
      <trkpt lat="45.04628" lon="3.08498">
        <ele>803.589526</ele>
        <time>2021-07-09T09:35:12+0200</time>
      </trkpt>
      <trkpt lat="45.04622" lon="3.08498">
        <ele>803.993758</ele>
        <time>2021-07-09T09:35:14+0200</time>
      </trkpt>
      <trkpt lat="45.04616" lon="3.08499">
        <ele>804.509276</ele>
        <time>2021-07-09T09:35:16+0200</time>
      </trkpt>
      <trkpt lat="45.0461" lon="3.08499">
        <ele>804.806615</ele>
        <time>2021-07-09T09:35:18+0200</time>
      </trkpt>
      <trkpt lat="45.04605" lon="3.08499">
        <ele>806.058568</ele>
        <time>2021-07-09T09:35:20+0200</time>
      </trkpt>
      <trkpt lat="45.04598" lon="3.085">
        <ele>806.694935</ele>
        <time>2021-07-09T09:35:22+0200</time>
      </trkpt>
      <trkpt lat="45.04593" lon="3.08499">
        <ele>807.899567</ele>
        <time>2021-07-09T09:35:24+0200</time>
      </trkpt>
      <trkpt lat="45.04585" lon="3.08499">
        <ele>807.504153</ele>
        <time>2021-07-09T09:35:26+0200</time>
      </trkpt>
      <trkpt lat="45.04579" lon="3.08499">
        <ele>807.743659</ele>
        <time>2021-07-09T09:35:28+0200</time>
      </trkpt>
      <trkpt lat="45.04572" lon="3.08498">
        <ele>807.915724</ele>
        <time>2021-07-09T09:35:30+0200</time>
      </trkpt>
      <trkpt lat="45.04567" lon="3.08496">
        <ele>808.552805</ele>
        <time>2021-07-09T09:35:32+0200</time>
      </trkpt>
      <trkpt lat="45.04562" lon="3.08494">
        <ele>809.067817</ele>
        <time>2021-07-09T09:35:34+0200</time>
      </trkpt>
      <trkpt lat="45.04556" lon="3.08491">
        <ele>808.91676</ele>
        <time>2021-07-09T09:35:37+0200</time>
      </trkpt>
      <trkpt lat="45.04551" lon="3.08489">
        <ele>809.439847</ele>
        <time>2021-07-09T09:35:39+0200</time>
      </trkpt>
      <trkpt lat="45.04546" lon="3.08485">
        <ele>809.760414</ele>
        <time>2021-07-09T09:35:41+0200</time>
      </trkpt>
      <trkpt lat="45.04542" lon="3.08482">
        <ele>810.597788</ele>
        <time>2021-07-09T09:35:43+0200</time>
      </trkpt>
      <trkpt lat="45.04537" lon="3.08478">
        <ele>810.957852</ele>
        <time>2021-07-09T09:35:45+0200</time>
      </trkpt>
      <trkpt lat="45.04532" lon="3.08475">
        <ele>810.839838</ele>
        <time>2021-07-09T09:35:47+0200</time>
      </trkpt>
      <trkpt lat="45.04528" lon="3.08473">
        <ele>811.660741</ele>
        <time>2021-07-09T09:35:49+0200</time>
      </trkpt>
      <trkpt lat="45.04523" lon="3.08469">
        <ele>812.576805</ele>
        <time>2021-07-09T09:35:51+0200</time>
      </trkpt>
      <trkpt lat="45.04519" lon="3.08465">
        <ele>813.283672</ele>
        <time>2021-07-09T09:35:53+0200</time>
      </trkpt>
      <trkpt lat="45.04514" lon="3.08462">
        <ele>813.477521</ele>
        <time>2021-07-09T09:35:55+0200</time>
      </trkpt>
      <trkpt lat="45.04509" lon="3.08459">
        <ele>813.638688</ele>
        <time>2021-07-09T09:35:57+0200</time>
      </trkpt>
      <trkpt lat="45.04504" lon="3.08456">
        <ele>813.771183</ele>
        <time>2021-07-09T09:35:59+0200</time>
      </trkpt>
      <trkpt lat="45.04499" lon="3.08453">
        <ele>813.96307</ele>
        <time>2021-07-09T09:36:01+0200</time>
      </trkpt>
      <trkpt lat="45.04495" lon="3.08448">
        <ele>814.079178</ele>
        <time>2021-07-09T09:36:03+0200</time>
      </trkpt>
      <trkpt lat="45.04491" lon="3.08444">
        <ele>814.997035</ele>
        <time>2021-07-09T09:36:05+0200</time>
      </trkpt>
      <trkpt lat="45.04486" lon="3.08442">
        <ele>814.481429</ele>
        <time>2021-07-09T09:36:07+0200</time>
      </trkpt>
      <trkpt lat="45.04481" lon="3.08437">
        <ele>814.369883</ele>
        <time>2021-07-09T09:36:09+0200</time>
      </trkpt>
      <trkpt lat="45.04478" lon="3.08432">
        <ele>815.044762</ele>
        <time>2021-07-09T09:36:11+0200</time>
      </trkpt>
      <trkpt lat="45.04474" lon="3.08427">
        <ele>815.392668</ele>
        <time>2021-07-09T09:36:13+0200</time>
      </trkpt>
      <trkpt lat="45.04469" lon="3.08423">
        <ele>815.297566</ele>
        <time>2021-07-09T09:36:15+0200</time>
      </trkpt>
      <trkpt lat="45.04464" lon="3.0842">
        <ele>815.038883</ele>
        <time>2021-07-09T09:36:17+0200</time>
      </trkpt>
      <trkpt lat="45.0446" lon="3.08419">
        <ele>815.946852</ele>
        <time>2021-07-09T09:36:19+0200</time>
      </trkpt>
      <trkpt lat="45.04455" lon="3.08417">
        <ele>816.394505</ele>
        <time>2021-07-09T09:36:22+0200</time>
      </trkpt>
      <trkpt lat="45.04451" lon="3.08414">
        <ele>816.554928</ele>
        <time>2021-07-09T09:36:25+0200</time>
      </trkpt>
      <trkpt lat="45.04444" lon="3.08413">
        <ele>817.161961</ele>
        <time>2021-07-09T09:36:28+0200</time>
      </trkpt>
      <trkpt lat="45.04439" lon="3.08414">
        <ele>817.226415</ele>
        <time>2021-07-09T09:36:30+0200</time>
      </trkpt>
      <trkpt lat="45.04435" lon="3.08411">
        <ele>816.953459</ele>
        <time>2021-07-09T09:36:31+0200</time>
      </trkpt>
      <trkpt lat="45.0443" lon="3.08407">
        <ele>815.749071</ele>
        <time>2021-07-09T09:36:34+0200</time>
      </trkpt>
      <trkpt lat="45.04426" lon="3.08405">
        <ele>814.990389</ele>
        <time>2021-07-09T09:36:37+0200</time>
      </trkpt>
      <trkpt lat="45.04421" lon="3.084">
        <ele>813.915379</ele>
        <time>2021-07-09T09:36:40+0200</time>
      </trkpt>
      <trkpt lat="45.04415" lon="3.08397">
        <ele>813.933915</ele>
        <time>2021-07-09T09:36:43+0200</time>
      </trkpt>
      <trkpt lat="45.04412" lon="3.08394">
        <ele>814.138505</ele>
        <time>2021-07-09T09:36:45+0200</time>
      </trkpt>
      <trkpt lat="45.04406" lon="3.08391">
        <ele>813.586184</ele>
        <time>2021-07-09T09:36:48+0200</time>
      </trkpt>
      <trkpt lat="45.04402" lon="3.08387">
        <ele>809.977038</ele>
        <time>2021-07-09T09:37:56+0200</time>
      </trkpt>
      <trkpt lat="45.04397" lon="3.08384">
        <ele>810.090755</ele>
        <time>2021-07-09T09:37:59+0200</time>
      </trkpt>
      <trkpt lat="45.04392" lon="3.08382">
        <ele>810.884145</ele>
        <time>2021-07-09T09:38:01+0200</time>
      </trkpt>
      <trkpt lat="45.04386" lon="3.08379">
        <ele>811.50457</ele>
        <time>2021-07-09T09:38:03+0200</time>
      </trkpt>
      <trkpt lat="45.04381" lon="3.08377">
        <ele>812.511223</ele>
        <time>2021-07-09T09:38:05+0200</time>
      </trkpt>
      <trkpt lat="45.04375" lon="3.08374">
        <ele>812.803747</ele>
        <time>2021-07-09T09:38:07+0200</time>
      </trkpt>
      <trkpt lat="45.04369" lon="3.08371">
        <ele>812.725937</ele>
        <time>2021-07-09T09:38:09+0200</time>
      </trkpt>
      <trkpt lat="45.04365" lon="3.08367">
        <ele>812.865331</ele>
        <time>2021-07-09T09:38:10+0200</time>
      </trkpt>
      <trkpt lat="45.0436" lon="3.08364">
        <ele>812.93294</ele>
        <time>2021-07-09T09:38:12+0200</time>
      </trkpt>
      <trkpt lat="45.04354" lon="3.08359">
        <ele>813.638149</ele>
        <time>2021-07-09T09:38:15+0200</time>
      </trkpt>
      <trkpt lat="45.04349" lon="3.08356">
        <ele>814.236357</ele>
        <time>2021-07-09T09:38:17+0200</time>
      </trkpt>
      <trkpt lat="45.04344" lon="3.08353">
        <ele>816.503287</ele>
        <time>2021-07-09T09:38:19+0200</time>
      </trkpt>
      <trkpt lat="45.04338" lon="3.08349">
        <ele>817.753442</ele>
        <time>2021-07-09T09:38:22+0200</time>
      </trkpt>
      <trkpt lat="45.04334" lon="3.08346">
        <ele>818.69948</ele>
        <time>2021-07-09T09:38:24+0200</time>
      </trkpt>
      <trkpt lat="45.0433" lon="3.08342">
        <ele>819.980712</ele>
        <time>2021-07-09T09:38:26+0200</time>
      </trkpt>
      <trkpt lat="45.04326" lon="3.08338">
        <ele>820.776982</ele>
        <time>2021-07-09T09:38:28+0200</time>
      </trkpt>
      <trkpt lat="45.04322" lon="3.08334">
        <ele>821.80412</ele>
        <time>2021-07-09T09:38:30+0200</time>
      </trkpt>
      <trkpt lat="45.04319" lon="3.08328">
        <ele>821.883682</ele>
        <time>2021-07-09T09:38:32+0200</time>
      </trkpt>
      <trkpt lat="45.04316" lon="3.08323">
        <ele>822.366771</ele>
        <time>2021-07-09T09:38:34+0200</time>
      </trkpt>
      <trkpt lat="45.04312" lon="3.08318">
        <ele>822.471112</ele>
        <time>2021-07-09T09:38:36+0200</time>
      </trkpt>
      <trkpt lat="45.04308" lon="3.08313">
        <ele>822.629182</ele>
        <time>2021-07-09T09:38:38+0200</time>
      </trkpt>
      <trkpt lat="45.04304" lon="3.08308">
        <ele>822.674162</ele>
        <time>2021-07-09T09:38:40+0200</time>
      </trkpt>
      <trkpt lat="45.04302" lon="3.08302">
        <ele>822.475941</ele>
        <time>2021-07-09T09:38:42+0200</time>
      </trkpt>
      <trkpt lat="45.04299" lon="3.08296">
        <ele>822.425148</ele>
        <time>2021-07-09T09:38:44+0200</time>
      </trkpt>
      <trkpt lat="45.04298" lon="3.08289">
        <ele>822.390407</ele>
        <time>2021-07-09T09:38:46+0200</time>
      </trkpt>
      <trkpt lat="45.04294" lon="3.08283">
        <ele>822.387712</ele>
        <time>2021-07-09T09:38:48+0200</time>
      </trkpt>
      <trkpt lat="45.04291" lon="3.08277">
        <ele>824.171454</ele>
        <time>2021-07-09T09:38:50+0200</time>
      </trkpt>
      <trkpt lat="45.04286" lon="3.08271">
        <ele>824.948405</ele>
        <time>2021-07-09T09:38:52+0200</time>
      </trkpt>
      <trkpt lat="45.04283" lon="3.08266">
        <ele>825.744194</ele>
        <time>2021-07-09T09:38:54+0200</time>
      </trkpt>
      <trkpt lat="45.0428" lon="3.0826">
        <ele>826.221908</ele>
        <time>2021-07-09T09:38:56+0200</time>
      </trkpt>
      <trkpt lat="45.04277" lon="3.08255">
        <ele>826.462257</ele>
        <time>2021-07-09T09:38:58+0200</time>
      </trkpt>
      <trkpt lat="45.04273" lon="3.0825">
        <ele>826.808746</ele>
        <time>2021-07-09T09:39:00+0200</time>
      </trkpt>
      <trkpt lat="45.04268" lon="3.08244">
        <ele>826.326731</ele>
        <time>2021-07-09T09:39:03+0200</time>
      </trkpt>
      <trkpt lat="45.04264" lon="3.08239">
        <ele>825.491966</ele>
        <time>2021-07-09T09:39:05+0200</time>
      </trkpt>
      <trkpt lat="45.0426" lon="3.08233">
        <ele>825.375695</ele>
        <time>2021-07-09T09:39:07+0200</time>
      </trkpt>
      <trkpt lat="45.04256" lon="3.08228">
        <ele>825.493496</ele>
        <time>2021-07-09T09:39:09+0200</time>
      </trkpt>
      <trkpt lat="45.04251" lon="3.08224">
        <ele>825.193417</ele>
        <time>2021-07-09T09:39:11+0200</time>
      </trkpt>
      <trkpt lat="45.04247" lon="3.0822">
        <ele>824.861681</ele>
        <time>2021-07-09T09:39:13+0200</time>
      </trkpt>
      <trkpt lat="45.04242" lon="3.08215">
        <ele>824.849176</ele>
        <time>2021-07-09T09:39:15+0200</time>
      </trkpt>
      <trkpt lat="45.04237" lon="3.08212">
        <ele>826.10707</ele>
        <time>2021-07-09T09:39:17+0200</time>
      </trkpt>
      <trkpt lat="45.04233" lon="3.08207">
        <ele>826.272689</ele>
        <time>2021-07-09T09:39:19+0200</time>
      </trkpt>
      <trkpt lat="45.04228" lon="3.08203">
        <ele>826.649048</ele>
        <time>2021-07-09T09:39:21+0200</time>
      </trkpt>
      <trkpt lat="45.04224" lon="3.08199">
        <ele>827.323252</ele>
        <time>2021-07-09T09:39:23+0200</time>
      </trkpt>
      <trkpt lat="45.0422" lon="3.08194">
        <ele>827.96654</ele>
        <time>2021-07-09T09:39:25+0200</time>
      </trkpt>
      <trkpt lat="45.04216" lon="3.0819">
        <ele>828.114949</ele>
        <time>2021-07-09T09:39:27+0200</time>
      </trkpt>
      <trkpt lat="45.04211" lon="3.08185">
        <ele>828.103982</ele>
        <time>2021-07-09T09:39:29+0200</time>
      </trkpt>
      <trkpt lat="45.04207" lon="3.08181">
        <ele>828.439589</ele>
        <time>2021-07-09T09:39:31+0200</time>
      </trkpt>
      <trkpt lat="45.04203" lon="3.08177">
        <ele>828.336919</ele>
        <time>2021-07-09T09:39:33+0200</time>
      </trkpt>
      <trkpt lat="45.04199" lon="3.08173">
        <ele>829.297211</ele>
        <time>2021-07-09T09:39:35+0200</time>
      </trkpt>
      <trkpt lat="45.04195" lon="3.08167">
        <ele>828.704174</ele>
        <time>2021-07-09T09:39:37+0200</time>
      </trkpt>
      <trkpt lat="45.0419" lon="3.08163">
        <ele>828.794164</ele>
        <time>2021-07-09T09:39:39+0200</time>
      </trkpt>
      <trkpt lat="45.04185" lon="3.08158">
        <ele>828.64839</ele>
        <time>2021-07-09T09:39:41+0200</time>
      </trkpt>
      <trkpt lat="45.0418" lon="3.08152">
        <ele>828.374484</ele>
        <time>2021-07-09T09:39:43+0200</time>
      </trkpt>
      <trkpt lat="45.04176" lon="3.08148">
        <ele>828.769352</ele>
        <time>2021-07-09T09:39:45+0200</time>
      </trkpt>
      <trkpt lat="45.04172" lon="3.08144">
        <ele>828.560696</ele>
        <time>2021-07-09T09:39:47+0200</time>
      </trkpt>
      <trkpt lat="45.04169" lon="3.08138">
        <ele>828.580328</ele>
        <time>2021-07-09T09:39:50+0200</time>
      </trkpt>
      <trkpt lat="45.04165" lon="3.08134">
        <ele>828.715969</ele>
        <time>2021-07-09T09:39:52+0200</time>
      </trkpt>
      <trkpt lat="45.0416" lon="3.0813">
        <ele>828.544461</ele>
        <time>2021-07-09T09:39:54+0200</time>
      </trkpt>
      <trkpt lat="45.04155" lon="3.08125">
        <ele>828.256438</ele>
        <time>2021-07-09T09:39:56+0200</time>
      </trkpt>
      <trkpt lat="45.0415" lon="3.08118">
        <ele>829.046085</ele>
        <time>2021-07-09T09:39:59+0200</time>
      </trkpt>
      <trkpt lat="45.04146" lon="3.08115">
        <ele>829.958806</ele>
        <time>2021-07-09T09:40:00+0200</time>
      </trkpt>
      <trkpt lat="45.04141" lon="3.08113">
        <ele>830.327006</ele>
        <time>2021-07-09T09:40:02+0200</time>
      </trkpt>
      <trkpt lat="45.04136" lon="3.08112">
        <ele>830.370173</ele>
        <time>2021-07-09T09:40:04+0200</time>
      </trkpt>
      <trkpt lat="45.04129" lon="3.08112">
        <ele>829.700393</ele>
        <time>2021-07-09T09:40:06+0200</time>
      </trkpt>
      <trkpt lat="45.04124" lon="3.08109">
        <ele>830.5458</ele>
        <time>2021-07-09T09:40:08+0200</time>
      </trkpt>
      <trkpt lat="45.04122" lon="3.08102">
        <ele>831.927203</ele>
        <time>2021-07-09T09:40:10+0200</time>
      </trkpt>
      <trkpt lat="45.04119" lon="3.08096">
        <ele>832.743612</ele>
        <time>2021-07-09T09:40:12+0200</time>
      </trkpt>
      <trkpt lat="45.04116" lon="3.08088">
        <ele>833.808885</ele>
        <time>2021-07-09T09:40:14+0200</time>
      </trkpt>
      <trkpt lat="45.04112" lon="3.08081">
        <ele>834.644799</ele>
        <time>2021-07-09T09:40:17+0200</time>
      </trkpt>
      <trkpt lat="45.04109" lon="3.08076">
        <ele>836.001053</ele>
        <time>2021-07-09T09:40:19+0200</time>
      </trkpt>
      <trkpt lat="45.04105" lon="3.08069">
        <ele>837.698325</ele>
        <time>2021-07-09T09:40:22+0200</time>
      </trkpt>
      <trkpt lat="45.04101" lon="3.08064">
        <ele>838.17217</ele>
        <time>2021-07-09T09:40:24+0200</time>
      </trkpt>
      <trkpt lat="45.04098" lon="3.08059">
        <ele>839.387976</ele>
        <time>2021-07-09T09:40:26+0200</time>
      </trkpt>
      <trkpt lat="45.04095" lon="3.08052">
        <ele>841.643243</ele>
        <time>2021-07-09T09:40:29+0200</time>
      </trkpt>
      <trkpt lat="45.04092" lon="3.08047">
        <ele>843.828022</ele>
        <time>2021-07-09T09:40:31+0200</time>
      </trkpt>
      <trkpt lat="45.04089" lon="3.08039">
        <ele>844.46907</ele>
        <time>2021-07-09T09:40:34+0200</time>
      </trkpt>
      <trkpt lat="45.04087" lon="3.08033">
        <ele>844.002739</ele>
        <time>2021-07-09T09:40:36+0200</time>
      </trkpt>
      <trkpt lat="45.04086" lon="3.08027">
        <ele>843.789366</ele>
        <time>2021-07-09T09:40:38+0200</time>
      </trkpt>
      <trkpt lat="45.04084" lon="3.08018">
        <ele>845.731465</ele>
        <time>2021-07-09T09:40:41+0200</time>
      </trkpt>
      <trkpt lat="45.04081" lon="3.0801">
        <ele>846.335393</ele>
        <time>2021-07-09T09:40:44+0200</time>
      </trkpt>
      <trkpt lat="45.04079" lon="3.08004">
        <ele>847.126106</ele>
        <time>2021-07-09T09:40:46+0200</time>
      </trkpt>
      <trkpt lat="45.04076" lon="3.07997">
        <ele>846.934821</ele>
        <time>2021-07-09T09:40:49+0200</time>
      </trkpt>
      <trkpt lat="45.04073" lon="3.07993">
        <ele>847.691585</ele>
        <time>2021-07-09T09:40:51+0200</time>
      </trkpt>
      <trkpt lat="45.04069" lon="3.07989">
        <ele>848.627562</ele>
        <time>2021-07-09T09:40:53+0200</time>
      </trkpt>
      <trkpt lat="45.04065" lon="3.07983">
        <ele>847.857714</ele>
        <time>2021-07-09T09:40:55+0200</time>
      </trkpt>
      <trkpt lat="45.04061" lon="3.07979">
        <ele>848.657254</ele>
        <time>2021-07-09T09:40:57+0200</time>
      </trkpt>
      <trkpt lat="45.04058" lon="3.07975">
        <ele>850.502049</ele>
        <time>2021-07-09T09:40:59+0200</time>
      </trkpt>
      <trkpt lat="45.04054" lon="3.07968">
        <ele>851.527796</ele>
        <time>2021-07-09T09:41:02+0200</time>
      </trkpt>
      <trkpt lat="45.0405" lon="3.07965">
        <ele>851.910619</ele>
        <time>2021-07-09T09:41:04+0200</time>
      </trkpt>
      <trkpt lat="45.04046" lon="3.0796">
        <ele>853.679506</ele>
        <time>2021-07-09T09:41:07+0200</time>
      </trkpt>
      <trkpt lat="45.04042" lon="3.07955">
        <ele>853.475524</ele>
        <time>2021-07-09T09:41:09+0200</time>
      </trkpt>
      <trkpt lat="45.04036" lon="3.07949">
        <ele>853.950222</ele>
        <time>2021-07-09T09:41:12+0200</time>
      </trkpt>
      <trkpt lat="45.04033" lon="3.07945">
        <ele>855.68227</ele>
        <time>2021-07-09T09:41:14+0200</time>
      </trkpt>
      <trkpt lat="45.0403" lon="3.0794">
        <ele>856.252219</ele>
        <time>2021-07-09T09:41:16+0200</time>
      </trkpt>
      <trkpt lat="45.04026" lon="3.07935">
        <ele>855.929625</ele>
        <time>2021-07-09T09:41:18+0200</time>
      </trkpt>
      <trkpt lat="45.04021" lon="3.07932">
        <ele>855.364681</ele>
        <time>2021-07-09T09:41:20+0200</time>
      </trkpt>
      <trkpt lat="45.04018" lon="3.07927">
        <ele>855.947674</ele>
        <time>2021-07-09T09:41:22+0200</time>
      </trkpt>
      <trkpt lat="45.04015" lon="3.07922">
        <ele>856.330015</ele>
        <time>2021-07-09T09:41:24+0200</time>
      </trkpt>
      <trkpt lat="45.04011" lon="3.07918">
        <ele>856.04402</ele>
        <time>2021-07-09T09:41:26+0200</time>
      </trkpt>
      <trkpt lat="45.04008" lon="3.07912">
        <ele>858.447121</ele>
        <time>2021-07-09T09:41:29+0200</time>
      </trkpt>
      <trkpt lat="45.04004" lon="3.07908">
        <ele>857.90542</ele>
        <time>2021-07-09T09:41:31+0200</time>
      </trkpt>
      <trkpt lat="45.04" lon="3.07904">
        <ele>857.635393</ele>
        <time>2021-07-09T09:41:33+0200</time>
      </trkpt>
      <trkpt lat="45.03995" lon="3.07898">
        <ele>857.865601</ele>
        <time>2021-07-09T09:41:36+0200</time>
      </trkpt>
      <trkpt lat="45.03992" lon="3.07892">
        <ele>857.492216</ele>
        <time>2021-07-09T09:41:38+0200</time>
      </trkpt>
      <trkpt lat="45.03989" lon="3.07886">
        <ele>854.907148</ele>
        <time>2021-07-09T09:41:40+0200</time>
      </trkpt>
      <trkpt lat="45.03984" lon="3.07879">
        <ele>855.6961</ele>
        <time>2021-07-09T09:41:43+0200</time>
      </trkpt>
      <trkpt lat="45.03981" lon="3.07875">
        <ele>855.808099</ele>
        <time>2021-07-09T09:41:45+0200</time>
      </trkpt>
      <trkpt lat="45.03978" lon="3.07866">
        <ele>856.672026</ele>
        <time>2021-07-09T09:41:48+0200</time>
      </trkpt>
      <trkpt lat="45.03976" lon="3.07859">
        <ele>857.664331</ele>
        <time>2021-07-09T09:41:50+0200</time>
      </trkpt>
      <trkpt lat="45.03976" lon="3.07852">
        <ele>859.298685</ele>
        <time>2021-07-09T09:41:52+0200</time>
      </trkpt>
      <trkpt lat="45.03976" lon="3.07842">
        <ele>861.16714</ele>
        <time>2021-07-09T09:41:56+0200</time>
      </trkpt>
      <trkpt lat="45.03977" lon="3.07833">
        <ele>858.943502</ele>
        <time>2021-07-09T09:41:59+0200</time>
      </trkpt>
      <trkpt lat="45.03978" lon="3.07826">
        <ele>859.471756</ele>
        <time>2021-07-09T09:42:01+0200</time>
      </trkpt>
      <trkpt lat="45.03981" lon="3.07819">
        <ele>859.063264</ele>
        <time>2021-07-09T09:42:03+0200</time>
      </trkpt>
      <trkpt lat="45.03981" lon="3.07812">
        <ele>860.28772</ele>
        <time>2021-07-09T09:42:05+0200</time>
      </trkpt>
      <trkpt lat="45.0398" lon="3.07803">
        <ele>862.379731</ele>
        <time>2021-07-09T09:42:08+0200</time>
      </trkpt>
      <trkpt lat="45.03979" lon="3.07796">
        <ele>861.792973</ele>
        <time>2021-07-09T09:42:11+0200</time>
      </trkpt>
      <trkpt lat="45.03976" lon="3.0779">
        <ele>861.968549</ele>
        <time>2021-07-09T09:42:14+0200</time>
      </trkpt>
      <trkpt lat="45.03972" lon="3.07783">
        <ele>862.04996</ele>
        <time>2021-07-09T09:42:17+0200</time>
      </trkpt>
      <trkpt lat="45.03969" lon="3.07776">
        <ele>860.126446</ele>
        <time>2021-07-09T09:42:19+0200</time>
      </trkpt>
      <trkpt lat="45.03965" lon="3.07767">
        <ele>860.823622</ele>
        <time>2021-07-09T09:42:22+0200</time>
      </trkpt>
      <trkpt lat="45.03962" lon="3.0776">
        <ele>861.749414</ele>
        <time>2021-07-09T09:42:25+0200</time>
      </trkpt>
      <trkpt lat="45.03965" lon="3.07754">
        <ele>862.581959</ele>
        <time>2021-07-09T09:42:28+0200</time>
      </trkpt>
      <trkpt lat="45.03966" lon="3.07748">
        <ele>863.709006</ele>
        <time>2021-07-09T09:42:34+0200</time>
      </trkpt>
      <trkpt lat="45.03965" lon="3.07741">
        <ele>859.702824</ele>
        <time>2021-07-09T09:42:58+0200</time>
      </trkpt>
      <trkpt lat="45.03961" lon="3.07738">
        <ele>867.097732</ele>
        <time>2021-07-09T09:43:26+0200</time>
      </trkpt>
      <trkpt lat="45.03956" lon="3.07742">
        <ele>866.049331</ele>
        <time>2021-07-09T09:43:28+0200</time>
      </trkpt>
      <trkpt lat="45.03951" lon="3.07744">
        <ele>864.743411</ele>
        <time>2021-07-09T09:43:31+0200</time>
      </trkpt>
      <trkpt lat="45.03947" lon="3.07748">
        <ele>863.941427</ele>
        <time>2021-07-09T09:43:33+0200</time>
      </trkpt>
      <trkpt lat="45.03942" lon="3.07751">
        <ele>863.092907</ele>
        <time>2021-07-09T09:43:35+0200</time>
      </trkpt>
      <trkpt lat="45.03937" lon="3.07755">
        <ele>864.107307</ele>
        <time>2021-07-09T09:43:38+0200</time>
      </trkpt>
      <trkpt lat="45.0393" lon="3.07755">
        <ele>864.776543</ele>
        <time>2021-07-09T09:43:41+0200</time>
      </trkpt>
      <trkpt lat="45.03928" lon="3.07747">
        <ele>865.796518</ele>
        <time>2021-07-09T09:43:44+0200</time>
      </trkpt>
      <trkpt lat="45.03928" lon="3.0774">
        <ele>865.468177</ele>
        <time>2021-07-09T09:43:46+0200</time>
      </trkpt>
      <trkpt lat="45.03927" lon="3.07732">
        <ele>865.820906</ele>
        <time>2021-07-09T09:43:49+0200</time>
      </trkpt>
      <trkpt lat="45.03926" lon="3.07724">
        <ele>867.015637</ele>
        <time>2021-07-09T09:43:51+0200</time>
      </trkpt>
      <trkpt lat="45.03924" lon="3.07718">
        <ele>867.231847</ele>
        <time>2021-07-09T09:43:53+0200</time>
      </trkpt>
      <trkpt lat="45.0392" lon="3.07712">
        <ele>868.346144</ele>
        <time>2021-07-09T09:43:56+0200</time>
      </trkpt>
      <trkpt lat="45.03914" lon="3.0771">
        <ele>866.638578</ele>
        <time>2021-07-09T09:43:59+0200</time>
      </trkpt>
      <trkpt lat="45.03908" lon="3.0771">
        <ele>867.176817</ele>
        <time>2021-07-09T09:44:03+0200</time>
      </trkpt>
      <trkpt lat="45.03902" lon="3.07712">
        <ele>868.37308</ele>
        <time>2021-07-09T09:44:06+0200</time>
      </trkpt>
      <trkpt lat="45.03897" lon="3.07717">
        <ele>868.538109</ele>
        <time>2021-07-09T09:44:09+0200</time>
      </trkpt>
      <trkpt lat="45.03893" lon="3.07723">
        <ele>869.82426</ele>
        <time>2021-07-09T09:44:11+0200</time>
      </trkpt>
      <trkpt lat="45.03889" lon="3.07726">
        <ele>870.916466</ele>
        <time>2021-07-09T09:44:13+0200</time>
      </trkpt>
      <trkpt lat="45.03884" lon="3.07731">
        <ele>871.207282</ele>
        <time>2021-07-09T09:44:16+0200</time>
      </trkpt>
      <trkpt lat="45.03881" lon="3.07736">
        <ele>872.072764</ele>
        <time>2021-07-09T09:44:19+0200</time>
      </trkpt>
      <trkpt lat="45.03876" lon="3.07741">
        <ele>873.132052</ele>
        <time>2021-07-09T09:44:22+0200</time>
      </trkpt>
      <trkpt lat="45.03872" lon="3.07746">
        <ele>874.383505</ele>
        <time>2021-07-09T09:44:25+0200</time>
      </trkpt>
      <trkpt lat="45.03868" lon="3.07753">
        <ele>875.034911</ele>
        <time>2021-07-09T09:44:28+0200</time>
      </trkpt>
      <trkpt lat="45.03862" lon="3.07755">
        <ele>875.806305</ele>
        <time>2021-07-09T09:44:31+0200</time>
      </trkpt>
      <trkpt lat="45.03856" lon="3.07755">
        <ele>875.784634</ele>
        <time>2021-07-09T09:44:34+0200</time>
      </trkpt>
      <trkpt lat="45.0385" lon="3.07757">
        <ele>876.285288</ele>
        <time>2021-07-09T09:44:37+0200</time>
      </trkpt>
      <trkpt lat="45.03844" lon="3.07761">
        <ele>875.722372</ele>
        <time>2021-07-09T09:44:40+0200</time>
      </trkpt>
      <trkpt lat="45.03841" lon="3.07767">
        <ele>876.07908</ele>
        <time>2021-07-09T09:44:42+0200</time>
      </trkpt>
      <trkpt lat="45.03839" lon="3.07777">
        <ele>876.368359</ele>
        <time>2021-07-09T09:44:44+0200</time>
      </trkpt>
      <trkpt lat="45.03836" lon="3.07784">
        <ele>876.712809</ele>
        <time>2021-07-09T09:44:46+0200</time>
      </trkpt>
      <trkpt lat="45.03831" lon="3.07786">
        <ele>877.906573</ele>
        <time>2021-07-09T09:44:49+0200</time>
      </trkpt>
      <trkpt lat="45.0383" lon="3.07794">
        <ele>879.646166</ele>
        <time>2021-07-09T09:44:52+0200</time>
      </trkpt>
      <trkpt lat="45.03828" lon="3.07803">
        <ele>880.749145</ele>
        <time>2021-07-09T09:44:54+0200</time>
      </trkpt>
      <trkpt lat="45.03828" lon="3.07812">
        <ele>880.045299</ele>
        <time>2021-07-09T09:44:56+0200</time>
      </trkpt>
      <trkpt lat="45.03831" lon="3.07821">
        <ele>880.418564</ele>
        <time>2021-07-09T09:44:58+0200</time>
      </trkpt>
      <trkpt lat="45.03833" lon="3.0783">
        <ele>879.96947</ele>
        <time>2021-07-09T09:45:00+0200</time>
      </trkpt>
      <trkpt lat="45.03834" lon="3.07839">
        <ele>879.230556</ele>
        <time>2021-07-09T09:45:02+0200</time>
      </trkpt>
      <trkpt lat="45.03834" lon="3.07849">
        <ele>878.30906</ele>
        <time>2021-07-09T09:45:04+0200</time>
      </trkpt>
      <trkpt lat="45.03832" lon="3.07855">
        <ele>878.363645</ele>
        <time>2021-07-09T09:45:05+0200</time>
      </trkpt>
      <trkpt lat="45.03827" lon="3.07866">
        <ele>877.985204</ele>
        <time>2021-07-09T09:45:07+0200</time>
      </trkpt>
      <trkpt lat="45.03824" lon="3.07871">
        <ele>877.764502</ele>
        <time>2021-07-09T09:45:08+0200</time>
      </trkpt>
      <trkpt lat="45.03821" lon="3.07876">
        <ele>877.753417</ele>
        <time>2021-07-09T09:45:09+0200</time>
      </trkpt>
      <trkpt lat="45.03818" lon="3.07882">
        <ele>877.546793</ele>
        <time>2021-07-09T09:45:10+0200</time>
      </trkpt>
      <trkpt lat="45.03814" lon="3.07888">
        <ele>877.340736</ele>
        <time>2021-07-09T09:45:11+0200</time>
      </trkpt>
      <trkpt lat="45.03811" lon="3.07894">
        <ele>877.275479</ele>
        <time>2021-07-09T09:45:12+0200</time>
      </trkpt>
      <trkpt lat="45.03808" lon="3.079">
        <ele>876.733015</ele>
        <time>2021-07-09T09:45:13+0200</time>
      </trkpt>
      <trkpt lat="45.03805" lon="3.07905">
        <ele>876.882099</ele>
        <time>2021-07-09T09:45:14+0200</time>
      </trkpt>
      <trkpt lat="45.03802" lon="3.07911">
        <ele>876.46013</ele>
        <time>2021-07-09T09:45:15+0200</time>
      </trkpt>
      <trkpt lat="45.03799" lon="3.07916">
        <ele>875.600836</ele>
        <time>2021-07-09T09:45:16+0200</time>
      </trkpt>
      <trkpt lat="45.03795" lon="3.07922">
        <ele>875.183241</ele>
        <time>2021-07-09T09:45:17+0200</time>
      </trkpt>
      <trkpt lat="45.03792" lon="3.07927">
        <ele>874.642435</ele>
        <time>2021-07-09T09:45:18+0200</time>
      </trkpt>
      <trkpt lat="45.03788" lon="3.07933">
        <ele>874.581939</ele>
        <time>2021-07-09T09:45:19+0200</time>
      </trkpt>
      <trkpt lat="45.03785" lon="3.0794">
        <ele>874.543795</ele>
        <time>2021-07-09T09:45:20+0200</time>
      </trkpt>
      <trkpt lat="45.03782" lon="3.07946">
        <ele>875.253416</ele>
        <time>2021-07-09T09:45:21+0200</time>
      </trkpt>
      <trkpt lat="45.03779" lon="3.07952">
        <ele>875.698546</ele>
        <time>2021-07-09T09:45:22+0200</time>
      </trkpt>
      <trkpt lat="45.03775" lon="3.07959">
        <ele>875.890314</ele>
        <time>2021-07-09T09:45:23+0200</time>
      </trkpt>
      <trkpt lat="45.03772" lon="3.07964">
        <ele>875.487869</ele>
        <time>2021-07-09T09:45:24+0200</time>
      </trkpt>
      <trkpt lat="45.03769" lon="3.0797">
        <ele>875.425409</ele>
        <time>2021-07-09T09:45:25+0200</time>
      </trkpt>
      <trkpt lat="45.03767" lon="3.07977">
        <ele>875.460724</ele>
        <time>2021-07-09T09:45:26+0200</time>
      </trkpt>
      <trkpt lat="45.03764" lon="3.07983">
        <ele>875.699882</ele>
        <time>2021-07-09T09:45:27+0200</time>
      </trkpt>
      <trkpt lat="45.0376" lon="3.07988">
        <ele>875.641214</ele>
        <time>2021-07-09T09:45:28+0200</time>
      </trkpt>
      <trkpt lat="45.03757" lon="3.07993">
        <ele>875.855282</ele>
        <time>2021-07-09T09:45:29+0200</time>
      </trkpt>
      <trkpt lat="45.03754" lon="3.07998">
        <ele>876.075864</ele>
        <time>2021-07-09T09:45:30+0200</time>
      </trkpt>
      <trkpt lat="45.03751" lon="3.08002">
        <ele>875.975612</ele>
        <time>2021-07-09T09:45:31+0200</time>
      </trkpt>
      <trkpt lat="45.03748" lon="3.08007">
        <ele>876.279076</ele>
        <time>2021-07-09T09:45:32+0200</time>
      </trkpt>
      <trkpt lat="45.03741" lon="3.08015">
        <ele>876.278374</ele>
        <time>2021-07-09T09:45:34+0200</time>
      </trkpt>
      <trkpt lat="45.03736" lon="3.08022">
        <ele>877.747358</ele>
        <time>2021-07-09T09:45:36+0200</time>
      </trkpt>
      <trkpt lat="45.0373" lon="3.0803">
        <ele>878.514293</ele>
        <time>2021-07-09T09:45:38+0200</time>
      </trkpt>
      <trkpt lat="45.03724" lon="3.08039">
        <ele>879.06849</ele>
        <time>2021-07-09T09:45:40+0200</time>
      </trkpt>
      <trkpt lat="45.03719" lon="3.08044">
        <ele>879.738511</ele>
        <time>2021-07-09T09:45:42+0200</time>
      </trkpt>
      <trkpt lat="45.03713" lon="3.08052">
        <ele>879.011459</ele>
        <time>2021-07-09T09:45:44+0200</time>
      </trkpt>
      <trkpt lat="45.03706" lon="3.08059">
        <ele>879.755899</ele>
        <time>2021-07-09T09:45:46+0200</time>
      </trkpt>
      <trkpt lat="45.03701" lon="3.08067">
        <ele>880.273872</ele>
        <time>2021-07-09T09:45:48+0200</time>
      </trkpt>
      <trkpt lat="45.03695" lon="3.08076">
        <ele>880.678172</ele>
        <time>2021-07-09T09:45:50+0200</time>
      </trkpt>
      <trkpt lat="45.03689" lon="3.08084">
        <ele>880.776487</ele>
        <time>2021-07-09T09:45:52+0200</time>
      </trkpt>
      <trkpt lat="45.03683" lon="3.0809">
        <ele>880.563042</ele>
        <time>2021-07-09T09:45:54+0200</time>
      </trkpt>
      <trkpt lat="45.03678" lon="3.08096">
        <ele>880.694424</ele>
        <time>2021-07-09T09:45:56+0200</time>
      </trkpt>
      <trkpt lat="45.03673" lon="3.08104">
        <ele>880.978413</ele>
        <time>2021-07-09T09:45:58+0200</time>
      </trkpt>
      <trkpt lat="45.03666" lon="3.08111">
        <ele>880.971385</ele>
        <time>2021-07-09T09:46:00+0200</time>
      </trkpt>
      <trkpt lat="45.03661" lon="3.08118">
        <ele>881.702279</ele>
        <time>2021-07-09T09:46:02+0200</time>
      </trkpt>
      <trkpt lat="45.03655" lon="3.08124">
        <ele>883.102775</ele>
        <time>2021-07-09T09:46:04+0200</time>
      </trkpt>
      <trkpt lat="45.0365" lon="3.08132">
        <ele>884.214527</ele>
        <time>2021-07-09T09:46:06+0200</time>
      </trkpt>
      <trkpt lat="45.03645" lon="3.08142">
        <ele>884.411594</ele>
        <time>2021-07-09T09:46:09+0200</time>
      </trkpt>
      <trkpt lat="45.03641" lon="3.08151">
        <ele>884.856828</ele>
        <time>2021-07-09T09:46:10+0200</time>
      </trkpt>
      <trkpt lat="45.03637" lon="3.0816">
        <ele>886.738016</ele>
        <time>2021-07-09T09:46:12+0200</time>
      </trkpt>
      <trkpt lat="45.03633" lon="3.08169">
        <ele>886.488295</ele>
        <time>2021-07-09T09:46:14+0200</time>
      </trkpt>
      <trkpt lat="45.0363" lon="3.0818">
        <ele>885.129208</ele>
        <time>2021-07-09T09:46:16+0200</time>
      </trkpt>
      <trkpt lat="45.03626" lon="3.08189">
        <ele>884.367824</ele>
        <time>2021-07-09T09:46:18+0200</time>
      </trkpt>
      <trkpt lat="45.03624" lon="3.08198">
        <ele>884.090339</ele>
        <time>2021-07-09T09:46:20+0200</time>
      </trkpt>
      <trkpt lat="45.03622" lon="3.08207">
        <ele>883.756104</ele>
        <time>2021-07-09T09:46:22+0200</time>
      </trkpt>
      <trkpt lat="45.03619" lon="3.08216">
        <ele>884.364554</ele>
        <time>2021-07-09T09:46:24+0200</time>
      </trkpt>
      <trkpt lat="45.03616" lon="3.08224">
        <ele>884.827218</ele>
        <time>2021-07-09T09:46:26+0200</time>
      </trkpt>
      <trkpt lat="45.03613" lon="3.08232">
        <ele>886.001616</ele>
        <time>2021-07-09T09:46:28+0200</time>
      </trkpt>
      <trkpt lat="45.0361" lon="3.08241">
        <ele>886.148863</ele>
        <time>2021-07-09T09:46:30+0200</time>
      </trkpt>
      <trkpt lat="45.03607" lon="3.0825">
        <ele>885.743591</ele>
        <time>2021-07-09T09:46:32+0200</time>
      </trkpt>
      <trkpt lat="45.03605" lon="3.08259">
        <ele>885.536437</ele>
        <time>2021-07-09T09:46:34+0200</time>
      </trkpt>
      <trkpt lat="45.03602" lon="3.08268">
        <ele>885.970096</ele>
        <time>2021-07-09T09:46:36+0200</time>
      </trkpt>
      <trkpt lat="45.03599" lon="3.08275">
        <ele>887.19771</ele>
        <time>2021-07-09T09:46:38+0200</time>
      </trkpt>
      <trkpt lat="45.03595" lon="3.08283">
        <ele>888.238021</ele>
        <time>2021-07-09T09:46:40+0200</time>
      </trkpt>
      <trkpt lat="45.03592" lon="3.08291">
        <ele>890.076118</ele>
        <time>2021-07-09T09:46:42+0200</time>
      </trkpt>
      <trkpt lat="45.03589" lon="3.08298">
        <ele>891.080954</ele>
        <time>2021-07-09T09:46:44+0200</time>
      </trkpt>
      <trkpt lat="45.03585" lon="3.08305">
        <ele>891.4487</ele>
        <time>2021-07-09T09:46:46+0200</time>
      </trkpt>
      <trkpt lat="45.03581" lon="3.08311">
        <ele>890.611499</ele>
        <time>2021-07-09T09:46:48+0200</time>
      </trkpt>
      <trkpt lat="45.03578" lon="3.08319">
        <ele>890.013879</ele>
        <time>2021-07-09T09:46:50+0200</time>
      </trkpt>
      <trkpt lat="45.03575" lon="3.08326">
        <ele>889.401494</ele>
        <time>2021-07-09T09:46:52+0200</time>
      </trkpt>
      <trkpt lat="45.0357" lon="3.08334">
        <ele>888.123631</ele>
        <time>2021-07-09T09:46:54+0200</time>
      </trkpt>
      <trkpt lat="45.03567" lon="3.08339">
        <ele>887.4949</ele>
        <time>2021-07-09T09:46:56+0200</time>
      </trkpt>
      <trkpt lat="45.03564" lon="3.08346">
        <ele>887.563264</ele>
        <time>2021-07-09T09:46:58+0200</time>
      </trkpt>
      <trkpt lat="45.03561" lon="3.08352">
        <ele>888.067961</ele>
        <time>2021-07-09T09:47:00+0200</time>
      </trkpt>
      <trkpt lat="45.03557" lon="3.08358">
        <ele>888.548323</ele>
        <time>2021-07-09T09:47:03+0200</time>
      </trkpt>
      <trkpt lat="45.03554" lon="3.08366">
        <ele>889.573534</ele>
        <time>2021-07-09T09:47:06+0200</time>
      </trkpt>
      <trkpt lat="45.03551" lon="3.08373">
        <ele>890.409013</ele>
        <time>2021-07-09T09:47:08+0200</time>
      </trkpt>
      <trkpt lat="45.03548" lon="3.08378">
        <ele>891.712485</ele>
        <time>2021-07-09T09:47:10+0200</time>
      </trkpt>
      <trkpt lat="45.03543" lon="3.08382">
        <ele>892.637891</ele>
        <time>2021-07-09T09:47:12+0200</time>
      </trkpt>
      <trkpt lat="45.0354" lon="3.08388">
        <ele>894.267043</ele>
        <time>2021-07-09T09:47:14+0200</time>
      </trkpt>
      <trkpt lat="45.03536" lon="3.08392">
        <ele>894.860959</ele>
        <time>2021-07-09T09:47:16+0200</time>
      </trkpt>
      <trkpt lat="45.03532" lon="3.08397">
        <ele>896.415631</ele>
        <time>2021-07-09T09:47:18+0200</time>
      </trkpt>
      <trkpt lat="45.03528" lon="3.08402">
        <ele>896.64614</ele>
        <time>2021-07-09T09:47:20+0200</time>
      </trkpt>
      <trkpt lat="45.03524" lon="3.08405">
        <ele>897.716367</ele>
        <time>2021-07-09T09:47:22+0200</time>
      </trkpt>
      <trkpt lat="45.0352" lon="3.0841">
        <ele>899.382057</ele>
        <time>2021-07-09T09:47:24+0200</time>
      </trkpt>
      <trkpt lat="45.03517" lon="3.08416">
        <ele>902.119904</ele>
        <time>2021-07-09T09:47:26+0200</time>
      </trkpt>
      <trkpt lat="45.03512" lon="3.08419">
        <ele>902.125579</ele>
        <time>2021-07-09T09:47:28+0200</time>
      </trkpt>
      <trkpt lat="45.03505" lon="3.08424">
        <ele>901.247779</ele>
        <time>2021-07-09T09:47:30+0200</time>
      </trkpt>
      <trkpt lat="45.03501" lon="3.08428">
        <ele>900.843908</ele>
        <time>2021-07-09T09:47:32+0200</time>
      </trkpt>
      <trkpt lat="45.03495" lon="3.08434">
        <ele>901.385142</ele>
        <time>2021-07-09T09:47:35+0200</time>
      </trkpt>
      <trkpt lat="45.0349" lon="3.08436">
        <ele>901.199123</ele>
        <time>2021-07-09T09:47:37+0200</time>
      </trkpt>
      <trkpt lat="45.0349" lon="3.08443">
        <ele>902.329617</ele>
        <time>2021-07-09T09:47:39+0200</time>
      </trkpt>
      <trkpt lat="45.0349" lon="3.08455">
        <ele>899.981296</ele>
        <time>2021-07-09T09:47:41+0200</time>
      </trkpt>
      <trkpt lat="45.03487" lon="3.08461">
        <ele>899.241731</ele>
        <time>2021-07-09T09:47:42+0200</time>
      </trkpt>
      <trkpt lat="45.03483" lon="3.08467">
        <ele>898.535127</ele>
        <time>2021-07-09T09:47:43+0200</time>
      </trkpt>
      <trkpt lat="45.0348" lon="3.08472">
        <ele>898.721316</ele>
        <time>2021-07-09T09:47:44+0200</time>
      </trkpt>
      <trkpt lat="45.03476" lon="3.08477">
        <ele>898.164298</ele>
        <time>2021-07-09T09:47:45+0200</time>
      </trkpt>
      <trkpt lat="45.03471" lon="3.08483">
        <ele>898.59853</ele>
        <time>2021-07-09T09:47:46+0200</time>
      </trkpt>
      <trkpt lat="45.03466" lon="3.08487">
        <ele>898.008591</ele>
        <time>2021-07-09T09:47:47+0200</time>
      </trkpt>
      <trkpt lat="45.03461" lon="3.08492">
        <ele>898.165359</ele>
        <time>2021-07-09T09:47:48+0200</time>
      </trkpt>
      <trkpt lat="45.03457" lon="3.08498">
        <ele>899.065589</ele>
        <time>2021-07-09T09:47:49+0200</time>
      </trkpt>
      <trkpt lat="45.03454" lon="3.08507">
        <ele>899.170838</ele>
        <time>2021-07-09T09:47:50+0200</time>
      </trkpt>
      <trkpt lat="45.03451" lon="3.08517">
        <ele>898.984132</ele>
        <time>2021-07-09T09:47:51+0200</time>
      </trkpt>
      <trkpt lat="45.0345" lon="3.08527">
        <ele>898.235705</ele>
        <time>2021-07-09T09:47:52+0200</time>
      </trkpt>
      <trkpt lat="45.03448" lon="3.08537">
        <ele>896.610932</ele>
        <time>2021-07-09T09:47:53+0200</time>
      </trkpt>
      <trkpt lat="45.03446" lon="3.08548">
        <ele>895.58321</ele>
        <time>2021-07-09T09:47:54+0200</time>
      </trkpt>
      <trkpt lat="45.03445" lon="3.0856">
        <ele>894.732821</ele>
        <time>2021-07-09T09:47:55+0200</time>
      </trkpt>
      <trkpt lat="45.03444" lon="3.08572">
        <ele>893.915331</ele>
        <time>2021-07-09T09:47:56+0200</time>
      </trkpt>
      <trkpt lat="45.03443" lon="3.08582">
        <ele>893.451096</ele>
        <time>2021-07-09T09:47:57+0200</time>
      </trkpt>
      <trkpt lat="45.03443" lon="3.08593">
        <ele>893.249386</ele>
        <time>2021-07-09T09:47:58+0200</time>
      </trkpt>
      <trkpt lat="45.03443" lon="3.08602">
        <ele>892.699721</ele>
        <time>2021-07-09T09:47:59+0200</time>
      </trkpt>
      <trkpt lat="45.03442" lon="3.08608">
        <ele>891.936501</ele>
        <time>2021-07-09T09:48:00+0200</time>
      </trkpt>
      <trkpt lat="45.03442" lon="3.08618">
        <ele>891.550808</ele>
        <time>2021-07-09T09:48:01+0200</time>
      </trkpt>
      <trkpt lat="45.0344" lon="3.08626">
        <ele>892.092302</ele>
        <time>2021-07-09T09:48:02+0200</time>
      </trkpt>
      <trkpt lat="45.0344" lon="3.08635">
        <ele>892.946814</ele>
        <time>2021-07-09T09:48:03+0200</time>
      </trkpt>
      <trkpt lat="45.03439" lon="3.08643">
        <ele>894.022277</ele>
        <time>2021-07-09T09:48:04+0200</time>
      </trkpt>
      <trkpt lat="45.03441" lon="3.08654">
        <ele>894.720802</ele>
        <time>2021-07-09T09:48:05+0200</time>
      </trkpt>
      <trkpt lat="45.03444" lon="3.08663">
        <ele>894.969847</ele>
        <time>2021-07-09T09:48:06+0200</time>
      </trkpt>
      <trkpt lat="45.03447" lon="3.08673">
        <ele>894.614203</ele>
        <time>2021-07-09T09:48:07+0200</time>
      </trkpt>
      <trkpt lat="45.0345" lon="3.08684">
        <ele>894.418337</ele>
        <time>2021-07-09T09:48:08+0200</time>
      </trkpt>
      <trkpt lat="45.03453" lon="3.08696">
        <ele>893.298001</ele>
        <time>2021-07-09T09:48:09+0200</time>
      </trkpt>
      <trkpt lat="45.03457" lon="3.08706">
        <ele>891.809306</ele>
        <time>2021-07-09T09:48:10+0200</time>
      </trkpt>
      <trkpt lat="45.03462" lon="3.08716">
        <ele>888.36673</ele>
        <time>2021-07-09T09:48:11+0200</time>
      </trkpt>
      <trkpt lat="45.03467" lon="3.08726">
        <ele>886.059275</ele>
        <time>2021-07-09T09:48:12+0200</time>
      </trkpt>
      <trkpt lat="45.0347" lon="3.08737">
        <ele>884.22619</ele>
        <time>2021-07-09T09:48:14+0200</time>
      </trkpt>
      <trkpt lat="45.03473" lon="3.08748">
        <ele>882.91197</ele>
        <time>2021-07-09T09:48:15+0200</time>
      </trkpt>
      <trkpt lat="45.03475" lon="3.08759">
        <ele>882.513644</ele>
        <time>2021-07-09T09:48:16+0200</time>
      </trkpt>
      <trkpt lat="45.03477" lon="3.08771">
        <ele>882.052283</ele>
        <time>2021-07-09T09:48:17+0200</time>
      </trkpt>
      <trkpt lat="45.03478" lon="3.08782">
        <ele>881.937662</ele>
        <time>2021-07-09T09:48:18+0200</time>
      </trkpt>
      <trkpt lat="45.0348" lon="3.08792">
        <ele>881.577676</ele>
        <time>2021-07-09T09:48:19+0200</time>
      </trkpt>
      <trkpt lat="45.03479" lon="3.08802">
        <ele>880.85106</ele>
        <time>2021-07-09T09:48:20+0200</time>
      </trkpt>
      <trkpt lat="45.03479" lon="3.08812">
        <ele>880.545536</ele>
        <time>2021-07-09T09:48:21+0200</time>
      </trkpt>
      <trkpt lat="45.03477" lon="3.08822">
        <ele>880.626694</ele>
        <time>2021-07-09T09:48:21+0200</time>
      </trkpt>
      <trkpt lat="45.03475" lon="3.08832">
        <ele>880.504814</ele>
        <time>2021-07-09T09:48:22+0200</time>
      </trkpt>
      <trkpt lat="45.03472" lon="3.08841">
        <ele>880.210606</ele>
        <time>2021-07-09T09:48:24+0200</time>
      </trkpt>
      <trkpt lat="45.0347" lon="3.0885">
        <ele>879.694986</ele>
        <time>2021-07-09T09:48:25+0200</time>
      </trkpt>
      <trkpt lat="45.03469" lon="3.08858">
        <ele>879.532579</ele>
        <time>2021-07-09T09:48:25+0200</time>
      </trkpt>
      <trkpt lat="45.03468" lon="3.08865">
        <ele>879.246327</ele>
        <time>2021-07-09T09:48:26+0200</time>
      </trkpt>
      <trkpt lat="45.03466" lon="3.08875">
        <ele>880.360498</ele>
        <time>2021-07-09T09:48:28+0200</time>
      </trkpt>
      <trkpt lat="45.03459" lon="3.08881">
        <ele>880.887531</ele>
        <time>2021-07-09T09:48:30+0200</time>
      </trkpt>
      <trkpt lat="45.03456" lon="3.08886">
        <ele>881.714332</ele>
        <time>2021-07-09T09:48:32+0200</time>
      </trkpt>
      <trkpt lat="45.03456" lon="3.08895">
        <ele>883.373642</ele>
        <time>2021-07-09T09:48:34+0200</time>
      </trkpt>
      <trkpt lat="45.03461" lon="3.08904">
        <ele>883.934864</ele>
        <time>2021-07-09T09:48:36+0200</time>
      </trkpt>
      <trkpt lat="45.03463" lon="3.08914">
        <ele>883.240749</ele>
        <time>2021-07-09T09:48:38+0200</time>
      </trkpt>
      <trkpt lat="45.03463" lon="3.08925">
        <ele>883.945675</ele>
        <time>2021-07-09T09:48:40+0200</time>
      </trkpt>
      <trkpt lat="45.0346" lon="3.08934">
        <ele>884.605882</ele>
        <time>2021-07-09T09:48:42+0200</time>
      </trkpt>
      <trkpt lat="45.03458" lon="3.08943">
        <ele>886.945033</ele>
        <time>2021-07-09T09:48:44+0200</time>
      </trkpt>
      <trkpt lat="45.03456" lon="3.08953">
        <ele>888.591059</ele>
        <time>2021-07-09T09:48:46+0200</time>
      </trkpt>
      <trkpt lat="45.03454" lon="3.08965">
        <ele>889.791873</ele>
        <time>2021-07-09T09:48:48+0200</time>
      </trkpt>
      <trkpt lat="45.03453" lon="3.08971">
        <ele>889.426805</ele>
        <time>2021-07-09T09:48:49+0200</time>
      </trkpt>
      <trkpt lat="45.03453" lon="3.08979">
        <ele>888.747932</ele>
        <time>2021-07-09T09:48:50+0200</time>
      </trkpt>
      <trkpt lat="45.0345" lon="3.08993">
        <ele>888.887753</ele>
        <time>2021-07-09T09:48:52+0200</time>
      </trkpt>
      <trkpt lat="45.03446" lon="3.09004">
        <ele>886.601296</ele>
        <time>2021-07-09T09:48:54+0200</time>
      </trkpt>
      <trkpt lat="45.03441" lon="3.09014">
        <ele>886.12503</ele>
        <time>2021-07-09T09:48:56+0200</time>
      </trkpt>
      <trkpt lat="45.0344" lon="3.09021">
        <ele>886.706228</ele>
        <time>2021-07-09T09:48:57+0200</time>
      </trkpt>
      <trkpt lat="45.03436" lon="3.0903">
        <ele>887.382065</ele>
        <time>2021-07-09T09:48:59+0200</time>
      </trkpt>
      <trkpt lat="45.03437" lon="3.0904">
        <ele>887.316173</ele>
        <time>2021-07-09T09:49:01+0200</time>
      </trkpt>
      <trkpt lat="45.03437" lon="3.09051">
        <ele>887.751601</ele>
        <time>2021-07-09T09:49:03+0200</time>
      </trkpt>
      <trkpt lat="45.03434" lon="3.0906">
        <ele>888.910424</ele>
        <time>2021-07-09T09:49:05+0200</time>
      </trkpt>
      <trkpt lat="45.03433" lon="3.09066">
        <ele>889.076875</ele>
        <time>2021-07-09T09:49:06+0200</time>
      </trkpt>
      <trkpt lat="45.03432" lon="3.09073">
        <ele>889.505077</ele>
        <time>2021-07-09T09:49:07+0200</time>
      </trkpt>
      <trkpt lat="45.03431" lon="3.09079">
        <ele>889.944</ele>
        <time>2021-07-09T09:49:08+0200</time>
      </trkpt>
      <trkpt lat="45.03428" lon="3.09089">
        <ele>890.984211</ele>
        <time>2021-07-09T09:49:10+0200</time>
      </trkpt>
      <trkpt lat="45.03427" lon="3.09097">
        <ele>891.024579</ele>
        <time>2021-07-09T09:49:11+0200</time>
      </trkpt>
      <trkpt lat="45.03425" lon="3.09103">
        <ele>890.761798</ele>
        <time>2021-07-09T09:49:12+0200</time>
      </trkpt>
      <trkpt lat="45.03424" lon="3.0911">
        <ele>890.482224</ele>
        <time>2021-07-09T09:49:13+0200</time>
      </trkpt>
      <trkpt lat="45.03423" lon="3.09118">
        <ele>891.269207</ele>
        <time>2021-07-09T09:49:14+0200</time>
      </trkpt>
      <trkpt lat="45.03421" lon="3.09123">
        <ele>890.945972</ele>
        <time>2021-07-09T09:49:15+0200</time>
      </trkpt>
      <trkpt lat="45.03419" lon="3.09135">
        <ele>889.553384</ele>
        <time>2021-07-09T09:49:17+0200</time>
      </trkpt>
      <trkpt lat="45.03419" lon="3.09142">
        <ele>886.738703</ele>
        <time>2021-07-09T09:49:32+0200</time>
      </trkpt>
      <trkpt lat="45.03419" lon="3.0915">
        <ele>887.353965</ele>
        <time>2021-07-09T09:49:35+0200</time>
      </trkpt>
      <trkpt lat="45.03419" lon="3.09156">
        <ele>888.28352</ele>
        <time>2021-07-09T09:49:38+0200</time>
      </trkpt>
      <trkpt lat="45.03417" lon="3.09166">
        <ele>888.301173</ele>
        <time>2021-07-09T09:49:41+0200</time>
      </trkpt>
      <trkpt lat="45.03415" lon="3.09172">
        <ele>887.407719</ele>
        <time>2021-07-09T09:49:43+0200</time>
      </trkpt>
      <trkpt lat="45.03412" lon="3.09179">
        <ele>885.597069</ele>
        <time>2021-07-09T09:49:46+0200</time>
      </trkpt>
      <trkpt lat="45.03409" lon="3.09185">
        <ele>883.585161</ele>
        <time>2021-07-09T09:49:48+0200</time>
      </trkpt>
      <trkpt lat="45.03407" lon="3.09195">
        <ele>881.58899</ele>
        <time>2021-07-09T09:49:50+0200</time>
      </trkpt>
      <trkpt lat="45.03403" lon="3.09205">
        <ele>880.741638</ele>
        <time>2021-07-09T09:49:52+0200</time>
      </trkpt>
      <trkpt lat="45.03402" lon="3.09213">
        <ele>881.320605</ele>
        <time>2021-07-09T09:49:54+0200</time>
      </trkpt>
      <trkpt lat="45.03399" lon="3.09224">
        <ele>882.361604</ele>
        <time>2021-07-09T09:49:56+0200</time>
      </trkpt>
      <trkpt lat="45.03399" lon="3.09235">
        <ele>882.684815</ele>
        <time>2021-07-09T09:49:58+0200</time>
      </trkpt>
      <trkpt lat="45.03397" lon="3.09246">
        <ele>883.922908</ele>
        <time>2021-07-09T09:50:00+0200</time>
      </trkpt>
      <trkpt lat="45.03394" lon="3.09254">
        <ele>884.492613</ele>
        <time>2021-07-09T09:50:02+0200</time>
      </trkpt>
      <trkpt lat="45.03393" lon="3.09262">
        <ele>886.326414</ele>
        <time>2021-07-09T09:50:04+0200</time>
      </trkpt>
      <trkpt lat="45.03393" lon="3.09269">
        <ele>886.349952</ele>
        <time>2021-07-09T09:50:05+0200</time>
      </trkpt>
      <trkpt lat="45.03391" lon="3.09275">
        <ele>886.079282</ele>
        <time>2021-07-09T09:50:06+0200</time>
      </trkpt>
      <trkpt lat="45.03388" lon="3.09286">
        <ele>885.722103</ele>
        <time>2021-07-09T09:50:08+0200</time>
      </trkpt>
      <trkpt lat="45.03388" lon="3.09296">
        <ele>886.581095</ele>
        <time>2021-07-09T09:50:10+0200</time>
      </trkpt>
      <trkpt lat="45.0339" lon="3.09301">
        <ele>888.367683</ele>
        <time>2021-07-09T09:50:12+0200</time>
      </trkpt>
      <trkpt lat="45.03392" lon="3.09311">
        <ele>892.762251</ele>
        <time>2021-07-09T09:50:14+0200</time>
      </trkpt>
      <trkpt lat="45.0339" lon="3.09318">
        <ele>892.914393</ele>
        <time>2021-07-09T09:50:15+0200</time>
      </trkpt>
      <trkpt lat="45.03389" lon="3.09326">
        <ele>892.543978</ele>
        <time>2021-07-09T09:50:16+0200</time>
      </trkpt>
      <trkpt lat="45.03388" lon="3.09334">
        <ele>892.555625</ele>
        <time>2021-07-09T09:50:17+0200</time>
      </trkpt>
      <trkpt lat="45.03388" lon="3.09341">
        <ele>892.512736</ele>
        <time>2021-07-09T09:50:18+0200</time>
      </trkpt>
      <trkpt lat="45.03387" lon="3.09349">
        <ele>892.632934</ele>
        <time>2021-07-09T09:50:20+0200</time>
      </trkpt>
      <trkpt lat="45.03386" lon="3.0936">
        <ele>892.194858</ele>
        <time>2021-07-09T09:50:22+0200</time>
      </trkpt>
      <trkpt lat="45.03384" lon="3.09365">
        <ele>891.745217</ele>
        <time>2021-07-09T09:50:23+0200</time>
      </trkpt>
      <trkpt lat="45.03384" lon="3.09372">
        <ele>891.768957</ele>
        <time>2021-07-09T09:50:24+0200</time>
      </trkpt>
      <trkpt lat="45.03383" lon="3.09378">
        <ele>891.660306</ele>
        <time>2021-07-09T09:50:25+0200</time>
      </trkpt>
      <trkpt lat="45.03381" lon="3.0939">
        <ele>890.609243</ele>
        <time>2021-07-09T09:50:27+0200</time>
      </trkpt>
      <trkpt lat="45.03379" lon="3.09395">
        <ele>890.524949</ele>
        <time>2021-07-09T09:50:28+0200</time>
      </trkpt>
      <trkpt lat="45.03378" lon="3.09402">
        <ele>889.598143</ele>
        <time>2021-07-09T09:50:29+0200</time>
      </trkpt>
      <trkpt lat="45.03377" lon="3.0941">
        <ele>888.398298</ele>
        <time>2021-07-09T09:50:30+0200</time>
      </trkpt>
      <trkpt lat="45.03376" lon="3.09417">
        <ele>886.650281</ele>
        <time>2021-07-09T09:50:32+0200</time>
      </trkpt>
      <trkpt lat="45.03375" lon="3.09425">
        <ele>884.326637</ele>
        <time>2021-07-09T09:50:33+0200</time>
      </trkpt>
      <trkpt lat="45.03377" lon="3.09431">
        <ele>880.970507</ele>
        <time>2021-07-09T09:50:34+0200</time>
      </trkpt>
      <trkpt lat="45.03372" lon="3.09444">
        <ele>878.76506</ele>
        <time>2021-07-09T09:50:36+0200</time>
      </trkpt>
      <trkpt lat="45.0337" lon="3.0945">
        <ele>880.421122</ele>
        <time>2021-07-09T09:50:37+0200</time>
      </trkpt>
      <trkpt lat="45.03366" lon="3.09457">
        <ele>886.156741</ele>
        <time>2021-07-09T09:50:39+0200</time>
      </trkpt>
      <trkpt lat="45.03361" lon="3.09464">
        <ele>890.994498</ele>
        <time>2021-07-09T09:50:41+0200</time>
      </trkpt>
      <trkpt lat="45.03356" lon="3.09468">
        <ele>896.553936</ele>
        <time>2021-07-09T09:50:43+0200</time>
      </trkpt>
      <trkpt lat="45.03355" lon="3.09476">
        <ele>900.359252</ele>
        <time>2021-07-09T09:50:45+0200</time>
      </trkpt>
      <trkpt lat="45.03357" lon="3.09484">
        <ele>901.546089</ele>
        <time>2021-07-09T09:50:47+0200</time>
      </trkpt>
      <trkpt lat="45.03358" lon="3.0949">
        <ele>900.856782</ele>
        <time>2021-07-09T09:50:49+0200</time>
      </trkpt>
      <trkpt lat="45.03359" lon="3.09499">
        <ele>901.710556</ele>
        <time>2021-07-09T09:50:51+0200</time>
      </trkpt>
      <trkpt lat="45.0336" lon="3.09509">
        <ele>901.577159</ele>
        <time>2021-07-09T09:50:53+0200</time>
      </trkpt>
      <trkpt lat="45.03362" lon="3.0952">
        <ele>901.994653</ele>
        <time>2021-07-09T09:50:55+0200</time>
      </trkpt>
      <trkpt lat="45.03361" lon="3.0953">
        <ele>902.009628</ele>
        <time>2021-07-09T09:50:57+0200</time>
      </trkpt>
      <trkpt lat="45.0336" lon="3.09539">
        <ele>902.660481</ele>
        <time>2021-07-09T09:50:59+0200</time>
      </trkpt>
      <trkpt lat="45.03357" lon="3.09546">
        <ele>901.123846</ele>
        <time>2021-07-09T09:51:01+0200</time>
      </trkpt>
      <trkpt lat="45.03356" lon="3.09559">
        <ele>894.710144</ele>
        <time>2021-07-09T09:51:03+0200</time>
      </trkpt>
      <trkpt lat="45.03357" lon="3.09567">
        <ele>891.910189</ele>
        <time>2021-07-09T09:51:04+0200</time>
      </trkpt>
      <trkpt lat="45.03356" lon="3.09575">
        <ele>890.536758</ele>
        <time>2021-07-09T09:51:05+0200</time>
      </trkpt>
      <trkpt lat="45.03353" lon="3.09582">
        <ele>890.793571</ele>
        <time>2021-07-09T09:51:06+0200</time>
      </trkpt>
      <trkpt lat="45.03349" lon="3.09588">
        <ele>890.068963</ele>
        <time>2021-07-09T09:51:07+0200</time>
      </trkpt>
      <trkpt lat="45.03344" lon="3.09595">
        <ele>889.537701</ele>
        <time>2021-07-09T09:51:08+0200</time>
      </trkpt>
      <trkpt lat="45.0334" lon="3.09603">
        <ele>887.510281</ele>
        <time>2021-07-09T09:51:08+0200</time>
      </trkpt>
      <trkpt lat="45.03336" lon="3.0961">
        <ele>882.801698</ele>
        <time>2021-07-09T09:51:10+0200</time>
      </trkpt>
      <trkpt lat="45.03329" lon="3.09607">
        <ele>880.034127</ele>
        <time>2021-07-09T09:51:12+0200</time>
      </trkpt>
      <trkpt lat="45.03325" lon="3.09604">
        <ele>878.605209</ele>
        <time>2021-07-09T09:51:13+0200</time>
      </trkpt>
      <trkpt lat="45.0332" lon="3.09603">
        <ele>877.530598</ele>
        <time>2021-07-09T09:51:14+0200</time>
      </trkpt>
      <trkpt lat="45.03315" lon="3.09598">
        <ele>876.340375</ele>
        <time>2021-07-09T09:51:15+0200</time>
      </trkpt>
      <trkpt lat="45.03312" lon="3.09587">
        <ele>874.643149</ele>
        <time>2021-07-09T09:51:16+0200</time>
      </trkpt>
      <trkpt lat="45.03307" lon="3.09578">
        <ele>872.301842</ele>
        <time>2021-07-09T09:51:17+0200</time>
      </trkpt>
      <trkpt lat="45.03303" lon="3.09566">
        <ele>869.90545</ele>
        <time>2021-07-09T09:51:18+0200</time>
      </trkpt>
      <trkpt lat="45.03297" lon="3.09556">
        <ele>866.805918</ele>
        <time>2021-07-09T09:51:19+0200</time>
      </trkpt>
      <trkpt lat="45.03288" lon="3.09548">
        <ele>864.84907</ele>
        <time>2021-07-09T09:51:20+0200</time>
      </trkpt>
      <trkpt lat="45.03281" lon="3.09539">
        <ele>863.396723</ele>
        <time>2021-07-09T09:51:21+0200</time>
      </trkpt>
      <trkpt lat="45.03275" lon="3.09531">
        <ele>862.03253</ele>
        <time>2021-07-09T09:51:22+0200</time>
      </trkpt>
      <trkpt lat="45.03268" lon="3.09525">
        <ele>860.200673</ele>
        <time>2021-07-09T09:51:23+0200</time>
      </trkpt>
      <trkpt lat="45.03264" lon="3.0952">
        <ele>859.077593</ele>
        <time>2021-07-09T09:51:24+0200</time>
      </trkpt>
      <trkpt lat="45.03259" lon="3.09511">
        <ele>858.359802</ele>
        <time>2021-07-09T09:51:26+0200</time>
      </trkpt>
      <trkpt lat="45.03253" lon="3.09515">
        <ele>860.467442</ele>
        <time>2021-07-09T09:51:28+0200</time>
      </trkpt>
      <trkpt lat="45.03256" lon="3.09522">
        <ele>862.513509</ele>
        <time>2021-07-09T09:51:30+0200</time>
      </trkpt>
      <trkpt lat="45.03256" lon="3.0953">
        <ele>859.494231</ele>
        <time>2021-07-09T09:51:34+0200</time>
      </trkpt>
      <trkpt lat="45.03259" lon="3.09538">
        <ele>858.797942</ele>
        <time>2021-07-09T09:51:36+0200</time>
      </trkpt>
      <trkpt lat="45.03261" lon="3.0955">
        <ele>858.355685</ele>
        <time>2021-07-09T09:51:38+0200</time>
      </trkpt>
      <trkpt lat="45.03262" lon="3.09558">
        <ele>857.237006</ele>
        <time>2021-07-09T09:51:39+0200</time>
      </trkpt>
      <trkpt lat="45.03265" lon="3.09572">
        <ele>855.009521</ele>
        <time>2021-07-09T09:51:41+0200</time>
      </trkpt>
      <trkpt lat="45.03267" lon="3.09582">
        <ele>853.703797</ele>
        <time>2021-07-09T09:51:42+0200</time>
      </trkpt>
      <trkpt lat="45.03269" lon="3.09592">
        <ele>852.340187</ele>
        <time>2021-07-09T09:51:43+0200</time>
      </trkpt>
      <trkpt lat="45.03272" lon="3.09602">
        <ele>851.502715</ele>
        <time>2021-07-09T09:51:44+0200</time>
      </trkpt>
      <trkpt lat="45.03274" lon="3.09611">
        <ele>849.939681</ele>
        <time>2021-07-09T09:51:45+0200</time>
      </trkpt>
      <trkpt lat="45.03276" lon="3.09622">
        <ele>847.579683</ele>
        <time>2021-07-09T09:51:47+0200</time>
      </trkpt>
      <trkpt lat="45.03279" lon="3.09632">
        <ele>844.616388</ele>
        <time>2021-07-09T09:51:49+0200</time>
      </trkpt>
      <trkpt lat="45.03282" lon="3.09641">
        <ele>840.217024</ele>
        <time>2021-07-09T09:51:51+0200</time>
      </trkpt>
      <trkpt lat="45.03284" lon="3.09647">
        <ele>839.010743</ele>
        <time>2021-07-09T09:51:52+0200</time>
      </trkpt>
      <trkpt lat="45.03286" lon="3.09653">
        <ele>837.801485</ele>
        <time>2021-07-09T09:51:53+0200</time>
      </trkpt>
      <trkpt lat="45.03288" lon="3.0966">
        <ele>836.0243</ele>
        <time>2021-07-09T09:51:57+0200</time>
      </trkpt>
      <trkpt lat="45.0329" lon="3.09666">
        <ele>837.564441</ele>
        <time>2021-07-09T09:52:00+0200</time>
      </trkpt>
      <trkpt lat="45.03292" lon="3.09673">
        <ele>835.99287</ele>
        <time>2021-07-09T09:52:05+0200</time>
      </trkpt>
      <trkpt lat="45.03294" lon="3.09681">
        <ele>833.266166</ele>
        <time>2021-07-09T09:52:11+0200</time>
      </trkpt>
      <trkpt lat="45.03298" lon="3.09688">
        <ele>832.427622</ele>
        <time>2021-07-09T09:52:13+0200</time>
      </trkpt>
      <trkpt lat="45.03301" lon="3.09695">
        <ele>830.092143</ele>
        <time>2021-07-09T09:52:15+0200</time>
      </trkpt>
      <trkpt lat="45.03302" lon="3.09701">
        <ele>828.315174</ele>
        <time>2021-07-09T09:52:21+0200</time>
      </trkpt>
      <trkpt lat="45.03305" lon="3.09707">
        <ele>827.117517</ele>
        <time>2021-07-09T09:52:28+0200</time>
      </trkpt>
      <trkpt lat="45.03308" lon="3.09714">
        <ele>825.438349</ele>
        <time>2021-07-09T09:52:31+0200</time>
      </trkpt>
      <trkpt lat="45.03312" lon="3.09718">
        <ele>825.751092</ele>
        <time>2021-07-09T09:52:33+0200</time>
      </trkpt>
      <trkpt lat="45.03316" lon="3.09722">
        <ele>825.470226</ele>
        <time>2021-07-09T09:52:35+0200</time>
      </trkpt>
      <trkpt lat="45.03321" lon="3.09724">
        <ele>824.864344</ele>
        <time>2021-07-09T09:52:37+0200</time>
      </trkpt>
      <trkpt lat="45.03325" lon="3.09729">
        <ele>820.590224</ele>
        <time>2021-07-09T09:52:40+0200</time>
      </trkpt>
      <trkpt lat="45.0333" lon="3.09733">
        <ele>815.882752</ele>
        <time>2021-07-09T09:52:44+0200</time>
      </trkpt>
      <trkpt lat="45.0333" lon="3.0974">
        <ele>815.871202</ele>
        <time>2021-07-09T09:52:48+0200</time>
      </trkpt>
      <trkpt lat="45.03326" lon="3.09741">
        <ele>815.067697</ele>
        <time>2021-07-09T09:53:13+0200</time>
      </trkpt>
      <trkpt lat="45.03327" lon="3.09735">
        <ele>814.023271</ele>
        <time>2021-07-09T09:53:41+0200</time>
      </trkpt>
      <trkpt lat="45.03327" lon="3.09742">
        <ele>815.71327</ele>
        <time>2021-07-09T09:53:46+0200</time>
      </trkpt>
      <trkpt lat="45.03324" lon="3.09748">
        <ele>815.535999</ele>
        <time>2021-07-09T09:53:48+0200</time>
      </trkpt>
      <trkpt lat="45.03321" lon="3.09754">
        <ele>815.544285</ele>
        <time>2021-07-09T09:53:50+0200</time>
      </trkpt>
      <trkpt lat="45.03318" lon="3.0976">
        <ele>814.882175</ele>
        <time>2021-07-09T09:53:52+0200</time>
      </trkpt>
      <trkpt lat="45.03315" lon="3.09765">
        <ele>813.77705</ele>
        <time>2021-07-09T09:53:54+0200</time>
      </trkpt>
      <trkpt lat="45.03312" lon="3.09771">
        <ele>812.508655</ele>
        <time>2021-07-09T09:53:56+0200</time>
      </trkpt>
      <trkpt lat="45.03309" lon="3.09777">
        <ele>811.568726</ele>
        <time>2021-07-09T09:53:58+0200</time>
      </trkpt>
      <trkpt lat="45.03308" lon="3.09785">
        <ele>810.254364</ele>
        <time>2021-07-09T09:54:01+0200</time>
      </trkpt>
      <trkpt lat="45.03307" lon="3.09794">
        <ele>807.878105</ele>
        <time>2021-07-09T09:54:04+0200</time>
      </trkpt>
      <trkpt lat="45.03307" lon="3.09801">
        <ele>803.67228</ele>
        <time>2021-07-09T09:54:11+0200</time>
      </trkpt>
      <trkpt lat="45.03306" lon="3.09808">
        <ele>802.247176</ele>
        <time>2021-07-09T09:54:16+0200</time>
      </trkpt>
      <trkpt lat="45.03302" lon="3.09813">
        <ele>799.865015</ele>
        <time>2021-07-09T09:54:21+0200</time>
      </trkpt>
      <trkpt lat="45.03298" lon="3.09817">
        <ele>798.119981</ele>
        <time>2021-07-09T09:54:24+0200</time>
      </trkpt>
      <trkpt lat="45.03296" lon="3.09826">
        <ele>796.192016</ele>
        <time>2021-07-09T09:54:29+0200</time>
      </trkpt>
      <trkpt lat="45.03294" lon="3.09834">
        <ele>791.502682</ele>
        <time>2021-07-09T09:54:34+0200</time>
      </trkpt>
      <trkpt lat="45.03293" lon="3.09841">
        <ele>791.945044</ele>
        <time>2021-07-09T09:54:36+0200</time>
      </trkpt>
      <trkpt lat="45.03288" lon="3.09842">
        <ele>787.612268</ele>
        <time>2021-07-09T09:56:14+0200</time>
      </trkpt>
      <trkpt lat="45.03283" lon="3.09839">
        <ele>794.604096</ele>
        <time>2021-07-09T09:56:30+0200</time>
      </trkpt>
      <trkpt lat="45.03279" lon="3.09845">
        <ele>794.349531</ele>
        <time>2021-07-09T09:57:27+0200</time>
      </trkpt>
      <trkpt lat="45.03276" lon="3.09852">
        <ele>795.308543</ele>
        <time>2021-07-09T09:57:29+0200</time>
      </trkpt>
      <trkpt lat="45.03272" lon="3.09857">
        <ele>792.361296</ele>
        <time>2021-07-09T09:57:33+0200</time>
      </trkpt>
      <trkpt lat="45.03277" lon="3.09861">
        <ele>796.860715</ele>
        <time>2021-07-09T09:57:39+0200</time>
      </trkpt>
      <trkpt lat="45.03283" lon="3.09861">
        <ele>795.222051</ele>
        <time>2021-07-09T09:57:42+0200</time>
      </trkpt>
      <trkpt lat="45.03287" lon="3.09868">
        <ele>794.983051</ele>
        <time>2021-07-09T09:57:45+0200</time>
      </trkpt>
      <trkpt lat="45.03287" lon="3.09875">
        <ele>796.993788</ele>
        <time>2021-07-09T09:57:49+0200</time>
      </trkpt>
      <trkpt lat="45.03288" lon="3.09883">
        <ele>798.302598</ele>
        <time>2021-07-09T09:57:51+0200</time>
      </trkpt>
      <trkpt lat="45.03284" lon="3.09894">
        <ele>795.675793</ele>
        <time>2021-07-09T09:57:53+0200</time>
      </trkpt>
      <trkpt lat="45.03279" lon="3.09899">
        <ele>797.858892</ele>
        <time>2021-07-09T09:57:55+0200</time>
      </trkpt>
      <trkpt lat="45.03275" lon="3.09903">
        <ele>798.640667</ele>
        <time>2021-07-09T09:57:56+0200</time>
      </trkpt>
      <trkpt lat="45.03275" lon="3.09917">
        <ele>797.489484</ele>
        <time>2021-07-09T09:57:57+0200</time>
      </trkpt>
      <trkpt lat="45.03274" lon="3.09928">
        <ele>797.463028</ele>
        <time>2021-07-09T09:57:58+0200</time>
      </trkpt>
      <trkpt lat="45.03274" lon="3.09935">
        <ele>798.274718</ele>
        <time>2021-07-09T09:57:59+0200</time>
      </trkpt>
      <trkpt lat="45.03272" lon="3.0995">
        <ele>800.708763</ele>
        <time>2021-07-09T09:58:01+0200</time>
      </trkpt>
      <trkpt lat="45.03271" lon="3.0996">
        <ele>801.151362</ele>
        <time>2021-07-09T09:58:02+0200</time>
      </trkpt>
      <trkpt lat="45.03266" lon="3.09971">
        <ele>801.334397</ele>
        <time>2021-07-09T09:58:03+0200</time>
      </trkpt>
      <trkpt lat="45.03262" lon="3.09978">
        <ele>801.089025</ele>
        <time>2021-07-09T09:58:04+0200</time>
      </trkpt>
      <trkpt lat="45.0326" lon="3.09985">
        <ele>799.890928</ele>
        <time>2021-07-09T09:58:05+0200</time>
      </trkpt>
      <trkpt lat="45.03256" lon="3.09992">
        <ele>793.153961</ele>
        <time>2021-07-09T09:58:09+0200</time>
      </trkpt>
      <trkpt lat="45.03259" lon="3.09999">
        <ele>792.730335</ele>
        <time>2021-07-09T09:58:11+0200</time>
      </trkpt>
      <trkpt lat="45.03264" lon="3.10006">
        <ele>790.887997</ele>
        <time>2021-07-09T09:58:13+0200</time>
      </trkpt>
      <trkpt lat="45.03268" lon="3.10011">
        <ele>789.405434</ele>
        <time>2021-07-09T09:58:15+0200</time>
      </trkpt>
      <trkpt lat="45.03273" lon="3.10014">
        <ele>789.250895</ele>
        <time>2021-07-09T09:58:17+0200</time>
      </trkpt>
      <trkpt lat="45.03277" lon="3.10016">
        <ele>790.483473</ele>
        <time>2021-07-09T09:58:20+0200</time>
      </trkpt>
      <trkpt lat="45.03277" lon="3.10025">
        <ele>788.632311</ele>
        <time>2021-07-09T09:58:24+0200</time>
      </trkpt>
      <trkpt lat="45.03273" lon="3.10031">
        <ele>786.489698</ele>
        <time>2021-07-09T09:58:26+0200</time>
      </trkpt>
      <trkpt lat="45.03268" lon="3.10039">
        <ele>783.39077</ele>
        <time>2021-07-09T09:58:28+0200</time>
      </trkpt>
      <trkpt lat="45.03266" lon="3.10048">
        <ele>782.181193</ele>
        <time>2021-07-09T09:58:29+0200</time>
      </trkpt>
      <trkpt lat="45.03264" lon="3.10056">
        <ele>781.856187</ele>
        <time>2021-07-09T09:58:30+0200</time>
      </trkpt>
      <trkpt lat="45.03261" lon="3.10063">
        <ele>780.994739</ele>
        <time>2021-07-09T09:58:31+0200</time>
      </trkpt>
      <trkpt lat="45.03258" lon="3.10069">
        <ele>779.030768</ele>
        <time>2021-07-09T09:58:32+0200</time>
      </trkpt>
      <trkpt lat="45.03259" lon="3.10083">
        <ele>777.744525</ele>
        <time>2021-07-09T09:58:34+0200</time>
      </trkpt>
      <trkpt lat="45.03257" lon="3.1009">
        <ele>777.153265</ele>
        <time>2021-07-09T09:58:35+0200</time>
      </trkpt>
      <trkpt lat="45.03255" lon="3.101">
        <ele>776.338297</ele>
        <time>2021-07-09T09:58:37+0200</time>
      </trkpt>
      <trkpt lat="45.03252" lon="3.10107">
        <ele>775.278973</ele>
        <time>2021-07-09T09:58:39+0200</time>
      </trkpt>
      <trkpt lat="45.03256" lon="3.10115">
        <ele>775.516052</ele>
        <time>2021-07-09T09:58:42+0200</time>
      </trkpt>
      <trkpt lat="45.03254" lon="3.10121">
        <ele>775.129851</ele>
        <time>2021-07-09T09:58:44+0200</time>
      </trkpt>
      <trkpt lat="45.03253" lon="3.10129">
        <ele>775.200391</ele>
        <time>2021-07-09T09:58:46+0200</time>
      </trkpt>
      <trkpt lat="45.03251" lon="3.10137">
        <ele>775.063026</ele>
        <time>2021-07-09T09:58:48+0200</time>
      </trkpt>
      <trkpt lat="45.0325" lon="3.10144">
        <ele>775.392067</ele>
        <time>2021-07-09T09:58:50+0200</time>
      </trkpt>
      <trkpt lat="45.03249" lon="3.10151">
        <ele>775.126031</ele>
        <time>2021-07-09T09:58:52+0200</time>
      </trkpt>
      <trkpt lat="45.03247" lon="3.10158">
        <ele>775.540565</ele>
        <time>2021-07-09T09:58:53+0200</time>
      </trkpt>
      <trkpt lat="45.03245" lon="3.10165">
        <ele>775.495029</ele>
        <time>2021-07-09T09:58:57+0200</time>
      </trkpt>
      <trkpt lat="45.03245" lon="3.10172">
        <ele>775.740134</ele>
        <time>2021-07-09T09:59:00+0200</time>
      </trkpt>
      <trkpt lat="45.03249" lon="3.10169">
        <ele>776.222785</ele>
        <time>2021-07-09T09:59:04+0200</time>
      </trkpt>
      <trkpt lat="45.03247" lon="3.10162">
        <ele>774.969753</ele>
        <time>2021-07-09T09:59:07+0200</time>
      </trkpt>
      <trkpt lat="45.03249" lon="3.10155">
        <ele>775.816535</ele>
        <time>2021-07-09T09:59:09+0200</time>
      </trkpt>
      <trkpt lat="45.0325" lon="3.10148">
        <ele>776.152416</ele>
        <time>2021-07-09T09:59:11+0200</time>
      </trkpt>
      <trkpt lat="45.03252" lon="3.10141">
        <ele>776.757682</ele>
        <time>2021-07-09T09:59:13+0200</time>
      </trkpt>
      <trkpt lat="45.03253" lon="3.10133">
        <ele>775.912345</ele>
        <time>2021-07-09T09:59:15+0200</time>
      </trkpt>
      <trkpt lat="45.03254" lon="3.10125">
        <ele>774.966461</ele>
        <time>2021-07-09T09:59:17+0200</time>
      </trkpt>
      <trkpt lat="45.03255" lon="3.10118">
        <ele>774.494165</ele>
        <time>2021-07-09T09:59:19+0200</time>
      </trkpt>
      <trkpt lat="45.03254" lon="3.10111">
        <ele>773.551877</ele>
        <time>2021-07-09T09:59:21+0200</time>
      </trkpt>
      <trkpt lat="45.03254" lon="3.10103">
        <ele>774.257555</ele>
        <time>2021-07-09T09:59:23+0200</time>
      </trkpt>
      <trkpt lat="45.03255" lon="3.10097">
        <ele>774.095159</ele>
        <time>2021-07-09T09:59:27+0200</time>
      </trkpt>
      <trkpt lat="45.03258" lon="3.1009">
        <ele>775.182543</ele>
        <time>2021-07-09T09:59:29+0200</time>
      </trkpt>
      <trkpt lat="45.0326" lon="3.1008">
        <ele>775.430887</ele>
        <time>2021-07-09T09:59:32+0200</time>
      </trkpt>
      <trkpt lat="45.03261" lon="3.10071">
        <ele>775.939325</ele>
        <time>2021-07-09T09:59:34+0200</time>
      </trkpt>
      <trkpt lat="45.03263" lon="3.10063">
        <ele>775.552716</ele>
        <time>2021-07-09T09:59:36+0200</time>
      </trkpt>
      <trkpt lat="45.03266" lon="3.10055">
        <ele>774.975836</ele>
        <time>2021-07-09T09:59:38+0200</time>
      </trkpt>
      <trkpt lat="45.03269" lon="3.10046">
        <ele>773.275157</ele>
        <time>2021-07-09T09:59:40+0200</time>
      </trkpt>
      <trkpt lat="45.03273" lon="3.10037">
        <ele>774.020267</ele>
        <time>2021-07-09T09:59:42+0200</time>
      </trkpt>
      <trkpt lat="45.03275" lon="3.1003">
        <ele>774.747386</ele>
        <time>2021-07-09T09:59:44+0200</time>
      </trkpt>
      <trkpt lat="45.03277" lon="3.10023">
        <ele>773.806742</ele>
        <time>2021-07-09T09:59:46+0200</time>
      </trkpt>
      <trkpt lat="45.03282" lon="3.10025">
        <ele>775.841227</ele>
        <time>2021-07-09T09:59:49+0200</time>
      </trkpt>
      <trkpt lat="45.03287" lon="3.10031">
        <ele>776.405573</ele>
        <time>2021-07-09T09:59:51+0200</time>
      </trkpt>
      <trkpt lat="45.03292" lon="3.10035">
        <ele>777.244646</ele>
        <time>2021-07-09T09:59:53+0200</time>
      </trkpt>
      <trkpt lat="45.03298" lon="3.1004">
        <ele>777.255594</ele>
        <time>2021-07-09T09:59:56+0200</time>
      </trkpt>
      <trkpt lat="45.03302" lon="3.10046">
        <ele>777.25916</ele>
        <time>2021-07-09T09:59:58+0200</time>
      </trkpt>
      <trkpt lat="45.03307" lon="3.1005">
        <ele>778.137817</ele>
        <time>2021-07-09T10:00:00+0200</time>
      </trkpt>
      <trkpt lat="45.03311" lon="3.10054">
        <ele>777.616064</ele>
        <time>2021-07-09T10:00:02+0200</time>
      </trkpt>
      <trkpt lat="45.03317" lon="3.10058">
        <ele>778.105384</ele>
        <time>2021-07-09T10:00:04+0200</time>
      </trkpt>
      <trkpt lat="45.03321" lon="3.10062">
        <ele>779.181912</ele>
        <time>2021-07-09T10:00:06+0200</time>
      </trkpt>
      <trkpt lat="45.03327" lon="3.10065">
        <ele>780.2168</ele>
        <time>2021-07-09T10:00:08+0200</time>
      </trkpt>
      <trkpt lat="45.03333" lon="3.10067">
        <ele>782.098076</ele>
        <time>2021-07-09T10:00:10+0200</time>
      </trkpt>
      <trkpt lat="45.03339" lon="3.10069">
        <ele>783.880364</ele>
        <time>2021-07-09T10:00:12+0200</time>
      </trkpt>
      <trkpt lat="45.03344" lon="3.10075">
        <ele>784.943902</ele>
        <time>2021-07-09T10:00:14+0200</time>
      </trkpt>
      <trkpt lat="45.03345" lon="3.10085">
        <ele>784.362335</ele>
        <time>2021-07-09T10:00:16+0200</time>
      </trkpt>
      <trkpt lat="45.03348" lon="3.10095">
        <ele>783.91126</ele>
        <time>2021-07-09T10:00:18+0200</time>
      </trkpt>
      <trkpt lat="45.03348" lon="3.10106">
        <ele>784.207528</ele>
        <time>2021-07-09T10:00:20+0200</time>
      </trkpt>
      <trkpt lat="45.03348" lon="3.10114">
        <ele>784.885538</ele>
        <time>2021-07-09T10:00:22+0200</time>
      </trkpt>
      <trkpt lat="45.03347" lon="3.10124">
        <ele>784.887915</ele>
        <time>2021-07-09T10:00:24+0200</time>
      </trkpt>
      <trkpt lat="45.03347" lon="3.10134">
        <ele>785.023129</ele>
        <time>2021-07-09T10:00:26+0200</time>
      </trkpt>
      <trkpt lat="45.03348" lon="3.10144">
        <ele>785.037391</ele>
        <time>2021-07-09T10:00:28+0200</time>
      </trkpt>
      <trkpt lat="45.03349" lon="3.10154">
        <ele>784.529594</ele>
        <time>2021-07-09T10:00:30+0200</time>
      </trkpt>
      <trkpt lat="45.0335" lon="3.10165">
        <ele>783.384367</ele>
        <time>2021-07-09T10:00:32+0200</time>
      </trkpt>
      <trkpt lat="45.03347" lon="3.10175">
        <ele>783.772951</ele>
        <time>2021-07-09T10:00:34+0200</time>
      </trkpt>
      <trkpt lat="45.03339" lon="3.10177">
        <ele>784.156722</ele>
        <time>2021-07-09T10:00:36+0200</time>
      </trkpt>
      <trkpt lat="45.0333" lon="3.10175">
        <ele>782.293487</ele>
        <time>2021-07-09T10:00:38+0200</time>
      </trkpt>
      <trkpt lat="45.03324" lon="3.10182">
        <ele>784.046523</ele>
        <time>2021-07-09T10:00:40+0200</time>
      </trkpt>
      <trkpt lat="45.03324" lon="3.10191">
        <ele>784.646153</ele>
        <time>2021-07-09T10:00:42+0200</time>
      </trkpt>
      <trkpt lat="45.03325" lon="3.10198">
        <ele>784.319315</ele>
        <time>2021-07-09T10:00:43+0200</time>
      </trkpt>
      <trkpt lat="45.03323" lon="3.10207">
        <ele>784.179531</ele>
        <time>2021-07-09T10:00:45+0200</time>
      </trkpt>
      <trkpt lat="45.0332" lon="3.10215">
        <ele>783.987715</ele>
        <time>2021-07-09T10:00:47+0200</time>
      </trkpt>
      <trkpt lat="45.03315" lon="3.10213">
        <ele>783.535946</ele>
        <time>2021-07-09T10:00:49+0200</time>
      </trkpt>
      <trkpt lat="45.03309" lon="3.10215">
        <ele>786.224873</ele>
        <time>2021-07-09T10:00:51+0200</time>
      </trkpt>
      <trkpt lat="45.03303" lon="3.10216">
        <ele>785.506893</ele>
        <time>2021-07-09T10:00:53+0200</time>
      </trkpt>
      <trkpt lat="45.03297" lon="3.10215">
        <ele>784.684204</ele>
        <time>2021-07-09T10:00:55+0200</time>
      </trkpt>
      <trkpt lat="45.0329" lon="3.10215">
        <ele>785.346637</ele>
        <time>2021-07-09T10:00:57+0200</time>
      </trkpt>
      <trkpt lat="45.03282" lon="3.10215">
        <ele>785.023933</ele>
        <time>2021-07-09T10:00:59+0200</time>
      </trkpt>
      <trkpt lat="45.03274" lon="3.10215">
        <ele>785.213161</ele>
        <time>2021-07-09T10:01:01+0200</time>
      </trkpt>
      <trkpt lat="45.03269" lon="3.10216">
        <ele>781.901276</ele>
        <time>2021-07-09T10:01:04+0200</time>
      </trkpt>
      <trkpt lat="45.03267" lon="3.10223">
        <ele>775.899882</ele>
        <time>2021-07-09T10:01:12+0200</time>
      </trkpt>
      <trkpt lat="45.03266" lon="3.10233">
        <ele>774.959575</ele>
        <time>2021-07-09T10:01:14+0200</time>
      </trkpt>
      <trkpt lat="45.03264" lon="3.10242">
        <ele>775.319775</ele>
        <time>2021-07-09T10:01:16+0200</time>
      </trkpt>
      <trkpt lat="45.03259" lon="3.10248">
        <ele>775.128134</ele>
        <time>2021-07-09T10:01:18+0200</time>
      </trkpt>
      <trkpt lat="45.03255" lon="3.10257">
        <ele>775.297175</ele>
        <time>2021-07-09T10:01:20+0200</time>
      </trkpt>
      <trkpt lat="45.03252" lon="3.10266">
        <ele>775.916205</ele>
        <time>2021-07-09T10:01:22+0200</time>
      </trkpt>
      <trkpt lat="45.0325" lon="3.10272">
        <ele>777.410478</ele>
        <time>2021-07-09T10:01:24+0200</time>
      </trkpt>
      <trkpt lat="45.03247" lon="3.1028">
        <ele>779.001586</ele>
        <time>2021-07-09T10:01:26+0200</time>
      </trkpt>
      <trkpt lat="45.03245" lon="3.1029">
        <ele>781.15598</ele>
        <time>2021-07-09T10:01:28+0200</time>
      </trkpt>
      <trkpt lat="45.03244" lon="3.103">
        <ele>782.279639</ele>
        <time>2021-07-09T10:01:30+0200</time>
      </trkpt>
      <trkpt lat="45.03243" lon="3.10312">
        <ele>783.595231</ele>
        <time>2021-07-09T10:01:32+0200</time>
      </trkpt>
      <trkpt lat="45.03242" lon="3.1032">
        <ele>784.777315</ele>
        <time>2021-07-09T10:01:34+0200</time>
      </trkpt>
      <trkpt lat="45.03239" lon="3.1033">
        <ele>787.52935</ele>
        <time>2021-07-09T10:01:36+0200</time>
      </trkpt>
      <trkpt lat="45.03236" lon="3.1034">
        <ele>788.245548</ele>
        <time>2021-07-09T10:01:38+0200</time>
      </trkpt>
      <trkpt lat="45.03236" lon="3.10347">
        <ele>785.639456</ele>
        <time>2021-07-09T10:01:39+0200</time>
      </trkpt>
      <trkpt lat="45.03235" lon="3.10354">
        <ele>783.249221</ele>
        <time>2021-07-09T10:01:40+0200</time>
      </trkpt>
      <trkpt lat="45.03237" lon="3.10364">
        <ele>781.080177</ele>
        <time>2021-07-09T10:01:42+0200</time>
      </trkpt>
      <trkpt lat="45.0324" lon="3.10375">
        <ele>781.069039</ele>
        <time>2021-07-09T10:01:44+0200</time>
      </trkpt>
      <trkpt lat="45.03242" lon="3.10388">
        <ele>780.342774</ele>
        <time>2021-07-09T10:01:46+0200</time>
      </trkpt>
      <trkpt lat="45.03242" lon="3.10396">
        <ele>779.767377</ele>
        <time>2021-07-09T10:01:47+0200</time>
      </trkpt>
      <trkpt lat="45.03242" lon="3.10404">
        <ele>779.052328</ele>
        <time>2021-07-09T10:01:48+0200</time>
      </trkpt>
      <trkpt lat="45.03244" lon="3.10413">
        <ele>778.590887</ele>
        <time>2021-07-09T10:01:49+0200</time>
      </trkpt>
      <trkpt lat="45.03245" lon="3.10421">
        <ele>779.053522</ele>
        <time>2021-07-09T10:01:50+0200</time>
      </trkpt>
      <trkpt lat="45.03248" lon="3.10435">
        <ele>778.572149</ele>
        <time>2021-07-09T10:01:52+0200</time>
      </trkpt>
      <trkpt lat="45.03249" lon="3.10447">
        <ele>776.84462</ele>
        <time>2021-07-09T10:01:54+0200</time>
      </trkpt>
      <trkpt lat="45.0325" lon="3.10454">
        <ele>776.325429</ele>
        <time>2021-07-09T10:01:55+0200</time>
      </trkpt>
      <trkpt lat="45.03252" lon="3.10461">
        <ele>776.011532</ele>
        <time>2021-07-09T10:01:56+0200</time>
      </trkpt>
      <trkpt lat="45.03253" lon="3.10469">
        <ele>775.743374</ele>
        <time>2021-07-09T10:01:57+0200</time>
      </trkpt>
      <trkpt lat="45.03256" lon="3.10474">
        <ele>777.058173</ele>
        <time>2021-07-09T10:01:58+0200</time>
      </trkpt>
      <trkpt lat="45.03259" lon="3.10481">
        <ele>777.243211</ele>
        <time>2021-07-09T10:01:59+0200</time>
      </trkpt>
      <trkpt lat="45.0326" lon="3.10489">
        <ele>776.864969</ele>
        <time>2021-07-09T10:02:00+0200</time>
      </trkpt>
      <trkpt lat="45.03262" lon="3.10499">
        <ele>778.372326</ele>
        <time>2021-07-09T10:02:02+0200</time>
      </trkpt>
      <trkpt lat="45.03263" lon="3.10511">
        <ele>779.407342</ele>
        <time>2021-07-09T10:02:04+0200</time>
      </trkpt>
      <trkpt lat="45.03264" lon="3.10526">
        <ele>780.009909</ele>
        <time>2021-07-09T10:02:06+0200</time>
      </trkpt>
      <trkpt lat="45.03265" lon="3.10533">
        <ele>779.345003</ele>
        <time>2021-07-09T10:02:07+0200</time>
      </trkpt>
      <trkpt lat="45.03267" lon="3.10545">
        <ele>779.424361</ele>
        <time>2021-07-09T10:02:09+0200</time>
      </trkpt>
      <trkpt lat="45.0327" lon="3.10554">
        <ele>777.677307</ele>
        <time>2021-07-09T10:02:11+0200</time>
      </trkpt>
      <trkpt lat="45.03271" lon="3.10566">
        <ele>776.826483</ele>
        <time>2021-07-09T10:02:13+0200</time>
      </trkpt>
      <trkpt lat="45.0327" lon="3.10572">
        <ele>776.842854</ele>
        <time>2021-07-09T10:02:14+0200</time>
      </trkpt>
      <trkpt lat="45.03271" lon="3.10578">
        <ele>776.186783</ele>
        <time>2021-07-09T10:02:15+0200</time>
      </trkpt>
      <trkpt lat="45.03271" lon="3.1059">
        <ele>776.55079</ele>
        <time>2021-07-09T10:02:17+0200</time>
      </trkpt>
      <trkpt lat="45.03272" lon="3.10597">
        <ele>777.157827</ele>
        <time>2021-07-09T10:02:18+0200</time>
      </trkpt>
      <trkpt lat="45.03272" lon="3.10604">
        <ele>777.037212</ele>
        <time>2021-07-09T10:02:19+0200</time>
      </trkpt>
      <trkpt lat="45.03271" lon="3.10613">
        <ele>775.966214</ele>
        <time>2021-07-09T10:02:20+0200</time>
      </trkpt>
      <trkpt lat="45.03271" lon="3.10621">
        <ele>775.302352</ele>
        <time>2021-07-09T10:02:21+0200</time>
      </trkpt>
      <trkpt lat="45.0327" lon="3.10629">
        <ele>774.492008</ele>
        <time>2021-07-09T10:02:22+0200</time>
      </trkpt>
      <trkpt lat="45.0327" lon="3.10636">
        <ele>773.576389</ele>
        <time>2021-07-09T10:02:23+0200</time>
      </trkpt>
      <trkpt lat="45.0327" lon="3.10643">
        <ele>773.188791</ele>
        <time>2021-07-09T10:02:24+0200</time>
      </trkpt>
      <trkpt lat="45.0327" lon="3.1065">
        <ele>772.232192</ele>
        <time>2021-07-09T10:02:25+0200</time>
      </trkpt>
      <trkpt lat="45.0327" lon="3.10657">
        <ele>771.624654</ele>
        <time>2021-07-09T10:02:26+0200</time>
      </trkpt>
      <trkpt lat="45.03268" lon="3.10669">
        <ele>772.21829</ele>
        <time>2021-07-09T10:02:28+0200</time>
      </trkpt>
      <trkpt lat="45.03268" lon="3.10676">
        <ele>772.666414</ele>
        <time>2021-07-09T10:02:29+0200</time>
      </trkpt>
      <trkpt lat="45.03268" lon="3.10682">
        <ele>772.802731</ele>
        <time>2021-07-09T10:02:30+0200</time>
      </trkpt>
      <trkpt lat="45.03269" lon="3.10695">
        <ele>772.725009</ele>
        <time>2021-07-09T10:02:32+0200</time>
      </trkpt>
      <trkpt lat="45.0327" lon="3.10702">
        <ele>773.233494</ele>
        <time>2021-07-09T10:02:33+0200</time>
      </trkpt>
      <trkpt lat="45.03269" lon="3.10715">
        <ele>774.215729</ele>
        <time>2021-07-09T10:02:35+0200</time>
      </trkpt>
      <trkpt lat="45.03268" lon="3.10726">
        <ele>774.771356</ele>
        <time>2021-07-09T10:02:37+0200</time>
      </trkpt>
      <trkpt lat="45.03266" lon="3.1074">
        <ele>773.694741</ele>
        <time>2021-07-09T10:02:39+0200</time>
      </trkpt>
      <trkpt lat="45.03264" lon="3.10752">
        <ele>772.954767</ele>
        <time>2021-07-09T10:02:41+0200</time>
      </trkpt>
      <trkpt lat="45.03265" lon="3.10759">
        <ele>773.562061</ele>
        <time>2021-07-09T10:02:42+0200</time>
      </trkpt>
      <trkpt lat="45.03264" lon="3.10767">
        <ele>772.623891</ele>
        <time>2021-07-09T10:02:43+0200</time>
      </trkpt>
      <trkpt lat="45.03263" lon="3.10774">
        <ele>772.091744</ele>
        <time>2021-07-09T10:02:44+0200</time>
      </trkpt>
      <trkpt lat="45.03263" lon="3.1078">
        <ele>772.035987</ele>
        <time>2021-07-09T10:02:45+0200</time>
      </trkpt>
      <trkpt lat="45.03262" lon="3.10787">
        <ele>772.832394</ele>
        <time>2021-07-09T10:02:46+0200</time>
      </trkpt>
      <trkpt lat="45.03261" lon="3.10794">
        <ele>774.113901</ele>
        <time>2021-07-09T10:02:47+0200</time>
      </trkpt>
      <trkpt lat="45.0326" lon="3.10805">
        <ele>776.288387</ele>
        <time>2021-07-09T10:02:49+0200</time>
      </trkpt>
      <trkpt lat="45.03261" lon="3.10815">
        <ele>778.365657</ele>
        <time>2021-07-09T10:02:51+0200</time>
      </trkpt>
      <trkpt lat="45.0326" lon="3.10823">
        <ele>780.790707</ele>
        <time>2021-07-09T10:02:53+0200</time>
      </trkpt>
      <trkpt lat="45.03261" lon="3.10835">
        <ele>780.384719</ele>
        <time>2021-07-09T10:02:55+0200</time>
      </trkpt>
      <trkpt lat="45.03261" lon="3.10847">
        <ele>780.202491</ele>
        <time>2021-07-09T10:02:57+0200</time>
      </trkpt>
      <trkpt lat="45.03262" lon="3.10853">
        <ele>778.214954</ele>
        <time>2021-07-09T10:02:58+0200</time>
      </trkpt>
      <trkpt lat="45.03265" lon="3.10864">
        <ele>776.9107</ele>
        <time>2021-07-09T10:03:00+0200</time>
      </trkpt>
      <trkpt lat="45.03268" lon="3.10869">
        <ele>775.839353</ele>
        <time>2021-07-09T10:03:01+0200</time>
      </trkpt>
      <trkpt lat="45.03273" lon="3.10874">
        <ele>774.029091</ele>
        <time>2021-07-09T10:03:03+0200</time>
      </trkpt>
      <trkpt lat="45.03279" lon="3.10876">
        <ele>773.447164</ele>
        <time>2021-07-09T10:03:05+0200</time>
      </trkpt>
      <trkpt lat="45.03286" lon="3.10877">
        <ele>772.002711</ele>
        <time>2021-07-09T10:03:07+0200</time>
      </trkpt>
      <trkpt lat="45.03291" lon="3.10883">
        <ele>772.803576</ele>
        <time>2021-07-09T10:03:10+0200</time>
      </trkpt>
      <trkpt lat="45.03296" lon="3.10887">
        <ele>771.864535</ele>
        <time>2021-07-09T10:03:12+0200</time>
      </trkpt>
      <trkpt lat="45.03301" lon="3.10892">
        <ele>772.272714</ele>
        <time>2021-07-09T10:03:14+0200</time>
      </trkpt>
      <trkpt lat="45.03307" lon="3.10899">
        <ele>774.168511</ele>
        <time>2021-07-09T10:03:16+0200</time>
      </trkpt>
      <trkpt lat="45.0331" lon="3.10905">
        <ele>774.618794</ele>
        <time>2021-07-09T10:03:17+0200</time>
      </trkpt>
      <trkpt lat="45.03314" lon="3.10913">
        <ele>774.039889</ele>
        <time>2021-07-09T10:03:19+0200</time>
      </trkpt>
      <trkpt lat="45.03318" lon="3.10921">
        <ele>771.674937</ele>
        <time>2021-07-09T10:03:21+0200</time>
      </trkpt>
      <trkpt lat="45.03323" lon="3.1093">
        <ele>770.116525</ele>
        <time>2021-07-09T10:03:23+0200</time>
      </trkpt>
      <trkpt lat="45.03327" lon="3.10939">
        <ele>768.318119</ele>
        <time>2021-07-09T10:03:25+0200</time>
      </trkpt>
      <trkpt lat="45.03332" lon="3.10947">
        <ele>765.886345</ele>
        <time>2021-07-09T10:03:27+0200</time>
      </trkpt>
      <trkpt lat="45.03335" lon="3.10952">
        <ele>767.698173</ele>
        <time>2021-07-09T10:03:28+0200</time>
      </trkpt>
      <trkpt lat="45.03338" lon="3.10957">
        <ele>768.22801</ele>
        <time>2021-07-09T10:03:29+0200</time>
      </trkpt>
      <trkpt lat="45.03344" lon="3.10964">
        <ele>767.157447</ele>
        <time>2021-07-09T10:03:31+0200</time>
      </trkpt>
      <trkpt lat="45.03348" lon="3.1097">
        <ele>769.034786</ele>
        <time>2021-07-09T10:03:33+0200</time>
      </trkpt>
      <trkpt lat="45.03352" lon="3.10975">
        <ele>771.408348</ele>
        <time>2021-07-09T10:03:36+0200</time>
      </trkpt>
      <trkpt lat="45.03357" lon="3.10975">
        <ele>773.011765</ele>
        <time>2021-07-09T10:03:38+0200</time>
      </trkpt>
      <trkpt lat="45.03363" lon="3.10975">
        <ele>773.948821</ele>
        <time>2021-07-09T10:03:40+0200</time>
      </trkpt>
      <trkpt lat="45.03369" lon="3.10975">
        <ele>777.14311</ele>
        <time>2021-07-09T10:03:43+0200</time>
      </trkpt>
      <trkpt lat="45.03374" lon="3.10977">
        <ele>777.261833</ele>
        <time>2021-07-09T10:03:45+0200</time>
      </trkpt>
      <trkpt lat="45.03379" lon="3.1098">
        <ele>778.740079</ele>
        <time>2021-07-09T10:03:47+0200</time>
      </trkpt>
      <trkpt lat="45.03384" lon="3.1098">
        <ele>779.902934</ele>
        <time>2021-07-09T10:03:49+0200</time>
      </trkpt>
      <trkpt lat="45.03388" lon="3.10979">
        <ele>781.202835</ele>
        <time>2021-07-09T10:03:52+0200</time>
      </trkpt>
      <trkpt lat="45.03391" lon="3.10985">
        <ele>783.657365</ele>
        <time>2021-07-09T10:03:58+0200</time>
      </trkpt>
      <trkpt lat="45.03392" lon="3.10992">
        <ele>783.770966</ele>
        <time>2021-07-09T10:04:02+0200</time>
      </trkpt>
      <trkpt lat="45.03392" lon="3.11">
        <ele>784.857265</ele>
        <time>2021-07-09T10:04:04+0200</time>
      </trkpt>
      <trkpt lat="45.03392" lon="3.11007">
        <ele>785.097579</ele>
        <time>2021-07-09T10:04:06+0200</time>
      </trkpt>
      <trkpt lat="45.03391" lon="3.11014">
        <ele>785.042778</ele>
        <time>2021-07-09T10:04:08+0200</time>
      </trkpt>
      <trkpt lat="45.0339" lon="3.11022">
        <ele>784.853882</ele>
        <time>2021-07-09T10:04:10+0200</time>
      </trkpt>
      <trkpt lat="45.03389" lon="3.1103">
        <ele>784.985243</ele>
        <time>2021-07-09T10:04:12+0200</time>
      </trkpt>
      <trkpt lat="45.03387" lon="3.11039">
        <ele>784.684869</ele>
        <time>2021-07-09T10:04:14+0200</time>
      </trkpt>
      <trkpt lat="45.03384" lon="3.11049">
        <ele>785.607793</ele>
        <time>2021-07-09T10:04:16+0200</time>
      </trkpt>
      <trkpt lat="45.03383" lon="3.11058">
        <ele>786.642402</ele>
        <time>2021-07-09T10:04:18+0200</time>
      </trkpt>
      <trkpt lat="45.03382" lon="3.11064">
        <ele>784.47698</ele>
        <time>2021-07-09T10:04:19+0200</time>
      </trkpt>
      <trkpt lat="45.03379" lon="3.11073">
        <ele>784.274141</ele>
        <time>2021-07-09T10:04:21+0200</time>
      </trkpt>
      <trkpt lat="45.03376" lon="3.11079">
        <ele>786.390493</ele>
        <time>2021-07-09T10:04:23+0200</time>
      </trkpt>
      <trkpt lat="45.0337" lon="3.11084">
        <ele>787.362942</ele>
        <time>2021-07-09T10:04:25+0200</time>
      </trkpt>
      <trkpt lat="45.03365" lon="3.11089">
        <ele>789.706672</ele>
        <time>2021-07-09T10:04:27+0200</time>
      </trkpt>
      <trkpt lat="45.03359" lon="3.11092">
        <ele>790.776489</ele>
        <time>2021-07-09T10:04:29+0200</time>
      </trkpt>
      <trkpt lat="45.03354" lon="3.11092">
        <ele>792.740916</ele>
        <time>2021-07-09T10:04:31+0200</time>
      </trkpt>
      <trkpt lat="45.03349" lon="3.11094">
        <ele>793.495743</ele>
        <time>2021-07-09T10:04:33+0200</time>
      </trkpt>
      <trkpt lat="45.03344" lon="3.11096">
        <ele>795.163448</ele>
        <time>2021-07-09T10:04:35+0200</time>
      </trkpt>
      <trkpt lat="45.03339" lon="3.11099">
        <ele>795.44613</ele>
        <time>2021-07-09T10:04:36+0200</time>
      </trkpt>
      <trkpt lat="45.03331" lon="3.111">
        <ele>794.464397</ele>
        <time>2021-07-09T10:04:38+0200</time>
      </trkpt>
      <trkpt lat="45.03325" lon="3.11103">
        <ele>793.956193</ele>
        <time>2021-07-09T10:04:40+0200</time>
      </trkpt>
      <trkpt lat="45.03319" lon="3.11105">
        <ele>793.833231</ele>
        <time>2021-07-09T10:04:43+0200</time>
      </trkpt>
      <trkpt lat="45.03314" lon="3.11111">
        <ele>792.416364</ele>
        <time>2021-07-09T10:04:44+0200</time>
      </trkpt>
      <trkpt lat="45.03308" lon="3.11116">
        <ele>789.674847</ele>
        <time>2021-07-09T10:04:46+0200</time>
      </trkpt>
      <trkpt lat="45.03301" lon="3.1112">
        <ele>788.259202</ele>
        <time>2021-07-09T10:04:48+0200</time>
      </trkpt>
      <trkpt lat="45.03296" lon="3.11122">
        <ele>787.507768</ele>
        <time>2021-07-09T10:04:50+0200</time>
      </trkpt>
      <trkpt lat="45.03291" lon="3.11127">
        <ele>786.31868</ele>
        <time>2021-07-09T10:04:52+0200</time>
      </trkpt>
      <trkpt lat="45.03286" lon="3.1113">
        <ele>785.867724</ele>
        <time>2021-07-09T10:04:54+0200</time>
      </trkpt>
      <trkpt lat="45.03281" lon="3.11133">
        <ele>786.150513</ele>
        <time>2021-07-09T10:04:56+0200</time>
      </trkpt>
      <trkpt lat="45.03276" lon="3.11139">
        <ele>786.574667</ele>
        <time>2021-07-09T10:04:59+0200</time>
      </trkpt>
      <trkpt lat="45.03272" lon="3.11143">
        <ele>786.339558</ele>
        <time>2021-07-09T10:05:03+0200</time>
      </trkpt>
      <trkpt lat="45.03268" lon="3.11149">
        <ele>786.450396</ele>
        <time>2021-07-09T10:05:05+0200</time>
      </trkpt>
      <trkpt lat="45.03264" lon="3.11156">
        <ele>785.838623</ele>
        <time>2021-07-09T10:05:07+0200</time>
      </trkpt>
      <trkpt lat="45.0326" lon="3.11163">
        <ele>785.400566</ele>
        <time>2021-07-09T10:05:09+0200</time>
      </trkpt>
      <trkpt lat="45.03255" lon="3.11172">
        <ele>785.263854</ele>
        <time>2021-07-09T10:05:11+0200</time>
      </trkpt>
      <trkpt lat="45.03251" lon="3.11179">
        <ele>785.733095</ele>
        <time>2021-07-09T10:05:13+0200</time>
      </trkpt>
      <trkpt lat="45.03248" lon="3.11184">
        <ele>785.419428</ele>
        <time>2021-07-09T10:05:14+0200</time>
      </trkpt>
      <trkpt lat="45.03246" lon="3.11189">
        <ele>785.247316</ele>
        <time>2021-07-09T10:05:15+0200</time>
      </trkpt>
      <trkpt lat="45.03243" lon="3.11196">
        <ele>785.30735</ele>
        <time>2021-07-09T10:05:16+0200</time>
      </trkpt>
      <trkpt lat="45.03239" lon="3.11202">
        <ele>784.990702</ele>
        <time>2021-07-09T10:05:17+0200</time>
      </trkpt>
      <trkpt lat="45.03236" lon="3.11209">
        <ele>784.272256</ele>
        <time>2021-07-09T10:05:18+0200</time>
      </trkpt>
      <trkpt lat="45.03234" lon="3.11216">
        <ele>784.020849</ele>
        <time>2021-07-09T10:05:19+0200</time>
      </trkpt>
      <trkpt lat="45.0323" lon="3.11224">
        <ele>783.915621</ele>
        <time>2021-07-09T10:05:20+0200</time>
      </trkpt>
      <trkpt lat="45.03228" lon="3.11231">
        <ele>783.404667</ele>
        <time>2021-07-09T10:05:21+0200</time>
      </trkpt>
      <trkpt lat="45.03224" lon="3.11237">
        <ele>782.753266</ele>
        <time>2021-07-09T10:05:22+0200</time>
      </trkpt>
      <trkpt lat="45.03222" lon="3.11243">
        <ele>782.650493</ele>
        <time>2021-07-09T10:05:23+0200</time>
      </trkpt>
      <trkpt lat="45.03219" lon="3.11248">
        <ele>781.61148</ele>
        <time>2021-07-09T10:05:24+0200</time>
      </trkpt>
      <trkpt lat="45.03215" lon="3.11254">
        <ele>781.496021</ele>
        <time>2021-07-09T10:05:25+0200</time>
      </trkpt>
      <trkpt lat="45.03212" lon="3.1126">
        <ele>781.445207</ele>
        <time>2021-07-09T10:05:26+0200</time>
      </trkpt>
      <trkpt lat="45.03209" lon="3.11266">
        <ele>781.403833</ele>
        <time>2021-07-09T10:05:27+0200</time>
      </trkpt>
      <trkpt lat="45.03205" lon="3.11271">
        <ele>781.778682</ele>
        <time>2021-07-09T10:05:28+0200</time>
      </trkpt>
      <trkpt lat="45.03201" lon="3.11275">
        <ele>781.924156</ele>
        <time>2021-07-09T10:05:29+0200</time>
      </trkpt>
      <trkpt lat="45.03198" lon="3.1128">
        <ele>782.288318</ele>
        <time>2021-07-09T10:05:30+0200</time>
      </trkpt>
      <trkpt lat="45.03195" lon="3.11285">
        <ele>782.9982</ele>
        <time>2021-07-09T10:05:31+0200</time>
      </trkpt>
      <trkpt lat="45.03192" lon="3.1129">
        <ele>783.506173</ele>
        <time>2021-07-09T10:05:32+0200</time>
      </trkpt>
      <trkpt lat="45.03188" lon="3.11295">
        <ele>783.761929</ele>
        <time>2021-07-09T10:05:33+0200</time>
      </trkpt>
      <trkpt lat="45.03185" lon="3.11299">
        <ele>783.512391</ele>
        <time>2021-07-09T10:05:34+0200</time>
      </trkpt>
      <trkpt lat="45.03181" lon="3.11303">
        <ele>783.482227</ele>
        <time>2021-07-09T10:05:35+0200</time>
      </trkpt>
      <trkpt lat="45.03175" lon="3.11312">
        <ele>782.952735</ele>
        <time>2021-07-09T10:05:37+0200</time>
      </trkpt>
      <trkpt lat="45.03169" lon="3.1132">
        <ele>782.409995</ele>
        <time>2021-07-09T10:05:39+0200</time>
      </trkpt>
      <trkpt lat="45.03162" lon="3.11329">
        <ele>782.060282</ele>
        <time>2021-07-09T10:05:41+0200</time>
      </trkpt>
      <trkpt lat="45.03156" lon="3.11338">
        <ele>781.250014</ele>
        <time>2021-07-09T10:05:43+0200</time>
      </trkpt>
      <trkpt lat="45.03153" lon="3.11342">
        <ele>780.964764</ele>
        <time>2021-07-09T10:05:44+0200</time>
      </trkpt>
      <trkpt lat="45.03149" lon="3.11347">
        <ele>780.802219</ele>
        <time>2021-07-09T10:05:45+0200</time>
      </trkpt>
      <trkpt lat="45.03145" lon="3.11352">
        <ele>780.503441</ele>
        <time>2021-07-09T10:05:46+0200</time>
      </trkpt>
      <trkpt lat="45.03142" lon="3.11358">
        <ele>780.959995</ele>
        <time>2021-07-09T10:05:47+0200</time>
      </trkpt>
      <trkpt lat="45.03138" lon="3.11363">
        <ele>780.79613</ele>
        <time>2021-07-09T10:05:48+0200</time>
      </trkpt>
      <trkpt lat="45.03134" lon="3.11369">
        <ele>781.068956</ele>
        <time>2021-07-09T10:05:49+0200</time>
      </trkpt>
      <trkpt lat="45.0313" lon="3.11374">
        <ele>781.085219</ele>
        <time>2021-07-09T10:05:50+0200</time>
      </trkpt>
      <trkpt lat="45.03126" lon="3.1138">
        <ele>780.933182</ele>
        <time>2021-07-09T10:05:51+0200</time>
      </trkpt>
      <trkpt lat="45.03122" lon="3.11386">
        <ele>780.933532</ele>
        <time>2021-07-09T10:05:52+0200</time>
      </trkpt>
      <trkpt lat="45.03119" lon="3.11392">
        <ele>780.916832</ele>
        <time>2021-07-09T10:05:53+0200</time>
      </trkpt>
      <trkpt lat="45.03115" lon="3.11399">
        <ele>780.832869</ele>
        <time>2021-07-09T10:05:54+0200</time>
      </trkpt>
      <trkpt lat="45.03112" lon="3.11406">
        <ele>781.055282</ele>
        <time>2021-07-09T10:05:55+0200</time>
      </trkpt>
      <trkpt lat="45.0311" lon="3.11414">
        <ele>780.730881</ele>
        <time>2021-07-09T10:05:56+0200</time>
      </trkpt>
      <trkpt lat="45.03108" lon="3.11422">
        <ele>780.947127</ele>
        <time>2021-07-09T10:05:57+0200</time>
      </trkpt>
      <trkpt lat="45.03104" lon="3.11428">
        <ele>781.627972</ele>
        <time>2021-07-09T10:05:58+0200</time>
      </trkpt>
      <trkpt lat="45.03098" lon="3.11434">
        <ele>782.048603</ele>
        <time>2021-07-09T10:05:59+0200</time>
      </trkpt>
      <trkpt lat="45.03094" lon="3.11438">
        <ele>781.4426</ele>
        <time>2021-07-09T10:06:00+0200</time>
      </trkpt>
      <trkpt lat="45.0309" lon="3.11447">
        <ele>780.693365</ele>
        <time>2021-07-09T10:06:01+0200</time>
      </trkpt>
      <trkpt lat="45.03088" lon="3.11455">
        <ele>780.054364</ele>
        <time>2021-07-09T10:06:02+0200</time>
      </trkpt>
      <trkpt lat="45.03085" lon="3.11463">
        <ele>778.850908</ele>
        <time>2021-07-09T10:06:03+0200</time>
      </trkpt>
      <trkpt lat="45.03082" lon="3.11473">
        <ele>778.108828</ele>
        <time>2021-07-09T10:06:04+0200</time>
      </trkpt>
      <trkpt lat="45.03078" lon="3.11483">
        <ele>777.52959</ele>
        <time>2021-07-09T10:06:05+0200</time>
      </trkpt>
      <trkpt lat="45.03075" lon="3.11493">
        <ele>777.033129</ele>
        <time>2021-07-09T10:06:06+0200</time>
      </trkpt>
      <trkpt lat="45.03072" lon="3.11503">
        <ele>777.119372</ele>
        <time>2021-07-09T10:06:07+0200</time>
      </trkpt>
      <trkpt lat="45.03069" lon="3.11513">
        <ele>776.72883</ele>
        <time>2021-07-09T10:06:08+0200</time>
      </trkpt>
      <trkpt lat="45.03066" lon="3.11521">
        <ele>776.359567</ele>
        <time>2021-07-09T10:06:09+0200</time>
      </trkpt>
      <trkpt lat="45.03062" lon="3.11529">
        <ele>776.517328</ele>
        <time>2021-07-09T10:06:10+0200</time>
      </trkpt>
      <trkpt lat="45.03058" lon="3.11536">
        <ele>776.539605</ele>
        <time>2021-07-09T10:06:11+0200</time>
      </trkpt>
      <trkpt lat="45.03054" lon="3.11544">
        <ele>776.638862</ele>
        <time>2021-07-09T10:06:12+0200</time>
      </trkpt>
      <trkpt lat="45.03049" lon="3.1155">
        <ele>776.59642</ele>
        <time>2021-07-09T10:06:13+0200</time>
      </trkpt>
      <trkpt lat="45.03045" lon="3.11555">
        <ele>775.997886</ele>
        <time>2021-07-09T10:06:14+0200</time>
      </trkpt>
      <trkpt lat="45.03039" lon="3.11558">
        <ele>775.792977</ele>
        <time>2021-07-09T10:06:15+0200</time>
      </trkpt>
      <trkpt lat="45.03035" lon="3.11562">
        <ele>775.37463</ele>
        <time>2021-07-09T10:06:16+0200</time>
      </trkpt>
      <trkpt lat="45.03031" lon="3.11566">
        <ele>775.066545</ele>
        <time>2021-07-09T10:06:17+0200</time>
      </trkpt>
      <trkpt lat="45.03027" lon="3.1157">
        <ele>774.648431</ele>
        <time>2021-07-09T10:06:18+0200</time>
      </trkpt>
      <trkpt lat="45.03023" lon="3.11574">
        <ele>775.09158</ele>
        <time>2021-07-09T10:06:19+0200</time>
      </trkpt>
      <trkpt lat="45.03019" lon="3.11577">
        <ele>774.879719</ele>
        <time>2021-07-09T10:06:20+0200</time>
      </trkpt>
      <trkpt lat="45.03014" lon="3.11579">
        <ele>774.66913</ele>
        <time>2021-07-09T10:06:21+0200</time>
      </trkpt>
      <trkpt lat="45.03009" lon="3.11581">
        <ele>775.122119</ele>
        <time>2021-07-09T10:06:22+0200</time>
      </trkpt>
      <trkpt lat="45.03001" lon="3.11582">
        <ele>778.095478</ele>
        <time>2021-07-09T10:06:24+0200</time>
      </trkpt>
      <trkpt lat="45.02996" lon="3.11582">
        <ele>778.737897</ele>
        <time>2021-07-09T10:06:25+0200</time>
      </trkpt>
      <trkpt lat="45.02987" lon="3.11582">
        <ele>779.372182</ele>
        <time>2021-07-09T10:06:27+0200</time>
      </trkpt>
      <trkpt lat="45.02979" lon="3.11582">
        <ele>779.93932</ele>
        <time>2021-07-09T10:06:29+0200</time>
      </trkpt>
      <trkpt lat="45.0297" lon="3.11581">
        <ele>780.940907</ele>
        <time>2021-07-09T10:06:31+0200</time>
      </trkpt>
      <trkpt lat="45.02966" lon="3.11581">
        <ele>780.598259</ele>
        <time>2021-07-09T10:06:32+0200</time>
      </trkpt>
      <trkpt lat="45.02961" lon="3.1158">
        <ele>779.976207</ele>
        <time>2021-07-09T10:06:33+0200</time>
      </trkpt>
      <trkpt lat="45.02956" lon="3.1158">
        <ele>779.50551</ele>
        <time>2021-07-09T10:06:34+0200</time>
      </trkpt>
      <trkpt lat="45.02951" lon="3.11579">
        <ele>778.926509</ele>
        <time>2021-07-09T10:06:35+0200</time>
      </trkpt>
      <trkpt lat="45.02945" lon="3.11578">
        <ele>779.080513</ele>
        <time>2021-07-09T10:06:36+0200</time>
      </trkpt>
      <trkpt lat="45.02938" lon="3.11576">
        <ele>779.465488</ele>
        <time>2021-07-09T10:06:38+0200</time>
      </trkpt>
      <trkpt lat="45.02933" lon="3.11573">
        <ele>780.456776</ele>
        <time>2021-07-09T10:06:39+0200</time>
      </trkpt>
      <trkpt lat="45.02929" lon="3.1157">
        <ele>779.355614</ele>
        <time>2021-07-09T10:06:40+0200</time>
      </trkpt>
      <trkpt lat="45.02921" lon="3.11566">
        <ele>779.237127</ele>
        <time>2021-07-09T10:06:42+0200</time>
      </trkpt>
      <trkpt lat="45.02914" lon="3.11559">
        <ele>777.2609</ele>
        <time>2021-07-09T10:06:44+0200</time>
      </trkpt>
      <trkpt lat="45.02909" lon="3.11557">
        <ele>776.404219</ele>
        <time>2021-07-09T10:06:45+0200</time>
      </trkpt>
      <trkpt lat="45.02905" lon="3.11553">
        <ele>776.841614</ele>
        <time>2021-07-09T10:06:46+0200</time>
      </trkpt>
      <trkpt lat="45.02898" lon="3.11548">
        <ele>775.711362</ele>
        <time>2021-07-09T10:06:48+0200</time>
      </trkpt>
      <trkpt lat="45.02893" lon="3.11541">
        <ele>777.755294</ele>
        <time>2021-07-09T10:06:50+0200</time>
      </trkpt>
      <trkpt lat="45.02886" lon="3.11537">
        <ele>778.12492</ele>
        <time>2021-07-09T10:06:52+0200</time>
      </trkpt>
      <trkpt lat="45.0288" lon="3.11532">
        <ele>779.230465</ele>
        <time>2021-07-09T10:06:54+0200</time>
      </trkpt>
      <trkpt lat="45.02875" lon="3.11526">
        <ele>781.234506</ele>
        <time>2021-07-09T10:06:56+0200</time>
      </trkpt>
      <trkpt lat="45.0287" lon="3.1152">
        <ele>784.836688</ele>
        <time>2021-07-09T10:06:58+0200</time>
      </trkpt>
      <trkpt lat="45.02864" lon="3.11515">
        <ele>787.411953</ele>
        <time>2021-07-09T10:07:00+0200</time>
      </trkpt>
      <trkpt lat="45.02856" lon="3.1151">
        <ele>786.453564</ele>
        <time>2021-07-09T10:07:02+0200</time>
      </trkpt>
      <trkpt lat="45.02852" lon="3.11507">
        <ele>785.854096</ele>
        <time>2021-07-09T10:07:03+0200</time>
      </trkpt>
      <trkpt lat="45.02849" lon="3.11502">
        <ele>784.121019</ele>
        <time>2021-07-09T10:07:04+0200</time>
      </trkpt>
      <trkpt lat="45.02842" lon="3.11497">
        <ele>782.70076</ele>
        <time>2021-07-09T10:07:06+0200</time>
      </trkpt>
      <trkpt lat="45.02839" lon="3.11493">
        <ele>781.987642</ele>
        <time>2021-07-09T10:07:07+0200</time>
      </trkpt>
      <trkpt lat="45.02835" lon="3.1149">
        <ele>781.132377</ele>
        <time>2021-07-09T10:07:08+0200</time>
      </trkpt>
      <trkpt lat="45.02828" lon="3.11484">
        <ele>779.252488</ele>
        <time>2021-07-09T10:07:10+0200</time>
      </trkpt>
      <trkpt lat="45.0282" lon="3.11478">
        <ele>778.737304</ele>
        <time>2021-07-09T10:07:12+0200</time>
      </trkpt>
      <trkpt lat="45.02815" lon="3.11473">
        <ele>779.754581</ele>
        <time>2021-07-09T10:07:14+0200</time>
      </trkpt>
      <trkpt lat="45.02807" lon="3.11468">
        <ele>777.157674</ele>
        <time>2021-07-09T10:07:16+0200</time>
      </trkpt>
      <trkpt lat="45.02801" lon="3.11462">
        <ele>777.71481</ele>
        <time>2021-07-09T10:07:18+0200</time>
      </trkpt>
      <trkpt lat="45.02795" lon="3.11456">
        <ele>776.026021</ele>
        <time>2021-07-09T10:07:20+0200</time>
      </trkpt>
      <trkpt lat="45.0279" lon="3.11454">
        <ele>775.736873</ele>
        <time>2021-07-09T10:07:21+0200</time>
      </trkpt>
      <trkpt lat="45.02786" lon="3.1145">
        <ele>774.976234</ele>
        <time>2021-07-09T10:07:22+0200</time>
      </trkpt>
      <trkpt lat="45.02781" lon="3.11443">
        <ele>774.271525</ele>
        <time>2021-07-09T10:07:24+0200</time>
      </trkpt>
      <trkpt lat="45.02775" lon="3.1144">
        <ele>772.051309</ele>
        <time>2021-07-09T10:07:26+0200</time>
      </trkpt>
      <trkpt lat="45.0277" lon="3.11437">
        <ele>771.597931</ele>
        <time>2021-07-09T10:07:28+0200</time>
      </trkpt>
      <trkpt lat="45.02766" lon="3.1143">
        <ele>771.530083</ele>
        <time>2021-07-09T10:07:30+0200</time>
      </trkpt>
      <trkpt lat="45.02761" lon="3.11424">
        <ele>768.404597</ele>
        <time>2021-07-09T10:07:32+0200</time>
      </trkpt>
      <trkpt lat="45.02756" lon="3.11414">
        <ele>766.600945</ele>
        <time>2021-07-09T10:07:34+0200</time>
      </trkpt>
      <trkpt lat="45.0275" lon="3.11406">
        <ele>765.844694</ele>
        <time>2021-07-09T10:07:36+0200</time>
      </trkpt>
      <trkpt lat="45.02744" lon="3.11397">
        <ele>764.78436</ele>
        <time>2021-07-09T10:07:38+0200</time>
      </trkpt>
      <trkpt lat="45.0274" lon="3.11393">
        <ele>764.169235</ele>
        <time>2021-07-09T10:07:39+0200</time>
      </trkpt>
      <trkpt lat="45.02736" lon="3.11388">
        <ele>764.079119</ele>
        <time>2021-07-09T10:07:40+0200</time>
      </trkpt>
      <trkpt lat="45.02733" lon="3.11383">
        <ele>764.322799</ele>
        <time>2021-07-09T10:07:41+0200</time>
      </trkpt>
      <trkpt lat="45.0273" lon="3.11377">
        <ele>764.220146</ele>
        <time>2021-07-09T10:07:42+0200</time>
      </trkpt>
      <trkpt lat="45.02727" lon="3.11372">
        <ele>764.421918</ele>
        <time>2021-07-09T10:07:43+0200</time>
      </trkpt>
      <trkpt lat="45.02724" lon="3.11365">
        <ele>765.581525</ele>
        <time>2021-07-09T10:07:44+0200</time>
      </trkpt>
      <trkpt lat="45.02722" lon="3.11358">
        <ele>766.294507</ele>
        <time>2021-07-09T10:07:45+0200</time>
      </trkpt>
      <trkpt lat="45.02714" lon="3.1135">
        <ele>767.246305</ele>
        <time>2021-07-09T10:07:47+0200</time>
      </trkpt>
      <trkpt lat="45.02711" lon="3.11345">
        <ele>767.531241</ele>
        <time>2021-07-09T10:07:48+0200</time>
      </trkpt>
      <trkpt lat="45.02706" lon="3.11339">
        <ele>768.037095</ele>
        <time>2021-07-09T10:07:49+0200</time>
      </trkpt>
      <trkpt lat="45.02698" lon="3.11335">
        <ele>768.952822</ele>
        <time>2021-07-09T10:07:51+0200</time>
      </trkpt>
      <trkpt lat="45.0269" lon="3.11332">
        <ele>770.821329</ele>
        <time>2021-07-09T10:07:53+0200</time>
      </trkpt>
      <trkpt lat="45.02682" lon="3.1133">
        <ele>770.927694</ele>
        <time>2021-07-09T10:07:55+0200</time>
      </trkpt>
      <trkpt lat="45.02675" lon="3.11331">
        <ele>770.791605</ele>
        <time>2021-07-09T10:07:57+0200</time>
      </trkpt>
      <trkpt lat="45.02666" lon="3.11331">
        <ele>770.578266</ele>
        <time>2021-07-09T10:07:59+0200</time>
      </trkpt>
      <trkpt lat="45.02662" lon="3.11332">
        <ele>771.326209</ele>
        <time>2021-07-09T10:08:00+0200</time>
      </trkpt>
      <trkpt lat="45.02655" lon="3.11335">
        <ele>772.653909</ele>
        <time>2021-07-09T10:08:02+0200</time>
      </trkpt>
      <trkpt lat="45.02647" lon="3.11338">
        <ele>772.052901</ele>
        <time>2021-07-09T10:08:04+0200</time>
      </trkpt>
      <trkpt lat="45.0264" lon="3.11343">
        <ele>772.594242</ele>
        <time>2021-07-09T10:08:06+0200</time>
      </trkpt>
      <trkpt lat="45.02635" lon="3.11346">
        <ele>771.512416</ele>
        <time>2021-07-09T10:08:07+0200</time>
      </trkpt>
      <trkpt lat="45.02628" lon="3.11352">
        <ele>770.550706</ele>
        <time>2021-07-09T10:08:09+0200</time>
      </trkpt>
      <trkpt lat="45.02622" lon="3.11355">
        <ele>769.43849</ele>
        <time>2021-07-09T10:08:10+0200</time>
      </trkpt>
      <trkpt lat="45.02614" lon="3.11361">
        <ele>770.418479</ele>
        <time>2021-07-09T10:08:12+0200</time>
      </trkpt>
      <trkpt lat="45.02606" lon="3.11366">
        <ele>771.922107</ele>
        <time>2021-07-09T10:08:14+0200</time>
      </trkpt>
      <trkpt lat="45.02599" lon="3.11373">
        <ele>772.548528</ele>
        <time>2021-07-09T10:08:16+0200</time>
      </trkpt>
      <trkpt lat="45.02592" lon="3.11378">
        <ele>773.286515</ele>
        <time>2021-07-09T10:08:18+0200</time>
      </trkpt>
      <trkpt lat="45.02589" lon="3.11382">
        <ele>774.351653</ele>
        <time>2021-07-09T10:08:19+0200</time>
      </trkpt>
      <trkpt lat="45.02581" lon="3.11388">
        <ele>777.663778</ele>
        <time>2021-07-09T10:08:21+0200</time>
      </trkpt>
      <trkpt lat="45.02577" lon="3.11392">
        <ele>777.271541</ele>
        <time>2021-07-09T10:08:22+0200</time>
      </trkpt>
      <trkpt lat="45.02569" lon="3.11397">
        <ele>778.607811</ele>
        <time>2021-07-09T10:08:24+0200</time>
      </trkpt>
      <trkpt lat="45.02566" lon="3.11402">
        <ele>779.613326</ele>
        <time>2021-07-09T10:08:25+0200</time>
      </trkpt>
      <trkpt lat="45.02563" lon="3.11407">
        <ele>779.424927</ele>
        <time>2021-07-09T10:08:26+0200</time>
      </trkpt>
      <trkpt lat="45.02559" lon="3.11413">
        <ele>777.767633</ele>
        <time>2021-07-09T10:08:27+0200</time>
      </trkpt>
      <trkpt lat="45.02552" lon="3.11421">
        <ele>777.752179</ele>
        <time>2021-07-09T10:08:29+0200</time>
      </trkpt>
      <trkpt lat="45.02548" lon="3.11426">
        <ele>777.172067</ele>
        <time>2021-07-09T10:08:30+0200</time>
      </trkpt>
      <trkpt lat="45.02545" lon="3.11432">
        <ele>776.899296</ele>
        <time>2021-07-09T10:08:31+0200</time>
      </trkpt>
      <trkpt lat="45.02542" lon="3.11437">
        <ele>776.553843</ele>
        <time>2021-07-09T10:08:32+0200</time>
      </trkpt>
      <trkpt lat="45.02538" lon="3.11441">
        <ele>776.528165</ele>
        <time>2021-07-09T10:08:33+0200</time>
      </trkpt>
      <trkpt lat="45.02535" lon="3.11447">
        <ele>776.871978</ele>
        <time>2021-07-09T10:08:34+0200</time>
      </trkpt>
      <trkpt lat="45.02531" lon="3.11452">
        <ele>777.144849</ele>
        <time>2021-07-09T10:08:35+0200</time>
      </trkpt>
      <trkpt lat="45.02528" lon="3.11459">
        <ele>777.270875</ele>
        <time>2021-07-09T10:08:36+0200</time>
      </trkpt>
      <trkpt lat="45.02526" lon="3.11464">
        <ele>777.411456</ele>
        <time>2021-07-09T10:08:37+0200</time>
      </trkpt>
      <trkpt lat="45.02522" lon="3.11469">
        <ele>777.357481</ele>
        <time>2021-07-09T10:08:38+0200</time>
      </trkpt>
      <trkpt lat="45.02518" lon="3.11476">
        <ele>776.21989</ele>
        <time>2021-07-09T10:08:39+0200</time>
      </trkpt>
      <trkpt lat="45.02515" lon="3.11483">
        <ele>775.670447</ele>
        <time>2021-07-09T10:08:40+0200</time>
      </trkpt>
      <trkpt lat="45.02512" lon="3.11489">
        <ele>776.047184</ele>
        <time>2021-07-09T10:08:41+0200</time>
      </trkpt>
      <trkpt lat="45.02509" lon="3.11496">
        <ele>777.124275</ele>
        <time>2021-07-09T10:08:42+0200</time>
      </trkpt>
      <trkpt lat="45.02506" lon="3.11502">
        <ele>776.385369</ele>
        <time>2021-07-09T10:08:43+0200</time>
      </trkpt>
      <trkpt lat="45.02504" lon="3.11508">
        <ele>775.850469</ele>
        <time>2021-07-09T10:08:44+0200</time>
      </trkpt>
      <trkpt lat="45.02502" lon="3.11514">
        <ele>776.639556</ele>
        <time>2021-07-09T10:08:45+0200</time>
      </trkpt>
      <trkpt lat="45.02499" lon="3.1152">
        <ele>777.187559</ele>
        <time>2021-07-09T10:08:46+0200</time>
      </trkpt>
      <trkpt lat="45.02497" lon="3.11527">
        <ele>776.942685</ele>
        <time>2021-07-09T10:08:47+0200</time>
      </trkpt>
      <trkpt lat="45.02494" lon="3.11533">
        <ele>776.00634</ele>
        <time>2021-07-09T10:08:48+0200</time>
      </trkpt>
      <trkpt lat="45.02491" lon="3.11538">
        <ele>775.76392</ele>
        <time>2021-07-09T10:08:49+0200</time>
      </trkpt>
      <trkpt lat="45.02488" lon="3.11549">
        <ele>774.88454</ele>
        <time>2021-07-09T10:08:51+0200</time>
      </trkpt>
      <trkpt lat="45.02487" lon="3.11555">
        <ele>774.993348</ele>
        <time>2021-07-09T10:08:52+0200</time>
      </trkpt>
      <trkpt lat="45.02487" lon="3.11563">
        <ele>775.444807</ele>
        <time>2021-07-09T10:08:53+0200</time>
      </trkpt>
      <trkpt lat="45.02487" lon="3.1157">
        <ele>775.962257</ele>
        <time>2021-07-09T10:08:54+0200</time>
      </trkpt>
      <trkpt lat="45.02488" lon="3.11577">
        <ele>775.655496</ele>
        <time>2021-07-09T10:08:55+0200</time>
      </trkpt>
      <trkpt lat="45.02488" lon="3.11584">
        <ele>774.881659</ele>
        <time>2021-07-09T10:08:56+0200</time>
      </trkpt>
      <trkpt lat="45.02488" lon="3.11591">
        <ele>774.624272</ele>
        <time>2021-07-09T10:08:57+0200</time>
      </trkpt>
      <trkpt lat="45.02488" lon="3.11598">
        <ele>774.336323</ele>
        <time>2021-07-09T10:08:58+0200</time>
      </trkpt>
      <trkpt lat="45.02489" lon="3.11605">
        <ele>774.013218</ele>
        <time>2021-07-09T10:08:59+0200</time>
      </trkpt>
      <trkpt lat="45.02488" lon="3.11611">
        <ele>774.28765</ele>
        <time>2021-07-09T10:09:00+0200</time>
      </trkpt>
      <trkpt lat="45.02489" lon="3.11618">
        <ele>774.670343</ele>
        <time>2021-07-09T10:09:01+0200</time>
      </trkpt>
      <trkpt lat="45.02488" lon="3.11624">
        <ele>775.013206</ele>
        <time>2021-07-09T10:09:02+0200</time>
      </trkpt>
      <trkpt lat="45.02487" lon="3.11632">
        <ele>774.760695</ele>
        <time>2021-07-09T10:09:03+0200</time>
      </trkpt>
      <trkpt lat="45.02487" lon="3.11639">
        <ele>774.72635</ele>
        <time>2021-07-09T10:09:04+0200</time>
      </trkpt>
      <trkpt lat="45.02487" lon="3.11646">
        <ele>774.53405</ele>
        <time>2021-07-09T10:09:05+0200</time>
      </trkpt>
      <trkpt lat="45.02487" lon="3.11653">
        <ele>775.747124</ele>
        <time>2021-07-09T10:09:06+0200</time>
      </trkpt>
      <trkpt lat="45.02486" lon="3.1166">
        <ele>775.918641</ele>
        <time>2021-07-09T10:09:07+0200</time>
      </trkpt>
      <trkpt lat="45.02486" lon="3.11667">
        <ele>776.147132</ele>
        <time>2021-07-09T10:09:08+0200</time>
      </trkpt>
      <trkpt lat="45.02486" lon="3.11674">
        <ele>775.738647</ele>
        <time>2021-07-09T10:09:09+0200</time>
      </trkpt>
      <trkpt lat="45.02485" lon="3.1168">
        <ele>775.619048</ele>
        <time>2021-07-09T10:09:10+0200</time>
      </trkpt>
      <trkpt lat="45.02485" lon="3.11687">
        <ele>775.928028</ele>
        <time>2021-07-09T10:09:11+0200</time>
      </trkpt>
      <trkpt lat="45.02485" lon="3.11694">
        <ele>775.890408</ele>
        <time>2021-07-09T10:09:12+0200</time>
      </trkpt>
      <trkpt lat="45.02485" lon="3.11701">
        <ele>775.44936</ele>
        <time>2021-07-09T10:09:13+0200</time>
      </trkpt>
      <trkpt lat="45.02486" lon="3.11708">
        <ele>775.34072</ele>
        <time>2021-07-09T10:09:14+0200</time>
      </trkpt>
      <trkpt lat="45.02485" lon="3.11716">
        <ele>774.937836</ele>
        <time>2021-07-09T10:09:15+0200</time>
      </trkpt>
      <trkpt lat="45.02485" lon="3.11724">
        <ele>774.607613</ele>
        <time>2021-07-09T10:09:16+0200</time>
      </trkpt>
      <trkpt lat="45.02484" lon="3.11731">
        <ele>774.579124</ele>
        <time>2021-07-09T10:09:17+0200</time>
      </trkpt>
      <trkpt lat="45.02484" lon="3.11739">
        <ele>773.933156</ele>
        <time>2021-07-09T10:09:18+0200</time>
      </trkpt>
      <trkpt lat="45.02483" lon="3.11746">
        <ele>773.484451</ele>
        <time>2021-07-09T10:09:19+0200</time>
      </trkpt>
      <trkpt lat="45.02481" lon="3.11753">
        <ele>773.110352</ele>
        <time>2021-07-09T10:09:20+0200</time>
      </trkpt>
      <trkpt lat="45.0248" lon="3.1176">
        <ele>773.318568</ele>
        <time>2021-07-09T10:09:21+0200</time>
      </trkpt>
      <trkpt lat="45.02479" lon="3.11767">
        <ele>772.904427</ele>
        <time>2021-07-09T10:09:22+0200</time>
      </trkpt>
      <trkpt lat="45.02477" lon="3.11774">
        <ele>772.514566</ele>
        <time>2021-07-09T10:09:23+0200</time>
      </trkpt>
      <trkpt lat="45.02475" lon="3.1178">
        <ele>772.563866</ele>
        <time>2021-07-09T10:09:24+0200</time>
      </trkpt>
      <trkpt lat="45.02473" lon="3.11787">
        <ele>772.517912</ele>
        <time>2021-07-09T10:09:25+0200</time>
      </trkpt>
      <trkpt lat="45.02471" lon="3.11793">
        <ele>772.23876</ele>
        <time>2021-07-09T10:09:26+0200</time>
      </trkpt>
      <trkpt lat="45.02467" lon="3.11806">
        <ele>771.136651</ele>
        <time>2021-07-09T10:09:28+0200</time>
      </trkpt>
      <trkpt lat="45.02466" lon="3.11812">
        <ele>770.82255</ele>
        <time>2021-07-09T10:09:29+0200</time>
      </trkpt>
      <trkpt lat="45.02465" lon="3.11825">
        <ele>771.021496</ele>
        <time>2021-07-09T10:09:31+0200</time>
      </trkpt>
      <trkpt lat="45.02465" lon="3.11835">
        <ele>772.292011</ele>
        <time>2021-07-09T10:09:33+0200</time>
      </trkpt>
      <trkpt lat="45.02462" lon="3.11841">
        <ele>774.303848</ele>
        <time>2021-07-09T10:09:36+0200</time>
      </trkpt>
      <trkpt lat="45.02461" lon="3.11848">
        <ele>776.77673</ele>
        <time>2021-07-09T10:09:40+0200</time>
      </trkpt>
      <trkpt lat="45.02461" lon="3.11855">
        <ele>779.138152</ele>
        <time>2021-07-09T10:09:44+0200</time>
      </trkpt>
      <trkpt lat="45.02458" lon="3.1186">
        <ele>779.154765</ele>
        <time>2021-07-09T10:09:47+0200</time>
      </trkpt>
      <trkpt lat="45.02457" lon="3.11868">
        <ele>778.95717</ele>
        <time>2021-07-09T10:09:50+0200</time>
      </trkpt>
      <trkpt lat="45.02457" lon="3.11877">
        <ele>779.035863</ele>
        <time>2021-07-09T10:09:53+0200</time>
      </trkpt>
      <trkpt lat="45.02457" lon="3.11884">
        <ele>780.658313</ele>
        <time>2021-07-09T10:09:57+0200</time>
      </trkpt>
      <trkpt lat="45.02456" lon="3.11891">
        <ele>781.689584</ele>
        <time>2021-07-09T10:10:00+0200</time>
      </trkpt>
      <trkpt lat="45.02455" lon="3.11899">
        <ele>783.02965</ele>
        <time>2021-07-09T10:10:03+0200</time>
      </trkpt>
      <trkpt lat="45.02455" lon="3.11906">
        <ele>783.194623</ele>
        <time>2021-07-09T10:10:06+0200</time>
      </trkpt>
      <trkpt lat="45.02455" lon="3.11913">
        <ele>784.068215</ele>
        <time>2021-07-09T10:10:09+0200</time>
      </trkpt>
      <trkpt lat="45.02455" lon="3.1192">
        <ele>785.712096</ele>
        <time>2021-07-09T10:10:12+0200</time>
      </trkpt>
      <trkpt lat="45.02455" lon="3.11926">
        <ele>786.992647</ele>
        <time>2021-07-09T10:10:15+0200</time>
      </trkpt>
      <trkpt lat="45.02456" lon="3.11933">
        <ele>788.133923</ele>
        <time>2021-07-09T10:10:18+0200</time>
      </trkpt>
      <trkpt lat="45.02458" lon="3.1194">
        <ele>787.138933</ele>
        <time>2021-07-09T10:10:22+0200</time>
      </trkpt>
      <trkpt lat="45.0246" lon="3.11948">
        <ele>788.038441</ele>
        <time>2021-07-09T10:10:26+0200</time>
      </trkpt>
      <trkpt lat="45.02461" lon="3.11956">
        <ele>787.994976</ele>
        <time>2021-07-09T10:10:29+0200</time>
      </trkpt>
      <trkpt lat="45.02462" lon="3.11962">
        <ele>789.324771</ele>
        <time>2021-07-09T10:10:32+0200</time>
      </trkpt>
      <trkpt lat="45.02464" lon="3.11969">
        <ele>787.52548</ele>
        <time>2021-07-09T10:10:34+0200</time>
      </trkpt>
      <trkpt lat="45.02466" lon="3.11975">
        <ele>786.715502</ele>
        <time>2021-07-09T10:10:36+0200</time>
      </trkpt>
      <trkpt lat="45.02468" lon="3.11982">
        <ele>788.008858</ele>
        <time>2021-07-09T10:10:39+0200</time>
      </trkpt>
      <trkpt lat="45.02469" lon="3.1199">
        <ele>789.304563</ele>
        <time>2021-07-09T10:10:42+0200</time>
      </trkpt>
      <trkpt lat="45.02469" lon="3.11997">
        <ele>792.322537</ele>
        <time>2021-07-09T10:10:45+0200</time>
      </trkpt>
      <trkpt lat="45.02468" lon="3.12004">
        <ele>794.501131</ele>
        <time>2021-07-09T10:10:49+0200</time>
      </trkpt>
      <trkpt lat="45.02467" lon="3.12011">
        <ele>796.535761</ele>
        <time>2021-07-09T10:10:53+0200</time>
      </trkpt>
      <trkpt lat="45.02466" lon="3.12019">
        <ele>798.513072</ele>
        <time>2021-07-09T10:10:57+0200</time>
      </trkpt>
      <trkpt lat="45.02464" lon="3.12026">
        <ele>799.742756</ele>
        <time>2021-07-09T10:11:00+0200</time>
      </trkpt>
      <trkpt lat="45.02463" lon="3.12033">
        <ele>801.034756</ele>
        <time>2021-07-09T10:11:04+0200</time>
      </trkpt>
      <trkpt lat="45.02461" lon="3.1204">
        <ele>799.996102</ele>
        <time>2021-07-09T10:11:07+0200</time>
      </trkpt>
      <trkpt lat="45.02459" lon="3.12047">
        <ele>800.285744</ele>
        <time>2021-07-09T10:11:10+0200</time>
      </trkpt>
      <trkpt lat="45.02456" lon="3.12053">
        <ele>798.042362</ele>
        <time>2021-07-09T10:11:13+0200</time>
      </trkpt>
      <trkpt lat="45.02454" lon="3.12059">
        <ele>796.859537</ele>
        <time>2021-07-09T10:11:16+0200</time>
      </trkpt>
      <trkpt lat="45.02452" lon="3.12066">
        <ele>795.211438</ele>
        <time>2021-07-09T10:11:20+0200</time>
      </trkpt>
      <trkpt lat="45.0245" lon="3.12073">
        <ele>794.373185</ele>
        <time>2021-07-09T10:11:24+0200</time>
      </trkpt>
      <trkpt lat="45.02448" lon="3.12079">
        <ele>796.200528</ele>
        <time>2021-07-09T10:11:27+0200</time>
      </trkpt>
      <trkpt lat="45.02449" lon="3.12086">
        <ele>795.597899</ele>
        <time>2021-07-09T10:11:30+0200</time>
      </trkpt>
      <trkpt lat="45.02451" lon="3.12093">
        <ele>794.441757</ele>
        <time>2021-07-09T10:11:33+0200</time>
      </trkpt>
      <trkpt lat="45.02451" lon="3.121">
        <ele>794.926899</ele>
        <time>2021-07-09T10:11:37+0200</time>
      </trkpt>
      <trkpt lat="45.02451" lon="3.12107">
        <ele>799.937435</ele>
        <time>2021-07-09T10:11:41+0200</time>
      </trkpt>
      <trkpt lat="45.02451" lon="3.12113">
        <ele>802.80597</ele>
        <time>2021-07-09T10:11:43+0200</time>
      </trkpt>
      <trkpt lat="45.02446" lon="3.12121">
        <ele>802.217684</ele>
        <time>2021-07-09T10:11:45+0200</time>
      </trkpt>
      <trkpt lat="45.02442" lon="3.12127">
        <ele>801.680675</ele>
        <time>2021-07-09T10:11:47+0200</time>
      </trkpt>
      <trkpt lat="45.02439" lon="3.12132">
        <ele>801.739483</ele>
        <time>2021-07-09T10:11:49+0200</time>
      </trkpt>
      <trkpt lat="45.02434" lon="3.12137">
        <ele>801.92841</ele>
        <time>2021-07-09T10:11:52+0200</time>
      </trkpt>
      <trkpt lat="45.02429" lon="3.1214">
        <ele>802.17497</ele>
        <time>2021-07-09T10:11:55+0200</time>
      </trkpt>
      <trkpt lat="45.02424" lon="3.12142">
        <ele>803.497179</ele>
        <time>2021-07-09T10:11:58+0200</time>
      </trkpt>
      <trkpt lat="45.02418" lon="3.12146">
        <ele>805.10183</ele>
        <time>2021-07-09T10:12:01+0200</time>
      </trkpt>
      <trkpt lat="45.02412" lon="3.12147">
        <ele>805.903082</ele>
        <time>2021-07-09T10:12:04+0200</time>
      </trkpt>
      <trkpt lat="45.02407" lon="3.12146">
        <ele>804.458297</ele>
        <time>2021-07-09T10:12:06+0200</time>
      </trkpt>
      <trkpt lat="45.02402" lon="3.1215">
        <ele>803.230168</ele>
        <time>2021-07-09T10:12:09+0200</time>
      </trkpt>
      <trkpt lat="45.02399" lon="3.12158">
        <ele>802.242314</ele>
        <time>2021-07-09T10:12:13+0200</time>
      </trkpt>
      <trkpt lat="45.02401" lon="3.12163">
        <ele>801.955549</ele>
        <time>2021-07-09T10:12:15+0200</time>
      </trkpt>
      <trkpt lat="45.02403" lon="3.1217">
        <ele>803.341528</ele>
        <time>2021-07-09T10:12:18+0200</time>
      </trkpt>
      <trkpt lat="45.02404" lon="3.12177">
        <ele>802.682083</ele>
        <time>2021-07-09T10:12:21+0200</time>
      </trkpt>
      <trkpt lat="45.02407" lon="3.12184">
        <ele>803.34201</ele>
        <time>2021-07-09T10:12:34+0200</time>
      </trkpt>
      <trkpt lat="45.02408" lon="3.12191">
        <ele>806.11365</ele>
        <time>2021-07-09T10:14:33+0200</time>
      </trkpt>
      <trkpt lat="45.02405" lon="3.12186">
        <ele>801.594573</ele>
        <time>2021-07-09T10:14:48+0200</time>
      </trkpt>
      <trkpt lat="45.02406" lon="3.12193">
        <ele>800.642461</ele>
        <time>2021-07-09T10:16:05+0200</time>
      </trkpt>
      <trkpt lat="45.02409" lon="3.12198">
        <ele>802.42937</ele>
        <time>2021-07-09T10:16:08+0200</time>
      </trkpt>
      <trkpt lat="45.02413" lon="3.12205">
        <ele>803.171784</ele>
        <time>2021-07-09T10:16:11+0200</time>
      </trkpt>
      <trkpt lat="45.02417" lon="3.12213">
        <ele>803.37953</ele>
        <time>2021-07-09T10:16:14+0200</time>
      </trkpt>
      <trkpt lat="45.0242" lon="3.1222">
        <ele>803.286401</ele>
        <time>2021-07-09T10:16:17+0200</time>
      </trkpt>
      <trkpt lat="45.02424" lon="3.12227">
        <ele>802.972037</ele>
        <time>2021-07-09T10:16:20+0200</time>
      </trkpt>
      <trkpt lat="45.02428" lon="3.12232">
        <ele>802.262091</ele>
        <time>2021-07-09T10:16:23+0200</time>
      </trkpt>
      <trkpt lat="45.02432" lon="3.12237">
        <ele>803.501545</ele>
        <time>2021-07-09T10:16:26+0200</time>
      </trkpt>
      <trkpt lat="45.02436" lon="3.12244">
        <ele>804.732127</ele>
        <time>2021-07-09T10:16:29+0200</time>
      </trkpt>
      <trkpt lat="45.02439" lon="3.12249">
        <ele>807.975158</ele>
        <time>2021-07-09T10:16:31+0200</time>
      </trkpt>
      <trkpt lat="45.02442" lon="3.12254">
        <ele>809.926329</ele>
        <time>2021-07-09T10:16:34+0200</time>
      </trkpt>
      <trkpt lat="45.02446" lon="3.12259">
        <ele>811.770884</ele>
        <time>2021-07-09T10:16:38+0200</time>
      </trkpt>
      <trkpt lat="45.0245" lon="3.12263">
        <ele>812.107931</ele>
        <time>2021-07-09T10:16:41+0200</time>
      </trkpt>
      <trkpt lat="45.02455" lon="3.12264">
        <ele>808.240774</ele>
        <time>2021-07-09T10:16:59+0200</time>
      </trkpt>
      <trkpt lat="45.02454" lon="3.1227">
        <ele>823.96756</ele>
        <time>2021-07-09T10:17:47+0200</time>
      </trkpt>
      <trkpt lat="45.02456" lon="3.12278">
        <ele>813.845451</ele>
        <time>2021-07-09T10:18:20+0200</time>
      </trkpt>
      <trkpt lat="45.02455" lon="3.12285">
        <ele>817.030182</ele>
        <time>2021-07-09T10:18:22+0200</time>
      </trkpt>
      <trkpt lat="45.02457" lon="3.12292">
        <ele>819.470693</ele>
        <time>2021-07-09T10:18:24+0200</time>
      </trkpt>
      <trkpt lat="45.02457" lon="3.123">
        <ele>821.474593</ele>
        <time>2021-07-09T10:18:26+0200</time>
      </trkpt>
      <trkpt lat="45.02459" lon="3.12306">
        <ele>823.314741</ele>
        <time>2021-07-09T10:18:28+0200</time>
      </trkpt>
      <trkpt lat="45.02461" lon="3.12311">
        <ele>823.833406</ele>
        <time>2021-07-09T10:18:30+0200</time>
      </trkpt>
      <trkpt lat="45.02461" lon="3.1232">
        <ele>822.696439</ele>
        <time>2021-07-09T10:18:32+0200</time>
      </trkpt>
      <trkpt lat="45.02463" lon="3.12329">
        <ele>823.670306</ele>
        <time>2021-07-09T10:18:34+0200</time>
      </trkpt>
      <trkpt lat="45.02467" lon="3.12337">
        <ele>825.3541</ele>
        <time>2021-07-09T10:18:37+0200</time>
      </trkpt>
      <trkpt lat="45.02469" lon="3.12343">
        <ele>822.983198</ele>
        <time>2021-07-09T10:18:40+0200</time>
      </trkpt>
      <trkpt lat="45.0247" lon="3.1235">
        <ele>822.288372</ele>
        <time>2021-07-09T10:18:43+0200</time>
      </trkpt>
      <trkpt lat="45.02472" lon="3.12357">
        <ele>822.692525</ele>
        <time>2021-07-09T10:18:46+0200</time>
      </trkpt>
      <trkpt lat="45.02469" lon="3.12364">
        <ele>822.987102</ele>
        <time>2021-07-09T10:18:48+0200</time>
      </trkpt>
      <trkpt lat="45.02469" lon="3.12373">
        <ele>824.558027</ele>
        <time>2021-07-09T10:18:51+0200</time>
      </trkpt>
      <trkpt lat="45.02469" lon="3.12379">
        <ele>825.198768</ele>
        <time>2021-07-09T10:18:54+0200</time>
      </trkpt>
      <trkpt lat="45.02471" lon="3.12387">
        <ele>823.173596</ele>
        <time>2021-07-09T10:18:57+0200</time>
      </trkpt>
      <trkpt lat="45.0247" lon="3.12395">
        <ele>822.89307</ele>
        <time>2021-07-09T10:18:59+0200</time>
      </trkpt>
      <trkpt lat="45.02471" lon="3.12402">
        <ele>822.497626</ele>
        <time>2021-07-09T10:19:01+0200</time>
      </trkpt>
      <trkpt lat="45.02471" lon="3.12409">
        <ele>821.296532</ele>
        <time>2021-07-09T10:19:03+0200</time>
      </trkpt>
      <trkpt lat="45.02471" lon="3.12416">
        <ele>821.758531</ele>
        <time>2021-07-09T10:19:05+0200</time>
      </trkpt>
      <trkpt lat="45.0247" lon="3.12423">
        <ele>821.695478</ele>
        <time>2021-07-09T10:19:07+0200</time>
      </trkpt>
      <trkpt lat="45.02467" lon="3.12429">
        <ele>819.962807</ele>
        <time>2021-07-09T10:19:09+0200</time>
      </trkpt>
      <trkpt lat="45.02463" lon="3.12436">
        <ele>818.661455</ele>
        <time>2021-07-09T10:19:11+0200</time>
      </trkpt>
      <trkpt lat="45.02458" lon="3.12441">
        <ele>816.999984</ele>
        <time>2021-07-09T10:19:13+0200</time>
      </trkpt>
      <trkpt lat="45.02452" lon="3.12446">
        <ele>815.49153</ele>
        <time>2021-07-09T10:19:16+0200</time>
      </trkpt>
      <trkpt lat="45.02446" lon="3.12451">
        <ele>814.072952</ele>
        <time>2021-07-09T10:19:18+0200</time>
      </trkpt>
      <trkpt lat="45.02441" lon="3.12454">
        <ele>813.054398</ele>
        <time>2021-07-09T10:19:20+0200</time>
      </trkpt>
      <trkpt lat="45.02437" lon="3.12456">
        <ele>813.073799</ele>
        <time>2021-07-09T10:19:23+0200</time>
      </trkpt>
      <trkpt lat="45.0243" lon="3.12455">
        <ele>814.632922</ele>
        <time>2021-07-09T10:19:26+0200</time>
      </trkpt>
      <trkpt lat="45.02427" lon="3.12448">
        <ele>814.757045</ele>
        <time>2021-07-09T10:19:29+0200</time>
      </trkpt>
      <trkpt lat="45.02424" lon="3.1244">
        <ele>816.011927</ele>
        <time>2021-07-09T10:19:32+0200</time>
      </trkpt>
      <trkpt lat="45.02421" lon="3.12435">
        <ele>818.232854</ele>
        <time>2021-07-09T10:19:35+0200</time>
      </trkpt>
      <trkpt lat="45.02418" lon="3.12428">
        <ele>818.093538</ele>
        <time>2021-07-09T10:19:38+0200</time>
      </trkpt>
      <trkpt lat="45.02417" lon="3.1242">
        <ele>820.96688</ele>
        <time>2021-07-09T10:19:41+0200</time>
      </trkpt>
      <trkpt lat="45.02415" lon="3.12412">
        <ele>823.646057</ele>
        <time>2021-07-09T10:19:45+0200</time>
      </trkpt>
      <trkpt lat="45.02413" lon="3.12407">
        <ele>827.003686</ele>
        <time>2021-07-09T10:19:48+0200</time>
      </trkpt>
      <trkpt lat="45.02408" lon="3.12401">
        <ele>828.827195</ele>
        <time>2021-07-09T10:19:50+0200</time>
      </trkpt>
      <trkpt lat="45.02406" lon="3.12395">
        <ele>829.117263</ele>
        <time>2021-07-09T10:19:53+0200</time>
      </trkpt>
      <trkpt lat="45.02404" lon="3.12389">
        <ele>829.023295</ele>
        <time>2021-07-09T10:19:54+0200</time>
      </trkpt>
      <trkpt lat="45.02398" lon="3.12384">
        <ele>828.881902</ele>
        <time>2021-07-09T10:19:58+0200</time>
      </trkpt>
      <trkpt lat="45.02394" lon="3.1238">
        <ele>827.545829</ele>
        <time>2021-07-09T10:19:59+0200</time>
      </trkpt>
      <trkpt lat="45.0239" lon="3.12375">
        <ele>827.629162</ele>
        <time>2021-07-09T10:20:02+0200</time>
      </trkpt>
      <trkpt lat="45.02386" lon="3.1237">
        <ele>828.54705</ele>
        <time>2021-07-09T10:20:05+0200</time>
      </trkpt>
      <trkpt lat="45.02382" lon="3.12365">
        <ele>828.958376</ele>
        <time>2021-07-09T10:20:07+0200</time>
      </trkpt>
      <trkpt lat="45.02379" lon="3.12359">
        <ele>829.335233</ele>
        <time>2021-07-09T10:20:09+0200</time>
      </trkpt>
      <trkpt lat="45.02374" lon="3.12355">
        <ele>827.393993</ele>
        <time>2021-07-09T10:20:12+0200</time>
      </trkpt>
      <trkpt lat="45.0237" lon="3.12352">
        <ele>826.878824</ele>
        <time>2021-07-09T10:20:14+0200</time>
      </trkpt>
      <trkpt lat="45.02365" lon="3.1235">
        <ele>826.151198</ele>
        <time>2021-07-09T10:20:17+0200</time>
      </trkpt>
      <trkpt lat="45.0236" lon="3.12347">
        <ele>826.007</ele>
        <time>2021-07-09T10:20:19+0200</time>
      </trkpt>
      <trkpt lat="45.02354" lon="3.12345">
        <ele>825.95077</ele>
        <time>2021-07-09T10:20:20+0200</time>
      </trkpt>
      <trkpt lat="45.02347" lon="3.12343">
        <ele>825.689085</ele>
        <time>2021-07-09T10:20:23+0200</time>
      </trkpt>
      <trkpt lat="45.02343" lon="3.12341">
        <ele>824.804801</ele>
        <time>2021-07-09T10:20:25+0200</time>
      </trkpt>
      <trkpt lat="45.02337" lon="3.1234">
        <ele>823.734947</ele>
        <time>2021-07-09T10:20:27+0200</time>
      </trkpt>
      <trkpt lat="45.02332" lon="3.1234">
        <ele>824.333278</ele>
        <time>2021-07-09T10:20:29+0200</time>
      </trkpt>
      <trkpt lat="45.02326" lon="3.12341">
        <ele>824.774478</ele>
        <time>2021-07-09T10:20:32+0200</time>
      </trkpt>
      <trkpt lat="45.02319" lon="3.12342">
        <ele>825.013674</ele>
        <time>2021-07-09T10:20:35+0200</time>
      </trkpt>
      <trkpt lat="45.02312" lon="3.12344">
        <ele>825.057818</ele>
        <time>2021-07-09T10:20:37+0200</time>
      </trkpt>
      <trkpt lat="45.02307" lon="3.12346">
        <ele>825.099113</ele>
        <time>2021-07-09T10:20:39+0200</time>
      </trkpt>
      <trkpt lat="45.02302" lon="3.12347">
        <ele>824.889351</ele>
        <time>2021-07-09T10:20:41+0200</time>
      </trkpt>
      <trkpt lat="45.02297" lon="3.12348">
        <ele>825.22543</ele>
        <time>2021-07-09T10:20:43+0200</time>
      </trkpt>
      <trkpt lat="45.02291" lon="3.12352">
        <ele>825.450161</ele>
        <time>2021-07-09T10:20:46+0200</time>
      </trkpt>
      <trkpt lat="45.02286" lon="3.12358">
        <ele>824.025988</ele>
        <time>2021-07-09T10:20:48+0200</time>
      </trkpt>
      <trkpt lat="45.0228" lon="3.12366">
        <ele>823.667229</ele>
        <time>2021-07-09T10:20:50+0200</time>
      </trkpt>
      <trkpt lat="45.02275" lon="3.12372">
        <ele>822.689594</ele>
        <time>2021-07-09T10:20:51+0200</time>
      </trkpt>
      <trkpt lat="45.02271" lon="3.1238">
        <ele>821.172041</ele>
        <time>2021-07-09T10:20:52+0200</time>
      </trkpt>
      <trkpt lat="45.02266" lon="3.12387">
        <ele>820.120846</ele>
        <time>2021-07-09T10:20:53+0200</time>
      </trkpt>
      <trkpt lat="45.02262" lon="3.12395">
        <ele>819.729624</ele>
        <time>2021-07-09T10:20:54+0200</time>
      </trkpt>
      <trkpt lat="45.02257" lon="3.12403">
        <ele>819.382074</ele>
        <time>2021-07-09T10:20:55+0200</time>
      </trkpt>
      <trkpt lat="45.02251" lon="3.1241">
        <ele>819.02313</ele>
        <time>2021-07-09T10:20:56+0200</time>
      </trkpt>
      <trkpt lat="45.02247" lon="3.12418">
        <ele>819.029984</ele>
        <time>2021-07-09T10:20:57+0200</time>
      </trkpt>
      <trkpt lat="45.02242" lon="3.12425">
        <ele>818.798965</ele>
        <time>2021-07-09T10:20:58+0200</time>
      </trkpt>
      <trkpt lat="45.02238" lon="3.12431">
        <ele>818.010393</ele>
        <time>2021-07-09T10:20:59+0200</time>
      </trkpt>
      <trkpt lat="45.02233" lon="3.12439">
        <ele>818.099727</ele>
        <time>2021-07-09T10:21:00+0200</time>
      </trkpt>
      <trkpt lat="45.02228" lon="3.12447">
        <ele>817.398144</ele>
        <time>2021-07-09T10:21:01+0200</time>
      </trkpt>
      <trkpt lat="45.02223" lon="3.12455">
        <ele>816.842928</ele>
        <time>2021-07-09T10:21:02+0200</time>
      </trkpt>
      <trkpt lat="45.02218" lon="3.12464">
        <ele>815.891835</ele>
        <time>2021-07-09T10:21:03+0200</time>
      </trkpt>
      <trkpt lat="45.02212" lon="3.12473">
        <ele>815.236418</ele>
        <time>2021-07-09T10:21:04+0200</time>
      </trkpt>
      <trkpt lat="45.02207" lon="3.12482">
        <ele>814.961953</ele>
        <time>2021-07-09T10:21:05+0200</time>
      </trkpt>
      <trkpt lat="45.02201" lon="3.1249">
        <ele>814.538382</ele>
        <time>2021-07-09T10:21:06+0200</time>
      </trkpt>
      <trkpt lat="45.02194" lon="3.12496">
        <ele>814.803868</ele>
        <time>2021-07-09T10:21:07+0200</time>
      </trkpt>
      <trkpt lat="45.02188" lon="3.12502">
        <ele>815.190357</ele>
        <time>2021-07-09T10:21:08+0200</time>
      </trkpt>
      <trkpt lat="45.02182" lon="3.12508">
        <ele>815.446049</ele>
        <time>2021-07-09T10:21:09+0200</time>
      </trkpt>
      <trkpt lat="45.02177" lon="3.12513">
        <ele>815.805479</ele>
        <time>2021-07-09T10:21:10+0200</time>
      </trkpt>
      <trkpt lat="45.02172" lon="3.1252">
        <ele>816.121567</ele>
        <time>2021-07-09T10:21:11+0200</time>
      </trkpt>
      <trkpt lat="45.02167" lon="3.12527">
        <ele>816.218834</ele>
        <time>2021-07-09T10:21:12+0200</time>
      </trkpt>
      <trkpt lat="45.02163" lon="3.12534">
        <ele>815.904909</ele>
        <time>2021-07-09T10:21:13+0200</time>
      </trkpt>
      <trkpt lat="45.02159" lon="3.1254">
        <ele>815.89076</ele>
        <time>2021-07-09T10:21:14+0200</time>
      </trkpt>
      <trkpt lat="45.02155" lon="3.12546">
        <ele>816.281704</ele>
        <time>2021-07-09T10:21:15+0200</time>
      </trkpt>
      <trkpt lat="45.02151" lon="3.1255">
        <ele>816.87775</ele>
        <time>2021-07-09T10:21:16+0200</time>
      </trkpt>
      <trkpt lat="45.02147" lon="3.12554">
        <ele>817.683967</ele>
        <time>2021-07-09T10:21:17+0200</time>
      </trkpt>
      <trkpt lat="45.02143" lon="3.12558">
        <ele>818.128428</ele>
        <time>2021-07-09T10:21:18+0200</time>
      </trkpt>
      <trkpt lat="45.02137" lon="3.12563">
        <ele>818.96978</ele>
        <time>2021-07-09T10:21:20+0200</time>
      </trkpt>
      <trkpt lat="45.02133" lon="3.12568">
        <ele>819.768141</ele>
        <time>2021-07-09T10:21:22+0200</time>
      </trkpt>
      <trkpt lat="45.02128" lon="3.12574">
        <ele>820.14514</ele>
        <time>2021-07-09T10:21:26+0200</time>
      </trkpt>
      <trkpt lat="45.02125" lon="3.12579">
        <ele>820.327156</ele>
        <time>2021-07-09T10:21:28+0200</time>
      </trkpt>
      <trkpt lat="45.02121" lon="3.12583">
        <ele>820.766031</ele>
        <time>2021-07-09T10:21:31+0200</time>
      </trkpt>
      <trkpt lat="45.02117" lon="3.12589">
        <ele>820.665161</ele>
        <time>2021-07-09T10:21:34+0200</time>
      </trkpt>
      <trkpt lat="45.02113" lon="3.12596">
        <ele>820.708641</ele>
        <time>2021-07-09T10:21:37+0200</time>
      </trkpt>
      <trkpt lat="45.0211" lon="3.12604">
        <ele>821.445951</ele>
        <time>2021-07-09T10:21:40+0200</time>
      </trkpt>
      <trkpt lat="45.02108" lon="3.1261">
        <ele>821.858869</ele>
        <time>2021-07-09T10:21:42+0200</time>
      </trkpt>
      <trkpt lat="45.02107" lon="3.12616">
        <ele>822.231946</ele>
        <time>2021-07-09T10:21:44+0200</time>
      </trkpt>
      <trkpt lat="45.02105" lon="3.12623">
        <ele>822.667029</ele>
        <time>2021-07-09T10:21:46+0200</time>
      </trkpt>
      <trkpt lat="45.02104" lon="3.12629">
        <ele>823.019689</ele>
        <time>2021-07-09T10:21:48+0200</time>
      </trkpt>
      <trkpt lat="45.02104" lon="3.12635">
        <ele>823.470948</ele>
        <time>2021-07-09T10:21:51+0200</time>
      </trkpt>
      <trkpt lat="45.02104" lon="3.12642">
        <ele>823.904979</ele>
        <time>2021-07-09T10:21:54+0200</time>
      </trkpt>
      <trkpt lat="45.02105" lon="3.12649">
        <ele>824.36532</ele>
        <time>2021-07-09T10:21:58+0200</time>
      </trkpt>
      <trkpt lat="45.02106" lon="3.12656">
        <ele>824.347851</ele>
        <time>2021-07-09T10:22:07+0200</time>
      </trkpt>
      <trkpt lat="45.02112" lon="3.1266">
        <ele>823.317822</ele>
        <time>2021-07-09T10:22:12+0200</time>
      </trkpt>
      <trkpt lat="45.02117" lon="3.12669">
        <ele>822.725924</ele>
        <time>2021-07-09T10:22:14+0200</time>
      </trkpt>
      <trkpt lat="45.0212" lon="3.12674">
        <ele>823.12054</ele>
        <time>2021-07-09T10:22:15+0200</time>
      </trkpt>
      <trkpt lat="45.02123" lon="3.12681">
        <ele>822.29419</ele>
        <time>2021-07-09T10:22:16+0200</time>
      </trkpt>
      <trkpt lat="45.02124" lon="3.1269">
        <ele>822.517053</ele>
        <time>2021-07-09T10:22:17+0200</time>
      </trkpt>
      <trkpt lat="45.0212" lon="3.127">
        <ele>822.971859</ele>
        <time>2021-07-09T10:22:18+0200</time>
      </trkpt>
      <trkpt lat="45.02116" lon="3.12703">
        <ele>823.891197</ele>
        <time>2021-07-09T10:22:19+0200</time>
      </trkpt>
      <trkpt lat="45.02109" lon="3.12707">
        <ele>824.883648</ele>
        <time>2021-07-09T10:22:21+0200</time>
      </trkpt>
      <trkpt lat="45.02103" lon="3.12712">
        <ele>824.710458</ele>
        <time>2021-07-09T10:22:23+0200</time>
      </trkpt>
      <trkpt lat="45.02096" lon="3.12716">
        <ele>823.857213</ele>
        <time>2021-07-09T10:22:25+0200</time>
      </trkpt>
      <trkpt lat="45.02091" lon="3.12723">
        <ele>823.593481</ele>
        <time>2021-07-09T10:22:27+0200</time>
      </trkpt>
      <trkpt lat="45.02086" lon="3.12731">
        <ele>823.269287</ele>
        <time>2021-07-09T10:22:29+0200</time>
      </trkpt>
      <trkpt lat="45.02081" lon="3.12739">
        <ele>823.056577</ele>
        <time>2021-07-09T10:22:31+0200</time>
      </trkpt>
      <trkpt lat="45.02076" lon="3.12745">
        <ele>822.923076</ele>
        <time>2021-07-09T10:22:33+0200</time>
      </trkpt>
      <trkpt lat="45.02071" lon="3.12751">
        <ele>822.606776</ele>
        <time>2021-07-09T10:22:35+0200</time>
      </trkpt>
      <trkpt lat="45.02065" lon="3.12756">
        <ele>822.861724</ele>
        <time>2021-07-09T10:22:37+0200</time>
      </trkpt>
      <trkpt lat="45.02059" lon="3.12759">
        <ele>823.651689</ele>
        <time>2021-07-09T10:22:39+0200</time>
      </trkpt>
      <trkpt lat="45.02053" lon="3.12762">
        <ele>825.006514</ele>
        <time>2021-07-09T10:22:42+0200</time>
      </trkpt>
      <trkpt lat="45.02048" lon="3.12763">
        <ele>825.652158</ele>
        <time>2021-07-09T10:22:44+0200</time>
      </trkpt>
      <trkpt lat="45.02044" lon="3.12764">
        <ele>826.905747</ele>
        <time>2021-07-09T10:22:46+0200</time>
      </trkpt>
      <trkpt lat="45.02039" lon="3.12765">
        <ele>827.372326</ele>
        <time>2021-07-09T10:22:48+0200</time>
      </trkpt>
      <trkpt lat="45.02033" lon="3.12766">
        <ele>827.972154</ele>
        <time>2021-07-09T10:22:50+0200</time>
      </trkpt>
      <trkpt lat="45.02027" lon="3.12769">
        <ele>828.859982</ele>
        <time>2021-07-09T10:22:53+0200</time>
      </trkpt>
      <trkpt lat="45.02022" lon="3.12771">
        <ele>830.152025</ele>
        <time>2021-07-09T10:22:56+0200</time>
      </trkpt>
      <trkpt lat="45.02016" lon="3.12772">
        <ele>830.734787</ele>
        <time>2021-07-09T10:22:59+0200</time>
      </trkpt>
      <trkpt lat="45.0201" lon="3.12774">
        <ele>831.400084</ele>
        <time>2021-07-09T10:23:02+0200</time>
      </trkpt>
      <trkpt lat="45.02004" lon="3.12778">
        <ele>831.966893</ele>
        <time>2021-07-09T10:23:05+0200</time>
      </trkpt>
      <trkpt lat="45.01998" lon="3.12783">
        <ele>832.575073</ele>
        <time>2021-07-09T10:23:08+0200</time>
      </trkpt>
      <trkpt lat="45.01995" lon="3.12787">
        <ele>833.58609</ele>
        <time>2021-07-09T10:23:10+0200</time>
      </trkpt>
      <trkpt lat="45.01992" lon="3.12793">
        <ele>833.854663</ele>
        <time>2021-07-09T10:23:13+0200</time>
      </trkpt>
      <trkpt lat="45.01987" lon="3.12795">
        <ele>832.594142</ele>
        <time>2021-07-09T10:23:25+0200</time>
      </trkpt>
      <trkpt lat="45.01982" lon="3.12797">
        <ele>831.286949</ele>
        <time>2021-07-09T10:23:27+0200</time>
      </trkpt>
      <trkpt lat="45.01974" lon="3.12799">
        <ele>830.457181</ele>
        <time>2021-07-09T10:23:29+0200</time>
      </trkpt>
      <trkpt lat="45.01969" lon="3.128">
        <ele>830.029175</ele>
        <time>2021-07-09T10:23:30+0200</time>
      </trkpt>
      <trkpt lat="45.01964" lon="3.128">
        <ele>829.461726</ele>
        <time>2021-07-09T10:23:31+0200</time>
      </trkpt>
      <trkpt lat="45.01959" lon="3.128">
        <ele>828.88957</ele>
        <time>2021-07-09T10:23:32+0200</time>
      </trkpt>
      <trkpt lat="45.01955" lon="3.128">
        <ele>828.658057</ele>
        <time>2021-07-09T10:23:33+0200</time>
      </trkpt>
      <trkpt lat="45.01949" lon="3.12799">
        <ele>828.570565</ele>
        <time>2021-07-09T10:23:34+0200</time>
      </trkpt>
      <trkpt lat="45.01945" lon="3.12798">
        <ele>828.351074</ele>
        <time>2021-07-09T10:23:35+0200</time>
      </trkpt>
      <trkpt lat="45.01938" lon="3.12798">
        <ele>829.140709</ele>
        <time>2021-07-09T10:23:36+0200</time>
      </trkpt>
      <trkpt lat="45.01933" lon="3.128">
        <ele>828.983272</ele>
        <time>2021-07-09T10:23:37+0200</time>
      </trkpt>
      <trkpt lat="45.01928" lon="3.12803">
        <ele>828.765604</ele>
        <time>2021-07-09T10:23:38+0200</time>
      </trkpt>
      <trkpt lat="45.01924" lon="3.12808">
        <ele>828.907746</ele>
        <time>2021-07-09T10:23:39+0200</time>
      </trkpt>
      <trkpt lat="45.0192" lon="3.12813">
        <ele>829.117392</ele>
        <time>2021-07-09T10:23:40+0200</time>
      </trkpt>
      <trkpt lat="45.01917" lon="3.12818">
        <ele>828.416901</ele>
        <time>2021-07-09T10:23:41+0200</time>
      </trkpt>
      <trkpt lat="45.01913" lon="3.12823">
        <ele>828.047711</ele>
        <time>2021-07-09T10:23:42+0200</time>
      </trkpt>
      <trkpt lat="45.01909" lon="3.12828">
        <ele>827.793358</ele>
        <time>2021-07-09T10:23:43+0200</time>
      </trkpt>
      <trkpt lat="45.01905" lon="3.12834">
        <ele>827.621079</ele>
        <time>2021-07-09T10:23:44+0200</time>
      </trkpt>
      <trkpt lat="45.01901" lon="3.12838">
        <ele>826.997628</ele>
        <time>2021-07-09T10:23:45+0200</time>
      </trkpt>
      <trkpt lat="45.01895" lon="3.12843">
        <ele>827.257862</ele>
        <time>2021-07-09T10:23:46+0200</time>
      </trkpt>
      <trkpt lat="45.0189" lon="3.12844">
        <ele>827.040202</ele>
        <time>2021-07-09T10:23:47+0200</time>
      </trkpt>
      <trkpt lat="45.01884" lon="3.12846">
        <ele>826.914957</ele>
        <time>2021-07-09T10:23:48+0200</time>
      </trkpt>
      <trkpt lat="45.01882" lon="3.12858">
        <ele>825.850492</ele>
        <time>2021-07-09T10:23:50+0200</time>
      </trkpt>
      <trkpt lat="45.01884" lon="3.12866">
        <ele>825.563035</ele>
        <time>2021-07-09T10:23:51+0200</time>
      </trkpt>
      <trkpt lat="45.01887" lon="3.12875">
        <ele>825.133604</ele>
        <time>2021-07-09T10:23:52+0200</time>
      </trkpt>
      <trkpt lat="45.01891" lon="3.12885">
        <ele>823.90852</ele>
        <time>2021-07-09T10:23:53+0200</time>
      </trkpt>
      <trkpt lat="45.01895" lon="3.12897">
        <ele>822.972565</ele>
        <time>2021-07-09T10:23:54+0200</time>
      </trkpt>
      <trkpt lat="45.01899" lon="3.12909">
        <ele>821.989583</ele>
        <time>2021-07-09T10:23:54+0200</time>
      </trkpt>
      <trkpt lat="45.01902" lon="3.12922">
        <ele>820.953409</ele>
        <time>2021-07-09T10:23:56+0200</time>
      </trkpt>
      <trkpt lat="45.01907" lon="3.12934">
        <ele>820.720451</ele>
        <time>2021-07-09T10:23:57+0200</time>
      </trkpt>
      <trkpt lat="45.01909" lon="3.12946">
        <ele>820.153912</ele>
        <time>2021-07-09T10:23:58+0200</time>
      </trkpt>
      <trkpt lat="45.01912" lon="3.12958">
        <ele>819.752994</ele>
        <time>2021-07-09T10:23:59+0200</time>
      </trkpt>
      <trkpt lat="45.01915" lon="3.1297">
        <ele>819.983161</ele>
        <time>2021-07-09T10:24:00+0200</time>
      </trkpt>
      <trkpt lat="45.01917" lon="3.12981">
        <ele>820.040831</ele>
        <time>2021-07-09T10:24:01+0200</time>
      </trkpt>
      <trkpt lat="45.01919" lon="3.12992">
        <ele>820.01609</ele>
        <time>2021-07-09T10:24:02+0200</time>
      </trkpt>
      <trkpt lat="45.01921" lon="3.13003">
        <ele>820.448912</ele>
        <time>2021-07-09T10:24:03+0200</time>
      </trkpt>
      <trkpt lat="45.01923" lon="3.13012">
        <ele>820.449343</ele>
        <time>2021-07-09T10:24:04+0200</time>
      </trkpt>
      <trkpt lat="45.01925" lon="3.13022">
        <ele>820.551506</ele>
        <time>2021-07-09T10:24:05+0200</time>
      </trkpt>
      <trkpt lat="45.01927" lon="3.1303">
        <ele>819.878106</ele>
        <time>2021-07-09T10:24:06+0200</time>
      </trkpt>
      <trkpt lat="45.01931" lon="3.13039">
        <ele>819.24081</ele>
        <time>2021-07-09T10:24:07+0200</time>
      </trkpt>
      <trkpt lat="45.01936" lon="3.13047">
        <ele>818.641598</ele>
        <time>2021-07-09T10:24:08+0200</time>
      </trkpt>
      <trkpt lat="45.01942" lon="3.13052">
        <ele>818.195412</ele>
        <time>2021-07-09T10:24:09+0200</time>
      </trkpt>
      <trkpt lat="45.01949" lon="3.13056">
        <ele>818.037661</ele>
        <time>2021-07-09T10:24:10+0200</time>
      </trkpt>
      <trkpt lat="45.01956" lon="3.13057">
        <ele>818.284289</ele>
        <time>2021-07-09T10:24:11+0200</time>
      </trkpt>
      <trkpt lat="45.01963" lon="3.13059">
        <ele>818.121213</ele>
        <time>2021-07-09T10:24:12+0200</time>
      </trkpt>
      <trkpt lat="45.01969" lon="3.1306">
        <ele>818.249111</ele>
        <time>2021-07-09T10:24:13+0200</time>
      </trkpt>
      <trkpt lat="45.01974" lon="3.13062">
        <ele>819.025052</ele>
        <time>2021-07-09T10:24:14+0200</time>
      </trkpt>
      <trkpt lat="45.01979" lon="3.13064">
        <ele>819.670003</ele>
        <time>2021-07-09T10:24:15+0200</time>
      </trkpt>
      <trkpt lat="45.01983" lon="3.13066">
        <ele>820.237829</ele>
        <time>2021-07-09T10:24:16+0200</time>
      </trkpt>
      <trkpt lat="45.01988" lon="3.13069">
        <ele>821.920188</ele>
        <time>2021-07-09T10:24:17+0200</time>
      </trkpt>
      <trkpt lat="45.01992" lon="3.13072">
        <ele>822.702599</ele>
        <time>2021-07-09T10:24:18+0200</time>
      </trkpt>
      <trkpt lat="45.01997" lon="3.13075">
        <ele>822.037203</ele>
        <time>2021-07-09T10:24:19+0200</time>
      </trkpt>
      <trkpt lat="45.02002" lon="3.13079">
        <ele>821.284209</ele>
        <time>2021-07-09T10:24:20+0200</time>
      </trkpt>
      <trkpt lat="45.02005" lon="3.13083">
        <ele>820.222728</ele>
        <time>2021-07-09T10:24:21+0200</time>
      </trkpt>
      <trkpt lat="45.02009" lon="3.13088">
        <ele>819.311915</ele>
        <time>2021-07-09T10:24:22+0200</time>
      </trkpt>
      <trkpt lat="45.02013" lon="3.13095">
        <ele>820.396992</ele>
        <time>2021-07-09T10:24:23+0200</time>
      </trkpt>
      <trkpt lat="45.02016" lon="3.131">
        <ele>820.536657</ele>
        <time>2021-07-09T10:24:24+0200</time>
      </trkpt>
      <trkpt lat="45.02019" lon="3.13106">
        <ele>821.597462</ele>
        <time>2021-07-09T10:24:25+0200</time>
      </trkpt>
      <trkpt lat="45.02022" lon="3.13113">
        <ele>822.447238</ele>
        <time>2021-07-09T10:24:26+0200</time>
      </trkpt>
      <trkpt lat="45.02026" lon="3.13118">
        <ele>822.598211</ele>
        <time>2021-07-09T10:24:27+0200</time>
      </trkpt>
      <trkpt lat="45.0203" lon="3.13122">
        <ele>821.764562</ele>
        <time>2021-07-09T10:24:28+0200</time>
      </trkpt>
      <trkpt lat="45.02034" lon="3.13127">
        <ele>819.657468</ele>
        <time>2021-07-09T10:24:29+0200</time>
      </trkpt>
      <trkpt lat="45.02038" lon="3.13131">
        <ele>818.580852</ele>
        <time>2021-07-09T10:24:30+0200</time>
      </trkpt>
      <trkpt lat="45.02045" lon="3.1314">
        <ele>816.455964</ele>
        <time>2021-07-09T10:24:32+0200</time>
      </trkpt>
      <trkpt lat="45.02049" lon="3.13146">
        <ele>816.089848</ele>
        <time>2021-07-09T10:24:33+0200</time>
      </trkpt>
      <trkpt lat="45.02053" lon="3.13152">
        <ele>816.345551</ele>
        <time>2021-07-09T10:24:34+0200</time>
      </trkpt>
      <trkpt lat="45.02057" lon="3.13158">
        <ele>815.441749</ele>
        <time>2021-07-09T10:24:35+0200</time>
      </trkpt>
      <trkpt lat="45.0206" lon="3.13165">
        <ele>814.669549</ele>
        <time>2021-07-09T10:24:36+0200</time>
      </trkpt>
      <trkpt lat="45.02064" lon="3.13171">
        <ele>814.925725</ele>
        <time>2021-07-09T10:24:37+0200</time>
      </trkpt>
      <trkpt lat="45.02067" lon="3.13179">
        <ele>814.858547</ele>
        <time>2021-07-09T10:24:38+0200</time>
      </trkpt>
      <trkpt lat="45.0207" lon="3.13187">
        <ele>815.128476</ele>
        <time>2021-07-09T10:24:39+0200</time>
      </trkpt>
      <trkpt lat="45.02072" lon="3.13195">
        <ele>816.001762</ele>
        <time>2021-07-09T10:24:40+0200</time>
      </trkpt>
      <trkpt lat="45.02074" lon="3.13201">
        <ele>816.575619</ele>
        <time>2021-07-09T10:24:41+0200</time>
      </trkpt>
      <trkpt lat="45.02075" lon="3.1321">
        <ele>817.077099</ele>
        <time>2021-07-09T10:24:42+0200</time>
      </trkpt>
      <trkpt lat="45.02077" lon="3.13217">
        <ele>816.8513</ele>
        <time>2021-07-09T10:24:43+0200</time>
      </trkpt>
      <trkpt lat="45.02078" lon="3.13225">
        <ele>817.250108</ele>
        <time>2021-07-09T10:24:44+0200</time>
      </trkpt>
      <trkpt lat="45.02079" lon="3.13232">
        <ele>817.423933</ele>
        <time>2021-07-09T10:24:45+0200</time>
      </trkpt>
      <trkpt lat="45.0208" lon="3.13238">
        <ele>817.385856</ele>
        <time>2021-07-09T10:24:46+0200</time>
      </trkpt>
      <trkpt lat="45.02083" lon="3.13249">
        <ele>816.901033</ele>
        <time>2021-07-09T10:24:48+0200</time>
      </trkpt>
      <trkpt lat="45.02089" lon="3.13258">
        <ele>816.557384</ele>
        <time>2021-07-09T10:24:50+0200</time>
      </trkpt>
      <trkpt lat="45.02093" lon="3.13263">
        <ele>816.092644</ele>
        <time>2021-07-09T10:24:51+0200</time>
      </trkpt>
      <trkpt lat="45.02096" lon="3.13269">
        <ele>815.154593</ele>
        <time>2021-07-09T10:24:52+0200</time>
      </trkpt>
      <trkpt lat="45.02099" lon="3.13274">
        <ele>814.957157</ele>
        <time>2021-07-09T10:24:53+0200</time>
      </trkpt>
      <trkpt lat="45.02101" lon="3.1328">
        <ele>814.483613</ele>
        <time>2021-07-09T10:24:54+0200</time>
      </trkpt>
      <trkpt lat="45.02104" lon="3.13287">
        <ele>813.748117</ele>
        <time>2021-07-09T10:24:55+0200</time>
      </trkpt>
      <trkpt lat="45.02107" lon="3.13293">
        <ele>813.836727</ele>
        <time>2021-07-09T10:24:56+0200</time>
      </trkpt>
      <trkpt lat="45.02109" lon="3.133">
        <ele>813.352308</ele>
        <time>2021-07-09T10:24:57+0200</time>
      </trkpt>
      <trkpt lat="45.02112" lon="3.13306">
        <ele>812.316784</ele>
        <time>2021-07-09T10:24:58+0200</time>
      </trkpt>
      <trkpt lat="45.02113" lon="3.13313">
        <ele>812.365862</ele>
        <time>2021-07-09T10:24:59+0200</time>
      </trkpt>
      <trkpt lat="45.02116" lon="3.13319">
        <ele>813.042797</ele>
        <time>2021-07-09T10:25:00+0200</time>
      </trkpt>
      <trkpt lat="45.02119" lon="3.13325">
        <ele>813.345175</ele>
        <time>2021-07-09T10:25:01+0200</time>
      </trkpt>
      <trkpt lat="45.02122" lon="3.13331">
        <ele>813.517221</ele>
        <time>2021-07-09T10:25:02+0200</time>
      </trkpt>
      <trkpt lat="45.02125" lon="3.13336">
        <ele>812.880156</ele>
        <time>2021-07-09T10:25:03+0200</time>
      </trkpt>
      <trkpt lat="45.02128" lon="3.13341">
        <ele>812.471034</ele>
        <time>2021-07-09T10:25:04+0200</time>
      </trkpt>
      <trkpt lat="45.02132" lon="3.13345">
        <ele>812.424543</ele>
        <time>2021-07-09T10:25:05+0200</time>
      </trkpt>
      <trkpt lat="45.0214" lon="3.13349">
        <ele>812.860972</ele>
        <time>2021-07-09T10:25:07+0200</time>
      </trkpt>
      <trkpt lat="45.02145" lon="3.13351">
        <ele>813.125699</ele>
        <time>2021-07-09T10:25:08+0200</time>
      </trkpt>
      <trkpt lat="45.02153" lon="3.13352">
        <ele>813.626804</ele>
        <time>2021-07-09T10:25:10+0200</time>
      </trkpt>
      <trkpt lat="45.02158" lon="3.13352">
        <ele>813.387272</ele>
        <time>2021-07-09T10:25:11+0200</time>
      </trkpt>
      <trkpt lat="45.02163" lon="3.1335">
        <ele>813.199538</ele>
        <time>2021-07-09T10:25:12+0200</time>
      </trkpt>
      <trkpt lat="45.02173" lon="3.1335">
        <ele>813.059916</ele>
        <time>2021-07-09T10:25:14+0200</time>
      </trkpt>
      <trkpt lat="45.02178" lon="3.13352">
        <ele>812.854881</ele>
        <time>2021-07-09T10:25:15+0200</time>
      </trkpt>
      <trkpt lat="45.02182" lon="3.13357">
        <ele>811.822485</ele>
        <time>2021-07-09T10:25:16+0200</time>
      </trkpt>
      <trkpt lat="45.02184" lon="3.13364">
        <ele>811.681139</ele>
        <time>2021-07-09T10:25:17+0200</time>
      </trkpt>
      <trkpt lat="45.02183" lon="3.13374">
        <ele>813.063125</ele>
        <time>2021-07-09T10:25:18+0200</time>
      </trkpt>
      <trkpt lat="45.02182" lon="3.13384">
        <ele>815.289921</ele>
        <time>2021-07-09T10:25:19+0200</time>
      </trkpt>
      <trkpt lat="45.0218" lon="3.13393">
        <ele>815.860044</ele>
        <time>2021-07-09T10:25:20+0200</time>
      </trkpt>
      <trkpt lat="45.02178" lon="3.134">
        <ele>816.668546</ele>
        <time>2021-07-09T10:25:21+0200</time>
      </trkpt>
      <trkpt lat="45.02176" lon="3.13408">
        <ele>816.912757</ele>
        <time>2021-07-09T10:25:22+0200</time>
      </trkpt>
      <trkpt lat="45.02175" lon="3.13415">
        <ele>816.952228</ele>
        <time>2021-07-09T10:25:23+0200</time>
      </trkpt>
      <trkpt lat="45.02173" lon="3.13422">
        <ele>816.835202</ele>
        <time>2021-07-09T10:25:24+0200</time>
      </trkpt>
      <trkpt lat="45.02173" lon="3.13428">
        <ele>816.852946</ele>
        <time>2021-07-09T10:25:25+0200</time>
      </trkpt>
      <trkpt lat="45.02174" lon="3.13435">
        <ele>816.696709</ele>
        <time>2021-07-09T10:25:26+0200</time>
      </trkpt>
      <trkpt lat="45.02177" lon="3.13446">
        <ele>816.665191</ele>
        <time>2021-07-09T10:25:28+0200</time>
      </trkpt>
      <trkpt lat="45.02182" lon="3.13456">
        <ele>815.242203</ele>
        <time>2021-07-09T10:25:29+0200</time>
      </trkpt>
      <trkpt lat="45.02187" lon="3.13463">
        <ele>813.840395</ele>
        <time>2021-07-09T10:25:31+0200</time>
      </trkpt>
      <trkpt lat="45.02191" lon="3.13471">
        <ele>813.494957</ele>
        <time>2021-07-09T10:25:33+0200</time>
      </trkpt>
      <trkpt lat="45.02196" lon="3.13479">
        <ele>812.905893</ele>
        <time>2021-07-09T10:25:35+0200</time>
      </trkpt>
      <trkpt lat="45.02202" lon="3.13486">
        <ele>811.6689</ele>
        <time>2021-07-09T10:25:37+0200</time>
      </trkpt>
      <trkpt lat="45.02205" lon="3.13491">
        <ele>811.842311</ele>
        <time>2021-07-09T10:25:38+0200</time>
      </trkpt>
      <trkpt lat="45.02208" lon="3.13496">
        <ele>811.764957</ele>
        <time>2021-07-09T10:25:39+0200</time>
      </trkpt>
      <trkpt lat="45.02212" lon="3.13503">
        <ele>811.612158</ele>
        <time>2021-07-09T10:25:40+0200</time>
      </trkpt>
      <trkpt lat="45.02217" lon="3.13509">
        <ele>811.220056</ele>
        <time>2021-07-09T10:25:41+0200</time>
      </trkpt>
      <trkpt lat="45.02222" lon="3.13516">
        <ele>810.959632</ele>
        <time>2021-07-09T10:25:42+0200</time>
      </trkpt>
      <trkpt lat="45.02226" lon="3.13524">
        <ele>810.574862</ele>
        <time>2021-07-09T10:25:43+0200</time>
      </trkpt>
      <trkpt lat="45.0223" lon="3.13531">
        <ele>809.737797</ele>
        <time>2021-07-09T10:25:44+0200</time>
      </trkpt>
      <trkpt lat="45.02235" lon="3.13538">
        <ele>809.263635</ele>
        <time>2021-07-09T10:25:45+0200</time>
      </trkpt>
      <trkpt lat="45.0224" lon="3.13543">
        <ele>809.750096</ele>
        <time>2021-07-09T10:25:46+0200</time>
      </trkpt>
      <trkpt lat="45.02248" lon="3.13543">
        <ele>808.843433</ele>
        <time>2021-07-09T10:25:47+0200</time>
      </trkpt>
      <trkpt lat="45.02255" lon="3.13542">
        <ele>808.570511</ele>
        <time>2021-07-09T10:25:48+0200</time>
      </trkpt>
      <trkpt lat="45.02262" lon="3.1354">
        <ele>807.444068</ele>
        <time>2021-07-09T10:25:49+0200</time>
      </trkpt>
      <trkpt lat="45.0227" lon="3.13538">
        <ele>806.955677</ele>
        <time>2021-07-09T10:25:50+0200</time>
      </trkpt>
      <trkpt lat="45.02278" lon="3.13535">
        <ele>805.529897</ele>
        <time>2021-07-09T10:25:51+0200</time>
      </trkpt>
      <trkpt lat="45.02286" lon="3.13533">
        <ele>804.818296</ele>
        <time>2021-07-09T10:25:52+0200</time>
      </trkpt>
      <trkpt lat="45.02295" lon="3.13534">
        <ele>803.895607</ele>
        <time>2021-07-09T10:25:53+0200</time>
      </trkpt>
      <trkpt lat="45.02303" lon="3.13536">
        <ele>803.87379</ele>
        <time>2021-07-09T10:25:54+0200</time>
      </trkpt>
      <trkpt lat="45.02311" lon="3.13538">
        <ele>803.916693</ele>
        <time>2021-07-09T10:25:55+0200</time>
      </trkpt>
      <trkpt lat="45.02318" lon="3.1354">
        <ele>804.566887</ele>
        <time>2021-07-09T10:25:56+0200</time>
      </trkpt>
      <trkpt lat="45.02325" lon="3.13543">
        <ele>804.754487</ele>
        <time>2021-07-09T10:25:57+0200</time>
      </trkpt>
      <trkpt lat="45.02333" lon="3.13545">
        <ele>804.920481</ele>
        <time>2021-07-09T10:25:58+0200</time>
      </trkpt>
      <trkpt lat="45.0234" lon="3.13549">
        <ele>805.079133</ele>
        <time>2021-07-09T10:25:59+0200</time>
      </trkpt>
      <trkpt lat="45.02345" lon="3.13556">
        <ele>805.582231</ele>
        <time>2021-07-09T10:26:00+0200</time>
      </trkpt>
      <trkpt lat="45.02351" lon="3.13564">
        <ele>805.541655</ele>
        <time>2021-07-09T10:26:02+0200</time>
      </trkpt>
      <trkpt lat="45.02355" lon="3.13571">
        <ele>805.964507</ele>
        <time>2021-07-09T10:26:03+0200</time>
      </trkpt>
      <trkpt lat="45.02359" lon="3.13578">
        <ele>806.698761</ele>
        <time>2021-07-09T10:26:04+0200</time>
      </trkpt>
      <trkpt lat="45.02363" lon="3.13585">
        <ele>806.802588</ele>
        <time>2021-07-09T10:26:05+0200</time>
      </trkpt>
      <trkpt lat="45.02367" lon="3.13594">
        <ele>805.824602</ele>
        <time>2021-07-09T10:26:06+0200</time>
      </trkpt>
      <trkpt lat="45.0237" lon="3.136">
        <ele>805.700439</ele>
        <time>2021-07-09T10:26:07+0200</time>
      </trkpt>
      <trkpt lat="45.02375" lon="3.13604">
        <ele>804.714097</ele>
        <time>2021-07-09T10:26:08+0200</time>
      </trkpt>
      <trkpt lat="45.02381" lon="3.13608">
        <ele>803.713976</ele>
        <time>2021-07-09T10:26:09+0200</time>
      </trkpt>
      <trkpt lat="45.02386" lon="3.13611">
        <ele>803.281979</ele>
        <time>2021-07-09T10:26:10+0200</time>
      </trkpt>
      <trkpt lat="45.02392" lon="3.13615">
        <ele>802.743278</ele>
        <time>2021-07-09T10:26:11+0200</time>
      </trkpt>
      <trkpt lat="45.02398" lon="3.13621">
        <ele>803.139903</ele>
        <time>2021-07-09T10:26:12+0200</time>
      </trkpt>
      <trkpt lat="45.02403" lon="3.13629">
        <ele>804.036732</ele>
        <time>2021-07-09T10:26:13+0200</time>
      </trkpt>
      <trkpt lat="45.02406" lon="3.13637">
        <ele>803.768415</ele>
        <time>2021-07-09T10:26:13+0200</time>
      </trkpt>
      <trkpt lat="45.02407" lon="3.13647">
        <ele>803.631646</ele>
        <time>2021-07-09T10:26:14+0200</time>
      </trkpt>
      <trkpt lat="45.02407" lon="3.13657">
        <ele>804.044181</ele>
        <time>2021-07-09T10:26:15+0200</time>
      </trkpt>
      <trkpt lat="45.02406" lon="3.13666">
        <ele>804.043847</ele>
        <time>2021-07-09T10:26:16+0200</time>
      </trkpt>
      <trkpt lat="45.02404" lon="3.13674">
        <ele>804.209659</ele>
        <time>2021-07-09T10:26:17+0200</time>
      </trkpt>
      <trkpt lat="45.02401" lon="3.13682">
        <ele>804.336359</ele>
        <time>2021-07-09T10:26:18+0200</time>
      </trkpt>
      <trkpt lat="45.02399" lon="3.13689">
        <ele>804.72228</ele>
        <time>2021-07-09T10:26:19+0200</time>
      </trkpt>
      <trkpt lat="45.02397" lon="3.13696">
        <ele>804.824482</ele>
        <time>2021-07-09T10:26:20+0200</time>
      </trkpt>
      <trkpt lat="45.02395" lon="3.13702">
        <ele>804.922207</ele>
        <time>2021-07-09T10:26:21+0200</time>
      </trkpt>
      <trkpt lat="45.02393" lon="3.13708">
        <ele>805.049575</ele>
        <time>2021-07-09T10:26:23+0200</time>
      </trkpt>
      <trkpt lat="45.02391" lon="3.13719">
        <ele>805.74273</ele>
        <time>2021-07-09T10:26:25+0200</time>
      </trkpt>
      <trkpt lat="45.02391" lon="3.13729">
        <ele>806.392475</ele>
        <time>2021-07-09T10:26:27+0200</time>
      </trkpt>
      <trkpt lat="45.02392" lon="3.13738">
        <ele>806.124225</ele>
        <time>2021-07-09T10:26:29+0200</time>
      </trkpt>
      <trkpt lat="45.02394" lon="3.13748">
        <ele>806.039793</ele>
        <time>2021-07-09T10:26:31+0200</time>
      </trkpt>
      <trkpt lat="45.02396" lon="3.13754">
        <ele>805.605843</ele>
        <time>2021-07-09T10:26:32+0200</time>
      </trkpt>
      <trkpt lat="45.02399" lon="3.1376">
        <ele>805.028984</ele>
        <time>2021-07-09T10:26:33+0200</time>
      </trkpt>
      <trkpt lat="45.02402" lon="3.13766">
        <ele>804.081715</ele>
        <time>2021-07-09T10:26:34+0200</time>
      </trkpt>
      <trkpt lat="45.02407" lon="3.13773">
        <ele>803.156991</ele>
        <time>2021-07-09T10:26:35+0200</time>
      </trkpt>
      <trkpt lat="45.02411" lon="3.13781">
        <ele>802.539497</ele>
        <time>2021-07-09T10:26:36+0200</time>
      </trkpt>
      <trkpt lat="45.02417" lon="3.13789">
        <ele>801.966849</ele>
        <time>2021-07-09T10:26:37+0200</time>
      </trkpt>
      <trkpt lat="45.02423" lon="3.13796">
        <ele>801.264138</ele>
        <time>2021-07-09T10:26:38+0200</time>
      </trkpt>
      <trkpt lat="45.02428" lon="3.13805">
        <ele>801.073274</ele>
        <time>2021-07-09T10:26:39+0200</time>
      </trkpt>
      <trkpt lat="45.02434" lon="3.13814">
        <ele>800.364524</ele>
        <time>2021-07-09T10:26:40+0200</time>
      </trkpt>
      <trkpt lat="45.02438" lon="3.13824">
        <ele>799.23615</ele>
        <time>2021-07-09T10:26:41+0200</time>
      </trkpt>
      <trkpt lat="45.02441" lon="3.13838">
        <ele>799.159355</ele>
        <time>2021-07-09T10:26:42+0200</time>
      </trkpt>
      <trkpt lat="45.02443" lon="3.13852">
        <ele>800.644751</ele>
        <time>2021-07-09T10:26:43+0200</time>
      </trkpt>
      <trkpt lat="45.02444" lon="3.13864">
        <ele>801.524777</ele>
        <time>2021-07-09T10:26:44+0200</time>
      </trkpt>
      <trkpt lat="45.02445" lon="3.13874">
        <ele>801.727486</ele>
        <time>2021-07-09T10:26:45+0200</time>
      </trkpt>
      <trkpt lat="45.02446" lon="3.13883">
        <ele>802.297374</ele>
        <time>2021-07-09T10:26:46+0200</time>
      </trkpt>
      <trkpt lat="45.02448" lon="3.13892">
        <ele>802.246335</ele>
        <time>2021-07-09T10:26:47+0200</time>
      </trkpt>
      <trkpt lat="45.02449" lon="3.13904">
        <ele>803.25146</ele>
        <time>2021-07-09T10:26:49+0200</time>
      </trkpt>
      <trkpt lat="45.02451" lon="3.13916">
        <ele>804.187885</ele>
        <time>2021-07-09T10:26:51+0200</time>
      </trkpt>
      <trkpt lat="45.02452" lon="3.13925">
        <ele>805.027996</ele>
        <time>2021-07-09T10:26:53+0200</time>
      </trkpt>
      <trkpt lat="45.02453" lon="3.13935">
        <ele>805.489207</ele>
        <time>2021-07-09T10:26:55+0200</time>
      </trkpt>
      <trkpt lat="45.02456" lon="3.13945">
        <ele>805.409635</ele>
        <time>2021-07-09T10:26:56+0200</time>
      </trkpt>
      <trkpt lat="45.0246" lon="3.13956">
        <ele>804.96225</ele>
        <time>2021-07-09T10:26:59+0200</time>
      </trkpt>
      <trkpt lat="45.02461" lon="3.13962">
        <ele>804.781232</ele>
        <time>2021-07-09T10:26:59+0200</time>
      </trkpt>
      <trkpt lat="45.02464" lon="3.13973">
        <ele>804.19397</ele>
        <time>2021-07-09T10:27:01+0200</time>
      </trkpt>
      <trkpt lat="45.02465" lon="3.1398">
        <ele>803.807472</ele>
        <time>2021-07-09T10:27:02+0200</time>
      </trkpt>
      <trkpt lat="45.02465" lon="3.13989">
        <ele>803.394464</ele>
        <time>2021-07-09T10:27:03+0200</time>
      </trkpt>
      <trkpt lat="45.02466" lon="3.13997">
        <ele>803.120466</ele>
        <time>2021-07-09T10:27:04+0200</time>
      </trkpt>
      <trkpt lat="45.02465" lon="3.14006">
        <ele>803.209169</ele>
        <time>2021-07-09T10:27:05+0200</time>
      </trkpt>
      <trkpt lat="45.02464" lon="3.14015">
        <ele>803.392439</ele>
        <time>2021-07-09T10:27:06+0200</time>
      </trkpt>
      <trkpt lat="45.02463" lon="3.14024">
        <ele>803.391622</ele>
        <time>2021-07-09T10:27:07+0200</time>
      </trkpt>
      <trkpt lat="45.02462" lon="3.14032">
        <ele>803.223183</ele>
        <time>2021-07-09T10:27:08+0200</time>
      </trkpt>
      <trkpt lat="45.02462" lon="3.14041">
        <ele>803.279794</ele>
        <time>2021-07-09T10:27:09+0200</time>
      </trkpt>
      <trkpt lat="45.02464" lon="3.14049">
        <ele>803.778417</ele>
        <time>2021-07-09T10:27:10+0200</time>
      </trkpt>
      <trkpt lat="45.02466" lon="3.14055">
        <ele>803.531677</ele>
        <time>2021-07-09T10:27:11+0200</time>
      </trkpt>
      <trkpt lat="45.02471" lon="3.14065">
        <ele>802.793501</ele>
        <time>2021-07-09T10:27:13+0200</time>
      </trkpt>
      <trkpt lat="45.02474" lon="3.14074">
        <ele>802.701131</ele>
        <time>2021-07-09T10:27:15+0200</time>
      </trkpt>
      <trkpt lat="45.02476" lon="3.14084">
        <ele>802.626839</ele>
        <time>2021-07-09T10:27:17+0200</time>
      </trkpt>
      <trkpt lat="45.02476" lon="3.14097">
        <ele>804.343561</ele>
        <time>2021-07-09T10:27:19+0200</time>
      </trkpt>
      <trkpt lat="45.02474" lon="3.14108">
        <ele>805.733051</ele>
        <time>2021-07-09T10:27:21+0200</time>
      </trkpt>
      <trkpt lat="45.0247" lon="3.14116">
        <ele>806.457069</ele>
        <time>2021-07-09T10:27:23+0200</time>
      </trkpt>
      <trkpt lat="45.02466" lon="3.14122">
        <ele>806.550726</ele>
        <time>2021-07-09T10:27:25+0200</time>
      </trkpt>
      <trkpt lat="45.0246" lon="3.14126">
        <ele>807.152727</ele>
        <time>2021-07-09T10:27:27+0200</time>
      </trkpt>
      <trkpt lat="45.02455" lon="3.14126">
        <ele>806.931414</ele>
        <time>2021-07-09T10:27:29+0200</time>
      </trkpt>
      <trkpt lat="45.0245" lon="3.14128">
        <ele>807.292232</ele>
        <time>2021-07-09T10:27:31+0200</time>
      </trkpt>
      <trkpt lat="45.02446" lon="3.14132">
        <ele>806.739681</ele>
        <time>2021-07-09T10:27:33+0200</time>
      </trkpt>
      <trkpt lat="45.02442" lon="3.14137">
        <ele>806.671349</ele>
        <time>2021-07-09T10:27:35+0200</time>
      </trkpt>
      <trkpt lat="45.02437" lon="3.1414">
        <ele>806.439278</ele>
        <time>2021-07-09T10:27:37+0200</time>
      </trkpt>
      <trkpt lat="45.02432" lon="3.14143">
        <ele>806.457142</ele>
        <time>2021-07-09T10:27:43+0200</time>
      </trkpt>
      <trkpt lat="45.02428" lon="3.14148">
        <ele>805.714006</ele>
        <time>2021-07-09T10:27:45+0200</time>
      </trkpt>
      <trkpt lat="45.02424" lon="3.14156">
        <ele>805.451606</ele>
        <time>2021-07-09T10:27:47+0200</time>
      </trkpt>
      <trkpt lat="45.0242" lon="3.14161">
        <ele>804.927913</ele>
        <time>2021-07-09T10:27:48+0200</time>
      </trkpt>
      <trkpt lat="45.02417" lon="3.14166">
        <ele>803.845637</ele>
        <time>2021-07-09T10:27:49+0200</time>
      </trkpt>
      <trkpt lat="45.02414" lon="3.14173">
        <ele>802.969743</ele>
        <time>2021-07-09T10:27:50+0200</time>
      </trkpt>
      <trkpt lat="45.02411" lon="3.14179">
        <ele>802.62148</ele>
        <time>2021-07-09T10:27:51+0200</time>
      </trkpt>
      <trkpt lat="45.02407" lon="3.14185">
        <ele>802.40447</ele>
        <time>2021-07-09T10:27:52+0200</time>
      </trkpt>
      <trkpt lat="45.02403" lon="3.14191">
        <ele>801.869141</ele>
        <time>2021-07-09T10:27:53+0200</time>
      </trkpt>
      <trkpt lat="45.02401" lon="3.14198">
        <ele>801.398402</ele>
        <time>2021-07-09T10:27:54+0200</time>
      </trkpt>
      <trkpt lat="45.02397" lon="3.14204">
        <ele>801.158421</ele>
        <time>2021-07-09T10:27:55+0200</time>
      </trkpt>
      <trkpt lat="45.02393" lon="3.14212">
        <ele>800.70281</ele>
        <time>2021-07-09T10:27:56+0200</time>
      </trkpt>
      <trkpt lat="45.02389" lon="3.1422">
        <ele>800.076117</ele>
        <time>2021-07-09T10:27:57+0200</time>
      </trkpt>
      <trkpt lat="45.02385" lon="3.14229">
        <ele>799.311408</ele>
        <time>2021-07-09T10:27:58+0200</time>
      </trkpt>
      <trkpt lat="45.02381" lon="3.14238">
        <ele>798.71701</ele>
        <time>2021-07-09T10:27:59+0200</time>
      </trkpt>
      <trkpt lat="45.02378" lon="3.14248">
        <ele>799.083181</ele>
        <time>2021-07-09T10:28:00+0200</time>
      </trkpt>
      <trkpt lat="45.02375" lon="3.14259">
        <ele>798.578176</ele>
        <time>2021-07-09T10:28:01+0200</time>
      </trkpt>
      <trkpt lat="45.02375" lon="3.14271">
        <ele>797.924021</ele>
        <time>2021-07-09T10:28:02+0200</time>
      </trkpt>
      <trkpt lat="45.02376" lon="3.14282">
        <ele>797.439745</ele>
        <time>2021-07-09T10:28:03+0200</time>
      </trkpt>
      <trkpt lat="45.0238" lon="3.14295">
        <ele>796.298862</ele>
        <time>2021-07-09T10:28:04+0200</time>
      </trkpt>
      <trkpt lat="45.02385" lon="3.14305">
        <ele>795.066977</ele>
        <time>2021-07-09T10:28:05+0200</time>
      </trkpt>
      <trkpt lat="45.02391" lon="3.14313">
        <ele>794.629303</ele>
        <time>2021-07-09T10:28:06+0200</time>
      </trkpt>
      <trkpt lat="45.02399" lon="3.14318">
        <ele>794.770256</ele>
        <time>2021-07-09T10:28:08+0200</time>
      </trkpt>
      <trkpt lat="45.02408" lon="3.14322">
        <ele>794.421791</ele>
        <time>2021-07-09T10:28:09+0200</time>
      </trkpt>
      <trkpt lat="45.02417" lon="3.14325">
        <ele>793.927616</ele>
        <time>2021-07-09T10:28:10+0200</time>
      </trkpt>
      <trkpt lat="45.02426" lon="3.14327">
        <ele>793.151756</ele>
        <time>2021-07-09T10:28:11+0200</time>
      </trkpt>
      <trkpt lat="45.02432" lon="3.14329">
        <ele>792.545177</ele>
        <time>2021-07-09T10:28:12+0200</time>
      </trkpt>
      <trkpt lat="45.02438" lon="3.14332">
        <ele>792.3378</ele>
        <time>2021-07-09T10:28:14+0200</time>
      </trkpt>
      <trkpt lat="45.02446" lon="3.1433">
        <ele>791.856934</ele>
        <time>2021-07-09T10:28:16+0200</time>
      </trkpt>
      <trkpt lat="45.02452" lon="3.14332">
        <ele>791.518023</ele>
        <time>2021-07-09T10:28:17+0200</time>
      </trkpt>
      <trkpt lat="45.02457" lon="3.1433">
        <ele>792.183899</ele>
        <time>2021-07-09T10:28:19+0200</time>
      </trkpt>
      <trkpt lat="45.02464" lon="3.14327">
        <ele>792.354689</ele>
        <time>2021-07-09T10:28:21+0200</time>
      </trkpt>
      <trkpt lat="45.02471" lon="3.14323">
        <ele>793.276929</ele>
        <time>2021-07-09T10:28:23+0200</time>
      </trkpt>
      <trkpt lat="45.02478" lon="3.14321">
        <ele>793.695649</ele>
        <time>2021-07-09T10:28:25+0200</time>
      </trkpt>
      <trkpt lat="45.02483" lon="3.14321">
        <ele>793.867493</ele>
        <time>2021-07-09T10:28:26+0200</time>
      </trkpt>
      <trkpt lat="45.02491" lon="3.14323">
        <ele>794.313755</ele>
        <time>2021-07-09T10:28:28+0200</time>
      </trkpt>
      <trkpt lat="45.02499" lon="3.14325">
        <ele>794.822992</ele>
        <time>2021-07-09T10:28:30+0200</time>
      </trkpt>
      <trkpt lat="45.02507" lon="3.14326">
        <ele>795.97758</ele>
        <time>2021-07-09T10:28:32+0200</time>
      </trkpt>
      <trkpt lat="45.02516" lon="3.14328">
        <ele>796.51612</ele>
        <time>2021-07-09T10:28:34+0200</time>
      </trkpt>
      <trkpt lat="45.02522" lon="3.14329">
        <ele>797.827879</ele>
        <time>2021-07-09T10:28:36+0200</time>
      </trkpt>
      <trkpt lat="45.02528" lon="3.14331">
        <ele>799.664956</ele>
        <time>2021-07-09T10:28:38+0200</time>
      </trkpt>
      <trkpt lat="45.02535" lon="3.14333">
        <ele>801.493764</ele>
        <time>2021-07-09T10:28:40+0200</time>
      </trkpt>
      <trkpt lat="45.02541" lon="3.14333">
        <ele>803.234657</ele>
        <time>2021-07-09T10:28:42+0200</time>
      </trkpt>
      <trkpt lat="45.02546" lon="3.14334">
        <ele>804.209643</ele>
        <time>2021-07-09T10:28:44+0200</time>
      </trkpt>
      <trkpt lat="45.02554" lon="3.14335">
        <ele>803.762467</ele>
        <time>2021-07-09T10:28:46+0200</time>
      </trkpt>
      <trkpt lat="45.0256" lon="3.14334">
        <ele>803.445001</ele>
        <time>2021-07-09T10:28:48+0200</time>
      </trkpt>
      <trkpt lat="45.02567" lon="3.14335">
        <ele>803.835301</ele>
        <time>2021-07-09T10:28:50+0200</time>
      </trkpt>
      <trkpt lat="45.02576" lon="3.1434">
        <ele>804.97191</ele>
        <time>2021-07-09T10:28:52+0200</time>
      </trkpt>
      <trkpt lat="45.02584" lon="3.14344">
        <ele>804.470367</ele>
        <time>2021-07-09T10:28:54+0200</time>
      </trkpt>
      <trkpt lat="45.02588" lon="3.14347">
        <ele>803.955477</ele>
        <time>2021-07-09T10:28:55+0200</time>
      </trkpt>
      <trkpt lat="45.02595" lon="3.14352">
        <ele>803.55503</ele>
        <time>2021-07-09T10:28:57+0200</time>
      </trkpt>
      <trkpt lat="45.02601" lon="3.14358">
        <ele>802.269377</ele>
        <time>2021-07-09T10:28:59+0200</time>
      </trkpt>
      <trkpt lat="45.02606" lon="3.14364">
        <ele>801.662753</ele>
        <time>2021-07-09T10:29:01+0200</time>
      </trkpt>
      <trkpt lat="45.0261" lon="3.1437">
        <ele>801.797758</ele>
        <time>2021-07-09T10:29:03+0200</time>
      </trkpt>
      <trkpt lat="45.02614" lon="3.14376">
        <ele>801.287092</ele>
        <time>2021-07-09T10:29:05+0200</time>
      </trkpt>
      <trkpt lat="45.02617" lon="3.14382">
        <ele>800.760231</ele>
        <time>2021-07-09T10:29:07+0200</time>
      </trkpt>
      <trkpt lat="45.02622" lon="3.14387">
        <ele>800.794854</ele>
        <time>2021-07-09T10:29:09+0200</time>
      </trkpt>
      <trkpt lat="45.02628" lon="3.14391">
        <ele>800.056079</ele>
        <time>2021-07-09T10:29:11+0200</time>
      </trkpt>
      <trkpt lat="45.02634" lon="3.14397">
        <ele>800.559752</ele>
        <time>2021-07-09T10:29:13+0200</time>
      </trkpt>
      <trkpt lat="45.0264" lon="3.14401">
        <ele>801.009826</ele>
        <time>2021-07-09T10:29:15+0200</time>
      </trkpt>
      <trkpt lat="45.02645" lon="3.14405">
        <ele>801.964245</ele>
        <time>2021-07-09T10:29:17+0200</time>
      </trkpt>
      <trkpt lat="45.0265" lon="3.14409">
        <ele>803.416666</ele>
        <time>2021-07-09T10:29:19+0200</time>
      </trkpt>
      <trkpt lat="45.02654" lon="3.14414">
        <ele>805.606516</ele>
        <time>2021-07-09T10:29:21+0200</time>
      </trkpt>
      <trkpt lat="45.02659" lon="3.14417">
        <ele>806.70339</ele>
        <time>2021-07-09T10:29:23+0200</time>
      </trkpt>
      <trkpt lat="45.02665" lon="3.14418">
        <ele>808.201414</ele>
        <time>2021-07-09T10:29:25+0200</time>
      </trkpt>
      <trkpt lat="45.02671" lon="3.14419">
        <ele>808.834373</ele>
        <time>2021-07-09T10:29:27+0200</time>
      </trkpt>
      <trkpt lat="45.02676" lon="3.14418">
        <ele>809.405166</ele>
        <time>2021-07-09T10:29:29+0200</time>
      </trkpt>
      <trkpt lat="45.02684" lon="3.14417">
        <ele>808.752328</ele>
        <time>2021-07-09T10:29:31+0200</time>
      </trkpt>
      <trkpt lat="45.0269" lon="3.14417">
        <ele>809.693811</ele>
        <time>2021-07-09T10:29:33+0200</time>
      </trkpt>
      <trkpt lat="45.02696" lon="3.14417">
        <ele>811.093473</ele>
        <time>2021-07-09T10:29:35+0200</time>
      </trkpt>
      <trkpt lat="45.02702" lon="3.14417">
        <ele>812.180239</ele>
        <time>2021-07-09T10:29:37+0200</time>
      </trkpt>
      <trkpt lat="45.02707" lon="3.14416">
        <ele>813.278858</ele>
        <time>2021-07-09T10:29:39+0200</time>
      </trkpt>
      <trkpt lat="45.02712" lon="3.14413">
        <ele>811.749926</ele>
        <time>2021-07-09T10:29:41+0200</time>
      </trkpt>
      <trkpt lat="45.02717" lon="3.14413">
        <ele>812.973183</ele>
        <time>2021-07-09T10:29:43+0200</time>
      </trkpt>
      <trkpt lat="45.02722" lon="3.1441">
        <ele>813.131268</ele>
        <time>2021-07-09T10:29:45+0200</time>
      </trkpt>
      <trkpt lat="45.02728" lon="3.14409">
        <ele>812.672402</ele>
        <time>2021-07-09T10:29:47+0200</time>
      </trkpt>
      <trkpt lat="45.02733" lon="3.14405">
        <ele>812.661194</ele>
        <time>2021-07-09T10:29:49+0200</time>
      </trkpt>
      <trkpt lat="45.02738" lon="3.14403">
        <ele>811.408318</ele>
        <time>2021-07-09T10:29:51+0200</time>
      </trkpt>
      <trkpt lat="45.02745" lon="3.14402">
        <ele>810.597206</ele>
        <time>2021-07-09T10:29:53+0200</time>
      </trkpt>
      <trkpt lat="45.0275" lon="3.14399">
        <ele>811.026869</ele>
        <time>2021-07-09T10:29:55+0200</time>
      </trkpt>
      <trkpt lat="45.02756" lon="3.14399">
        <ele>812.61589</ele>
        <time>2021-07-09T10:29:57+0200</time>
      </trkpt>
      <trkpt lat="45.02761" lon="3.14399">
        <ele>812.254733</ele>
        <time>2021-07-09T10:29:59+0200</time>
      </trkpt>
      <trkpt lat="45.02765" lon="3.14396">
        <ele>811.792419</ele>
        <time>2021-07-09T10:30:01+0200</time>
      </trkpt>
      <trkpt lat="45.02771" lon="3.14395">
        <ele>813.798402</ele>
        <time>2021-07-09T10:30:04+0200</time>
      </trkpt>
      <trkpt lat="45.02776" lon="3.14392">
        <ele>814.569724</ele>
        <time>2021-07-09T10:30:07+0200</time>
      </trkpt>
      <trkpt lat="45.02781" lon="3.14392">
        <ele>814.715789</ele>
        <time>2021-07-09T10:30:09+0200</time>
      </trkpt>
      <trkpt lat="45.02786" lon="3.14392">
        <ele>816.09006</ele>
        <time>2021-07-09T10:30:11+0200</time>
      </trkpt>
      <trkpt lat="45.02791" lon="3.14392">
        <ele>818.418317</ele>
        <time>2021-07-09T10:30:14+0200</time>
      </trkpt>
      <trkpt lat="45.02796" lon="3.14391">
        <ele>821.247669</ele>
        <time>2021-07-09T10:30:16+0200</time>
      </trkpt>
      <trkpt lat="45.02802" lon="3.1439">
        <ele>827.701217</ele>
        <time>2021-07-09T10:30:19+0200</time>
      </trkpt>
      <trkpt lat="45.02808" lon="3.14388">
        <ele>834.183162</ele>
        <time>2021-07-09T10:30:22+0200</time>
      </trkpt>
      <trkpt lat="45.02813" lon="3.14383">
        <ele>837.356514</ele>
        <time>2021-07-09T10:30:24+0200</time>
      </trkpt>
      <trkpt lat="45.02819" lon="3.14382">
        <ele>838.00407</ele>
        <time>2021-07-09T10:30:27+0200</time>
      </trkpt>
      <trkpt lat="45.02824" lon="3.14381">
        <ele>838.085451</ele>
        <time>2021-07-09T10:30:29+0200</time>
      </trkpt>
      <trkpt lat="45.02829" lon="3.14382">
        <ele>837.765069</ele>
        <time>2021-07-09T10:30:32+0200</time>
      </trkpt>
      <trkpt lat="45.02835" lon="3.14381">
        <ele>837.232767</ele>
        <time>2021-07-09T10:30:35+0200</time>
      </trkpt>
      <trkpt lat="45.0284" lon="3.14381">
        <ele>840.793324</ele>
        <time>2021-07-09T10:30:38+0200</time>
      </trkpt>
      <trkpt lat="45.02846" lon="3.14382">
        <ele>840.719792</ele>
        <time>2021-07-09T10:30:40+0200</time>
      </trkpt>
      <trkpt lat="45.02851" lon="3.1438">
        <ele>841.021485</ele>
        <time>2021-07-09T10:30:42+0200</time>
      </trkpt>
      <trkpt lat="45.02856" lon="3.14382">
        <ele>842.05751</ele>
        <time>2021-07-09T10:30:46+0200</time>
      </trkpt>
      <trkpt lat="45.0286" lon="3.14381">
        <ele>841.466297</ele>
        <time>2021-07-09T10:30:48+0200</time>
      </trkpt>
      <trkpt lat="45.02867" lon="3.14383">
        <ele>841.329982</ele>
        <time>2021-07-09T10:30:51+0200</time>
      </trkpt>
      <trkpt lat="45.02874" lon="3.14384">
        <ele>838.129786</ele>
        <time>2021-07-09T10:30:54+0200</time>
      </trkpt>
      <trkpt lat="45.02878" lon="3.1438">
        <ele>837.219603</ele>
        <time>2021-07-09T10:30:56+0200</time>
      </trkpt>
      <trkpt lat="45.02883" lon="3.14376">
        <ele>839.558022</ele>
        <time>2021-07-09T10:30:59+0200</time>
      </trkpt>
      <trkpt lat="45.02889" lon="3.14375">
        <ele>838.852901</ele>
        <time>2021-07-09T10:31:02+0200</time>
      </trkpt>
      <trkpt lat="45.02894" lon="3.14372">
        <ele>840.166078</ele>
        <time>2021-07-09T10:31:05+0200</time>
      </trkpt>
      <trkpt lat="45.02898" lon="3.14369">
        <ele>839.872272</ele>
        <time>2021-07-09T10:31:08+0200</time>
      </trkpt>
      <trkpt lat="45.02902" lon="3.14365">
        <ele>840.472044</ele>
        <time>2021-07-09T10:31:10+0200</time>
      </trkpt>
      <trkpt lat="45.02907" lon="3.14361">
        <ele>840.561961</ele>
        <time>2021-07-09T10:31:13+0200</time>
      </trkpt>
      <trkpt lat="45.02912" lon="3.14355">
        <ele>841.268785</ele>
        <time>2021-07-09T10:31:16+0200</time>
      </trkpt>
      <trkpt lat="45.02918" lon="3.14349">
        <ele>842.238658</ele>
        <time>2021-07-09T10:31:19+0200</time>
      </trkpt>
      <trkpt lat="45.02922" lon="3.14346">
        <ele>842.980246</ele>
        <time>2021-07-09T10:31:22+0200</time>
      </trkpt>
      <trkpt lat="45.02924" lon="3.1434">
        <ele>840.852805</ele>
        <time>2021-07-09T10:31:24+0200</time>
      </trkpt>
      <trkpt lat="45.02929" lon="3.14334">
        <ele>843.854244</ele>
        <time>2021-07-09T10:31:28+0200</time>
      </trkpt>
      <trkpt lat="45.02934" lon="3.14329">
        <ele>843.32543</ele>
        <time>2021-07-09T10:31:31+0200</time>
      </trkpt>
      <trkpt lat="45.02937" lon="3.14324">
        <ele>843.667085</ele>
        <time>2021-07-09T10:31:33+0200</time>
      </trkpt>
      <trkpt lat="45.0294" lon="3.14319">
        <ele>843.790595</ele>
        <time>2021-07-09T10:31:35+0200</time>
      </trkpt>
      <trkpt lat="45.02944" lon="3.14311">
        <ele>841.901126</ele>
        <time>2021-07-09T10:31:38+0200</time>
      </trkpt>
      <trkpt lat="45.02948" lon="3.14306">
        <ele>839.857565</ele>
        <time>2021-07-09T10:31:40+0200</time>
      </trkpt>
      <trkpt lat="45.02951" lon="3.14297">
        <ele>835.647478</ele>
        <time>2021-07-09T10:31:42+0200</time>
      </trkpt>
      <trkpt lat="45.02956" lon="3.1429">
        <ele>832.347228</ele>
        <time>2021-07-09T10:31:44+0200</time>
      </trkpt>
      <trkpt lat="45.02959" lon="3.14283">
        <ele>829.505792</ele>
        <time>2021-07-09T10:31:46+0200</time>
      </trkpt>
      <trkpt lat="45.02962" lon="3.14276">
        <ele>828.367708</ele>
        <time>2021-07-09T10:31:48+0200</time>
      </trkpt>
      <trkpt lat="45.02963" lon="3.14269">
        <ele>826.920963</ele>
        <time>2021-07-09T10:31:50+0200</time>
      </trkpt>
      <trkpt lat="45.02965" lon="3.14263">
        <ele>826.650965</ele>
        <time>2021-07-09T10:31:52+0200</time>
      </trkpt>
      <trkpt lat="45.02966" lon="3.14255">
        <ele>826.335134</ele>
        <time>2021-07-09T10:31:54+0200</time>
      </trkpt>
      <trkpt lat="45.02968" lon="3.14247">
        <ele>825.689495</ele>
        <time>2021-07-09T10:31:56+0200</time>
      </trkpt>
      <trkpt lat="45.0297" lon="3.14237">
        <ele>825.230112</ele>
        <time>2021-07-09T10:31:58+0200</time>
      </trkpt>
      <trkpt lat="45.02971" lon="3.14229">
        <ele>825.474611</ele>
        <time>2021-07-09T10:32:00+0200</time>
      </trkpt>
      <trkpt lat="45.02972" lon="3.14219">
        <ele>824.998529</ele>
        <time>2021-07-09T10:32:02+0200</time>
      </trkpt>
      <trkpt lat="45.02974" lon="3.14209">
        <ele>824.42008</ele>
        <time>2021-07-09T10:32:04+0200</time>
      </trkpt>
      <trkpt lat="45.02976" lon="3.142">
        <ele>824.020166</ele>
        <time>2021-07-09T10:32:06+0200</time>
      </trkpt>
      <trkpt lat="45.02978" lon="3.14189">
        <ele>824.247734</ele>
        <time>2021-07-09T10:32:08+0200</time>
      </trkpt>
      <trkpt lat="45.02979" lon="3.14178">
        <ele>824.354846</ele>
        <time>2021-07-09T10:32:10+0200</time>
      </trkpt>
      <trkpt lat="45.02982" lon="3.14168">
        <ele>824.818855</ele>
        <time>2021-07-09T10:32:12+0200</time>
      </trkpt>
      <trkpt lat="45.02986" lon="3.14158">
        <ele>825.588285</ele>
        <time>2021-07-09T10:32:14+0200</time>
      </trkpt>
      <trkpt lat="45.02989" lon="3.14149">
        <ele>825.383437</ele>
        <time>2021-07-09T10:32:16+0200</time>
      </trkpt>
      <trkpt lat="45.02994" lon="3.14141">
        <ele>825.985111</ele>
        <time>2021-07-09T10:32:18+0200</time>
      </trkpt>
      <trkpt lat="45.02999" lon="3.14133">
        <ele>826.094959</ele>
        <time>2021-07-09T10:32:20+0200</time>
      </trkpt>
      <trkpt lat="45.03004" lon="3.14127">
        <ele>826.250148</ele>
        <time>2021-07-09T10:32:22+0200</time>
      </trkpt>
      <trkpt lat="45.0301" lon="3.14123">
        <ele>826.927141</ele>
        <time>2021-07-09T10:32:24+0200</time>
      </trkpt>
      <trkpt lat="45.03016" lon="3.14124">
        <ele>826.299583</ele>
        <time>2021-07-09T10:32:26+0200</time>
      </trkpt>
      <trkpt lat="45.03023" lon="3.14128">
        <ele>826.414203</ele>
        <time>2021-07-09T10:32:28+0200</time>
      </trkpt>
      <trkpt lat="45.03027" lon="3.14138">
        <ele>826.350769</ele>
        <time>2021-07-09T10:32:30+0200</time>
      </trkpt>
      <trkpt lat="45.0303" lon="3.14148">
        <ele>826.084397</ele>
        <time>2021-07-09T10:32:32+0200</time>
      </trkpt>
      <trkpt lat="45.03034" lon="3.14159">
        <ele>826.137554</ele>
        <time>2021-07-09T10:32:34+0200</time>
      </trkpt>
      <trkpt lat="45.03038" lon="3.14163">
        <ele>825.875599</ele>
        <time>2021-07-09T10:32:35+0200</time>
      </trkpt>
      <trkpt lat="45.03043" lon="3.14168">
        <ele>825.529239</ele>
        <time>2021-07-09T10:32:36+0200</time>
      </trkpt>
      <trkpt lat="45.03047" lon="3.1417">
        <ele>825.451801</ele>
        <time>2021-07-09T10:32:37+0200</time>
      </trkpt>
      <trkpt lat="45.03053" lon="3.14174">
        <ele>825.528218</ele>
        <time>2021-07-09T10:32:39+0200</time>
      </trkpt>
      <trkpt lat="45.03056" lon="3.14183">
        <ele>825.685777</ele>
        <time>2021-07-09T10:32:41+0200</time>
      </trkpt>
      <trkpt lat="45.03059" lon="3.14194">
        <ele>825.781617</ele>
        <time>2021-07-09T10:32:43+0200</time>
      </trkpt>
      <trkpt lat="45.0306" lon="3.14201">
        <ele>825.42971</ele>
        <time>2021-07-09T10:32:44+0200</time>
      </trkpt>
      <trkpt lat="45.0306" lon="3.14208">
        <ele>825.200523</ele>
        <time>2021-07-09T10:32:45+0200</time>
      </trkpt>
      <trkpt lat="45.0306" lon="3.14216">
        <ele>825.246311</ele>
        <time>2021-07-09T10:32:46+0200</time>
      </trkpt>
      <trkpt lat="45.0306" lon="3.14224">
        <ele>825.104148</ele>
        <time>2021-07-09T10:32:47+0200</time>
      </trkpt>
      <trkpt lat="45.03061" lon="3.14231">
        <ele>825.149809</ele>
        <time>2021-07-09T10:32:48+0200</time>
      </trkpt>
      <trkpt lat="45.03062" lon="3.14238">
        <ele>824.964746</ele>
        <time>2021-07-09T10:32:49+0200</time>
      </trkpt>
      <trkpt lat="45.03062" lon="3.14246">
        <ele>825.202105</ele>
        <time>2021-07-09T10:32:50+0200</time>
      </trkpt>
      <trkpt lat="45.03063" lon="3.14254">
        <ele>824.9275</ele>
        <time>2021-07-09T10:32:51+0200</time>
      </trkpt>
      <trkpt lat="45.03064" lon="3.14263">
        <ele>824.682549</ele>
        <time>2021-07-09T10:32:52+0200</time>
      </trkpt>
      <trkpt lat="45.03064" lon="3.14272">
        <ele>824.365648</ele>
        <time>2021-07-09T10:32:53+0200</time>
      </trkpt>
      <trkpt lat="45.03065" lon="3.14281">
        <ele>823.565949</ele>
        <time>2021-07-09T10:32:54+0200</time>
      </trkpt>
      <trkpt lat="45.03065" lon="3.14292">
        <ele>823.091368</ele>
        <time>2021-07-09T10:32:55+0200</time>
      </trkpt>
      <trkpt lat="45.03065" lon="3.14303">
        <ele>822.456684</ele>
        <time>2021-07-09T10:32:56+0200</time>
      </trkpt>
      <trkpt lat="45.03065" lon="3.14315">
        <ele>822.348002</ele>
        <time>2021-07-09T10:32:57+0200</time>
      </trkpt>
      <trkpt lat="45.03065" lon="3.14327">
        <ele>821.965329</ele>
        <time>2021-07-09T10:32:58+0200</time>
      </trkpt>
      <trkpt lat="45.03065" lon="3.14339">
        <ele>821.679003</ele>
        <time>2021-07-09T10:32:59+0200</time>
      </trkpt>
      <trkpt lat="45.03064" lon="3.14352">
        <ele>821.23435</ele>
        <time>2021-07-09T10:33:00+0200</time>
      </trkpt>
      <trkpt lat="45.03063" lon="3.14365">
        <ele>820.825844</ele>
        <time>2021-07-09T10:33:01+0200</time>
      </trkpt>
      <trkpt lat="45.03064" lon="3.14375">
        <ele>820.050286</ele>
        <time>2021-07-09T10:33:02+0200</time>
      </trkpt>
      <trkpt lat="45.03063" lon="3.14388">
        <ele>819.399968</ele>
        <time>2021-07-09T10:33:03+0200</time>
      </trkpt>
      <trkpt lat="45.03061" lon="3.144">
        <ele>818.77345</ele>
        <time>2021-07-09T10:33:04+0200</time>
      </trkpt>
      <trkpt lat="45.03062" lon="3.14412">
        <ele>818.221097</ele>
        <time>2021-07-09T10:33:05+0200</time>
      </trkpt>
      <trkpt lat="45.03061" lon="3.14424">
        <ele>817.745524</ele>
        <time>2021-07-09T10:33:06+0200</time>
      </trkpt>
      <trkpt lat="45.0306" lon="3.14436">
        <ele>819.721211</ele>
        <time>2021-07-09T10:33:07+0200</time>
      </trkpt>
      <trkpt lat="45.03059" lon="3.14448">
        <ele>820.545869</ele>
        <time>2021-07-09T10:33:08+0200</time>
      </trkpt>
      <trkpt lat="45.03057" lon="3.1446">
        <ele>820.420303</ele>
        <time>2021-07-09T10:33:09+0200</time>
      </trkpt>
      <trkpt lat="45.03056" lon="3.1447">
        <ele>820.480683</ele>
        <time>2021-07-09T10:33:10+0200</time>
      </trkpt>
      <trkpt lat="45.03054" lon="3.14481">
        <ele>820.581984</ele>
        <time>2021-07-09T10:33:11+0200</time>
      </trkpt>
      <trkpt lat="45.03053" lon="3.14491">
        <ele>820.611304</ele>
        <time>2021-07-09T10:33:12+0200</time>
      </trkpt>
      <trkpt lat="45.03051" lon="3.145">
        <ele>820.715094</ele>
        <time>2021-07-09T10:33:12+0200</time>
      </trkpt>
      <trkpt lat="45.03048" lon="3.14509">
        <ele>820.539856</ele>
        <time>2021-07-09T10:33:13+0200</time>
      </trkpt>
      <trkpt lat="45.03046" lon="3.14519">
        <ele>820.057878</ele>
        <time>2021-07-09T10:33:14+0200</time>
      </trkpt>
      <trkpt lat="45.03044" lon="3.14527">
        <ele>819.562767</ele>
        <time>2021-07-09T10:33:15+0200</time>
      </trkpt>
      <trkpt lat="45.03041" lon="3.14536">
        <ele>819.094197</ele>
        <time>2021-07-09T10:33:16+0200</time>
      </trkpt>
      <trkpt lat="45.03038" lon="3.14544">
        <ele>819.136161</ele>
        <time>2021-07-09T10:33:17+0200</time>
      </trkpt>
      <trkpt lat="45.03035" lon="3.14552">
        <ele>819.156417</ele>
        <time>2021-07-09T10:33:18+0200</time>
      </trkpt>
      <trkpt lat="45.03033" lon="3.1456">
        <ele>818.848039</ele>
        <time>2021-07-09T10:33:19+0200</time>
      </trkpt>
      <trkpt lat="45.0303" lon="3.14567">
        <ele>818.828815</ele>
        <time>2021-07-09T10:33:20+0200</time>
      </trkpt>
      <trkpt lat="45.03027" lon="3.14575">
        <ele>818.070716</ele>
        <time>2021-07-09T10:33:21+0200</time>
      </trkpt>
      <trkpt lat="45.03023" lon="3.14582">
        <ele>817.8092</ele>
        <time>2021-07-09T10:33:22+0200</time>
      </trkpt>
      <trkpt lat="45.03019" lon="3.14589">
        <ele>817.426328</ele>
        <time>2021-07-09T10:33:23+0200</time>
      </trkpt>
      <trkpt lat="45.03016" lon="3.14596">
        <ele>816.996956</ele>
        <time>2021-07-09T10:33:24+0200</time>
      </trkpt>
      <trkpt lat="45.03013" lon="3.14603">
        <ele>816.968998</ele>
        <time>2021-07-09T10:33:25+0200</time>
      </trkpt>
      <trkpt lat="45.03009" lon="3.14609">
        <ele>816.713823</ele>
        <time>2021-07-09T10:33:26+0200</time>
      </trkpt>
      <trkpt lat="45.03005" lon="3.14617">
        <ele>816.517699</ele>
        <time>2021-07-09T10:33:27+0200</time>
      </trkpt>
      <trkpt lat="45.03002" lon="3.14624">
        <ele>816.417971</ele>
        <time>2021-07-09T10:33:28+0200</time>
      </trkpt>
      <trkpt lat="45.02998" lon="3.14631">
        <ele>816.016873</ele>
        <time>2021-07-09T10:33:29+0200</time>
      </trkpt>
      <trkpt lat="45.02994" lon="3.14638">
        <ele>815.830638</ele>
        <time>2021-07-09T10:33:30+0200</time>
      </trkpt>
      <trkpt lat="45.0299" lon="3.14644">
        <ele>815.632985</ele>
        <time>2021-07-09T10:33:31+0200</time>
      </trkpt>
      <trkpt lat="45.02987" lon="3.1465">
        <ele>815.526629</ele>
        <time>2021-07-09T10:33:32+0200</time>
      </trkpt>
      <trkpt lat="45.02983" lon="3.14657">
        <ele>815.22436</ele>
        <time>2021-07-09T10:33:33+0200</time>
      </trkpt>
      <trkpt lat="45.02979" lon="3.14663">
        <ele>815.027591</ele>
        <time>2021-07-09T10:33:34+0200</time>
      </trkpt>
      <trkpt lat="45.02975" lon="3.1467">
        <ele>814.632826</ele>
        <time>2021-07-09T10:33:35+0200</time>
      </trkpt>
      <trkpt lat="45.02971" lon="3.14677">
        <ele>814.43994</ele>
        <time>2021-07-09T10:33:36+0200</time>
      </trkpt>
      <trkpt lat="45.02967" lon="3.14683">
        <ele>814.222287</ele>
        <time>2021-07-09T10:33:37+0200</time>
      </trkpt>
      <trkpt lat="45.02963" lon="3.1469">
        <ele>814.034323</ele>
        <time>2021-07-09T10:33:38+0200</time>
      </trkpt>
      <trkpt lat="45.02959" lon="3.14697">
        <ele>813.795714</ele>
        <time>2021-07-09T10:33:39+0200</time>
      </trkpt>
      <trkpt lat="45.02955" lon="3.14703">
        <ele>813.802296</ele>
        <time>2021-07-09T10:33:40+0200</time>
      </trkpt>
      <trkpt lat="45.02952" lon="3.1471">
        <ele>813.462417</ele>
        <time>2021-07-09T10:33:41+0200</time>
      </trkpt>
      <trkpt lat="45.0295" lon="3.14718">
        <ele>813.811597</ele>
        <time>2021-07-09T10:33:42+0200</time>
      </trkpt>
      <trkpt lat="45.02952" lon="3.14726">
        <ele>814.221461</ele>
        <time>2021-07-09T10:33:43+0200</time>
      </trkpt>
      <trkpt lat="45.02954" lon="3.14733">
        <ele>814.514741</ele>
        <time>2021-07-09T10:33:44+0200</time>
      </trkpt>
      <trkpt lat="45.02961" lon="3.14739">
        <ele>815.187572</ele>
        <time>2021-07-09T10:33:46+0200</time>
      </trkpt>
      <trkpt lat="45.02965" lon="3.14739">
        <ele>815.814391</ele>
        <time>2021-07-09T10:33:48+0200</time>
      </trkpt>
      <trkpt lat="45.02966" lon="3.14731">
        <ele>815.67746</ele>
        <time>2021-07-09T10:33:52+0200</time>
      </trkpt>
      <trkpt lat="45.0296" lon="3.14727">
        <ele>815.159226</ele>
        <time>2021-07-09T10:33:54+0200</time>
      </trkpt>
      <trkpt lat="45.02953" lon="3.14721">
        <ele>815.66178</ele>
        <time>2021-07-09T10:33:56+0200</time>
      </trkpt>
      <trkpt lat="45.02948" lon="3.1472">
        <ele>816.256744</ele>
        <time>2021-07-09T10:33:57+0200</time>
      </trkpt>
      <trkpt lat="45.02943" lon="3.14722">
        <ele>816.383996</ele>
        <time>2021-07-09T10:33:58+0200</time>
      </trkpt>
      <trkpt lat="45.02939" lon="3.14727">
        <ele>816.583658</ele>
        <time>2021-07-09T10:33:59+0200</time>
      </trkpt>
      <trkpt lat="45.02935" lon="3.14734">
        <ele>816.585687</ele>
        <time>2021-07-09T10:34:00+0200</time>
      </trkpt>
      <trkpt lat="45.02933" lon="3.1474">
        <ele>816.731367</ele>
        <time>2021-07-09T10:34:01+0200</time>
      </trkpt>
      <trkpt lat="45.0293" lon="3.14746">
        <ele>816.876712</ele>
        <time>2021-07-09T10:34:02+0200</time>
      </trkpt>
      <trkpt lat="45.02924" lon="3.14753">
        <ele>816.781305</ele>
        <time>2021-07-09T10:34:04+0200</time>
      </trkpt>
      <trkpt lat="45.02917" lon="3.14758">
        <ele>817.08676</ele>
        <time>2021-07-09T10:34:06+0200</time>
      </trkpt>
      <trkpt lat="45.0291" lon="3.14763">
        <ele>816.864756</ele>
        <time>2021-07-09T10:34:08+0200</time>
      </trkpt>
      <trkpt lat="45.02904" lon="3.14767">
        <ele>817.050092</ele>
        <time>2021-07-09T10:34:10+0200</time>
      </trkpt>
      <trkpt lat="45.02899" lon="3.14771">
        <ele>818.01031</ele>
        <time>2021-07-09T10:34:12+0200</time>
      </trkpt>
      <trkpt lat="45.02892" lon="3.14775">
        <ele>818.698337</ele>
        <time>2021-07-09T10:34:14+0200</time>
      </trkpt>
      <trkpt lat="45.02887" lon="3.14779">
        <ele>820.037939</ele>
        <time>2021-07-09T10:34:16+0200</time>
      </trkpt>
      <trkpt lat="45.0288" lon="3.14784">
        <ele>821.711945</ele>
        <time>2021-07-09T10:34:19+0200</time>
      </trkpt>
      <trkpt lat="45.02875" lon="3.14787">
        <ele>822.863648</ele>
        <time>2021-07-09T10:34:21+0200</time>
      </trkpt>
      <trkpt lat="45.02869" lon="3.14793">
        <ele>821.300781</ele>
        <time>2021-07-09T10:34:23+0200</time>
      </trkpt>
      <trkpt lat="45.02863" lon="3.14798">
        <ele>820.363204</ele>
        <time>2021-07-09T10:34:26+0200</time>
      </trkpt>
      <trkpt lat="45.02856" lon="3.14803">
        <ele>821.145688</ele>
        <time>2021-07-09T10:34:28+0200</time>
      </trkpt>
      <trkpt lat="45.0285" lon="3.14808">
        <ele>820.854333</ele>
        <time>2021-07-09T10:34:30+0200</time>
      </trkpt>
      <trkpt lat="45.02845" lon="3.14814">
        <ele>820.55006</ele>
        <time>2021-07-09T10:34:32+0200</time>
      </trkpt>
      <trkpt lat="45.0284" lon="3.1482">
        <ele>821.472428</ele>
        <time>2021-07-09T10:34:34+0200</time>
      </trkpt>
      <trkpt lat="45.02836" lon="3.14825">
        <ele>821.671964</ele>
        <time>2021-07-09T10:34:36+0200</time>
      </trkpt>
      <trkpt lat="45.02831" lon="3.14828">
        <ele>820.941769</ele>
        <time>2021-07-09T10:34:38+0200</time>
      </trkpt>
      <trkpt lat="45.02826" lon="3.14833">
        <ele>821.09135</ele>
        <time>2021-07-09T10:34:40+0200</time>
      </trkpt>
      <trkpt lat="45.02822" lon="3.14838">
        <ele>820.975475</ele>
        <time>2021-07-09T10:34:42+0200</time>
      </trkpt>
      <trkpt lat="45.02817" lon="3.14842">
        <ele>820.826901</ele>
        <time>2021-07-09T10:34:44+0200</time>
      </trkpt>
      <trkpt lat="45.02811" lon="3.14847">
        <ele>819.699612</ele>
        <time>2021-07-09T10:34:46+0200</time>
      </trkpt>
      <trkpt lat="45.02808" lon="3.14851">
        <ele>819.417003</ele>
        <time>2021-07-09T10:34:47+0200</time>
      </trkpt>
      <trkpt lat="45.02804" lon="3.14857">
        <ele>819.178228</ele>
        <time>2021-07-09T10:34:48+0200</time>
      </trkpt>
      <trkpt lat="45.028" lon="3.14861">
        <ele>819.169045</ele>
        <time>2021-07-09T10:34:49+0200</time>
      </trkpt>
      <trkpt lat="45.02792" lon="3.14868">
        <ele>818.745635</ele>
        <time>2021-07-09T10:34:51+0200</time>
      </trkpt>
      <trkpt lat="45.02787" lon="3.1487">
        <ele>818.445793</ele>
        <time>2021-07-09T10:34:52+0200</time>
      </trkpt>
      <trkpt lat="45.02783" lon="3.1487">
        <ele>817.886266</ele>
        <time>2021-07-09T10:34:53+0200</time>
      </trkpt>
      <trkpt lat="45.02774" lon="3.1487">
        <ele>817.479495</ele>
        <time>2021-07-09T10:34:55+0200</time>
      </trkpt>
      <trkpt lat="45.02769" lon="3.14866">
        <ele>816.703324</ele>
        <time>2021-07-09T10:34:56+0200</time>
      </trkpt>
      <trkpt lat="45.02764" lon="3.14868">
        <ele>816.003935</ele>
        <time>2021-07-09T10:34:58+0200</time>
      </trkpt>
      <trkpt lat="45.02765" lon="3.14875">
        <ele>816.69549</ele>
        <time>2021-07-09T10:34:59+0200</time>
      </trkpt>
      <trkpt lat="45.02766" lon="3.14883">
        <ele>816.519626</ele>
        <time>2021-07-09T10:35:00+0200</time>
      </trkpt>
      <trkpt lat="45.02768" lon="3.14893">
        <ele>815.97035</ele>
        <time>2021-07-09T10:35:01+0200</time>
      </trkpt>
      <trkpt lat="45.02768" lon="3.14903">
        <ele>815.214782</ele>
        <time>2021-07-09T10:35:02+0200</time>
      </trkpt>
      <trkpt lat="45.02767" lon="3.14911">
        <ele>814.745871</ele>
        <time>2021-07-09T10:35:03+0200</time>
      </trkpt>
      <trkpt lat="45.02762" lon="3.14917">
        <ele>812.959185</ele>
        <time>2021-07-09T10:35:04+0200</time>
      </trkpt>
      <trkpt lat="45.02757" lon="3.1492">
        <ele>812.166044</ele>
        <time>2021-07-09T10:35:05+0200</time>
      </trkpt>
      <trkpt lat="45.02752" lon="3.14921">
        <ele>810.97192</ele>
        <time>2021-07-09T10:35:06+0200</time>
      </trkpt>
      <trkpt lat="45.02745" lon="3.14921">
        <ele>810.200327</ele>
        <time>2021-07-09T10:35:07+0200</time>
      </trkpt>
      <trkpt lat="45.0274" lon="3.14925">
        <ele>809.321472</ele>
        <time>2021-07-09T10:35:08+0200</time>
      </trkpt>
      <trkpt lat="45.02735" lon="3.14932">
        <ele>808.542205</ele>
        <time>2021-07-09T10:35:09+0200</time>
      </trkpt>
      <trkpt lat="45.0273" lon="3.1494">
        <ele>808.289006</ele>
        <time>2021-07-09T10:35:10+0200</time>
      </trkpt>
      <trkpt lat="45.02724" lon="3.14947">
        <ele>807.856324</ele>
        <time>2021-07-09T10:35:11+0200</time>
      </trkpt>
      <trkpt lat="45.02719" lon="3.14953">
        <ele>806.583736</ele>
        <time>2021-07-09T10:35:12+0200</time>
      </trkpt>
      <trkpt lat="45.02714" lon="3.14959">
        <ele>805.120692</ele>
        <time>2021-07-09T10:35:13+0200</time>
      </trkpt>
      <trkpt lat="45.02708" lon="3.14965">
        <ele>804.421711</ele>
        <time>2021-07-09T10:35:14+0200</time>
      </trkpt>
      <trkpt lat="45.02703" lon="3.1497">
        <ele>803.349723</ele>
        <time>2021-07-09T10:35:15+0200</time>
      </trkpt>
      <trkpt lat="45.02697" lon="3.14971">
        <ele>802.406</ele>
        <time>2021-07-09T10:35:16+0200</time>
      </trkpt>
      <trkpt lat="45.0269" lon="3.1497">
        <ele>802.002962</ele>
        <time>2021-07-09T10:35:17+0200</time>
      </trkpt>
      <trkpt lat="45.02683" lon="3.14971">
        <ele>801.437438</ele>
        <time>2021-07-09T10:35:18+0200</time>
      </trkpt>
      <trkpt lat="45.02676" lon="3.14973">
        <ele>800.632765</ele>
        <time>2021-07-09T10:35:19+0200</time>
      </trkpt>
      <trkpt lat="45.02671" lon="3.14976">
        <ele>800.472527</ele>
        <time>2021-07-09T10:35:20+0200</time>
      </trkpt>
      <trkpt lat="45.02666" lon="3.14979">
        <ele>800.495081</ele>
        <time>2021-07-09T10:35:25+0200</time>
      </trkpt>
      <trkpt lat="45.02661" lon="3.14979">
        <ele>801.971133</ele>
        <time>2021-07-09T10:35:27+0200</time>
      </trkpt>
      <trkpt lat="45.02655" lon="3.14981">
        <ele>801.209357</ele>
        <time>2021-07-09T10:35:29+0200</time>
      </trkpt>
      <trkpt lat="45.02649" lon="3.14979">
        <ele>801.141264</ele>
        <time>2021-07-09T10:35:31+0200</time>
      </trkpt>
      <trkpt lat="45.02644" lon="3.14979">
        <ele>801.156394</ele>
        <time>2021-07-09T10:35:33+0200</time>
      </trkpt>
      <trkpt lat="45.02639" lon="3.14979">
        <ele>801.280255</ele>
        <time>2021-07-09T10:35:35+0200</time>
      </trkpt>
      <trkpt lat="45.02633" lon="3.14978">
        <ele>801.508921</ele>
        <time>2021-07-09T10:35:37+0200</time>
      </trkpt>
      <trkpt lat="45.02627" lon="3.14978">
        <ele>802.005387</ele>
        <time>2021-07-09T10:35:40+0200</time>
      </trkpt>
      <trkpt lat="45.02621" lon="3.14979">
        <ele>802.342048</ele>
        <time>2021-07-09T10:35:42+0200</time>
      </trkpt>
      <trkpt lat="45.02615" lon="3.14978">
        <ele>803.725233</ele>
        <time>2021-07-09T10:35:45+0200</time>
      </trkpt>
      <trkpt lat="45.02609" lon="3.14978">
        <ele>803.430968</ele>
        <time>2021-07-09T10:35:49+0200</time>
      </trkpt>
      <trkpt lat="45.02602" lon="3.14977">
        <ele>804.695826</ele>
        <time>2021-07-09T10:35:53+0200</time>
      </trkpt>
      <trkpt lat="45.02597" lon="3.14982">
        <ele>804.769923</ele>
        <time>2021-07-09T10:35:57+0200</time>
      </trkpt>
      <trkpt lat="45.02593" lon="3.14987">
        <ele>803.914011</ele>
        <time>2021-07-09T10:35:59+0200</time>
      </trkpt>
      <trkpt lat="45.02589" lon="3.14993">
        <ele>803.549073</ele>
        <time>2021-07-09T10:36:02+0200</time>
      </trkpt>
      <trkpt lat="45.02589" lon="3.14999">
        <ele>804.400179</ele>
        <time>2021-07-09T10:36:04+0200</time>
      </trkpt>
      <trkpt lat="45.0259" lon="3.15005">
        <ele>804.400649</ele>
        <time>2021-07-09T10:36:07+0200</time>
      </trkpt>
      <trkpt lat="45.0259" lon="3.15012">
        <ele>804.921404</ele>
        <time>2021-07-09T10:36:10+0200</time>
      </trkpt>
      <trkpt lat="45.02587" lon="3.1502">
        <ele>804.705822</ele>
        <time>2021-07-09T10:36:13+0200</time>
      </trkpt>
      <trkpt lat="45.02585" lon="3.15026">
        <ele>805.633619</ele>
        <time>2021-07-09T10:36:16+0200</time>
      </trkpt>
      <trkpt lat="45.02584" lon="3.15034">
        <ele>807.546464</ele>
        <time>2021-07-09T10:36:19+0200</time>
      </trkpt>
      <trkpt lat="45.02581" lon="3.15038">
        <ele>809.211157</ele>
        <time>2021-07-09T10:36:22+0200</time>
      </trkpt>
      <trkpt lat="45.02579" lon="3.15045">
        <ele>809.798113</ele>
        <time>2021-07-09T10:36:25+0200</time>
      </trkpt>
      <trkpt lat="45.02577" lon="3.15053">
        <ele>810.238192</ele>
        <time>2021-07-09T10:36:28+0200</time>
      </trkpt>
      <trkpt lat="45.02575" lon="3.1506">
        <ele>811.238284</ele>
        <time>2021-07-09T10:36:31+0200</time>
      </trkpt>
      <trkpt lat="45.02575" lon="3.15067">
        <ele>810.50345</ele>
        <time>2021-07-09T10:36:34+0200</time>
      </trkpt>
      <trkpt lat="45.02573" lon="3.15075">
        <ele>810.594134</ele>
        <time>2021-07-09T10:36:37+0200</time>
      </trkpt>
      <trkpt lat="45.02572" lon="3.15083">
        <ele>810.970787</ele>
        <time>2021-07-09T10:36:40+0200</time>
      </trkpt>
      <trkpt lat="45.02571" lon="3.15089">
        <ele>812.025322</ele>
        <time>2021-07-09T10:36:42+0200</time>
      </trkpt>
      <trkpt lat="45.02571" lon="3.15096">
        <ele>812.023528</ele>
        <time>2021-07-09T10:36:44+0200</time>
      </trkpt>
      <trkpt lat="45.0257" lon="3.15105">
        <ele>812.987853</ele>
        <time>2021-07-09T10:36:47+0200</time>
      </trkpt>
      <trkpt lat="45.02568" lon="3.15111">
        <ele>815.224303</ele>
        <time>2021-07-09T10:36:50+0200</time>
      </trkpt>
      <trkpt lat="45.02566" lon="3.15118">
        <ele>814.175943</ele>
        <time>2021-07-09T10:36:52+0200</time>
      </trkpt>
      <trkpt lat="45.02565" lon="3.15125">
        <ele>815.055381</ele>
        <time>2021-07-09T10:36:55+0200</time>
      </trkpt>
      <trkpt lat="45.02563" lon="3.15133">
        <ele>813.065199</ele>
        <time>2021-07-09T10:36:58+0200</time>
      </trkpt>
      <trkpt lat="45.02563" lon="3.1514">
        <ele>812.696963</ele>
        <time>2021-07-09T10:37:01+0200</time>
      </trkpt>
      <trkpt lat="45.02561" lon="3.15149">
        <ele>812.361601</ele>
        <time>2021-07-09T10:37:04+0200</time>
      </trkpt>
      <trkpt lat="45.0256" lon="3.15156">
        <ele>813.516681</ele>
        <time>2021-07-09T10:37:06+0200</time>
      </trkpt>
      <trkpt lat="45.02559" lon="3.15163">
        <ele>813.741341</ele>
        <time>2021-07-09T10:37:09+0200</time>
      </trkpt>
      <trkpt lat="45.02556" lon="3.1517">
        <ele>813.697573</ele>
        <time>2021-07-09T10:37:12+0200</time>
      </trkpt>
      <trkpt lat="45.02555" lon="3.15179">
        <ele>815.605512</ele>
        <time>2021-07-09T10:37:15+0200</time>
      </trkpt>
      <trkpt lat="45.02553" lon="3.15186">
        <ele>815.147027</ele>
        <time>2021-07-09T10:37:18+0200</time>
      </trkpt>
      <trkpt lat="45.02552" lon="3.15194">
        <ele>817.072242</ele>
        <time>2021-07-09T10:37:21+0200</time>
      </trkpt>
      <trkpt lat="45.0255" lon="3.15202">
        <ele>818.874732</ele>
        <time>2021-07-09T10:37:24+0200</time>
      </trkpt>
      <trkpt lat="45.02547" lon="3.15211">
        <ele>819.716834</ele>
        <time>2021-07-09T10:37:27+0200</time>
      </trkpt>
      <trkpt lat="45.02545" lon="3.15217">
        <ele>823.4901</ele>
        <time>2021-07-09T10:37:30+0200</time>
      </trkpt>
      <trkpt lat="45.0254" lon="3.15222">
        <ele>823.131181</ele>
        <time>2021-07-09T10:37:32+0200</time>
      </trkpt>
      <trkpt lat="45.02537" lon="3.15226">
        <ele>821.63246</ele>
        <time>2021-07-09T10:37:33+0200</time>
      </trkpt>
      <trkpt lat="45.02532" lon="3.15232">
        <ele>820.453586</ele>
        <time>2021-07-09T10:37:35+0200</time>
      </trkpt>
      <trkpt lat="45.02529" lon="3.15237">
        <ele>821.338625</ele>
        <time>2021-07-09T10:37:37+0200</time>
      </trkpt>
      <trkpt lat="45.02526" lon="3.15243">
        <ele>821.130922</ele>
        <time>2021-07-09T10:37:39+0200</time>
      </trkpt>
      <trkpt lat="45.02521" lon="3.15247">
        <ele>820.803934</ele>
        <time>2021-07-09T10:37:41+0200</time>
      </trkpt>
      <trkpt lat="45.02517" lon="3.15252">
        <ele>820.643344</ele>
        <time>2021-07-09T10:37:44+0200</time>
      </trkpt>
      <trkpt lat="45.02511" lon="3.15256">
        <ele>823.803318</ele>
        <time>2021-07-09T10:37:47+0200</time>
      </trkpt>
      <trkpt lat="45.02505" lon="3.1526">
        <ele>825.133442</ele>
        <time>2021-07-09T10:37:50+0200</time>
      </trkpt>
      <trkpt lat="45.025" lon="3.15261">
        <ele>825.758672</ele>
        <time>2021-07-09T10:37:53+0200</time>
      </trkpt>
      <trkpt lat="45.02495" lon="3.15261">
        <ele>827.315768</ele>
        <time>2021-07-09T10:37:57+0200</time>
      </trkpt>
      <trkpt lat="45.02489" lon="3.15264">
        <ele>832.211211</ele>
        <time>2021-07-09T10:38:00+0200</time>
      </trkpt>
      <trkpt lat="45.02483" lon="3.15268">
        <ele>834.485284</ele>
        <time>2021-07-09T10:38:03+0200</time>
      </trkpt>
      <trkpt lat="45.02479" lon="3.15269">
        <ele>838.863693</ele>
        <time>2021-07-09T10:38:06+0200</time>
      </trkpt>
      <trkpt lat="45.02474" lon="3.15272">
        <ele>842.537563</ele>
        <time>2021-07-09T10:38:10+0200</time>
      </trkpt>
      <trkpt lat="45.02468" lon="3.15274">
        <ele>845.828784</ele>
        <time>2021-07-09T10:38:15+0200</time>
      </trkpt>
      <trkpt lat="45.02463" lon="3.15276">
        <ele>846.797132</ele>
        <time>2021-07-09T10:38:18+0200</time>
      </trkpt>
      <trkpt lat="45.02458" lon="3.15281">
        <ele>848.650751</ele>
        <time>2021-07-09T10:38:21+0200</time>
      </trkpt>
      <trkpt lat="45.02454" lon="3.15285">
        <ele>845.659135</ele>
        <time>2021-07-09T10:38:23+0200</time>
      </trkpt>
      <trkpt lat="45.0245" lon="3.15287">
        <ele>844.22579</ele>
        <time>2021-07-09T10:38:24+0200</time>
      </trkpt>
      <trkpt lat="45.02442" lon="3.15292">
        <ele>840.957503</ele>
        <time>2021-07-09T10:38:26+0200</time>
      </trkpt>
      <trkpt lat="45.02437" lon="3.15298">
        <ele>839.859392</ele>
        <time>2021-07-09T10:38:28+0200</time>
      </trkpt>
      <trkpt lat="45.02433" lon="3.153">
        <ele>837.734611</ele>
        <time>2021-07-09T10:38:29+0200</time>
      </trkpt>
      <trkpt lat="45.02426" lon="3.15305">
        <ele>835.230495</ele>
        <time>2021-07-09T10:38:31+0200</time>
      </trkpt>
      <trkpt lat="45.02422" lon="3.1531">
        <ele>834.361001</ele>
        <time>2021-07-09T10:38:33+0200</time>
      </trkpt>
      <trkpt lat="45.02418" lon="3.15314">
        <ele>833.30488</ele>
        <time>2021-07-09T10:38:35+0200</time>
      </trkpt>
      <trkpt lat="45.02413" lon="3.1532">
        <ele>833.71663</ele>
        <time>2021-07-09T10:38:38+0200</time>
      </trkpt>
      <trkpt lat="45.0241" lon="3.15326">
        <ele>834.756131</ele>
        <time>2021-07-09T10:38:40+0200</time>
      </trkpt>
      <trkpt lat="45.02408" lon="3.15334">
        <ele>835.653608</ele>
        <time>2021-07-09T10:38:43+0200</time>
      </trkpt>
      <trkpt lat="45.02405" lon="3.1534">
        <ele>837.519957</ele>
        <time>2021-07-09T10:38:45+0200</time>
      </trkpt>
      <trkpt lat="45.02402" lon="3.15346">
        <ele>839.5739</ele>
        <time>2021-07-09T10:38:47+0200</time>
      </trkpt>
      <trkpt lat="45.02399" lon="3.15351">
        <ele>839.986243</ele>
        <time>2021-07-09T10:38:49+0200</time>
      </trkpt>
      <trkpt lat="45.02395" lon="3.15358">
        <ele>840.226966</ele>
        <time>2021-07-09T10:38:51+0200</time>
      </trkpt>
      <trkpt lat="45.02391" lon="3.15363">
        <ele>838.211992</ele>
        <time>2021-07-09T10:38:53+0200</time>
      </trkpt>
      <trkpt lat="45.02389" lon="3.15369">
        <ele>840.119323</ele>
        <time>2021-07-09T10:38:56+0200</time>
      </trkpt>
      <trkpt lat="45.02388" lon="3.15375">
        <ele>840.824754</ele>
        <time>2021-07-09T10:38:58+0200</time>
      </trkpt>
      <trkpt lat="45.02383" lon="3.15385">
        <ele>841.839413</ele>
        <time>2021-07-09T10:39:01+0200</time>
      </trkpt>
      <trkpt lat="45.0238" lon="3.15391">
        <ele>842.070682</ele>
        <time>2021-07-09T10:39:03+0200</time>
      </trkpt>
      <trkpt lat="45.02375" lon="3.15396">
        <ele>840.484853</ele>
        <time>2021-07-09T10:39:05+0200</time>
      </trkpt>
      <trkpt lat="45.02373" lon="3.15402">
        <ele>842.429812</ele>
        <time>2021-07-09T10:39:07+0200</time>
      </trkpt>
      <trkpt lat="45.02371" lon="3.15409">
        <ele>846.170172</ele>
        <time>2021-07-09T10:39:10+0200</time>
      </trkpt>
      <trkpt lat="45.02365" lon="3.15413">
        <ele>847.285126</ele>
        <time>2021-07-09T10:39:13+0200</time>
      </trkpt>
      <trkpt lat="45.02361" lon="3.15418">
        <ele>846.428257</ele>
        <time>2021-07-09T10:39:16+0200</time>
      </trkpt>
      <trkpt lat="45.02361" lon="3.15425">
        <ele>843.866612</ele>
        <time>2021-07-09T10:39:20+0200</time>
      </trkpt>
      <trkpt lat="45.02365" lon="3.15427">
        <ele>840.019403</ele>
        <time>2021-07-09T10:39:24+0200</time>
      </trkpt>
      <trkpt lat="45.0237" lon="3.15427">
        <ele>836.108276</ele>
        <time>2021-07-09T10:39:31+0200</time>
      </trkpt>
      <trkpt lat="45.02375" lon="3.15429">
        <ele>836.718854</ele>
        <time>2021-07-09T10:39:35+0200</time>
      </trkpt>
      <trkpt lat="45.0237" lon="3.15429">
        <ele>838.635257</ele>
        <time>2021-07-09T10:40:11+0200</time>
      </trkpt>
      <trkpt lat="45.02371" lon="3.15422">
        <ele>841.583275</ele>
        <time>2021-07-09T10:40:21+0200</time>
      </trkpt>
      <trkpt lat="45.02368" lon="3.15427">
        <ele>833.139522</ele>
        <time>2021-07-09T10:40:30+0200</time>
      </trkpt>
      <trkpt lat="45.02372" lon="3.15425">
        <ele>837.571125</ele>
        <time>2021-07-09T10:41:49+0200</time>
      </trkpt>
      <trkpt lat="45.02371" lon="3.15432">
        <ele>835.24383</ele>
        <time>2021-07-09T10:42:19+0200</time>
      </trkpt>
      <trkpt lat="45.02374" lon="3.15436">
        <ele>832.588259</ele>
        <time>2021-07-09T10:42:38+0200</time>
      </trkpt>
      <trkpt lat="45.02378" lon="3.15441">
        <ele>831.893494</ele>
        <time>2021-07-09T10:42:43+0200</time>
      </trkpt>
      <trkpt lat="45.02382" lon="3.15446">
        <ele>833.339988</ele>
        <time>2021-07-09T10:42:46+0200</time>
      </trkpt>
      <trkpt lat="45.02387" lon="3.1545">
        <ele>831.862273</ele>
        <time>2021-07-09T10:42:50+0200</time>
      </trkpt>
      <trkpt lat="45.02393" lon="3.15454">
        <ele>831.850506</ele>
        <time>2021-07-09T10:42:53+0200</time>
      </trkpt>
      <trkpt lat="45.02396" lon="3.15459">
        <ele>832.435662</ele>
        <time>2021-07-09T10:42:56+0200</time>
      </trkpt>
      <trkpt lat="45.02401" lon="3.15464">
        <ele>833.314392</ele>
        <time>2021-07-09T10:43:00+0200</time>
      </trkpt>
      <trkpt lat="45.02404" lon="3.15472">
        <ele>834.378149</ele>
        <time>2021-07-09T10:43:03+0200</time>
      </trkpt>
      <trkpt lat="45.02404" lon="3.15479">
        <ele>835.754682</ele>
        <time>2021-07-09T10:43:06+0200</time>
      </trkpt>
      <trkpt lat="45.02405" lon="3.15489">
        <ele>837.826454</ele>
        <time>2021-07-09T10:43:09+0200</time>
      </trkpt>
      <trkpt lat="45.02406" lon="3.15495">
        <ele>838.466338</ele>
        <time>2021-07-09T10:43:12+0200</time>
      </trkpt>
      <trkpt lat="45.02408" lon="3.15502">
        <ele>837.324147</ele>
        <time>2021-07-09T10:43:15+0200</time>
      </trkpt>
      <trkpt lat="45.02412" lon="3.15509">
        <ele>837.95949</ele>
        <time>2021-07-09T10:43:18+0200</time>
      </trkpt>
      <trkpt lat="45.02416" lon="3.15514">
        <ele>837.357668</ele>
        <time>2021-07-09T10:43:21+0200</time>
      </trkpt>
      <trkpt lat="45.0242" lon="3.15522">
        <ele>836.956822</ele>
        <time>2021-07-09T10:43:25+0200</time>
      </trkpt>
      <trkpt lat="45.02424" lon="3.15527">
        <ele>836.144012</ele>
        <time>2021-07-09T10:43:28+0200</time>
      </trkpt>
      <trkpt lat="45.02429" lon="3.15533">
        <ele>835.259012</ele>
        <time>2021-07-09T10:43:31+0200</time>
      </trkpt>
      <trkpt lat="45.02432" lon="3.1554">
        <ele>836.22536</ele>
        <time>2021-07-09T10:43:34+0200</time>
      </trkpt>
      <trkpt lat="45.02433" lon="3.15547">
        <ele>837.559074</ele>
        <time>2021-07-09T10:43:37+0200</time>
      </trkpt>
      <trkpt lat="45.02433" lon="3.15555">
        <ele>839.794117</ele>
        <time>2021-07-09T10:43:40+0200</time>
      </trkpt>
      <trkpt lat="45.02434" lon="3.15563">
        <ele>843.017513</ele>
        <time>2021-07-09T10:43:44+0200</time>
      </trkpt>
      <trkpt lat="45.02434" lon="3.1557">
        <ele>844.66202</ele>
        <time>2021-07-09T10:43:47+0200</time>
      </trkpt>
      <trkpt lat="45.02435" lon="3.15577">
        <ele>844.975189</ele>
        <time>2021-07-09T10:43:50+0200</time>
      </trkpt>
      <trkpt lat="45.02435" lon="3.15584">
        <ele>846.307853</ele>
        <time>2021-07-09T10:43:53+0200</time>
      </trkpt>
      <trkpt lat="45.02436" lon="3.15591">
        <ele>848.890105</ele>
        <time>2021-07-09T10:43:57+0200</time>
      </trkpt>
      <trkpt lat="45.02438" lon="3.15597">
        <ele>848.872565</ele>
        <time>2021-07-09T10:44:00+0200</time>
      </trkpt>
      <trkpt lat="45.0244" lon="3.15604">
        <ele>848.771198</ele>
        <time>2021-07-09T10:44:03+0200</time>
      </trkpt>
      <trkpt lat="45.02442" lon="3.1561">
        <ele>849.467492</ele>
        <time>2021-07-09T10:44:06+0200</time>
      </trkpt>
      <trkpt lat="45.02445" lon="3.15615">
        <ele>848.736507</ele>
        <time>2021-07-09T10:44:09+0200</time>
      </trkpt>
      <trkpt lat="45.0245" lon="3.15619">
        <ele>848.369717</ele>
        <time>2021-07-09T10:44:13+0200</time>
      </trkpt>
      <trkpt lat="45.02454" lon="3.15625">
        <ele>849.891144</ele>
        <time>2021-07-09T10:44:17+0200</time>
      </trkpt>
      <trkpt lat="45.02458" lon="3.15629">
        <ele>850.415445</ele>
        <time>2021-07-09T10:44:20+0200</time>
      </trkpt>
      <trkpt lat="45.02463" lon="3.15633">
        <ele>849.278896</ele>
        <time>2021-07-09T10:44:24+0200</time>
      </trkpt>
      <trkpt lat="45.02467" lon="3.1564">
        <ele>848.613771</ele>
        <time>2021-07-09T10:44:28+0200</time>
      </trkpt>
      <trkpt lat="45.0247" lon="3.15645">
        <ele>847.022464</ele>
        <time>2021-07-09T10:44:31+0200</time>
      </trkpt>
      <trkpt lat="45.0247" lon="3.15652">
        <ele>849.914441</ele>
        <time>2021-07-09T10:44:35+0200</time>
      </trkpt>
      <trkpt lat="45.02471" lon="3.15658">
        <ele>850.213583</ele>
        <time>2021-07-09T10:44:38+0200</time>
      </trkpt>
      <trkpt lat="45.0247" lon="3.15665">
        <ele>851.843129</ele>
        <time>2021-07-09T10:44:42+0200</time>
      </trkpt>
      <trkpt lat="45.02469" lon="3.15672">
        <ele>852.587889</ele>
        <time>2021-07-09T10:44:47+0200</time>
      </trkpt>
      <trkpt lat="45.02469" lon="3.15679">
        <ele>854.086179</ele>
        <time>2021-07-09T10:44:51+0200</time>
      </trkpt>
      <trkpt lat="45.02468" lon="3.15687">
        <ele>855.158253</ele>
        <time>2021-07-09T10:44:55+0200</time>
      </trkpt>
      <trkpt lat="45.02469" lon="3.15695">
        <ele>856.415726</ele>
        <time>2021-07-09T10:44:59+0200</time>
      </trkpt>
      <trkpt lat="45.02468" lon="3.15702">
        <ele>856.726887</ele>
        <time>2021-07-09T10:45:02+0200</time>
      </trkpt>
      <trkpt lat="45.02469" lon="3.1571">
        <ele>857.530588</ele>
        <time>2021-07-09T10:45:05+0200</time>
      </trkpt>
      <trkpt lat="45.02471" lon="3.15717">
        <ele>859.286619</ele>
        <time>2021-07-09T10:45:07+0200</time>
      </trkpt>
      <trkpt lat="45.02471" lon="3.15725">
        <ele>859.464812</ele>
        <time>2021-07-09T10:45:11+0200</time>
      </trkpt>
      <trkpt lat="45.02472" lon="3.15732">
        <ele>858.502284</ele>
        <time>2021-07-09T10:45:14+0200</time>
      </trkpt>
      <trkpt lat="45.02472" lon="3.1574">
        <ele>859.61842</ele>
        <time>2021-07-09T10:45:18+0200</time>
      </trkpt>
      <trkpt lat="45.0247" lon="3.15747">
        <ele>861.98942</ele>
        <time>2021-07-09T10:45:23+0200</time>
      </trkpt>
      <trkpt lat="45.02468" lon="3.15752">
        <ele>863.396169</ele>
        <time>2021-07-09T10:45:26+0200</time>
      </trkpt>
      <trkpt lat="45.02468" lon="3.1576">
        <ele>863.779504</ele>
        <time>2021-07-09T10:45:30+0200</time>
      </trkpt>
      <trkpt lat="45.0247" lon="3.15767">
        <ele>862.816248</ele>
        <time>2021-07-09T10:45:33+0200</time>
      </trkpt>
      <trkpt lat="45.02474" lon="3.15768">
        <ele>861.999255</ele>
        <time>2021-07-09T10:45:35+0200</time>
      </trkpt>
      <trkpt lat="45.02477" lon="3.15774">
        <ele>862.201345</ele>
        <time>2021-07-09T10:45:38+0200</time>
      </trkpt>
      <trkpt lat="45.02478" lon="3.15782">
        <ele>863.079095</ele>
        <time>2021-07-09T10:45:43+0200</time>
      </trkpt>
      <trkpt lat="45.02479" lon="3.15789">
        <ele>863.071199</ele>
        <time>2021-07-09T10:45:47+0200</time>
      </trkpt>
      <trkpt lat="45.02476" lon="3.15796">
        <ele>862.772974</ele>
        <time>2021-07-09T10:45:50+0200</time>
      </trkpt>
      <trkpt lat="45.02479" lon="3.15801">
        <ele>864.35781</ele>
        <time>2021-07-09T10:45:57+0200</time>
      </trkpt>
      <trkpt lat="45.02484" lon="3.15798">
        <ele>865.529423</ele>
        <time>2021-07-09T10:46:02+0200</time>
      </trkpt>
      <trkpt lat="45.02487" lon="3.15793">
        <ele>868.1247</ele>
        <time>2021-07-09T10:46:23+0200</time>
      </trkpt>
      <trkpt lat="45.02489" lon="3.158">
        <ele>871.461661</ele>
        <time>2021-07-09T10:46:36+0200</time>
      </trkpt>
      <trkpt lat="45.02487" lon="3.15809">
        <ele>868.551222</ele>
        <time>2021-07-09T10:46:39+0200</time>
      </trkpt>
      <trkpt lat="45.02485" lon="3.15817">
        <ele>866.888577</ele>
        <time>2021-07-09T10:46:41+0200</time>
      </trkpt>
      <trkpt lat="45.02485" lon="3.15825">
        <ele>866.916831</ele>
        <time>2021-07-09T10:46:43+0200</time>
      </trkpt>
      <trkpt lat="45.02485" lon="3.15832">
        <ele>865.782313</ele>
        <time>2021-07-09T10:46:45+0200</time>
      </trkpt>
      <trkpt lat="45.02485" lon="3.15839">
        <ele>865.655665</ele>
        <time>2021-07-09T10:46:48+0200</time>
      </trkpt>
      <trkpt lat="45.02486" lon="3.15847">
        <ele>867.741059</ele>
        <time>2021-07-09T10:46:52+0200</time>
      </trkpt>
      <trkpt lat="45.02483" lon="3.15855">
        <ele>867.871505</ele>
        <time>2021-07-09T10:46:54+0200</time>
      </trkpt>
      <trkpt lat="45.0248" lon="3.15862">
        <ele>866.608566</ele>
        <time>2021-07-09T10:46:56+0200</time>
      </trkpt>
      <trkpt lat="45.02475" lon="3.15869">
        <ele>865.971346</ele>
        <time>2021-07-09T10:46:58+0200</time>
      </trkpt>
      <trkpt lat="45.02469" lon="3.15877">
        <ele>865.991011</ele>
        <time>2021-07-09T10:47:00+0200</time>
      </trkpt>
      <trkpt lat="45.02465" lon="3.15885">
        <ele>865.785079</ele>
        <time>2021-07-09T10:47:03+0200</time>
      </trkpt>
      <trkpt lat="45.0246" lon="3.15892">
        <ele>865.875107</ele>
        <time>2021-07-09T10:47:05+0200</time>
      </trkpt>
      <trkpt lat="45.02456" lon="3.15897">
        <ele>866.280208</ele>
        <time>2021-07-09T10:47:07+0200</time>
      </trkpt>
      <trkpt lat="45.02451" lon="3.15903">
        <ele>866.397775</ele>
        <time>2021-07-09T10:47:10+0200</time>
      </trkpt>
      <trkpt lat="45.02447" lon="3.15906">
        <ele>866.974136</ele>
        <time>2021-07-09T10:47:12+0200</time>
      </trkpt>
      <trkpt lat="45.02444" lon="3.15912">
        <ele>866.067186</ele>
        <time>2021-07-09T10:47:14+0200</time>
      </trkpt>
      <trkpt lat="45.0244" lon="3.15916">
        <ele>865.343739</ele>
        <time>2021-07-09T10:47:16+0200</time>
      </trkpt>
      <trkpt lat="45.02435" lon="3.15923">
        <ele>865.035785</ele>
        <time>2021-07-09T10:47:18+0200</time>
      </trkpt>
      <trkpt lat="45.02431" lon="3.1593">
        <ele>864.859399</ele>
        <time>2021-07-09T10:47:20+0200</time>
      </trkpt>
      <trkpt lat="45.02425" lon="3.15937">
        <ele>865.031275</ele>
        <time>2021-07-09T10:47:22+0200</time>
      </trkpt>
      <trkpt lat="45.0242" lon="3.15944">
        <ele>865.129214</ele>
        <time>2021-07-09T10:47:24+0200</time>
      </trkpt>
      <trkpt lat="45.02416" lon="3.15948">
        <ele>866.520869</ele>
        <time>2021-07-09T10:47:26+0200</time>
      </trkpt>
      <trkpt lat="45.02411" lon="3.15952">
        <ele>867.073415</ele>
        <time>2021-07-09T10:47:28+0200</time>
      </trkpt>
      <trkpt lat="45.02406" lon="3.15956">
        <ele>867.802445</ele>
        <time>2021-07-09T10:47:30+0200</time>
      </trkpt>
      <trkpt lat="45.02401" lon="3.15959">
        <ele>868.139415</ele>
        <time>2021-07-09T10:47:32+0200</time>
      </trkpt>
      <trkpt lat="45.02395" lon="3.15964">
        <ele>868.883449</ele>
        <time>2021-07-09T10:47:34+0200</time>
      </trkpt>
      <trkpt lat="45.02389" lon="3.1597">
        <ele>869.00398</ele>
        <time>2021-07-09T10:47:36+0200</time>
      </trkpt>
      <trkpt lat="45.02384" lon="3.15977">
        <ele>868.245027</ele>
        <time>2021-07-09T10:47:38+0200</time>
      </trkpt>
      <trkpt lat="45.0238" lon="3.15981">
        <ele>868.872631</ele>
        <time>2021-07-09T10:47:40+0200</time>
      </trkpt>
      <trkpt lat="45.02375" lon="3.15985">
        <ele>868.861225</ele>
        <time>2021-07-09T10:47:42+0200</time>
      </trkpt>
      <trkpt lat="45.0237" lon="3.15991">
        <ele>869.70273</ele>
        <time>2021-07-09T10:47:44+0200</time>
      </trkpt>
      <trkpt lat="45.02365" lon="3.15996">
        <ele>870.132959</ele>
        <time>2021-07-09T10:47:46+0200</time>
      </trkpt>
      <trkpt lat="45.02362" lon="3.16002">
        <ele>870.176756</ele>
        <time>2021-07-09T10:47:48+0200</time>
      </trkpt>
      <trkpt lat="45.02358" lon="3.16008">
        <ele>870.864087</ele>
        <time>2021-07-09T10:47:50+0200</time>
      </trkpt>
      <trkpt lat="45.02356" lon="3.16014">
        <ele>871.031914</ele>
        <time>2021-07-09T10:47:52+0200</time>
      </trkpt>
      <trkpt lat="45.02353" lon="3.1602">
        <ele>871.39021</ele>
        <time>2021-07-09T10:47:54+0200</time>
      </trkpt>
      <trkpt lat="45.0235" lon="3.16025">
        <ele>871.520509</ele>
        <time>2021-07-09T10:47:56+0200</time>
      </trkpt>
      <trkpt lat="45.02349" lon="3.16031">
        <ele>872.449352</ele>
        <time>2021-07-09T10:47:58+0200</time>
      </trkpt>
      <trkpt lat="45.02344" lon="3.16039">
        <ele>873.868344</ele>
        <time>2021-07-09T10:48:01+0200</time>
      </trkpt>
      <trkpt lat="45.02341" lon="3.16046">
        <ele>873.727996</ele>
        <time>2021-07-09T10:48:03+0200</time>
      </trkpt>
      <trkpt lat="45.02338" lon="3.16052">
        <ele>874.985325</ele>
        <time>2021-07-09T10:48:05+0200</time>
      </trkpt>
      <trkpt lat="45.02335" lon="3.1606">
        <ele>875.345298</ele>
        <time>2021-07-09T10:48:07+0200</time>
      </trkpt>
      <trkpt lat="45.02332" lon="3.16066">
        <ele>875.993997</ele>
        <time>2021-07-09T10:48:09+0200</time>
      </trkpt>
      <trkpt lat="45.02329" lon="3.16073">
        <ele>875.908506</ele>
        <time>2021-07-09T10:48:11+0200</time>
      </trkpt>
      <trkpt lat="45.02327" lon="3.1608">
        <ele>876.274326</ele>
        <time>2021-07-09T10:48:13+0200</time>
      </trkpt>
      <trkpt lat="45.02324" lon="3.16087">
        <ele>875.986274</ele>
        <time>2021-07-09T10:48:15+0200</time>
      </trkpt>
      <trkpt lat="45.02323" lon="3.16093">
        <ele>875.869147</ele>
        <time>2021-07-09T10:48:17+0200</time>
      </trkpt>
      <trkpt lat="45.02321" lon="3.161">
        <ele>876.667504</ele>
        <time>2021-07-09T10:48:19+0200</time>
      </trkpt>
      <trkpt lat="45.0232" lon="3.16107">
        <ele>876.95339</ele>
        <time>2021-07-09T10:48:21+0200</time>
      </trkpt>
      <trkpt lat="45.02318" lon="3.16115">
        <ele>876.818084</ele>
        <time>2021-07-09T10:48:23+0200</time>
      </trkpt>
      <trkpt lat="45.02316" lon="3.16122">
        <ele>876.610652</ele>
        <time>2021-07-09T10:48:25+0200</time>
      </trkpt>
      <trkpt lat="45.02314" lon="3.16128">
        <ele>876.626743</ele>
        <time>2021-07-09T10:48:27+0200</time>
      </trkpt>
      <trkpt lat="45.0231" lon="3.16133">
        <ele>876.87939</ele>
        <time>2021-07-09T10:48:29+0200</time>
      </trkpt>
      <trkpt lat="45.02307" lon="3.16138">
        <ele>876.377434</ele>
        <time>2021-07-09T10:48:31+0200</time>
      </trkpt>
      <trkpt lat="45.02304" lon="3.16143">
        <ele>875.766594</ele>
        <time>2021-07-09T10:48:34+0200</time>
      </trkpt>
      <trkpt lat="45.02298" lon="3.16145">
        <ele>875.490874</ele>
        <time>2021-07-09T10:48:37+0200</time>
      </trkpt>
      <trkpt lat="45.02292" lon="3.16146">
        <ele>874.595821</ele>
        <time>2021-07-09T10:48:40+0200</time>
      </trkpt>
      <trkpt lat="45.02288" lon="3.16149">
        <ele>874.262191</ele>
        <time>2021-07-09T10:48:42+0200</time>
      </trkpt>
      <trkpt lat="45.02282" lon="3.16151">
        <ele>873.121926</ele>
        <time>2021-07-09T10:48:45+0200</time>
      </trkpt>
      <trkpt lat="45.02278" lon="3.16152">
        <ele>873.24683</ele>
        <time>2021-07-09T10:48:47+0200</time>
      </trkpt>
      <trkpt lat="45.02274" lon="3.16155">
        <ele>873.317788</ele>
        <time>2021-07-09T10:48:49+0200</time>
      </trkpt>
      <trkpt lat="45.02268" lon="3.16159">
        <ele>872.91112</ele>
        <time>2021-07-09T10:48:52+0200</time>
      </trkpt>
      <trkpt lat="45.02262" lon="3.16161">
        <ele>873.125583</ele>
        <time>2021-07-09T10:48:55+0200</time>
      </trkpt>
      <trkpt lat="45.02257" lon="3.16162">
        <ele>873.335768</ele>
        <time>2021-07-09T10:48:57+0200</time>
      </trkpt>
      <trkpt lat="45.02251" lon="3.16164">
        <ele>873.334161</ele>
        <time>2021-07-09T10:48:59+0200</time>
      </trkpt>
      <trkpt lat="45.02244" lon="3.16167">
        <ele>873.650899</ele>
        <time>2021-07-09T10:49:01+0200</time>
      </trkpt>
      <trkpt lat="45.02237" lon="3.1617">
        <ele>873.655623</ele>
        <time>2021-07-09T10:49:03+0200</time>
      </trkpt>
      <trkpt lat="45.0223" lon="3.16172">
        <ele>873.877379</ele>
        <time>2021-07-09T10:49:05+0200</time>
      </trkpt>
      <trkpt lat="45.02221" lon="3.16175">
        <ele>873.894461</ele>
        <time>2021-07-09T10:49:07+0200</time>
      </trkpt>
      <trkpt lat="45.02217" lon="3.16177">
        <ele>873.776557</ele>
        <time>2021-07-09T10:49:08+0200</time>
      </trkpt>
      <trkpt lat="45.02209" lon="3.1618">
        <ele>873.827068</ele>
        <time>2021-07-09T10:49:10+0200</time>
      </trkpt>
      <trkpt lat="45.02202" lon="3.16183">
        <ele>874.087936</ele>
        <time>2021-07-09T10:49:12+0200</time>
      </trkpt>
      <trkpt lat="45.02194" lon="3.16185">
        <ele>873.891091</ele>
        <time>2021-07-09T10:49:14+0200</time>
      </trkpt>
      <trkpt lat="45.02186" lon="3.16189">
        <ele>874.394441</ele>
        <time>2021-07-09T10:49:16+0200</time>
      </trkpt>
      <trkpt lat="45.02177" lon="3.16192">
        <ele>874.305173</ele>
        <time>2021-07-09T10:49:18+0200</time>
      </trkpt>
      <trkpt lat="45.02169" lon="3.16196">
        <ele>874.373947</ele>
        <time>2021-07-09T10:49:20+0200</time>
      </trkpt>
      <trkpt lat="45.0216" lon="3.16198">
        <ele>874.390508</ele>
        <time>2021-07-09T10:49:22+0200</time>
      </trkpt>
      <trkpt lat="45.02156" lon="3.162">
        <ele>874.34742</ele>
        <time>2021-07-09T10:49:23+0200</time>
      </trkpt>
      <trkpt lat="45.02147" lon="3.16203">
        <ele>874.365274</ele>
        <time>2021-07-09T10:49:25+0200</time>
      </trkpt>
      <trkpt lat="45.02143" lon="3.16205">
        <ele>874.451394</ele>
        <time>2021-07-09T10:49:26+0200</time>
      </trkpt>
      <trkpt lat="45.02139" lon="3.16208">
        <ele>874.436377</ele>
        <time>2021-07-09T10:49:27+0200</time>
      </trkpt>
      <trkpt lat="45.02135" lon="3.1621">
        <ele>874.502481</ele>
        <time>2021-07-09T10:49:28+0200</time>
      </trkpt>
      <trkpt lat="45.02127" lon="3.16215">
        <ele>874.408037</ele>
        <time>2021-07-09T10:49:30+0200</time>
      </trkpt>
      <trkpt lat="45.02122" lon="3.16217">
        <ele>874.450169</ele>
        <time>2021-07-09T10:49:31+0200</time>
      </trkpt>
      <trkpt lat="45.02118" lon="3.16219">
        <ele>874.355696</ele>
        <time>2021-07-09T10:49:32+0200</time>
      </trkpt>
      <trkpt lat="45.02113" lon="3.16221">
        <ele>874.191799</ele>
        <time>2021-07-09T10:49:33+0200</time>
      </trkpt>
      <trkpt lat="45.02109" lon="3.16223">
        <ele>874.165245</ele>
        <time>2021-07-09T10:49:34+0200</time>
      </trkpt>
      <trkpt lat="45.021" lon="3.16225">
        <ele>874.125682</ele>
        <time>2021-07-09T10:49:36+0200</time>
      </trkpt>
      <trkpt lat="45.02091" lon="3.16226">
        <ele>874.352732</ele>
        <time>2021-07-09T10:49:38+0200</time>
      </trkpt>
      <trkpt lat="45.02083" lon="3.16226">
        <ele>874.356863</ele>
        <time>2021-07-09T10:49:40+0200</time>
      </trkpt>
      <trkpt lat="45.02074" lon="3.16225">
        <ele>874.281011</ele>
        <time>2021-07-09T10:49:42+0200</time>
      </trkpt>
      <trkpt lat="45.02069" lon="3.16225">
        <ele>874.271696</ele>
        <time>2021-07-09T10:49:43+0200</time>
      </trkpt>
      <trkpt lat="45.02061" lon="3.16225">
        <ele>874.707128</ele>
        <time>2021-07-09T10:49:45+0200</time>
      </trkpt>
      <trkpt lat="45.02052" lon="3.16225">
        <ele>875.075916</ele>
        <time>2021-07-09T10:49:47+0200</time>
      </trkpt>
      <trkpt lat="45.02044" lon="3.16225">
        <ele>875.400728</ele>
        <time>2021-07-09T10:49:49+0200</time>
      </trkpt>
      <trkpt lat="45.02036" lon="3.16226">
        <ele>875.352691</ele>
        <time>2021-07-09T10:49:51+0200</time>
      </trkpt>
      <trkpt lat="45.02028" lon="3.16226">
        <ele>875.443778</ele>
        <time>2021-07-09T10:49:53+0200</time>
      </trkpt>
      <trkpt lat="45.0202" lon="3.16227">
        <ele>875.575665</ele>
        <time>2021-07-09T10:49:55+0200</time>
      </trkpt>
      <trkpt lat="45.02011" lon="3.16227">
        <ele>875.778283</ele>
        <time>2021-07-09T10:49:57+0200</time>
      </trkpt>
      <trkpt lat="45.02004" lon="3.16229">
        <ele>876.042848</ele>
        <time>2021-07-09T10:49:59+0200</time>
      </trkpt>
      <trkpt lat="45.01999" lon="3.16229">
        <ele>876.0591</ele>
        <time>2021-07-09T10:50:00+0200</time>
      </trkpt>
      <trkpt lat="45.01991" lon="3.16232">
        <ele>876.107381</ele>
        <time>2021-07-09T10:50:02+0200</time>
      </trkpt>
      <trkpt lat="45.01982" lon="3.16232">
        <ele>876.170741</ele>
        <time>2021-07-09T10:50:04+0200</time>
      </trkpt>
      <trkpt lat="45.01975" lon="3.16234">
        <ele>876.715694</ele>
        <time>2021-07-09T10:50:06+0200</time>
      </trkpt>
      <trkpt lat="45.0197" lon="3.16236">
        <ele>876.815989</ele>
        <time>2021-07-09T10:50:07+0200</time>
      </trkpt>
      <trkpt lat="45.01965" lon="3.16238">
        <ele>876.779448</ele>
        <time>2021-07-09T10:50:08+0200</time>
      </trkpt>
      <trkpt lat="45.01958" lon="3.16241">
        <ele>876.843892</ele>
        <time>2021-07-09T10:50:10+0200</time>
      </trkpt>
      <trkpt lat="45.0195" lon="3.16244">
        <ele>876.98599</ele>
        <time>2021-07-09T10:50:12+0200</time>
      </trkpt>
      <trkpt lat="45.01942" lon="3.16247">
        <ele>877.344209</ele>
        <time>2021-07-09T10:50:14+0200</time>
      </trkpt>
      <trkpt lat="45.01934" lon="3.16247">
        <ele>877.306146</ele>
        <time>2021-07-09T10:50:16+0200</time>
      </trkpt>
      <trkpt lat="45.01926" lon="3.16248">
        <ele>877.918687</ele>
        <time>2021-07-09T10:50:18+0200</time>
      </trkpt>
      <trkpt lat="45.01917" lon="3.16249">
        <ele>878.138521</ele>
        <time>2021-07-09T10:50:20+0200</time>
      </trkpt>
      <trkpt lat="45.01909" lon="3.16249">
        <ele>878.007175</ele>
        <time>2021-07-09T10:50:22+0200</time>
      </trkpt>
      <trkpt lat="45.019" lon="3.16249">
        <ele>877.813185</ele>
        <time>2021-07-09T10:50:24+0200</time>
      </trkpt>
      <trkpt lat="45.01892" lon="3.16249">
        <ele>878.096261</ele>
        <time>2021-07-09T10:50:26+0200</time>
      </trkpt>
      <trkpt lat="45.01883" lon="3.16249">
        <ele>878.40808</ele>
        <time>2021-07-09T10:50:28+0200</time>
      </trkpt>
      <trkpt lat="45.01875" lon="3.16248">
        <ele>878.210857</ele>
        <time>2021-07-09T10:50:30+0200</time>
      </trkpt>
      <trkpt lat="45.01866" lon="3.16247">
        <ele>878.952845</ele>
        <time>2021-07-09T10:50:32+0200</time>
      </trkpt>
      <trkpt lat="45.01858" lon="3.16246">
        <ele>879.263188</ele>
        <time>2021-07-09T10:50:34+0200</time>
      </trkpt>
      <trkpt lat="45.0185" lon="3.16246">
        <ele>879.021489</ele>
        <time>2021-07-09T10:50:36+0200</time>
      </trkpt>
      <trkpt lat="45.01841" lon="3.16243">
        <ele>878.930108</ele>
        <time>2021-07-09T10:50:38+0200</time>
      </trkpt>
      <trkpt lat="45.01833" lon="3.16241">
        <ele>878.839725</ele>
        <time>2021-07-09T10:50:40+0200</time>
      </trkpt>
      <trkpt lat="45.01826" lon="3.16238">
        <ele>878.836942</ele>
        <time>2021-07-09T10:50:42+0200</time>
      </trkpt>
      <trkpt lat="45.01821" lon="3.16238">
        <ele>878.957725</ele>
        <time>2021-07-09T10:50:43+0200</time>
      </trkpt>
      <trkpt lat="45.01817" lon="3.16237">
        <ele>878.909915</ele>
        <time>2021-07-09T10:50:44+0200</time>
      </trkpt>
      <trkpt lat="45.01808" lon="3.16235">
        <ele>879.068832</ele>
        <time>2021-07-09T10:50:46+0200</time>
      </trkpt>
      <trkpt lat="45.01799" lon="3.16232">
        <ele>879.557018</ele>
        <time>2021-07-09T10:50:48+0200</time>
      </trkpt>
      <trkpt lat="45.01791" lon="3.1623">
        <ele>879.620224</ele>
        <time>2021-07-09T10:50:50+0200</time>
      </trkpt>
      <trkpt lat="45.01783" lon="3.16226">
        <ele>880.214119</ele>
        <time>2021-07-09T10:50:52+0200</time>
      </trkpt>
      <trkpt lat="45.01776" lon="3.16224">
        <ele>880.499573</ele>
        <time>2021-07-09T10:50:54+0200</time>
      </trkpt>
      <trkpt lat="45.01768" lon="3.16223">
        <ele>880.574868</ele>
        <time>2021-07-09T10:50:56+0200</time>
      </trkpt>
      <trkpt lat="45.01762" lon="3.1622">
        <ele>881.419541</ele>
        <time>2021-07-09T10:50:58+0200</time>
      </trkpt>
      <trkpt lat="45.01756" lon="3.16218">
        <ele>881.89618</ele>
        <time>2021-07-09T10:51:00+0200</time>
      </trkpt>
      <trkpt lat="45.01749" lon="3.16216">
        <ele>882.687022</ele>
        <time>2021-07-09T10:51:02+0200</time>
      </trkpt>
      <trkpt lat="45.01743" lon="3.16214">
        <ele>882.993553</ele>
        <time>2021-07-09T10:51:04+0200</time>
      </trkpt>
      <trkpt lat="45.01737" lon="3.16213">
        <ele>883.321063</ele>
        <time>2021-07-09T10:51:06+0200</time>
      </trkpt>
      <trkpt lat="45.01732" lon="3.16211">
        <ele>883.522939</ele>
        <time>2021-07-09T10:51:08+0200</time>
      </trkpt>
      <trkpt lat="45.01726" lon="3.16209">
        <ele>884.141351</ele>
        <time>2021-07-09T10:51:10+0200</time>
      </trkpt>
      <trkpt lat="45.01719" lon="3.16207">
        <ele>884.372574</ele>
        <time>2021-07-09T10:51:12+0200</time>
      </trkpt>
      <trkpt lat="45.01713" lon="3.16205">
        <ele>885.037154</ele>
        <time>2021-07-09T10:51:14+0200</time>
      </trkpt>
      <trkpt lat="45.01707" lon="3.16204">
        <ele>885.397029</ele>
        <time>2021-07-09T10:51:16+0200</time>
      </trkpt>
      <trkpt lat="45.01701" lon="3.16201">
        <ele>885.427774</ele>
        <time>2021-07-09T10:51:18+0200</time>
      </trkpt>
      <trkpt lat="45.01696" lon="3.162">
        <ele>885.978753</ele>
        <time>2021-07-09T10:51:20+0200</time>
      </trkpt>
      <trkpt lat="45.01689" lon="3.16199">
        <ele>886.572291</ele>
        <time>2021-07-09T10:51:22+0200</time>
      </trkpt>
      <trkpt lat="45.01683" lon="3.16198">
        <ele>887.202606</ele>
        <time>2021-07-09T10:51:24+0200</time>
      </trkpt>
      <trkpt lat="45.01677" lon="3.16197">
        <ele>888.794882</ele>
        <time>2021-07-09T10:51:26+0200</time>
      </trkpt>
      <trkpt lat="45.01671" lon="3.16197">
        <ele>889.541548</ele>
        <time>2021-07-09T10:51:28+0200</time>
      </trkpt>
      <trkpt lat="45.01665" lon="3.16197">
        <ele>889.994048</ele>
        <time>2021-07-09T10:51:30+0200</time>
      </trkpt>
      <trkpt lat="45.0166" lon="3.16196">
        <ele>891.022533</ele>
        <time>2021-07-09T10:51:32+0200</time>
      </trkpt>
      <trkpt lat="45.01654" lon="3.16195">
        <ele>891.902643</ele>
        <time>2021-07-09T10:51:34+0200</time>
      </trkpt>
      <trkpt lat="45.01649" lon="3.16195">
        <ele>892.803114</ele>
        <time>2021-07-09T10:51:36+0200</time>
      </trkpt>
      <trkpt lat="45.01643" lon="3.16196">
        <ele>893.276777</ele>
        <time>2021-07-09T10:51:38+0200</time>
      </trkpt>
      <trkpt lat="45.01636" lon="3.16198">
        <ele>893.994938</ele>
        <time>2021-07-09T10:51:40+0200</time>
      </trkpt>
      <trkpt lat="45.0163" lon="3.16198">
        <ele>894.221393</ele>
        <time>2021-07-09T10:51:42+0200</time>
      </trkpt>
      <trkpt lat="45.01624" lon="3.16199">
        <ele>894.276537</ele>
        <time>2021-07-09T10:51:44+0200</time>
      </trkpt>
      <trkpt lat="45.01619" lon="3.162">
        <ele>894.927637</ele>
        <time>2021-07-09T10:51:46+0200</time>
      </trkpt>
      <trkpt lat="45.01613" lon="3.16201">
        <ele>894.240936</ele>
        <time>2021-07-09T10:51:48+0200</time>
      </trkpt>
      <trkpt lat="45.01606" lon="3.16203">
        <ele>893.582457</ele>
        <time>2021-07-09T10:51:50+0200</time>
      </trkpt>
      <trkpt lat="45.01598" lon="3.16206">
        <ele>893.404669</ele>
        <time>2021-07-09T10:51:52+0200</time>
      </trkpt>
      <trkpt lat="45.01591" lon="3.16208">
        <ele>893.022749</ele>
        <time>2021-07-09T10:51:54+0200</time>
      </trkpt>
      <trkpt lat="45.01585" lon="3.16211">
        <ele>892.209076</ele>
        <time>2021-07-09T10:51:56+0200</time>
      </trkpt>
      <trkpt lat="45.0158" lon="3.16212">
        <ele>892.00272</ele>
        <time>2021-07-09T10:51:58+0200</time>
      </trkpt>
      <trkpt lat="45.01576" lon="3.16212">
        <ele>891.369301</ele>
        <time>2021-07-09T10:52:00+0200</time>
      </trkpt>
      <trkpt lat="45.0157" lon="3.16211">
        <ele>891.29861</ele>
        <time>2021-07-09T10:52:03+0200</time>
      </trkpt>
      <trkpt lat="45.01565" lon="3.1621">
        <ele>891.602618</ele>
        <time>2021-07-09T10:52:07+0200</time>
      </trkpt>
      <trkpt lat="45.01559" lon="3.16209">
        <ele>892.690895</ele>
        <time>2021-07-09T10:52:11+0200</time>
      </trkpt>
      <trkpt lat="45.01553" lon="3.16207">
        <ele>893.199388</ele>
        <time>2021-07-09T10:52:14+0200</time>
      </trkpt>
      <trkpt lat="45.01546" lon="3.16205">
        <ele>893.369755</ele>
        <time>2021-07-09T10:52:17+0200</time>
      </trkpt>
      <trkpt lat="45.01541" lon="3.16205">
        <ele>893.595425</ele>
        <time>2021-07-09T10:52:19+0200</time>
      </trkpt>
      <trkpt lat="45.01536" lon="3.16202">
        <ele>893.662158</ele>
        <time>2021-07-09T10:52:21+0200</time>
      </trkpt>
      <trkpt lat="45.01531" lon="3.16201">
        <ele>893.736959</ele>
        <time>2021-07-09T10:52:23+0200</time>
      </trkpt>
      <trkpt lat="45.01525" lon="3.16201">
        <ele>893.34988</ele>
        <time>2021-07-09T10:52:25+0200</time>
      </trkpt>
      <trkpt lat="45.01519" lon="3.162">
        <ele>893.710131</ele>
        <time>2021-07-09T10:52:27+0200</time>
      </trkpt>
      <trkpt lat="45.01513" lon="3.16198">
        <ele>894.013535</ele>
        <time>2021-07-09T10:52:29+0200</time>
      </trkpt>
      <trkpt lat="45.01506" lon="3.16195">
        <ele>893.949182</ele>
        <time>2021-07-09T10:52:31+0200</time>
      </trkpt>
      <trkpt lat="45.01499" lon="3.16194">
        <ele>894.181184</ele>
        <time>2021-07-09T10:52:33+0200</time>
      </trkpt>
      <trkpt lat="45.01492" lon="3.16193">
        <ele>893.394611</ele>
        <time>2021-07-09T10:52:35+0200</time>
      </trkpt>
      <trkpt lat="45.01486" lon="3.1619">
        <ele>893.717991</ele>
        <time>2021-07-09T10:52:37+0200</time>
      </trkpt>
      <trkpt lat="45.0148" lon="3.16186">
        <ele>893.339659</ele>
        <time>2021-07-09T10:52:39+0200</time>
      </trkpt>
      <trkpt lat="45.01473" lon="3.1618">
        <ele>893.430043</ele>
        <time>2021-07-09T10:52:41+0200</time>
      </trkpt>
      <trkpt lat="45.01466" lon="3.16174">
        <ele>892.755649</ele>
        <time>2021-07-09T10:52:43+0200</time>
      </trkpt>
      <trkpt lat="45.01461" lon="3.16168">
        <ele>892.653127</ele>
        <time>2021-07-09T10:52:45+0200</time>
      </trkpt>
      <trkpt lat="45.01455" lon="3.1616">
        <ele>892.385082</ele>
        <time>2021-07-09T10:52:47+0200</time>
      </trkpt>
      <trkpt lat="45.0145" lon="3.16153">
        <ele>892.484715</ele>
        <time>2021-07-09T10:52:49+0200</time>
      </trkpt>
      <trkpt lat="45.01445" lon="3.16147">
        <ele>892.523764</ele>
        <time>2021-07-09T10:52:51+0200</time>
      </trkpt>
      <trkpt lat="45.01439" lon="3.16144">
        <ele>893.090985</ele>
        <time>2021-07-09T10:52:53+0200</time>
      </trkpt>
      <trkpt lat="45.01434" lon="3.16149">
        <ele>893.506769</ele>
        <time>2021-07-09T10:52:55+0200</time>
      </trkpt>
      <trkpt lat="45.0143" lon="3.16155">
        <ele>893.079215</ele>
        <time>2021-07-09T10:52:57+0200</time>
      </trkpt>
      <trkpt lat="45.01425" lon="3.16162">
        <ele>892.925194</ele>
        <time>2021-07-09T10:52:59+0200</time>
      </trkpt>
      <trkpt lat="45.01422" lon="3.16171">
        <ele>892.252466</ele>
        <time>2021-07-09T10:53:01+0200</time>
      </trkpt>
      <trkpt lat="45.01419" lon="3.16179">
        <ele>892.559215</ele>
        <time>2021-07-09T10:53:03+0200</time>
      </trkpt>
      <trkpt lat="45.01414" lon="3.16188">
        <ele>891.955764</ele>
        <time>2021-07-09T10:53:05+0200</time>
      </trkpt>
      <trkpt lat="45.01411" lon="3.16196">
        <ele>892.554035</ele>
        <time>2021-07-09T10:53:07+0200</time>
      </trkpt>
      <trkpt lat="45.01408" lon="3.16201">
        <ele>893.145384</ele>
        <time>2021-07-09T10:53:08+0200</time>
      </trkpt>
      <trkpt lat="45.01404" lon="3.16206">
        <ele>892.419128</ele>
        <time>2021-07-09T10:53:09+0200</time>
      </trkpt>
      <trkpt lat="45.01401" lon="3.16211">
        <ele>892.17191</ele>
        <time>2021-07-09T10:53:10+0200</time>
      </trkpt>
      <trkpt lat="45.01398" lon="3.16217">
        <ele>892.08042</ele>
        <time>2021-07-09T10:53:11+0200</time>
      </trkpt>
      <trkpt lat="45.01394" lon="3.16222">
        <ele>891.793686</ele>
        <time>2021-07-09T10:53:12+0200</time>
      </trkpt>
      <trkpt lat="45.01391" lon="3.16227">
        <ele>891.670096</ele>
        <time>2021-07-09T10:53:13+0200</time>
      </trkpt>
      <trkpt lat="45.01387" lon="3.16232">
        <ele>891.614569</ele>
        <time>2021-07-09T10:53:14+0200</time>
      </trkpt>
      <trkpt lat="45.01383" lon="3.16236">
        <ele>890.930037</ele>
        <time>2021-07-09T10:53:15+0200</time>
      </trkpt>
      <trkpt lat="45.01379" lon="3.16241">
        <ele>890.808026</ele>
        <time>2021-07-09T10:53:16+0200</time>
      </trkpt>
      <trkpt lat="45.01375" lon="3.16248">
        <ele>890.467687</ele>
        <time>2021-07-09T10:53:17+0200</time>
      </trkpt>
      <trkpt lat="45.0137" lon="3.16254">
        <ele>890.094998</ele>
        <time>2021-07-09T10:53:18+0200</time>
      </trkpt>
      <trkpt lat="45.01365" lon="3.16261">
        <ele>889.184727</ele>
        <time>2021-07-09T10:53:19+0200</time>
      </trkpt>
      <trkpt lat="45.0136" lon="3.16267">
        <ele>887.916313</ele>
        <time>2021-07-09T10:53:20+0200</time>
      </trkpt>
      <trkpt lat="45.01355" lon="3.16275">
        <ele>886.897442</ele>
        <time>2021-07-09T10:53:21+0200</time>
      </trkpt>
      <trkpt lat="45.01349" lon="3.16283">
        <ele>886.456885</ele>
        <time>2021-07-09T10:53:22+0200</time>
      </trkpt>
      <trkpt lat="45.01344" lon="3.16291">
        <ele>885.870003</ele>
        <time>2021-07-09T10:53:23+0200</time>
      </trkpt>
      <trkpt lat="45.01338" lon="3.16299">
        <ele>885.451174</ele>
        <time>2021-07-09T10:53:24+0200</time>
      </trkpt>
      <trkpt lat="45.01332" lon="3.16306">
        <ele>885.216474</ele>
        <time>2021-07-09T10:53:25+0200</time>
      </trkpt>
      <trkpt lat="45.01327" lon="3.16315">
        <ele>884.723045</ele>
        <time>2021-07-09T10:53:26+0200</time>
      </trkpt>
      <trkpt lat="45.01322" lon="3.16323">
        <ele>884.299163</ele>
        <time>2021-07-09T10:53:27+0200</time>
      </trkpt>
      <trkpt lat="45.01318" lon="3.16331">
        <ele>884.1401</ele>
        <time>2021-07-09T10:53:28+0200</time>
      </trkpt>
      <trkpt lat="45.01312" lon="3.16339">
        <ele>884.46306</ele>
        <time>2021-07-09T10:53:29+0200</time>
      </trkpt>
      <trkpt lat="45.01307" lon="3.16347">
        <ele>884.597954</ele>
        <time>2021-07-09T10:53:30+0200</time>
      </trkpt>
      <trkpt lat="45.01303" lon="3.16354">
        <ele>884.674238</ele>
        <time>2021-07-09T10:53:31+0200</time>
      </trkpt>
      <trkpt lat="45.01299" lon="3.16362">
        <ele>884.975809</ele>
        <time>2021-07-09T10:53:32+0200</time>
      </trkpt>
      <trkpt lat="45.01295" lon="3.16369">
        <ele>885.316089</ele>
        <time>2021-07-09T10:53:33+0200</time>
      </trkpt>
      <trkpt lat="45.01292" lon="3.16375">
        <ele>885.521823</ele>
        <time>2021-07-09T10:53:34+0200</time>
      </trkpt>
      <trkpt lat="45.01288" lon="3.16382">
        <ele>885.838705</ele>
        <time>2021-07-09T10:53:35+0200</time>
      </trkpt>
      <trkpt lat="45.01286" lon="3.16389">
        <ele>886.667661</ele>
        <time>2021-07-09T10:53:36+0200</time>
      </trkpt>
      <trkpt lat="45.01284" lon="3.16396">
        <ele>887.194432</ele>
        <time>2021-07-09T10:53:37+0200</time>
      </trkpt>
      <trkpt lat="45.01283" lon="3.16403">
        <ele>887.347361</ele>
        <time>2021-07-09T10:53:38+0200</time>
      </trkpt>
      <trkpt lat="45.01281" lon="3.1641">
        <ele>887.111814</ele>
        <time>2021-07-09T10:53:39+0200</time>
      </trkpt>
      <trkpt lat="45.01281" lon="3.16417">
        <ele>887.419342</ele>
        <time>2021-07-09T10:53:40+0200</time>
      </trkpt>
      <trkpt lat="45.0128" lon="3.16424">
        <ele>888.127816</ele>
        <time>2021-07-09T10:53:41+0200</time>
      </trkpt>
      <trkpt lat="45.0128" lon="3.16431">
        <ele>888.93291</ele>
        <time>2021-07-09T10:53:42+0200</time>
      </trkpt>
      <trkpt lat="45.0128" lon="3.16438">
        <ele>889.398373</ele>
        <time>2021-07-09T10:53:43+0200</time>
      </trkpt>
      <trkpt lat="45.01278" lon="3.16444">
        <ele>889.304116</ele>
        <time>2021-07-09T10:53:44+0200</time>
      </trkpt>
      <trkpt lat="45.01277" lon="3.16451">
        <ele>889.148598</ele>
        <time>2021-07-09T10:53:45+0200</time>
      </trkpt>
      <trkpt lat="45.01276" lon="3.16458">
        <ele>889.161727</ele>
        <time>2021-07-09T10:53:46+0200</time>
      </trkpt>
      <trkpt lat="45.01275" lon="3.16465">
        <ele>888.948658</ele>
        <time>2021-07-09T10:53:47+0200</time>
      </trkpt>
      <trkpt lat="45.01275" lon="3.16473">
        <ele>888.531125</ele>
        <time>2021-07-09T10:53:48+0200</time>
      </trkpt>
      <trkpt lat="45.01274" lon="3.1648">
        <ele>887.77963</ele>
        <time>2021-07-09T10:53:49+0200</time>
      </trkpt>
      <trkpt lat="45.01274" lon="3.16486">
        <ele>887.267343</ele>
        <time>2021-07-09T10:53:50+0200</time>
      </trkpt>
      <trkpt lat="45.01274" lon="3.16493">
        <ele>887.191648</ele>
        <time>2021-07-09T10:53:51+0200</time>
      </trkpt>
      <trkpt lat="45.01273" lon="3.16504">
        <ele>886.401838</ele>
        <time>2021-07-09T10:53:53+0200</time>
      </trkpt>
      <trkpt lat="45.01273" lon="3.16513">
        <ele>887.107204</ele>
        <time>2021-07-09T10:53:55+0200</time>
      </trkpt>
      <trkpt lat="45.0127" lon="3.1652">
        <ele>887.415474</ele>
        <time>2021-07-09T10:53:57+0200</time>
      </trkpt>
      <trkpt lat="45.01264" lon="3.16525">
        <ele>887.058262</ele>
        <time>2021-07-09T10:53:59+0200</time>
      </trkpt>
      <trkpt lat="45.01259" lon="3.16523">
        <ele>886.776698</ele>
        <time>2021-07-09T10:54:01+0200</time>
      </trkpt>
      <trkpt lat="45.01254" lon="3.1652">
        <ele>885.832866</ele>
        <time>2021-07-09T10:54:03+0200</time>
      </trkpt>
      <trkpt lat="45.01249" lon="3.16515">
        <ele>885.786315</ele>
        <time>2021-07-09T10:54:05+0200</time>
      </trkpt>
      <trkpt lat="45.01245" lon="3.1651">
        <ele>885.365868</ele>
        <time>2021-07-09T10:54:07+0200</time>
      </trkpt>
      <trkpt lat="45.01239" lon="3.16509">
        <ele>885.121742</ele>
        <time>2021-07-09T10:54:10+0200</time>
      </trkpt>
      <trkpt lat="45.01233" lon="3.16505">
        <ele>885.083269</ele>
        <time>2021-07-09T10:54:13+0200</time>
      </trkpt>
      <trkpt lat="45.01228" lon="3.16502">
        <ele>884.771756</ele>
        <time>2021-07-09T10:54:15+0200</time>
      </trkpt>
      <trkpt lat="45.01222" lon="3.16501">
        <ele>884.602144</ele>
        <time>2021-07-09T10:54:17+0200</time>
      </trkpt>
      <trkpt lat="45.01216" lon="3.16501">
        <ele>883.848059</ele>
        <time>2021-07-09T10:54:19+0200</time>
      </trkpt>
      <trkpt lat="45.01211" lon="3.16497">
        <ele>883.853986</ele>
        <time>2021-07-09T10:54:21+0200</time>
      </trkpt>
      <trkpt lat="45.01206" lon="3.16494">
        <ele>884.13316</ele>
        <time>2021-07-09T10:54:23+0200</time>
      </trkpt>
      <trkpt lat="45.012" lon="3.16497">
        <ele>884.255909</ele>
        <time>2021-07-09T10:54:25+0200</time>
      </trkpt>
      <trkpt lat="45.01195" lon="3.16503">
        <ele>884.286238</ele>
        <time>2021-07-09T10:54:27+0200</time>
      </trkpt>
      <trkpt lat="45.01193" lon="3.1651">
        <ele>884.697427</ele>
        <time>2021-07-09T10:54:29+0200</time>
      </trkpt>
      <trkpt lat="45.01189" lon="3.16516">
        <ele>884.989442</ele>
        <time>2021-07-09T10:54:31+0200</time>
      </trkpt>
      <trkpt lat="45.01184" lon="3.16524">
        <ele>883.970572</ele>
        <time>2021-07-09T10:54:33+0200</time>
      </trkpt>
      <trkpt lat="45.0118" lon="3.16533">
        <ele>883.716543</ele>
        <time>2021-07-09T10:54:35+0200</time>
      </trkpt>
      <trkpt lat="45.01175" lon="3.16542">
        <ele>883.767972</ele>
        <time>2021-07-09T10:54:37+0200</time>
      </trkpt>
      <trkpt lat="45.01172" lon="3.16547">
        <ele>883.590993</ele>
        <time>2021-07-09T10:54:38+0200</time>
      </trkpt>
      <trkpt lat="45.01171" lon="3.16553">
        <ele>883.828311</ele>
        <time>2021-07-09T10:54:39+0200</time>
      </trkpt>
      <trkpt lat="45.01168" lon="3.16559">
        <ele>883.510628</ele>
        <time>2021-07-09T10:54:40+0200</time>
      </trkpt>
      <trkpt lat="45.01164" lon="3.16565">
        <ele>882.898091</ele>
        <time>2021-07-09T10:54:41+0200</time>
      </trkpt>
      <trkpt lat="45.0116" lon="3.16573">
        <ele>882.991903</ele>
        <time>2021-07-09T10:54:43+0200</time>
      </trkpt>
      <trkpt lat="45.01156" lon="3.16581">
        <ele>884.070218</ele>
        <time>2021-07-09T10:54:45+0200</time>
      </trkpt>
      <trkpt lat="45.01153" lon="3.16588">
        <ele>884.155823</ele>
        <time>2021-07-09T10:54:47+0200</time>
      </trkpt>
      <trkpt lat="45.01149" lon="3.16596">
        <ele>884.109131</ele>
        <time>2021-07-09T10:54:49+0200</time>
      </trkpt>
      <trkpt lat="45.01144" lon="3.16605">
        <ele>884.10479</ele>
        <time>2021-07-09T10:54:51+0200</time>
      </trkpt>
      <trkpt lat="45.0114" lon="3.1661">
        <ele>884.736076</ele>
        <time>2021-07-09T10:54:53+0200</time>
      </trkpt>
      <trkpt lat="45.01137" lon="3.16616">
        <ele>884.98874</ele>
        <time>2021-07-09T10:54:56+0200</time>
      </trkpt>
      <trkpt lat="45.01133" lon="3.16623">
        <ele>884.329946</ele>
        <time>2021-07-09T10:54:59+0200</time>
      </trkpt>
      <trkpt lat="45.01131" lon="3.16628">
        <ele>884.023259</ele>
        <time>2021-07-09T10:55:01+0200</time>
      </trkpt>
      <trkpt lat="45.01128" lon="3.16635">
        <ele>882.555428</ele>
        <time>2021-07-09T10:55:04+0200</time>
      </trkpt>
      <trkpt lat="45.01123" lon="3.16641">
        <ele>882.875507</ele>
        <time>2021-07-09T10:55:07+0200</time>
      </trkpt>
      <trkpt lat="45.0112" lon="3.16649">
        <ele>882.084623</ele>
        <time>2021-07-09T10:55:10+0200</time>
      </trkpt>
      <trkpt lat="45.01117" lon="3.16655">
        <ele>881.3839</ele>
        <time>2021-07-09T10:55:12+0200</time>
      </trkpt>
      <trkpt lat="45.01114" lon="3.16661">
        <ele>880.257749</ele>
        <time>2021-07-09T10:55:15+0200</time>
      </trkpt>
      <trkpt lat="45.01111" lon="3.16665">
        <ele>880.192524</ele>
        <time>2021-07-09T10:55:17+0200</time>
      </trkpt>
      <trkpt lat="45.01107" lon="3.16671">
        <ele>881.085538</ele>
        <time>2021-07-09T10:55:19+0200</time>
      </trkpt>
      <trkpt lat="45.01103" lon="3.16676">
        <ele>882.193224</ele>
        <time>2021-07-09T10:55:21+0200</time>
      </trkpt>
      <trkpt lat="45.01099" lon="3.16684">
        <ele>880.089745</ele>
        <time>2021-07-09T10:55:24+0200</time>
      </trkpt>
      <trkpt lat="45.01096" lon="3.16689">
        <ele>879.576643</ele>
        <time>2021-07-09T10:55:26+0200</time>
      </trkpt>
      <trkpt lat="45.01093" lon="3.16697">
        <ele>878.898905</ele>
        <time>2021-07-09T10:55:29+0200</time>
      </trkpt>
      <trkpt lat="45.01089" lon="3.16704">
        <ele>877.657821</ele>
        <time>2021-07-09T10:55:32+0200</time>
      </trkpt>
      <trkpt lat="45.01086" lon="3.1671">
        <ele>877.052135</ele>
        <time>2021-07-09T10:55:35+0200</time>
      </trkpt>
      <trkpt lat="45.01082" lon="3.16713">
        <ele>875.749809</ele>
        <time>2021-07-09T10:55:38+0200</time>
      </trkpt>
      <trkpt lat="45.01078" lon="3.1672">
        <ele>875.08332</ele>
        <time>2021-07-09T10:55:41+0200</time>
      </trkpt>
      <trkpt lat="45.01075" lon="3.16726">
        <ele>875.606053</ele>
        <time>2021-07-09T10:55:45+0200</time>
      </trkpt>
      <trkpt lat="45.01071" lon="3.16733">
        <ele>875.316637</ele>
        <time>2021-07-09T10:55:48+0200</time>
      </trkpt>
      <trkpt lat="45.01068" lon="3.1674">
        <ele>874.742633</ele>
        <time>2021-07-09T10:55:52+0200</time>
      </trkpt>
      <trkpt lat="45.01065" lon="3.16745">
        <ele>875.211312</ele>
        <time>2021-07-09T10:55:54+0200</time>
      </trkpt>
      <trkpt lat="45.01063" lon="3.16751">
        <ele>875.606914</ele>
        <time>2021-07-09T10:55:56+0200</time>
      </trkpt>
      <trkpt lat="45.01059" lon="3.16756">
        <ele>874.87142</ele>
        <time>2021-07-09T10:55:58+0200</time>
      </trkpt>
      <trkpt lat="45.01056" lon="3.16761">
        <ele>874.539209</ele>
        <time>2021-07-09T10:56:00+0200</time>
      </trkpt>
      <trkpt lat="45.01052" lon="3.16768">
        <ele>873.392705</ele>
        <time>2021-07-09T10:56:03+0200</time>
      </trkpt>
      <trkpt lat="45.01049" lon="3.16775">
        <ele>872.750356</ele>
        <time>2021-07-09T10:56:06+0200</time>
      </trkpt>
      <trkpt lat="45.01046" lon="3.1678">
        <ele>871.778696</ele>
        <time>2021-07-09T10:56:09+0200</time>
      </trkpt>
      <trkpt lat="45.01044" lon="3.16786">
        <ele>871.610458</ele>
        <time>2021-07-09T10:56:12+0200</time>
      </trkpt>
      <trkpt lat="45.01041" lon="3.16791">
        <ele>870.445656</ele>
        <time>2021-07-09T10:56:14+0200</time>
      </trkpt>
      <trkpt lat="45.01037" lon="3.16797">
        <ele>870.013342</ele>
        <time>2021-07-09T10:56:16+0200</time>
      </trkpt>
      <trkpt lat="45.01034" lon="3.16804">
        <ele>869.985282</ele>
        <time>2021-07-09T10:56:19+0200</time>
      </trkpt>
      <trkpt lat="45.0103" lon="3.16809">
        <ele>870.51349</ele>
        <time>2021-07-09T10:56:22+0200</time>
      </trkpt>
      <trkpt lat="45.01027" lon="3.16815">
        <ele>870.899276</ele>
        <time>2021-07-09T10:56:24+0200</time>
      </trkpt>
      <trkpt lat="45.01024" lon="3.16821">
        <ele>871.861431</ele>
        <time>2021-07-09T10:56:26+0200</time>
      </trkpt>
      <trkpt lat="45.01021" lon="3.16825">
        <ele>872.380849</ele>
        <time>2021-07-09T10:56:28+0200</time>
      </trkpt>
      <trkpt lat="45.01019" lon="3.16833">
        <ele>872.243706</ele>
        <time>2021-07-09T10:56:31+0200</time>
      </trkpt>
      <trkpt lat="45.01016" lon="3.1684">
        <ele>872.383645</ele>
        <time>2021-07-09T10:56:34+0200</time>
      </trkpt>
      <trkpt lat="45.01014" lon="3.16847">
        <ele>872.888387</ele>
        <time>2021-07-09T10:56:36+0200</time>
      </trkpt>
      <trkpt lat="45.0101" lon="3.16851">
        <ele>873.22929</ele>
        <time>2021-07-09T10:56:38+0200</time>
      </trkpt>
      <trkpt lat="45.01007" lon="3.16858">
        <ele>873.197757</ele>
        <time>2021-07-09T10:56:40+0200</time>
      </trkpt>
      <trkpt lat="45.01004" lon="3.16863">
        <ele>871.856087</ele>
        <time>2021-07-09T10:56:42+0200</time>
      </trkpt>
      <trkpt lat="45.01002" lon="3.1687">
        <ele>872.749463</ele>
        <time>2021-07-09T10:56:45+0200</time>
      </trkpt>
      <trkpt lat="45.00998" lon="3.16876">
        <ele>873.726174</ele>
        <time>2021-07-09T10:56:47+0200</time>
      </trkpt>
      <trkpt lat="45.00995" lon="3.16883">
        <ele>873.38337</ele>
        <time>2021-07-09T10:56:49+0200</time>
      </trkpt>
      <trkpt lat="45.00993" lon="3.16892">
        <ele>873.735355</ele>
        <time>2021-07-09T10:56:52+0200</time>
      </trkpt>
      <trkpt lat="45.00992" lon="3.16899">
        <ele>874.527063</ele>
        <time>2021-07-09T10:56:54+0200</time>
      </trkpt>
      <trkpt lat="45.00988" lon="3.16906">
        <ele>874.379965</ele>
        <time>2021-07-09T10:56:57+0200</time>
      </trkpt>
      <trkpt lat="45.00984" lon="3.16911">
        <ele>875.181437</ele>
        <time>2021-07-09T10:56:59+0200</time>
      </trkpt>
      <trkpt lat="45.0098" lon="3.16917">
        <ele>875.973553</ele>
        <time>2021-07-09T10:57:02+0200</time>
      </trkpt>
      <trkpt lat="45.00977" lon="3.16923">
        <ele>874.673872</ele>
        <time>2021-07-09T10:57:04+0200</time>
      </trkpt>
      <trkpt lat="45.00973" lon="3.16926">
        <ele>873.890441</ele>
        <time>2021-07-09T10:57:07+0200</time>
      </trkpt>
      <trkpt lat="45.0097" lon="3.16931">
        <ele>870.296093</ele>
        <time>2021-07-09T10:57:16+0200</time>
      </trkpt>
      <trkpt lat="45.00967" lon="3.16937">
        <ele>872.113925</ele>
        <time>2021-07-09T10:57:47+0200</time>
      </trkpt>
      <trkpt lat="45.00961" lon="3.16944">
        <ele>872.338985</ele>
        <time>2021-07-09T10:57:49+0200</time>
      </trkpt>
      <trkpt lat="45.00957" lon="3.1695">
        <ele>872.061914</ele>
        <time>2021-07-09T10:57:51+0200</time>
      </trkpt>
      <trkpt lat="45.00951" lon="3.16956">
        <ele>872.325457</ele>
        <time>2021-07-09T10:57:53+0200</time>
      </trkpt>
      <trkpt lat="45.00945" lon="3.16963">
        <ele>873.2347</ele>
        <time>2021-07-09T10:57:55+0200</time>
      </trkpt>
      <trkpt lat="45.00939" lon="3.1697">
        <ele>871.776668</ele>
        <time>2021-07-09T10:57:57+0200</time>
      </trkpt>
      <trkpt lat="45.00932" lon="3.16977">
        <ele>871.837702</ele>
        <time>2021-07-09T10:57:59+0200</time>
      </trkpt>
      <trkpt lat="45.00925" lon="3.16983">
        <ele>870.946199</ele>
        <time>2021-07-09T10:58:01+0200</time>
      </trkpt>
      <trkpt lat="45.00918" lon="3.16988">
        <ele>870.445617</ele>
        <time>2021-07-09T10:58:03+0200</time>
      </trkpt>
      <trkpt lat="45.00914" lon="3.16991">
        <ele>871.059515</ele>
        <time>2021-07-09T10:58:04+0200</time>
      </trkpt>
      <trkpt lat="45.00908" lon="3.16994">
        <ele>871.586154</ele>
        <time>2021-07-09T10:58:06+0200</time>
      </trkpt>
      <trkpt lat="45.00902" lon="3.16997">
        <ele>871.957692</ele>
        <time>2021-07-09T10:58:08+0200</time>
      </trkpt>
      <trkpt lat="45.00896" lon="3.16998">
        <ele>871.055893</ele>
        <time>2021-07-09T10:58:11+0200</time>
      </trkpt>
      <trkpt lat="45.00889" lon="3.17002">
        <ele>870.465626</ele>
        <time>2021-07-09T10:58:13+0200</time>
      </trkpt>
      <trkpt lat="45.00883" lon="3.17004">
        <ele>870.230931</ele>
        <time>2021-07-09T10:58:15+0200</time>
      </trkpt>
      <trkpt lat="45.00877" lon="3.17007">
        <ele>868.556327</ele>
        <time>2021-07-09T10:58:17+0200</time>
      </trkpt>
      <trkpt lat="45.00871" lon="3.17012">
        <ele>868.376685</ele>
        <time>2021-07-09T10:58:19+0200</time>
      </trkpt>
      <trkpt lat="45.00866" lon="3.17014">
        <ele>869.191907</ele>
        <time>2021-07-09T10:58:21+0200</time>
      </trkpt>
      <trkpt lat="45.00861" lon="3.17018">
        <ele>869.535337</ele>
        <time>2021-07-09T10:58:23+0200</time>
      </trkpt>
      <trkpt lat="45.00856" lon="3.17021">
        <ele>869.225487</ele>
        <time>2021-07-09T10:58:25+0200</time>
      </trkpt>
      <trkpt lat="45.00852" lon="3.17024">
        <ele>870.062079</ele>
        <time>2021-07-09T10:58:27+0200</time>
      </trkpt>
      <trkpt lat="45.00848" lon="3.17028">
        <ele>871.504709</ele>
        <time>2021-07-09T10:58:29+0200</time>
      </trkpt>
      <trkpt lat="45.00842" lon="3.17034">
        <ele>871.435892</ele>
        <time>2021-07-09T10:58:31+0200</time>
      </trkpt>
      <trkpt lat="45.00836" lon="3.17037">
        <ele>871.399621</ele>
        <time>2021-07-09T10:58:33+0200</time>
      </trkpt>
      <trkpt lat="45.00832" lon="3.17042">
        <ele>872.083412</ele>
        <time>2021-07-09T10:58:35+0200</time>
      </trkpt>
      <trkpt lat="45.00827" lon="3.17046">
        <ele>872.882447</ele>
        <time>2021-07-09T10:58:37+0200</time>
      </trkpt>
      <trkpt lat="45.00823" lon="3.17049">
        <ele>873.737995</ele>
        <time>2021-07-09T10:58:39+0200</time>
      </trkpt>
      <trkpt lat="45.00818" lon="3.17053">
        <ele>874.824799</ele>
        <time>2021-07-09T10:58:41+0200</time>
      </trkpt>
      <trkpt lat="45.00814" lon="3.17056">
        <ele>875.897449</ele>
        <time>2021-07-09T10:58:43+0200</time>
      </trkpt>
      <trkpt lat="45.00809" lon="3.17061">
        <ele>879.47176</ele>
        <time>2021-07-09T10:58:46+0200</time>
      </trkpt>
      <trkpt lat="45.00804" lon="3.17065">
        <ele>881.586605</ele>
        <time>2021-07-09T10:58:48+0200</time>
      </trkpt>
      <trkpt lat="45.00797" lon="3.17071">
        <ele>883.578872</ele>
        <time>2021-07-09T10:58:50+0200</time>
      </trkpt>
      <trkpt lat="45.00791" lon="3.17075">
        <ele>884.656535</ele>
        <time>2021-07-09T10:58:52+0200</time>
      </trkpt>
      <trkpt lat="45.00787" lon="3.17081">
        <ele>885.336057</ele>
        <time>2021-07-09T10:58:54+0200</time>
      </trkpt>
      <trkpt lat="45.00782" lon="3.17085">
        <ele>887.43663</ele>
        <time>2021-07-09T10:58:56+0200</time>
      </trkpt>
      <trkpt lat="45.00778" lon="3.17089">
        <ele>887.840418</ele>
        <time>2021-07-09T10:58:58+0200</time>
      </trkpt>
      <trkpt lat="45.00773" lon="3.17093">
        <ele>888.4387</ele>
        <time>2021-07-09T10:59:00+0200</time>
      </trkpt>
      <trkpt lat="45.00768" lon="3.17098">
        <ele>887.59774</ele>
        <time>2021-07-09T10:59:02+0200</time>
      </trkpt>
      <trkpt lat="45.0076" lon="3.17102">
        <ele>886.259121</ele>
        <time>2021-07-09T10:59:04+0200</time>
      </trkpt>
      <trkpt lat="45.00756" lon="3.17104">
        <ele>886.059667</ele>
        <time>2021-07-09T10:59:05+0200</time>
      </trkpt>
      <trkpt lat="45.0075" lon="3.1711">
        <ele>886.744868</ele>
        <time>2021-07-09T10:59:07+0200</time>
      </trkpt>
      <trkpt lat="45.00743" lon="3.17114">
        <ele>887.286758</ele>
        <time>2021-07-09T10:59:09+0200</time>
      </trkpt>
      <trkpt lat="45.00738" lon="3.17118">
        <ele>886.532096</ele>
        <time>2021-07-09T10:59:10+0200</time>
      </trkpt>
      <trkpt lat="45.00731" lon="3.17125">
        <ele>884.100672</ele>
        <time>2021-07-09T10:59:12+0200</time>
      </trkpt>
      <trkpt lat="45.00725" lon="3.17134">
        <ele>884.633212</ele>
        <time>2021-07-09T10:59:14+0200</time>
      </trkpt>
      <trkpt lat="45.00723" lon="3.17141">
        <ele>885.883266</ele>
        <time>2021-07-09T10:59:16+0200</time>
      </trkpt>
      <trkpt lat="45.0072" lon="3.17146">
        <ele>886.649509</ele>
        <time>2021-07-09T10:59:18+0200</time>
      </trkpt>
      <trkpt lat="45.00717" lon="3.17155">
        <ele>886.936505</ele>
        <time>2021-07-09T10:59:20+0200</time>
      </trkpt>
      <trkpt lat="45.00715" lon="3.17162">
        <ele>886.991103</ele>
        <time>2021-07-09T10:59:21+0200</time>
      </trkpt>
      <trkpt lat="45.00712" lon="3.17171">
        <ele>887.028079</ele>
        <time>2021-07-09T10:59:23+0200</time>
      </trkpt>
      <trkpt lat="45.0071" lon="3.17183">
        <ele>889.44798</ele>
        <time>2021-07-09T10:59:25+0200</time>
      </trkpt>
      <trkpt lat="45.00709" lon="3.17194">
        <ele>890.784371</ele>
        <time>2021-07-09T10:59:27+0200</time>
      </trkpt>
      <trkpt lat="45.00706" lon="3.17206">
        <ele>890.977462</ele>
        <time>2021-07-09T10:59:29+0200</time>
      </trkpt>
      <trkpt lat="45.00704" lon="3.17217">
        <ele>892.359751</ele>
        <time>2021-07-09T10:59:31+0200</time>
      </trkpt>
      <trkpt lat="45.00703" lon="3.17226">
        <ele>891.910989</ele>
        <time>2021-07-09T10:59:32+0200</time>
      </trkpt>
      <trkpt lat="45.00702" lon="3.17233">
        <ele>892.986469</ele>
        <time>2021-07-09T10:59:33+0200</time>
      </trkpt>
      <trkpt lat="45.00701" lon="3.17243">
        <ele>896.351487</ele>
        <time>2021-07-09T10:59:35+0200</time>
      </trkpt>
      <trkpt lat="45.00697" lon="3.17251">
        <ele>898.627777</ele>
        <time>2021-07-09T10:59:37+0200</time>
      </trkpt>
      <trkpt lat="45.00695" lon="3.17257">
        <ele>899.247089</ele>
        <time>2021-07-09T10:59:38+0200</time>
      </trkpt>
      <trkpt lat="45.00692" lon="3.17267">
        <ele>899.560689</ele>
        <time>2021-07-09T10:59:40+0200</time>
      </trkpt>
      <trkpt lat="45.0069" lon="3.17278">
        <ele>897.289364</ele>
        <time>2021-07-09T10:59:42+0200</time>
      </trkpt>
      <trkpt lat="45.00687" lon="3.17285">
        <ele>893.425286</ele>
        <time>2021-07-09T10:59:44+0200</time>
      </trkpt>
      <trkpt lat="45.0068" lon="3.1729">
        <ele>884.542291</ele>
        <time>2021-07-09T10:59:46+0200</time>
      </trkpt>
      <trkpt lat="45.00672" lon="3.17293">
        <ele>881.62537</ele>
        <time>2021-07-09T10:59:48+0200</time>
      </trkpt>
      <trkpt lat="45.00668" lon="3.173">
        <ele>879.413668</ele>
        <time>2021-07-09T10:59:51+0200</time>
      </trkpt>
      <trkpt lat="45.00664" lon="3.17306">
        <ele>879.006948</ele>
        <time>2021-07-09T10:59:52+0200</time>
      </trkpt>
      <trkpt lat="45.00661" lon="3.17312">
        <ele>879.236145</ele>
        <time>2021-07-09T10:59:55+0200</time>
      </trkpt>
      <trkpt lat="45.00657" lon="3.17317">
        <ele>880.094547</ele>
        <time>2021-07-09T10:59:58+0200</time>
      </trkpt>
      <trkpt lat="45.00653" lon="3.17324">
        <ele>881.171499</ele>
        <time>2021-07-09T11:00:01+0200</time>
      </trkpt>
      <trkpt lat="45.00648" lon="3.1733">
        <ele>884.26235</ele>
        <time>2021-07-09T11:00:04+0200</time>
      </trkpt>
      <trkpt lat="45.00645" lon="3.17337">
        <ele>885.110057</ele>
        <time>2021-07-09T11:00:07+0200</time>
      </trkpt>
      <trkpt lat="45.00641" lon="3.17341">
        <ele>886.772578</ele>
        <time>2021-07-09T11:00:09+0200</time>
      </trkpt>
      <trkpt lat="45.00637" lon="3.17344">
        <ele>886.824391</ele>
        <time>2021-07-09T11:00:11+0200</time>
      </trkpt>
      <trkpt lat="45.00631" lon="3.17348">
        <ele>887.833412</ele>
        <time>2021-07-09T11:00:13+0200</time>
      </trkpt>
      <trkpt lat="45.00627" lon="3.17353">
        <ele>887.896855</ele>
        <time>2021-07-09T11:00:15+0200</time>
      </trkpt>
      <trkpt lat="45.00622" lon="3.1736">
        <ele>887.601058</ele>
        <time>2021-07-09T11:00:17+0200</time>
      </trkpt>
      <trkpt lat="45.00617" lon="3.17365">
        <ele>886.341666</ele>
        <time>2021-07-09T11:00:19+0200</time>
      </trkpt>
      <trkpt lat="45.00611" lon="3.17372">
        <ele>885.026266</ele>
        <time>2021-07-09T11:00:21+0200</time>
      </trkpt>
      <trkpt lat="45.00605" lon="3.1738">
        <ele>884.362134</ele>
        <time>2021-07-09T11:00:24+0200</time>
      </trkpt>
      <trkpt lat="45.006" lon="3.17384">
        <ele>884.177981</ele>
        <time>2021-07-09T11:00:26+0200</time>
      </trkpt>
      <trkpt lat="45.00596" lon="3.17388">
        <ele>885.134691</ele>
        <time>2021-07-09T11:00:28+0200</time>
      </trkpt>
      <trkpt lat="45.00591" lon="3.17394">
        <ele>885.352589</ele>
        <time>2021-07-09T11:00:30+0200</time>
      </trkpt>
      <trkpt lat="45.00585" lon="3.17398">
        <ele>885.134503</ele>
        <time>2021-07-09T11:00:32+0200</time>
      </trkpt>
      <trkpt lat="45.00582" lon="3.17406">
        <ele>883.926529</ele>
        <time>2021-07-09T11:00:34+0200</time>
      </trkpt>
      <trkpt lat="45.00578" lon="3.1741">
        <ele>883.561786</ele>
        <time>2021-07-09T11:00:36+0200</time>
      </trkpt>
      <trkpt lat="45.00574" lon="3.17415">
        <ele>885.001019</ele>
        <time>2021-07-09T11:00:38+0200</time>
      </trkpt>
      <trkpt lat="45.0057" lon="3.17421">
        <ele>884.838916</ele>
        <time>2021-07-09T11:00:40+0200</time>
      </trkpt>
      <trkpt lat="45.00565" lon="3.17428">
        <ele>885.490623</ele>
        <time>2021-07-09T11:00:42+0200</time>
      </trkpt>
      <trkpt lat="45.00562" lon="3.17434">
        <ele>885.094655</ele>
        <time>2021-07-09T11:00:44+0200</time>
      </trkpt>
      <trkpt lat="45.00557" lon="3.17441">
        <ele>885.288502</ele>
        <time>2021-07-09T11:00:46+0200</time>
      </trkpt>
      <trkpt lat="45.00553" lon="3.17448">
        <ele>886.449998</ele>
        <time>2021-07-09T11:00:48+0200</time>
      </trkpt>
      <trkpt lat="45.00552" lon="3.17458">
        <ele>886.821494</ele>
        <time>2021-07-09T11:00:50+0200</time>
      </trkpt>
      <trkpt lat="45.00549" lon="3.17463">
        <ele>887.184897</ele>
        <time>2021-07-09T11:00:51+0200</time>
      </trkpt>
      <trkpt lat="45.00544" lon="3.17471">
        <ele>888.071591</ele>
        <time>2021-07-09T11:00:53+0200</time>
      </trkpt>
      <trkpt lat="45.00543" lon="3.1748">
        <ele>888.367738</ele>
        <time>2021-07-09T11:00:55+0200</time>
      </trkpt>
      <trkpt lat="45.00539" lon="3.17487">
        <ele>889.710746</ele>
        <time>2021-07-09T11:00:57+0200</time>
      </trkpt>
      <trkpt lat="45.00535" lon="3.17495">
        <ele>891.084452</ele>
        <time>2021-07-09T11:00:59+0200</time>
      </trkpt>
      <trkpt lat="45.00532" lon="3.17504">
        <ele>891.828183</ele>
        <time>2021-07-09T11:01:01+0200</time>
      </trkpt>
      <trkpt lat="45.0053" lon="3.17512">
        <ele>893.136502</ele>
        <time>2021-07-09T11:01:03+0200</time>
      </trkpt>
      <trkpt lat="45.00529" lon="3.1752">
        <ele>895.121007</ele>
        <time>2021-07-09T11:01:05+0200</time>
      </trkpt>
      <trkpt lat="45.00527" lon="3.17526">
        <ele>895.25113</ele>
        <time>2021-07-09T11:01:06+0200</time>
      </trkpt>
      <trkpt lat="45.00525" lon="3.17533">
        <ele>895.173007</ele>
        <time>2021-07-09T11:01:07+0200</time>
      </trkpt>
      <trkpt lat="45.00522" lon="3.17543">
        <ele>895.929356</ele>
        <time>2021-07-09T11:01:09+0200</time>
      </trkpt>
      <trkpt lat="45.0052" lon="3.1755">
        <ele>895.637681</ele>
        <time>2021-07-09T11:01:10+0200</time>
      </trkpt>
      <trkpt lat="45.00516" lon="3.17556">
        <ele>894.708003</ele>
        <time>2021-07-09T11:01:11+0200</time>
      </trkpt>
      <trkpt lat="45.00513" lon="3.17564">
        <ele>892.96649</ele>
        <time>2021-07-09T11:01:12+0200</time>
      </trkpt>
      <trkpt lat="45.00511" lon="3.17571">
        <ele>891.475792</ele>
        <time>2021-07-09T11:01:13+0200</time>
      </trkpt>
      <trkpt lat="45.00508" lon="3.17577">
        <ele>889.212045</ele>
        <time>2021-07-09T11:01:14+0200</time>
      </trkpt>
      <trkpt lat="45.00505" lon="3.17583">
        <ele>887.727669</ele>
        <time>2021-07-09T11:01:15+0200</time>
      </trkpt>
      <trkpt lat="45.00503" lon="3.17588">
        <ele>886.822392</ele>
        <time>2021-07-09T11:01:16+0200</time>
      </trkpt>
      <trkpt lat="45.00501" lon="3.17596">
        <ele>885.947348</ele>
        <time>2021-07-09T11:01:18+0200</time>
      </trkpt>
      <trkpt lat="45.00497" lon="3.17603">
        <ele>884.792127</ele>
        <time>2021-07-09T11:01:20+0200</time>
      </trkpt>
      <trkpt lat="45.00493" lon="3.17612">
        <ele>884.240259</ele>
        <time>2021-07-09T11:01:22+0200</time>
      </trkpt>
      <trkpt lat="45.00489" lon="3.1762">
        <ele>883.736187</ele>
        <time>2021-07-09T11:01:24+0200</time>
      </trkpt>
      <trkpt lat="45.00484" lon="3.17628">
        <ele>882.940036</ele>
        <time>2021-07-09T11:01:26+0200</time>
      </trkpt>
      <trkpt lat="45.00478" lon="3.17636">
        <ele>882.379316</ele>
        <time>2021-07-09T11:01:28+0200</time>
      </trkpt>
      <trkpt lat="45.00475" lon="3.1764">
        <ele>882.254188</ele>
        <time>2021-07-09T11:01:29+0200</time>
      </trkpt>
      <trkpt lat="45.00468" lon="3.17647">
        <ele>881.309991</ele>
        <time>2021-07-09T11:01:31+0200</time>
      </trkpt>
      <trkpt lat="45.00461" lon="3.17653">
        <ele>880.801416</ele>
        <time>2021-07-09T11:01:33+0200</time>
      </trkpt>
      <trkpt lat="45.00455" lon="3.17659">
        <ele>881.167654</ele>
        <time>2021-07-09T11:01:35+0200</time>
      </trkpt>
      <trkpt lat="45.00449" lon="3.17666">
        <ele>881.218625</ele>
        <time>2021-07-09T11:01:37+0200</time>
      </trkpt>
      <trkpt lat="45.00444" lon="3.17672">
        <ele>881.230916</ele>
        <time>2021-07-09T11:01:39+0200</time>
      </trkpt>
      <trkpt lat="45.00438" lon="3.17678">
        <ele>881.402263</ele>
        <time>2021-07-09T11:01:41+0200</time>
      </trkpt>
      <trkpt lat="45.00432" lon="3.17684">
        <ele>881.61301</ele>
        <time>2021-07-09T11:01:43+0200</time>
      </trkpt>
      <trkpt lat="45.00427" lon="3.1769">
        <ele>881.324889</ele>
        <time>2021-07-09T11:01:45+0200</time>
      </trkpt>
      <trkpt lat="45.00421" lon="3.17696">
        <ele>881.097097</ele>
        <time>2021-07-09T11:01:47+0200</time>
      </trkpt>
      <trkpt lat="45.00418" lon="3.17702">
        <ele>880.952181</ele>
        <time>2021-07-09T11:01:49+0200</time>
      </trkpt>
      <trkpt lat="45.00419" lon="3.17711">
        <ele>880.59443</ele>
        <time>2021-07-09T11:01:52+0200</time>
      </trkpt>
      <trkpt lat="45.00419" lon="3.17718">
        <ele>880.705143</ele>
        <time>2021-07-09T11:01:55+0200</time>
      </trkpt>
      <trkpt lat="45.00416" lon="3.17726">
        <ele>880.513289</ele>
        <time>2021-07-09T11:01:58+0200</time>
      </trkpt>
      <trkpt lat="45.00411" lon="3.17731">
        <ele>880.557901</ele>
        <time>2021-07-09T11:02:01+0200</time>
      </trkpt>
      <trkpt lat="45.00407" lon="3.17735">
        <ele>881.271156</ele>
        <time>2021-07-09T11:02:04+0200</time>
      </trkpt>
      <trkpt lat="45.00404" lon="3.1774">
        <ele>882.120833</ele>
        <time>2021-07-09T11:02:07+0200</time>
      </trkpt>
      <trkpt lat="45.004" lon="3.17746">
        <ele>881.960463</ele>
        <time>2021-07-09T11:02:10+0200</time>
      </trkpt>
      <trkpt lat="45.00396" lon="3.17752">
        <ele>882.364257</ele>
        <time>2021-07-09T11:02:12+0200</time>
      </trkpt>
      <trkpt lat="45.00392" lon="3.17759">
        <ele>882.544214</ele>
        <time>2021-07-09T11:02:14+0200</time>
      </trkpt>
      <trkpt lat="45.00388" lon="3.17765">
        <ele>882.960985</ele>
        <time>2021-07-09T11:02:16+0200</time>
      </trkpt>
      <trkpt lat="45.00384" lon="3.17772">
        <ele>883.744825</ele>
        <time>2021-07-09T11:02:18+0200</time>
      </trkpt>
      <trkpt lat="45.0038" lon="3.17779">
        <ele>884.012577</ele>
        <time>2021-07-09T11:02:20+0200</time>
      </trkpt>
      <trkpt lat="45.00375" lon="3.17785">
        <ele>884.082417</ele>
        <time>2021-07-09T11:02:22+0200</time>
      </trkpt>
      <trkpt lat="45.0037" lon="3.17791">
        <ele>883.970525</ele>
        <time>2021-07-09T11:02:24+0200</time>
      </trkpt>
      <trkpt lat="45.00365" lon="3.17797">
        <ele>883.664645</ele>
        <time>2021-07-09T11:02:26+0200</time>
      </trkpt>
      <trkpt lat="45.0036" lon="3.17806">
        <ele>883.371129</ele>
        <time>2021-07-09T11:02:28+0200</time>
      </trkpt>
      <trkpt lat="45.00355" lon="3.17814">
        <ele>883.71204</ele>
        <time>2021-07-09T11:02:30+0200</time>
      </trkpt>
      <trkpt lat="45.00351" lon="3.17821">
        <ele>882.75194</ele>
        <time>2021-07-09T11:02:32+0200</time>
      </trkpt>
      <trkpt lat="45.00347" lon="3.17831">
        <ele>882.804549</ele>
        <time>2021-07-09T11:02:34+0200</time>
      </trkpt>
      <trkpt lat="45.00341" lon="3.1784">
        <ele>882.285629</ele>
        <time>2021-07-09T11:02:36+0200</time>
      </trkpt>
      <trkpt lat="45.00335" lon="3.17848">
        <ele>882.463039</ele>
        <time>2021-07-09T11:02:38+0200</time>
      </trkpt>
      <trkpt lat="45.0033" lon="3.17858">
        <ele>883.161598</ele>
        <time>2021-07-09T11:02:40+0200</time>
      </trkpt>
      <trkpt lat="45.00324" lon="3.17868">
        <ele>883.142764</ele>
        <time>2021-07-09T11:02:42+0200</time>
      </trkpt>
      <trkpt lat="45.00318" lon="3.17876">
        <ele>883.073443</ele>
        <time>2021-07-09T11:02:44+0200</time>
      </trkpt>
      <trkpt lat="45.00314" lon="3.1788">
        <ele>882.318149</ele>
        <time>2021-07-09T11:02:45+0200</time>
      </trkpt>
      <trkpt lat="45.00308" lon="3.17889">
        <ele>882.119499</ele>
        <time>2021-07-09T11:02:47+0200</time>
      </trkpt>
      <trkpt lat="45.00305" lon="3.17894">
        <ele>881.409852</ele>
        <time>2021-07-09T11:02:48+0200</time>
      </trkpt>
      <trkpt lat="45.00298" lon="3.17903">
        <ele>881.098998</ele>
        <time>2021-07-09T11:02:50+0200</time>
      </trkpt>
      <trkpt lat="45.00294" lon="3.17907">
        <ele>880.964951</ele>
        <time>2021-07-09T11:02:51+0200</time>
      </trkpt>
      <trkpt lat="45.00291" lon="3.17912">
        <ele>880.877584</ele>
        <time>2021-07-09T11:02:52+0200</time>
      </trkpt>
      <trkpt lat="45.00287" lon="3.17916">
        <ele>880.148554</ele>
        <time>2021-07-09T11:02:53+0200</time>
      </trkpt>
      <trkpt lat="45.00283" lon="3.1792">
        <ele>879.634618</ele>
        <time>2021-07-09T11:02:54+0200</time>
      </trkpt>
      <trkpt lat="45.00279" lon="3.17924">
        <ele>879.329736</ele>
        <time>2021-07-09T11:02:55+0200</time>
      </trkpt>
      <trkpt lat="45.00275" lon="3.17928">
        <ele>878.804951</ele>
        <time>2021-07-09T11:02:56+0200</time>
      </trkpt>
      <trkpt lat="45.00272" lon="3.17933">
        <ele>878.920459</ele>
        <time>2021-07-09T11:02:57+0200</time>
      </trkpt>
      <trkpt lat="45.00268" lon="3.17937">
        <ele>878.73951</ele>
        <time>2021-07-09T11:02:58+0200</time>
      </trkpt>
      <trkpt lat="45.00264" lon="3.17941">
        <ele>877.876041</ele>
        <time>2021-07-09T11:02:59+0200</time>
      </trkpt>
      <trkpt lat="45.00259" lon="3.1795">
        <ele>878.052503</ele>
        <time>2021-07-09T11:03:01+0200</time>
      </trkpt>
      <trkpt lat="45.00252" lon="3.17958">
        <ele>877.690119</ele>
        <time>2021-07-09T11:03:03+0200</time>
      </trkpt>
      <trkpt lat="45.00248" lon="3.17962">
        <ele>877.623702</ele>
        <time>2021-07-09T11:03:04+0200</time>
      </trkpt>
      <trkpt lat="45.00244" lon="3.17967">
        <ele>877.275259</ele>
        <time>2021-07-09T11:03:05+0200</time>
      </trkpt>
      <trkpt lat="45.0024" lon="3.17972">
        <ele>876.833777</ele>
        <time>2021-07-09T11:03:06+0200</time>
      </trkpt>
      <trkpt lat="45.00236" lon="3.17977">
        <ele>876.28581</ele>
        <time>2021-07-09T11:03:07+0200</time>
      </trkpt>
      <trkpt lat="45.00232" lon="3.17983">
        <ele>876.244652</ele>
        <time>2021-07-09T11:03:08+0200</time>
      </trkpt>
      <trkpt lat="45.00227" lon="3.17988">
        <ele>876.041173</ele>
        <time>2021-07-09T11:03:09+0200</time>
      </trkpt>
      <trkpt lat="45.00223" lon="3.17993">
        <ele>876.136298</ele>
        <time>2021-07-09T11:03:10+0200</time>
      </trkpt>
      <trkpt lat="45.00219" lon="3.17999">
        <ele>875.850838</ele>
        <time>2021-07-09T11:03:11+0200</time>
      </trkpt>
      <trkpt lat="45.00214" lon="3.18005">
        <ele>875.719071</ele>
        <time>2021-07-09T11:03:12+0200</time>
      </trkpt>
      <trkpt lat="45.00208" lon="3.1801">
        <ele>875.252664</ele>
        <time>2021-07-09T11:03:13+0200</time>
      </trkpt>
      <trkpt lat="45.00203" lon="3.18016">
        <ele>874.902404</ele>
        <time>2021-07-09T11:03:14+0200</time>
      </trkpt>
      <trkpt lat="45.00198" lon="3.18024">
        <ele>874.903532</ele>
        <time>2021-07-09T11:03:15+0200</time>
      </trkpt>
      <trkpt lat="45.00194" lon="3.18032">
        <ele>874.587587</ele>
        <time>2021-07-09T11:03:16+0200</time>
      </trkpt>
      <trkpt lat="45.00189" lon="3.1804">
        <ele>874.920161</ele>
        <time>2021-07-09T11:03:17+0200</time>
      </trkpt>
      <trkpt lat="45.00185" lon="3.18049">
        <ele>875.544921</ele>
        <time>2021-07-09T11:03:18+0200</time>
      </trkpt>
      <trkpt lat="45.0018" lon="3.1806">
        <ele>875.338183</ele>
        <time>2021-07-09T11:03:19+0200</time>
      </trkpt>
      <trkpt lat="45.00176" lon="3.18071">
        <ele>874.893892</ele>
        <time>2021-07-09T11:03:20+0200</time>
      </trkpt>
      <trkpt lat="45.00172" lon="3.18082">
        <ele>874.564556</ele>
        <time>2021-07-09T11:03:21+0200</time>
      </trkpt>
      <trkpt lat="45.00169" lon="3.18094">
        <ele>874.957204</ele>
        <time>2021-07-09T11:03:22+0200</time>
      </trkpt>
      <trkpt lat="45.00164" lon="3.18105">
        <ele>875.026201</ele>
        <time>2021-07-09T11:03:23+0200</time>
      </trkpt>
      <trkpt lat="45.00159" lon="3.18114">
        <ele>872.89289</ele>
        <time>2021-07-09T11:03:24+0200</time>
      </trkpt>
      <trkpt lat="45.00154" lon="3.18125">
        <ele>871.584594</ele>
        <time>2021-07-09T11:03:25+0200</time>
      </trkpt>
      <trkpt lat="45.0015" lon="3.18135">
        <ele>870.350527</ele>
        <time>2021-07-09T11:03:26+0200</time>
      </trkpt>
      <trkpt lat="45.00146" lon="3.18146">
        <ele>870.000731</ele>
        <time>2021-07-09T11:03:27+0200</time>
      </trkpt>
      <trkpt lat="45.00143" lon="3.18157">
        <ele>869.487016</ele>
        <time>2021-07-09T11:03:28+0200</time>
      </trkpt>
      <trkpt lat="45.0014" lon="3.18167">
        <ele>868.970551</ele>
        <time>2021-07-09T11:03:29+0200</time>
      </trkpt>
      <trkpt lat="45.00136" lon="3.18178">
        <ele>867.810524</ele>
        <time>2021-07-09T11:03:30+0200</time>
      </trkpt>
      <trkpt lat="45.00133" lon="3.18188">
        <ele>867.262582</ele>
        <time>2021-07-09T11:03:31+0200</time>
      </trkpt>
      <trkpt lat="45.0013" lon="3.18197">
        <ele>866.678376</ele>
        <time>2021-07-09T11:03:32+0200</time>
      </trkpt>
      <trkpt lat="45.00127" lon="3.18206">
        <ele>866.067321</ele>
        <time>2021-07-09T11:03:33+0200</time>
      </trkpt>
      <trkpt lat="45.00124" lon="3.18214">
        <ele>865.224123</ele>
        <time>2021-07-09T11:03:34+0200</time>
      </trkpt>
      <trkpt lat="45.00121" lon="3.18222">
        <ele>864.58494</ele>
        <time>2021-07-09T11:03:35+0200</time>
      </trkpt>
      <trkpt lat="45.00118" lon="3.18231">
        <ele>863.799084</ele>
        <time>2021-07-09T11:03:36+0200</time>
      </trkpt>
      <trkpt lat="45.00116" lon="3.1824">
        <ele>863.360015</ele>
        <time>2021-07-09T11:03:37+0200</time>
      </trkpt>
      <trkpt lat="45.00113" lon="3.18248">
        <ele>863.078252</ele>
        <time>2021-07-09T11:03:38+0200</time>
      </trkpt>
      <trkpt lat="45.0011" lon="3.18256">
        <ele>862.65274</ele>
        <time>2021-07-09T11:03:39+0200</time>
      </trkpt>
      <trkpt lat="45.00107" lon="3.18264">
        <ele>862.095295</ele>
        <time>2021-07-09T11:03:40+0200</time>
      </trkpt>
      <trkpt lat="45.00104" lon="3.18272">
        <ele>861.777438</ele>
        <time>2021-07-09T11:03:41+0200</time>
      </trkpt>
      <trkpt lat="45.00102" lon="3.1828">
        <ele>861.543728</ele>
        <time>2021-07-09T11:03:42+0200</time>
      </trkpt>
      <trkpt lat="45.00099" lon="3.18288">
        <ele>861.047845</ele>
        <time>2021-07-09T11:03:43+0200</time>
      </trkpt>
      <trkpt lat="45.00096" lon="3.18297">
        <ele>860.732549</ele>
        <time>2021-07-09T11:03:44+0200</time>
      </trkpt>
      <trkpt lat="45.00093" lon="3.18306">
        <ele>860.305891</ele>
        <time>2021-07-09T11:03:45+0200</time>
      </trkpt>
      <trkpt lat="45.0009" lon="3.18315">
        <ele>859.763744</ele>
        <time>2021-07-09T11:03:46+0200</time>
      </trkpt>
      <trkpt lat="45.00087" lon="3.18324">
        <ele>858.908374</ele>
        <time>2021-07-09T11:03:47+0200</time>
      </trkpt>
      <trkpt lat="45.00084" lon="3.18334">
        <ele>858.496614</ele>
        <time>2021-07-09T11:03:48+0200</time>
      </trkpt>
      <trkpt lat="45.00081" lon="3.18343">
        <ele>858.056943</ele>
        <time>2021-07-09T11:03:49+0200</time>
      </trkpt>
      <trkpt lat="45.00078" lon="3.18352">
        <ele>858.228325</ele>
        <time>2021-07-09T11:03:50+0200</time>
      </trkpt>
      <trkpt lat="45.00075" lon="3.18362">
        <ele>857.917789</ele>
        <time>2021-07-09T11:03:51+0200</time>
      </trkpt>
      <trkpt lat="45.00073" lon="3.18371">
        <ele>857.48705</ele>
        <time>2021-07-09T11:03:52+0200</time>
      </trkpt>
      <trkpt lat="45.0007" lon="3.18381">
        <ele>857.328041</ele>
        <time>2021-07-09T11:03:53+0200</time>
      </trkpt>
      <trkpt lat="45.00068" lon="3.1839">
        <ele>857.204855</ele>
        <time>2021-07-09T11:03:54+0200</time>
      </trkpt>
      <trkpt lat="45.00065" lon="3.18398">
        <ele>857.038207</ele>
        <time>2021-07-09T11:03:55+0200</time>
      </trkpt>
      <trkpt lat="45.00062" lon="3.18406">
        <ele>856.982198</ele>
        <time>2021-07-09T11:03:56+0200</time>
      </trkpt>
      <trkpt lat="45.0006" lon="3.18414">
        <ele>856.953365</ele>
        <time>2021-07-09T11:03:57+0200</time>
      </trkpt>
      <trkpt lat="45.00058" lon="3.18422">
        <ele>857.204016</ele>
        <time>2021-07-09T11:03:58+0200</time>
      </trkpt>
      <trkpt lat="45.00055" lon="3.18429">
        <ele>856.89798</ele>
        <time>2021-07-09T11:03:59+0200</time>
      </trkpt>
      <trkpt lat="45.00052" lon="3.18436">
        <ele>856.71316</ele>
        <time>2021-07-09T11:04:00+0200</time>
      </trkpt>
      <trkpt lat="45.00048" lon="3.18444">
        <ele>856.458525</ele>
        <time>2021-07-09T11:04:01+0200</time>
      </trkpt>
      <trkpt lat="45.00045" lon="3.18451">
        <ele>856.508749</ele>
        <time>2021-07-09T11:04:02+0200</time>
      </trkpt>
      <trkpt lat="45.00043" lon="3.18458">
        <ele>857.05907</ele>
        <time>2021-07-09T11:04:03+0200</time>
      </trkpt>
      <trkpt lat="45.00039" lon="3.18463">
        <ele>856.104629</ele>
        <time>2021-07-09T11:04:04+0200</time>
      </trkpt>
      <trkpt lat="45.00036" lon="3.18469">
        <ele>855.606832</ele>
        <time>2021-07-09T11:04:05+0200</time>
      </trkpt>
      <trkpt lat="45.00032" lon="3.18476">
        <ele>854.978593</ele>
        <time>2021-07-09T11:04:06+0200</time>
      </trkpt>
      <trkpt lat="45.00029" lon="3.18481">
        <ele>854.626651</ele>
        <time>2021-07-09T11:04:07+0200</time>
      </trkpt>
      <trkpt lat="45.00026" lon="3.18487">
        <ele>854.514575</ele>
        <time>2021-07-09T11:04:08+0200</time>
      </trkpt>
      <trkpt lat="45.00023" lon="3.18493">
        <ele>853.929118</ele>
        <time>2021-07-09T11:04:09+0200</time>
      </trkpt>
      <trkpt lat="45.00019" lon="3.185">
        <ele>853.81736</ele>
        <time>2021-07-09T11:04:10+0200</time>
      </trkpt>
      <trkpt lat="45.00016" lon="3.18506">
        <ele>853.611421</ele>
        <time>2021-07-09T11:04:11+0200</time>
      </trkpt>
      <trkpt lat="45.00013" lon="3.18513">
        <ele>853.518264</ele>
        <time>2021-07-09T11:04:12+0200</time>
      </trkpt>
      <trkpt lat="45.0001" lon="3.1852">
        <ele>853.143755</ele>
        <time>2021-07-09T11:04:13+0200</time>
      </trkpt>
      <trkpt lat="45.00008" lon="3.18527">
        <ele>852.7609</ele>
        <time>2021-07-09T11:04:14+0200</time>
      </trkpt>
      <trkpt lat="45.00005" lon="3.18534">
        <ele>852.490362</ele>
        <time>2021-07-09T11:04:15+0200</time>
      </trkpt>
      <trkpt lat="45.00001" lon="3.1854">
        <ele>852.258224</ele>
        <time>2021-07-09T11:04:16+0200</time>
      </trkpt>
      <trkpt lat="44.99998" lon="3.18546">
        <ele>851.744085</ele>
        <time>2021-07-09T11:04:17+0200</time>
      </trkpt>
      <trkpt lat="44.99995" lon="3.18554">
        <ele>850.858646</ele>
        <time>2021-07-09T11:04:18+0200</time>
      </trkpt>
      <trkpt lat="44.99992" lon="3.18561">
        <ele>850.784349</ele>
        <time>2021-07-09T11:04:19+0200</time>
      </trkpt>
      <trkpt lat="44.9999" lon="3.18568">
        <ele>850.813754</ele>
        <time>2021-07-09T11:04:20+0200</time>
      </trkpt>
      <trkpt lat="44.99988" lon="3.18575">
        <ele>850.793466</ele>
        <time>2021-07-09T11:04:21+0200</time>
      </trkpt>
      <trkpt lat="44.99984" lon="3.18582">
        <ele>850.47851</ele>
        <time>2021-07-09T11:04:22+0200</time>
      </trkpt>
      <trkpt lat="44.99981" lon="3.18589">
        <ele>850.085647</ele>
        <time>2021-07-09T11:04:23+0200</time>
      </trkpt>
      <trkpt lat="44.99979" lon="3.18596">
        <ele>849.911264</ele>
        <time>2021-07-09T11:04:24+0200</time>
      </trkpt>
      <trkpt lat="44.99977" lon="3.18603">
        <ele>849.59489</ele>
        <time>2021-07-09T11:04:25+0200</time>
      </trkpt>
      <trkpt lat="44.99973" lon="3.18611">
        <ele>849.233413</ele>
        <time>2021-07-09T11:04:26+0200</time>
      </trkpt>
      <trkpt lat="44.9997" lon="3.18618">
        <ele>848.77773</ele>
        <time>2021-07-09T11:04:27+0200</time>
      </trkpt>
      <trkpt lat="44.99967" lon="3.18626">
        <ele>848.353372</ele>
        <time>2021-07-09T11:04:28+0200</time>
      </trkpt>
      <trkpt lat="44.99964" lon="3.18633">
        <ele>848.379485</ele>
        <time>2021-07-09T11:04:29+0200</time>
      </trkpt>
      <trkpt lat="44.99962" lon="3.1864">
        <ele>847.970765</ele>
        <time>2021-07-09T11:04:30+0200</time>
      </trkpt>
      <trkpt lat="44.9996" lon="3.18648">
        <ele>847.453449</ele>
        <time>2021-07-09T11:04:31+0200</time>
      </trkpt>
      <trkpt lat="44.99958" lon="3.18655">
        <ele>847.295535</ele>
        <time>2021-07-09T11:04:32+0200</time>
      </trkpt>
      <trkpt lat="44.99955" lon="3.18661">
        <ele>847.17175</ele>
        <time>2021-07-09T11:04:33+0200</time>
      </trkpt>
      <trkpt lat="44.99952" lon="3.18668">
        <ele>847.25159</ele>
        <time>2021-07-09T11:04:34+0200</time>
      </trkpt>
      <trkpt lat="44.99949" lon="3.18675">
        <ele>846.971136</ele>
        <time>2021-07-09T11:04:35+0200</time>
      </trkpt>
      <trkpt lat="44.99946" lon="3.18681">
        <ele>847.07006</ele>
        <time>2021-07-09T11:04:36+0200</time>
      </trkpt>
      <trkpt lat="44.99943" lon="3.18688">
        <ele>846.82874</ele>
        <time>2021-07-09T11:04:37+0200</time>
      </trkpt>
      <trkpt lat="44.99941" lon="3.18694">
        <ele>846.979898</ele>
        <time>2021-07-09T11:04:38+0200</time>
      </trkpt>
      <trkpt lat="44.99938" lon="3.187">
        <ele>846.814266</ele>
        <time>2021-07-09T11:04:39+0200</time>
      </trkpt>
      <trkpt lat="44.99935" lon="3.18706">
        <ele>846.545194</ele>
        <time>2021-07-09T11:04:40+0200</time>
      </trkpt>
      <trkpt lat="44.99932" lon="3.18712">
        <ele>846.654295</ele>
        <time>2021-07-09T11:04:41+0200</time>
      </trkpt>
      <trkpt lat="44.99929" lon="3.18717">
        <ele>846.78376</ele>
        <time>2021-07-09T11:04:42+0200</time>
      </trkpt>
      <trkpt lat="44.99923" lon="3.18725">
        <ele>846.812254</ele>
        <time>2021-07-09T11:04:44+0200</time>
      </trkpt>
      <trkpt lat="44.99916" lon="3.18733">
        <ele>846.577228</ele>
        <time>2021-07-09T11:04:46+0200</time>
      </trkpt>
      <trkpt lat="44.99911" lon="3.18739">
        <ele>846.795283</ele>
        <time>2021-07-09T11:04:48+0200</time>
      </trkpt>
      <trkpt lat="44.99904" lon="3.18746">
        <ele>846.935296</ele>
        <time>2021-07-09T11:04:50+0200</time>
      </trkpt>
      <trkpt lat="44.99898" lon="3.18753">
        <ele>847.322394</ele>
        <time>2021-07-09T11:04:52+0200</time>
      </trkpt>
      <trkpt lat="44.99892" lon="3.18759">
        <ele>848.040465</ele>
        <time>2021-07-09T11:04:54+0200</time>
      </trkpt>
      <trkpt lat="44.99887" lon="3.18763">
        <ele>847.934612</ele>
        <time>2021-07-09T11:04:56+0200</time>
      </trkpt>
      <trkpt lat="44.9988" lon="3.18766">
        <ele>848.187749</ele>
        <time>2021-07-09T11:04:58+0200</time>
      </trkpt>
      <trkpt lat="44.99875" lon="3.18772">
        <ele>848.591445</ele>
        <time>2021-07-09T11:05:00+0200</time>
      </trkpt>
      <trkpt lat="44.99869" lon="3.18775">
        <ele>848.583268</ele>
        <time>2021-07-09T11:05:02+0200</time>
      </trkpt>
      <trkpt lat="44.99862" lon="3.18778">
        <ele>848.632525</ele>
        <time>2021-07-09T11:05:04+0200</time>
      </trkpt>
      <trkpt lat="44.99857" lon="3.18783">
        <ele>849.306647</ele>
        <time>2021-07-09T11:05:06+0200</time>
      </trkpt>
      <trkpt lat="44.99852" lon="3.18789">
        <ele>849.604344</ele>
        <time>2021-07-09T11:05:08+0200</time>
      </trkpt>
      <trkpt lat="44.99847" lon="3.18793">
        <ele>849.265541</ele>
        <time>2021-07-09T11:05:10+0200</time>
      </trkpt>
      <trkpt lat="44.99843" lon="3.18799">
        <ele>850.208007</ele>
        <time>2021-07-09T11:05:12+0200</time>
      </trkpt>
      <trkpt lat="44.99839" lon="3.18802">
        <ele>850.29867</ele>
        <time>2021-07-09T11:05:14+0200</time>
      </trkpt>
      <trkpt lat="44.99834" lon="3.18802">
        <ele>849.9248</ele>
        <time>2021-07-09T11:05:17+0200</time>
      </trkpt>
      <trkpt lat="44.99832" lon="3.18796">
        <ele>849.254937</ele>
        <time>2021-07-09T11:05:19+0200</time>
      </trkpt>
      <trkpt lat="44.99826" lon="3.1879">
        <ele>848.862511</ele>
        <time>2021-07-09T11:05:21+0200</time>
      </trkpt>
      <trkpt lat="44.99821" lon="3.18788">
        <ele>848.46079</ele>
        <time>2021-07-09T11:05:23+0200</time>
      </trkpt>
      <trkpt lat="44.99814" lon="3.18789">
        <ele>847.817134</ele>
        <time>2021-07-09T11:05:25+0200</time>
      </trkpt>
      <trkpt lat="44.99807" lon="3.18792">
        <ele>847.295556</ele>
        <time>2021-07-09T11:05:27+0200</time>
      </trkpt>
      <trkpt lat="44.99799" lon="3.18795">
        <ele>847.235482</ele>
        <time>2021-07-09T11:05:29+0200</time>
      </trkpt>
      <trkpt lat="44.99793" lon="3.188">
        <ele>846.415518</ele>
        <time>2021-07-09T11:05:31+0200</time>
      </trkpt>
      <trkpt lat="44.99787" lon="3.18801">
        <ele>844.821989</ele>
        <time>2021-07-09T11:13:15+0200</time>
      </trkpt>
      <trkpt lat="44.99782" lon="3.18806">
        <ele>843.865004</ele>
        <time>2021-07-09T11:13:19+0200</time>
      </trkpt>
      <trkpt lat="44.99777" lon="3.18808">
        <ele>843.676971</ele>
        <time>2021-07-09T11:13:21+0200</time>
      </trkpt>
      <trkpt lat="44.99772" lon="3.18811">
        <ele>843.468872</ele>
        <time>2021-07-09T11:13:23+0200</time>
      </trkpt>
      <trkpt lat="44.99764" lon="3.18811">
        <ele>843.285143</ele>
        <time>2021-07-09T11:13:25+0200</time>
      </trkpt>
      <trkpt lat="44.99757" lon="3.18816">
        <ele>843.158355</ele>
        <time>2021-07-09T11:13:27+0200</time>
      </trkpt>
      <trkpt lat="44.99752" lon="3.18818">
        <ele>842.884006</ele>
        <time>2021-07-09T11:13:28+0200</time>
      </trkpt>
      <trkpt lat="44.99747" lon="3.1882">
        <ele>842.517473</ele>
        <time>2021-07-09T11:13:29+0200</time>
      </trkpt>
      <trkpt lat="44.99741" lon="3.18822">
        <ele>842.190468</ele>
        <time>2021-07-09T11:13:30+0200</time>
      </trkpt>
      <trkpt lat="44.99735" lon="3.18823">
        <ele>842.00946</ele>
        <time>2021-07-09T11:13:31+0200</time>
      </trkpt>
      <trkpt lat="44.99728" lon="3.18824">
        <ele>841.737181</ele>
        <time>2021-07-09T11:13:32+0200</time>
      </trkpt>
      <trkpt lat="44.99722" lon="3.18826">
        <ele>841.588145</ele>
        <time>2021-07-09T11:13:33+0200</time>
      </trkpt>
      <trkpt lat="44.99715" lon="3.18828">
        <ele>840.830745</ele>
        <time>2021-07-09T11:13:34+0200</time>
      </trkpt>
      <trkpt lat="44.99707" lon="3.18829">
        <ele>840.394758</ele>
        <time>2021-07-09T11:13:35+0200</time>
      </trkpt>
      <trkpt lat="44.99699" lon="3.18829">
        <ele>839.968353</ele>
        <time>2021-07-09T11:13:36+0200</time>
      </trkpt>
      <trkpt lat="44.99691" lon="3.1883">
        <ele>839.07878</ele>
        <time>2021-07-09T11:13:37+0200</time>
      </trkpt>
      <trkpt lat="44.99683" lon="3.1883">
        <ele>838.419693</ele>
        <time>2021-07-09T11:13:38+0200</time>
      </trkpt>
      <trkpt lat="44.99673" lon="3.18831">
        <ele>837.401018</ele>
        <time>2021-07-09T11:13:39+0200</time>
      </trkpt>
      <trkpt lat="44.99663" lon="3.18833">
        <ele>837.228674</ele>
        <time>2021-07-09T11:13:40+0200</time>
      </trkpt>
      <trkpt lat="44.99655" lon="3.18837">
        <ele>836.823624</ele>
        <time>2021-07-09T11:13:41+0200</time>
      </trkpt>
      <trkpt lat="44.99646" lon="3.18842">
        <ele>835.906188</ele>
        <time>2021-07-09T11:13:42+0200</time>
      </trkpt>
      <trkpt lat="44.99638" lon="3.18849">
        <ele>835.450971</ele>
        <time>2021-07-09T11:13:43+0200</time>
      </trkpt>
      <trkpt lat="44.9963" lon="3.18853">
        <ele>834.392726</ele>
        <time>2021-07-09T11:13:44+0200</time>
      </trkpt>
      <trkpt lat="44.9962" lon="3.18857">
        <ele>833.819487</ele>
        <time>2021-07-09T11:13:45+0200</time>
      </trkpt>
      <trkpt lat="44.99612" lon="3.18863">
        <ele>833.716727</ele>
        <time>2021-07-09T11:13:46+0200</time>
      </trkpt>
      <trkpt lat="44.99604" lon="3.18874">
        <ele>833.718873</ele>
        <time>2021-07-09T11:13:47+0200</time>
      </trkpt>
      <trkpt lat="44.99599" lon="3.18884">
        <ele>833.832457</ele>
        <time>2021-07-09T11:13:48+0200</time>
      </trkpt>
      <trkpt lat="44.99596" lon="3.18894">
        <ele>834.705103</ele>
        <time>2021-07-09T11:13:49+0200</time>
      </trkpt>
      <trkpt lat="44.99593" lon="3.18903">
        <ele>835.286471</ele>
        <time>2021-07-09T11:13:50+0200</time>
      </trkpt>
      <trkpt lat="44.99591" lon="3.18911">
        <ele>835.506567</ele>
        <time>2021-07-09T11:13:51+0200</time>
      </trkpt>
      <trkpt lat="44.99588" lon="3.18919">
        <ele>835.966747</ele>
        <time>2021-07-09T11:13:52+0200</time>
      </trkpt>
      <trkpt lat="44.99584" lon="3.18927">
        <ele>836.401575</ele>
        <time>2021-07-09T11:13:53+0200</time>
      </trkpt>
      <trkpt lat="44.99582" lon="3.18934">
        <ele>836.853793</ele>
        <time>2021-07-09T11:13:54+0200</time>
      </trkpt>
      <trkpt lat="44.9958" lon="3.18942">
        <ele>836.37438</ele>
        <time>2021-07-09T11:13:55+0200</time>
      </trkpt>
      <trkpt lat="44.99579" lon="3.18951">
        <ele>836.267922</ele>
        <time>2021-07-09T11:13:56+0200</time>
      </trkpt>
      <trkpt lat="44.99577" lon="3.18962">
        <ele>835.234421</ele>
        <time>2021-07-09T11:13:57+0200</time>
      </trkpt>
      <trkpt lat="44.99577" lon="3.18973">
        <ele>834.81853</ele>
        <time>2021-07-09T11:13:58+0200</time>
      </trkpt>
      <trkpt lat="44.99576" lon="3.18984">
        <ele>834.195254</ele>
        <time>2021-07-09T11:13:59+0200</time>
      </trkpt>
      <trkpt lat="44.99574" lon="3.18995">
        <ele>833.811675</ele>
        <time>2021-07-09T11:14:00+0200</time>
      </trkpt>
      <trkpt lat="44.99571" lon="3.19006">
        <ele>833.268321</ele>
        <time>2021-07-09T11:14:01+0200</time>
      </trkpt>
      <trkpt lat="44.99565" lon="3.19018">
        <ele>832.232974</ele>
        <time>2021-07-09T11:14:02+0200</time>
      </trkpt>
      <trkpt lat="44.99559" lon="3.19029">
        <ele>831.440212</ele>
        <time>2021-07-09T11:14:03+0200</time>
      </trkpt>
      <trkpt lat="44.99552" lon="3.19041">
        <ele>830.461437</ele>
        <time>2021-07-09T11:14:04+0200</time>
      </trkpt>
      <trkpt lat="44.99545" lon="3.19053">
        <ele>829.723062</ele>
        <time>2021-07-09T11:14:05+0200</time>
      </trkpt>
      <trkpt lat="44.99537" lon="3.19064">
        <ele>828.705062</ele>
        <time>2021-07-09T11:14:06+0200</time>
      </trkpt>
      <trkpt lat="44.99529" lon="3.19076">
        <ele>827.3801</ele>
        <time>2021-07-09T11:14:07+0200</time>
      </trkpt>
      <trkpt lat="44.99521" lon="3.19088">
        <ele>825.269215</ele>
        <time>2021-07-09T11:14:08+0200</time>
      </trkpt>
      <trkpt lat="44.99512" lon="3.191">
        <ele>823.618202</ele>
        <time>2021-07-09T11:14:09+0200</time>
      </trkpt>
      <trkpt lat="44.99503" lon="3.19113">
        <ele>821.246643</ele>
        <time>2021-07-09T11:14:10+0200</time>
      </trkpt>
      <trkpt lat="44.99494" lon="3.19125">
        <ele>819.666692</ele>
        <time>2021-07-09T11:14:11+0200</time>
      </trkpt>
      <trkpt lat="44.99484" lon="3.1914">
        <ele>817.958488</ele>
        <time>2021-07-09T11:14:12+0200</time>
      </trkpt>
      <trkpt lat="44.99476" lon="3.19155">
        <ele>816.129987</ele>
        <time>2021-07-09T11:14:13+0200</time>
      </trkpt>
      <trkpt lat="44.99468" lon="3.19171">
        <ele>814.100647</ele>
        <time>2021-07-09T11:14:14+0200</time>
      </trkpt>
      <trkpt lat="44.9946" lon="3.19188">
        <ele>812.852684</ele>
        <time>2021-07-09T11:14:15+0200</time>
      </trkpt>
      <trkpt lat="44.99449" lon="3.19202">
        <ele>812.271011</ele>
        <time>2021-07-09T11:14:16+0200</time>
      </trkpt>
      <trkpt lat="44.99439" lon="3.19214">
        <ele>811.663673</ele>
        <time>2021-07-09T11:14:17+0200</time>
      </trkpt>
      <trkpt lat="44.9943" lon="3.19227">
        <ele>810.836582</ele>
        <time>2021-07-09T11:14:18+0200</time>
      </trkpt>
      <trkpt lat="44.99421" lon="3.19239">
        <ele>810.65674</ele>
        <time>2021-07-09T11:14:19+0200</time>
      </trkpt>
      <trkpt lat="44.99413" lon="3.19251">
        <ele>810.253659</ele>
        <time>2021-07-09T11:14:20+0200</time>
      </trkpt>
      <trkpt lat="44.99406" lon="3.19263">
        <ele>810.698806</ele>
        <time>2021-07-09T11:14:21+0200</time>
      </trkpt>
      <trkpt lat="44.994" lon="3.19275">
        <ele>810.928589</ele>
        <time>2021-07-09T11:14:22+0200</time>
      </trkpt>
      <trkpt lat="44.99396" lon="3.19286">
        <ele>812.091792</ele>
        <time>2021-07-09T11:14:23+0200</time>
      </trkpt>
      <trkpt lat="44.99394" lon="3.19296">
        <ele>813.694611</ele>
        <time>2021-07-09T11:14:24+0200</time>
      </trkpt>
      <trkpt lat="44.99392" lon="3.19305">
        <ele>815.419551</ele>
        <time>2021-07-09T11:14:25+0200</time>
      </trkpt>
      <trkpt lat="44.9939" lon="3.19312">
        <ele>816.178768</ele>
        <time>2021-07-09T11:14:26+0200</time>
      </trkpt>
      <trkpt lat="44.9939" lon="3.19319">
        <ele>816.841487</ele>
        <time>2021-07-09T11:14:27+0200</time>
      </trkpt>
      <trkpt lat="44.99391" lon="3.19326">
        <ele>820.586921</ele>
        <time>2021-07-09T11:14:32+0200</time>
      </trkpt>
      <trkpt lat="44.99387" lon="3.19322">
        <ele>826.402773</ele>
        <time>2021-07-09T11:14:56+0200</time>
      </trkpt>
      <trkpt lat="44.99388" lon="3.1933">
        <ele>825.847968</ele>
        <time>2021-07-09T11:15:08+0200</time>
      </trkpt>
      <trkpt lat="44.99388" lon="3.19337">
        <ele>827.409638</ele>
        <time>2021-07-09T11:15:11+0200</time>
      </trkpt>
      <trkpt lat="44.99384" lon="3.19346">
        <ele>828.732992</ele>
        <time>2021-07-09T11:15:14+0200</time>
      </trkpt>
      <trkpt lat="44.99382" lon="3.19354">
        <ele>829.251135</ele>
        <time>2021-07-09T11:15:16+0200</time>
      </trkpt>
      <trkpt lat="44.9938" lon="3.19363">
        <ele>829.089601</ele>
        <time>2021-07-09T11:15:18+0200</time>
      </trkpt>
      <trkpt lat="44.99378" lon="3.1937">
        <ele>829.805977</ele>
        <time>2021-07-09T11:15:22+0200</time>
      </trkpt>
      <trkpt lat="44.99375" lon="3.19375">
        <ele>830.244432</ele>
        <time>2021-07-09T11:15:24+0200</time>
      </trkpt>
      <trkpt lat="44.99373" lon="3.19382">
        <ele>831.766843</ele>
        <time>2021-07-09T11:15:26+0200</time>
      </trkpt>
      <trkpt lat="44.99371" lon="3.19389">
        <ele>834.524913</ele>
        <time>2021-07-09T11:15:30+0200</time>
      </trkpt>
      <trkpt lat="44.99367" lon="3.19396">
        <ele>832.698959</ele>
        <time>2021-07-09T11:15:33+0200</time>
      </trkpt>
      <trkpt lat="44.99365" lon="3.19403">
        <ele>833.731768</ele>
        <time>2021-07-09T11:15:36+0200</time>
      </trkpt>
      <trkpt lat="44.99363" lon="3.1941">
        <ele>835.193501</ele>
        <time>2021-07-09T11:15:39+0200</time>
      </trkpt>
      <trkpt lat="44.99361" lon="3.19418">
        <ele>836.788268</ele>
        <time>2021-07-09T11:15:42+0200</time>
      </trkpt>
      <trkpt lat="44.99356" lon="3.19426">
        <ele>838.951492</ele>
        <time>2021-07-09T11:15:45+0200</time>
      </trkpt>
      <trkpt lat="44.99353" lon="3.19432">
        <ele>837.248851</ele>
        <time>2021-07-09T11:15:47+0200</time>
      </trkpt>
      <trkpt lat="44.9935" lon="3.19438">
        <ele>837.220108</ele>
        <time>2021-07-09T11:15:49+0200</time>
      </trkpt>
      <trkpt lat="44.99347" lon="3.19444">
        <ele>836.409594</ele>
        <time>2021-07-09T11:15:51+0200</time>
      </trkpt>
      <trkpt lat="44.99344" lon="3.1945">
        <ele>835.510715</ele>
        <time>2021-07-09T11:15:53+0200</time>
      </trkpt>
      <trkpt lat="44.99342" lon="3.19456">
        <ele>835.667267</ele>
        <time>2021-07-09T11:15:55+0200</time>
      </trkpt>
      <trkpt lat="44.99337" lon="3.19461">
        <ele>835.341057</ele>
        <time>2021-07-09T11:15:57+0200</time>
      </trkpt>
      <trkpt lat="44.99332" lon="3.19467">
        <ele>835.044065</ele>
        <time>2021-07-09T11:15:59+0200</time>
      </trkpt>
      <trkpt lat="44.99328" lon="3.19473">
        <ele>834.514073</ele>
        <time>2021-07-09T11:16:01+0200</time>
      </trkpt>
      <trkpt lat="44.99324" lon="3.19478">
        <ele>834.467725</ele>
        <time>2021-07-09T11:16:03+0200</time>
      </trkpt>
      <trkpt lat="44.9932" lon="3.19484">
        <ele>836.500543</ele>
        <time>2021-07-09T11:16:06+0200</time>
      </trkpt>
      <trkpt lat="44.99318" lon="3.1949">
        <ele>836.414006</ele>
        <time>2021-07-09T11:16:08+0200</time>
      </trkpt>
      <trkpt lat="44.99315" lon="3.19496">
        <ele>836.266938</ele>
        <time>2021-07-09T11:16:10+0200</time>
      </trkpt>
      <trkpt lat="44.99313" lon="3.19502">
        <ele>836.481949</ele>
        <time>2021-07-09T11:16:12+0200</time>
      </trkpt>
      <trkpt lat="44.9931" lon="3.19508">
        <ele>835.676462</ele>
        <time>2021-07-09T11:16:14+0200</time>
      </trkpt>
      <trkpt lat="44.99307" lon="3.19516">
        <ele>835.336001</ele>
        <time>2021-07-09T11:16:17+0200</time>
      </trkpt>
      <trkpt lat="44.99308" lon="3.19525">
        <ele>835.509102</ele>
        <time>2021-07-09T11:16:19+0200</time>
      </trkpt>
      <trkpt lat="44.9931" lon="3.19532">
        <ele>835.219193</ele>
        <time>2021-07-09T11:16:21+0200</time>
      </trkpt>
      <trkpt lat="44.99314" lon="3.19537">
        <ele>834.813639</ele>
        <time>2021-07-09T11:16:24+0200</time>
      </trkpt>
      <trkpt lat="44.99318" lon="3.19541">
        <ele>834.733765</ele>
        <time>2021-07-09T11:16:26+0200</time>
      </trkpt>
      <trkpt lat="44.99321" lon="3.19546">
        <ele>834.114218</ele>
        <time>2021-07-09T11:16:29+0200</time>
      </trkpt>
      <trkpt lat="44.99327" lon="3.19546">
        <ele>834.50755</ele>
        <time>2021-07-09T11:16:31+0200</time>
      </trkpt>
      <trkpt lat="44.99332" lon="3.19548">
        <ele>835.117493</ele>
        <time>2021-07-09T11:16:33+0200</time>
      </trkpt>
      <trkpt lat="44.99336" lon="3.19549">
        <ele>834.62126</ele>
        <time>2021-07-09T11:16:35+0200</time>
      </trkpt>
      <trkpt lat="44.99342" lon="3.1955">
        <ele>834.544994</ele>
        <time>2021-07-09T11:16:37+0200</time>
      </trkpt>
      <trkpt lat="44.99347" lon="3.19552">
        <ele>835.122483</ele>
        <time>2021-07-09T11:16:39+0200</time>
      </trkpt>
      <trkpt lat="44.99353" lon="3.19554">
        <ele>835.231817</ele>
        <time>2021-07-09T11:16:41+0200</time>
      </trkpt>
      <trkpt lat="44.99361" lon="3.19555">
        <ele>835.808348</ele>
        <time>2021-07-09T11:16:43+0200</time>
      </trkpt>
      <trkpt lat="44.99368" lon="3.19556">
        <ele>835.74818</ele>
        <time>2021-07-09T11:16:45+0200</time>
      </trkpt>
      <trkpt lat="44.99377" lon="3.19557">
        <ele>835.511139</ele>
        <time>2021-07-09T11:16:47+0200</time>
      </trkpt>
      <trkpt lat="44.99383" lon="3.1956">
        <ele>837.201063</ele>
        <time>2021-07-09T11:16:49+0200</time>
      </trkpt>
      <trkpt lat="44.99391" lon="3.19561">
        <ele>837.78166</ele>
        <time>2021-07-09T11:16:52+0200</time>
      </trkpt>
      <trkpt lat="44.99399" lon="3.19564">
        <ele>837.407249</ele>
        <time>2021-07-09T11:16:54+0200</time>
      </trkpt>
      <trkpt lat="44.99404" lon="3.19566">
        <ele>836.92596</ele>
        <time>2021-07-09T11:16:55+0200</time>
      </trkpt>
      <trkpt lat="44.99412" lon="3.1957">
        <ele>836.76591</ele>
        <time>2021-07-09T11:16:57+0200</time>
      </trkpt>
      <trkpt lat="44.9942" lon="3.19573">
        <ele>835.939282</ele>
        <time>2021-07-09T11:16:59+0200</time>
      </trkpt>
      <trkpt lat="44.99424" lon="3.19575">
        <ele>835.206579</ele>
        <time>2021-07-09T11:17:00+0200</time>
      </trkpt>
      <trkpt lat="44.99433" lon="3.19579">
        <ele>834.326385</ele>
        <time>2021-07-09T11:17:02+0200</time>
      </trkpt>
      <trkpt lat="44.99441" lon="3.19584">
        <ele>834.190231</ele>
        <time>2021-07-09T11:17:04+0200</time>
      </trkpt>
      <trkpt lat="44.99448" lon="3.1959">
        <ele>833.68484</ele>
        <time>2021-07-09T11:17:06+0200</time>
      </trkpt>
      <trkpt lat="44.99456" lon="3.19596">
        <ele>832.700344</ele>
        <time>2021-07-09T11:17:08+0200</time>
      </trkpt>
      <trkpt lat="44.99463" lon="3.19602">
        <ele>832.043121</ele>
        <time>2021-07-09T11:17:10+0200</time>
      </trkpt>
      <trkpt lat="44.99468" lon="3.19604">
        <ele>831.833191</ele>
        <time>2021-07-09T11:17:11+0200</time>
      </trkpt>
      <trkpt lat="44.99475" lon="3.19606">
        <ele>830.919008</ele>
        <time>2021-07-09T11:17:13+0200</time>
      </trkpt>
      <trkpt lat="44.9948" lon="3.19608">
        <ele>830.523394</ele>
        <time>2021-07-09T11:17:14+0200</time>
      </trkpt>
      <trkpt lat="44.99488" lon="3.19613">
        <ele>829.928387</ele>
        <time>2021-07-09T11:17:16+0200</time>
      </trkpt>
      <trkpt lat="44.99496" lon="3.19616">
        <ele>829.327471</ele>
        <time>2021-07-09T11:17:18+0200</time>
      </trkpt>
      <trkpt lat="44.99504" lon="3.19619">
        <ele>828.316436</ele>
        <time>2021-07-09T11:17:20+0200</time>
      </trkpt>
      <trkpt lat="44.99512" lon="3.19623">
        <ele>827.613931</ele>
        <time>2021-07-09T11:17:22+0200</time>
      </trkpt>
      <trkpt lat="44.99517" lon="3.19626">
        <ele>827.625589</ele>
        <time>2021-07-09T11:17:23+0200</time>
      </trkpt>
      <trkpt lat="44.99521" lon="3.19627">
        <ele>827.826891</ele>
        <time>2021-07-09T11:17:24+0200</time>
      </trkpt>
      <trkpt lat="44.9953" lon="3.1963">
        <ele>828.71773</ele>
        <time>2021-07-09T11:17:26+0200</time>
      </trkpt>
      <trkpt lat="44.99535" lon="3.19631">
        <ele>828.838956</ele>
        <time>2021-07-09T11:17:27+0200</time>
      </trkpt>
      <trkpt lat="44.99539" lon="3.19632">
        <ele>829.0444</ele>
        <time>2021-07-09T11:17:28+0200</time>
      </trkpt>
      <trkpt lat="44.99544" lon="3.19632">
        <ele>828.859282</ele>
        <time>2021-07-09T11:17:29+0200</time>
      </trkpt>
      <trkpt lat="44.99549" lon="3.19633">
        <ele>829.001628</ele>
        <time>2021-07-09T11:17:30+0200</time>
      </trkpt>
      <trkpt lat="44.99558" lon="3.19636">
        <ele>830.218834</ele>
        <time>2021-07-09T11:17:32+0200</time>
      </trkpt>
      <trkpt lat="44.99563" lon="3.19638">
        <ele>831.100861</ele>
        <time>2021-07-09T11:17:33+0200</time>
      </trkpt>
      <trkpt lat="44.99571" lon="3.1964">
        <ele>832.144065</ele>
        <time>2021-07-09T11:17:35+0200</time>
      </trkpt>
      <trkpt lat="44.9958" lon="3.19641">
        <ele>833.72857</ele>
        <time>2021-07-09T11:17:37+0200</time>
      </trkpt>
      <trkpt lat="44.99589" lon="3.19641">
        <ele>833.687979</ele>
        <time>2021-07-09T11:17:39+0200</time>
      </trkpt>
      <trkpt lat="44.99593" lon="3.19641">
        <ele>833.385096</ele>
        <time>2021-07-09T11:17:40+0200</time>
      </trkpt>
      <trkpt lat="44.99598" lon="3.19642">
        <ele>832.775018</ele>
        <time>2021-07-09T11:17:41+0200</time>
      </trkpt>
      <trkpt lat="44.99607" lon="3.19645">
        <ele>833.584925</ele>
        <time>2021-07-09T11:17:43+0200</time>
      </trkpt>
      <trkpt lat="44.99615" lon="3.19645">
        <ele>833.827791</ele>
        <time>2021-07-09T11:17:45+0200</time>
      </trkpt>
      <trkpt lat="44.9962" lon="3.19646">
        <ele>834.408656</ele>
        <time>2021-07-09T11:17:46+0200</time>
      </trkpt>
      <trkpt lat="44.99625" lon="3.19646">
        <ele>834.793506</ele>
        <time>2021-07-09T11:17:47+0200</time>
      </trkpt>
      <trkpt lat="44.9963" lon="3.19646">
        <ele>834.854827</ele>
        <time>2021-07-09T11:17:48+0200</time>
      </trkpt>
      <trkpt lat="44.99634" lon="3.19647">
        <ele>834.863281</ele>
        <time>2021-07-09T11:17:49+0200</time>
      </trkpt>
      <trkpt lat="44.99639" lon="3.19647">
        <ele>835.001839</ele>
        <time>2021-07-09T11:17:50+0200</time>
      </trkpt>
      <trkpt lat="44.99644" lon="3.19648">
        <ele>835.168681</ele>
        <time>2021-07-09T11:17:51+0200</time>
      </trkpt>
      <trkpt lat="44.99648" lon="3.19648">
        <ele>835.225321</ele>
        <time>2021-07-09T11:17:52+0200</time>
      </trkpt>
      <trkpt lat="44.99657" lon="3.19647">
        <ele>834.826352</ele>
        <time>2021-07-09T11:17:54+0200</time>
      </trkpt>
      <trkpt lat="44.99666" lon="3.19647">
        <ele>834.718494</ele>
        <time>2021-07-09T11:17:56+0200</time>
      </trkpt>
      <trkpt lat="44.99675" lon="3.19645">
        <ele>834.310232</ele>
        <time>2021-07-09T11:17:58+0200</time>
      </trkpt>
      <trkpt lat="44.99683" lon="3.19645">
        <ele>834.313062</ele>
        <time>2021-07-09T11:18:00+0200</time>
      </trkpt>
      <trkpt lat="44.9969" lon="3.19646">
        <ele>834.061577</ele>
        <time>2021-07-09T11:18:02+0200</time>
      </trkpt>
      <trkpt lat="44.99696" lon="3.19648">
        <ele>834.764657</ele>
        <time>2021-07-09T11:18:04+0200</time>
      </trkpt>
      <trkpt lat="44.99703" lon="3.19651">
        <ele>835.15793</ele>
        <time>2021-07-09T11:18:06+0200</time>
      </trkpt>
      <trkpt lat="44.99707" lon="3.1966">
        <ele>834.55427</ele>
        <time>2021-07-09T11:18:08+0200</time>
      </trkpt>
      <trkpt lat="44.99706" lon="3.19668">
        <ele>834.150841</ele>
        <time>2021-07-09T11:18:10+0200</time>
      </trkpt>
      <trkpt lat="44.99705" lon="3.19677">
        <ele>834.13723</ele>
        <time>2021-07-09T11:18:13+0200</time>
      </trkpt>
      <trkpt lat="44.99704" lon="3.19685">
        <ele>834.357423</ele>
        <time>2021-07-09T11:18:15+0200</time>
      </trkpt>
      <trkpt lat="44.99703" lon="3.19692">
        <ele>834.092191</ele>
        <time>2021-07-09T11:18:18+0200</time>
      </trkpt>
      <trkpt lat="44.99701" lon="3.19698">
        <ele>834.409335</ele>
        <time>2021-07-09T11:18:20+0200</time>
      </trkpt>
      <trkpt lat="44.99699" lon="3.19704">
        <ele>834.778153</ele>
        <time>2021-07-09T11:18:22+0200</time>
      </trkpt>
      <trkpt lat="44.99697" lon="3.19711">
        <ele>835.046554</ele>
        <time>2021-07-09T11:18:25+0200</time>
      </trkpt>
      <trkpt lat="44.99697" lon="3.19718">
        <ele>835.149768</ele>
        <time>2021-07-09T11:18:30+0200</time>
      </trkpt>
      <trkpt lat="44.99697" lon="3.19726">
        <ele>835.018086</ele>
        <time>2021-07-09T11:18:35+0200</time>
      </trkpt>
      <trkpt lat="44.99701" lon="3.19732">
        <ele>835.635845</ele>
        <time>2021-07-09T11:18:38+0200</time>
      </trkpt>
      <trkpt lat="44.99708" lon="3.19733">
        <ele>836.324538</ele>
        <time>2021-07-09T11:18:41+0200</time>
      </trkpt>
      <trkpt lat="44.99716" lon="3.19738">
        <ele>836.563991</ele>
        <time>2021-07-09T11:18:43+0200</time>
      </trkpt>
      <trkpt lat="44.9972" lon="3.19742">
        <ele>837.636277</ele>
        <time>2021-07-09T11:18:45+0200</time>
      </trkpt>
      <trkpt lat="44.99725" lon="3.19744">
        <ele>837.264081</ele>
        <time>2021-07-09T11:18:47+0200</time>
      </trkpt>
      <trkpt lat="44.99729" lon="3.19749">
        <ele>837.93098</ele>
        <time>2021-07-09T11:18:49+0200</time>
      </trkpt>
      <trkpt lat="44.99736" lon="3.19752">
        <ele>838.177555</ele>
        <time>2021-07-09T11:18:51+0200</time>
      </trkpt>
      <trkpt lat="44.99742" lon="3.19756">
        <ele>837.627704</ele>
        <time>2021-07-09T11:18:53+0200</time>
      </trkpt>
      <trkpt lat="44.99748" lon="3.1976">
        <ele>837.034867</ele>
        <time>2021-07-09T11:18:55+0200</time>
      </trkpt>
      <trkpt lat="44.99753" lon="3.19764">
        <ele>836.961493</ele>
        <time>2021-07-09T11:18:57+0200</time>
      </trkpt>
      <trkpt lat="44.99759" lon="3.19768">
        <ele>837.33164</ele>
        <time>2021-07-09T11:18:59+0200</time>
      </trkpt>
      <trkpt lat="44.99764" lon="3.19771">
        <ele>838.461939</ele>
        <time>2021-07-09T11:19:01+0200</time>
      </trkpt>
      <trkpt lat="44.99771" lon="3.19776">
        <ele>837.682169</ele>
        <time>2021-07-09T11:19:03+0200</time>
      </trkpt>
      <trkpt lat="44.99775" lon="3.19782">
        <ele>837.385297</ele>
        <time>2021-07-09T11:19:05+0200</time>
      </trkpt>
      <trkpt lat="44.99781" lon="3.19788">
        <ele>837.247541</ele>
        <time>2021-07-09T11:19:07+0200</time>
      </trkpt>
      <trkpt lat="44.99786" lon="3.19793">
        <ele>837.611104</ele>
        <time>2021-07-09T11:19:09+0200</time>
      </trkpt>
      <trkpt lat="44.99792" lon="3.19797">
        <ele>837.970716</ele>
        <time>2021-07-09T11:19:11+0200</time>
      </trkpt>
      <trkpt lat="44.99797" lon="3.19802">
        <ele>837.982323</ele>
        <time>2021-07-09T11:19:13+0200</time>
      </trkpt>
      <trkpt lat="44.99802" lon="3.19808">
        <ele>839.55523</ele>
        <time>2021-07-09T11:19:16+0200</time>
      </trkpt>
      <trkpt lat="44.99807" lon="3.19813">
        <ele>840.04309</ele>
        <time>2021-07-09T11:19:18+0200</time>
      </trkpt>
      <trkpt lat="44.99813" lon="3.19817">
        <ele>840.194419</ele>
        <time>2021-07-09T11:19:20+0200</time>
      </trkpt>
      <trkpt lat="44.99817" lon="3.19821">
        <ele>839.806735</ele>
        <time>2021-07-09T11:19:22+0200</time>
      </trkpt>
      <trkpt lat="44.99823" lon="3.19826">
        <ele>840.305223</ele>
        <time>2021-07-09T11:19:24+0200</time>
      </trkpt>
      <trkpt lat="44.99829" lon="3.19829">
        <ele>840.661826</ele>
        <time>2021-07-09T11:19:26+0200</time>
      </trkpt>
      <trkpt lat="44.99834" lon="3.19833">
        <ele>841.877994</ele>
        <time>2021-07-09T11:19:28+0200</time>
      </trkpt>
      <trkpt lat="44.99839" lon="3.19837">
        <ele>842.444735</ele>
        <time>2021-07-09T11:19:30+0200</time>
      </trkpt>
      <trkpt lat="44.99845" lon="3.19841">
        <ele>842.605734</ele>
        <time>2021-07-09T11:19:33+0200</time>
      </trkpt>
      <trkpt lat="44.9985" lon="3.19845">
        <ele>844.705544</ele>
        <time>2021-07-09T11:19:35+0200</time>
      </trkpt>
      <trkpt lat="44.99855" lon="3.1985">
        <ele>845.376413</ele>
        <time>2021-07-09T11:19:37+0200</time>
      </trkpt>
      <trkpt lat="44.9986" lon="3.19853">
        <ele>844.849952</ele>
        <time>2021-07-09T11:19:39+0200</time>
      </trkpt>
      <trkpt lat="44.99865" lon="3.19858">
        <ele>845.337722</ele>
        <time>2021-07-09T11:19:41+0200</time>
      </trkpt>
      <trkpt lat="44.99869" lon="3.19861">
        <ele>845.223748</ele>
        <time>2021-07-09T11:19:43+0200</time>
      </trkpt>
      <trkpt lat="44.99874" lon="3.19865">
        <ele>844.998808</ele>
        <time>2021-07-09T11:19:45+0200</time>
      </trkpt>
      <trkpt lat="44.99879" lon="3.19869">
        <ele>846.687691</ele>
        <time>2021-07-09T11:19:47+0200</time>
      </trkpt>
      <trkpt lat="44.99883" lon="3.19873">
        <ele>846.676926</ele>
        <time>2021-07-09T11:19:49+0200</time>
      </trkpt>
      <trkpt lat="44.99888" lon="3.19877">
        <ele>846.669606</ele>
        <time>2021-07-09T11:19:51+0200</time>
      </trkpt>
      <trkpt lat="44.99892" lon="3.19882">
        <ele>847.734069</ele>
        <time>2021-07-09T11:19:53+0200</time>
      </trkpt>
      <trkpt lat="44.99897" lon="3.19885">
        <ele>847.887303</ele>
        <time>2021-07-09T11:19:55+0200</time>
      </trkpt>
      <trkpt lat="44.99902" lon="3.19889">
        <ele>848.49084</ele>
        <time>2021-07-09T11:19:57+0200</time>
      </trkpt>
      <trkpt lat="44.99906" lon="3.19893">
        <ele>848.289915</ele>
        <time>2021-07-09T11:19:59+0200</time>
      </trkpt>
      <trkpt lat="44.9991" lon="3.19897">
        <ele>848.0235</ele>
        <time>2021-07-09T11:20:01+0200</time>
      </trkpt>
      <trkpt lat="44.99916" lon="3.19902">
        <ele>848.71828</ele>
        <time>2021-07-09T11:20:04+0200</time>
      </trkpt>
      <trkpt lat="44.9992" lon="3.19906">
        <ele>850.051231</ele>
        <time>2021-07-09T11:20:06+0200</time>
      </trkpt>
      <trkpt lat="44.99924" lon="3.1991">
        <ele>850.679811</ele>
        <time>2021-07-09T11:20:08+0200</time>
      </trkpt>
      <trkpt lat="44.99928" lon="3.19916">
        <ele>850.879465</ele>
        <time>2021-07-09T11:20:10+0200</time>
      </trkpt>
      <trkpt lat="44.99932" lon="3.19923">
        <ele>850.058109</ele>
        <time>2021-07-09T11:20:12+0200</time>
      </trkpt>
      <trkpt lat="44.99936" lon="3.19929">
        <ele>849.059824</ele>
        <time>2021-07-09T11:20:14+0200</time>
      </trkpt>
      <trkpt lat="44.99939" lon="3.19935">
        <ele>848.703484</ele>
        <time>2021-07-09T11:20:16+0200</time>
      </trkpt>
      <trkpt lat="44.99942" lon="3.19941">
        <ele>848.794233</ele>
        <time>2021-07-09T11:20:18+0200</time>
      </trkpt>
      <trkpt lat="44.99946" lon="3.19945">
        <ele>849.35527</ele>
        <time>2021-07-09T11:20:20+0200</time>
      </trkpt>
      <trkpt lat="44.99949" lon="3.1995">
        <ele>850.267428</ele>
        <time>2021-07-09T11:20:22+0200</time>
      </trkpt>
      <trkpt lat="44.99952" lon="3.19955">
        <ele>850.753224</ele>
        <time>2021-07-09T11:20:24+0200</time>
      </trkpt>
      <trkpt lat="44.99955" lon="3.19961">
        <ele>850.832108</ele>
        <time>2021-07-09T11:20:26+0200</time>
      </trkpt>
      <trkpt lat="44.99959" lon="3.19968">
        <ele>851.573855</ele>
        <time>2021-07-09T11:20:29+0200</time>
      </trkpt>
      <trkpt lat="44.99961" lon="3.19975">
        <ele>851.008416</ele>
        <time>2021-07-09T11:20:31+0200</time>
      </trkpt>
      <trkpt lat="44.99965" lon="3.19983">
        <ele>852.667052</ele>
        <time>2021-07-09T11:20:34+0200</time>
      </trkpt>
      <trkpt lat="44.99966" lon="3.19989">
        <ele>853.403694</ele>
        <time>2021-07-09T11:20:36+0200</time>
      </trkpt>
      <trkpt lat="44.99968" lon="3.19998">
        <ele>854.738777</ele>
        <time>2021-07-09T11:20:39+0200</time>
      </trkpt>
      <trkpt lat="44.99971" lon="3.20006">
        <ele>855.212055</ele>
        <time>2021-07-09T11:20:42+0200</time>
      </trkpt>
      <trkpt lat="44.99974" lon="3.20012">
        <ele>855.629407</ele>
        <time>2021-07-09T11:20:45+0200</time>
      </trkpt>
      <trkpt lat="44.99978" lon="3.20018">
        <ele>855.574373</ele>
        <time>2021-07-09T11:20:48+0200</time>
      </trkpt>
      <trkpt lat="44.99981" lon="3.20026">
        <ele>856.99929</ele>
        <time>2021-07-09T11:20:51+0200</time>
      </trkpt>
      <trkpt lat="44.99985" lon="3.20032">
        <ele>857.546536</ele>
        <time>2021-07-09T11:20:54+0200</time>
      </trkpt>
      <trkpt lat="44.99989" lon="3.2004">
        <ele>859.334457</ele>
        <time>2021-07-09T11:20:57+0200</time>
      </trkpt>
      <trkpt lat="44.99993" lon="3.20044">
        <ele>858.439078</ele>
        <time>2021-07-09T11:20:59+0200</time>
      </trkpt>
      <trkpt lat="44.99995" lon="3.2005">
        <ele>858.121497</ele>
        <time>2021-07-09T11:21:02+0200</time>
      </trkpt>
      <trkpt lat="44.99997" lon="3.20057">
        <ele>857.185855</ele>
        <time>2021-07-09T11:21:04+0200</time>
      </trkpt>
      <trkpt lat="44.99997" lon="3.20065">
        <ele>857.555022</ele>
        <time>2021-07-09T11:21:07+0200</time>
      </trkpt>
      <trkpt lat="44.99997" lon="3.20074">
        <ele>858.662304</ele>
        <time>2021-07-09T11:21:10+0200</time>
      </trkpt>
      <trkpt lat="44.99997" lon="3.20081">
        <ele>859.128308</ele>
        <time>2021-07-09T11:21:13+0200</time>
      </trkpt>
      <trkpt lat="44.99999" lon="3.2009">
        <ele>860.200707</ele>
        <time>2021-07-09T11:21:16+0200</time>
      </trkpt>
      <trkpt lat="45" lon="3.20097">
        <ele>859.603469</ele>
        <time>2021-07-09T11:21:19+0200</time>
      </trkpt>
      <trkpt lat="45.00004" lon="3.20101">
        <ele>860.126781</ele>
        <time>2021-07-09T11:21:22+0200</time>
      </trkpt>
      <trkpt lat="45.00003" lon="3.2011">
        <ele>861.223362</ele>
        <time>2021-07-09T11:21:25+0200</time>
      </trkpt>
      <trkpt lat="45.00004" lon="3.20117">
        <ele>861.329077</ele>
        <time>2021-07-09T11:21:28+0200</time>
      </trkpt>
      <trkpt lat="45.00004" lon="3.20123">
        <ele>862.204217</ele>
        <time>2021-07-09T11:21:31+0200</time>
      </trkpt>
      <trkpt lat="45.00004" lon="3.20132">
        <ele>863.194897</ele>
        <time>2021-07-09T11:21:34+0200</time>
      </trkpt>
      <trkpt lat="45.00005" lon="3.2014">
        <ele>863.629819</ele>
        <time>2021-07-09T11:21:37+0200</time>
      </trkpt>
      <trkpt lat="45.00006" lon="3.20147">
        <ele>864.704382</ele>
        <time>2021-07-09T11:21:40+0200</time>
      </trkpt>
      <trkpt lat="45.00008" lon="3.20154">
        <ele>865.695655</ele>
        <time>2021-07-09T11:21:43+0200</time>
      </trkpt>
      <trkpt lat="45.00009" lon="3.2016">
        <ele>867.475254</ele>
        <time>2021-07-09T11:21:46+0200</time>
      </trkpt>
      <trkpt lat="45.0001" lon="3.20167">
        <ele>867.893451</ele>
        <time>2021-07-09T11:21:49+0200</time>
      </trkpt>
      <trkpt lat="45.00013" lon="3.20173">
        <ele>867.738971</ele>
        <time>2021-07-09T11:21:52+0200</time>
      </trkpt>
      <trkpt lat="45.00016" lon="3.20181">
        <ele>868.022539</ele>
        <time>2021-07-09T11:21:55+0200</time>
      </trkpt>
      <trkpt lat="45.00018" lon="3.20187">
        <ele>868.515175</ele>
        <time>2021-07-09T11:21:57+0200</time>
      </trkpt>
      <trkpt lat="45.00023" lon="3.20194">
        <ele>869.332314</ele>
        <time>2021-07-09T11:22:00+0200</time>
      </trkpt>
      <trkpt lat="45.00027" lon="3.202">
        <ele>868.868107</ele>
        <time>2021-07-09T11:22:03+0200</time>
      </trkpt>
      <trkpt lat="45.00031" lon="3.20206">
        <ele>869.222701</ele>
        <time>2021-07-09T11:22:06+0200</time>
      </trkpt>
      <trkpt lat="45.00036" lon="3.20212">
        <ele>869.730932</ele>
        <time>2021-07-09T11:22:09+0200</time>
      </trkpt>
      <trkpt lat="45.00039" lon="3.2022">
        <ele>869.139882</ele>
        <time>2021-07-09T11:22:12+0200</time>
      </trkpt>
      <trkpt lat="45.00041" lon="3.20226">
        <ele>869.291654</ele>
        <time>2021-07-09T11:22:14+0200</time>
      </trkpt>
      <trkpt lat="45.00044" lon="3.20232">
        <ele>869.798063</ele>
        <time>2021-07-09T11:22:16+0200</time>
      </trkpt>
      <trkpt lat="45.00048" lon="3.20239">
        <ele>869.016288</ele>
        <time>2021-07-09T11:22:19+0200</time>
      </trkpt>
      <trkpt lat="45.00054" lon="3.20243">
        <ele>868.186584</ele>
        <time>2021-07-09T11:22:22+0200</time>
      </trkpt>
      <trkpt lat="45.00058" lon="3.20248">
        <ele>867.93773</ele>
        <time>2021-07-09T11:22:24+0200</time>
      </trkpt>
      <trkpt lat="45.0006" lon="3.20253">
        <ele>868.348412</ele>
        <time>2021-07-09T11:22:26+0200</time>
      </trkpt>
      <trkpt lat="45.00064" lon="3.20258">
        <ele>868.799219</ele>
        <time>2021-07-09T11:22:29+0200</time>
      </trkpt>
      <trkpt lat="45.00067" lon="3.20264">
        <ele>868.969274</ele>
        <time>2021-07-09T11:22:31+0200</time>
      </trkpt>
      <trkpt lat="45.0007" lon="3.20271">
        <ele>868.93067</ele>
        <time>2021-07-09T11:22:34+0200</time>
      </trkpt>
      <trkpt lat="45.00075" lon="3.20277">
        <ele>869.607664</ele>
        <time>2021-07-09T11:22:37+0200</time>
      </trkpt>
      <trkpt lat="45.00078" lon="3.20282">
        <ele>869.743542</ele>
        <time>2021-07-09T11:22:39+0200</time>
      </trkpt>
      <trkpt lat="45.00081" lon="3.20288">
        <ele>869.908603</ele>
        <time>2021-07-09T11:22:41+0200</time>
      </trkpt>
      <trkpt lat="45.00085" lon="3.20294">
        <ele>871.154936</ele>
        <time>2021-07-09T11:22:43+0200</time>
      </trkpt>
      <trkpt lat="45.00089" lon="3.20301">
        <ele>870.737352</ele>
        <time>2021-07-09T11:22:45+0200</time>
      </trkpt>
      <trkpt lat="45.00092" lon="3.20307">
        <ele>870.679215</ele>
        <time>2021-07-09T11:22:47+0200</time>
      </trkpt>
      <trkpt lat="45.00095" lon="3.20314">
        <ele>871.538602</ele>
        <time>2021-07-09T11:22:49+0200</time>
      </trkpt>
      <trkpt lat="45.00099" lon="3.2032">
        <ele>872.276451</ele>
        <time>2021-07-09T11:22:51+0200</time>
      </trkpt>
      <trkpt lat="45.00103" lon="3.20327">
        <ele>873.420102</ele>
        <time>2021-07-09T11:22:53+0200</time>
      </trkpt>
      <trkpt lat="45.00106" lon="3.20333">
        <ele>874.215096</ele>
        <time>2021-07-09T11:22:55+0200</time>
      </trkpt>
      <trkpt lat="45.00109" lon="3.2034">
        <ele>875.490797</ele>
        <time>2021-07-09T11:22:57+0200</time>
      </trkpt>
      <trkpt lat="45.00113" lon="3.20347">
        <ele>876.676834</ele>
        <time>2021-07-09T11:22:59+0200</time>
      </trkpt>
      <trkpt lat="45.00118" lon="3.20354">
        <ele>876.02836</ele>
        <time>2021-07-09T11:23:01+0200</time>
      </trkpt>
      <trkpt lat="45.00121" lon="3.2036">
        <ele>876.014712</ele>
        <time>2021-07-09T11:23:03+0200</time>
      </trkpt>
      <trkpt lat="45.00126" lon="3.20366">
        <ele>875.963099</ele>
        <time>2021-07-09T11:23:05+0200</time>
      </trkpt>
      <trkpt lat="45.0013" lon="3.20372">
        <ele>876.316423</ele>
        <time>2021-07-09T11:23:07+0200</time>
      </trkpt>
      <trkpt lat="45.00134" lon="3.20376">
        <ele>875.802686</ele>
        <time>2021-07-09T11:23:09+0200</time>
      </trkpt>
      <trkpt lat="45.00139" lon="3.20379">
        <ele>875.052317</ele>
        <time>2021-07-09T11:23:11+0200</time>
      </trkpt>
      <trkpt lat="45.00144" lon="3.20384">
        <ele>875.821082</ele>
        <time>2021-07-09T11:23:13+0200</time>
      </trkpt>
      <trkpt lat="45.00149" lon="3.20389">
        <ele>876.939831</ele>
        <time>2021-07-09T11:23:15+0200</time>
      </trkpt>
      <trkpt lat="45.00153" lon="3.20394">
        <ele>877.49334</ele>
        <time>2021-07-09T11:23:17+0200</time>
      </trkpt>
      <trkpt lat="45.00157" lon="3.20398">
        <ele>876.725822</ele>
        <time>2021-07-09T11:23:19+0200</time>
      </trkpt>
      <trkpt lat="45.0016" lon="3.20403">
        <ele>876.836393</ele>
        <time>2021-07-09T11:23:21+0200</time>
      </trkpt>
      <trkpt lat="45.00164" lon="3.2041">
        <ele>877.609116</ele>
        <time>2021-07-09T11:23:24+0200</time>
      </trkpt>
      <trkpt lat="45.00169" lon="3.20416">
        <ele>878.734577</ele>
        <time>2021-07-09T11:23:27+0200</time>
      </trkpt>
      <trkpt lat="45.00171" lon="3.20422">
        <ele>878.925574</ele>
        <time>2021-07-09T11:23:29+0200</time>
      </trkpt>
      <trkpt lat="45.00173" lon="3.2043">
        <ele>880.286532</ele>
        <time>2021-07-09T11:23:31+0200</time>
      </trkpt>
      <trkpt lat="45.00174" lon="3.20439">
        <ele>880.042142</ele>
        <time>2021-07-09T11:23:34+0200</time>
      </trkpt>
      <trkpt lat="45.00175" lon="3.20447">
        <ele>878.955249</ele>
        <time>2021-07-09T11:23:36+0200</time>
      </trkpt>
      <trkpt lat="45.00176" lon="3.20453">
        <ele>880.371888</ele>
        <time>2021-07-09T11:23:38+0200</time>
      </trkpt>
      <trkpt lat="45.00178" lon="3.20462">
        <ele>879.275991</ele>
        <time>2021-07-09T11:23:40+0200</time>
      </trkpt>
      <trkpt lat="45.0018" lon="3.20472">
        <ele>879.731373</ele>
        <time>2021-07-09T11:23:43+0200</time>
      </trkpt>
      <trkpt lat="45.00182" lon="3.20477">
        <ele>880.026214</ele>
        <time>2021-07-09T11:23:45+0200</time>
      </trkpt>
      <trkpt lat="45.00183" lon="3.20484">
        <ele>881.169841</ele>
        <time>2021-07-09T11:23:47+0200</time>
      </trkpt>
      <trkpt lat="45.00181" lon="3.20491">
        <ele>881.729026</ele>
        <time>2021-07-09T11:23:49+0200</time>
      </trkpt>
      <trkpt lat="45.00182" lon="3.20501">
        <ele>885.345298</ele>
        <time>2021-07-09T11:23:52+0200</time>
      </trkpt>
      <trkpt lat="45.00182" lon="3.20508">
        <ele>887.518653</ele>
        <time>2021-07-09T11:23:54+0200</time>
      </trkpt>
      <trkpt lat="45.00184" lon="3.20514">
        <ele>887.642291</ele>
        <time>2021-07-09T11:23:56+0200</time>
      </trkpt>
      <trkpt lat="45.00183" lon="3.20522">
        <ele>888.069846</ele>
        <time>2021-07-09T11:23:58+0200</time>
      </trkpt>
      <trkpt lat="45.00185" lon="3.2053">
        <ele>886.136043</ele>
        <time>2021-07-09T11:24:00+0200</time>
      </trkpt>
      <trkpt lat="45.00186" lon="3.20538">
        <ele>885.413855</ele>
        <time>2021-07-09T11:24:02+0200</time>
      </trkpt>
      <trkpt lat="45.00187" lon="3.20544">
        <ele>885.243422</ele>
        <time>2021-07-09T11:24:04+0200</time>
      </trkpt>
      <trkpt lat="45.00188" lon="3.20552">
        <ele>885.323646</ele>
        <time>2021-07-09T11:24:06+0200</time>
      </trkpt>
      <trkpt lat="45.0019" lon="3.20561">
        <ele>886.317697</ele>
        <time>2021-07-09T11:24:09+0200</time>
      </trkpt>
      <trkpt lat="45.00191" lon="3.20568">
        <ele>886.185786</ele>
        <time>2021-07-09T11:24:11+0200</time>
      </trkpt>
      <trkpt lat="45.00193" lon="3.20574">
        <ele>885.104655</ele>
        <time>2021-07-09T11:24:13+0200</time>
      </trkpt>
      <trkpt lat="45.00194" lon="3.20583">
        <ele>885.197842</ele>
        <time>2021-07-09T11:24:16+0200</time>
      </trkpt>
      <trkpt lat="45.00196" lon="3.20589">
        <ele>885.414791</ele>
        <time>2021-07-09T11:24:19+0200</time>
      </trkpt>
      <trkpt lat="45.00199" lon="3.20595">
        <ele>887.751146</ele>
        <time>2021-07-09T11:24:44+0200</time>
      </trkpt>
      <trkpt lat="45.00194" lon="3.20597">
        <ele>900.009683</ele>
        <time>2021-07-09T11:25:21+0200</time>
      </trkpt>
      <trkpt lat="45.00198" lon="3.20601">
        <ele>882.044381</ele>
        <time>2021-07-09T11:26:06+0200</time>
      </trkpt>
      <trkpt lat="45.00201" lon="3.20608">
        <ele>883.810036</ele>
        <time>2021-07-09T11:26:09+0200</time>
      </trkpt>
      <trkpt lat="45.00202" lon="3.20615">
        <ele>885.165763</ele>
        <time>2021-07-09T11:26:11+0200</time>
      </trkpt>
      <trkpt lat="45.00202" lon="3.20623">
        <ele>887.095198</ele>
        <time>2021-07-09T11:26:14+0200</time>
      </trkpt>
      <trkpt lat="45.00203" lon="3.2063">
        <ele>887.054708</ele>
        <time>2021-07-09T11:26:17+0200</time>
      </trkpt>
      <trkpt lat="45.00203" lon="3.20637">
        <ele>889.631173</ele>
        <time>2021-07-09T11:26:20+0200</time>
      </trkpt>
      <trkpt lat="45.00202" lon="3.20644">
        <ele>892.431344</ele>
        <time>2021-07-09T11:26:23+0200</time>
      </trkpt>
      <trkpt lat="45.002" lon="3.2065">
        <ele>894.363046</ele>
        <time>2021-07-09T11:26:25+0200</time>
      </trkpt>
      <trkpt lat="45.00198" lon="3.20656">
        <ele>896.747377</ele>
        <time>2021-07-09T11:26:27+0200</time>
      </trkpt>
      <trkpt lat="45.00197" lon="3.20663">
        <ele>897.498381</ele>
        <time>2021-07-09T11:26:29+0200</time>
      </trkpt>
      <trkpt lat="45.00195" lon="3.20669">
        <ele>897.732294</ele>
        <time>2021-07-09T11:26:31+0200</time>
      </trkpt>
      <trkpt lat="45.00193" lon="3.20678">
        <ele>898.827443</ele>
        <time>2021-07-09T11:26:34+0200</time>
      </trkpt>
      <trkpt lat="45.00191" lon="3.20685">
        <ele>898.244576</ele>
        <time>2021-07-09T11:26:36+0200</time>
      </trkpt>
      <trkpt lat="45.00189" lon="3.20692">
        <ele>897.51979</ele>
        <time>2021-07-09T11:26:38+0200</time>
      </trkpt>
      <trkpt lat="45.00188" lon="3.207">
        <ele>897.851687</ele>
        <time>2021-07-09T11:26:41+0200</time>
      </trkpt>
      <trkpt lat="45.00186" lon="3.20707">
        <ele>898.083502</ele>
        <time>2021-07-09T11:26:43+0200</time>
      </trkpt>
      <trkpt lat="45.00186" lon="3.20715">
        <ele>896.68441</ele>
        <time>2021-07-09T11:26:45+0200</time>
      </trkpt>
      <trkpt lat="45.00186" lon="3.20724">
        <ele>894.998355</ele>
        <time>2021-07-09T11:26:47+0200</time>
      </trkpt>
      <trkpt lat="45.00191" lon="3.20724">
        <ele>897.990333</ele>
        <time>2021-07-09T11:26:51+0200</time>
      </trkpt>
      <trkpt lat="45.00196" lon="3.20722">
        <ele>900.110087</ele>
        <time>2021-07-09T11:26:55+0200</time>
      </trkpt>
      <trkpt lat="45.00202" lon="3.20721">
        <ele>902.869166</ele>
        <time>2021-07-09T11:26:59+0200</time>
      </trkpt>
      <trkpt lat="45.00207" lon="3.20719">
        <ele>903.730262</ele>
        <time>2021-07-09T11:27:02+0200</time>
      </trkpt>
      <trkpt lat="45.00212" lon="3.20717">
        <ele>906.17996</ele>
        <time>2021-07-09T11:27:05+0200</time>
      </trkpt>
      <trkpt lat="45.00218" lon="3.20716">
        <ele>907.927331</ele>
        <time>2021-07-09T11:27:08+0200</time>
      </trkpt>
      <trkpt lat="45.00225" lon="3.20714">
        <ele>908.775222</ele>
        <time>2021-07-09T11:27:11+0200</time>
      </trkpt>
      <trkpt lat="45.0023" lon="3.20711">
        <ele>907.721684</ele>
        <time>2021-07-09T11:27:13+0200</time>
      </trkpt>
      <trkpt lat="45.00235" lon="3.20712">
        <ele>909.208039</ele>
        <time>2021-07-09T11:27:15+0200</time>
      </trkpt>
      <trkpt lat="45.00239" lon="3.20712">
        <ele>909.211983</ele>
        <time>2021-07-09T11:27:17+0200</time>
      </trkpt>
      <trkpt lat="45.00246" lon="3.20709">
        <ele>910.756566</ele>
        <time>2021-07-09T11:27:20+0200</time>
      </trkpt>
      <trkpt lat="45.00251" lon="3.20709">
        <ele>909.654621</ele>
        <time>2021-07-09T11:27:22+0200</time>
      </trkpt>
      <trkpt lat="45.00256" lon="3.20706">
        <ele>911.281459</ele>
        <time>2021-07-09T11:27:24+0200</time>
      </trkpt>
      <trkpt lat="45.00261" lon="3.20703">
        <ele>911.863277</ele>
        <time>2021-07-09T11:27:26+0200</time>
      </trkpt>
      <trkpt lat="45.00267" lon="3.20701">
        <ele>910.436521</ele>
        <time>2021-07-09T11:27:28+0200</time>
      </trkpt>
      <trkpt lat="45.00273" lon="3.207">
        <ele>911.285112</ele>
        <time>2021-07-09T11:27:30+0200</time>
      </trkpt>
      <trkpt lat="45.00281" lon="3.20699">
        <ele>909.656988</ele>
        <time>2021-07-09T11:27:33+0200</time>
      </trkpt>
      <trkpt lat="45.00286" lon="3.20699">
        <ele>907.833825</ele>
        <time>2021-07-09T11:27:35+0200</time>
      </trkpt>
      <trkpt lat="45.00291" lon="3.207">
        <ele>907.693282</ele>
        <time>2021-07-09T11:27:37+0200</time>
      </trkpt>
      <trkpt lat="45.00296" lon="3.207">
        <ele>909.449838</ele>
        <time>2021-07-09T11:27:39+0200</time>
      </trkpt>
      <trkpt lat="45.00301" lon="3.20699">
        <ele>908.793255</ele>
        <time>2021-07-09T11:27:41+0200</time>
      </trkpt>
      <trkpt lat="45.00307" lon="3.207">
        <ele>908.740569</ele>
        <time>2021-07-09T11:27:44+0200</time>
      </trkpt>
      <trkpt lat="45.0031" lon="3.20709">
        <ele>905.989953</ele>
        <time>2021-07-09T11:27:48+0200</time>
      </trkpt>
      <trkpt lat="45.00312" lon="3.20719">
        <ele>903.191726</ele>
        <time>2021-07-09T11:27:51+0200</time>
      </trkpt>
      <trkpt lat="45.00314" lon="3.20729">
        <ele>901.546486</ele>
        <time>2021-07-09T11:27:53+0200</time>
      </trkpt>
      <trkpt lat="45.00314" lon="3.20736">
        <ele>899.229186</ele>
        <time>2021-07-09T11:27:55+0200</time>
      </trkpt>
      <trkpt lat="45.00316" lon="3.20742">
        <ele>899.920171</ele>
        <time>2021-07-09T11:27:57+0200</time>
      </trkpt>
      <trkpt lat="45.00317" lon="3.20752">
        <ele>900.093979</ele>
        <time>2021-07-09T11:27:59+0200</time>
      </trkpt>
      <trkpt lat="45.00318" lon="3.20758">
        <ele>898.243911</ele>
        <time>2021-07-09T11:28:00+0200</time>
      </trkpt>
      <trkpt lat="45.00317" lon="3.20765">
        <ele>897.811418</ele>
        <time>2021-07-09T11:28:01+0200</time>
      </trkpt>
      <trkpt lat="45.00317" lon="3.20772">
        <ele>897.094003</ele>
        <time>2021-07-09T11:28:02+0200</time>
      </trkpt>
      <trkpt lat="45.00318" lon="3.20781">
        <ele>894.934679</ele>
        <time>2021-07-09T11:28:03+0200</time>
      </trkpt>
      <trkpt lat="45.00319" lon="3.20791">
        <ele>891.708659</ele>
        <time>2021-07-09T11:28:04+0200</time>
      </trkpt>
      <trkpt lat="45.00319" lon="3.208">
        <ele>890.206042</ele>
        <time>2021-07-09T11:28:05+0200</time>
      </trkpt>
      <trkpt lat="45.0032" lon="3.20809">
        <ele>889.89535</ele>
        <time>2021-07-09T11:28:06+0200</time>
      </trkpt>
      <trkpt lat="45.00322" lon="3.20822">
        <ele>889.23169</ele>
        <time>2021-07-09T11:28:07+0200</time>
      </trkpt>
      <trkpt lat="45.00323" lon="3.20838">
        <ele>887.833681</ele>
        <time>2021-07-09T11:28:08+0200</time>
      </trkpt>
      <trkpt lat="45.00322" lon="3.20853">
        <ele>886.756415</ele>
        <time>2021-07-09T11:28:09+0200</time>
      </trkpt>
      <trkpt lat="45.00322" lon="3.20867">
        <ele>885.441202</ele>
        <time>2021-07-09T11:28:10+0200</time>
      </trkpt>
      <trkpt lat="45.00322" lon="3.20884">
        <ele>882.053414</ele>
        <time>2021-07-09T11:28:11+0200</time>
      </trkpt>
      <trkpt lat="45.00322" lon="3.20901">
        <ele>879.251855</ele>
        <time>2021-07-09T11:28:12+0200</time>
      </trkpt>
      <trkpt lat="45.00323" lon="3.20922">
        <ele>876.072982</ele>
        <time>2021-07-09T11:28:13+0200</time>
      </trkpt>
      <trkpt lat="45.00324" lon="3.20939">
        <ele>874.639201</ele>
        <time>2021-07-09T11:28:14+0200</time>
      </trkpt>
      <trkpt lat="45.00325" lon="3.20957">
        <ele>873.808367</ele>
        <time>2021-07-09T11:28:15+0200</time>
      </trkpt>
      <trkpt lat="45.00327" lon="3.20974">
        <ele>872.243497</ele>
        <time>2021-07-09T11:28:16+0200</time>
      </trkpt>
      <trkpt lat="45.00325" lon="3.20989">
        <ele>868.381506</ele>
        <time>2021-07-09T11:28:17+0200</time>
      </trkpt>
      <trkpt lat="45.00326" lon="3.21006">
        <ele>867.829563</ele>
        <time>2021-07-09T11:28:18+0200</time>
      </trkpt>
      <trkpt lat="45.00326" lon="3.21022">
        <ele>866.541489</ele>
        <time>2021-07-09T11:28:19+0200</time>
      </trkpt>
      <trkpt lat="45.00326" lon="3.21036">
        <ele>864.665084</ele>
        <time>2021-07-09T11:28:20+0200</time>
      </trkpt>
      <trkpt lat="45.00328" lon="3.21051">
        <ele>863.691522</ele>
        <time>2021-07-09T11:28:21+0200</time>
      </trkpt>
      <trkpt lat="45.0033" lon="3.21066">
        <ele>862.712903</ele>
        <time>2021-07-09T11:28:22+0200</time>
      </trkpt>
      <trkpt lat="45.00332" lon="3.21081">
        <ele>862.168291</ele>
        <time>2021-07-09T11:28:23+0200</time>
      </trkpt>
      <trkpt lat="45.00332" lon="3.21095">
        <ele>862.359045</ele>
        <time>2021-07-09T11:28:24+0200</time>
      </trkpt>
      <trkpt lat="45.00334" lon="3.21107">
        <ele>862.364862</ele>
        <time>2021-07-09T11:28:25+0200</time>
      </trkpt>
      <trkpt lat="45.00338" lon="3.21117">
        <ele>862.794028</ele>
        <time>2021-07-09T11:28:26+0200</time>
      </trkpt>
      <trkpt lat="45.00342" lon="3.21125">
        <ele>863.289097</ele>
        <time>2021-07-09T11:28:27+0200</time>
      </trkpt>
      <trkpt lat="45.00346" lon="3.21133">
        <ele>864.284097</ele>
        <time>2021-07-09T11:28:28+0200</time>
      </trkpt>
      <trkpt lat="45.00347" lon="3.21144">
        <ele>864.431772</ele>
        <time>2021-07-09T11:28:29+0200</time>
      </trkpt>
      <trkpt lat="45.00345" lon="3.21154">
        <ele>863.741166</ele>
        <time>2021-07-09T11:28:30+0200</time>
      </trkpt>
      <trkpt lat="45.00341" lon="3.2116">
        <ele>864.541872</ele>
        <time>2021-07-09T11:28:31+0200</time>
      </trkpt>
      <trkpt lat="45.00338" lon="3.21164">
        <ele>864.337641</ele>
        <time>2021-07-09T11:28:32+0200</time>
      </trkpt>
      <trkpt lat="45.00333" lon="3.21166">
        <ele>864.204265</ele>
        <time>2021-07-09T11:28:33+0200</time>
      </trkpt>
      <trkpt lat="45.00328" lon="3.21171">
        <ele>865.329765</ele>
        <time>2021-07-09T11:28:35+0200</time>
      </trkpt>
      <trkpt lat="45.00324" lon="3.21176">
        <ele>867.074733</ele>
        <time>2021-07-09T11:28:37+0200</time>
      </trkpt>
      <trkpt lat="45.00319" lon="3.21183">
        <ele>869.000939</ele>
        <time>2021-07-09T11:28:40+0200</time>
      </trkpt>
      <trkpt lat="45.00314" lon="3.2119">
        <ele>870.178175</ele>
        <time>2021-07-09T11:28:43+0200</time>
      </trkpt>
      <trkpt lat="45.00312" lon="3.21198">
        <ele>871.918453</ele>
        <time>2021-07-09T11:28:46+0200</time>
      </trkpt>
      <trkpt lat="45.00308" lon="3.21204">
        <ele>872.516054</ele>
        <time>2021-07-09T11:28:48+0200</time>
      </trkpt>
      <trkpt lat="45.00305" lon="3.21212">
        <ele>873.202488</ele>
        <time>2021-07-09T11:28:51+0200</time>
      </trkpt>
      <trkpt lat="45.00302" lon="3.21218">
        <ele>873.533194</ele>
        <time>2021-07-09T11:28:53+0200</time>
      </trkpt>
      <trkpt lat="45.003" lon="3.21224">
        <ele>873.483012</ele>
        <time>2021-07-09T11:28:55+0200</time>
      </trkpt>
      <trkpt lat="45.00297" lon="3.21229">
        <ele>873.046623</ele>
        <time>2021-07-09T11:28:57+0200</time>
      </trkpt>
      <trkpt lat="45.00293" lon="3.21235">
        <ele>872.957507</ele>
        <time>2021-07-09T11:29:00+0200</time>
      </trkpt>
      <trkpt lat="45.00291" lon="3.21242">
        <ele>874.749922</ele>
        <time>2021-07-09T11:29:03+0200</time>
      </trkpt>
      <trkpt lat="45.00288" lon="3.21247">
        <ele>875.57397</ele>
        <time>2021-07-09T11:29:06+0200</time>
      </trkpt>
      <trkpt lat="45.00284" lon="3.21253">
        <ele>876.491514</ele>
        <time>2021-07-09T11:29:10+0200</time>
      </trkpt>
      <trkpt lat="45.00282" lon="3.2126">
        <ele>877.014336</ele>
        <time>2021-07-09T11:29:12+0200</time>
      </trkpt>
      <trkpt lat="45.00281" lon="3.21266">
        <ele>876.323198</ele>
        <time>2021-07-09T11:29:14+0200</time>
      </trkpt>
      <trkpt lat="45.00277" lon="3.2127">
        <ele>877.213025</ele>
        <time>2021-07-09T11:29:17+0200</time>
      </trkpt>
      <trkpt lat="45.00275" lon="3.21277">
        <ele>876.007526</ele>
        <time>2021-07-09T11:29:20+0200</time>
      </trkpt>
      <trkpt lat="45.00272" lon="3.21285">
        <ele>877.370607</ele>
        <time>2021-07-09T11:29:23+0200</time>
      </trkpt>
      <trkpt lat="45.00268" lon="3.2129">
        <ele>877.671374</ele>
        <time>2021-07-09T11:29:26+0200</time>
      </trkpt>
      <trkpt lat="45.00266" lon="3.21297">
        <ele>878.096293</ele>
        <time>2021-07-09T11:29:29+0200</time>
      </trkpt>
      <trkpt lat="45.00264" lon="3.21304">
        <ele>877.848873</ele>
        <time>2021-07-09T11:29:32+0200</time>
      </trkpt>
      <trkpt lat="45.00261" lon="3.21311">
        <ele>878.169078</ele>
        <time>2021-07-09T11:29:35+0200</time>
      </trkpt>
      <trkpt lat="45.00256" lon="3.21317">
        <ele>880.170177</ele>
        <time>2021-07-09T11:29:39+0200</time>
      </trkpt>
      <trkpt lat="45.00255" lon="3.21323">
        <ele>880.817377</ele>
        <time>2021-07-09T11:29:42+0200</time>
      </trkpt>
      <trkpt lat="45.00252" lon="3.21331">
        <ele>881.490528</ele>
        <time>2021-07-09T11:29:46+0200</time>
      </trkpt>
      <trkpt lat="45.00249" lon="3.21337">
        <ele>882.906245</ele>
        <time>2021-07-09T11:29:49+0200</time>
      </trkpt>
      <trkpt lat="45.00246" lon="3.21344">
        <ele>883.594474</ele>
        <time>2021-07-09T11:29:52+0200</time>
      </trkpt>
      <trkpt lat="45.00243" lon="3.21348">
        <ele>884.078487</ele>
        <time>2021-07-09T11:29:55+0200</time>
      </trkpt>
      <trkpt lat="45.0024" lon="3.21354">
        <ele>884.05559</ele>
        <time>2021-07-09T11:29:58+0200</time>
      </trkpt>
      <trkpt lat="45.00237" lon="3.2136">
        <ele>884.44532</ele>
        <time>2021-07-09T11:30:01+0200</time>
      </trkpt>
      <trkpt lat="45.00234" lon="3.21366">
        <ele>884.18057</ele>
        <time>2021-07-09T11:30:04+0200</time>
      </trkpt>
      <trkpt lat="45.00232" lon="3.21372">
        <ele>884.668617</ele>
        <time>2021-07-09T11:30:07+0200</time>
      </trkpt>
      <trkpt lat="45.0023" lon="3.21379">
        <ele>885.881306</ele>
        <time>2021-07-09T11:30:10+0200</time>
      </trkpt>
      <trkpt lat="45.00229" lon="3.21386">
        <ele>885.057015</ele>
        <time>2021-07-09T11:30:13+0200</time>
      </trkpt>
      <trkpt lat="45.00228" lon="3.21394">
        <ele>885.129497</ele>
        <time>2021-07-09T11:30:16+0200</time>
      </trkpt>
      <trkpt lat="45.00228" lon="3.21401">
        <ele>885.199243</ele>
        <time>2021-07-09T11:30:19+0200</time>
      </trkpt>
      <trkpt lat="45.00226" lon="3.21407">
        <ele>885.925761</ele>
        <time>2021-07-09T11:30:22+0200</time>
      </trkpt>
      <trkpt lat="45.00224" lon="3.21413">
        <ele>886.407232</ele>
        <time>2021-07-09T11:30:25+0200</time>
      </trkpt>
      <trkpt lat="45.00224" lon="3.2142">
        <ele>886.143585</ele>
        <time>2021-07-09T11:30:28+0200</time>
      </trkpt>
      <trkpt lat="45.00224" lon="3.21428">
        <ele>887.425325</ele>
        <time>2021-07-09T11:30:32+0200</time>
      </trkpt>
      <trkpt lat="45.00224" lon="3.21434">
        <ele>888.556516</ele>
        <time>2021-07-09T11:30:35+0200</time>
      </trkpt>
      <trkpt lat="45.00226" lon="3.2144">
        <ele>890.20379</ele>
        <time>2021-07-09T11:30:38+0200</time>
      </trkpt>
      <trkpt lat="45.00226" lon="3.21447">
        <ele>890.320167</ele>
        <time>2021-07-09T11:30:41+0200</time>
      </trkpt>
      <trkpt lat="45.00226" lon="3.21453">
        <ele>891.408835</ele>
        <time>2021-07-09T11:30:44+0200</time>
      </trkpt>
      <trkpt lat="45.00225" lon="3.2146">
        <ele>892.961071</ele>
        <time>2021-07-09T11:30:48+0200</time>
      </trkpt>
      <trkpt lat="45.00224" lon="3.21468">
        <ele>893.726043</ele>
        <time>2021-07-09T11:30:52+0200</time>
      </trkpt>
      <trkpt lat="45.00225" lon="3.21476">
        <ele>894.606389</ele>
        <time>2021-07-09T11:30:56+0200</time>
      </trkpt>
      <trkpt lat="45.00225" lon="3.21484">
        <ele>895.971758</ele>
        <time>2021-07-09T11:30:59+0200</time>
      </trkpt>
      <trkpt lat="45.00224" lon="3.21492">
        <ele>896.2152</ele>
        <time>2021-07-09T11:31:03+0200</time>
      </trkpt>
      <trkpt lat="45.00223" lon="3.215">
        <ele>898.489146</ele>
        <time>2021-07-09T11:31:07+0200</time>
      </trkpt>
      <trkpt lat="45.00222" lon="3.21508">
        <ele>900.485727</ele>
        <time>2021-07-09T11:31:11+0200</time>
      </trkpt>
      <trkpt lat="45.0022" lon="3.21515">
        <ele>900.651312</ele>
        <time>2021-07-09T11:31:16+0200</time>
      </trkpt>
      <trkpt lat="45.00217" lon="3.21521">
        <ele>900.887805</ele>
        <time>2021-07-09T11:32:23+0200</time>
      </trkpt>
      <trkpt lat="45.00214" lon="3.21527">
        <ele>900.327296</ele>
        <time>2021-07-09T11:32:26+0200</time>
      </trkpt>
      <trkpt lat="45.00212" lon="3.21533">
        <ele>901.478214</ele>
        <time>2021-07-09T11:32:29+0200</time>
      </trkpt>
      <trkpt lat="45.00209" lon="3.21539">
        <ele>902.78242</ele>
        <time>2021-07-09T11:32:32+0200</time>
      </trkpt>
      <trkpt lat="45.00205" lon="3.21543">
        <ele>904.340753</ele>
        <time>2021-07-09T11:32:35+0200</time>
      </trkpt>
      <trkpt lat="45.00201" lon="3.21549">
        <ele>904.73843</ele>
        <time>2021-07-09T11:32:38+0200</time>
      </trkpt>
      <trkpt lat="45.00198" lon="3.21555">
        <ele>905.998912</ele>
        <time>2021-07-09T11:32:41+0200</time>
      </trkpt>
      <trkpt lat="45.00193" lon="3.21561">
        <ele>906.804219</ele>
        <time>2021-07-09T11:32:44+0200</time>
      </trkpt>
      <trkpt lat="45.00189" lon="3.21566">
        <ele>906.940168</ele>
        <time>2021-07-09T11:32:47+0200</time>
      </trkpt>
      <trkpt lat="45.00186" lon="3.21571">
        <ele>906.688045</ele>
        <time>2021-07-09T11:32:49+0200</time>
      </trkpt>
      <trkpt lat="45.00183" lon="3.21577">
        <ele>906.613766</ele>
        <time>2021-07-09T11:32:52+0200</time>
      </trkpt>
      <trkpt lat="45.00179" lon="3.21582">
        <ele>906.574306</ele>
        <time>2021-07-09T11:32:55+0200</time>
      </trkpt>
      <trkpt lat="45.00177" lon="3.21588">
        <ele>907.198775</ele>
        <time>2021-07-09T11:32:57+0200</time>
      </trkpt>
      <trkpt lat="45.00173" lon="3.21594">
        <ele>907.076241</ele>
        <time>2021-07-09T11:33:00+0200</time>
      </trkpt>
      <trkpt lat="45.0017" lon="3.21599">
        <ele>908.589243</ele>
        <time>2021-07-09T11:33:03+0200</time>
      </trkpt>
      <trkpt lat="45.00165" lon="3.21605">
        <ele>908.574539</ele>
        <time>2021-07-09T11:33:06+0200</time>
      </trkpt>
      <trkpt lat="45.00162" lon="3.21612">
        <ele>909.063725</ele>
        <time>2021-07-09T11:33:10+0200</time>
      </trkpt>
      <trkpt lat="45.00158" lon="3.21618">
        <ele>909.314476</ele>
        <time>2021-07-09T11:33:13+0200</time>
      </trkpt>
      <trkpt lat="45.00155" lon="3.21625">
        <ele>909.124127</ele>
        <time>2021-07-09T11:33:16+0200</time>
      </trkpt>
      <trkpt lat="45.00152" lon="3.21633">
        <ele>909.419443</ele>
        <time>2021-07-09T11:33:19+0200</time>
      </trkpt>
      <trkpt lat="45.00148" lon="3.2164">
        <ele>910.489478</ele>
        <time>2021-07-09T11:33:22+0200</time>
      </trkpt>
      <trkpt lat="45.00144" lon="3.21646">
        <ele>909.623558</ele>
        <time>2021-07-09T11:33:25+0200</time>
      </trkpt>
      <trkpt lat="45.0014" lon="3.21651">
        <ele>910.606501</ele>
        <time>2021-07-09T11:33:28+0200</time>
      </trkpt>
      <trkpt lat="45.00136" lon="3.21656">
        <ele>910.137288</ele>
        <time>2021-07-09T11:33:31+0200</time>
      </trkpt>
      <trkpt lat="45.00135" lon="3.21663">
        <ele>910.700256</ele>
        <time>2021-07-09T11:33:34+0200</time>
      </trkpt>
      <trkpt lat="45.00134" lon="3.21671">
        <ele>912.160156</ele>
        <time>2021-07-09T11:33:37+0200</time>
      </trkpt>
      <trkpt lat="45.00134" lon="3.21679">
        <ele>912.324464</ele>
        <time>2021-07-09T11:33:40+0200</time>
      </trkpt>
      <trkpt lat="45.00135" lon="3.21687">
        <ele>912.55468</ele>
        <time>2021-07-09T11:33:43+0200</time>
      </trkpt>
      <trkpt lat="45.00137" lon="3.21693">
        <ele>913.116338</ele>
        <time>2021-07-09T11:33:45+0200</time>
      </trkpt>
      <trkpt lat="45.00141" lon="3.21699">
        <ele>914.095087</ele>
        <time>2021-07-09T11:33:48+0200</time>
      </trkpt>
      <trkpt lat="45.00143" lon="3.21707">
        <ele>914.198052</ele>
        <time>2021-07-09T11:33:51+0200</time>
      </trkpt>
      <trkpt lat="45.00144" lon="3.21713">
        <ele>913.684007</ele>
        <time>2021-07-09T11:33:53+0200</time>
      </trkpt>
      <trkpt lat="45.00145" lon="3.21722">
        <ele>913.151569</ele>
        <time>2021-07-09T11:33:56+0200</time>
      </trkpt>
      <trkpt lat="45.00145" lon="3.21729">
        <ele>912.420796</ele>
        <time>2021-07-09T11:33:58+0200</time>
      </trkpt>
      <trkpt lat="45.00147" lon="3.21738">
        <ele>911.560403</ele>
        <time>2021-07-09T11:34:00+0200</time>
      </trkpt>
      <trkpt lat="45.0015" lon="3.2175">
        <ele>911.210517</ele>
        <time>2021-07-09T11:34:02+0200</time>
      </trkpt>
      <trkpt lat="45.00147" lon="3.21762">
        <ele>910.537786</ele>
        <time>2021-07-09T11:34:04+0200</time>
      </trkpt>
      <trkpt lat="45.00146" lon="3.2177">
        <ele>910.21942</ele>
        <time>2021-07-09T11:34:05+0200</time>
      </trkpt>
      <trkpt lat="45.00145" lon="3.21778">
        <ele>909.823873</ele>
        <time>2021-07-09T11:34:06+0200</time>
      </trkpt>
      <trkpt lat="45.00143" lon="3.21786">
        <ele>909.09396</ele>
        <time>2021-07-09T11:34:07+0200</time>
      </trkpt>
      <trkpt lat="45.00141" lon="3.21796">
        <ele>908.677968</ele>
        <time>2021-07-09T11:34:08+0200</time>
      </trkpt>
      <trkpt lat="45.00139" lon="3.21805">
        <ele>908.435538</ele>
        <time>2021-07-09T11:34:09+0200</time>
      </trkpt>
      <trkpt lat="45.00136" lon="3.21815">
        <ele>907.787373</ele>
        <time>2021-07-09T11:34:10+0200</time>
      </trkpt>
      <trkpt lat="45.00133" lon="3.21825">
        <ele>906.860685</ele>
        <time>2021-07-09T11:34:11+0200</time>
      </trkpt>
      <trkpt lat="45.00131" lon="3.21834">
        <ele>906.179885</ele>
        <time>2021-07-09T11:34:12+0200</time>
      </trkpt>
      <trkpt lat="45.00128" lon="3.21844">
        <ele>905.741255</ele>
        <time>2021-07-09T11:34:13+0200</time>
      </trkpt>
      <trkpt lat="45.00126" lon="3.21855">
        <ele>905.449901</ele>
        <time>2021-07-09T11:34:14+0200</time>
      </trkpt>
      <trkpt lat="45.00123" lon="3.21865">
        <ele>905.117946</ele>
        <time>2021-07-09T11:34:15+0200</time>
      </trkpt>
      <trkpt lat="45.0012" lon="3.21875">
        <ele>904.903183</ele>
        <time>2021-07-09T11:34:16+0200</time>
      </trkpt>
      <trkpt lat="45.00118" lon="3.21884">
        <ele>904.930461</ele>
        <time>2021-07-09T11:34:17+0200</time>
      </trkpt>
      <trkpt lat="45.00116" lon="3.21893">
        <ele>905.293882</ele>
        <time>2021-07-09T11:34:18+0200</time>
      </trkpt>
      <trkpt lat="45.00113" lon="3.21903">
        <ele>905.072786</ele>
        <time>2021-07-09T11:34:19+0200</time>
      </trkpt>
      <trkpt lat="45.0011" lon="3.21913">
        <ele>905.360235</ele>
        <time>2021-07-09T11:34:20+0200</time>
      </trkpt>
      <trkpt lat="45.00106" lon="3.21921">
        <ele>904.98854</ele>
        <time>2021-07-09T11:34:21+0200</time>
      </trkpt>
      <trkpt lat="45.00103" lon="3.2193">
        <ele>905.73518</ele>
        <time>2021-07-09T11:34:22+0200</time>
      </trkpt>
      <trkpt lat="45.001" lon="3.21939">
        <ele>905.097053</ele>
        <time>2021-07-09T11:34:23+0200</time>
      </trkpt>
      <trkpt lat="45.00097" lon="3.21945">
        <ele>904.887695</ele>
        <time>2021-07-09T11:34:24+0200</time>
      </trkpt>
      <trkpt lat="45.00096" lon="3.21952">
        <ele>904.447967</ele>
        <time>2021-07-09T11:34:25+0200</time>
      </trkpt>
      <trkpt lat="45.00097" lon="3.2196">
        <ele>902.466661</ele>
        <time>2021-07-09T11:34:26+0200</time>
      </trkpt>
      <trkpt lat="45.001" lon="3.21967">
        <ele>902.923034</ele>
        <time>2021-07-09T11:34:27+0200</time>
      </trkpt>
      <trkpt lat="45.00104" lon="3.21972">
        <ele>903.219061</ele>
        <time>2021-07-09T11:34:28+0200</time>
      </trkpt>
      <trkpt lat="45.00108" lon="3.21976">
        <ele>903.539901</ele>
        <time>2021-07-09T11:34:29+0200</time>
      </trkpt>
      <trkpt lat="45.00114" lon="3.21981">
        <ele>904.430119</ele>
        <time>2021-07-09T11:34:31+0200</time>
      </trkpt>
      <trkpt lat="45.00119" lon="3.2199">
        <ele>905.113106</ele>
        <time>2021-07-09T11:34:33+0200</time>
      </trkpt>
      <trkpt lat="45.00122" lon="3.21998">
        <ele>905.402631</ele>
        <time>2021-07-09T11:34:35+0200</time>
      </trkpt>
      <trkpt lat="45.00127" lon="3.22005">
        <ele>906.084364</ele>
        <time>2021-07-09T11:34:37+0200</time>
      </trkpt>
      <trkpt lat="45.0013" lon="3.22013">
        <ele>907.432613</ele>
        <time>2021-07-09T11:34:39+0200</time>
      </trkpt>
      <trkpt lat="45.00133" lon="3.2202">
        <ele>908.622291</ele>
        <time>2021-07-09T11:34:41+0200</time>
      </trkpt>
      <trkpt lat="45.00137" lon="3.22028">
        <ele>908.13264</ele>
        <time>2021-07-09T11:34:43+0200</time>
      </trkpt>
      <trkpt lat="45.00141" lon="3.22037">
        <ele>910.219623</ele>
        <time>2021-07-09T11:34:45+0200</time>
      </trkpt>
      <trkpt lat="45.00144" lon="3.22046">
        <ele>911.35965</ele>
        <time>2021-07-09T11:34:47+0200</time>
      </trkpt>
      <trkpt lat="45.00147" lon="3.22055">
        <ele>912.671059</ele>
        <time>2021-07-09T11:34:49+0200</time>
      </trkpt>
      <trkpt lat="45.00151" lon="3.22064">
        <ele>912.366138</ele>
        <time>2021-07-09T11:34:51+0200</time>
      </trkpt>
      <trkpt lat="45.00154" lon="3.22073">
        <ele>911.917373</ele>
        <time>2021-07-09T11:34:53+0200</time>
      </trkpt>
      <trkpt lat="45.00157" lon="3.22081">
        <ele>911.203063</ele>
        <time>2021-07-09T11:34:55+0200</time>
      </trkpt>
      <trkpt lat="45.00161" lon="3.2209">
        <ele>910.819905</ele>
        <time>2021-07-09T11:34:57+0200</time>
      </trkpt>
      <trkpt lat="45.00166" lon="3.22098">
        <ele>912.361532</ele>
        <time>2021-07-09T11:34:59+0200</time>
      </trkpt>
      <trkpt lat="45.00169" lon="3.22108">
        <ele>914.155264</ele>
        <time>2021-07-09T11:35:01+0200</time>
      </trkpt>
      <trkpt lat="45.00173" lon="3.22118">
        <ele>915.444209</ele>
        <time>2021-07-09T11:35:03+0200</time>
      </trkpt>
      <trkpt lat="45.00177" lon="3.22127">
        <ele>916.037665</ele>
        <time>2021-07-09T11:35:05+0200</time>
      </trkpt>
      <trkpt lat="45.00181" lon="3.22136">
        <ele>917.718359</ele>
        <time>2021-07-09T11:35:07+0200</time>
      </trkpt>
      <trkpt lat="45.00184" lon="3.22144">
        <ele>920.533732</ele>
        <time>2021-07-09T11:35:09+0200</time>
      </trkpt>
      <trkpt lat="45.00186" lon="3.22155">
        <ele>919.132368</ele>
        <time>2021-07-09T11:35:11+0200</time>
      </trkpt>
      <trkpt lat="45.00189" lon="3.22166">
        <ele>918.59369</ele>
        <time>2021-07-09T11:35:13+0200</time>
      </trkpt>
      <trkpt lat="45.00193" lon="3.22176">
        <ele>918.394548</ele>
        <time>2021-07-09T11:35:15+0200</time>
      </trkpt>
      <trkpt lat="45.00196" lon="3.22181">
        <ele>917.509959</ele>
        <time>2021-07-09T11:35:16+0200</time>
      </trkpt>
      <trkpt lat="45.00199" lon="3.22194">
        <ele>916.840573</ele>
        <time>2021-07-09T11:35:18+0200</time>
      </trkpt>
      <trkpt lat="45.00203" lon="3.22206">
        <ele>917.368938</ele>
        <time>2021-07-09T11:35:20+0200</time>
      </trkpt>
      <trkpt lat="45.00207" lon="3.22216">
        <ele>917.726235</ele>
        <time>2021-07-09T11:35:22+0200</time>
      </trkpt>
      <trkpt lat="45.0021" lon="3.22227">
        <ele>917.255521</ele>
        <time>2021-07-09T11:35:24+0200</time>
      </trkpt>
      <trkpt lat="45.00213" lon="3.22238">
        <ele>915.350726</ele>
        <time>2021-07-09T11:35:26+0200</time>
      </trkpt>
      <trkpt lat="45.00216" lon="3.22248">
        <ele>914.594176</ele>
        <time>2021-07-09T11:35:28+0200</time>
      </trkpt>
      <trkpt lat="45.0022" lon="3.22256">
        <ele>913.217377</ele>
        <time>2021-07-09T11:35:30+0200</time>
      </trkpt>
      <trkpt lat="45.00224" lon="3.22267">
        <ele>913.095583</ele>
        <time>2021-07-09T11:35:32+0200</time>
      </trkpt>
      <trkpt lat="45.00227" lon="3.22279">
        <ele>912.707794</ele>
        <time>2021-07-09T11:35:34+0200</time>
      </trkpt>
      <trkpt lat="45.00231" lon="3.2229">
        <ele>911.143753</ele>
        <time>2021-07-09T11:35:36+0200</time>
      </trkpt>
      <trkpt lat="45.00235" lon="3.223">
        <ele>912.645209</ele>
        <time>2021-07-09T11:35:38+0200</time>
      </trkpt>
      <trkpt lat="45.00237" lon="3.22306">
        <ele>912.336506</ele>
        <time>2021-07-09T11:35:39+0200</time>
      </trkpt>
      <trkpt lat="45.00241" lon="3.22316">
        <ele>911.717967</ele>
        <time>2021-07-09T11:35:41+0200</time>
      </trkpt>
      <trkpt lat="45.00243" lon="3.22322">
        <ele>911.399406</ele>
        <time>2021-07-09T11:35:42+0200</time>
      </trkpt>
      <trkpt lat="45.00244" lon="3.22329">
        <ele>910.762478</ele>
        <time>2021-07-09T11:35:43+0200</time>
      </trkpt>
      <trkpt lat="45.00249" lon="3.22339">
        <ele>910.006083</ele>
        <time>2021-07-09T11:35:45+0200</time>
      </trkpt>
      <trkpt lat="45.00257" lon="3.2234">
        <ele>910.686191</ele>
        <time>2021-07-09T11:35:47+0200</time>
      </trkpt>
      <trkpt lat="45.00265" lon="3.22341">
        <ele>911.459634</ele>
        <time>2021-07-09T11:35:49+0200</time>
      </trkpt>
      <trkpt lat="45.0027" lon="3.22342">
        <ele>911.320742</ele>
        <time>2021-07-09T11:35:50+0200</time>
      </trkpt>
      <trkpt lat="45.00278" lon="3.22343">
        <ele>911.961053</ele>
        <time>2021-07-09T11:35:52+0200</time>
      </trkpt>
      <trkpt lat="45.00286" lon="3.22344">
        <ele>913.263343</ele>
        <time>2021-07-09T11:35:54+0200</time>
      </trkpt>
      <trkpt lat="45.00291" lon="3.22343">
        <ele>914.204245</ele>
        <time>2021-07-09T11:35:55+0200</time>
      </trkpt>
      <trkpt lat="45.00298" lon="3.22342">
        <ele>916.202108</ele>
        <time>2021-07-09T11:35:57+0200</time>
      </trkpt>
      <trkpt lat="45.00304" lon="3.22339">
        <ele>918.387645</ele>
        <time>2021-07-09T11:35:59+0200</time>
      </trkpt>
      <trkpt lat="45.00312" lon="3.22338">
        <ele>918.22084</ele>
        <time>2021-07-09T11:36:01+0200</time>
      </trkpt>
      <trkpt lat="45.00317" lon="3.22337">
        <ele>917.868618</ele>
        <time>2021-07-09T11:36:02+0200</time>
      </trkpt>
      <trkpt lat="45.00324" lon="3.22336">
        <ele>918.85112</ele>
        <time>2021-07-09T11:36:04+0200</time>
      </trkpt>
      <trkpt lat="45.00333" lon="3.22333">
        <ele>918.515578</ele>
        <time>2021-07-09T11:36:06+0200</time>
      </trkpt>
      <trkpt lat="45.00342" lon="3.22333">
        <ele>919.944933</ele>
        <time>2021-07-09T11:36:08+0200</time>
      </trkpt>
      <trkpt lat="45.0035" lon="3.22334">
        <ele>922.086351</ele>
        <time>2021-07-09T11:36:10+0200</time>
      </trkpt>
      <trkpt lat="45.00354" lon="3.22334">
        <ele>922.163532</ele>
        <time>2021-07-09T11:36:11+0200</time>
      </trkpt>
      <trkpt lat="45.00362" lon="3.22333">
        <ele>924.897724</ele>
        <time>2021-07-09T11:36:13+0200</time>
      </trkpt>
      <trkpt lat="45.0037" lon="3.22331">
        <ele>922.42606</ele>
        <time>2021-07-09T11:36:15+0200</time>
      </trkpt>
      <trkpt lat="45.00375" lon="3.22334">
        <ele>921.553836</ele>
        <time>2021-07-09T11:36:16+0200</time>
      </trkpt>
      <trkpt lat="45.00379" lon="3.22334">
        <ele>922.818449</ele>
        <time>2021-07-09T11:36:17+0200</time>
      </trkpt>
      <trkpt lat="45.00387" lon="3.22338">
        <ele>922.416854</ele>
        <time>2021-07-09T11:36:19+0200</time>
      </trkpt>
      <trkpt lat="45.00395" lon="3.22344">
        <ele>919.802355</ele>
        <time>2021-07-09T11:36:21+0200</time>
      </trkpt>
      <trkpt lat="45.00402" lon="3.2235">
        <ele>917.086767</ele>
        <time>2021-07-09T11:36:23+0200</time>
      </trkpt>
      <trkpt lat="45.00408" lon="3.22356">
        <ele>915.484285</ele>
        <time>2021-07-09T11:36:25+0200</time>
      </trkpt>
      <trkpt lat="45.00414" lon="3.22364">
        <ele>915.505772</ele>
        <time>2021-07-09T11:36:27+0200</time>
      </trkpt>
      <trkpt lat="45.00419" lon="3.22373">
        <ele>915.677273</ele>
        <time>2021-07-09T11:36:29+0200</time>
      </trkpt>
      <trkpt lat="45.00425" lon="3.22382">
        <ele>915.032286</ele>
        <time>2021-07-09T11:36:31+0200</time>
      </trkpt>
      <trkpt lat="45.00431" lon="3.22389">
        <ele>914.82209</ele>
        <time>2021-07-09T11:36:33+0200</time>
      </trkpt>
      <trkpt lat="45.00436" lon="3.22397">
        <ele>915.395941</ele>
        <time>2021-07-09T11:36:35+0200</time>
      </trkpt>
      <trkpt lat="45.00441" lon="3.22403">
        <ele>914.277249</ele>
        <time>2021-07-09T11:36:37+0200</time>
      </trkpt>
      <trkpt lat="45.00445" lon="3.22409">
        <ele>913.721321</ele>
        <time>2021-07-09T11:36:39+0200</time>
      </trkpt>
      <trkpt lat="45.0045" lon="3.22415">
        <ele>913.233458</ele>
        <time>2021-07-09T11:36:41+0200</time>
      </trkpt>
      <trkpt lat="45.00455" lon="3.22421">
        <ele>912.519682</ele>
        <time>2021-07-09T11:36:43+0200</time>
      </trkpt>
      <trkpt lat="45.0046" lon="3.22428">
        <ele>912.665658</ele>
        <time>2021-07-09T11:36:45+0200</time>
      </trkpt>
      <trkpt lat="45.00465" lon="3.22435">
        <ele>912.037585</ele>
        <time>2021-07-09T11:36:47+0200</time>
      </trkpt>
      <trkpt lat="45.00471" lon="3.22441">
        <ele>911.642768</ele>
        <time>2021-07-09T11:36:49+0200</time>
      </trkpt>
      <trkpt lat="45.00476" lon="3.22447">
        <ele>911.86685</ele>
        <time>2021-07-09T11:36:51+0200</time>
      </trkpt>
      <trkpt lat="45.00481" lon="3.22454">
        <ele>912.612093</ele>
        <time>2021-07-09T11:36:53+0200</time>
      </trkpt>
      <trkpt lat="45.00486" lon="3.2246">
        <ele>914.328611</ele>
        <time>2021-07-09T11:36:55+0200</time>
      </trkpt>
      <trkpt lat="45.00491" lon="3.22468">
        <ele>914.88209</ele>
        <time>2021-07-09T11:36:57+0200</time>
      </trkpt>
      <trkpt lat="45.00496" lon="3.22474">
        <ele>917.422519</ele>
        <time>2021-07-09T11:36:59+0200</time>
      </trkpt>
      <trkpt lat="45.005" lon="3.22482">
        <ele>919.198131</ele>
        <time>2021-07-09T11:37:01+0200</time>
      </trkpt>
      <trkpt lat="45.00505" lon="3.22491">
        <ele>919.866473</ele>
        <time>2021-07-09T11:37:03+0200</time>
      </trkpt>
      <trkpt lat="45.00509" lon="3.22501">
        <ele>919.929463</ele>
        <time>2021-07-09T11:37:05+0200</time>
      </trkpt>
      <trkpt lat="45.00511" lon="3.22506">
        <ele>919.649683</ele>
        <time>2021-07-09T11:37:06+0200</time>
      </trkpt>
      <trkpt lat="45.00514" lon="3.22516">
        <ele>918.468639</ele>
        <time>2021-07-09T11:37:08+0200</time>
      </trkpt>
      <trkpt lat="45.00517" lon="3.22526">
        <ele>917.085004</ele>
        <time>2021-07-09T11:37:10+0200</time>
      </trkpt>
      <trkpt lat="45.0052" lon="3.22535">
        <ele>915.990839</ele>
        <time>2021-07-09T11:37:12+0200</time>
      </trkpt>
      <trkpt lat="45.00524" lon="3.22544">
        <ele>915.242826</ele>
        <time>2021-07-09T11:37:14+0200</time>
      </trkpt>
      <trkpt lat="45.00529" lon="3.22553">
        <ele>915.527746</ele>
        <time>2021-07-09T11:37:16+0200</time>
      </trkpt>
      <trkpt lat="45.00534" lon="3.22561">
        <ele>915.397319</ele>
        <time>2021-07-09T11:37:18+0200</time>
      </trkpt>
      <trkpt lat="45.00539" lon="3.22568">
        <ele>914.94362</ele>
        <time>2021-07-09T11:37:20+0200</time>
      </trkpt>
      <trkpt lat="45.00543" lon="3.22574">
        <ele>914.671379</ele>
        <time>2021-07-09T11:37:22+0200</time>
      </trkpt>
      <trkpt lat="45.00547" lon="3.2258">
        <ele>915.03591</ele>
        <time>2021-07-09T11:37:24+0200</time>
      </trkpt>
      <trkpt lat="45.00552" lon="3.22588">
        <ele>915.161358</ele>
        <time>2021-07-09T11:37:26+0200</time>
      </trkpt>
      <trkpt lat="45.00556" lon="3.22593">
        <ele>914.701959</ele>
        <time>2021-07-09T11:37:28+0200</time>
      </trkpt>
      <trkpt lat="45.00562" lon="3.22597">
        <ele>914.811391</ele>
        <time>2021-07-09T11:37:30+0200</time>
      </trkpt>
      <trkpt lat="45.00567" lon="3.22604">
        <ele>915.512264</ele>
        <time>2021-07-09T11:37:32+0200</time>
      </trkpt>
      <trkpt lat="45.00572" lon="3.22609">
        <ele>915.952077</ele>
        <time>2021-07-09T11:37:34+0200</time>
      </trkpt>
      <trkpt lat="45.00577" lon="3.22615">
        <ele>916.091879</ele>
        <time>2021-07-09T11:37:36+0200</time>
      </trkpt>
      <trkpt lat="45.00581" lon="3.22619">
        <ele>916.01845</ele>
        <time>2021-07-09T11:37:38+0200</time>
      </trkpt>
      <trkpt lat="45.00586" lon="3.22623">
        <ele>917.204549</ele>
        <time>2021-07-09T11:37:40+0200</time>
      </trkpt>
      <trkpt lat="45.00591" lon="3.22628">
        <ele>917.753653</ele>
        <time>2021-07-09T11:37:42+0200</time>
      </trkpt>
      <trkpt lat="45.00596" lon="3.22633">
        <ele>918.305895</ele>
        <time>2021-07-09T11:37:44+0200</time>
      </trkpt>
      <trkpt lat="45.00601" lon="3.22638">
        <ele>918.924195</ele>
        <time>2021-07-09T11:37:46+0200</time>
      </trkpt>
      <trkpt lat="45.00607" lon="3.22642">
        <ele>919.135193</ele>
        <time>2021-07-09T11:37:48+0200</time>
      </trkpt>
      <trkpt lat="45.00613" lon="3.22647">
        <ele>918.781722</ele>
        <time>2021-07-09T11:37:50+0200</time>
      </trkpt>
      <trkpt lat="45.00619" lon="3.22651">
        <ele>919.443274</ele>
        <time>2021-07-09T11:37:52+0200</time>
      </trkpt>
      <trkpt lat="45.00625" lon="3.22656">
        <ele>919.735764</ele>
        <time>2021-07-09T11:37:54+0200</time>
      </trkpt>
      <trkpt lat="45.0063" lon="3.2266">
        <ele>919.909039</ele>
        <time>2021-07-09T11:37:56+0200</time>
      </trkpt>
      <trkpt lat="45.00636" lon="3.22663">
        <ele>919.444667</ele>
        <time>2021-07-09T11:37:58+0200</time>
      </trkpt>
      <trkpt lat="45.00643" lon="3.22666">
        <ele>919.955698</ele>
        <time>2021-07-09T11:38:00+0200</time>
      </trkpt>
      <trkpt lat="45.00649" lon="3.2267">
        <ele>919.405636</ele>
        <time>2021-07-09T11:38:02+0200</time>
      </trkpt>
      <trkpt lat="45.00654" lon="3.22674">
        <ele>920.141494</ele>
        <time>2021-07-09T11:38:04+0200</time>
      </trkpt>
      <trkpt lat="45.00659" lon="3.22677">
        <ele>920.437514</ele>
        <time>2021-07-09T11:38:06+0200</time>
      </trkpt>
      <trkpt lat="45.00664" lon="3.2268">
        <ele>920.42967</ele>
        <time>2021-07-09T11:38:08+0200</time>
      </trkpt>
      <trkpt lat="45.0067" lon="3.22683">
        <ele>920.202546</ele>
        <time>2021-07-09T11:38:11+0200</time>
      </trkpt>
      <trkpt lat="45.00675" lon="3.22686">
        <ele>920.922369</ele>
        <time>2021-07-09T11:38:13+0200</time>
      </trkpt>
      <trkpt lat="45.0068" lon="3.22689">
        <ele>920.872987</ele>
        <time>2021-07-09T11:38:15+0200</time>
      </trkpt>
      <trkpt lat="45.00685" lon="3.22691">
        <ele>920.44025</ele>
        <time>2021-07-09T11:38:17+0200</time>
      </trkpt>
      <trkpt lat="45.0069" lon="3.22693">
        <ele>921.378955</ele>
        <time>2021-07-09T11:38:19+0200</time>
      </trkpt>
      <trkpt lat="45.00696" lon="3.22695">
        <ele>921.766444</ele>
        <time>2021-07-09T11:38:21+0200</time>
      </trkpt>
      <trkpt lat="45.00702" lon="3.22697">
        <ele>921.63693</ele>
        <time>2021-07-09T11:38:23+0200</time>
      </trkpt>
      <trkpt lat="45.00708" lon="3.22699">
        <ele>921.558545</ele>
        <time>2021-07-09T11:38:25+0200</time>
      </trkpt>
      <trkpt lat="45.00714" lon="3.22699">
        <ele>922.341282</ele>
        <time>2021-07-09T11:38:27+0200</time>
      </trkpt>
      <trkpt lat="45.00721" lon="3.22701">
        <ele>922.432818</ele>
        <time>2021-07-09T11:38:29+0200</time>
      </trkpt>
      <trkpt lat="45.00727" lon="3.22701">
        <ele>922.770665</ele>
        <time>2021-07-09T11:38:31+0200</time>
      </trkpt>
      <trkpt lat="45.00733" lon="3.22703">
        <ele>923.019704</ele>
        <time>2021-07-09T11:38:33+0200</time>
      </trkpt>
      <trkpt lat="45.0074" lon="3.22704">
        <ele>923.334118</ele>
        <time>2021-07-09T11:38:35+0200</time>
      </trkpt>
      <trkpt lat="45.00747" lon="3.22706">
        <ele>923.866841</ele>
        <time>2021-07-09T11:38:37+0200</time>
      </trkpt>
      <trkpt lat="45.00753" lon="3.22706">
        <ele>924.33899</ele>
        <time>2021-07-09T11:38:39+0200</time>
      </trkpt>
      <trkpt lat="45.0076" lon="3.22708">
        <ele>924.900241</ele>
        <time>2021-07-09T11:38:41+0200</time>
      </trkpt>
      <trkpt lat="45.00767" lon="3.22708">
        <ele>925.248751</ele>
        <time>2021-07-09T11:38:43+0200</time>
      </trkpt>
      <trkpt lat="45.00774" lon="3.22709">
        <ele>926.306898</ele>
        <time>2021-07-09T11:38:45+0200</time>
      </trkpt>
      <trkpt lat="45.0078" lon="3.2271">
        <ele>926.569229</ele>
        <time>2021-07-09T11:38:47+0200</time>
      </trkpt>
      <trkpt lat="45.00787" lon="3.22711">
        <ele>926.70311</ele>
        <time>2021-07-09T11:38:49+0200</time>
      </trkpt>
      <trkpt lat="45.00794" lon="3.22712">
        <ele>927.197144</ele>
        <time>2021-07-09T11:38:51+0200</time>
      </trkpt>
      <trkpt lat="45.00801" lon="3.22712">
        <ele>927.343579</ele>
        <time>2021-07-09T11:38:53+0200</time>
      </trkpt>
      <trkpt lat="45.00808" lon="3.22713">
        <ele>927.513339</ele>
        <time>2021-07-09T11:38:55+0200</time>
      </trkpt>
      <trkpt lat="45.00815" lon="3.22714">
        <ele>927.657645</ele>
        <time>2021-07-09T11:38:57+0200</time>
      </trkpt>
      <trkpt lat="45.00822" lon="3.22715">
        <ele>927.852147</ele>
        <time>2021-07-09T11:38:59+0200</time>
      </trkpt>
      <trkpt lat="45.00829" lon="3.22716">
        <ele>928.390132</ele>
        <time>2021-07-09T11:39:01+0200</time>
      </trkpt>
      <trkpt lat="45.00836" lon="3.22719">
        <ele>928.62864</ele>
        <time>2021-07-09T11:39:03+0200</time>
      </trkpt>
      <trkpt lat="45.00842" lon="3.22723">
        <ele>928.313336</ele>
        <time>2021-07-09T11:39:05+0200</time>
      </trkpt>
      <trkpt lat="45.00848" lon="3.22729">
        <ele>928.035413</ele>
        <time>2021-07-09T11:39:07+0200</time>
      </trkpt>
      <trkpt lat="45.00853" lon="3.22735">
        <ele>928.180156</ele>
        <time>2021-07-09T11:39:09+0200</time>
      </trkpt>
      <trkpt lat="45.00857" lon="3.22741">
        <ele>928.194922</ele>
        <time>2021-07-09T11:39:11+0200</time>
      </trkpt>
      <trkpt lat="45.00861" lon="3.22746">
        <ele>927.759267</ele>
        <time>2021-07-09T11:39:13+0200</time>
      </trkpt>
      <trkpt lat="45.00866" lon="3.22751">
        <ele>927.295838</ele>
        <time>2021-07-09T11:39:15+0200</time>
      </trkpt>
      <trkpt lat="45.00868" lon="3.22757">
        <ele>927.492848</ele>
        <time>2021-07-09T11:39:17+0200</time>
      </trkpt>
      <trkpt lat="45.0087" lon="3.22764">
        <ele>927.1462</ele>
        <time>2021-07-09T11:39:19+0200</time>
      </trkpt>
      <trkpt lat="45.00875" lon="3.22772">
        <ele>926.514262</ele>
        <time>2021-07-09T11:39:21+0200</time>
      </trkpt>
      <trkpt lat="45.00879" lon="3.2278">
        <ele>925.877356</ele>
        <time>2021-07-09T11:39:23+0200</time>
      </trkpt>
      <trkpt lat="45.00884" lon="3.22785">
        <ele>925.351835</ele>
        <time>2021-07-09T11:39:25+0200</time>
      </trkpt>
      <trkpt lat="45.0089" lon="3.2279">
        <ele>925.334428</ele>
        <time>2021-07-09T11:39:27+0200</time>
      </trkpt>
      <trkpt lat="45.00894" lon="3.22794">
        <ele>924.743393</ele>
        <time>2021-07-09T11:39:28+0200</time>
      </trkpt>
      <trkpt lat="45.009" lon="3.228">
        <ele>924.851453</ele>
        <time>2021-07-09T11:39:30+0200</time>
      </trkpt>
      <trkpt lat="45.00907" lon="3.22805">
        <ele>925.195794</ele>
        <time>2021-07-09T11:39:32+0200</time>
      </trkpt>
      <trkpt lat="45.00913" lon="3.2281">
        <ele>925.372995</ele>
        <time>2021-07-09T11:39:34+0200</time>
      </trkpt>
      <trkpt lat="45.00919" lon="3.22817">
        <ele>925.038185</ele>
        <time>2021-07-09T11:39:36+0200</time>
      </trkpt>
      <trkpt lat="45.00924" lon="3.22823">
        <ele>924.284875</ele>
        <time>2021-07-09T11:39:38+0200</time>
      </trkpt>
      <trkpt lat="45.0093" lon="3.22829">
        <ele>923.589738</ele>
        <time>2021-07-09T11:39:40+0200</time>
      </trkpt>
      <trkpt lat="45.00935" lon="3.22837">
        <ele>923.33732</ele>
        <time>2021-07-09T11:39:42+0200</time>
      </trkpt>
      <trkpt lat="45.00938" lon="3.22843">
        <ele>923.218339</ele>
        <time>2021-07-09T11:39:43+0200</time>
      </trkpt>
      <trkpt lat="45.00941" lon="3.2285">
        <ele>922.521863</ele>
        <time>2021-07-09T11:39:44+0200</time>
      </trkpt>
      <trkpt lat="45.00945" lon="3.22855">
        <ele>922.143342</ele>
        <time>2021-07-09T11:39:45+0200</time>
      </trkpt>
      <trkpt lat="45.00949" lon="3.22861">
        <ele>922.007423</ele>
        <time>2021-07-09T11:39:46+0200</time>
      </trkpt>
      <trkpt lat="45.00952" lon="3.22867">
        <ele>921.537652</ele>
        <time>2021-07-09T11:39:47+0200</time>
      </trkpt>
      <trkpt lat="45.00956" lon="3.22874">
        <ele>920.923116</ele>
        <time>2021-07-09T11:39:48+0200</time>
      </trkpt>
      <trkpt lat="45.0096" lon="3.22881">
        <ele>920.097724</ele>
        <time>2021-07-09T11:39:49+0200</time>
      </trkpt>
      <trkpt lat="45.00964" lon="3.22887">
        <ele>918.914467</ele>
        <time>2021-07-09T11:39:50+0200</time>
      </trkpt>
      <trkpt lat="45.00968" lon="3.22891">
        <ele>918.856147</ele>
        <time>2021-07-09T11:39:51+0200</time>
      </trkpt>
      <trkpt lat="45.00972" lon="3.22899">
        <ele>918.083732</ele>
        <time>2021-07-09T11:39:52+0200</time>
      </trkpt>
      <trkpt lat="45.00975" lon="3.22906">
        <ele>917.075689</ele>
        <time>2021-07-09T11:39:53+0200</time>
      </trkpt>
      <trkpt lat="45.00978" lon="3.22914">
        <ele>916.076733</ele>
        <time>2021-07-09T11:39:54+0200</time>
      </trkpt>
      <trkpt lat="45.0098" lon="3.22924">
        <ele>914.736352</ele>
        <time>2021-07-09T11:39:55+0200</time>
      </trkpt>
      <trkpt lat="45.0098" lon="3.22934">
        <ele>913.783144</ele>
        <time>2021-07-09T11:39:56+0200</time>
      </trkpt>
      <trkpt lat="45.00979" lon="3.22946">
        <ele>912.631367</ele>
        <time>2021-07-09T11:39:57+0200</time>
      </trkpt>
      <trkpt lat="45.00978" lon="3.22957">
        <ele>911.894618</ele>
        <time>2021-07-09T11:39:58+0200</time>
      </trkpt>
      <trkpt lat="45.00977" lon="3.22969">
        <ele>911.42591</ele>
        <time>2021-07-09T11:39:59+0200</time>
      </trkpt>
      <trkpt lat="45.00977" lon="3.22984">
        <ele>909.402835</ele>
        <time>2021-07-09T11:40:00+0200</time>
      </trkpt>
      <trkpt lat="45.00976" lon="3.22997">
        <ele>907.753481</ele>
        <time>2021-07-09T11:40:01+0200</time>
      </trkpt>
      <trkpt lat="45.00976" lon="3.23009">
        <ele>906.672631</ele>
        <time>2021-07-09T11:40:02+0200</time>
      </trkpt>
      <trkpt lat="45.00976" lon="3.23019">
        <ele>905.277688</ele>
        <time>2021-07-09T11:40:03+0200</time>
      </trkpt>
      <trkpt lat="45.00975" lon="3.23029">
        <ele>904.362048</ele>
        <time>2021-07-09T11:40:04+0200</time>
      </trkpt>
      <trkpt lat="45.00973" lon="3.23039">
        <ele>903.584889</ele>
        <time>2021-07-09T11:40:05+0200</time>
      </trkpt>
      <trkpt lat="45.00972" lon="3.23047">
        <ele>902.944581</ele>
        <time>2021-07-09T11:40:06+0200</time>
      </trkpt>
      <trkpt lat="45.00975" lon="3.23056">
        <ele>902.414505</ele>
        <time>2021-07-09T11:40:07+0200</time>
      </trkpt>
      <trkpt lat="45.00979" lon="3.23065">
        <ele>902.031014</ele>
        <time>2021-07-09T11:40:08+0200</time>
      </trkpt>
      <trkpt lat="45.00986" lon="3.23073">
        <ele>902.405761</ele>
        <time>2021-07-09T11:40:09+0200</time>
      </trkpt>
      <trkpt lat="45.00994" lon="3.23078">
        <ele>902.018309</ele>
        <time>2021-07-09T11:40:10+0200</time>
      </trkpt>
      <trkpt lat="45.01002" lon="3.23082">
        <ele>902.016263</ele>
        <time>2021-07-09T11:40:11+0200</time>
      </trkpt>
      <trkpt lat="45.0101" lon="3.23082">
        <ele>901.764936</ele>
        <time>2021-07-09T11:40:12+0200</time>
      </trkpt>
      <trkpt lat="45.01016" lon="3.2308">
        <ele>901.518161</ele>
        <time>2021-07-09T11:40:13+0200</time>
      </trkpt>
      <trkpt lat="45.01023" lon="3.23084">
        <ele>901.831855</ele>
        <time>2021-07-09T11:40:15+0200</time>
      </trkpt>
      <trkpt lat="45.01023" lon="3.231">
        <ele>895.759804</ele>
        <time>2021-07-09T11:40:17+0200</time>
      </trkpt>
      <trkpt lat="45.01018" lon="3.23107">
        <ele>896.239259</ele>
        <time>2021-07-09T11:40:18+0200</time>
      </trkpt>
      <trkpt lat="45.01015" lon="3.23113">
        <ele>896.245505</ele>
        <time>2021-07-09T11:40:19+0200</time>
      </trkpt>
      <trkpt lat="45.01008" lon="3.23123">
        <ele>896.068032</ele>
        <time>2021-07-09T11:40:21+0200</time>
      </trkpt>
      <trkpt lat="45.01004" lon="3.23129">
        <ele>896.564959</ele>
        <time>2021-07-09T11:40:22+0200</time>
      </trkpt>
      <trkpt lat="45.01001" lon="3.23136">
        <ele>896.470886</ele>
        <time>2021-07-09T11:40:23+0200</time>
      </trkpt>
      <trkpt lat="45.00996" lon="3.23142">
        <ele>897.940995</ele>
        <time>2021-07-09T11:40:24+0200</time>
      </trkpt>
      <trkpt lat="45.00992" lon="3.23145">
        <ele>900.34738</ele>
        <time>2021-07-09T11:40:25+0200</time>
      </trkpt>
      <trkpt lat="45.00987" lon="3.23148">
        <ele>900.796829</ele>
        <time>2021-07-09T11:40:26+0200</time>
      </trkpt>
      <trkpt lat="45.00981" lon="3.23149">
        <ele>900.50447</ele>
        <time>2021-07-09T11:40:28+0200</time>
      </trkpt>
      <trkpt lat="45.00975" lon="3.23153">
        <ele>900.14516</ele>
        <time>2021-07-09T11:40:31+0200</time>
      </trkpt>
      <trkpt lat="45.00971" lon="3.23159">
        <ele>900.950984</ele>
        <time>2021-07-09T11:40:34+0200</time>
      </trkpt>
      <trkpt lat="45.00967" lon="3.23163">
        <ele>900.733021</ele>
        <time>2021-07-09T11:40:36+0200</time>
      </trkpt>
      <trkpt lat="45.00964" lon="3.2317">
        <ele>902.017706</ele>
        <time>2021-07-09T11:40:40+0200</time>
      </trkpt>
      <trkpt lat="45.00961" lon="3.23176">
        <ele>902.640694</ele>
        <time>2021-07-09T11:40:44+0200</time>
      </trkpt>
      <trkpt lat="45.00959" lon="3.23183">
        <ele>903.110722</ele>
        <time>2021-07-09T11:40:48+0200</time>
      </trkpt>
      <trkpt lat="45.00956" lon="3.23189">
        <ele>904.674625</ele>
        <time>2021-07-09T11:40:52+0200</time>
      </trkpt>
      <trkpt lat="45.00954" lon="3.23195">
        <ele>906.190226</ele>
        <time>2021-07-09T11:40:55+0200</time>
      </trkpt>
      <trkpt lat="45.00951" lon="3.23201">
        <ele>907.557782</ele>
        <time>2021-07-09T11:40:59+0200</time>
      </trkpt>
      <trkpt lat="45.00947" lon="3.23204">
        <ele>908.343082</ele>
        <time>2021-07-09T11:41:02+0200</time>
      </trkpt>
      <trkpt lat="45.00944" lon="3.2321">
        <ele>910.145119</ele>
        <time>2021-07-09T11:41:06+0200</time>
      </trkpt>
      <trkpt lat="45.00941" lon="3.23216">
        <ele>911.184318</ele>
        <time>2021-07-09T11:41:10+0200</time>
      </trkpt>
      <trkpt lat="45.00939" lon="3.23223">
        <ele>910.882073</ele>
        <time>2021-07-09T11:41:14+0200</time>
      </trkpt>
      <trkpt lat="45.00936" lon="3.23228">
        <ele>910.50535</ele>
        <time>2021-07-09T11:41:17+0200</time>
      </trkpt>
      <trkpt lat="45.00934" lon="3.23235">
        <ele>909.812328</ele>
        <time>2021-07-09T11:41:21+0200</time>
      </trkpt>
      <trkpt lat="45.00934" lon="3.23242">
        <ele>909.868492</ele>
        <time>2021-07-09T11:41:25+0200</time>
      </trkpt>
      <trkpt lat="45.00933" lon="3.23249">
        <ele>909.226335</ele>
        <time>2021-07-09T11:41:28+0200</time>
      </trkpt>
      <trkpt lat="45.00931" lon="3.23257">
        <ele>909.727119</ele>
        <time>2021-07-09T11:41:32+0200</time>
      </trkpt>
      <trkpt lat="45.0093" lon="3.23266">
        <ele>909.907974</ele>
        <time>2021-07-09T11:41:35+0200</time>
      </trkpt>
      <trkpt lat="45.00928" lon="3.23273">
        <ele>910.680868</ele>
        <time>2021-07-09T11:41:38+0200</time>
      </trkpt>
      <trkpt lat="45.00926" lon="3.23279">
        <ele>910.816136</ele>
        <time>2021-07-09T11:41:40+0200</time>
      </trkpt>
      <trkpt lat="45.00923" lon="3.23288">
        <ele>911.051942</ele>
        <time>2021-07-09T11:41:43+0200</time>
      </trkpt>
      <trkpt lat="45.00921" lon="3.23295">
        <ele>911.1744</ele>
        <time>2021-07-09T11:41:45+0200</time>
      </trkpt>
      <trkpt lat="45.00919" lon="3.23301">
        <ele>911.641067</ele>
        <time>2021-07-09T11:41:47+0200</time>
      </trkpt>
      <trkpt lat="45.00917" lon="3.23306">
        <ele>912.253015</ele>
        <time>2021-07-09T11:41:49+0200</time>
      </trkpt>
      <trkpt lat="45.00915" lon="3.23313">
        <ele>912.782968</ele>
        <time>2021-07-09T11:41:51+0200</time>
      </trkpt>
      <trkpt lat="45.00914" lon="3.2332">
        <ele>913.107086</ele>
        <time>2021-07-09T11:41:53+0200</time>
      </trkpt>
      <trkpt lat="45.00912" lon="3.23326">
        <ele>913.139733</ele>
        <time>2021-07-09T11:41:55+0200</time>
      </trkpt>
      <trkpt lat="45.00911" lon="3.23333">
        <ele>913.506106</ele>
        <time>2021-07-09T11:41:57+0200</time>
      </trkpt>
      <trkpt lat="45.0091" lon="3.23339">
        <ele>913.611212</ele>
        <time>2021-07-09T11:41:59+0200</time>
      </trkpt>
      <trkpt lat="45.00908" lon="3.23346">
        <ele>913.491036</ele>
        <time>2021-07-09T11:42:01+0200</time>
      </trkpt>
      <trkpt lat="45.00906" lon="3.23352">
        <ele>914.03303</ele>
        <time>2021-07-09T11:42:03+0200</time>
      </trkpt>
      <trkpt lat="45.00905" lon="3.23358">
        <ele>914.397685</ele>
        <time>2021-07-09T11:42:05+0200</time>
      </trkpt>
      <trkpt lat="45.00903" lon="3.23367">
        <ele>914.979299</ele>
        <time>2021-07-09T11:42:08+0200</time>
      </trkpt>
      <trkpt lat="45.00902" lon="3.23373">
        <ele>915.615952</ele>
        <time>2021-07-09T11:42:10+0200</time>
      </trkpt>
      <trkpt lat="45.009" lon="3.23382">
        <ele>916.475428</ele>
        <time>2021-07-09T11:42:13+0200</time>
      </trkpt>
      <trkpt lat="45.00898" lon="3.23389">
        <ele>917.111277</ele>
        <time>2021-07-09T11:42:16+0200</time>
      </trkpt>
      <trkpt lat="45.00897" lon="3.23398">
        <ele>915.693122</ele>
        <time>2021-07-09T11:44:24+0200</time>
      </trkpt>
      <trkpt lat="45.00896" lon="3.23406">
        <ele>915.276119</ele>
        <time>2021-07-09T11:44:26+0200</time>
      </trkpt>
      <trkpt lat="45.00895" lon="3.23417">
        <ele>914.154155</ele>
        <time>2021-07-09T11:44:28+0200</time>
      </trkpt>
      <trkpt lat="45.00894" lon="3.23423">
        <ele>914.085741</ele>
        <time>2021-07-09T11:44:29+0200</time>
      </trkpt>
      <trkpt lat="45.00893" lon="3.23429">
        <ele>913.831507</ele>
        <time>2021-07-09T11:44:30+0200</time>
      </trkpt>
      <trkpt lat="45.00891" lon="3.23436">
        <ele>913.950494</ele>
        <time>2021-07-09T11:44:31+0200</time>
      </trkpt>
      <trkpt lat="45.0089" lon="3.23444">
        <ele>913.29736</ele>
        <time>2021-07-09T11:44:32+0200</time>
      </trkpt>
      <trkpt lat="45.0089" lon="3.23453">
        <ele>912.859284</ele>
        <time>2021-07-09T11:44:33+0200</time>
      </trkpt>
      <trkpt lat="45.0089" lon="3.23463">
        <ele>912.102267</ele>
        <time>2021-07-09T11:44:34+0200</time>
      </trkpt>
      <trkpt lat="45.0089" lon="3.23472">
        <ele>911.747661</ele>
        <time>2021-07-09T11:44:35+0200</time>
      </trkpt>
      <trkpt lat="45.0089" lon="3.23483">
        <ele>910.935023</ele>
        <time>2021-07-09T11:44:36+0200</time>
      </trkpt>
      <trkpt lat="45.00891" lon="3.23494">
        <ele>910.161269</ele>
        <time>2021-07-09T11:44:37+0200</time>
      </trkpt>
      <trkpt lat="45.00895" lon="3.23505">
        <ele>909.825615</ele>
        <time>2021-07-09T11:44:38+0200</time>
      </trkpt>
      <trkpt lat="45.009" lon="3.23515">
        <ele>909.295181</ele>
        <time>2021-07-09T11:44:39+0200</time>
      </trkpt>
      <trkpt lat="45.00906" lon="3.23525">
        <ele>909.543664</ele>
        <time>2021-07-09T11:44:40+0200</time>
      </trkpt>
      <trkpt lat="45.00913" lon="3.23534">
        <ele>909.005463</ele>
        <time>2021-07-09T11:44:41+0200</time>
      </trkpt>
      <trkpt lat="45.00919" lon="3.23544">
        <ele>909.486623</ele>
        <time>2021-07-09T11:44:42+0200</time>
      </trkpt>
      <trkpt lat="45.00922" lon="3.23553">
        <ele>909.740601</ele>
        <time>2021-07-09T11:44:43+0200</time>
      </trkpt>
      <trkpt lat="45.00925" lon="3.23561">
        <ele>910.683276</ele>
        <time>2021-07-09T11:44:44+0200</time>
      </trkpt>
      <trkpt lat="45.00925" lon="3.23568">
        <ele>911.972731</ele>
        <time>2021-07-09T11:44:45+0200</time>
      </trkpt>
      <trkpt lat="45.00923" lon="3.23576">
        <ele>912.506766</ele>
        <time>2021-07-09T11:44:47+0200</time>
      </trkpt>
      <trkpt lat="45.00922" lon="3.23583">
        <ele>914.719925</ele>
        <time>2021-07-09T11:44:51+0200</time>
      </trkpt>
      <trkpt lat="45.00921" lon="3.2359">
        <ele>917.567447</ele>
        <time>2021-07-09T11:44:55+0200</time>
      </trkpt>
      <trkpt lat="45.00922" lon="3.23597">
        <ele>918.559802</ele>
        <time>2021-07-09T11:44:58+0200</time>
      </trkpt>
      <trkpt lat="45.00922" lon="3.23604">
        <ele>920.252571</ele>
        <time>2021-07-09T11:45:02+0200</time>
      </trkpt>
      <trkpt lat="45.00925" lon="3.23608">
        <ele>919.752834</ele>
        <time>2021-07-09T11:45:08+0200</time>
      </trkpt>
      <trkpt lat="45.00926" lon="3.23615">
        <ele>920.150338</ele>
        <time>2021-07-09T11:45:13+0200</time>
      </trkpt>
      <trkpt lat="45.00926" lon="3.23623">
        <ele>921.656115</ele>
        <time>2021-07-09T11:45:20+0200</time>
      </trkpt>
      <trkpt lat="45.00925" lon="3.2363">
        <ele>924.549391</ele>
        <time>2021-07-09T11:45:28+0200</time>
      </trkpt>
      <trkpt lat="45.00925" lon="3.23637">
        <ele>924.448352</ele>
        <time>2021-07-09T11:45:37+0200</time>
      </trkpt>
      <trkpt lat="45.00925" lon="3.23645">
        <ele>924.543841</ele>
        <time>2021-07-09T11:45:43+0200</time>
      </trkpt>
      <trkpt lat="45.00926" lon="3.23651">
        <ele>923.888384</ele>
        <time>2021-07-09T11:45:48+0200</time>
      </trkpt>
      <trkpt lat="45.00928" lon="3.23658">
        <ele>923.751563</ele>
        <time>2021-07-09T11:45:53+0200</time>
      </trkpt>
      <trkpt lat="45.0093" lon="3.23664">
        <ele>923.657947</ele>
        <time>2021-07-09T11:45:58+0200</time>
      </trkpt>
      <trkpt lat="45.00933" lon="3.2367">
        <ele>925.638747</ele>
        <time>2021-07-09T11:46:04+0200</time>
      </trkpt>
      <trkpt lat="45.00935" lon="3.23676">
        <ele>927.502751</ele>
        <time>2021-07-09T11:46:08+0200</time>
      </trkpt>
      <trkpt lat="45.00936" lon="3.23684">
        <ele>928.243656</ele>
        <time>2021-07-09T11:46:14+0200</time>
      </trkpt>
      <trkpt lat="45.00939" lon="3.2369">
        <ele>929.178686</ele>
        <time>2021-07-09T11:46:20+0200</time>
      </trkpt>
      <trkpt lat="45.00941" lon="3.23697">
        <ele>928.423308</ele>
        <time>2021-07-09T11:46:27+0200</time>
      </trkpt>
      <trkpt lat="45.00941" lon="3.23704">
        <ele>930.615629</ele>
        <time>2021-07-09T11:46:35+0200</time>
      </trkpt>
      <trkpt lat="45.00941" lon="3.2371">
        <ele>931.53568</ele>
        <time>2021-07-09T11:46:40+0200</time>
      </trkpt>
      <trkpt lat="45.00943" lon="3.23717">
        <ele>929.917328</ele>
        <time>2021-07-09T11:46:48+0200</time>
      </trkpt>
      <trkpt lat="45.00946" lon="3.23723">
        <ele>931.106517</ele>
        <time>2021-07-09T11:46:54+0200</time>
      </trkpt>
      <trkpt lat="45.00949" lon="3.2373">
        <ele>933.532095</ele>
        <time>2021-07-09T11:46:59+0200</time>
      </trkpt>
      <trkpt lat="45.00952" lon="3.23736">
        <ele>935.553445</ele>
        <time>2021-07-09T11:47:03+0200</time>
      </trkpt>
      <trkpt lat="45.00952" lon="3.23743">
        <ele>936.206999</ele>
        <time>2021-07-09T11:47:06+0200</time>
      </trkpt>
      <trkpt lat="45.00954" lon="3.23749">
        <ele>938.311938</ele>
        <time>2021-07-09T11:47:09+0200</time>
      </trkpt>
      <trkpt lat="45.00956" lon="3.23757">
        <ele>939.254587</ele>
        <time>2021-07-09T11:47:13+0200</time>
      </trkpt>
      <trkpt lat="45.00956" lon="3.23765">
        <ele>939.197349</ele>
        <time>2021-07-09T11:47:17+0200</time>
      </trkpt>
      <trkpt lat="45.00959" lon="3.23772">
        <ele>939.870343</ele>
        <time>2021-07-09T11:47:21+0200</time>
      </trkpt>
      <trkpt lat="45.0096" lon="3.23778">
        <ele>940.966632</ele>
        <time>2021-07-09T11:47:24+0200</time>
      </trkpt>
      <trkpt lat="45.00961" lon="3.23786">
        <ele>941.701382</ele>
        <time>2021-07-09T11:47:28+0200</time>
      </trkpt>
      <trkpt lat="45.00963" lon="3.23793">
        <ele>942.186808</ele>
        <time>2021-07-09T11:47:31+0200</time>
      </trkpt>
      <trkpt lat="45.00965" lon="3.23801">
        <ele>942.017778</ele>
        <time>2021-07-09T11:47:35+0200</time>
      </trkpt>
      <trkpt lat="45.00969" lon="3.23807">
        <ele>943.26008</ele>
        <time>2021-07-09T11:47:38+0200</time>
      </trkpt>
      <trkpt lat="45.0097" lon="3.23813">
        <ele>943.248704</ele>
        <time>2021-07-09T11:47:41+0200</time>
      </trkpt>
      <trkpt lat="45.00973" lon="3.23819">
        <ele>943.651716</ele>
        <time>2021-07-09T11:47:44+0200</time>
      </trkpt>
      <trkpt lat="45.00976" lon="3.23825">
        <ele>944.697616</ele>
        <time>2021-07-09T11:47:47+0200</time>
      </trkpt>
      <trkpt lat="45.0098" lon="3.23831">
        <ele>945.303773</ele>
        <time>2021-07-09T11:47:50+0200</time>
      </trkpt>
      <trkpt lat="45.00984" lon="3.23837">
        <ele>945.747681</ele>
        <time>2021-07-09T11:47:53+0200</time>
      </trkpt>
      <trkpt lat="45.00988" lon="3.23842">
        <ele>946.494122</ele>
        <time>2021-07-09T11:47:56+0200</time>
      </trkpt>
      <trkpt lat="45.00992" lon="3.23845">
        <ele>947.221327</ele>
        <time>2021-07-09T11:47:59+0200</time>
      </trkpt>
      <trkpt lat="45.00996" lon="3.23848">
        <ele>948.454438</ele>
        <time>2021-07-09T11:48:02+0200</time>
      </trkpt>
      <trkpt lat="45.01" lon="3.23852">
        <ele>949.207368</ele>
        <time>2021-07-09T11:48:06+0200</time>
      </trkpt>
      <trkpt lat="45.01003" lon="3.23857">
        <ele>950.036151</ele>
        <time>2021-07-09T11:48:09+0200</time>
      </trkpt>
      <trkpt lat="45.01008" lon="3.2386">
        <ele>951.382058</ele>
        <time>2021-07-09T11:48:18+0200</time>
      </trkpt>
      <trkpt lat="45.01013" lon="3.23864">
        <ele>952.832562</ele>
        <time>2021-07-09T11:48:23+0200</time>
      </trkpt>
      <trkpt lat="45.01017" lon="3.23867">
        <ele>952.385736</ele>
        <time>2021-07-09T11:48:28+0200</time>
      </trkpt>
      <trkpt lat="45.01021" lon="3.2387">
        <ele>954.96609</ele>
        <time>2021-07-09T11:48:32+0200</time>
      </trkpt>
      <trkpt lat="45.01025" lon="3.23874">
        <ele>954.934671</ele>
        <time>2021-07-09T11:48:37+0200</time>
      </trkpt>
      <trkpt lat="45.01029" lon="3.23877">
        <ele>957.405003</ele>
        <time>2021-07-09T11:48:46+0200</time>
      </trkpt>
      <trkpt lat="45.01033" lon="3.23881">
        <ele>956.811308</ele>
        <time>2021-07-09T11:48:51+0200</time>
      </trkpt>
      <trkpt lat="45.01038" lon="3.23885">
        <ele>959.038731</ele>
        <time>2021-07-09T11:48:59+0200</time>
      </trkpt>
      <trkpt lat="45.01041" lon="3.23889">
        <ele>961.454216</ele>
        <time>2021-07-09T11:49:08+0200</time>
      </trkpt>
      <trkpt lat="45.01045" lon="3.23895">
        <ele>960.84374</ele>
        <time>2021-07-09T11:49:14+0200</time>
      </trkpt>
      <trkpt lat="45.01048" lon="3.239">
        <ele>961.050628</ele>
        <time>2021-07-09T11:49:20+0200</time>
      </trkpt>
      <trkpt lat="45.01052" lon="3.23906">
        <ele>962.614435</ele>
        <time>2021-07-09T11:49:26+0200</time>
      </trkpt>
      <trkpt lat="45.01052" lon="3.23913">
        <ele>967.405668</ele>
        <time>2021-07-09T11:49:36+0200</time>
      </trkpt>
      <trkpt lat="45.01054" lon="3.2392">
        <ele>967.423892</ele>
        <time>2021-07-09T11:49:41+0200</time>
      </trkpt>
      <trkpt lat="45.01052" lon="3.23927">
        <ele>967.838883</ele>
        <time>2021-07-09T11:49:45+0200</time>
      </trkpt>
      <trkpt lat="45.0105" lon="3.23934">
        <ele>968.576447</ele>
        <time>2021-07-09T11:49:51+0200</time>
      </trkpt>
      <trkpt lat="45.01048" lon="3.2394">
        <ele>970.448233</ele>
        <time>2021-07-09T11:49:58+0200</time>
      </trkpt>
      <trkpt lat="45.01046" lon="3.23946">
        <ele>969.687798</ele>
        <time>2021-07-09T11:50:03+0200</time>
      </trkpt>
      <trkpt lat="45.01044" lon="3.23951">
        <ele>970.910384</ele>
        <time>2021-07-09T11:50:09+0200</time>
      </trkpt>
      <trkpt lat="45.01042" lon="3.23958">
        <ele>972.278975</ele>
        <time>2021-07-09T11:50:17+0200</time>
      </trkpt>
      <trkpt lat="45.01039" lon="3.23965">
        <ele>972.23344</ele>
        <time>2021-07-09T11:50:44+0200</time>
      </trkpt>
      <trkpt lat="45.01036" lon="3.2397">
        <ele>972.633201</ele>
        <time>2021-07-09T11:50:47+0200</time>
      </trkpt>
      <trkpt lat="45.01033" lon="3.23976">
        <ele>973.390614</ele>
        <time>2021-07-09T11:50:51+0200</time>
      </trkpt>
      <trkpt lat="45.01031" lon="3.23981">
        <ele>973.812256</ele>
        <time>2021-07-09T11:50:54+0200</time>
      </trkpt>
      <trkpt lat="45.01029" lon="3.23988">
        <ele>974.817131</ele>
        <time>2021-07-09T11:50:57+0200</time>
      </trkpt>
      <trkpt lat="45.01027" lon="3.23995">
        <ele>974.838678</ele>
        <time>2021-07-09T11:51:01+0200</time>
      </trkpt>
      <trkpt lat="45.01027" lon="3.24004">
        <ele>975.294592</ele>
        <time>2021-07-09T11:51:05+0200</time>
      </trkpt>
      <trkpt lat="45.01029" lon="3.24011">
        <ele>975.43188</ele>
        <time>2021-07-09T11:51:08+0200</time>
      </trkpt>
      <trkpt lat="45.01031" lon="3.24017">
        <ele>975.750257</ele>
        <time>2021-07-09T11:51:11+0200</time>
      </trkpt>
      <trkpt lat="45.01034" lon="3.24022">
        <ele>976.607667</ele>
        <time>2021-07-09T11:51:14+0200</time>
      </trkpt>
      <trkpt lat="45.01039" lon="3.24025">
        <ele>977.833637</ele>
        <time>2021-07-09T11:51:17+0200</time>
      </trkpt>
      <trkpt lat="45.01044" lon="3.24028">
        <ele>979.015286</ele>
        <time>2021-07-09T11:51:20+0200</time>
      </trkpt>
      <trkpt lat="45.01049" lon="3.24032">
        <ele>979.707861</ele>
        <time>2021-07-09T11:51:23+0200</time>
      </trkpt>
      <trkpt lat="45.01052" lon="3.24036">
        <ele>980.636612</ele>
        <time>2021-07-09T11:51:26+0200</time>
      </trkpt>
      <trkpt lat="45.01056" lon="3.24041">
        <ele>981.686503</ele>
        <time>2021-07-09T11:51:29+0200</time>
      </trkpt>
      <trkpt lat="45.01059" lon="3.24046">
        <ele>981.736272</ele>
        <time>2021-07-09T11:51:32+0200</time>
      </trkpt>
      <trkpt lat="45.01064" lon="3.2405">
        <ele>982.4036</ele>
        <time>2021-07-09T11:51:35+0200</time>
      </trkpt>
      <trkpt lat="45.01068" lon="3.24054">
        <ele>983.433211</ele>
        <time>2021-07-09T11:51:38+0200</time>
      </trkpt>
      <trkpt lat="45.01072" lon="3.24057">
        <ele>983.673513</ele>
        <time>2021-07-09T11:51:41+0200</time>
      </trkpt>
      <trkpt lat="45.01075" lon="3.24062">
        <ele>984.340931</ele>
        <time>2021-07-09T11:51:45+0200</time>
      </trkpt>
      <trkpt lat="45.01079" lon="3.24066">
        <ele>984.522024</ele>
        <time>2021-07-09T11:51:49+0200</time>
      </trkpt>
      <trkpt lat="45.01083" lon="3.2407">
        <ele>986.800973</ele>
        <time>2021-07-09T11:51:54+0200</time>
      </trkpt>
      <trkpt lat="45.01087" lon="3.24075">
        <ele>985.244307</ele>
        <time>2021-07-09T11:52:11+0200</time>
      </trkpt>
      <trkpt lat="45.01091" lon="3.2408">
        <ele>985.417052</ele>
        <time>2021-07-09T11:52:15+0200</time>
      </trkpt>
      <trkpt lat="45.01095" lon="3.24083">
        <ele>986.69965</ele>
        <time>2021-07-09T11:52:18+0200</time>
      </trkpt>
      <trkpt lat="45.011" lon="3.2409">
        <ele>987.870979</ele>
        <time>2021-07-09T11:52:22+0200</time>
      </trkpt>
      <trkpt lat="45.01104" lon="3.24093">
        <ele>988.554511</ele>
        <time>2021-07-09T11:52:25+0200</time>
      </trkpt>
      <trkpt lat="45.01109" lon="3.24098">
        <ele>988.464671</ele>
        <time>2021-07-09T11:52:29+0200</time>
      </trkpt>
      <trkpt lat="45.01113" lon="3.24102">
        <ele>988.849489</ele>
        <time>2021-07-09T11:52:33+0200</time>
      </trkpt>
      <trkpt lat="45.01117" lon="3.24107">
        <ele>988.804786</ele>
        <time>2021-07-09T11:52:36+0200</time>
      </trkpt>
      <trkpt lat="45.01122" lon="3.24111">
        <ele>989.079053</ele>
        <time>2021-07-09T11:52:40+0200</time>
      </trkpt>
      <trkpt lat="45.01127" lon="3.24116">
        <ele>990.260365</ele>
        <time>2021-07-09T11:52:44+0200</time>
      </trkpt>
      <trkpt lat="45.01132" lon="3.2412">
        <ele>991.257174</ele>
        <time>2021-07-09T11:52:47+0200</time>
      </trkpt>
      <trkpt lat="45.01137" lon="3.24121">
        <ele>992.650372</ele>
        <time>2021-07-09T11:52:51+0200</time>
      </trkpt>
      <trkpt lat="45.01142" lon="3.24123">
        <ele>993.841052</ele>
        <time>2021-07-09T11:52:54+0200</time>
      </trkpt>
      <trkpt lat="45.01148" lon="3.24127">
        <ele>994.898874</ele>
        <time>2021-07-09T11:52:58+0200</time>
      </trkpt>
      <trkpt lat="45.01153" lon="3.24126">
        <ele>996.974711</ele>
        <time>2021-07-09T11:53:01+0200</time>
      </trkpt>
      <trkpt lat="45.0116" lon="3.24128">
        <ele>997.042946</ele>
        <time>2021-07-09T11:53:04+0200</time>
      </trkpt>
      <trkpt lat="45.01165" lon="3.24127">
        <ele>997.55146</ele>
        <time>2021-07-09T11:53:08+0200</time>
      </trkpt>
      <trkpt lat="45.0117" lon="3.24127">
        <ele>999.833959</ele>
        <time>2021-07-09T11:53:11+0200</time>
      </trkpt>
      <trkpt lat="45.01175" lon="3.24129">
        <ele>1000.63539</ele>
        <time>2021-07-09T11:53:14+0200</time>
      </trkpt>
      <trkpt lat="45.0118" lon="3.2413">
        <ele>1000.949273</ele>
        <time>2021-07-09T11:53:17+0200</time>
      </trkpt>
      <trkpt lat="45.01186" lon="3.24132">
        <ele>1001.449493</ele>
        <time>2021-07-09T11:53:20+0200</time>
      </trkpt>
      <trkpt lat="45.0119" lon="3.24133">
        <ele>1001.244286</ele>
        <time>2021-07-09T11:53:22+0200</time>
      </trkpt>
      <trkpt lat="45.01195" lon="3.24134">
        <ele>1001.407661</ele>
        <time>2021-07-09T11:53:25+0200</time>
      </trkpt>
      <trkpt lat="45.01201" lon="3.24136">
        <ele>999.615637</ele>
        <time>2021-07-09T11:53:28+0200</time>
      </trkpt>
      <trkpt lat="45.01206" lon="3.24137">
        <ele>999.911554</ele>
        <time>2021-07-09T11:53:31+0200</time>
      </trkpt>
      <trkpt lat="45.01212" lon="3.24139">
        <ele>1000.286076</ele>
        <time>2021-07-09T11:53:34+0200</time>
      </trkpt>
      <trkpt lat="45.01217" lon="3.24141">
        <ele>1002.204818</ele>
        <time>2021-07-09T11:53:37+0200</time>
      </trkpt>
      <trkpt lat="45.01222" lon="3.24143">
        <ele>1002.748174</ele>
        <time>2021-07-09T11:53:40+0200</time>
      </trkpt>
      <trkpt lat="45.01228" lon="3.24145">
        <ele>1003.270717</ele>
        <time>2021-07-09T11:53:43+0200</time>
      </trkpt>
      <trkpt lat="45.01234" lon="3.2415">
        <ele>1002.60183</ele>
        <time>2021-07-09T11:53:46+0200</time>
      </trkpt>
      <trkpt lat="45.0124" lon="3.24155">
        <ele>1002.142564</ele>
        <time>2021-07-09T11:53:49+0200</time>
      </trkpt>
      <trkpt lat="45.01244" lon="3.24158">
        <ele>1002.835142</ele>
        <time>2021-07-09T11:53:51+0200</time>
      </trkpt>
      <trkpt lat="45.0125" lon="3.24163">
        <ele>1004.297371</ele>
        <time>2021-07-09T11:53:54+0200</time>
      </trkpt>
      <trkpt lat="45.01255" lon="3.24167">
        <ele>1006.123813</ele>
        <time>2021-07-09T11:53:57+0200</time>
      </trkpt>
      <trkpt lat="45.01261" lon="3.24173">
        <ele>1007.029954</ele>
        <time>2021-07-09T11:54:00+0200</time>
      </trkpt>
      <trkpt lat="45.01265" lon="3.24177">
        <ele>1006.931999</ele>
        <time>2021-07-09T11:54:03+0200</time>
      </trkpt>
      <trkpt lat="45.01271" lon="3.24182">
        <ele>1009.611141</ele>
        <time>2021-07-09T11:54:06+0200</time>
      </trkpt>
      <trkpt lat="45.01276" lon="3.24187">
        <ele>1009.381968</ele>
        <time>2021-07-09T11:54:09+0200</time>
      </trkpt>
      <trkpt lat="45.01281" lon="3.24192">
        <ele>1009.174726</ele>
        <time>2021-07-09T11:54:11+0200</time>
      </trkpt>
      <trkpt lat="45.01286" lon="3.24197">
        <ele>1009.489752</ele>
        <time>2021-07-09T11:54:13+0200</time>
      </trkpt>
      <trkpt lat="45.01292" lon="3.24203">
        <ele>1010.844438</ele>
        <time>2021-07-09T11:54:16+0200</time>
      </trkpt>
      <trkpt lat="45.01298" lon="3.24206">
        <ele>1011.403389</ele>
        <time>2021-07-09T11:54:18+0200</time>
      </trkpt>
      <trkpt lat="45.01303" lon="3.24208">
        <ele>1011.112588</ele>
        <time>2021-07-09T11:54:20+0200</time>
      </trkpt>
      <trkpt lat="45.01308" lon="3.2421">
        <ele>1011.462763</ele>
        <time>2021-07-09T11:54:22+0200</time>
      </trkpt>
      <trkpt lat="45.01312" lon="3.2421">
        <ele>1012.439277</ele>
        <time>2021-07-09T11:54:24+0200</time>
      </trkpt>
      <trkpt lat="45.01317" lon="3.24213">
        <ele>1013.436804</ele>
        <time>2021-07-09T11:54:26+0200</time>
      </trkpt>
      <trkpt lat="45.01322" lon="3.24213">
        <ele>1012.275477</ele>
        <time>2021-07-09T11:54:28+0200</time>
      </trkpt>
      <trkpt lat="45.01327" lon="3.24213">
        <ele>1011.659777</ele>
        <time>2021-07-09T11:54:30+0200</time>
      </trkpt>
      <trkpt lat="45.01332" lon="3.24213">
        <ele>1011.999481</ele>
        <time>2021-07-09T11:54:32+0200</time>
      </trkpt>
      <trkpt lat="45.01337" lon="3.24215">
        <ele>1012.141674</ele>
        <time>2021-07-09T11:54:34+0200</time>
      </trkpt>
      <trkpt lat="45.01341" lon="3.24212">
        <ele>1012.247201</ele>
        <time>2021-07-09T11:54:36+0200</time>
      </trkpt>
      <trkpt lat="45.01346" lon="3.24209">
        <ele>1012.695604</ele>
        <time>2021-07-09T11:54:38+0200</time>
      </trkpt>
      <trkpt lat="45.01352" lon="3.24202">
        <ele>1014.593345</ele>
        <time>2021-07-09T11:54:41+0200</time>
      </trkpt>
      <trkpt lat="45.01354" lon="3.24196">
        <ele>1014.286976</ele>
        <time>2021-07-09T11:54:43+0200</time>
      </trkpt>
      <trkpt lat="45.01356" lon="3.24189">
        <ele>1014.629667</ele>
        <time>2021-07-09T11:54:45+0200</time>
      </trkpt>
      <trkpt lat="45.01357" lon="3.24181">
        <ele>1015.851894</ele>
        <time>2021-07-09T11:54:47+0200</time>
      </trkpt>
      <trkpt lat="45.01354" lon="3.24174">
        <ele>1017.883459</ele>
        <time>2021-07-09T11:54:50+0200</time>
      </trkpt>
      <trkpt lat="45.01354" lon="3.24166">
        <ele>1018.975849</ele>
        <time>2021-07-09T11:54:52+0200</time>
      </trkpt>
      <trkpt lat="45.01354" lon="3.24159">
        <ele>1017.691736</ele>
        <time>2021-07-09T11:54:54+0200</time>
      </trkpt>
      <trkpt lat="45.01352" lon="3.24153">
        <ele>1017.18226</ele>
        <time>2021-07-09T11:54:56+0200</time>
      </trkpt>
      <trkpt lat="45.0135" lon="3.24147">
        <ele>1016.432417</ele>
        <time>2021-07-09T11:54:58+0200</time>
      </trkpt>
      <trkpt lat="45.01348" lon="3.2414">
        <ele>1017.111885</ele>
        <time>2021-07-09T11:55:00+0200</time>
      </trkpt>
      <trkpt lat="45.01346" lon="3.24133">
        <ele>1016.663987</ele>
        <time>2021-07-09T11:55:02+0200</time>
      </trkpt>
      <trkpt lat="45.01344" lon="3.24126">
        <ele>1017.028325</ele>
        <time>2021-07-09T11:55:04+0200</time>
      </trkpt>
      <trkpt lat="45.01343" lon="3.24118">
        <ele>1015.869257</ele>
        <time>2021-07-09T11:55:06+0200</time>
      </trkpt>
      <trkpt lat="45.01343" lon="3.24108">
        <ele>1016.193458</ele>
        <time>2021-07-09T11:55:09+0200</time>
      </trkpt>
      <trkpt lat="45.01346" lon="3.24102">
        <ele>1016.071184</ele>
        <time>2021-07-09T11:55:12+0200</time>
      </trkpt>
      <trkpt lat="45.0135" lon="3.24108">
        <ele>1011.612422</ele>
        <time>2021-07-09T11:57:57+0200</time>
      </trkpt>
      <trkpt lat="45.01351" lon="3.24116">
        <ele>1008.754859</ele>
        <time>2021-07-09T11:58:01+0200</time>
      </trkpt>
      <trkpt lat="45.01353" lon="3.24122">
        <ele>1008.64539</ele>
        <time>2021-07-09T11:58:04+0200</time>
      </trkpt>
      <trkpt lat="45.01355" lon="3.24128">
        <ele>1008.918109</ele>
        <time>2021-07-09T11:58:06+0200</time>
      </trkpt>
      <trkpt lat="45.01359" lon="3.24136">
        <ele>1009.145272</ele>
        <time>2021-07-09T11:58:09+0200</time>
      </trkpt>
      <trkpt lat="45.01361" lon="3.24143">
        <ele>1009.60038</ele>
        <time>2021-07-09T11:58:12+0200</time>
      </trkpt>
      <trkpt lat="45.01365" lon="3.24151">
        <ele>1010.684043</ele>
        <time>2021-07-09T11:58:15+0200</time>
      </trkpt>
      <trkpt lat="45.01368" lon="3.2416">
        <ele>1011.673045</ele>
        <time>2021-07-09T11:58:18+0200</time>
      </trkpt>
      <trkpt lat="45.0137" lon="3.24167">
        <ele>1011.966921</ele>
        <time>2021-07-09T11:58:20+0200</time>
      </trkpt>
      <trkpt lat="45.01373" lon="3.24175">
        <ele>1012.431441</ele>
        <time>2021-07-09T11:58:22+0200</time>
      </trkpt>
      <trkpt lat="45.01376" lon="3.24182">
        <ele>1012.768026</ele>
        <time>2021-07-09T11:58:24+0200</time>
      </trkpt>
      <trkpt lat="45.01378" lon="3.24188">
        <ele>1013.406472</ele>
        <time>2021-07-09T11:58:26+0200</time>
      </trkpt>
      <trkpt lat="45.0138" lon="3.24194">
        <ele>1014.850709</ele>
        <time>2021-07-09T11:58:28+0200</time>
      </trkpt>
      <trkpt lat="45.01383" lon="3.242">
        <ele>1015.036403</ele>
        <time>2021-07-09T11:58:30+0200</time>
      </trkpt>
      <trkpt lat="45.01387" lon="3.24207">
        <ele>1017.478457</ele>
        <time>2021-07-09T11:58:33+0200</time>
      </trkpt>
      <trkpt lat="45.01388" lon="3.24213">
        <ele>1019.089683</ele>
        <time>2021-07-09T11:58:36+0200</time>
      </trkpt>
      <trkpt lat="45.01391" lon="3.24218">
        <ele>1018.995229</ele>
        <time>2021-07-09T11:58:38+0200</time>
      </trkpt>
      <trkpt lat="45.01394" lon="3.24223">
        <ele>1019.298017</ele>
        <time>2021-07-09T11:58:40+0200</time>
      </trkpt>
      <trkpt lat="45.01397" lon="3.2423">
        <ele>1020.874392</ele>
        <time>2021-07-09T11:58:43+0200</time>
      </trkpt>
      <trkpt lat="45.01399" lon="3.24237">
        <ele>1021.866222</ele>
        <time>2021-07-09T11:58:46+0200</time>
      </trkpt>
      <trkpt lat="45.014" lon="3.24248">
        <ele>1024.545778</ele>
        <time>2021-07-09T11:58:49+0200</time>
      </trkpt>
      <trkpt lat="45.01404" lon="3.24254">
        <ele>1025.84215</ele>
        <time>2021-07-09T11:58:52+0200</time>
      </trkpt>
      <trkpt lat="45.01405" lon="3.24261">
        <ele>1026.673046</ele>
        <time>2021-07-09T11:58:54+0200</time>
      </trkpt>
      <trkpt lat="45.01409" lon="3.24267">
        <ele>1026.381498</ele>
        <time>2021-07-09T11:58:56+0200</time>
      </trkpt>
      <trkpt lat="45.01411" lon="3.24273">
        <ele>1025.906435</ele>
        <time>2021-07-09T11:58:58+0200</time>
      </trkpt>
      <trkpt lat="45.01412" lon="3.2428">
        <ele>1026.135313</ele>
        <time>2021-07-09T11:59:00+0200</time>
      </trkpt>
      <trkpt lat="45.01414" lon="3.24289">
        <ele>1026.51476</ele>
        <time>2021-07-09T11:59:02+0200</time>
      </trkpt>
      <trkpt lat="45.01415" lon="3.24296">
        <ele>1025.278525</ele>
        <time>2021-07-09T11:59:04+0200</time>
      </trkpt>
      <trkpt lat="45.01418" lon="3.24304">
        <ele>1024.359097</ele>
        <time>2021-07-09T11:59:06+0200</time>
      </trkpt>
      <trkpt lat="45.01419" lon="3.24312">
        <ele>1023.853507</ele>
        <time>2021-07-09T11:59:08+0200</time>
      </trkpt>
      <trkpt lat="45.0142" lon="3.24321">
        <ele>1023.809888</ele>
        <time>2021-07-09T11:59:10+0200</time>
      </trkpt>
      <trkpt lat="45.01423" lon="3.24328">
        <ele>1023.578889</ele>
        <time>2021-07-09T11:59:12+0200</time>
      </trkpt>
      <trkpt lat="45.01424" lon="3.24336">
        <ele>1024.269832</ele>
        <time>2021-07-09T11:59:15+0200</time>
      </trkpt>
      <trkpt lat="45.01425" lon="3.24345">
        <ele>1023.015083</ele>
        <time>2021-07-09T11:59:18+0200</time>
      </trkpt>
      <trkpt lat="45.01427" lon="3.24354">
        <ele>1023.752343</ele>
        <time>2021-07-09T11:59:22+0200</time>
      </trkpt>
      <trkpt lat="45.01429" lon="3.24362">
        <ele>1024.867883</ele>
        <time>2021-07-09T11:59:25+0200</time>
      </trkpt>
      <trkpt lat="45.01429" lon="3.24369">
        <ele>1024.370601</ele>
        <time>2021-07-09T11:59:28+0200</time>
      </trkpt>
      <trkpt lat="45.0143" lon="3.24377">
        <ele>1026.091757</ele>
        <time>2021-07-09T11:59:31+0200</time>
      </trkpt>
      <trkpt lat="45.01431" lon="3.24384">
        <ele>1027.188844</ele>
        <time>2021-07-09T11:59:35+0200</time>
      </trkpt>
      <trkpt lat="45.01432" lon="3.24392">
        <ele>1028.981209</ele>
        <time>2021-07-09T11:59:39+0200</time>
      </trkpt>
      <trkpt lat="45.01433" lon="3.24399">
        <ele>1028.636715</ele>
        <time>2021-07-09T11:59:42+0200</time>
      </trkpt>
      <trkpt lat="45.01432" lon="3.24407">
        <ele>1029.815844</ele>
        <time>2021-07-09T11:59:45+0200</time>
      </trkpt>
      <trkpt lat="45.01432" lon="3.24415">
        <ele>1030.971214</ele>
        <time>2021-07-09T11:59:48+0200</time>
      </trkpt>
      <trkpt lat="45.01431" lon="3.24422">
        <ele>1031.708838</ele>
        <time>2021-07-09T11:59:51+0200</time>
      </trkpt>
      <trkpt lat="45.0143" lon="3.24428">
        <ele>1033.460413</ele>
        <time>2021-07-09T11:59:54+0200</time>
      </trkpt>
      <trkpt lat="45.01429" lon="3.24436">
        <ele>1035.026154</ele>
        <time>2021-07-09T11:59:57+0200</time>
      </trkpt>
      <trkpt lat="45.01426" lon="3.24442">
        <ele>1036.411118</ele>
        <time>2021-07-09T12:00:00+0200</time>
      </trkpt>
      <trkpt lat="45.01423" lon="3.24449">
        <ele>1036.809745</ele>
        <time>2021-07-09T12:00:03+0200</time>
      </trkpt>
      <trkpt lat="45.01421" lon="3.24455">
        <ele>1037.119732</ele>
        <time>2021-07-09T12:00:06+0200</time>
      </trkpt>
      <trkpt lat="45.01417" lon="3.24461">
        <ele>1037.032974</ele>
        <time>2021-07-09T12:00:09+0200</time>
      </trkpt>
      <trkpt lat="45.01414" lon="3.24466">
        <ele>1037.563505</ele>
        <time>2021-07-09T12:00:12+0200</time>
      </trkpt>
      <trkpt lat="45.0141" lon="3.24471">
        <ele>1037.512849</ele>
        <time>2021-07-09T12:00:15+0200</time>
      </trkpt>
      <trkpt lat="45.01407" lon="3.24477">
        <ele>1037.348698</ele>
        <time>2021-07-09T12:00:18+0200</time>
      </trkpt>
      <trkpt lat="45.01403" lon="3.24484">
        <ele>1036.711524</ele>
        <time>2021-07-09T12:00:21+0200</time>
      </trkpt>
      <trkpt lat="45.01399" lon="3.24491">
        <ele>1036.285285</ele>
        <time>2021-07-09T12:00:24+0200</time>
      </trkpt>
      <trkpt lat="45.01395" lon="3.24498">
        <ele>1036.055747</ele>
        <time>2021-07-09T12:00:27+0200</time>
      </trkpt>
      <trkpt lat="45.01391" lon="3.24506">
        <ele>1036.0959</ele>
        <time>2021-07-09T12:00:30+0200</time>
      </trkpt>
      <trkpt lat="45.0139" lon="3.24512">
        <ele>1035.833065</ele>
        <time>2021-07-09T12:00:32+0200</time>
      </trkpt>
      <trkpt lat="45.01388" lon="3.24521">
        <ele>1037.503507</ele>
        <time>2021-07-09T12:00:35+0200</time>
      </trkpt>
      <trkpt lat="45.01389" lon="3.24528">
        <ele>1040.410956</ele>
        <time>2021-07-09T12:00:37+0200</time>
      </trkpt>
      <trkpt lat="45.01386" lon="3.24534">
        <ele>1041.189478</ele>
        <time>2021-07-09T12:00:39+0200</time>
      </trkpt>
      <trkpt lat="45.01379" lon="3.24535">
        <ele>1039.85872</ele>
        <time>2021-07-09T12:00:41+0200</time>
      </trkpt>
      <trkpt lat="45.01375" lon="3.24541">
        <ele>1040.107586</ele>
        <time>2021-07-09T12:00:43+0200</time>
      </trkpt>
      <trkpt lat="45.01372" lon="3.24547">
        <ele>1040.74695</ele>
        <time>2021-07-09T12:00:45+0200</time>
      </trkpt>
      <trkpt lat="45.01369" lon="3.24553">
        <ele>1041.62187</ele>
        <time>2021-07-09T12:00:47+0200</time>
      </trkpt>
      <trkpt lat="45.01366" lon="3.2456">
        <ele>1041.020438</ele>
        <time>2021-07-09T12:00:49+0200</time>
      </trkpt>
      <trkpt lat="45.01362" lon="3.24565">
        <ele>1040.967438</ele>
        <time>2021-07-09T12:00:51+0200</time>
      </trkpt>
      <trkpt lat="45.01359" lon="3.24571">
        <ele>1040.287034</ele>
        <time>2021-07-09T12:00:53+0200</time>
      </trkpt>
      <trkpt lat="45.01358" lon="3.24577">
        <ele>1041.478473</ele>
        <time>2021-07-09T12:00:55+0200</time>
      </trkpt>
      <trkpt lat="45.01357" lon="3.24586">
        <ele>1040.337281</ele>
        <time>2021-07-09T12:00:58+0200</time>
      </trkpt>
      <trkpt lat="45.01353" lon="3.24591">
        <ele>1039.635806</ele>
        <time>2021-07-09T12:01:00+0200</time>
      </trkpt>
      <trkpt lat="45.01352" lon="3.24599">
        <ele>1039.074997</ele>
        <time>2021-07-09T12:01:02+0200</time>
      </trkpt>
      <trkpt lat="45.01353" lon="3.24605">
        <ele>1039.000971</ele>
        <time>2021-07-09T12:01:04+0200</time>
      </trkpt>
      <trkpt lat="45.01358" lon="3.24611">
        <ele>1039.35383</ele>
        <time>2021-07-09T12:01:06+0200</time>
      </trkpt>
      <trkpt lat="45.01363" lon="3.24615">
        <ele>1039.927966</ele>
        <time>2021-07-09T12:01:08+0200</time>
      </trkpt>
      <trkpt lat="45.01366" lon="3.24621">
        <ele>1040.038182</ele>
        <time>2021-07-09T12:01:10+0200</time>
      </trkpt>
      <trkpt lat="45.0137" lon="3.24626">
        <ele>1040.634147</ele>
        <time>2021-07-09T12:01:12+0200</time>
      </trkpt>
      <trkpt lat="45.01375" lon="3.24632">
        <ele>1041.842667</ele>
        <time>2021-07-09T12:01:15+0200</time>
      </trkpt>
      <trkpt lat="45.01379" lon="3.2464">
        <ele>1042.007823</ele>
        <time>2021-07-09T12:01:17+0200</time>
      </trkpt>
      <trkpt lat="45.01383" lon="3.24646">
        <ele>1042.003338</ele>
        <time>2021-07-09T12:01:19+0200</time>
      </trkpt>
      <trkpt lat="45.01387" lon="3.24653">
        <ele>1042.367772</ele>
        <time>2021-07-09T12:01:22+0200</time>
      </trkpt>
      <trkpt lat="45.0139" lon="3.24658">
        <ele>1042.730223</ele>
        <time>2021-07-09T12:01:24+0200</time>
      </trkpt>
      <trkpt lat="45.01393" lon="3.24665">
        <ele>1043.706288</ele>
        <time>2021-07-09T12:01:26+0200</time>
      </trkpt>
      <trkpt lat="45.01397" lon="3.24672">
        <ele>1045.513025</ele>
        <time>2021-07-09T12:01:29+0200</time>
      </trkpt>
      <trkpt lat="45.014" lon="3.24665">
        <ele>1048.626562</ele>
        <time>2021-07-09T12:01:35+0200</time>
      </trkpt>
      <trkpt lat="45.01403" lon="3.24669">
        <ele>1048.087647</ele>
        <time>2021-07-09T12:01:41+0200</time>
      </trkpt>
      <trkpt lat="45.01404" lon="3.24677">
        <ele>1046.752203</ele>
        <time>2021-07-09T12:01:46+0200</time>
      </trkpt>
      <trkpt lat="45.01406" lon="3.24683">
        <ele>1047.4939</ele>
        <time>2021-07-09T12:01:51+0200</time>
      </trkpt>
      <trkpt lat="45.01411" lon="3.24689">
        <ele>1050.292215</ele>
        <time>2021-07-09T12:01:54+0200</time>
      </trkpt>
      <trkpt lat="45.01414" lon="3.24695">
        <ele>1050.890116</ele>
        <time>2021-07-09T12:01:57+0200</time>
      </trkpt>
      <trkpt lat="45.01416" lon="3.247">
        <ele>1051.239912</ele>
        <time>2021-07-09T12:01:59+0200</time>
      </trkpt>
      <trkpt lat="45.0142" lon="3.24709">
        <ele>1050.318322</ele>
        <time>2021-07-09T12:02:02+0200</time>
      </trkpt>
      <trkpt lat="45.01422" lon="3.24716">
        <ele>1050.753309</ele>
        <time>2021-07-09T12:02:05+0200</time>
      </trkpt>
      <trkpt lat="45.01424" lon="3.24724">
        <ele>1050.547232</ele>
        <time>2021-07-09T12:02:08+0200</time>
      </trkpt>
      <trkpt lat="45.01426" lon="3.24731">
        <ele>1050.403552</ele>
        <time>2021-07-09T12:02:11+0200</time>
      </trkpt>
      <trkpt lat="45.0143" lon="3.24736">
        <ele>1051.327177</ele>
        <time>2021-07-09T12:02:14+0200</time>
      </trkpt>
      <trkpt lat="45.01432" lon="3.24743">
        <ele>1052.312003</ele>
        <time>2021-07-09T12:02:17+0200</time>
      </trkpt>
      <trkpt lat="45.01435" lon="3.2475">
        <ele>1052.534959</ele>
        <time>2021-07-09T12:02:20+0200</time>
      </trkpt>
      <trkpt lat="45.01438" lon="3.24756">
        <ele>1053.047365</ele>
        <time>2021-07-09T12:02:22+0200</time>
      </trkpt>
      <trkpt lat="45.01441" lon="3.24765">
        <ele>1054.816548</ele>
        <time>2021-07-09T12:02:25+0200</time>
      </trkpt>
      <trkpt lat="45.01445" lon="3.24773">
        <ele>1056.243536</ele>
        <time>2021-07-09T12:02:28+0200</time>
      </trkpt>
      <trkpt lat="45.0145" lon="3.24775">
        <ele>1055.826038</ele>
        <time>2021-07-09T12:02:30+0200</time>
      </trkpt>
      <trkpt lat="45.01455" lon="3.24776">
        <ele>1055.668622</ele>
        <time>2021-07-09T12:02:32+0200</time>
      </trkpt>
      <trkpt lat="45.0146" lon="3.24778">
        <ele>1055.969119</ele>
        <time>2021-07-09T12:02:35+0200</time>
      </trkpt>
      <trkpt lat="45.01465" lon="3.24779">
        <ele>1055.852448</ele>
        <time>2021-07-09T12:02:37+0200</time>
      </trkpt>
      <trkpt lat="45.0147" lon="3.24781">
        <ele>1055.855744</ele>
        <time>2021-07-09T12:02:40+0200</time>
      </trkpt>
      <trkpt lat="45.01474" lon="3.24783">
        <ele>1056.167154</ele>
        <time>2021-07-09T12:02:42+0200</time>
      </trkpt>
      <trkpt lat="45.01479" lon="3.24786">
        <ele>1059.708633</ele>
        <time>2021-07-09T12:02:45+0200</time>
      </trkpt>
      <trkpt lat="45.01485" lon="3.24786">
        <ele>1061.821483</ele>
        <time>2021-07-09T12:02:48+0200</time>
      </trkpt>
      <trkpt lat="45.01489" lon="3.24785">
        <ele>1061.091966</ele>
        <time>2021-07-09T12:02:50+0200</time>
      </trkpt>
      <trkpt lat="45.01494" lon="3.24786">
        <ele>1061.601951</ele>
        <time>2021-07-09T12:02:52+0200</time>
      </trkpt>
      <trkpt lat="45.01499" lon="3.24788">
        <ele>1062.021788</ele>
        <time>2021-07-09T12:02:54+0200</time>
      </trkpt>
      <trkpt lat="45.01504" lon="3.24788">
        <ele>1061.38925</ele>
        <time>2021-07-09T12:02:57+0200</time>
      </trkpt>
      <trkpt lat="45.01511" lon="3.24788">
        <ele>1059.883196</ele>
        <time>2021-07-09T12:03:00+0200</time>
      </trkpt>
      <trkpt lat="45.01517" lon="3.24788">
        <ele>1059.924588</ele>
        <time>2021-07-09T12:03:03+0200</time>
      </trkpt>
      <trkpt lat="45.01523" lon="3.24786">
        <ele>1059.759925</ele>
        <time>2021-07-09T12:03:06+0200</time>
      </trkpt>
      <trkpt lat="45.01529" lon="3.24783">
        <ele>1059.875754</ele>
        <time>2021-07-09T12:03:09+0200</time>
      </trkpt>
      <trkpt lat="45.01534" lon="3.24781">
        <ele>1060.125041</ele>
        <time>2021-07-09T12:03:11+0200</time>
      </trkpt>
      <trkpt lat="45.0154" lon="3.24779">
        <ele>1060.545145</ele>
        <time>2021-07-09T12:03:14+0200</time>
      </trkpt>
      <trkpt lat="45.01545" lon="3.24778">
        <ele>1062.885214</ele>
        <time>2021-07-09T12:03:17+0200</time>
      </trkpt>
      <trkpt lat="45.0155" lon="3.24777">
        <ele>1062.668762</ele>
        <time>2021-07-09T12:03:19+0200</time>
      </trkpt>
      <trkpt lat="45.01555" lon="3.24776">
        <ele>1062.087962</ele>
        <time>2021-07-09T12:03:22+0200</time>
      </trkpt>
      <trkpt lat="45.01561" lon="3.24776">
        <ele>1061.826936</ele>
        <time>2021-07-09T12:03:25+0200</time>
      </trkpt>
      <trkpt lat="45.01567" lon="3.24775">
        <ele>1061.453748</ele>
        <time>2021-07-09T12:03:28+0200</time>
      </trkpt>
      <trkpt lat="45.01573" lon="3.24774">
        <ele>1062.333124</ele>
        <time>2021-07-09T12:03:31+0200</time>
      </trkpt>
      <trkpt lat="45.01578" lon="3.24772">
        <ele>1063.622325</ele>
        <time>2021-07-09T12:03:34+0200</time>
      </trkpt>
      <trkpt lat="45.01585" lon="3.2477">
        <ele>1063.811026</ele>
        <time>2021-07-09T12:03:37+0200</time>
      </trkpt>
      <trkpt lat="45.0159" lon="3.24769">
        <ele>1064.709428</ele>
        <time>2021-07-09T12:03:40+0200</time>
      </trkpt>
      <trkpt lat="45.01595" lon="3.24767">
        <ele>1065.070664</ele>
        <time>2021-07-09T12:03:42+0200</time>
      </trkpt>
      <trkpt lat="45.01601" lon="3.24767">
        <ele>1066.207954</ele>
        <time>2021-07-09T12:03:46+0200</time>
      </trkpt>
      <trkpt lat="45.01606" lon="3.24764">
        <ele>1067.213287</ele>
        <time>2021-07-09T12:03:49+0200</time>
      </trkpt>
      <trkpt lat="45.01612" lon="3.24763">
        <ele>1068.316104</ele>
        <time>2021-07-09T12:03:52+0200</time>
      </trkpt>
      <trkpt lat="45.01616" lon="3.24761">
        <ele>1070.456798</ele>
        <time>2021-07-09T12:03:55+0200</time>
      </trkpt>
      <trkpt lat="45.01623" lon="3.24757">
        <ele>1068.971673</ele>
        <time>2021-07-09T12:03:58+0200</time>
      </trkpt>
      <trkpt lat="45.01628" lon="3.24753">
        <ele>1068.656224</ele>
        <time>2021-07-09T12:04:01+0200</time>
      </trkpt>
      <trkpt lat="45.01633" lon="3.24751">
        <ele>1068.580724</ele>
        <time>2021-07-09T12:04:04+0200</time>
      </trkpt>
      <trkpt lat="45.01639" lon="3.24748">
        <ele>1068.074024</ele>
        <time>2021-07-09T12:04:07+0200</time>
      </trkpt>
      <trkpt lat="45.01644" lon="3.24746">
        <ele>1067.529919</ele>
        <time>2021-07-09T12:04:10+0200</time>
      </trkpt>
      <trkpt lat="45.01649" lon="3.24744">
        <ele>1067.480748</ele>
        <time>2021-07-09T12:04:15+0200</time>
      </trkpt>
      <trkpt lat="45.01655" lon="3.24745">
        <ele>1068.046375</ele>
        <time>2021-07-09T12:04:44+0200</time>
      </trkpt>
      <trkpt lat="45.01661" lon="3.24746">
        <ele>1068.557819</ele>
        <time>2021-07-09T12:04:47+0200</time>
      </trkpt>
      <trkpt lat="45.01666" lon="3.24747">
        <ele>1068.702002</ele>
        <time>2021-07-09T12:04:49+0200</time>
      </trkpt>
      <trkpt lat="45.01673" lon="3.24748">
        <ele>1069.290307</ele>
        <time>2021-07-09T12:04:52+0200</time>
      </trkpt>
      <trkpt lat="45.01679" lon="3.24752">
        <ele>1069.478213</ele>
        <time>2021-07-09T12:04:55+0200</time>
      </trkpt>
      <trkpt lat="45.01684" lon="3.24753">
        <ele>1069.465885</ele>
        <time>2021-07-09T12:04:57+0200</time>
      </trkpt>
      <trkpt lat="45.01688" lon="3.24755">
        <ele>1069.607586</ele>
        <time>2021-07-09T12:04:59+0200</time>
      </trkpt>
      <trkpt lat="45.01693" lon="3.24758">
        <ele>1069.56248</ele>
        <time>2021-07-09T12:05:01+0200</time>
      </trkpt>
      <trkpt lat="45.01697" lon="3.2476">
        <ele>1069.795942</ele>
        <time>2021-07-09T12:05:03+0200</time>
      </trkpt>
      <trkpt lat="45.01702" lon="3.24762">
        <ele>1070.041972</ele>
        <time>2021-07-09T12:05:05+0200</time>
      </trkpt>
      <trkpt lat="45.01707" lon="3.24764">
        <ele>1070.484592</ele>
        <time>2021-07-09T12:05:07+0200</time>
      </trkpt>
      <trkpt lat="45.01712" lon="3.24766">
        <ele>1070.247872</ele>
        <time>2021-07-09T12:05:09+0200</time>
      </trkpt>
      <trkpt lat="45.01716" lon="3.24769">
        <ele>1070.366463</ele>
        <time>2021-07-09T12:05:11+0200</time>
      </trkpt>
      <trkpt lat="45.01721" lon="3.24771">
        <ele>1070.033888</ele>
        <time>2021-07-09T12:05:13+0200</time>
      </trkpt>
      <trkpt lat="45.01726" lon="3.24775">
        <ele>1070.130382</ele>
        <time>2021-07-09T12:05:15+0200</time>
      </trkpt>
      <trkpt lat="45.01731" lon="3.24776">
        <ele>1071.055318</ele>
        <time>2021-07-09T12:05:17+0200</time>
      </trkpt>
      <trkpt lat="45.01736" lon="3.24778">
        <ele>1071.82571</ele>
        <time>2021-07-09T12:05:19+0200</time>
      </trkpt>
      <trkpt lat="45.01741" lon="3.24781">
        <ele>1072.174366</ele>
        <time>2021-07-09T12:05:21+0200</time>
      </trkpt>
      <trkpt lat="45.01746" lon="3.24784">
        <ele>1072.742866</ele>
        <time>2021-07-09T12:05:23+0200</time>
      </trkpt>
      <trkpt lat="45.01751" lon="3.24783">
        <ele>1072.783449</ele>
        <time>2021-07-09T12:05:25+0200</time>
      </trkpt>
      <trkpt lat="45.01757" lon="3.24785">
        <ele>1073.056141</ele>
        <time>2021-07-09T12:05:27+0200</time>
      </trkpt>
      <trkpt lat="45.01761" lon="3.24789">
        <ele>1074.097452</ele>
        <time>2021-07-09T12:05:29+0200</time>
      </trkpt>
      <trkpt lat="45.01766" lon="3.24791">
        <ele>1074.327776</ele>
        <time>2021-07-09T12:05:31+0200</time>
      </trkpt>
      <trkpt lat="45.01771" lon="3.24792">
        <ele>1074.487958</ele>
        <time>2021-07-09T12:05:33+0200</time>
      </trkpt>
      <trkpt lat="45.01777" lon="3.24795">
        <ele>1075.247382</ele>
        <time>2021-07-09T12:05:35+0200</time>
      </trkpt>
      <trkpt lat="45.01782" lon="3.24796">
        <ele>1075.228535</ele>
        <time>2021-07-09T12:05:37+0200</time>
      </trkpt>
      <trkpt lat="45.01786" lon="3.24798">
        <ele>1074.706807</ele>
        <time>2021-07-09T12:05:39+0200</time>
      </trkpt>
      <trkpt lat="45.01792" lon="3.248">
        <ele>1074.406365</ele>
        <time>2021-07-09T12:05:41+0200</time>
      </trkpt>
      <trkpt lat="45.01797" lon="3.24802">
        <ele>1074.991133</ele>
        <time>2021-07-09T12:05:43+0200</time>
      </trkpt>
      <trkpt lat="45.01802" lon="3.24805">
        <ele>1075.858733</ele>
        <time>2021-07-09T12:05:45+0200</time>
      </trkpt>
      <trkpt lat="45.01807" lon="3.24807">
        <ele>1076.774396</ele>
        <time>2021-07-09T12:05:47+0200</time>
      </trkpt>
      <trkpt lat="45.01813" lon="3.2481">
        <ele>1077.29266</ele>
        <time>2021-07-09T12:05:49+0200</time>
      </trkpt>
      <trkpt lat="45.01817" lon="3.24813">
        <ele>1078.701064</ele>
        <time>2021-07-09T12:05:51+0200</time>
      </trkpt>
      <trkpt lat="45.01824" lon="3.24815">
        <ele>1079.30677</ele>
        <time>2021-07-09T12:05:54+0200</time>
      </trkpt>
      <trkpt lat="45.0183" lon="3.24818">
        <ele>1079.574279</ele>
        <time>2021-07-09T12:05:56+0200</time>
      </trkpt>
      <trkpt lat="45.01834" lon="3.24821">
        <ele>1080.184202</ele>
        <time>2021-07-09T12:05:58+0200</time>
      </trkpt>
      <trkpt lat="45.01839" lon="3.24823">
        <ele>1080.78954</ele>
        <time>2021-07-09T12:06:00+0200</time>
      </trkpt>
      <trkpt lat="45.01843" lon="3.24826">
        <ele>1081.798512</ele>
        <time>2021-07-09T12:06:02+0200</time>
      </trkpt>
      <trkpt lat="45.01848" lon="3.24829">
        <ele>1082.196544</ele>
        <time>2021-07-09T12:06:04+0200</time>
      </trkpt>
      <trkpt lat="45.01853" lon="3.24834">
        <ele>1082.580282</ele>
        <time>2021-07-09T12:06:07+0200</time>
      </trkpt>
      <trkpt lat="45.01858" lon="3.24836">
        <ele>1083.554053</ele>
        <time>2021-07-09T12:06:09+0200</time>
      </trkpt>
      <trkpt lat="45.01864" lon="3.24838">
        <ele>1084.987405</ele>
        <time>2021-07-09T12:06:13+0200</time>
      </trkpt>
      <trkpt lat="45.01869" lon="3.24841">
        <ele>1085.164284</ele>
        <time>2021-07-09T12:06:16+0200</time>
      </trkpt>
      <trkpt lat="45.01874" lon="3.24844">
        <ele>1085.66726</ele>
        <time>2021-07-09T12:06:19+0200</time>
      </trkpt>
      <trkpt lat="45.01878" lon="3.24847">
        <ele>1086.401125</ele>
        <time>2021-07-09T12:06:22+0200</time>
      </trkpt>
      <trkpt lat="45.01883" lon="3.24849">
        <ele>1087.22492</ele>
        <time>2021-07-09T12:06:25+0200</time>
      </trkpt>
      <trkpt lat="45.01888" lon="3.24852">
        <ele>1087.199079</ele>
        <time>2021-07-09T12:06:28+0200</time>
      </trkpt>
      <trkpt lat="45.01893" lon="3.24855">
        <ele>1088.76479</ele>
        <time>2021-07-09T12:06:32+0200</time>
      </trkpt>
      <trkpt lat="45.01898" lon="3.24855">
        <ele>1089.516872</ele>
        <time>2021-07-09T12:06:35+0200</time>
      </trkpt>
      <trkpt lat="45.01903" lon="3.2486">
        <ele>1089.681648</ele>
        <time>2021-07-09T12:06:39+0200</time>
      </trkpt>
      <trkpt lat="45.01908" lon="3.24863">
        <ele>1091.173128</ele>
        <time>2021-07-09T12:06:42+0200</time>
      </trkpt>
      <trkpt lat="45.01913" lon="3.24866">
        <ele>1093.002687</ele>
        <time>2021-07-09T12:06:46+0200</time>
      </trkpt>
      <trkpt lat="45.01918" lon="3.24869">
        <ele>1094.913338</ele>
        <time>2021-07-09T12:06:49+0200</time>
      </trkpt>
      <trkpt lat="45.01924" lon="3.24874">
        <ele>1096.821714</ele>
        <time>2021-07-09T12:06:53+0200</time>
      </trkpt>
      <trkpt lat="45.01928" lon="3.24878">
        <ele>1098.901321</ele>
        <time>2021-07-09T12:06:56+0200</time>
      </trkpt>
      <trkpt lat="45.01931" lon="3.24882">
        <ele>1100.311092</ele>
        <time>2021-07-09T12:06:58+0200</time>
      </trkpt>
      <trkpt lat="45.01935" lon="3.24887">
        <ele>1102.480996</ele>
        <time>2021-07-09T12:07:02+0200</time>
      </trkpt>
      <trkpt lat="45.01939" lon="3.24891">
        <ele>1101.525014</ele>
        <time>2021-07-09T12:07:05+0200</time>
      </trkpt>
      <trkpt lat="45.01943" lon="3.24897">
        <ele>1103.808431</ele>
        <time>2021-07-09T12:07:09+0200</time>
      </trkpt>
      <trkpt lat="45.01948" lon="3.249">
        <ele>1106.894061</ele>
        <time>2021-07-09T12:07:13+0200</time>
      </trkpt>
      <trkpt lat="45.01953" lon="3.24903">
        <ele>1107.903594</ele>
        <time>2021-07-09T12:07:17+0200</time>
      </trkpt>
      <trkpt lat="45.01959" lon="3.24905">
        <ele>1109.515848</ele>
        <time>2021-07-09T12:07:21+0200</time>
      </trkpt>
      <trkpt lat="45.01964" lon="3.24907">
        <ele>1109.841211</ele>
        <time>2021-07-09T12:07:26+0200</time>
      </trkpt>
      <trkpt lat="45.01968" lon="3.24911">
        <ele>1111.905724</ele>
        <time>2021-07-09T12:07:29+0200</time>
      </trkpt>
      <trkpt lat="45.01973" lon="3.24915">
        <ele>1112.97476</ele>
        <time>2021-07-09T12:07:33+0200</time>
      </trkpt>
      <trkpt lat="45.01978" lon="3.2492">
        <ele>1113.707298</ele>
        <time>2021-07-09T12:07:36+0200</time>
      </trkpt>
      <trkpt lat="45.01983" lon="3.24923">
        <ele>1113.897495</ele>
        <time>2021-07-09T12:07:40+0200</time>
      </trkpt>
      <trkpt lat="45.01989" lon="3.24926">
        <ele>1115.247651</ele>
        <time>2021-07-09T12:07:44+0200</time>
      </trkpt>
      <trkpt lat="45.01992" lon="3.24931">
        <ele>1115.684064</ele>
        <time>2021-07-09T12:07:47+0200</time>
      </trkpt>
      <trkpt lat="45.01996" lon="3.24935">
        <ele>1115.530083</ele>
        <time>2021-07-09T12:07:50+0200</time>
      </trkpt>
      <trkpt lat="45.01999" lon="3.2494">
        <ele>1117.644482</ele>
        <time>2021-07-09T12:07:55+0200</time>
      </trkpt>
      <trkpt lat="45.02003" lon="3.24945">
        <ele>1117.820935</ele>
        <time>2021-07-09T12:08:00+0200</time>
      </trkpt>
      <trkpt lat="45.02007" lon="3.24953">
        <ele>1118.872121</ele>
        <time>2021-07-09T12:08:03+0200</time>
      </trkpt>
      <trkpt lat="45.0201" lon="3.24961">
        <ele>1118.690485</ele>
        <time>2021-07-09T12:08:06+0200</time>
      </trkpt>
      <trkpt lat="45.02011" lon="3.24968">
        <ele>1119.191816</ele>
        <time>2021-07-09T12:08:09+0200</time>
      </trkpt>
      <trkpt lat="45.02014" lon="3.24975">
        <ele>1115.816124</ele>
        <time>2021-07-09T12:08:12+0200</time>
      </trkpt>
      <trkpt lat="45.02017" lon="3.24983">
        <ele>1115.331432</ele>
        <time>2021-07-09T12:08:16+0200</time>
      </trkpt>
      <trkpt lat="45.02018" lon="3.2499">
        <ele>1114.452468</ele>
        <time>2021-07-09T12:08:18+0200</time>
      </trkpt>
      <trkpt lat="45.0202" lon="3.24996">
        <ele>1114.732762</ele>
        <time>2021-07-09T12:08:20+0200</time>
      </trkpt>
      <trkpt lat="45.02022" lon="3.25002">
        <ele>1115.099502</ele>
        <time>2021-07-09T12:08:22+0200</time>
      </trkpt>
      <trkpt lat="45.02025" lon="3.25009">
        <ele>1115.735886</ele>
        <time>2021-07-09T12:08:25+0200</time>
      </trkpt>
      <trkpt lat="45.02028" lon="3.25017">
        <ele>1115.653998</ele>
        <time>2021-07-09T12:08:28+0200</time>
      </trkpt>
      <trkpt lat="45.0203" lon="3.25024">
        <ele>1117.001331</ele>
        <time>2021-07-09T12:08:31+0200</time>
      </trkpt>
      <trkpt lat="45.02032" lon="3.25029">
        <ele>1118.377061</ele>
        <time>2021-07-09T12:08:33+0200</time>
      </trkpt>
      <trkpt lat="45.02033" lon="3.25037">
        <ele>1119.511217</ele>
        <time>2021-07-09T12:08:36+0200</time>
      </trkpt>
      <trkpt lat="45.02035" lon="3.25043">
        <ele>1121.643957</ele>
        <time>2021-07-09T12:08:39+0200</time>
      </trkpt>
      <trkpt lat="45.02039" lon="3.25049">
        <ele>1122.374837</ele>
        <time>2021-07-09T12:08:42+0200</time>
      </trkpt>
      <trkpt lat="45.02042" lon="3.25054">
        <ele>1123.7523</ele>
        <time>2021-07-09T12:08:45+0200</time>
      </trkpt>
      <trkpt lat="45.02044" lon="3.2506">
        <ele>1124.856497</ele>
        <time>2021-07-09T12:08:48+0200</time>
      </trkpt>
      <trkpt lat="45.02047" lon="3.25066">
        <ele>1123.810411</ele>
        <time>2021-07-09T12:08:50+0200</time>
      </trkpt>
      <trkpt lat="45.02049" lon="3.25072">
        <ele>1125.872058</ele>
        <time>2021-07-09T12:08:53+0200</time>
      </trkpt>
      <trkpt lat="45.02054" lon="3.25079">
        <ele>1125.725888</ele>
        <time>2021-07-09T12:08:56+0200</time>
      </trkpt>
      <trkpt lat="45.02056" lon="3.25086">
        <ele>1128.756866</ele>
        <time>2021-07-09T12:09:00+0200</time>
      </trkpt>
      <trkpt lat="45.02059" lon="3.25093">
        <ele>1130.659986</ele>
        <time>2021-07-09T12:09:03+0200</time>
      </trkpt>
      <trkpt lat="45.02062" lon="3.25099">
        <ele>1132.016739</ele>
        <time>2021-07-09T12:09:04+0200</time>
      </trkpt>
      <trkpt lat="45.02064" lon="3.25106">
        <ele>1132.2829</ele>
        <time>2021-07-09T12:09:07+0200</time>
      </trkpt>
      <trkpt lat="45.02067" lon="3.25112">
        <ele>1132.291087</ele>
        <time>2021-07-09T12:09:09+0200</time>
      </trkpt>
      <trkpt lat="45.02069" lon="3.2512">
        <ele>1132.424925</ele>
        <time>2021-07-09T12:09:11+0200</time>
      </trkpt>
      <trkpt lat="45.0207" lon="3.25127">
        <ele>1132.054843</ele>
        <time>2021-07-09T12:09:14+0200</time>
      </trkpt>
      <trkpt lat="45.02069" lon="3.25134">
        <ele>1131.808488</ele>
        <time>2021-07-09T12:09:17+0200</time>
      </trkpt>
      <trkpt lat="45.02066" lon="3.2514">
        <ele>1132.587394</ele>
        <time>2021-07-09T12:09:20+0200</time>
      </trkpt>
      <trkpt lat="45.02062" lon="3.25147">
        <ele>1130.793357</ele>
        <time>2021-07-09T12:09:23+0200</time>
      </trkpt>
      <trkpt lat="45.02057" lon="3.25151">
        <ele>1130.337429</ele>
        <time>2021-07-09T12:09:26+0200</time>
      </trkpt>
      <trkpt lat="45.02052" lon="3.25155">
        <ele>1130.851833</ele>
        <time>2021-07-09T12:09:29+0200</time>
      </trkpt>
      <trkpt lat="45.02046" lon="3.2516">
        <ele>1132.025326</ele>
        <time>2021-07-09T12:09:32+0200</time>
      </trkpt>
      <trkpt lat="45.02043" lon="3.25166">
        <ele>1133.209004</ele>
        <time>2021-07-09T12:09:34+0200</time>
      </trkpt>
      <trkpt lat="45.0204" lon="3.25172">
        <ele>1134.338667</ele>
        <time>2021-07-09T12:09:37+0200</time>
      </trkpt>
      <trkpt lat="45.02036" lon="3.25179">
        <ele>1133.713318</ele>
        <time>2021-07-09T12:09:40+0200</time>
      </trkpt>
      <trkpt lat="45.02035" lon="3.25188">
        <ele>1133.479879</ele>
        <time>2021-07-09T12:09:43+0200</time>
      </trkpt>
      <trkpt lat="45.02032" lon="3.25194">
        <ele>1135.752057</ele>
        <time>2021-07-09T12:09:46+0200</time>
      </trkpt>
      <trkpt lat="45.02028" lon="3.25199">
        <ele>1137.821816</ele>
        <time>2021-07-09T12:09:49+0200</time>
      </trkpt>
      <trkpt lat="45.02027" lon="3.25206">
        <ele>1139.358705</ele>
        <time>2021-07-09T12:09:52+0200</time>
      </trkpt>
      <trkpt lat="45.02028" lon="3.25214">
        <ele>1137.405664</ele>
        <time>2021-07-09T12:09:54+0200</time>
      </trkpt>
      <trkpt lat="45.02028" lon="3.2522">
        <ele>1136.843125</ele>
        <time>2021-07-09T12:09:56+0200</time>
      </trkpt>
      <trkpt lat="45.02029" lon="3.25227">
        <ele>1136.667837</ele>
        <time>2021-07-09T12:09:58+0200</time>
      </trkpt>
      <trkpt lat="45.02029" lon="3.25236">
        <ele>1136.472354</ele>
        <time>2021-07-09T12:10:01+0200</time>
      </trkpt>
      <trkpt lat="45.02031" lon="3.25243">
        <ele>1136.493887</ele>
        <time>2021-07-09T12:10:03+0200</time>
      </trkpt>
      <trkpt lat="45.02032" lon="3.25249">
        <ele>1136.739834</ele>
        <time>2021-07-09T12:10:05+0200</time>
      </trkpt>
      <trkpt lat="45.02031" lon="3.25255">
        <ele>1137.384338</ele>
        <time>2021-07-09T12:10:07+0200</time>
      </trkpt>
      <trkpt lat="45.02032" lon="3.25265">
        <ele>1139.225146</ele>
        <time>2021-07-09T12:10:10+0200</time>
      </trkpt>
      <trkpt lat="45.02031" lon="3.25272">
        <ele>1139.841965</ele>
        <time>2021-07-09T12:10:13+0200</time>
      </trkpt>
      <trkpt lat="45.0203" lon="3.25278">
        <ele>1138.513174</ele>
        <time>2021-07-09T12:10:16+0200</time>
      </trkpt>
      <trkpt lat="45.0203" lon="3.25286">
        <ele>1137.942532</ele>
        <time>2021-07-09T12:10:19+0200</time>
      </trkpt>
      <trkpt lat="45.02032" lon="3.25292">
        <ele>1137.954819</ele>
        <time>2021-07-09T12:10:22+0200</time>
      </trkpt>
      <trkpt lat="45.02034" lon="3.25299">
        <ele>1138.966766</ele>
        <time>2021-07-09T12:10:25+0200</time>
      </trkpt>
      <trkpt lat="45.02037" lon="3.25307">
        <ele>1142.138514</ele>
        <time>2021-07-09T12:10:29+0200</time>
      </trkpt>
      <trkpt lat="45.0204" lon="3.25314">
        <ele>1142.019389</ele>
        <time>2021-07-09T12:10:31+0200</time>
      </trkpt>
      <trkpt lat="45.02042" lon="3.25322">
        <ele>1143.895365</ele>
        <time>2021-07-09T12:10:34+0200</time>
      </trkpt>
      <trkpt lat="45.02044" lon="3.25328">
        <ele>1144.418163</ele>
        <time>2021-07-09T12:10:36+0200</time>
      </trkpt>
      <trkpt lat="45.02047" lon="3.25336">
        <ele>1145.246019</ele>
        <time>2021-07-09T12:10:39+0200</time>
      </trkpt>
      <trkpt lat="45.02051" lon="3.25346">
        <ele>1144.853937</ele>
        <time>2021-07-09T12:10:42+0200</time>
      </trkpt>
      <trkpt lat="45.02053" lon="3.25353">
        <ele>1144.562475</ele>
        <time>2021-07-09T12:10:44+0200</time>
      </trkpt>
      <trkpt lat="45.02055" lon="3.2536">
        <ele>1144.688193</ele>
        <time>2021-07-09T12:10:46+0200</time>
      </trkpt>
      <trkpt lat="45.02058" lon="3.25366">
        <ele>1146.150531</ele>
        <time>2021-07-09T12:10:49+0200</time>
      </trkpt>
      <trkpt lat="45.02063" lon="3.25372">
        <ele>1146.752821</ele>
        <time>2021-07-09T12:10:51+0200</time>
      </trkpt>
      <trkpt lat="45.02066" lon="3.25377">
        <ele>1146.386829</ele>
        <time>2021-07-09T12:10:53+0200</time>
      </trkpt>
      <trkpt lat="45.02069" lon="3.25385">
        <ele>1146.600255</ele>
        <time>2021-07-09T12:10:55+0200</time>
      </trkpt>
      <trkpt lat="45.02073" lon="3.25393">
        <ele>1149.001476</ele>
        <time>2021-07-09T12:10:58+0200</time>
      </trkpt>
      <trkpt lat="45.02075" lon="3.25399">
        <ele>1149.035808</ele>
        <time>2021-07-09T12:11:00+0200</time>
      </trkpt>
      <trkpt lat="45.02076" lon="3.25408">
        <ele>1147.884848</ele>
        <time>2021-07-09T12:11:03+0200</time>
      </trkpt>
      <trkpt lat="45.02078" lon="3.25416">
        <ele>1148.685063</ele>
        <time>2021-07-09T12:11:06+0200</time>
      </trkpt>
      <trkpt lat="45.02079" lon="3.25423">
        <ele>1149.743238</ele>
        <time>2021-07-09T12:11:08+0200</time>
      </trkpt>
      <trkpt lat="45.02082" lon="3.2543">
        <ele>1148.997034</ele>
        <time>2021-07-09T12:11:10+0200</time>
      </trkpt>
      <trkpt lat="45.02084" lon="3.25438">
        <ele>1152.007783</ele>
        <time>2021-07-09T12:11:13+0200</time>
      </trkpt>
      <trkpt lat="45.02085" lon="3.25446">
        <ele>1153.419103</ele>
        <time>2021-07-09T12:11:17+0200</time>
      </trkpt>
      <trkpt lat="45.02085" lon="3.25453">
        <ele>1153.261037</ele>
        <time>2021-07-09T12:11:18+0200</time>
      </trkpt>
      <trkpt lat="45.02086" lon="3.2546">
        <ele>1153.826589</ele>
        <time>2021-07-09T12:11:21+0200</time>
      </trkpt>
      <trkpt lat="45.02088" lon="3.25467">
        <ele>1153.837246</ele>
        <time>2021-07-09T12:11:24+0200</time>
      </trkpt>
      <trkpt lat="45.02091" lon="3.25472">
        <ele>1152.734615</ele>
        <time>2021-07-09T12:11:27+0200</time>
      </trkpt>
      <trkpt lat="45.02094" lon="3.25481">
        <ele>1153.864533</ele>
        <time>2021-07-09T12:11:30+0200</time>
      </trkpt>
      <trkpt lat="45.02099" lon="3.25488">
        <ele>1149.239714</ele>
        <time>2021-07-09T12:11:33+0200</time>
      </trkpt>
      <trkpt lat="45.02102" lon="3.25494">
        <ele>1151.589037</ele>
        <time>2021-07-09T12:11:37+0200</time>
      </trkpt>
      <trkpt lat="45.02106" lon="3.25502">
        <ele>1154.076352</ele>
        <time>2021-07-09T12:11:41+0200</time>
      </trkpt>
      <trkpt lat="45.02109" lon="3.25508">
        <ele>1158.469107</ele>
        <time>2021-07-09T12:11:45+0200</time>
      </trkpt>
      <trkpt lat="45.02112" lon="3.25515">
        <ele>1162.04832</ele>
        <time>2021-07-09T12:11:49+0200</time>
      </trkpt>
      <trkpt lat="45.02115" lon="3.2552">
        <ele>1163.25747</ele>
        <time>2021-07-09T12:11:52+0200</time>
      </trkpt>
      <trkpt lat="45.02119" lon="3.25526">
        <ele>1167.329916</ele>
        <time>2021-07-09T12:11:57+0200</time>
      </trkpt>
      <trkpt lat="45.02124" lon="3.2553">
        <ele>1169.222871</ele>
        <time>2021-07-09T12:12:00+0200</time>
      </trkpt>
      <trkpt lat="45.02127" lon="3.25536">
        <ele>1170.088483</ele>
        <time>2021-07-09T12:12:02+0200</time>
      </trkpt>
      <trkpt lat="45.02131" lon="3.2554">
        <ele>1166.98634</ele>
        <time>2021-07-09T12:12:03+0200</time>
      </trkpt>
      <trkpt lat="45.02136" lon="3.25543">
        <ele>1169.286214</ele>
        <time>2021-07-09T12:12:08+0200</time>
      </trkpt>
      <trkpt lat="45.02141" lon="3.25548">
        <ele>1171.843634</ele>
        <time>2021-07-09T12:12:11+0200</time>
      </trkpt>
      <trkpt lat="45.02144" lon="3.25552">
        <ele>1172.400731</ele>
        <time>2021-07-09T12:12:14+0200</time>
      </trkpt>
      <trkpt lat="45.02148" lon="3.25559">
        <ele>1175.440588</ele>
        <time>2021-07-09T12:12:18+0200</time>
      </trkpt>
      <trkpt lat="45.02154" lon="3.25562">
        <ele>1175.115498</ele>
        <time>2021-07-09T12:12:24+0200</time>
      </trkpt>
      <trkpt lat="45.02158" lon="3.25566">
        <ele>1174.526347</ele>
        <time>2021-07-09T12:12:27+0200</time>
      </trkpt>
      <trkpt lat="45.02162" lon="3.2557">
        <ele>1175.534666</ele>
        <time>2021-07-09T12:12:31+0200</time>
      </trkpt>
      <trkpt lat="45.02167" lon="3.25572">
        <ele>1172.166526</ele>
        <time>2021-07-09T12:12:35+0200</time>
      </trkpt>
      <trkpt lat="45.02172" lon="3.25572">
        <ele>1170.948621</ele>
        <time>2021-07-09T12:12:39+0200</time>
      </trkpt>
      <trkpt lat="45.02174" lon="3.25579">
        <ele>1169.776372</ele>
        <time>2021-07-09T12:12:44+0200</time>
      </trkpt>
      <trkpt lat="45.02179" lon="3.2558">
        <ele>1162.788928</ele>
        <time>2021-07-09T12:13:03+0200</time>
      </trkpt>
      <trkpt lat="45.02174" lon="3.25583">
        <ele>1164.804709</ele>
        <time>2021-07-09T12:13:19+0200</time>
      </trkpt>
      <trkpt lat="45.02179" lon="3.25581">
        <ele>1159.550428</ele>
        <time>2021-07-09T12:14:01+0200</time>
      </trkpt>
      <trkpt lat="45.02181" lon="3.25575">
        <ele>1169.997982</ele>
        <time>2021-07-09T12:14:29+0200</time>
      </trkpt>
      <trkpt lat="45.02177" lon="3.25572">
        <ele>1161.642964</ele>
        <time>2021-07-09T12:15:14+0200</time>
      </trkpt>
      <trkpt lat="45.02179" lon="3.25578">
        <ele>1167.437427</ele>
        <time>2021-07-09T12:16:23+0200</time>
      </trkpt>
      <trkpt lat="45.02181" lon="3.25572">
        <ele>1166.473108</ele>
        <time>2021-07-09T12:17:22+0200</time>
      </trkpt>
      <trkpt lat="45.02184" lon="3.25566">
        <ele>1168.39957</ele>
        <time>2021-07-09T12:17:27+0200</time>
      </trkpt>
      <trkpt lat="45.02186" lon="3.2556">
        <ele>1170.697863</ele>
        <time>2021-07-09T12:17:31+0200</time>
      </trkpt>
      <trkpt lat="45.02187" lon="3.25552">
        <ele>1173.926212</ele>
        <time>2021-07-09T12:17:35+0200</time>
      </trkpt>
      <trkpt lat="45.02191" lon="3.25546">
        <ele>1175.865519</ele>
        <time>2021-07-09T12:17:39+0200</time>
      </trkpt>
      <trkpt lat="45.02194" lon="3.2554">
        <ele>1176.198009</ele>
        <time>2021-07-09T12:17:42+0200</time>
      </trkpt>
      <trkpt lat="45.02197" lon="3.25535">
        <ele>1176.175183</ele>
        <time>2021-07-09T12:17:45+0200</time>
      </trkpt>
      <trkpt lat="45.02201" lon="3.25532">
        <ele>1176.890504</ele>
        <time>2021-07-09T12:17:48+0200</time>
      </trkpt>
      <trkpt lat="45.02205" lon="3.25528">
        <ele>1177.726211</ele>
        <time>2021-07-09T12:17:51+0200</time>
      </trkpt>
      <trkpt lat="45.02209" lon="3.25522">
        <ele>1177.270259</ele>
        <time>2021-07-09T12:17:54+0200</time>
      </trkpt>
      <trkpt lat="45.02214" lon="3.25516">
        <ele>1176.733946</ele>
        <time>2021-07-09T12:17:57+0200</time>
      </trkpt>
      <trkpt lat="45.02218" lon="3.25509">
        <ele>1176.005112</ele>
        <time>2021-07-09T12:18:01+0200</time>
      </trkpt>
      <trkpt lat="45.02222" lon="3.25506">
        <ele>1175.855123</ele>
        <time>2021-07-09T12:18:04+0200</time>
      </trkpt>
      <trkpt lat="45.02226" lon="3.255">
        <ele>1177.340224</ele>
        <time>2021-07-09T12:18:07+0200</time>
      </trkpt>
      <trkpt lat="45.0223" lon="3.25496">
        <ele>1178.175932</ele>
        <time>2021-07-09T12:18:10+0200</time>
      </trkpt>
      <trkpt lat="45.02235" lon="3.25493">
        <ele>1179.718716</ele>
        <time>2021-07-09T12:18:13+0200</time>
      </trkpt>
      <trkpt lat="45.02238" lon="3.25487">
        <ele>1184.234938</ele>
        <time>2021-07-09T12:18:17+0200</time>
      </trkpt>
      <trkpt lat="45.02242" lon="3.25481">
        <ele>1186.345658</ele>
        <time>2021-07-09T12:18:21+0200</time>
      </trkpt>
      <trkpt lat="45.02246" lon="3.25478">
        <ele>1187.120203</ele>
        <time>2021-07-09T12:18:24+0200</time>
      </trkpt>
      <trkpt lat="45.0225" lon="3.25475">
        <ele>1187.458554</ele>
        <time>2021-07-09T12:18:27+0200</time>
      </trkpt>
      <trkpt lat="45.02256" lon="3.25473">
        <ele>1185.100646</ele>
        <time>2021-07-09T12:18:31+0200</time>
      </trkpt>
      <trkpt lat="45.0226" lon="3.25469">
        <ele>1183.917044</ele>
        <time>2021-07-09T12:18:35+0200</time>
      </trkpt>
      <trkpt lat="45.02265" lon="3.25467">
        <ele>1185.138507</ele>
        <time>2021-07-09T12:18:38+0200</time>
      </trkpt>
      <trkpt lat="45.02269" lon="3.25463">
        <ele>1186.800387</ele>
        <time>2021-07-09T12:18:42+0200</time>
      </trkpt>
      <trkpt lat="45.02274" lon="3.2546">
        <ele>1187.700702</ele>
        <time>2021-07-09T12:18:45+0200</time>
      </trkpt>
      <trkpt lat="45.02278" lon="3.25456">
        <ele>1187.03804</ele>
        <time>2021-07-09T12:18:48+0200</time>
      </trkpt>
      <trkpt lat="45.02282" lon="3.25454">
        <ele>1189.132615</ele>
        <time>2021-07-09T12:18:52+0200</time>
      </trkpt>
      <trkpt lat="45.02287" lon="3.25451">
        <ele>1191.798438</ele>
        <time>2021-07-09T12:18:56+0200</time>
      </trkpt>
      <trkpt lat="45.0229" lon="3.25447">
        <ele>1193.089166</ele>
        <time>2021-07-09T12:19:00+0200</time>
      </trkpt>
      <trkpt lat="45.02295" lon="3.25442">
        <ele>1196.351931</ele>
        <time>2021-07-09T12:19:04+0200</time>
      </trkpt>
      <trkpt lat="45.023" lon="3.2544">
        <ele>1197.427774</ele>
        <time>2021-07-09T12:19:08+0200</time>
      </trkpt>
      <trkpt lat="45.02305" lon="3.25438">
        <ele>1197.529569</ele>
        <time>2021-07-09T12:19:12+0200</time>
      </trkpt>
      <trkpt lat="45.02308" lon="3.25433">
        <ele>1197.686506</ele>
        <time>2021-07-09T12:19:15+0200</time>
      </trkpt>
      <trkpt lat="45.02314" lon="3.25433">
        <ele>1196.697094</ele>
        <time>2021-07-09T12:19:18+0200</time>
      </trkpt>
      <trkpt lat="45.02318" lon="3.2543">
        <ele>1198.896414</ele>
        <time>2021-07-09T12:19:22+0200</time>
      </trkpt>
      <trkpt lat="45.02323" lon="3.25427">
        <ele>1200.85833</ele>
        <time>2021-07-09T12:19:26+0200</time>
      </trkpt>
      <trkpt lat="45.02327" lon="3.25424">
        <ele>1202.848322</ele>
        <time>2021-07-09T12:19:29+0200</time>
      </trkpt>
      <trkpt lat="45.02331" lon="3.25422">
        <ele>1203.559996</ele>
        <time>2021-07-09T12:19:32+0200</time>
      </trkpt>
      <trkpt lat="45.02336" lon="3.25419">
        <ele>1205.277209</ele>
        <time>2021-07-09T12:19:35+0200</time>
      </trkpt>
      <trkpt lat="45.0234" lon="3.25416">
        <ele>1206.782732</ele>
        <time>2021-07-09T12:19:38+0200</time>
      </trkpt>
      <trkpt lat="45.02345" lon="3.25414">
        <ele>1206.310562</ele>
        <time>2021-07-09T12:19:41+0200</time>
      </trkpt>
      <trkpt lat="45.0235" lon="3.25412">
        <ele>1209.685669</ele>
        <time>2021-07-09T12:19:45+0200</time>
      </trkpt>
      <trkpt lat="45.02354" lon="3.25406">
        <ele>1212.436922</ele>
        <time>2021-07-09T12:19:49+0200</time>
      </trkpt>
      <trkpt lat="45.02358" lon="3.25401">
        <ele>1213.60026</ele>
        <time>2021-07-09T12:19:53+0200</time>
      </trkpt>
      <trkpt lat="45.02363" lon="3.25397">
        <ele>1214.104173</ele>
        <time>2021-07-09T12:19:57+0200</time>
      </trkpt>
      <trkpt lat="45.02368" lon="3.25392">
        <ele>1215.875334</ele>
        <time>2021-07-09T12:20:01+0200</time>
      </trkpt>
      <trkpt lat="45.02374" lon="3.25391">
        <ele>1217.370252</ele>
        <time>2021-07-09T12:20:05+0200</time>
      </trkpt>
      <trkpt lat="45.02378" lon="3.25388">
        <ele>1218.65841</ele>
        <time>2021-07-09T12:20:08+0200</time>
      </trkpt>
      <trkpt lat="45.02382" lon="3.25385">
        <ele>1220.247298</ele>
        <time>2021-07-09T12:20:12+0200</time>
      </trkpt>
      <trkpt lat="45.02387" lon="3.25383">
        <ele>1221.689971</ele>
        <time>2021-07-09T12:20:15+0200</time>
      </trkpt>
      <trkpt lat="45.02392" lon="3.25386">
        <ele>1223.074924</ele>
        <time>2021-07-09T12:20:18+0200</time>
      </trkpt>
      <trkpt lat="45.02397" lon="3.25385">
        <ele>1222.192491</ele>
        <time>2021-07-09T12:20:22+0200</time>
      </trkpt>
      <trkpt lat="45.02402" lon="3.25385">
        <ele>1222.383484</ele>
        <time>2021-07-09T12:20:26+0200</time>
      </trkpt>
      <trkpt lat="45.02407" lon="3.25386">
        <ele>1223.900236</ele>
        <time>2021-07-09T12:20:30+0200</time>
      </trkpt>
      <trkpt lat="45.02412" lon="3.25385">
        <ele>1224.667645</ele>
        <time>2021-07-09T12:20:34+0200</time>
      </trkpt>
      <trkpt lat="45.02418" lon="3.25386">
        <ele>1225.523821</ele>
        <time>2021-07-09T12:20:38+0200</time>
      </trkpt>
      <trkpt lat="45.02423" lon="3.25384">
        <ele>1225.942175</ele>
        <time>2021-07-09T12:20:41+0200</time>
      </trkpt>
      <trkpt lat="45.02429" lon="3.25387">
        <ele>1223.970276</ele>
        <time>2021-07-09T12:20:44+0200</time>
      </trkpt>
      <trkpt lat="45.02434" lon="3.25389">
        <ele>1224.17197</ele>
        <time>2021-07-09T12:20:47+0200</time>
      </trkpt>
      <trkpt lat="45.02439" lon="3.2539">
        <ele>1221.495486</ele>
        <time>2021-07-09T12:20:50+0200</time>
      </trkpt>
      <trkpt lat="45.02444" lon="3.25396">
        <ele>1220.789698</ele>
        <time>2021-07-09T12:20:53+0200</time>
      </trkpt>
      <trkpt lat="45.02448" lon="3.25403">
        <ele>1219.47007</ele>
        <time>2021-07-09T12:20:55+0200</time>
      </trkpt>
      <trkpt lat="45.02452" lon="3.25405">
        <ele>1221.135314</ele>
        <time>2021-07-09T12:20:59+0200</time>
      </trkpt>
      <trkpt lat="45.02459" lon="3.25407">
        <ele>1225.216883</ele>
        <time>2021-07-09T12:21:04+0200</time>
      </trkpt>
      <trkpt lat="45.02464" lon="3.25412">
        <ele>1224.455102</ele>
        <time>2021-07-09T12:21:07+0200</time>
      </trkpt>
      <trkpt lat="45.02469" lon="3.25417">
        <ele>1225.011408</ele>
        <time>2021-07-09T12:21:10+0200</time>
      </trkpt>
      <trkpt lat="45.02474" lon="3.25418">
        <ele>1225.067262</ele>
        <time>2021-07-09T12:21:14+0200</time>
      </trkpt>
      <trkpt lat="45.02479" lon="3.25418">
        <ele>1222.089652</ele>
        <time>2021-07-09T12:21:19+0200</time>
      </trkpt>
      <trkpt lat="45.02484" lon="3.25419">
        <ele>1221.738227</ele>
        <time>2021-07-09T12:21:23+0200</time>
      </trkpt>
      <trkpt lat="45.02488" lon="3.2542">
        <ele>1223.097796</ele>
        <time>2021-07-09T12:21:26+0200</time>
      </trkpt>
      <trkpt lat="45.02495" lon="3.25423">
        <ele>1220.421493</ele>
        <time>2021-07-09T12:21:28+0200</time>
      </trkpt>
      <trkpt lat="45.025" lon="3.25425">
        <ele>1219.986177</ele>
        <time>2021-07-09T12:21:31+0200</time>
      </trkpt>
      <trkpt lat="45.02505" lon="3.25425">
        <ele>1221.985247</ele>
        <time>2021-07-09T12:21:36+0200</time>
      </trkpt>
      <trkpt lat="45.02511" lon="3.25422">
        <ele>1225.86975</ele>
        <time>2021-07-09T12:21:42+0200</time>
      </trkpt>
      <trkpt lat="45.02515" lon="3.2542">
        <ele>1227.351176</ele>
        <time>2021-07-09T12:21:47+0200</time>
      </trkpt>
      <trkpt lat="45.0252" lon="3.25419">
        <ele>1227.719783</ele>
        <time>2021-07-09T12:21:53+0200</time>
      </trkpt>
      <trkpt lat="45.02526" lon="3.25417">
        <ele>1228.07125</ele>
        <time>2021-07-09T12:21:57+0200</time>
      </trkpt>
      <trkpt lat="45.0253" lon="3.25419">
        <ele>1228.367895</ele>
        <time>2021-07-09T12:22:00+0200</time>
      </trkpt>
      <trkpt lat="45.02535" lon="3.25419">
        <ele>1228.947565</ele>
        <time>2021-07-09T12:22:04+0200</time>
      </trkpt>
      <trkpt lat="45.02539" lon="3.25417">
        <ele>1230.263915</ele>
        <time>2021-07-09T12:22:08+0200</time>
      </trkpt>
      <trkpt lat="45.02545" lon="3.25416">
        <ele>1232.705857</ele>
        <time>2021-07-09T12:22:13+0200</time>
      </trkpt>
      <trkpt lat="45.02549" lon="3.25415">
        <ele>1233.609974</ele>
        <time>2021-07-09T12:22:15+0200</time>
      </trkpt>
      <trkpt lat="45.02554" lon="3.25415">
        <ele>1235.686252</ele>
        <time>2021-07-09T12:22:19+0200</time>
      </trkpt>
      <trkpt lat="45.0256" lon="3.25415">
        <ele>1236.096766</ele>
        <time>2021-07-09T12:22:23+0200</time>
      </trkpt>
      <trkpt lat="45.02564" lon="3.25412">
        <ele>1237.563139</ele>
        <time>2021-07-09T12:22:26+0200</time>
      </trkpt>
      <trkpt lat="45.0257" lon="3.25414">
        <ele>1239.265797</ele>
        <time>2021-07-09T12:22:29+0200</time>
      </trkpt>
      <trkpt lat="45.02574" lon="3.25413">
        <ele>1241.813772</ele>
        <time>2021-07-09T12:22:33+0200</time>
      </trkpt>
      <trkpt lat="45.02579" lon="3.25411">
        <ele>1241.773243</ele>
        <time>2021-07-09T12:22:37+0200</time>
      </trkpt>
      <trkpt lat="45.02584" lon="3.25413">
        <ele>1240.032731</ele>
        <time>2021-07-09T12:22:40+0200</time>
      </trkpt>
      <trkpt lat="45.02589" lon="3.25412">
        <ele>1239.20692</ele>
        <time>2021-07-09T12:22:43+0200</time>
      </trkpt>
      <trkpt lat="45.02595" lon="3.25415">
        <ele>1239.315364</ele>
        <time>2021-07-09T12:22:46+0200</time>
      </trkpt>
      <trkpt lat="45.026" lon="3.25414">
        <ele>1240.190537</ele>
        <time>2021-07-09T12:22:50+0200</time>
      </trkpt>
      <trkpt lat="45.02605" lon="3.25413">
        <ele>1241.322394</ele>
        <time>2021-07-09T12:22:54+0200</time>
      </trkpt>
      <trkpt lat="45.0261" lon="3.25414">
        <ele>1244.207244</ele>
        <time>2021-07-09T12:23:00+0200</time>
      </trkpt>
      <trkpt lat="45.02615" lon="3.25416">
        <ele>1244.784064</ele>
        <time>2021-07-09T12:23:03+0200</time>
      </trkpt>
      <trkpt lat="45.02621" lon="3.25414">
        <ele>1243.535778</ele>
        <time>2021-07-09T12:23:05+0200</time>
      </trkpt>
      <trkpt lat="45.02626" lon="3.25414">
        <ele>1244.270049</ele>
        <time>2021-07-09T12:23:08+0200</time>
      </trkpt>
      <trkpt lat="45.02632" lon="3.25415">
        <ele>1246.587055</ele>
        <time>2021-07-09T12:23:12+0200</time>
      </trkpt>
      <trkpt lat="45.02637" lon="3.25414">
        <ele>1247.754438</ele>
        <time>2021-07-09T12:23:16+0200</time>
      </trkpt>
      <trkpt lat="45.02641" lon="3.25411">
        <ele>1249.566067</ele>
        <time>2021-07-09T12:23:19+0200</time>
      </trkpt>
      <trkpt lat="45.02645" lon="3.25415">
        <ele>1251.19633</ele>
        <time>2021-07-09T12:23:24+0200</time>
      </trkpt>
      <trkpt lat="45.0265" lon="3.25414">
        <ele>1254.479982</ele>
        <time>2021-07-09T12:23:29+0200</time>
      </trkpt>
      <trkpt lat="45.02656" lon="3.25414">
        <ele>1257.373801</ele>
        <time>2021-07-09T12:23:33+0200</time>
      </trkpt>
      <trkpt lat="45.02661" lon="3.25414">
        <ele>1257.185062</ele>
        <time>2021-07-09T12:23:36+0200</time>
      </trkpt>
      <trkpt lat="45.02667" lon="3.25414">
        <ele>1257.584182</ele>
        <time>2021-07-09T12:23:40+0200</time>
      </trkpt>
      <trkpt lat="45.02673" lon="3.25415">
        <ele>1259.009545</ele>
        <time>2021-07-09T12:23:44+0200</time>
      </trkpt>
      <trkpt lat="45.02678" lon="3.25415">
        <ele>1259.440889</ele>
        <time>2021-07-09T12:23:49+0200</time>
      </trkpt>
      <trkpt lat="45.02684" lon="3.25411">
        <ele>1259.868065</ele>
        <time>2021-07-09T12:23:53+0200</time>
      </trkpt>
      <trkpt lat="45.02688" lon="3.25407">
        <ele>1260.790564</ele>
        <time>2021-07-09T12:23:57+0200</time>
      </trkpt>
      <trkpt lat="45.02693" lon="3.25402">
        <ele>1262.966965</ele>
        <time>2021-07-09T12:24:01+0200</time>
      </trkpt>
      <trkpt lat="45.02698" lon="3.25403">
        <ele>1260.952289</ele>
        <time>2021-07-09T12:24:04+0200</time>
      </trkpt>
      <trkpt lat="45.02702" lon="3.254">
        <ele>1259.569462</ele>
        <time>2021-07-09T12:24:07+0200</time>
      </trkpt>
      <trkpt lat="45.02707" lon="3.25397">
        <ele>1258.240331</ele>
        <time>2021-07-09T12:24:11+0200</time>
      </trkpt>
      <trkpt lat="45.0271" lon="3.25392">
        <ele>1256.633914</ele>
        <time>2021-07-09T12:24:15+0200</time>
      </trkpt>
      <trkpt lat="45.02714" lon="3.25388">
        <ele>1256.887406</ele>
        <time>2021-07-09T12:24:19+0200</time>
      </trkpt>
      <trkpt lat="45.02717" lon="3.25384">
        <ele>1254.581602</ele>
        <time>2021-07-09T12:24:23+0200</time>
      </trkpt>
      <trkpt lat="45.02723" lon="3.25383">
        <ele>1250.807518</ele>
        <time>2021-07-09T12:24:28+0200</time>
      </trkpt>
      <trkpt lat="45.02725" lon="3.25388">
        <ele>1251.558438</ele>
        <time>2021-07-09T12:24:35+0200</time>
      </trkpt>
      <trkpt lat="45.0273" lon="3.25386">
        <ele>1248.740215</ele>
        <time>2021-07-09T12:24:43+0200</time>
      </trkpt>
      <trkpt lat="45.02725" lon="3.25384">
        <ele>1252.556983</ele>
        <time>2021-07-09T12:25:01+0200</time>
      </trkpt>
      <trkpt lat="45.02728" lon="3.25389">
        <ele>1240.981593</ele>
        <time>2021-07-09T12:25:36+0200</time>
      </trkpt>
      <trkpt lat="45.02723" lon="3.25388">
        <ele>1242.686982</ele>
        <time>2021-07-09T12:25:54+0200</time>
      </trkpt>
      <trkpt lat="45.0272" lon="3.25383">
        <ele>1248.068606</ele>
        <time>2021-07-09T12:26:04+0200</time>
      </trkpt>
      <trkpt lat="45.02725" lon="3.25384">
        <ele>1256.365599</ele>
        <time>2021-07-09T12:26:16+0200</time>
      </trkpt>
      <trkpt lat="45.0273" lon="3.25384">
        <ele>1255.711451</ele>
        <time>2021-07-09T12:26:27+0200</time>
      </trkpt>
      <trkpt lat="45.02725" lon="3.25384">
        <ele>1256.397914</ele>
        <time>2021-07-09T12:26:35+0200</time>
      </trkpt>
      <trkpt lat="45.02721" lon="3.2538">
        <ele>1239.724075</ele>
        <time>2021-07-09T12:27:10+0200</time>
      </trkpt>
      <trkpt lat="45.02724" lon="3.25375">
        <ele>1239.368625</ele>
        <time>2021-07-09T12:27:24+0200</time>
      </trkpt>
      <trkpt lat="45.02724" lon="3.25381">
        <ele>1248.279766</ele>
        <time>2021-07-09T12:27:48+0200</time>
      </trkpt>
      <trkpt lat="45.0272" lon="3.25383">
        <ele>1250.935404</ele>
        <time>2021-07-09T12:27:56+0200</time>
      </trkpt>
      <trkpt lat="45.0272" lon="3.25376">
        <ele>1246.96905</ele>
        <time>2021-07-09T12:28:30+0200</time>
      </trkpt>
      <trkpt lat="45.02726" lon="3.25378">
        <ele>1255.784579</ele>
        <time>2021-07-09T12:28:46+0200</time>
      </trkpt>
      <trkpt lat="45.02731" lon="3.25377">
        <ele>1260.602379</ele>
        <time>2021-07-09T12:28:50+0200</time>
      </trkpt>
      <trkpt lat="45.02734" lon="3.25382">
        <ele>1262.321626</ele>
        <time>2021-07-09T12:28:53+0200</time>
      </trkpt>
      <trkpt lat="45.02739" lon="3.25383">
        <ele>1263.732802</ele>
        <time>2021-07-09T12:28:57+0200</time>
      </trkpt>
      <trkpt lat="45.02742" lon="3.25387">
        <ele>1264.140095</ele>
        <time>2021-07-09T12:29:01+0200</time>
      </trkpt>
      <trkpt lat="45.02746" lon="3.25391">
        <ele>1263.998271</ele>
        <time>2021-07-09T12:29:04+0200</time>
      </trkpt>
      <trkpt lat="45.02751" lon="3.25397">
        <ele>1261.680199</ele>
        <time>2021-07-09T12:29:07+0200</time>
      </trkpt>
      <trkpt lat="45.02755" lon="3.25401">
        <ele>1261.273881</ele>
        <time>2021-07-09T12:29:10+0200</time>
      </trkpt>
      <trkpt lat="45.0276" lon="3.25406">
        <ele>1261.485121</ele>
        <time>2021-07-09T12:29:13+0200</time>
      </trkpt>
      <trkpt lat="45.02763" lon="3.25409">
        <ele>1260.644471</ele>
        <time>2021-07-09T12:29:15+0200</time>
      </trkpt>
      <trkpt lat="45.02766" lon="3.25414">
        <ele>1260.686378</ele>
        <time>2021-07-09T12:29:18+0200</time>
      </trkpt>
      <trkpt lat="45.0277" lon="3.25419">
        <ele>1260.356779</ele>
        <time>2021-07-09T12:29:24+0200</time>
      </trkpt>
      <trkpt lat="45.02774" lon="3.25426">
        <ele>1260.97362</ele>
        <time>2021-07-09T12:29:29+0200</time>
      </trkpt>
      <trkpt lat="45.02779" lon="3.2543">
        <ele>1259.067797</ele>
        <time>2021-07-09T12:29:32+0200</time>
      </trkpt>
      <trkpt lat="45.02784" lon="3.25436">
        <ele>1258.402545</ele>
        <time>2021-07-09T12:29:35+0200</time>
      </trkpt>
      <trkpt lat="45.02787" lon="3.25441">
        <ele>1258.060533</ele>
        <time>2021-07-09T12:29:38+0200</time>
      </trkpt>
      <trkpt lat="45.02791" lon="3.25448">
        <ele>1257.342182</ele>
        <time>2021-07-09T12:29:41+0200</time>
      </trkpt>
      <trkpt lat="45.02794" lon="3.25453">
        <ele>1258.715455</ele>
        <time>2021-07-09T12:29:43+0200</time>
      </trkpt>
      <trkpt lat="45.02797" lon="3.25459">
        <ele>1258.479556</ele>
        <time>2021-07-09T12:29:46+0200</time>
      </trkpt>
      <trkpt lat="45.02801" lon="3.25463">
        <ele>1258.274734</ele>
        <time>2021-07-09T12:29:49+0200</time>
      </trkpt>
      <trkpt lat="45.02805" lon="3.25468">
        <ele>1259.551145</ele>
        <time>2021-07-09T12:29:53+0200</time>
      </trkpt>
      <trkpt lat="45.02808" lon="3.25474">
        <ele>1258.319718</ele>
        <time>2021-07-09T12:29:56+0200</time>
      </trkpt>
      <trkpt lat="45.02811" lon="3.2548">
        <ele>1259.624559</ele>
        <time>2021-07-09T12:30:00+0200</time>
      </trkpt>
      <trkpt lat="45.02814" lon="3.25487">
        <ele>1262.025052</ele>
        <time>2021-07-09T12:30:03+0200</time>
      </trkpt>
      <trkpt lat="45.02817" lon="3.25493">
        <ele>1262.306036</ele>
        <time>2021-07-09T12:30:06+0200</time>
      </trkpt>
      <trkpt lat="45.02821" lon="3.25497">
        <ele>1262.078267</ele>
        <time>2021-07-09T12:30:10+0200</time>
      </trkpt>
      <trkpt lat="45.02824" lon="3.25503">
        <ele>1262.551927</ele>
        <time>2021-07-09T12:30:13+0200</time>
      </trkpt>
      <trkpt lat="45.02826" lon="3.25509">
        <ele>1262.613487</ele>
        <time>2021-07-09T12:30:16+0200</time>
      </trkpt>
      <trkpt lat="45.0283" lon="3.25515">
        <ele>1263.105129</ele>
        <time>2021-07-09T12:30:19+0200</time>
      </trkpt>
      <trkpt lat="45.02831" lon="3.25522">
        <ele>1263.83074</ele>
        <time>2021-07-09T12:30:23+0200</time>
      </trkpt>
      <trkpt lat="45.02832" lon="3.2553">
        <ele>1264.178528</ele>
        <time>2021-07-09T12:30:28+0200</time>
      </trkpt>
      <trkpt lat="45.02832" lon="3.25538">
        <ele>1263.144516</ele>
        <time>2021-07-09T12:30:32+0200</time>
      </trkpt>
      <trkpt lat="45.02833" lon="3.25545">
        <ele>1266.212826</ele>
        <time>2021-07-09T12:30:35+0200</time>
      </trkpt>
      <trkpt lat="45.02834" lon="3.25553">
        <ele>1267.664771</ele>
        <time>2021-07-09T12:30:38+0200</time>
      </trkpt>
      <trkpt lat="45.02835" lon="3.2556">
        <ele>1269.317376</ele>
        <time>2021-07-09T12:30:43+0200</time>
      </trkpt>
      <trkpt lat="45.02836" lon="3.25568">
        <ele>1270.928461</ele>
        <time>2021-07-09T12:30:46+0200</time>
      </trkpt>
      <trkpt lat="45.02837" lon="3.25576">
        <ele>1271.66988</ele>
        <time>2021-07-09T12:30:49+0200</time>
      </trkpt>
      <trkpt lat="45.02837" lon="3.25582">
        <ele>1272.608684</ele>
        <time>2021-07-09T12:30:52+0200</time>
      </trkpt>
      <trkpt lat="45.02839" lon="3.25592">
        <ele>1269.665582</ele>
        <time>2021-07-09T12:30:56+0200</time>
      </trkpt>
      <trkpt lat="45.02841" lon="3.25601">
        <ele>1268.284647</ele>
        <time>2021-07-09T12:30:59+0200</time>
      </trkpt>
      <trkpt lat="45.02842" lon="3.25609">
        <ele>1267.582614</ele>
        <time>2021-07-09T12:31:02+0200</time>
      </trkpt>
      <trkpt lat="45.02844" lon="3.25617">
        <ele>1266.571874</ele>
        <time>2021-07-09T12:31:06+0200</time>
      </trkpt>
      <trkpt lat="45.02846" lon="3.25623">
        <ele>1268.654197</ele>
        <time>2021-07-09T12:31:09+0200</time>
      </trkpt>
      <trkpt lat="45.02849" lon="3.25628">
        <ele>1269.173755</ele>
        <time>2021-07-09T12:31:12+0200</time>
      </trkpt>
      <trkpt lat="45.02853" lon="3.25632">
        <ele>1270.155355</ele>
        <time>2021-07-09T12:31:16+0200</time>
      </trkpt>
      <trkpt lat="45.02857" lon="3.25638">
        <ele>1271.702282</ele>
        <time>2021-07-09T12:31:21+0200</time>
      </trkpt>
      <trkpt lat="45.02861" lon="3.25642">
        <ele>1272.320707</ele>
        <time>2021-07-09T12:31:24+0200</time>
      </trkpt>
      <trkpt lat="45.02865" lon="3.25647">
        <ele>1275.533322</ele>
        <time>2021-07-09T12:31:28+0200</time>
      </trkpt>
      <trkpt lat="45.02869" lon="3.2565">
        <ele>1280.387147</ele>
        <time>2021-07-09T12:31:33+0200</time>
      </trkpt>
      <trkpt lat="45.02873" lon="3.25656">
        <ele>1283.264648</ele>
        <time>2021-07-09T12:31:37+0200</time>
      </trkpt>
      <trkpt lat="45.02877" lon="3.25662">
        <ele>1284.461143</ele>
        <time>2021-07-09T12:31:40+0200</time>
      </trkpt>
      <trkpt lat="45.0288" lon="3.25667">
        <ele>1283.073709</ele>
        <time>2021-07-09T12:31:43+0200</time>
      </trkpt>
      <trkpt lat="45.02883" lon="3.25672">
        <ele>1284.442409</ele>
        <time>2021-07-09T12:31:46+0200</time>
      </trkpt>
      <trkpt lat="45.02886" lon="3.25677">
        <ele>1284.390527</ele>
        <time>2021-07-09T12:31:49+0200</time>
      </trkpt>
      <trkpt lat="45.02891" lon="3.25681">
        <ele>1286.107659</ele>
        <time>2021-07-09T12:31:53+0200</time>
      </trkpt>
      <trkpt lat="45.02894" lon="3.25687">
        <ele>1286.170771</ele>
        <time>2021-07-09T12:31:56+0200</time>
      </trkpt>
      <trkpt lat="45.02899" lon="3.25692">
        <ele>1286.550739</ele>
        <time>2021-07-09T12:32:00+0200</time>
      </trkpt>
      <trkpt lat="45.02902" lon="3.25697">
        <ele>1287.014281</ele>
        <time>2021-07-09T12:32:04+0200</time>
      </trkpt>
      <trkpt lat="45.02905" lon="3.25702">
        <ele>1287.426221</ele>
        <time>2021-07-09T12:32:07+0200</time>
      </trkpt>
      <trkpt lat="45.02908" lon="3.25708">
        <ele>1287.61105</ele>
        <time>2021-07-09T12:32:10+0200</time>
      </trkpt>
      <trkpt lat="45.02913" lon="3.25713">
        <ele>1286.581173</ele>
        <time>2021-07-09T12:32:15+0200</time>
      </trkpt>
      <trkpt lat="45.02916" lon="3.25718">
        <ele>1289.535699</ele>
        <time>2021-07-09T12:32:20+0200</time>
      </trkpt>
      <trkpt lat="45.0292" lon="3.25724">
        <ele>1288.444339</ele>
        <time>2021-07-09T12:32:24+0200</time>
      </trkpt>
      <trkpt lat="45.02924" lon="3.25729">
        <ele>1291.825346</ele>
        <time>2021-07-09T12:32:28+0200</time>
      </trkpt>
      <trkpt lat="45.02927" lon="3.25734">
        <ele>1291.731537</ele>
        <time>2021-07-09T12:32:31+0200</time>
      </trkpt>
      <trkpt lat="45.02931" lon="3.25738">
        <ele>1291.829887</ele>
        <time>2021-07-09T12:32:35+0200</time>
      </trkpt>
      <trkpt lat="45.02935" lon="3.25745">
        <ele>1291.453261</ele>
        <time>2021-07-09T12:32:39+0200</time>
      </trkpt>
      <trkpt lat="45.02938" lon="3.25752">
        <ele>1292.964377</ele>
        <time>2021-07-09T12:32:43+0200</time>
      </trkpt>
      <trkpt lat="45.02941" lon="3.25757">
        <ele>1294.112852</ele>
        <time>2021-07-09T12:32:47+0200</time>
      </trkpt>
      <trkpt lat="45.02943" lon="3.25762">
        <ele>1293.840221</ele>
        <time>2021-07-09T12:32:51+0200</time>
      </trkpt>
      <trkpt lat="45.02946" lon="3.25768">
        <ele>1293.328844</ele>
        <time>2021-07-09T12:32:55+0200</time>
      </trkpt>
      <trkpt lat="45.02949" lon="3.25773">
        <ele>1293.12673</ele>
        <time>2021-07-09T12:32:59+0200</time>
      </trkpt>
      <trkpt lat="45.02953" lon="3.25778">
        <ele>1293.117749</ele>
        <time>2021-07-09T12:33:03+0200</time>
      </trkpt>
      <trkpt lat="45.02956" lon="3.25782">
        <ele>1293.242497</ele>
        <time>2021-07-09T12:33:06+0200</time>
      </trkpt>
      <trkpt lat="45.02959" lon="3.25787">
        <ele>1294.307164</ele>
        <time>2021-07-09T12:33:10+0200</time>
      </trkpt>
      <trkpt lat="45.02963" lon="3.25794">
        <ele>1295.764485</ele>
        <time>2021-07-09T12:33:14+0200</time>
      </trkpt>
      <trkpt lat="45.02966" lon="3.25798">
        <ele>1297.295744</ele>
        <time>2021-07-09T12:33:18+0200</time>
      </trkpt>
      <trkpt lat="45.0297" lon="3.25804">
        <ele>1299.50431</ele>
        <time>2021-07-09T12:33:23+0200</time>
      </trkpt>
      <trkpt lat="45.02973" lon="3.25809">
        <ele>1300.122649</ele>
        <time>2021-07-09T12:33:27+0200</time>
      </trkpt>
      <trkpt lat="45.02977" lon="3.25814">
        <ele>1300.655097</ele>
        <time>2021-07-09T12:33:31+0200</time>
      </trkpt>
      <trkpt lat="45.0298" lon="3.2582">
        <ele>1300.613229</ele>
        <time>2021-07-09T12:33:35+0200</time>
      </trkpt>
      <trkpt lat="45.02983" lon="3.25824">
        <ele>1300.962354</ele>
        <time>2021-07-09T12:33:38+0200</time>
      </trkpt>
      <trkpt lat="45.02987" lon="3.25829">
        <ele>1302.694597</ele>
        <time>2021-07-09T12:33:42+0200</time>
      </trkpt>
      <trkpt lat="45.0299" lon="3.25835">
        <ele>1302.48526</ele>
        <time>2021-07-09T12:33:46+0200</time>
      </trkpt>
      <trkpt lat="45.02993" lon="3.2584">
        <ele>1302.966811</ele>
        <time>2021-07-09T12:33:50+0200</time>
      </trkpt>
      <trkpt lat="45.02997" lon="3.25846">
        <ele>1304.818591</ele>
        <time>2021-07-09T12:33:54+0200</time>
      </trkpt>
      <trkpt lat="45.03" lon="3.25853">
        <ele>1307.705428</ele>
        <time>2021-07-09T12:33:59+0200</time>
      </trkpt>
      <trkpt lat="45.03003" lon="3.25858">
        <ele>1307.527943</ele>
        <time>2021-07-09T12:34:02+0200</time>
      </trkpt>
      <trkpt lat="45.03007" lon="3.25864">
        <ele>1306.650817</ele>
        <time>2021-07-09T12:34:06+0200</time>
      </trkpt>
      <trkpt lat="45.03011" lon="3.25868">
        <ele>1307.838086</ele>
        <time>2021-07-09T12:34:11+0200</time>
      </trkpt>
      <trkpt lat="45.03013" lon="3.25873">
        <ele>1307.262926</ele>
        <time>2021-07-09T12:34:14+0200</time>
      </trkpt>
      <trkpt lat="45.03016" lon="3.2588">
        <ele>1307.091099</ele>
        <time>2021-07-09T12:34:17+0200</time>
      </trkpt>
      <trkpt lat="45.03019" lon="3.25885">
        <ele>1307.745357</ele>
        <time>2021-07-09T12:34:20+0200</time>
      </trkpt>
      <trkpt lat="45.03022" lon="3.2589">
        <ele>1308.748658</ele>
        <time>2021-07-09T12:34:23+0200</time>
      </trkpt>
      <trkpt lat="45.03026" lon="3.25894">
        <ele>1308.789668</ele>
        <time>2021-07-09T12:34:27+0200</time>
      </trkpt>
      <trkpt lat="45.03031" lon="3.259">
        <ele>1310.143305</ele>
        <time>2021-07-09T12:34:31+0200</time>
      </trkpt>
      <trkpt lat="45.03035" lon="3.25905">
        <ele>1311.853439</ele>
        <time>2021-07-09T12:34:35+0200</time>
      </trkpt>
      <trkpt lat="45.03039" lon="3.2591">
        <ele>1312.697522</ele>
        <time>2021-07-09T12:34:38+0200</time>
      </trkpt>
      <trkpt lat="45.03043" lon="3.25914">
        <ele>1312.970291</ele>
        <time>2021-07-09T12:34:41+0200</time>
      </trkpt>
      <trkpt lat="45.03045" lon="3.25921">
        <ele>1312.554683</ele>
        <time>2021-07-09T12:34:45+0200</time>
      </trkpt>
      <trkpt lat="45.0305" lon="3.25926">
        <ele>1311.822214</ele>
        <time>2021-07-09T12:34:49+0200</time>
      </trkpt>
      <trkpt lat="45.03052" lon="3.25933">
        <ele>1311.754531</ele>
        <time>2021-07-09T12:34:53+0200</time>
      </trkpt>
      <trkpt lat="45.03056" lon="3.2594">
        <ele>1312.441911</ele>
        <time>2021-07-09T12:34:56+0200</time>
      </trkpt>
      <trkpt lat="45.03059" lon="3.25947">
        <ele>1312.393548</ele>
        <time>2021-07-09T12:35:00+0200</time>
      </trkpt>
      <trkpt lat="45.03061" lon="3.25953">
        <ele>1313.450768</ele>
        <time>2021-07-09T12:35:03+0200</time>
      </trkpt>
      <trkpt lat="45.03064" lon="3.25958">
        <ele>1313.734251</ele>
        <time>2021-07-09T12:35:06+0200</time>
      </trkpt>
      <trkpt lat="45.03065" lon="3.25965">
        <ele>1316.360778</ele>
        <time>2021-07-09T12:35:10+0200</time>
      </trkpt>
      <trkpt lat="45.03064" lon="3.25973">
        <ele>1317.954588</ele>
        <time>2021-07-09T12:35:15+0200</time>
      </trkpt>
      <trkpt lat="45.03065" lon="3.2598">
        <ele>1316.426657</ele>
        <time>2021-07-09T12:35:19+0200</time>
      </trkpt>
      <trkpt lat="45.03066" lon="3.25987">
        <ele>1316.214799</ele>
        <time>2021-07-09T12:35:22+0200</time>
      </trkpt>
      <trkpt lat="45.03065" lon="3.25993">
        <ele>1316.469441</ele>
        <time>2021-07-09T12:35:26+0200</time>
      </trkpt>
      <trkpt lat="45.03066" lon="3.26">
        <ele>1317.388863</ele>
        <time>2021-07-09T12:35:29+0200</time>
      </trkpt>
      <trkpt lat="45.03063" lon="3.26006">
        <ele>1321.34575</ele>
        <time>2021-07-09T12:35:33+0200</time>
      </trkpt>
      <trkpt lat="45.0306" lon="3.26011">
        <ele>1323.479093</ele>
        <time>2021-07-09T12:35:37+0200</time>
      </trkpt>
      <trkpt lat="45.03057" lon="3.26017">
        <ele>1325.911673</ele>
        <time>2021-07-09T12:35:41+0200</time>
      </trkpt>
      <trkpt lat="45.03056" lon="3.26025">
        <ele>1327.441838</ele>
        <time>2021-07-09T12:35:45+0200</time>
      </trkpt>
      <trkpt lat="45.03054" lon="3.26031">
        <ele>1327.836922</ele>
        <time>2021-07-09T12:35:49+0200</time>
      </trkpt>
      <trkpt lat="45.03051" lon="3.26037">
        <ele>1325.691932</ele>
        <time>2021-07-09T12:35:54+0200</time>
      </trkpt>
      <trkpt lat="45.03049" lon="3.26044">
        <ele>1327.399435</ele>
        <time>2021-07-09T12:35:58+0200</time>
      </trkpt>
      <trkpt lat="45.03047" lon="3.2605">
        <ele>1327.906783</ele>
        <time>2021-07-09T12:36:01+0200</time>
      </trkpt>
      <trkpt lat="45.03045" lon="3.26057">
        <ele>1330.136703</ele>
        <time>2021-07-09T12:36:05+0200</time>
      </trkpt>
      <trkpt lat="45.03042" lon="3.26064">
        <ele>1330.402312</ele>
        <time>2021-07-09T12:36:09+0200</time>
      </trkpt>
      <trkpt lat="45.03039" lon="3.2607">
        <ele>1329.554476</ele>
        <time>2021-07-09T12:36:13+0200</time>
      </trkpt>
      <trkpt lat="45.03038" lon="3.26077">
        <ele>1330.517033</ele>
        <time>2021-07-09T12:36:17+0200</time>
      </trkpt>
      <trkpt lat="45.03036" lon="3.26085">
        <ele>1331.536512</ele>
        <time>2021-07-09T12:36:21+0200</time>
      </trkpt>
      <trkpt lat="45.03035" lon="3.26092">
        <ele>1333.62685</ele>
        <time>2021-07-09T12:36:24+0200</time>
      </trkpt>
      <trkpt lat="45.03035" lon="3.261">
        <ele>1333.417762</ele>
        <time>2021-07-09T12:36:28+0200</time>
      </trkpt>
      <trkpt lat="45.03033" lon="3.26107">
        <ele>1332.124062</ele>
        <time>2021-07-09T12:36:33+0200</time>
      </trkpt>
      <trkpt lat="45.03032" lon="3.26113">
        <ele>1332.687146</ele>
        <time>2021-07-09T12:36:36+0200</time>
      </trkpt>
      <trkpt lat="45.03031" lon="3.26121">
        <ele>1331.376415</ele>
        <time>2021-07-09T12:36:40+0200</time>
      </trkpt>
      <trkpt lat="45.0303" lon="3.26128">
        <ele>1331.928333</ele>
        <time>2021-07-09T12:36:44+0200</time>
      </trkpt>
      <trkpt lat="45.03029" lon="3.26136">
        <ele>1331.824454</ele>
        <time>2021-07-09T12:36:48+0200</time>
      </trkpt>
      <trkpt lat="45.03027" lon="3.26142">
        <ele>1333.774813</ele>
        <time>2021-07-09T12:36:51+0200</time>
      </trkpt>
      <trkpt lat="45.03025" lon="3.26148">
        <ele>1335.222662</ele>
        <time>2021-07-09T12:36:54+0200</time>
      </trkpt>
      <trkpt lat="45.03025" lon="3.26156">
        <ele>1335.642054</ele>
        <time>2021-07-09T12:36:58+0200</time>
      </trkpt>
      <trkpt lat="45.03024" lon="3.26163">
        <ele>1335.041121</ele>
        <time>2021-07-09T12:37:01+0200</time>
      </trkpt>
      <trkpt lat="45.03023" lon="3.2617">
        <ele>1334.925539</ele>
        <time>2021-07-09T12:37:04+0200</time>
      </trkpt>
      <trkpt lat="45.03023" lon="3.26176">
        <ele>1335.224137</ele>
        <time>2021-07-09T12:37:07+0200</time>
      </trkpt>
      <trkpt lat="45.03023" lon="3.26184">
        <ele>1336.104085</ele>
        <time>2021-07-09T12:37:10+0200</time>
      </trkpt>
      <trkpt lat="45.03024" lon="3.26191">
        <ele>1335.088347</ele>
        <time>2021-07-09T12:37:12+0200</time>
      </trkpt>
      <trkpt lat="45.03026" lon="3.26197">
        <ele>1334.157521</ele>
        <time>2021-07-09T12:37:14+0200</time>
      </trkpt>
      <trkpt lat="45.03027" lon="3.26204">
        <ele>1333.743834</ele>
        <time>2021-07-09T12:37:25+0200</time>
      </trkpt>
      <trkpt lat="45.0303" lon="3.26211">
        <ele>1334.613293</ele>
        <time>2021-07-09T12:37:36+0200</time>
      </trkpt>
      <trkpt lat="45.03034" lon="3.2622">
        <ele>1335.301401</ele>
        <time>2021-07-09T12:37:39+0200</time>
      </trkpt>
      <trkpt lat="45.03037" lon="3.26229">
        <ele>1332.866222</ele>
        <time>2021-07-09T12:37:42+0200</time>
      </trkpt>
      <trkpt lat="45.0304" lon="3.26235">
        <ele>1333.558149</ele>
        <time>2021-07-09T12:37:44+0200</time>
      </trkpt>
      <trkpt lat="45.03042" lon="3.26241">
        <ele>1333.23109</ele>
        <time>2021-07-09T12:37:46+0200</time>
      </trkpt>
      <trkpt lat="45.03046" lon="3.26246">
        <ele>1334.655143</ele>
        <time>2021-07-09T12:37:48+0200</time>
      </trkpt>
      <trkpt lat="45.03049" lon="3.26253">
        <ele>1333.965234</ele>
        <time>2021-07-09T12:37:50+0200</time>
      </trkpt>
      <trkpt lat="45.03052" lon="3.26259">
        <ele>1333.314315</ele>
        <time>2021-07-09T12:37:52+0200</time>
      </trkpt>
      <trkpt lat="45.03055" lon="3.26265">
        <ele>1333.507286</ele>
        <time>2021-07-09T12:37:54+0200</time>
      </trkpt>
      <trkpt lat="45.03058" lon="3.26273">
        <ele>1332.601556</ele>
        <time>2021-07-09T12:37:56+0200</time>
      </trkpt>
      <trkpt lat="45.03061" lon="3.2628">
        <ele>1333.082918</ele>
        <time>2021-07-09T12:37:58+0200</time>
      </trkpt>
      <trkpt lat="45.03064" lon="3.26287">
        <ele>1334.176589</ele>
        <time>2021-07-09T12:38:00+0200</time>
      </trkpt>
      <trkpt lat="45.03067" lon="3.26295">
        <ele>1334.98892</ele>
        <time>2021-07-09T12:38:02+0200</time>
      </trkpt>
      <trkpt lat="45.0307" lon="3.26302">
        <ele>1335.070588</ele>
        <time>2021-07-09T12:38:04+0200</time>
      </trkpt>
      <trkpt lat="45.03074" lon="3.26307">
        <ele>1336.271626</ele>
        <time>2021-07-09T12:38:06+0200</time>
      </trkpt>
      <trkpt lat="45.03077" lon="3.26314">
        <ele>1337.377925</ele>
        <time>2021-07-09T12:38:08+0200</time>
      </trkpt>
      <trkpt lat="45.0308" lon="3.2632">
        <ele>1339.191402</ele>
        <time>2021-07-09T12:38:10+0200</time>
      </trkpt>
      <trkpt lat="45.03084" lon="3.26326">
        <ele>1341.307387</ele>
        <time>2021-07-09T12:38:12+0200</time>
      </trkpt>
      <trkpt lat="45.03089" lon="3.26328">
        <ele>1341.774374</ele>
        <time>2021-07-09T12:38:14+0200</time>
      </trkpt>
      <trkpt lat="45.03093" lon="3.2633">
        <ele>1341.539747</ele>
        <time>2021-07-09T12:38:16+0200</time>
      </trkpt>
      <trkpt lat="45.03099" lon="3.26335">
        <ele>1341.83044</ele>
        <time>2021-07-09T12:38:19+0200</time>
      </trkpt>
      <trkpt lat="45.03105" lon="3.2634">
        <ele>1344.098673</ele>
        <time>2021-07-09T12:38:22+0200</time>
      </trkpt>
      <trkpt lat="45.03111" lon="3.26344">
        <ele>1344.379818</ele>
        <time>2021-07-09T12:38:25+0200</time>
      </trkpt>
      <trkpt lat="45.03116" lon="3.2635">
        <ele>1344.20438</ele>
        <time>2021-07-09T12:38:28+0200</time>
      </trkpt>
      <trkpt lat="45.0312" lon="3.26354">
        <ele>1344.192868</ele>
        <time>2021-07-09T12:38:30+0200</time>
      </trkpt>
      <trkpt lat="45.03124" lon="3.26359">
        <ele>1343.958254</ele>
        <time>2021-07-09T12:38:32+0200</time>
      </trkpt>
      <trkpt lat="45.03128" lon="3.26364">
        <ele>1342.440501</ele>
        <time>2021-07-09T12:38:34+0200</time>
      </trkpt>
      <trkpt lat="45.03133" lon="3.2637">
        <ele>1340.712563</ele>
        <time>2021-07-09T12:38:36+0200</time>
      </trkpt>
      <trkpt lat="45.03136" lon="3.26375">
        <ele>1340.206494</ele>
        <time>2021-07-09T12:38:38+0200</time>
      </trkpt>
      <trkpt lat="45.0314" lon="3.26379">
        <ele>1340.245106</ele>
        <time>2021-07-09T12:38:40+0200</time>
      </trkpt>
      <trkpt lat="45.03144" lon="3.26384">
        <ele>1339.769173</ele>
        <time>2021-07-09T12:38:42+0200</time>
      </trkpt>
      <trkpt lat="45.03148" lon="3.26388">
        <ele>1340.372186</ele>
        <time>2021-07-09T12:38:44+0200</time>
      </trkpt>
      <trkpt lat="45.03152" lon="3.26393">
        <ele>1340.10382</ele>
        <time>2021-07-09T12:38:46+0200</time>
      </trkpt>
      <trkpt lat="45.03156" lon="3.26397">
        <ele>1340.878933</ele>
        <time>2021-07-09T12:38:48+0200</time>
      </trkpt>
      <trkpt lat="45.0316" lon="3.26402">
        <ele>1340.798346</ele>
        <time>2021-07-09T12:38:51+0200</time>
      </trkpt>
      <trkpt lat="45.03166" lon="3.26407">
        <ele>1340.948302</ele>
        <time>2021-07-09T12:38:54+0200</time>
      </trkpt>
      <trkpt lat="45.03171" lon="3.26412">
        <ele>1341.905097</ele>
        <time>2021-07-09T12:38:57+0200</time>
      </trkpt>
      <trkpt lat="45.03175" lon="3.26416">
        <ele>1342.69541</ele>
        <time>2021-07-09T12:38:59+0200</time>
      </trkpt>
      <trkpt lat="45.03179" lon="3.26422">
        <ele>1343.093317</ele>
        <time>2021-07-09T12:39:02+0200</time>
      </trkpt>
      <trkpt lat="45.03184" lon="3.26427">
        <ele>1343.30449</ele>
        <time>2021-07-09T12:39:05+0200</time>
      </trkpt>
      <trkpt lat="45.0319" lon="3.26433">
        <ele>1343.48374</ele>
        <time>2021-07-09T12:39:08+0200</time>
      </trkpt>
      <trkpt lat="45.03195" lon="3.26437">
        <ele>1343.814914</ele>
        <time>2021-07-09T12:39:11+0200</time>
      </trkpt>
      <trkpt lat="45.032" lon="3.2644">
        <ele>1344.194798</ele>
        <time>2021-07-09T12:39:14+0200</time>
      </trkpt>
      <trkpt lat="45.03205" lon="3.26444">
        <ele>1345.304922</ele>
        <time>2021-07-09T12:39:17+0200</time>
      </trkpt>
      <trkpt lat="45.03209" lon="3.26449">
        <ele>1345.908298</ele>
        <time>2021-07-09T12:39:20+0200</time>
      </trkpt>
      <trkpt lat="45.03212" lon="3.26454">
        <ele>1347.759061</ele>
        <time>2021-07-09T12:39:23+0200</time>
      </trkpt>
      <trkpt lat="45.03217" lon="3.26458">
        <ele>1347.984684</ele>
        <time>2021-07-09T12:39:27+0200</time>
      </trkpt>
      <trkpt lat="45.03222" lon="3.26463">
        <ele>1350.8015</ele>
        <time>2021-07-09T12:39:31+0200</time>
      </trkpt>
      <trkpt lat="45.03228" lon="3.26467">
        <ele>1352.805843</ele>
        <time>2021-07-09T12:39:34+0200</time>
      </trkpt>
      <trkpt lat="45.03233" lon="3.26468">
        <ele>1353.579696</ele>
        <time>2021-07-09T12:39:36+0200</time>
      </trkpt>
      <trkpt lat="45.03238" lon="3.26469">
        <ele>1354.658464</ele>
        <time>2021-07-09T12:39:38+0200</time>
      </trkpt>
      <trkpt lat="45.03243" lon="3.26472">
        <ele>1354.763302</ele>
        <time>2021-07-09T12:39:40+0200</time>
      </trkpt>
      <trkpt lat="45.03249" lon="3.26478">
        <ele>1356.649523</ele>
        <time>2021-07-09T12:39:43+0200</time>
      </trkpt>
      <trkpt lat="45.03254" lon="3.2648">
        <ele>1356.032963</ele>
        <time>2021-07-09T12:39:45+0200</time>
      </trkpt>
      <trkpt lat="45.03258" lon="3.26484">
        <ele>1357.714626</ele>
        <time>2021-07-09T12:39:47+0200</time>
      </trkpt>
      <trkpt lat="45.03264" lon="3.26487">
        <ele>1359.763122</ele>
        <time>2021-07-09T12:39:50+0200</time>
      </trkpt>
      <trkpt lat="45.03269" lon="3.2649">
        <ele>1359.898636</ele>
        <time>2021-07-09T12:39:52+0200</time>
      </trkpt>
      <trkpt lat="45.03273" lon="3.26492">
        <ele>1359.90102</ele>
        <time>2021-07-09T12:39:54+0200</time>
      </trkpt>
      <trkpt lat="45.03278" lon="3.26496">
        <ele>1360.758176</ele>
        <time>2021-07-09T12:39:56+0200</time>
      </trkpt>
      <trkpt lat="45.03283" lon="3.265">
        <ele>1361.178035</ele>
        <time>2021-07-09T12:39:59+0200</time>
      </trkpt>
      <trkpt lat="45.03287" lon="3.26503">
        <ele>1360.543661</ele>
        <time>2021-07-09T12:40:01+0200</time>
      </trkpt>
      <trkpt lat="45.03292" lon="3.26505">
        <ele>1360.015328</ele>
        <time>2021-07-09T12:40:03+0200</time>
      </trkpt>
      <trkpt lat="45.03298" lon="3.26508">
        <ele>1359.805301</ele>
        <time>2021-07-09T12:40:06+0200</time>
      </trkpt>
      <trkpt lat="45.03304" lon="3.2651">
        <ele>1359.131875</ele>
        <time>2021-07-09T12:40:09+0200</time>
      </trkpt>
      <trkpt lat="45.0331" lon="3.26513">
        <ele>1358.467196</ele>
        <time>2021-07-09T12:40:12+0200</time>
      </trkpt>
      <trkpt lat="45.03315" lon="3.26516">
        <ele>1357.487447</ele>
        <time>2021-07-09T12:40:14+0200</time>
      </trkpt>
      <trkpt lat="45.0332" lon="3.26518">
        <ele>1357.578172</ele>
        <time>2021-07-09T12:40:17+0200</time>
      </trkpt>
      <trkpt lat="45.03326" lon="3.26519">
        <ele>1357.944473</ele>
        <time>2021-07-09T12:40:20+0200</time>
      </trkpt>
      <trkpt lat="45.03332" lon="3.26521">
        <ele>1357.60173</ele>
        <time>2021-07-09T12:40:23+0200</time>
      </trkpt>
      <trkpt lat="45.03338" lon="3.26523">
        <ele>1356.092768</ele>
        <time>2021-07-09T12:40:25+0200</time>
      </trkpt>
      <trkpt lat="45.03344" lon="3.26526">
        <ele>1355.91172</ele>
        <time>2021-07-09T12:40:28+0200</time>
      </trkpt>
      <trkpt lat="45.0335" lon="3.26529">
        <ele>1354.750461</ele>
        <time>2021-07-09T12:40:31+0200</time>
      </trkpt>
      <trkpt lat="45.03354" lon="3.2653">
        <ele>1354.270634</ele>
        <time>2021-07-09T12:40:33+0200</time>
      </trkpt>
      <trkpt lat="45.03359" lon="3.26532">
        <ele>1354.128135</ele>
        <time>2021-07-09T12:40:35+0200</time>
      </trkpt>
      <trkpt lat="45.03365" lon="3.26535">
        <ele>1354.093244</ele>
        <time>2021-07-09T12:40:38+0200</time>
      </trkpt>
      <trkpt lat="45.03372" lon="3.26537">
        <ele>1353.730139</ele>
        <time>2021-07-09T12:40:41+0200</time>
      </trkpt>
      <trkpt lat="45.03378" lon="3.26541">
        <ele>1354.485151</ele>
        <time>2021-07-09T12:40:44+0200</time>
      </trkpt>
      <trkpt lat="45.03383" lon="3.26544">
        <ele>1354.609454</ele>
        <time>2021-07-09T12:40:47+0200</time>
      </trkpt>
      <trkpt lat="45.03387" lon="3.26547">
        <ele>1354.635966</ele>
        <time>2021-07-09T12:40:49+0200</time>
      </trkpt>
      <trkpt lat="45.03391" lon="3.26552">
        <ele>1354.374628</ele>
        <time>2021-07-09T12:40:52+0200</time>
      </trkpt>
      <trkpt lat="45.03395" lon="3.26557">
        <ele>1354.027732</ele>
        <time>2021-07-09T12:40:55+0200</time>
      </trkpt>
      <trkpt lat="45.03398" lon="3.26565">
        <ele>1354.37661</ele>
        <time>2021-07-09T12:40:58+0200</time>
      </trkpt>
      <trkpt lat="45.03397" lon="3.26572">
        <ele>1355.683098</ele>
        <time>2021-07-09T13:18:14+0200</time>
      </trkpt>
      <trkpt lat="45.03394" lon="3.26578">
        <ele>1354.655394</ele>
        <time>2021-07-09T13:18:17+0200</time>
      </trkpt>
      <trkpt lat="45.03392" lon="3.26587">
        <ele>1354.552637</ele>
        <time>2021-07-09T13:18:20+0200</time>
      </trkpt>
      <trkpt lat="45.0339" lon="3.26593">
        <ele>1354.812804</ele>
        <time>2021-07-09T13:18:22+0200</time>
      </trkpt>
      <trkpt lat="45.03389" lon="3.26599">
        <ele>1354.576067</ele>
        <time>2021-07-09T13:18:24+0200</time>
      </trkpt>
      <trkpt lat="45.03386" lon="3.26607">
        <ele>1354.455264</ele>
        <time>2021-07-09T13:18:26+0200</time>
      </trkpt>
      <trkpt lat="45.03383" lon="3.26613">
        <ele>1354.441526</ele>
        <time>2021-07-09T13:18:28+0200</time>
      </trkpt>
      <trkpt lat="45.03381" lon="3.26619">
        <ele>1354.631482</ele>
        <time>2021-07-09T13:18:30+0200</time>
      </trkpt>
      <trkpt lat="45.03379" lon="3.26626">
        <ele>1354.924594</ele>
        <time>2021-07-09T13:18:32+0200</time>
      </trkpt>
      <trkpt lat="45.03378" lon="3.26632">
        <ele>1354.683843</ele>
        <time>2021-07-09T13:18:34+0200</time>
      </trkpt>
      <trkpt lat="45.03376" lon="3.26639">
        <ele>1354.522507</ele>
        <time>2021-07-09T13:18:36+0200</time>
      </trkpt>
      <trkpt lat="45.03374" lon="3.26646">
        <ele>1353.579492</ele>
        <time>2021-07-09T13:18:38+0200</time>
      </trkpt>
      <trkpt lat="45.03371" lon="3.26653">
        <ele>1353.55179</ele>
        <time>2021-07-09T13:18:40+0200</time>
      </trkpt>
      <trkpt lat="45.03369" lon="3.26659">
        <ele>1353.502081</ele>
        <time>2021-07-09T13:18:42+0200</time>
      </trkpt>
      <trkpt lat="45.03367" lon="3.26664">
        <ele>1353.630775</ele>
        <time>2021-07-09T13:18:44+0200</time>
      </trkpt>
      <trkpt lat="45.03364" lon="3.2667">
        <ele>1353.757904</ele>
        <time>2021-07-09T13:18:46+0200</time>
      </trkpt>
      <trkpt lat="45.03362" lon="3.26678">
        <ele>1353.822977</ele>
        <time>2021-07-09T13:18:48+0200</time>
      </trkpt>
      <trkpt lat="45.03359" lon="3.26684">
        <ele>1353.602374</ele>
        <time>2021-07-09T13:18:50+0200</time>
      </trkpt>
      <trkpt lat="45.03356" lon="3.26689">
        <ele>1354.324672</ele>
        <time>2021-07-09T13:18:52+0200</time>
      </trkpt>
      <trkpt lat="45.03352" lon="3.26696">
        <ele>1353.786149</ele>
        <time>2021-07-09T13:18:54+0200</time>
      </trkpt>
      <trkpt lat="45.0335" lon="3.26703">
        <ele>1353.847648</ele>
        <time>2021-07-09T13:18:56+0200</time>
      </trkpt>
      <trkpt lat="45.03347" lon="3.26711">
        <ele>1353.893818</ele>
        <time>2021-07-09T13:18:58+0200</time>
      </trkpt>
      <trkpt lat="45.03344" lon="3.26719">
        <ele>1354.012242</ele>
        <time>2021-07-09T13:19:00+0200</time>
      </trkpt>
      <trkpt lat="45.0334" lon="3.26727">
        <ele>1354.363566</ele>
        <time>2021-07-09T13:19:02+0200</time>
      </trkpt>
      <trkpt lat="45.03338" lon="3.26734">
        <ele>1354.60464</ele>
        <time>2021-07-09T13:19:04+0200</time>
      </trkpt>
      <trkpt lat="45.03334" lon="3.26741">
        <ele>1354.803715</ele>
        <time>2021-07-09T13:19:06+0200</time>
      </trkpt>
      <trkpt lat="45.03331" lon="3.26747">
        <ele>1354.753054</ele>
        <time>2021-07-09T13:19:08+0200</time>
      </trkpt>
      <trkpt lat="45.03329" lon="3.26753">
        <ele>1354.793057</ele>
        <time>2021-07-09T13:19:10+0200</time>
      </trkpt>
      <trkpt lat="45.03328" lon="3.26759">
        <ele>1354.633742</ele>
        <time>2021-07-09T13:19:12+0200</time>
      </trkpt>
      <trkpt lat="45.03325" lon="3.26765">
        <ele>1354.678701</ele>
        <time>2021-07-09T13:19:14+0200</time>
      </trkpt>
      <trkpt lat="45.03322" lon="3.26771">
        <ele>1354.44349</ele>
        <time>2021-07-09T13:19:16+0200</time>
      </trkpt>
      <trkpt lat="45.03318" lon="3.26779">
        <ele>1354.363094</ele>
        <time>2021-07-09T13:19:18+0200</time>
      </trkpt>
      <trkpt lat="45.03316" lon="3.26786">
        <ele>1355.286326</ele>
        <time>2021-07-09T13:19:20+0200</time>
      </trkpt>
      <trkpt lat="45.03313" lon="3.26793">
        <ele>1355.538588</ele>
        <time>2021-07-09T13:19:22+0200</time>
      </trkpt>
      <trkpt lat="45.03312" lon="3.268">
        <ele>1355.340571</ele>
        <time>2021-07-09T13:19:24+0200</time>
      </trkpt>
      <trkpt lat="45.03309" lon="3.26808">
        <ele>1355.492564</ele>
        <time>2021-07-09T13:19:26+0200</time>
      </trkpt>
      <trkpt lat="45.03308" lon="3.26815">
        <ele>1355.964627</ele>
        <time>2021-07-09T13:19:28+0200</time>
      </trkpt>
      <trkpt lat="45.03306" lon="3.26823">
        <ele>1356.215083</ele>
        <time>2021-07-09T13:19:30+0200</time>
      </trkpt>
      <trkpt lat="45.03303" lon="3.26831">
        <ele>1356.485241</ele>
        <time>2021-07-09T13:19:32+0200</time>
      </trkpt>
      <trkpt lat="45.03301" lon="3.26837">
        <ele>1356.849011</ele>
        <time>2021-07-09T13:19:34+0200</time>
      </trkpt>
      <trkpt lat="45.03298" lon="3.26844">
        <ele>1357.042721</ele>
        <time>2021-07-09T13:19:36+0200</time>
      </trkpt>
      <trkpt lat="45.03297" lon="3.26853">
        <ele>1357.390204</ele>
        <time>2021-07-09T13:19:38+0200</time>
      </trkpt>
      <trkpt lat="45.03294" lon="3.26861">
        <ele>1357.395166</ele>
        <time>2021-07-09T13:19:40+0200</time>
      </trkpt>
      <trkpt lat="45.03291" lon="3.26871">
        <ele>1357.604751</ele>
        <time>2021-07-09T13:19:43+0200</time>
      </trkpt>
      <trkpt lat="45.03289" lon="3.26878">
        <ele>1357.132147</ele>
        <time>2021-07-09T13:19:45+0200</time>
      </trkpt>
      <trkpt lat="45.03287" lon="3.26886">
        <ele>1357.659646</ele>
        <time>2021-07-09T13:19:47+0200</time>
      </trkpt>
      <trkpt lat="45.03284" lon="3.26894">
        <ele>1358.039127</ele>
        <time>2021-07-09T13:19:49+0200</time>
      </trkpt>
      <trkpt lat="45.03281" lon="3.26902">
        <ele>1357.721372</ele>
        <time>2021-07-09T13:19:51+0200</time>
      </trkpt>
      <trkpt lat="45.0328" lon="3.2691">
        <ele>1357.899281</ele>
        <time>2021-07-09T13:19:53+0200</time>
      </trkpt>
      <trkpt lat="45.03277" lon="3.26917">
        <ele>1358.615153</ele>
        <time>2021-07-09T13:19:55+0200</time>
      </trkpt>
      <trkpt lat="45.03274" lon="3.26924">
        <ele>1359.106985</ele>
        <time>2021-07-09T13:19:57+0200</time>
      </trkpt>
      <trkpt lat="45.03271" lon="3.26932">
        <ele>1359.694706</ele>
        <time>2021-07-09T13:19:59+0200</time>
      </trkpt>
      <trkpt lat="45.03268" lon="3.26939">
        <ele>1360.182967</ele>
        <time>2021-07-09T13:20:01+0200</time>
      </trkpt>
      <trkpt lat="45.03265" lon="3.26947">
        <ele>1360.103109</ele>
        <time>2021-07-09T13:20:03+0200</time>
      </trkpt>
      <trkpt lat="45.03263" lon="3.26955">
        <ele>1360.155505</ele>
        <time>2021-07-09T13:20:05+0200</time>
      </trkpt>
      <trkpt lat="45.0326" lon="3.26963">
        <ele>1360.234874</ele>
        <time>2021-07-09T13:20:07+0200</time>
      </trkpt>
      <trkpt lat="45.03257" lon="3.2697">
        <ele>1360.648924</ele>
        <time>2021-07-09T13:20:09+0200</time>
      </trkpt>
      <trkpt lat="45.03255" lon="3.26977">
        <ele>1360.877755</ele>
        <time>2021-07-09T13:20:11+0200</time>
      </trkpt>
      <trkpt lat="45.03253" lon="3.26985">
        <ele>1360.979694</ele>
        <time>2021-07-09T13:20:13+0200</time>
      </trkpt>
      <trkpt lat="45.0325" lon="3.26992">
        <ele>1360.720293</ele>
        <time>2021-07-09T13:20:15+0200</time>
      </trkpt>
      <trkpt lat="45.03248" lon="3.27001">
        <ele>1360.860359</ele>
        <time>2021-07-09T13:20:17+0200</time>
      </trkpt>
      <trkpt lat="45.03246" lon="3.27009">
        <ele>1361.282445</ele>
        <time>2021-07-09T13:20:19+0200</time>
      </trkpt>
      <trkpt lat="45.03243" lon="3.27018">
        <ele>1361.152945</ele>
        <time>2021-07-09T13:20:21+0200</time>
      </trkpt>
      <trkpt lat="45.0324" lon="3.27027">
        <ele>1361.051965</ele>
        <time>2021-07-09T13:20:23+0200</time>
      </trkpt>
      <trkpt lat="45.03238" lon="3.27034">
        <ele>1361.466714</ele>
        <time>2021-07-09T13:20:25+0200</time>
      </trkpt>
      <trkpt lat="45.03237" lon="3.27044">
        <ele>1361.923478</ele>
        <time>2021-07-09T13:20:27+0200</time>
      </trkpt>
      <trkpt lat="45.03237" lon="3.27053">
        <ele>1362.112571</ele>
        <time>2021-07-09T13:20:29+0200</time>
      </trkpt>
      <trkpt lat="45.03236" lon="3.27061">
        <ele>1362.575859</ele>
        <time>2021-07-09T13:20:31+0200</time>
      </trkpt>
      <trkpt lat="45.03235" lon="3.27071">
        <ele>1363.151881</ele>
        <time>2021-07-09T13:20:33+0200</time>
      </trkpt>
      <trkpt lat="45.03233" lon="3.27078">
        <ele>1363.388337</ele>
        <time>2021-07-09T13:20:35+0200</time>
      </trkpt>
      <trkpt lat="45.03233" lon="3.27088">
        <ele>1363.59295</ele>
        <time>2021-07-09T13:20:37+0200</time>
      </trkpt>
      <trkpt lat="45.03232" lon="3.27097">
        <ele>1363.798455</ele>
        <time>2021-07-09T13:20:39+0200</time>
      </trkpt>
      <trkpt lat="45.03232" lon="3.27105">
        <ele>1364.247007</ele>
        <time>2021-07-09T13:20:41+0200</time>
      </trkpt>
      <trkpt lat="45.03232" lon="3.27114">
        <ele>1364.680433</ele>
        <time>2021-07-09T13:20:43+0200</time>
      </trkpt>
      <trkpt lat="45.03232" lon="3.27123">
        <ele>1364.865803</ele>
        <time>2021-07-09T13:20:45+0200</time>
      </trkpt>
      <trkpt lat="45.03231" lon="3.27132">
        <ele>1364.564624</ele>
        <time>2021-07-09T13:20:47+0200</time>
      </trkpt>
      <trkpt lat="45.03227" lon="3.27141">
        <ele>1364.72924</ele>
        <time>2021-07-09T13:20:49+0200</time>
      </trkpt>
      <trkpt lat="45.03223" lon="3.27146">
        <ele>1365.05746</ele>
        <time>2021-07-09T13:20:51+0200</time>
      </trkpt>
      <trkpt lat="45.03218" lon="3.27151">
        <ele>1365.204116</ele>
        <time>2021-07-09T13:20:53+0200</time>
      </trkpt>
      <trkpt lat="45.03211" lon="3.27155">
        <ele>1364.916485</ele>
        <time>2021-07-09T13:20:55+0200</time>
      </trkpt>
      <trkpt lat="45.03203" lon="3.27158">
        <ele>1365.110184</ele>
        <time>2021-07-09T13:20:57+0200</time>
      </trkpt>
      <trkpt lat="45.03198" lon="3.27162">
        <ele>1363.972929</ele>
        <time>2021-07-09T13:20:58+0200</time>
      </trkpt>
      <trkpt lat="45.03193" lon="3.27166">
        <ele>1363.822613</ele>
        <time>2021-07-09T13:20:59+0200</time>
      </trkpt>
      <trkpt lat="45.03187" lon="3.27168">
        <ele>1363.300519</ele>
        <time>2021-07-09T13:21:00+0200</time>
      </trkpt>
      <trkpt lat="45.03181" lon="3.27171">
        <ele>1362.881593</ele>
        <time>2021-07-09T13:21:01+0200</time>
      </trkpt>
      <trkpt lat="45.03175" lon="3.27175">
        <ele>1362.554888</ele>
        <time>2021-07-09T13:21:02+0200</time>
      </trkpt>
      <trkpt lat="45.03168" lon="3.27179">
        <ele>1362.077652</ele>
        <time>2021-07-09T13:21:03+0200</time>
      </trkpt>
      <trkpt lat="45.03161" lon="3.27183">
        <ele>1361.644799</ele>
        <time>2021-07-09T13:21:04+0200</time>
      </trkpt>
      <trkpt lat="45.03154" lon="3.27188">
        <ele>1361.155351</ele>
        <time>2021-07-09T13:21:05+0200</time>
      </trkpt>
      <trkpt lat="45.03147" lon="3.27193">
        <ele>1360.436034</ele>
        <time>2021-07-09T13:21:06+0200</time>
      </trkpt>
      <trkpt lat="45.03141" lon="3.272">
        <ele>1359.799391</ele>
        <time>2021-07-09T13:21:07+0200</time>
      </trkpt>
      <trkpt lat="45.03136" lon="3.27209">
        <ele>1359.773649</ele>
        <time>2021-07-09T13:21:08+0200</time>
      </trkpt>
      <trkpt lat="45.03132" lon="3.27217">
        <ele>1359.540607</ele>
        <time>2021-07-09T13:21:09+0200</time>
      </trkpt>
      <trkpt lat="45.03127" lon="3.27225">
        <ele>1359.180273</ele>
        <time>2021-07-09T13:21:10+0200</time>
      </trkpt>
      <trkpt lat="45.03122" lon="3.27232">
        <ele>1359.356042</ele>
        <time>2021-07-09T13:21:11+0200</time>
      </trkpt>
      <trkpt lat="45.03118" lon="3.2724">
        <ele>1359.387782</ele>
        <time>2021-07-09T13:21:12+0200</time>
      </trkpt>
      <trkpt lat="45.03116" lon="3.27247">
        <ele>1359.367864</ele>
        <time>2021-07-09T13:21:13+0200</time>
      </trkpt>
      <trkpt lat="45.03112" lon="3.27254">
        <ele>1358.737716</ele>
        <time>2021-07-09T13:21:14+0200</time>
      </trkpt>
      <trkpt lat="45.03108" lon="3.27258">
        <ele>1358.95789</ele>
        <time>2021-07-09T13:21:15+0200</time>
      </trkpt>
      <trkpt lat="45.03105" lon="3.27264">
        <ele>1359.443876</ele>
        <time>2021-07-09T13:21:16+0200</time>
      </trkpt>
      <trkpt lat="45.03102" lon="3.27268">
        <ele>1359.803438</ele>
        <time>2021-07-09T13:21:17+0200</time>
      </trkpt>
      <trkpt lat="45.03097" lon="3.27273">
        <ele>1359.267939</ele>
        <time>2021-07-09T13:21:18+0200</time>
      </trkpt>
      <trkpt lat="45.03092" lon="3.27277">
        <ele>1359.12572</ele>
        <time>2021-07-09T13:21:19+0200</time>
      </trkpt>
      <trkpt lat="45.03087" lon="3.27281">
        <ele>1359.008199</ele>
        <time>2021-07-09T13:21:20+0200</time>
      </trkpt>
      <trkpt lat="45.03081" lon="3.27284">
        <ele>1358.268969</ele>
        <time>2021-07-09T13:21:21+0200</time>
      </trkpt>
      <trkpt lat="45.03075" lon="3.27285">
        <ele>1358.242238</ele>
        <time>2021-07-09T13:21:22+0200</time>
      </trkpt>
      <trkpt lat="45.0307" lon="3.27287">
        <ele>1358.101387</ele>
        <time>2021-07-09T13:21:23+0200</time>
      </trkpt>
      <trkpt lat="45.03064" lon="3.27288">
        <ele>1357.550466</ele>
        <time>2021-07-09T13:21:24+0200</time>
      </trkpt>
      <trkpt lat="45.03058" lon="3.27291">
        <ele>1356.901687</ele>
        <time>2021-07-09T13:21:25+0200</time>
      </trkpt>
      <trkpt lat="45.03051" lon="3.27293">
        <ele>1357.617745</ele>
        <time>2021-07-09T13:21:26+0200</time>
      </trkpt>
      <trkpt lat="45.03046" lon="3.27299">
        <ele>1357.609785</ele>
        <time>2021-07-09T13:21:27+0200</time>
      </trkpt>
      <trkpt lat="45.03042" lon="3.27304">
        <ele>1358.222348</ele>
        <time>2021-07-09T13:21:28+0200</time>
      </trkpt>
      <trkpt lat="45.03037" lon="3.27314">
        <ele>1358.909608</ele>
        <time>2021-07-09T13:21:30+0200</time>
      </trkpt>
      <trkpt lat="45.03033" lon="3.27321">
        <ele>1358.926661</ele>
        <time>2021-07-09T13:21:32+0200</time>
      </trkpt>
      <trkpt lat="45.03029" lon="3.27326">
        <ele>1359.470447</ele>
        <time>2021-07-09T13:21:34+0200</time>
      </trkpt>
      <trkpt lat="45.03025" lon="3.2733">
        <ele>1359.924034</ele>
        <time>2021-07-09T13:21:36+0200</time>
      </trkpt>
      <trkpt lat="45.03022" lon="3.27336">
        <ele>1360.529129</ele>
        <time>2021-07-09T13:21:38+0200</time>
      </trkpt>
      <trkpt lat="45.03019" lon="3.27341">
        <ele>1360.904315</ele>
        <time>2021-07-09T13:21:40+0200</time>
      </trkpt>
      <trkpt lat="45.03016" lon="3.2735">
        <ele>1361.037936</ele>
        <time>2021-07-09T13:21:43+0200</time>
      </trkpt>
      <trkpt lat="45.03011" lon="3.27356">
        <ele>1361.618748</ele>
        <time>2021-07-09T13:21:46+0200</time>
      </trkpt>
      <trkpt lat="45.03008" lon="3.27361">
        <ele>1362.041849</ele>
        <time>2021-07-09T13:21:48+0200</time>
      </trkpt>
      <trkpt lat="45.03005" lon="3.27366">
        <ele>1363.023747</ele>
        <time>2021-07-09T13:21:50+0200</time>
      </trkpt>
      <trkpt lat="45.03002" lon="3.27371">
        <ele>1363.823083</ele>
        <time>2021-07-09T13:21:52+0200</time>
      </trkpt>
      <trkpt lat="45.02999" lon="3.27376">
        <ele>1364.174425</ele>
        <time>2021-07-09T13:21:54+0200</time>
      </trkpt>
      <trkpt lat="45.02994" lon="3.27382">
        <ele>1364.802481</ele>
        <time>2021-07-09T13:21:57+0200</time>
      </trkpt>
      <trkpt lat="45.02988" lon="3.2739">
        <ele>1365.037922</ele>
        <time>2021-07-09T13:22:00+0200</time>
      </trkpt>
      <trkpt lat="45.02985" lon="3.27396">
        <ele>1365.420153</ele>
        <time>2021-07-09T13:22:02+0200</time>
      </trkpt>
      <trkpt lat="45.02982" lon="3.27402">
        <ele>1365.738346</ele>
        <time>2021-07-09T13:22:04+0200</time>
      </trkpt>
      <trkpt lat="45.02978" lon="3.27408">
        <ele>1366.121995</ele>
        <time>2021-07-09T13:22:06+0200</time>
      </trkpt>
      <trkpt lat="45.02974" lon="3.27413">
        <ele>1366.268555</ele>
        <time>2021-07-09T13:22:08+0200</time>
      </trkpt>
      <trkpt lat="45.02971" lon="3.27419">
        <ele>1366.697733</ele>
        <time>2021-07-09T13:22:10+0200</time>
      </trkpt>
      <trkpt lat="45.02967" lon="3.27425">
        <ele>1367.155926</ele>
        <time>2021-07-09T13:22:12+0200</time>
      </trkpt>
      <trkpt lat="45.02963" lon="3.27431">
        <ele>1367.02788</ele>
        <time>2021-07-09T13:22:14+0200</time>
      </trkpt>
      <trkpt lat="45.02958" lon="3.27438">
        <ele>1367.18859</ele>
        <time>2021-07-09T13:22:16+0200</time>
      </trkpt>
      <trkpt lat="45.02954" lon="3.27445">
        <ele>1367.116924</ele>
        <time>2021-07-09T13:22:18+0200</time>
      </trkpt>
      <trkpt lat="45.0295" lon="3.27452">
        <ele>1366.945875</ele>
        <time>2021-07-09T13:22:20+0200</time>
      </trkpt>
      <trkpt lat="45.02945" lon="3.27458">
        <ele>1367.194403</ele>
        <time>2021-07-09T13:22:22+0200</time>
      </trkpt>
      <trkpt lat="45.02941" lon="3.27465">
        <ele>1367.529645</ele>
        <time>2021-07-09T13:22:24+0200</time>
      </trkpt>
      <trkpt lat="45.02937" lon="3.27471">
        <ele>1367.861047</ele>
        <time>2021-07-09T13:22:26+0200</time>
      </trkpt>
      <trkpt lat="45.02933" lon="3.27479">
        <ele>1367.97766</ele>
        <time>2021-07-09T13:22:28+0200</time>
      </trkpt>
      <trkpt lat="45.02927" lon="3.27486">
        <ele>1367.546074</ele>
        <time>2021-07-09T13:22:30+0200</time>
      </trkpt>
      <trkpt lat="45.02922" lon="3.27493">
        <ele>1367.196905</ele>
        <time>2021-07-09T13:22:32+0200</time>
      </trkpt>
      <trkpt lat="45.02918" lon="3.275">
        <ele>1366.428525</ele>
        <time>2021-07-09T13:22:34+0200</time>
      </trkpt>
      <trkpt lat="45.02914" lon="3.27507">
        <ele>1366.258107</ele>
        <time>2021-07-09T13:22:36+0200</time>
      </trkpt>
      <trkpt lat="45.02909" lon="3.27515">
        <ele>1366.25059</ele>
        <time>2021-07-09T13:22:38+0200</time>
      </trkpt>
      <trkpt lat="45.02904" lon="3.27522">
        <ele>1366.040364</ele>
        <time>2021-07-09T13:22:40+0200</time>
      </trkpt>
      <trkpt lat="45.02901" lon="3.2753">
        <ele>1365.588425</ele>
        <time>2021-07-09T13:22:42+0200</time>
      </trkpt>
      <trkpt lat="45.02897" lon="3.27536">
        <ele>1364.826286</ele>
        <time>2021-07-09T13:22:45+0200</time>
      </trkpt>
      <trkpt lat="45.02893" lon="3.27541">
        <ele>1365.23044</ele>
        <time>2021-07-09T13:22:48+0200</time>
      </trkpt>
      <trkpt lat="45.02889" lon="3.27546">
        <ele>1365.400988</ele>
        <time>2021-07-09T13:22:50+0200</time>
      </trkpt>
      <trkpt lat="45.02885" lon="3.27551">
        <ele>1363.931573</ele>
        <time>2021-07-09T13:22:53+0200</time>
      </trkpt>
      <trkpt lat="45.02881" lon="3.27557">
        <ele>1364.120288</ele>
        <time>2021-07-09T13:22:56+0200</time>
      </trkpt>
      <trkpt lat="45.02878" lon="3.27563">
        <ele>1364.16229</ele>
        <time>2021-07-09T13:22:59+0200</time>
      </trkpt>
      <trkpt lat="45.02872" lon="3.27567">
        <ele>1365.301764</ele>
        <time>2021-07-09T13:23:03+0200</time>
      </trkpt>
      <trkpt lat="45.02869" lon="3.27574">
        <ele>1364.258717</ele>
        <time>2021-07-09T13:23:07+0200</time>
      </trkpt>
      <trkpt lat="45.02865" lon="3.27578">
        <ele>1364.359859</ele>
        <time>2021-07-09T13:23:10+0200</time>
      </trkpt>
      <trkpt lat="45.02862" lon="3.27585">
        <ele>1364.475522</ele>
        <time>2021-07-09T13:23:13+0200</time>
      </trkpt>
      <trkpt lat="45.02859" lon="3.2759">
        <ele>1364.438634</ele>
        <time>2021-07-09T13:23:15+0200</time>
      </trkpt>
      <trkpt lat="45.02856" lon="3.27595">
        <ele>1364.304444</ele>
        <time>2021-07-09T13:23:17+0200</time>
      </trkpt>
      <trkpt lat="45.02853" lon="3.27601">
        <ele>1363.910501</ele>
        <time>2021-07-09T13:23:19+0200</time>
      </trkpt>
      <trkpt lat="45.02848" lon="3.27607">
        <ele>1363.530956</ele>
        <time>2021-07-09T13:23:21+0200</time>
      </trkpt>
      <trkpt lat="45.02844" lon="3.27616">
        <ele>1363.318134</ele>
        <time>2021-07-09T13:23:23+0200</time>
      </trkpt>
      <trkpt lat="45.02839" lon="3.27622">
        <ele>1363.280878</ele>
        <time>2021-07-09T13:23:25+0200</time>
      </trkpt>
      <trkpt lat="45.02834" lon="3.2763">
        <ele>1363.275792</ele>
        <time>2021-07-09T13:23:27+0200</time>
      </trkpt>
      <trkpt lat="45.02829" lon="3.27639">
        <ele>1362.361706</ele>
        <time>2021-07-09T13:23:29+0200</time>
      </trkpt>
      <trkpt lat="45.02823" lon="3.27649">
        <ele>1362.299091</ele>
        <time>2021-07-09T13:23:31+0200</time>
      </trkpt>
      <trkpt lat="45.0282" lon="3.27654">
        <ele>1362.273819</ele>
        <time>2021-07-09T13:23:32+0200</time>
      </trkpt>
      <trkpt lat="45.02817" lon="3.27659">
        <ele>1362.063927</ele>
        <time>2021-07-09T13:23:33+0200</time>
      </trkpt>
      <trkpt lat="45.02813" lon="3.27664">
        <ele>1361.887014</ele>
        <time>2021-07-09T13:23:34+0200</time>
      </trkpt>
      <trkpt lat="45.0281" lon="3.2767">
        <ele>1361.570464</ele>
        <time>2021-07-09T13:23:35+0200</time>
      </trkpt>
      <trkpt lat="45.02805" lon="3.27674">
        <ele>1361.176337</ele>
        <time>2021-07-09T13:23:36+0200</time>
      </trkpt>
      <trkpt lat="45.02802" lon="3.27681">
        <ele>1360.453929</ele>
        <time>2021-07-09T13:23:37+0200</time>
      </trkpt>
      <trkpt lat="45.02798" lon="3.27686">
        <ele>1360.205873</ele>
        <time>2021-07-09T13:23:38+0200</time>
      </trkpt>
      <trkpt lat="45.02794" lon="3.27693">
        <ele>1359.898615</ele>
        <time>2021-07-09T13:23:39+0200</time>
      </trkpt>
      <trkpt lat="45.0279" lon="3.277">
        <ele>1359.526177</ele>
        <time>2021-07-09T13:23:40+0200</time>
      </trkpt>
      <trkpt lat="45.02786" lon="3.27706">
        <ele>1359.34268</ele>
        <time>2021-07-09T13:23:41+0200</time>
      </trkpt>
      <trkpt lat="45.02781" lon="3.27712">
        <ele>1359.411201</ele>
        <time>2021-07-09T13:23:42+0200</time>
      </trkpt>
      <trkpt lat="45.02778" lon="3.27719">
        <ele>1359.327063</ele>
        <time>2021-07-09T13:23:43+0200</time>
      </trkpt>
      <trkpt lat="45.02773" lon="3.27725">
        <ele>1359.336448</ele>
        <time>2021-07-09T13:23:44+0200</time>
      </trkpt>
      <trkpt lat="45.02767" lon="3.2773">
        <ele>1359.314767</ele>
        <time>2021-07-09T13:23:45+0200</time>
      </trkpt>
      <trkpt lat="45.02763" lon="3.27738">
        <ele>1359.408959</ele>
        <time>2021-07-09T13:23:46+0200</time>
      </trkpt>
      <trkpt lat="45.0276" lon="3.27744">
        <ele>1358.772056</ele>
        <time>2021-07-09T13:23:47+0200</time>
      </trkpt>
      <trkpt lat="45.02756" lon="3.2775">
        <ele>1358.219987</ele>
        <time>2021-07-09T13:23:48+0200</time>
      </trkpt>
      <trkpt lat="45.02751" lon="3.27757">
        <ele>1358.294452</ele>
        <time>2021-07-09T13:23:49+0200</time>
      </trkpt>
      <trkpt lat="45.02747" lon="3.27763">
        <ele>1358.214573</ele>
        <time>2021-07-09T13:23:50+0200</time>
      </trkpt>
      <trkpt lat="45.02743" lon="3.2777">
        <ele>1358.422052</ele>
        <time>2021-07-09T13:23:51+0200</time>
      </trkpt>
      <trkpt lat="45.02739" lon="3.27775">
        <ele>1358.305052</ele>
        <time>2021-07-09T13:23:52+0200</time>
      </trkpt>
      <trkpt lat="45.02735" lon="3.2778">
        <ele>1358.631129</ele>
        <time>2021-07-09T13:23:53+0200</time>
      </trkpt>
      <trkpt lat="45.02732" lon="3.27785">
        <ele>1358.883729</ele>
        <time>2021-07-09T13:23:54+0200</time>
      </trkpt>
      <trkpt lat="45.02726" lon="3.27791">
        <ele>1359.30237</ele>
        <time>2021-07-09T13:23:56+0200</time>
      </trkpt>
      <trkpt lat="45.02725" lon="3.27799">
        <ele>1361.345813</ele>
        <time>2021-07-09T13:24:02+0200</time>
      </trkpt>
      <trkpt lat="45.02724" lon="3.27807">
        <ele>1360.706532</ele>
        <time>2021-07-09T13:24:05+0200</time>
      </trkpt>
      <trkpt lat="45.02722" lon="3.27813">
        <ele>1360.535717</ele>
        <time>2021-07-09T13:24:07+0200</time>
      </trkpt>
      <trkpt lat="45.02722" lon="3.27821">
        <ele>1360.594861</ele>
        <time>2021-07-09T13:24:10+0200</time>
      </trkpt>
      <trkpt lat="45.02722" lon="3.27828">
        <ele>1360.193403</ele>
        <time>2021-07-09T13:24:13+0200</time>
      </trkpt>
      <trkpt lat="45.0272" lon="3.27836">
        <ele>1360.629733</ele>
        <time>2021-07-09T13:24:16+0200</time>
      </trkpt>
      <trkpt lat="45.02719" lon="3.27845">
        <ele>1360.807318</ele>
        <time>2021-07-09T13:24:19+0200</time>
      </trkpt>
      <trkpt lat="45.02719" lon="3.27852">
        <ele>1360.862508</ele>
        <time>2021-07-09T13:24:21+0200</time>
      </trkpt>
      <trkpt lat="45.02719" lon="3.27859">
        <ele>1360.871679</ele>
        <time>2021-07-09T13:24:23+0200</time>
      </trkpt>
      <trkpt lat="45.02717" lon="3.27867">
        <ele>1361.060864</ele>
        <time>2021-07-09T13:24:26+0200</time>
      </trkpt>
      <trkpt lat="45.02715" lon="3.27875">
        <ele>1361.05455</ele>
        <time>2021-07-09T13:24:29+0200</time>
      </trkpt>
      <trkpt lat="45.02713" lon="3.27883">
        <ele>1361.754273</ele>
        <time>2021-07-09T13:24:32+0200</time>
      </trkpt>
      <trkpt lat="45.02712" lon="3.2789">
        <ele>1361.797103</ele>
        <time>2021-07-09T13:24:35+0200</time>
      </trkpt>
      <trkpt lat="45.0271" lon="3.27897">
        <ele>1361.71809</ele>
        <time>2021-07-09T13:24:38+0200</time>
      </trkpt>
      <trkpt lat="45.02711" lon="3.27906">
        <ele>1362.533348</ele>
        <time>2021-07-09T13:24:41+0200</time>
      </trkpt>
      <trkpt lat="45.02709" lon="3.27915">
        <ele>1362.500483</ele>
        <time>2021-07-09T13:24:44+0200</time>
      </trkpt>
      <trkpt lat="45.02706" lon="3.2792">
        <ele>1362.321835</ele>
        <time>2021-07-09T13:24:46+0200</time>
      </trkpt>
      <trkpt lat="45.02704" lon="3.27928">
        <ele>1362.767929</ele>
        <time>2021-07-09T13:24:49+0200</time>
      </trkpt>
      <trkpt lat="45.02701" lon="3.27936">
        <ele>1363.149998</ele>
        <time>2021-07-09T13:24:52+0200</time>
      </trkpt>
      <trkpt lat="45.02699" lon="3.27941">
        <ele>1362.946007</ele>
        <time>2021-07-09T13:24:54+0200</time>
      </trkpt>
      <trkpt lat="45.02698" lon="3.27949">
        <ele>1363.079955</ele>
        <time>2021-07-09T13:24:56+0200</time>
      </trkpt>
      <trkpt lat="45.02697" lon="3.27958">
        <ele>1363.349581</ele>
        <time>2021-07-09T13:24:58+0200</time>
      </trkpt>
      <trkpt lat="45.02695" lon="3.27966">
        <ele>1363.172741</ele>
        <time>2021-07-09T13:25:00+0200</time>
      </trkpt>
      <trkpt lat="45.02694" lon="3.27976">
        <ele>1363.958652</ele>
        <time>2021-07-09T13:25:02+0200</time>
      </trkpt>
      <trkpt lat="45.02694" lon="3.27986">
        <ele>1364.181692</ele>
        <time>2021-07-09T13:25:04+0200</time>
      </trkpt>
      <trkpt lat="45.02692" lon="3.27996">
        <ele>1364.408009</ele>
        <time>2021-07-09T13:25:06+0200</time>
      </trkpt>
      <trkpt lat="45.02691" lon="3.28007">
        <ele>1364.318314</ele>
        <time>2021-07-09T13:25:08+0200</time>
      </trkpt>
      <trkpt lat="45.02688" lon="3.28017">
        <ele>1365.205788</ele>
        <time>2021-07-09T13:25:10+0200</time>
      </trkpt>
      <trkpt lat="45.02688" lon="3.28029">
        <ele>1364.960048</ele>
        <time>2021-07-09T13:25:12+0200</time>
      </trkpt>
      <trkpt lat="45.02687" lon="3.2804">
        <ele>1364.910343</ele>
        <time>2021-07-09T13:25:14+0200</time>
      </trkpt>
      <trkpt lat="45.02686" lon="3.28051">
        <ele>1365.072484</ele>
        <time>2021-07-09T13:25:16+0200</time>
      </trkpt>
      <trkpt lat="45.02686" lon="3.28063">
        <ele>1364.831918</ele>
        <time>2021-07-09T13:25:18+0200</time>
      </trkpt>
      <trkpt lat="45.02685" lon="3.28075">
        <ele>1365.334164</ele>
        <time>2021-07-09T13:25:20+0200</time>
      </trkpt>
      <trkpt lat="45.02685" lon="3.28087">
        <ele>1365.991912</ele>
        <time>2021-07-09T13:25:22+0200</time>
      </trkpt>
      <trkpt lat="45.02685" lon="3.28097">
        <ele>1366.124198</ele>
        <time>2021-07-09T13:25:24+0200</time>
      </trkpt>
      <trkpt lat="45.02686" lon="3.28109">
        <ele>1366.029851</ele>
        <time>2021-07-09T13:25:26+0200</time>
      </trkpt>
      <trkpt lat="45.02687" lon="3.2812">
        <ele>1366.030853</ele>
        <time>2021-07-09T13:25:28+0200</time>
      </trkpt>
      <trkpt lat="45.02688" lon="3.28132">
        <ele>1366.205858</ele>
        <time>2021-07-09T13:25:30+0200</time>
      </trkpt>
      <trkpt lat="45.02688" lon="3.28143">
        <ele>1366.666719</ele>
        <time>2021-07-09T13:25:32+0200</time>
      </trkpt>
      <trkpt lat="45.02688" lon="3.28155">
        <ele>1366.923776</ele>
        <time>2021-07-09T13:25:34+0200</time>
      </trkpt>
      <trkpt lat="45.02688" lon="3.28166">
        <ele>1367.009188</ele>
        <time>2021-07-09T13:25:36+0200</time>
      </trkpt>
      <trkpt lat="45.02689" lon="3.28177">
        <ele>1366.833719</ele>
        <time>2021-07-09T13:25:38+0200</time>
      </trkpt>
      <trkpt lat="45.02689" lon="3.28189">
        <ele>1366.819918</ele>
        <time>2021-07-09T13:25:40+0200</time>
      </trkpt>
      <trkpt lat="45.0269" lon="3.282">
        <ele>1366.393912</ele>
        <time>2021-07-09T13:25:42+0200</time>
      </trkpt>
      <trkpt lat="45.0269" lon="3.28212">
        <ele>1366.653286</ele>
        <time>2021-07-09T13:25:44+0200</time>
      </trkpt>
      <trkpt lat="45.0269" lon="3.28224">
        <ele>1366.908261</ele>
        <time>2021-07-09T13:25:46+0200</time>
      </trkpt>
      <trkpt lat="45.0269" lon="3.28236">
        <ele>1366.693561</ele>
        <time>2021-07-09T13:25:48+0200</time>
      </trkpt>
      <trkpt lat="45.02689" lon="3.28247">
        <ele>1366.597635</ele>
        <time>2021-07-09T13:25:50+0200</time>
      </trkpt>
      <trkpt lat="45.02688" lon="3.28259">
        <ele>1366.777556</ele>
        <time>2021-07-09T13:25:52+0200</time>
      </trkpt>
      <trkpt lat="45.02688" lon="3.28272">
        <ele>1367.031516</ele>
        <time>2021-07-09T13:25:54+0200</time>
      </trkpt>
      <trkpt lat="45.02688" lon="3.28278">
        <ele>1367.202566</ele>
        <time>2021-07-09T13:25:55+0200</time>
      </trkpt>
      <trkpt lat="45.02688" lon="3.28291">
        <ele>1367.454516</ele>
        <time>2021-07-09T13:25:57+0200</time>
      </trkpt>
      <trkpt lat="45.02688" lon="3.28298">
        <ele>1367.725438</ele>
        <time>2021-07-09T13:25:58+0200</time>
      </trkpt>
      <trkpt lat="45.02688" lon="3.28305">
        <ele>1367.610825</ele>
        <time>2021-07-09T13:25:59+0200</time>
      </trkpt>
      <trkpt lat="45.02688" lon="3.28312">
        <ele>1367.672928</ele>
        <time>2021-07-09T13:26:00+0200</time>
      </trkpt>
      <trkpt lat="45.02689" lon="3.28323">
        <ele>1368.254515</ele>
        <time>2021-07-09T13:26:02+0200</time>
      </trkpt>
      <trkpt lat="45.02689" lon="3.28336">
        <ele>1368.32618</ele>
        <time>2021-07-09T13:26:04+0200</time>
      </trkpt>
      <trkpt lat="45.02688" lon="3.28343">
        <ele>1368.295774</ele>
        <time>2021-07-09T13:26:05+0200</time>
      </trkpt>
      <trkpt lat="45.02688" lon="3.28349">
        <ele>1367.874203</ele>
        <time>2021-07-09T13:26:06+0200</time>
      </trkpt>
      <trkpt lat="45.02687" lon="3.28356">
        <ele>1368.292354</ele>
        <time>2021-07-09T13:26:07+0200</time>
      </trkpt>
      <trkpt lat="45.02686" lon="3.28363">
        <ele>1367.789325</ele>
        <time>2021-07-09T13:26:08+0200</time>
      </trkpt>
      <trkpt lat="45.02686" lon="3.2837">
        <ele>1367.46229</ele>
        <time>2021-07-09T13:26:09+0200</time>
      </trkpt>
      <trkpt lat="45.02686" lon="3.28378">
        <ele>1367.456062</ele>
        <time>2021-07-09T13:26:10+0200</time>
      </trkpt>
      <trkpt lat="45.02685" lon="3.28385">
        <ele>1367.394356</ele>
        <time>2021-07-09T13:26:11+0200</time>
      </trkpt>
      <trkpt lat="45.02684" lon="3.28392">
        <ele>1367.149372</ele>
        <time>2021-07-09T13:26:12+0200</time>
      </trkpt>
      <trkpt lat="45.02684" lon="3.28399">
        <ele>1366.887334</ele>
        <time>2021-07-09T13:26:13+0200</time>
      </trkpt>
      <trkpt lat="45.02685" lon="3.28407">
        <ele>1366.730418</ele>
        <time>2021-07-09T13:26:14+0200</time>
      </trkpt>
      <trkpt lat="45.02685" lon="3.28415">
        <ele>1366.703426</ele>
        <time>2021-07-09T13:26:15+0200</time>
      </trkpt>
      <trkpt lat="45.02684" lon="3.28422">
        <ele>1367.12947</ele>
        <time>2021-07-09T13:26:16+0200</time>
      </trkpt>
      <trkpt lat="45.02684" lon="3.28428">
        <ele>1366.917241</ele>
        <time>2021-07-09T13:26:17+0200</time>
      </trkpt>
      <trkpt lat="45.02683" lon="3.28435">
        <ele>1366.723309</ele>
        <time>2021-07-09T13:26:18+0200</time>
      </trkpt>
      <trkpt lat="45.02683" lon="3.28443">
        <ele>1366.536056</ele>
        <time>2021-07-09T13:26:19+0200</time>
      </trkpt>
      <trkpt lat="45.02683" lon="3.2845">
        <ele>1366.401651</ele>
        <time>2021-07-09T13:26:20+0200</time>
      </trkpt>
      <trkpt lat="45.02682" lon="3.28457">
        <ele>1366.758297</ele>
        <time>2021-07-09T13:26:21+0200</time>
      </trkpt>
      <trkpt lat="45.02683" lon="3.28464">
        <ele>1367.104705</ele>
        <time>2021-07-09T13:26:22+0200</time>
      </trkpt>
      <trkpt lat="45.02682" lon="3.28472">
        <ele>1367.114256</ele>
        <time>2021-07-09T13:26:23+0200</time>
      </trkpt>
      <trkpt lat="45.02681" lon="3.2848">
        <ele>1367.096094</ele>
        <time>2021-07-09T13:26:24+0200</time>
      </trkpt>
      <trkpt lat="45.0268" lon="3.28487">
        <ele>1367.039215</ele>
        <time>2021-07-09T13:26:25+0200</time>
      </trkpt>
      <trkpt lat="45.02681" lon="3.28495">
        <ele>1367.225431</ele>
        <time>2021-07-09T13:26:26+0200</time>
      </trkpt>
      <trkpt lat="45.0268" lon="3.28502">
        <ele>1367.396041</ele>
        <time>2021-07-09T13:26:27+0200</time>
      </trkpt>
      <trkpt lat="45.0268" lon="3.2851">
        <ele>1367.638402</ele>
        <time>2021-07-09T13:26:28+0200</time>
      </trkpt>
      <trkpt lat="45.0268" lon="3.28518">
        <ele>1367.776145</ele>
        <time>2021-07-09T13:26:29+0200</time>
      </trkpt>
      <trkpt lat="45.0268" lon="3.28525">
        <ele>1367.29315</ele>
        <time>2021-07-09T13:26:30+0200</time>
      </trkpt>
      <trkpt lat="45.0268" lon="3.28534">
        <ele>1366.182771</ele>
        <time>2021-07-09T13:26:31+0200</time>
      </trkpt>
      <trkpt lat="45.0268" lon="3.28543">
        <ele>1366.540364</ele>
        <time>2021-07-09T13:26:32+0200</time>
      </trkpt>
      <trkpt lat="45.0268" lon="3.28552">
        <ele>1365.518908</ele>
        <time>2021-07-09T13:26:33+0200</time>
      </trkpt>
      <trkpt lat="45.0268" lon="3.2856">
        <ele>1365.195232</ele>
        <time>2021-07-09T13:26:34+0200</time>
      </trkpt>
      <trkpt lat="45.02679" lon="3.28569">
        <ele>1365.269111</ele>
        <time>2021-07-09T13:26:35+0200</time>
      </trkpt>
      <trkpt lat="45.02679" lon="3.28578">
        <ele>1364.528552</ele>
        <time>2021-07-09T13:26:36+0200</time>
      </trkpt>
      <trkpt lat="45.02679" lon="3.28586">
        <ele>1364.502136</ele>
        <time>2021-07-09T13:26:37+0200</time>
      </trkpt>
      <trkpt lat="45.0268" lon="3.28595">
        <ele>1364.1949</ele>
        <time>2021-07-09T13:26:38+0200</time>
      </trkpt>
      <trkpt lat="45.02682" lon="3.28605">
        <ele>1364.055461</ele>
        <time>2021-07-09T13:26:39+0200</time>
      </trkpt>
      <trkpt lat="45.02683" lon="3.28614">
        <ele>1363.771782</ele>
        <time>2021-07-09T13:26:40+0200</time>
      </trkpt>
      <trkpt lat="45.02685" lon="3.28623">
        <ele>1363.66795</ele>
        <time>2021-07-09T13:26:41+0200</time>
      </trkpt>
      <trkpt lat="45.02687" lon="3.28632">
        <ele>1363.211612</ele>
        <time>2021-07-09T13:26:42+0200</time>
      </trkpt>
      <trkpt lat="45.02689" lon="3.28641">
        <ele>1362.77479</ele>
        <time>2021-07-09T13:26:43+0200</time>
      </trkpt>
      <trkpt lat="45.0269" lon="3.28651">
        <ele>1362.438993</ele>
        <time>2021-07-09T13:26:44+0200</time>
      </trkpt>
      <trkpt lat="45.02692" lon="3.2866">
        <ele>1362.002488</ele>
        <time>2021-07-09T13:26:45+0200</time>
      </trkpt>
      <trkpt lat="45.02694" lon="3.28669">
        <ele>1361.895832</ele>
        <time>2021-07-09T13:26:46+0200</time>
      </trkpt>
      <trkpt lat="45.02696" lon="3.28678">
        <ele>1361.409278</ele>
        <time>2021-07-09T13:26:47+0200</time>
      </trkpt>
      <trkpt lat="45.02697" lon="3.28687">
        <ele>1360.930729</ele>
        <time>2021-07-09T13:26:48+0200</time>
      </trkpt>
      <trkpt lat="45.02698" lon="3.28696">
        <ele>1360.364967</ele>
        <time>2021-07-09T13:26:49+0200</time>
      </trkpt>
      <trkpt lat="45.027" lon="3.28704">
        <ele>1360.266256</ele>
        <time>2021-07-09T13:26:50+0200</time>
      </trkpt>
      <trkpt lat="45.02701" lon="3.28713">
        <ele>1360.532261</ele>
        <time>2021-07-09T13:26:51+0200</time>
      </trkpt>
      <trkpt lat="45.02702" lon="3.28722">
        <ele>1360.573381</ele>
        <time>2021-07-09T13:26:52+0200</time>
      </trkpt>
      <trkpt lat="45.02703" lon="3.28731">
        <ele>1360.043587</ele>
        <time>2021-07-09T13:26:53+0200</time>
      </trkpt>
      <trkpt lat="45.02704" lon="3.2874">
        <ele>1360.164532</ele>
        <time>2021-07-09T13:26:54+0200</time>
      </trkpt>
      <trkpt lat="45.02705" lon="3.28749">
        <ele>1360.171838</ele>
        <time>2021-07-09T13:26:55+0200</time>
      </trkpt>
      <trkpt lat="45.02707" lon="3.28758">
        <ele>1359.865308</ele>
        <time>2021-07-09T13:26:56+0200</time>
      </trkpt>
      <trkpt lat="45.02709" lon="3.28767">
        <ele>1359.321399</ele>
        <time>2021-07-09T13:26:57+0200</time>
      </trkpt>
      <trkpt lat="45.02711" lon="3.28776">
        <ele>1359.124289</ele>
        <time>2021-07-09T13:26:58+0200</time>
      </trkpt>
      <trkpt lat="45.02712" lon="3.28786">
        <ele>1358.495056</ele>
        <time>2021-07-09T13:26:59+0200</time>
      </trkpt>
      <trkpt lat="45.02713" lon="3.28796">
        <ele>1358.064262</ele>
        <time>2021-07-09T13:27:00+0200</time>
      </trkpt>
      <trkpt lat="45.02715" lon="3.28806">
        <ele>1357.224556</ele>
        <time>2021-07-09T13:27:01+0200</time>
      </trkpt>
      <trkpt lat="45.02714" lon="3.28815">
        <ele>1356.69704</ele>
        <time>2021-07-09T13:27:02+0200</time>
      </trkpt>
      <trkpt lat="45.02713" lon="3.28825">
        <ele>1356.405433</ele>
        <time>2021-07-09T13:27:03+0200</time>
      </trkpt>
      <trkpt lat="45.02712" lon="3.28835">
        <ele>1355.644003</ele>
        <time>2021-07-09T13:27:04+0200</time>
      </trkpt>
      <trkpt lat="45.0271" lon="3.28844">
        <ele>1355.131804</ele>
        <time>2021-07-09T13:27:05+0200</time>
      </trkpt>
      <trkpt lat="45.02707" lon="3.28855">
        <ele>1354.891857</ele>
        <time>2021-07-09T13:27:06+0200</time>
      </trkpt>
      <trkpt lat="45.02705" lon="3.28864">
        <ele>1354.629011</ele>
        <time>2021-07-09T13:27:07+0200</time>
      </trkpt>
      <trkpt lat="45.02703" lon="3.28873">
        <ele>1354.243297</ele>
        <time>2021-07-09T13:27:08+0200</time>
      </trkpt>
      <trkpt lat="45.027" lon="3.28881">
        <ele>1354.208474</ele>
        <time>2021-07-09T13:27:09+0200</time>
      </trkpt>
      <trkpt lat="45.02698" lon="3.2889">
        <ele>1354.390577</ele>
        <time>2021-07-09T13:27:10+0200</time>
      </trkpt>
      <trkpt lat="45.02696" lon="3.289">
        <ele>1353.997121</ele>
        <time>2021-07-09T13:27:11+0200</time>
      </trkpt>
      <trkpt lat="45.02695" lon="3.28911">
        <ele>1353.362597</ele>
        <time>2021-07-09T13:27:12+0200</time>
      </trkpt>
      <trkpt lat="45.02693" lon="3.28922">
        <ele>1352.696141</ele>
        <time>2021-07-09T13:27:13+0200</time>
      </trkpt>
      <trkpt lat="45.02693" lon="3.28933">
        <ele>1351.93384</ele>
        <time>2021-07-09T13:27:14+0200</time>
      </trkpt>
      <trkpt lat="45.02691" lon="3.28944">
        <ele>1351.342563</ele>
        <time>2021-07-09T13:27:15+0200</time>
      </trkpt>
      <trkpt lat="45.0269" lon="3.28956">
        <ele>1350.362684</ele>
        <time>2021-07-09T13:27:16+0200</time>
      </trkpt>
      <trkpt lat="45.02687" lon="3.28967">
        <ele>1349.130766</ele>
        <time>2021-07-09T13:27:17+0200</time>
      </trkpt>
      <trkpt lat="45.02684" lon="3.28978">
        <ele>1348.454459</ele>
        <time>2021-07-09T13:27:18+0200</time>
      </trkpt>
      <trkpt lat="45.02682" lon="3.28989">
        <ele>1347.679982</ele>
        <time>2021-07-09T13:27:19+0200</time>
      </trkpt>
      <trkpt lat="45.02681" lon="3.29">
        <ele>1346.913326</ele>
        <time>2021-07-09T13:27:20+0200</time>
      </trkpt>
      <trkpt lat="45.02679" lon="3.29012">
        <ele>1346.365178</ele>
        <time>2021-07-09T13:27:21+0200</time>
      </trkpt>
      <trkpt lat="45.02675" lon="3.29023">
        <ele>1345.367772</ele>
        <time>2021-07-09T13:27:22+0200</time>
      </trkpt>
      <trkpt lat="45.02672" lon="3.29033">
        <ele>1344.790604</ele>
        <time>2021-07-09T13:27:23+0200</time>
      </trkpt>
      <trkpt lat="45.02668" lon="3.29043">
        <ele>1344.485871</ele>
        <time>2021-07-09T13:27:24+0200</time>
      </trkpt>
      <trkpt lat="45.02663" lon="3.29052">
        <ele>1344.294115</ele>
        <time>2021-07-09T13:27:25+0200</time>
      </trkpt>
      <trkpt lat="45.02658" lon="3.29062">
        <ele>1343.806067</ele>
        <time>2021-07-09T13:27:26+0200</time>
      </trkpt>
      <trkpt lat="45.02653" lon="3.29072">
        <ele>1343.685907</ele>
        <time>2021-07-09T13:27:27+0200</time>
      </trkpt>
      <trkpt lat="45.02647" lon="3.29081">
        <ele>1343.12398</ele>
        <time>2021-07-09T13:27:28+0200</time>
      </trkpt>
      <trkpt lat="45.0264" lon="3.29089">
        <ele>1342.646364</ele>
        <time>2021-07-09T13:27:29+0200</time>
      </trkpt>
      <trkpt lat="45.02635" lon="3.29097">
        <ele>1341.026343</ele>
        <time>2021-07-09T13:27:30+0200</time>
      </trkpt>
      <trkpt lat="45.02629" lon="3.29105">
        <ele>1340.575708</ele>
        <time>2021-07-09T13:27:31+0200</time>
      </trkpt>
      <trkpt lat="45.02623" lon="3.29113">
        <ele>1340.023512</ele>
        <time>2021-07-09T13:27:32+0200</time>
      </trkpt>
      <trkpt lat="45.02617" lon="3.29123">
        <ele>1339.410738</ele>
        <time>2021-07-09T13:27:33+0200</time>
      </trkpt>
      <trkpt lat="45.0261" lon="3.29131">
        <ele>1339.102083</ele>
        <time>2021-07-09T13:27:34+0200</time>
      </trkpt>
      <trkpt lat="45.02605" lon="3.29141">
        <ele>1338.196033</ele>
        <time>2021-07-09T13:27:35+0200</time>
      </trkpt>
      <trkpt lat="45.02599" lon="3.29152">
        <ele>1337.394312</ele>
        <time>2021-07-09T13:27:36+0200</time>
      </trkpt>
      <trkpt lat="45.02593" lon="3.29163">
        <ele>1336.716253</ele>
        <time>2021-07-09T13:27:37+0200</time>
      </trkpt>
      <trkpt lat="45.02586" lon="3.29172">
        <ele>1335.961242</ele>
        <time>2021-07-09T13:27:38+0200</time>
      </trkpt>
      <trkpt lat="45.02581" lon="3.29181">
        <ele>1335.751906</ele>
        <time>2021-07-09T13:27:39+0200</time>
      </trkpt>
      <trkpt lat="45.02575" lon="3.29191">
        <ele>1335.660274</ele>
        <time>2021-07-09T13:27:40+0200</time>
      </trkpt>
      <trkpt lat="45.02569" lon="3.29201">
        <ele>1335.533114</ele>
        <time>2021-07-09T13:27:41+0200</time>
      </trkpt>
      <trkpt lat="45.02564" lon="3.29211">
        <ele>1334.812351</ele>
        <time>2021-07-09T13:27:42+0200</time>
      </trkpt>
      <trkpt lat="45.02558" lon="3.29221">
        <ele>1334.38443</ele>
        <time>2021-07-09T13:27:43+0200</time>
      </trkpt>
      <trkpt lat="45.02554" lon="3.29232">
        <ele>1333.763633</ele>
        <time>2021-07-09T13:27:44+0200</time>
      </trkpt>
      <trkpt lat="45.02549" lon="3.29243">
        <ele>1333.326592</ele>
        <time>2021-07-09T13:27:45+0200</time>
      </trkpt>
      <trkpt lat="45.02546" lon="3.29256">
        <ele>1333.055087</ele>
        <time>2021-07-09T13:27:46+0200</time>
      </trkpt>
      <trkpt lat="45.02543" lon="3.29268">
        <ele>1333.142116</ele>
        <time>2021-07-09T13:27:47+0200</time>
      </trkpt>
      <trkpt lat="45.0254" lon="3.2928">
        <ele>1331.887241</ele>
        <time>2021-07-09T13:27:48+0200</time>
      </trkpt>
      <trkpt lat="45.02537" lon="3.29292">
        <ele>1332.366725</ele>
        <time>2021-07-09T13:27:49+0200</time>
      </trkpt>
      <trkpt lat="45.02534" lon="3.29303">
        <ele>1332.11159</ele>
        <time>2021-07-09T13:27:50+0200</time>
      </trkpt>
      <trkpt lat="45.02531" lon="3.29315">
        <ele>1331.866077</ele>
        <time>2021-07-09T13:27:51+0200</time>
      </trkpt>
      <trkpt lat="45.02527" lon="3.29325">
        <ele>1331.996305</ele>
        <time>2021-07-09T13:27:52+0200</time>
      </trkpt>
      <trkpt lat="45.02524" lon="3.29335">
        <ele>1331.958007</ele>
        <time>2021-07-09T13:27:53+0200</time>
      </trkpt>
      <trkpt lat="45.02521" lon="3.29346">
        <ele>1332.15296</ele>
        <time>2021-07-09T13:27:54+0200</time>
      </trkpt>
      <trkpt lat="45.02518" lon="3.29356">
        <ele>1332.4905</ele>
        <time>2021-07-09T13:27:55+0200</time>
      </trkpt>
      <trkpt lat="45.02516" lon="3.29366">
        <ele>1332.59798</ele>
        <time>2021-07-09T13:27:56+0200</time>
      </trkpt>
      <trkpt lat="45.02513" lon="3.29376">
        <ele>1332.93469</ele>
        <time>2021-07-09T13:27:57+0200</time>
      </trkpt>
      <trkpt lat="45.02511" lon="3.29385">
        <ele>1333.118172</ele>
        <time>2021-07-09T13:27:58+0200</time>
      </trkpt>
      <trkpt lat="45.02508" lon="3.29394">
        <ele>1333.504279</ele>
        <time>2021-07-09T13:27:59+0200</time>
      </trkpt>
      <trkpt lat="45.02506" lon="3.29403">
        <ele>1333.727767</ele>
        <time>2021-07-09T13:28:00+0200</time>
      </trkpt>
      <trkpt lat="45.02503" lon="3.29412">
        <ele>1333.710443</ele>
        <time>2021-07-09T13:28:01+0200</time>
      </trkpt>
      <trkpt lat="45.025" lon="3.29421">
        <ele>1333.526499</ele>
        <time>2021-07-09T13:28:02+0200</time>
      </trkpt>
      <trkpt lat="45.02499" lon="3.2943">
        <ele>1334.076057</ele>
        <time>2021-07-09T13:28:03+0200</time>
      </trkpt>
      <trkpt lat="45.02495" lon="3.29439">
        <ele>1333.77611</ele>
        <time>2021-07-09T13:28:04+0200</time>
      </trkpt>
      <trkpt lat="45.02492" lon="3.29447">
        <ele>1333.96404</ele>
        <time>2021-07-09T13:28:05+0200</time>
      </trkpt>
      <trkpt lat="45.02489" lon="3.29457">
        <ele>1333.639975</ele>
        <time>2021-07-09T13:28:06+0200</time>
      </trkpt>
      <trkpt lat="45.02486" lon="3.29467">
        <ele>1332.745086</ele>
        <time>2021-07-09T13:28:07+0200</time>
      </trkpt>
      <trkpt lat="45.02483" lon="3.29475">
        <ele>1332.560133</ele>
        <time>2021-07-09T13:28:08+0200</time>
      </trkpt>
      <trkpt lat="45.02481" lon="3.29487">
        <ele>1334.225226</ele>
        <time>2021-07-09T13:28:09+0200</time>
      </trkpt>
      <trkpt lat="45.02479" lon="3.29497">
        <ele>1335.44568</ele>
        <time>2021-07-09T13:28:10+0200</time>
      </trkpt>
      <trkpt lat="45.02475" lon="3.29507">
        <ele>1334.879693</ele>
        <time>2021-07-09T13:28:11+0200</time>
      </trkpt>
      <trkpt lat="45.02472" lon="3.29518">
        <ele>1334.317814</ele>
        <time>2021-07-09T13:28:12+0200</time>
      </trkpt>
      <trkpt lat="45.02468" lon="3.29527">
        <ele>1333.958433</ele>
        <time>2021-07-09T13:28:13+0200</time>
      </trkpt>
      <trkpt lat="45.02466" lon="3.29538">
        <ele>1334.695152</ele>
        <time>2021-07-09T13:28:14+0200</time>
      </trkpt>
      <trkpt lat="45.02462" lon="3.29547">
        <ele>1335.233178</ele>
        <time>2021-07-09T13:28:15+0200</time>
      </trkpt>
      <trkpt lat="45.02459" lon="3.29557">
        <ele>1334.550785</ele>
        <time>2021-07-09T13:28:16+0200</time>
      </trkpt>
      <trkpt lat="45.02456" lon="3.29566">
        <ele>1333.61582</ele>
        <time>2021-07-09T13:28:17+0200</time>
      </trkpt>
      <trkpt lat="45.02452" lon="3.29576">
        <ele>1334.655749</ele>
        <time>2021-07-09T13:28:18+0200</time>
      </trkpt>
      <trkpt lat="45.02449" lon="3.29584">
        <ele>1335.132906</ele>
        <time>2021-07-09T13:28:19+0200</time>
      </trkpt>
      <trkpt lat="45.02445" lon="3.29592">
        <ele>1335.323793</ele>
        <time>2021-07-09T13:28:20+0200</time>
      </trkpt>
      <trkpt lat="45.02442" lon="3.296">
        <ele>1336.21255</ele>
        <time>2021-07-09T13:28:21+0200</time>
      </trkpt>
      <trkpt lat="45.02438" lon="3.29608">
        <ele>1336.509905</ele>
        <time>2021-07-09T13:28:22+0200</time>
      </trkpt>
      <trkpt lat="45.02435" lon="3.29615">
        <ele>1336.187136</ele>
        <time>2021-07-09T13:28:23+0200</time>
      </trkpt>
      <trkpt lat="45.02432" lon="3.29623">
        <ele>1334.913823</ele>
        <time>2021-07-09T13:28:24+0200</time>
      </trkpt>
      <trkpt lat="45.02429" lon="3.29631">
        <ele>1334.776651</ele>
        <time>2021-07-09T13:28:25+0200</time>
      </trkpt>
      <trkpt lat="45.02426" lon="3.29639">
        <ele>1334.358419</ele>
        <time>2021-07-09T13:28:26+0200</time>
      </trkpt>
      <trkpt lat="45.02423" lon="3.29646">
        <ele>1334.572611</ele>
        <time>2021-07-09T13:28:27+0200</time>
      </trkpt>
      <trkpt lat="45.0242" lon="3.29652">
        <ele>1335.609969</ele>
        <time>2021-07-09T13:28:28+0200</time>
      </trkpt>
      <trkpt lat="45.02417" lon="3.2966">
        <ele>1335.854931</ele>
        <time>2021-07-09T13:28:29+0200</time>
      </trkpt>
      <trkpt lat="45.02413" lon="3.29665">
        <ele>1336.511598</ele>
        <time>2021-07-09T13:28:30+0200</time>
      </trkpt>
      <trkpt lat="45.02409" lon="3.29669">
        <ele>1335.960386</ele>
        <time>2021-07-09T13:28:31+0200</time>
      </trkpt>
      <trkpt lat="45.02402" lon="3.29678">
        <ele>1337.29089</ele>
        <time>2021-07-09T13:28:33+0200</time>
      </trkpt>
      <trkpt lat="45.02399" lon="3.29683">
        <ele>1337.186953</ele>
        <time>2021-07-09T13:28:34+0200</time>
      </trkpt>
      <trkpt lat="45.02395" lon="3.29691">
        <ele>1339.238395</ele>
        <time>2021-07-09T13:28:36+0200</time>
      </trkpt>
      <trkpt lat="45.02392" lon="3.297">
        <ele>1341.856498</ele>
        <time>2021-07-09T13:28:38+0200</time>
      </trkpt>
      <trkpt lat="45.02388" lon="3.29709">
        <ele>1339.933868</ele>
        <time>2021-07-09T13:28:40+0200</time>
      </trkpt>
      <trkpt lat="45.02385" lon="3.29715">
        <ele>1342.080522</ele>
        <time>2021-07-09T13:28:42+0200</time>
      </trkpt>
      <trkpt lat="45.02383" lon="3.29724">
        <ele>1344.369648</ele>
        <time>2021-07-09T13:28:44+0200</time>
      </trkpt>
      <trkpt lat="45.0238" lon="3.29731">
        <ele>1346.674204</ele>
        <time>2021-07-09T13:28:46+0200</time>
      </trkpt>
      <trkpt lat="45.02377" lon="3.29739">
        <ele>1348.761461</ele>
        <time>2021-07-09T13:28:48+0200</time>
      </trkpt>
      <trkpt lat="45.02373" lon="3.29747">
        <ele>1349.615063</ele>
        <time>2021-07-09T13:28:50+0200</time>
      </trkpt>
      <trkpt lat="45.0237" lon="3.29755">
        <ele>1349.499293</ele>
        <time>2021-07-09T13:28:52+0200</time>
      </trkpt>
      <trkpt lat="45.02366" lon="3.29762">
        <ele>1349.458126</ele>
        <time>2021-07-09T13:28:54+0200</time>
      </trkpt>
      <trkpt lat="45.02363" lon="3.2977">
        <ele>1350.490402</ele>
        <time>2021-07-09T13:28:56+0200</time>
      </trkpt>
      <trkpt lat="45.02358" lon="3.29776">
        <ele>1350.079383</ele>
        <time>2021-07-09T13:28:58+0200</time>
      </trkpt>
      <trkpt lat="45.02354" lon="3.29785">
        <ele>1350.081352</ele>
        <time>2021-07-09T13:29:00+0200</time>
      </trkpt>
      <trkpt lat="45.02351" lon="3.29794">
        <ele>1351.434461</ele>
        <time>2021-07-09T13:29:02+0200</time>
      </trkpt>
      <trkpt lat="45.02347" lon="3.298">
        <ele>1351.209455</ele>
        <time>2021-07-09T13:29:04+0200</time>
      </trkpt>
      <trkpt lat="45.02345" lon="3.29807">
        <ele>1352.211313</ele>
        <time>2021-07-09T13:29:06+0200</time>
      </trkpt>
      <trkpt lat="45.02342" lon="3.29817">
        <ele>1352.193673</ele>
        <time>2021-07-09T13:29:08+0200</time>
      </trkpt>
      <trkpt lat="45.02339" lon="3.29826">
        <ele>1351.681397</ele>
        <time>2021-07-09T13:29:10+0200</time>
      </trkpt>
      <trkpt lat="45.02337" lon="3.29832">
        <ele>1352.424121</ele>
        <time>2021-07-09T13:29:11+0200</time>
      </trkpt>
      <trkpt lat="45.02335" lon="3.29838">
        <ele>1351.383467</ele>
        <time>2021-07-09T13:29:12+0200</time>
      </trkpt>
      <trkpt lat="45.02332" lon="3.29845">
        <ele>1351.033467</ele>
        <time>2021-07-09T13:29:13+0200</time>
      </trkpt>
      <trkpt lat="45.0233" lon="3.29852">
        <ele>1350.81754</ele>
        <time>2021-07-09T13:29:14+0200</time>
      </trkpt>
      <trkpt lat="45.02327" lon="3.29858">
        <ele>1352.334518</ele>
        <time>2021-07-09T13:29:15+0200</time>
      </trkpt>
      <trkpt lat="45.02324" lon="3.29865">
        <ele>1352.439938</ele>
        <time>2021-07-09T13:29:16+0200</time>
      </trkpt>
      <trkpt lat="45.02322" lon="3.29872">
        <ele>1352.094646</ele>
        <time>2021-07-09T13:29:17+0200</time>
      </trkpt>
      <trkpt lat="45.02318" lon="3.29878">
        <ele>1350.851171</ele>
        <time>2021-07-09T13:29:18+0200</time>
      </trkpt>
      <trkpt lat="45.02315" lon="3.29884">
        <ele>1351.562767</ele>
        <time>2021-07-09T13:29:19+0200</time>
      </trkpt>
      <trkpt lat="45.02313" lon="3.29891">
        <ele>1351.861644</ele>
        <time>2021-07-09T13:29:20+0200</time>
      </trkpt>
      <trkpt lat="45.02309" lon="3.29902">
        <ele>1351.356665</ele>
        <time>2021-07-09T13:29:22+0200</time>
      </trkpt>
      <trkpt lat="45.02307" lon="3.29907">
        <ele>1349.998494</ele>
        <time>2021-07-09T13:29:23+0200</time>
      </trkpt>
      <trkpt lat="45.02304" lon="3.29916">
        <ele>1350.250268</ele>
        <time>2021-07-09T13:29:24+0200</time>
      </trkpt>
      <trkpt lat="45.02302" lon="3.29928">
        <ele>1351.204262</ele>
        <time>2021-07-09T13:29:26+0200</time>
      </trkpt>
      <trkpt lat="45.023" lon="3.29935">
        <ele>1350.665278</ele>
        <time>2021-07-09T13:29:27+0200</time>
      </trkpt>
      <trkpt lat="45.02297" lon="3.29948">
        <ele>1349.190927</ele>
        <time>2021-07-09T13:29:29+0200</time>
      </trkpt>
      <trkpt lat="45.02295" lon="3.29956">
        <ele>1346.750844</ele>
        <time>2021-07-09T13:29:30+0200</time>
      </trkpt>
      <trkpt lat="45.02294" lon="3.29964">
        <ele>1345.429719</ele>
        <time>2021-07-09T13:29:31+0200</time>
      </trkpt>
      <trkpt lat="45.02293" lon="3.29971">
        <ele>1343.859477</ele>
        <time>2021-07-09T13:29:32+0200</time>
      </trkpt>
      <trkpt lat="45.02292" lon="3.29977">
        <ele>1343.062878</ele>
        <time>2021-07-09T13:29:33+0200</time>
      </trkpt>
      <trkpt lat="45.02289" lon="3.29989">
        <ele>1342.455336</ele>
        <time>2021-07-09T13:29:35+0200</time>
      </trkpt>
      <trkpt lat="45.02287" lon="3.30001">
        <ele>1342.252994</ele>
        <time>2021-07-09T13:29:37+0200</time>
      </trkpt>
      <trkpt lat="45.02286" lon="3.30013">
        <ele>1341.253979</ele>
        <time>2021-07-09T13:29:39+0200</time>
      </trkpt>
      <trkpt lat="45.02285" lon="3.30019">
        <ele>1341.2599</ele>
        <time>2021-07-09T13:29:40+0200</time>
      </trkpt>
      <trkpt lat="45.02282" lon="3.3003">
        <ele>1341.549287</ele>
        <time>2021-07-09T13:29:42+0200</time>
      </trkpt>
      <trkpt lat="45.0228" lon="3.30036">
        <ele>1341.730163</ele>
        <time>2021-07-09T13:29:43+0200</time>
      </trkpt>
      <trkpt lat="45.0228" lon="3.30043">
        <ele>1341.715997</ele>
        <time>2021-07-09T13:29:44+0200</time>
      </trkpt>
      <trkpt lat="45.02279" lon="3.3005">
        <ele>1341.198063</ele>
        <time>2021-07-09T13:29:45+0200</time>
      </trkpt>
      <trkpt lat="45.02277" lon="3.30062">
        <ele>1340.69388</ele>
        <time>2021-07-09T13:29:47+0200</time>
      </trkpt>
      <trkpt lat="45.02275" lon="3.30073">
        <ele>1340.371603</ele>
        <time>2021-07-09T13:29:49+0200</time>
      </trkpt>
      <trkpt lat="45.02272" lon="3.3008">
        <ele>1341.105181</ele>
        <time>2021-07-09T13:29:50+0200</time>
      </trkpt>
      <trkpt lat="45.02269" lon="3.30091">
        <ele>1341.141825</ele>
        <time>2021-07-09T13:29:52+0200</time>
      </trkpt>
      <trkpt lat="45.02268" lon="3.30104">
        <ele>1340.972166</ele>
        <time>2021-07-09T13:29:54+0200</time>
      </trkpt>
      <trkpt lat="45.02265" lon="3.30115">
        <ele>1341.751165</ele>
        <time>2021-07-09T13:29:56+0200</time>
      </trkpt>
      <trkpt lat="45.02262" lon="3.30126">
        <ele>1342.26608</ele>
        <time>2021-07-09T13:29:58+0200</time>
      </trkpt>
      <trkpt lat="45.02259" lon="3.30138">
        <ele>1342.084757</ele>
        <time>2021-07-09T13:30:00+0200</time>
      </trkpt>
      <trkpt lat="45.02259" lon="3.30145">
        <ele>1341.877035</ele>
        <time>2021-07-09T13:30:01+0200</time>
      </trkpt>
      <trkpt lat="45.02258" lon="3.30152">
        <ele>1341.619947</ele>
        <time>2021-07-09T13:30:02+0200</time>
      </trkpt>
      <trkpt lat="45.02257" lon="3.30158">
        <ele>1341.203428</ele>
        <time>2021-07-09T13:30:03+0200</time>
      </trkpt>
      <trkpt lat="45.02257" lon="3.30165">
        <ele>1340.895137</ele>
        <time>2021-07-09T13:30:04+0200</time>
      </trkpt>
      <trkpt lat="45.02256" lon="3.30177">
        <ele>1340.223142</ele>
        <time>2021-07-09T13:30:06+0200</time>
      </trkpt>
      <trkpt lat="45.02256" lon="3.30184">
        <ele>1340.380149</ele>
        <time>2021-07-09T13:30:07+0200</time>
      </trkpt>
      <trkpt lat="45.02256" lon="3.30192">
        <ele>1341.032511</ele>
        <time>2021-07-09T13:30:08+0200</time>
      </trkpt>
      <trkpt lat="45.02255" lon="3.30205">
        <ele>1341.879983</ele>
        <time>2021-07-09T13:30:10+0200</time>
      </trkpt>
      <trkpt lat="45.02255" lon="3.30213">
        <ele>1341.829678</ele>
        <time>2021-07-09T13:30:11+0200</time>
      </trkpt>
      <trkpt lat="45.02255" lon="3.30219">
        <ele>1342.031839</ele>
        <time>2021-07-09T13:30:12+0200</time>
      </trkpt>
      <trkpt lat="45.02255" lon="3.3023">
        <ele>1342.035361</ele>
        <time>2021-07-09T13:30:14+0200</time>
      </trkpt>
      <trkpt lat="45.02256" lon="3.30241">
        <ele>1341.74436</ele>
        <time>2021-07-09T13:30:16+0200</time>
      </trkpt>
      <trkpt lat="45.02258" lon="3.3025">
        <ele>1340.906188</ele>
        <time>2021-07-09T13:30:18+0200</time>
      </trkpt>
      <trkpt lat="45.02258" lon="3.30259">
        <ele>1340.665302</ele>
        <time>2021-07-09T13:30:20+0200</time>
      </trkpt>
      <trkpt lat="45.02256" lon="3.30266">
        <ele>1339.556427</ele>
        <time>2021-07-09T13:30:22+0200</time>
      </trkpt>
      <trkpt lat="45.02254" lon="3.30274">
        <ele>1339.107422</ele>
        <time>2021-07-09T13:30:24+0200</time>
      </trkpt>
      <trkpt lat="45.02254" lon="3.30281">
        <ele>1339.446942</ele>
        <time>2021-07-09T13:30:26+0200</time>
      </trkpt>
      <trkpt lat="45.02253" lon="3.30287">
        <ele>1339.464256</ele>
        <time>2021-07-09T13:30:28+0200</time>
      </trkpt>
      <trkpt lat="45.02254" lon="3.30296">
        <ele>1338.864339</ele>
        <time>2021-07-09T13:30:31+0200</time>
      </trkpt>
      <trkpt lat="45.02254" lon="3.30303">
        <ele>1341.162067</ele>
        <time>2021-07-09T13:30:34+0200</time>
      </trkpt>
      <trkpt lat="45.02255" lon="3.3031">
        <ele>1342.491509</ele>
        <time>2021-07-09T13:30:36+0200</time>
      </trkpt>
      <trkpt lat="45.02253" lon="3.30318">
        <ele>1344.037333</ele>
        <time>2021-07-09T13:30:39+0200</time>
      </trkpt>
      <trkpt lat="45.02252" lon="3.30326">
        <ele>1345.371051</ele>
        <time>2021-07-09T13:30:42+0200</time>
      </trkpt>
      <trkpt lat="45.02249" lon="3.30333">
        <ele>1345.132357</ele>
        <time>2021-07-09T13:30:45+0200</time>
      </trkpt>
      <trkpt lat="45.02249" lon="3.30342">
        <ele>1346.338412</ele>
        <time>2021-07-09T13:30:48+0200</time>
      </trkpt>
      <trkpt lat="45.02248" lon="3.30351">
        <ele>1345.886217</ele>
        <time>2021-07-09T13:30:51+0200</time>
      </trkpt>
      <trkpt lat="45.02248" lon="3.30358">
        <ele>1346.324072</ele>
        <time>2021-07-09T13:30:54+0200</time>
      </trkpt>
      <trkpt lat="45.02246" lon="3.30366">
        <ele>1346.163995</ele>
        <time>2021-07-09T13:30:57+0200</time>
      </trkpt>
      <trkpt lat="45.02245" lon="3.30375">
        <ele>1348.501202</ele>
        <time>2021-07-09T13:31:00+0200</time>
      </trkpt>
      <trkpt lat="45.02244" lon="3.30383">
        <ele>1348.990911</ele>
        <time>2021-07-09T13:31:03+0200</time>
      </trkpt>
      <trkpt lat="45.02244" lon="3.3039">
        <ele>1349.437098</ele>
        <time>2021-07-09T13:31:06+0200</time>
      </trkpt>
      <trkpt lat="45.02242" lon="3.30398">
        <ele>1350.111028</ele>
        <time>2021-07-09T13:31:10+0200</time>
      </trkpt>
      <trkpt lat="45.0224" lon="3.30407">
        <ele>1352.616566</ele>
        <time>2021-07-09T13:31:14+0200</time>
      </trkpt>
      <trkpt lat="45.02239" lon="3.30416">
        <ele>1353.696507</ele>
        <time>2021-07-09T13:31:18+0200</time>
      </trkpt>
      <trkpt lat="45.02237" lon="3.30425">
        <ele>1353.144316</ele>
        <time>2021-07-09T13:31:21+0200</time>
      </trkpt>
      <trkpt lat="45.02235" lon="3.30433">
        <ele>1351.208094</ele>
        <time>2021-07-09T13:31:24+0200</time>
      </trkpt>
      <trkpt lat="45.02234" lon="3.3044">
        <ele>1353.267402</ele>
        <time>2021-07-09T13:31:27+0200</time>
      </trkpt>
      <trkpt lat="45.02233" lon="3.30446">
        <ele>1354.73334</ele>
        <time>2021-07-09T13:31:30+0200</time>
      </trkpt>
      <trkpt lat="45.02232" lon="3.30453">
        <ele>1355.821313</ele>
        <time>2021-07-09T13:31:33+0200</time>
      </trkpt>
      <trkpt lat="45.02231" lon="3.30461">
        <ele>1356.623606</ele>
        <time>2021-07-09T13:31:36+0200</time>
      </trkpt>
      <trkpt lat="45.02231" lon="3.30468">
        <ele>1357.989929</ele>
        <time>2021-07-09T13:31:39+0200</time>
      </trkpt>
      <trkpt lat="45.0223" lon="3.30477">
        <ele>1357.550883</ele>
        <time>2021-07-09T13:31:43+0200</time>
      </trkpt>
      <trkpt lat="45.0223" lon="3.30485">
        <ele>1359.939756</ele>
        <time>2021-07-09T13:31:46+0200</time>
      </trkpt>
      <trkpt lat="45.02228" lon="3.30492">
        <ele>1361.910365</ele>
        <time>2021-07-09T13:31:49+0200</time>
      </trkpt>
      <trkpt lat="45.02228" lon="3.30499">
        <ele>1364.524608</ele>
        <time>2021-07-09T13:31:52+0200</time>
      </trkpt>
      <trkpt lat="45.02227" lon="3.30507">
        <ele>1365.258413</ele>
        <time>2021-07-09T13:31:55+0200</time>
      </trkpt>
      <trkpt lat="45.02225" lon="3.30514">
        <ele>1366.727401</ele>
        <time>2021-07-09T13:31:57+0200</time>
      </trkpt>
      <trkpt lat="45.02223" lon="3.30521">
        <ele>1367.761575</ele>
        <time>2021-07-09T13:32:00+0200</time>
      </trkpt>
      <trkpt lat="45.0222" lon="3.3053">
        <ele>1370.155407</ele>
        <time>2021-07-09T13:32:03+0200</time>
      </trkpt>
      <trkpt lat="45.02218" lon="3.30539">
        <ele>1368.917486</ele>
        <time>2021-07-09T13:32:06+0200</time>
      </trkpt>
      <trkpt lat="45.02217" lon="3.30546">
        <ele>1368.582613</ele>
        <time>2021-07-09T13:32:09+0200</time>
      </trkpt>
      <trkpt lat="45.02214" lon="3.30552">
        <ele>1367.509864</ele>
        <time>2021-07-09T13:32:12+0200</time>
      </trkpt>
      <trkpt lat="45.0221" lon="3.30557">
        <ele>1367.048886</ele>
        <time>2021-07-09T13:32:15+0200</time>
      </trkpt>
      <trkpt lat="45.02208" lon="3.30563">
        <ele>1367.728497</ele>
        <time>2021-07-09T13:32:18+0200</time>
      </trkpt>
      <trkpt lat="45.02203" lon="3.30568">
        <ele>1368.120653</ele>
        <time>2021-07-09T13:32:21+0200</time>
      </trkpt>
      <trkpt lat="45.02198" lon="3.30572">
        <ele>1366.930582</ele>
        <time>2021-07-09T13:32:23+0200</time>
      </trkpt>
      <trkpt lat="45.02194" lon="3.30575">
        <ele>1367.60112</ele>
        <time>2021-07-09T13:32:25+0200</time>
      </trkpt>
      <trkpt lat="45.02189" lon="3.30578">
        <ele>1367.368026</ele>
        <time>2021-07-09T13:32:27+0200</time>
      </trkpt>
      <trkpt lat="45.02183" lon="3.30579">
        <ele>1366.855193</ele>
        <time>2021-07-09T13:32:30+0200</time>
      </trkpt>
      <trkpt lat="45.02177" lon="3.30582">
        <ele>1366.494625</ele>
        <time>2021-07-09T13:32:33+0200</time>
      </trkpt>
      <trkpt lat="45.02172" lon="3.30582">
        <ele>1366.471183</ele>
        <time>2021-07-09T13:32:36+0200</time>
      </trkpt>
      <trkpt lat="45.02168" lon="3.30582">
        <ele>1366.758324</ele>
        <time>2021-07-09T13:32:38+0200</time>
      </trkpt>
      <trkpt lat="45.02162" lon="3.30585">
        <ele>1366.925921</ele>
        <time>2021-07-09T13:32:41+0200</time>
      </trkpt>
      <trkpt lat="45.02156" lon="3.30587">
        <ele>1367.482302</ele>
        <time>2021-07-09T13:32:44+0200</time>
      </trkpt>
      <trkpt lat="45.02151" lon="3.30588">
        <ele>1367.953948</ele>
        <time>2021-07-09T13:32:46+0200</time>
      </trkpt>
      <trkpt lat="45.02146" lon="3.3059">
        <ele>1366.981072</ele>
        <time>2021-07-09T13:32:48+0200</time>
      </trkpt>
      <trkpt lat="45.0214" lon="3.30591">
        <ele>1367.011778</ele>
        <time>2021-07-09T13:32:51+0200</time>
      </trkpt>
      <trkpt lat="45.02134" lon="3.30592">
        <ele>1367.748501</ele>
        <time>2021-07-09T13:32:53+0200</time>
      </trkpt>
      <trkpt lat="45.0213" lon="3.30594">
        <ele>1369.079313</ele>
        <time>2021-07-09T13:32:55+0200</time>
      </trkpt>
      <trkpt lat="45.02125" lon="3.30596">
        <ele>1369.158666</ele>
        <time>2021-07-09T13:32:57+0200</time>
      </trkpt>
      <trkpt lat="45.02121" lon="3.30596">
        <ele>1370.580091</ele>
        <time>2021-07-09T13:32:59+0200</time>
      </trkpt>
      <trkpt lat="45.02115" lon="3.30597">
        <ele>1370.509344</ele>
        <time>2021-07-09T13:33:02+0200</time>
      </trkpt>
      <trkpt lat="45.0211" lon="3.30599">
        <ele>1372.317038</ele>
        <time>2021-07-09T13:33:05+0200</time>
      </trkpt>
      <trkpt lat="45.02105" lon="3.306">
        <ele>1372.790879</ele>
        <time>2021-07-09T13:33:07+0200</time>
      </trkpt>
      <trkpt lat="45.02101" lon="3.306">
        <ele>1373.062628</ele>
        <time>2021-07-09T13:33:09+0200</time>
      </trkpt>
      <trkpt lat="45.02096" lon="3.30602">
        <ele>1373.279813</ele>
        <time>2021-07-09T13:33:11+0200</time>
      </trkpt>
      <trkpt lat="45.0209" lon="3.30602">
        <ele>1372.504858</ele>
        <time>2021-07-09T13:33:13+0200</time>
      </trkpt>
      <trkpt lat="45.02084" lon="3.30604">
        <ele>1372.161111</ele>
        <time>2021-07-09T13:33:15+0200</time>
      </trkpt>
      <trkpt lat="45.0208" lon="3.30606">
        <ele>1371.623145</ele>
        <time>2021-07-09T13:33:17+0200</time>
      </trkpt>
      <trkpt lat="45.02074" lon="3.30609">
        <ele>1371.932928</ele>
        <time>2021-07-09T13:33:19+0200</time>
      </trkpt>
      <trkpt lat="45.02068" lon="3.30609">
        <ele>1372.231767</ele>
        <time>2021-07-09T13:33:21+0200</time>
      </trkpt>
      <trkpt lat="45.02063" lon="3.30611">
        <ele>1371.547777</ele>
        <time>2021-07-09T13:33:23+0200</time>
      </trkpt>
      <trkpt lat="45.02058" lon="3.30613">
        <ele>1372.822758</ele>
        <time>2021-07-09T13:33:25+0200</time>
      </trkpt>
      <trkpt lat="45.02054" lon="3.30615">
        <ele>1372.941478</ele>
        <time>2021-07-09T13:33:27+0200</time>
      </trkpt>
      <trkpt lat="45.02048" lon="3.30617">
        <ele>1372.314982</ele>
        <time>2021-07-09T13:33:29+0200</time>
      </trkpt>
      <trkpt lat="45.02043" lon="3.30619">
        <ele>1373.306347</ele>
        <time>2021-07-09T13:33:31+0200</time>
      </trkpt>
      <trkpt lat="45.02038" lon="3.30619">
        <ele>1373.893169</ele>
        <time>2021-07-09T13:33:33+0200</time>
      </trkpt>
      <trkpt lat="45.02033" lon="3.30622">
        <ele>1374.776295</ele>
        <time>2021-07-09T13:33:35+0200</time>
      </trkpt>
      <trkpt lat="45.02028" lon="3.30624">
        <ele>1375.218763</ele>
        <time>2021-07-09T13:33:37+0200</time>
      </trkpt>
      <trkpt lat="45.02023" lon="3.30627">
        <ele>1375.392943</ele>
        <time>2021-07-09T13:33:39+0200</time>
      </trkpt>
      <trkpt lat="45.02018" lon="3.3063">
        <ele>1376.126136</ele>
        <time>2021-07-09T13:33:41+0200</time>
      </trkpt>
      <trkpt lat="45.02013" lon="3.30631">
        <ele>1376.814204</ele>
        <time>2021-07-09T13:33:43+0200</time>
      </trkpt>
      <trkpt lat="45.02008" lon="3.30632">
        <ele>1377.360564</ele>
        <time>2021-07-09T13:33:45+0200</time>
      </trkpt>
      <trkpt lat="45.02004" lon="3.30635">
        <ele>1378.235653</ele>
        <time>2021-07-09T13:33:47+0200</time>
      </trkpt>
      <trkpt lat="45.01999" lon="3.30636">
        <ele>1379.129532</ele>
        <time>2021-07-09T13:33:49+0200</time>
      </trkpt>
      <trkpt lat="45.01995" lon="3.30639">
        <ele>1379.318884</ele>
        <time>2021-07-09T13:33:51+0200</time>
      </trkpt>
      <trkpt lat="45.01989" lon="3.30642">
        <ele>1379.273066</ele>
        <time>2021-07-09T13:33:54+0200</time>
      </trkpt>
      <trkpt lat="45.01982" lon="3.30644">
        <ele>1378.452436</ele>
        <time>2021-07-09T13:33:57+0200</time>
      </trkpt>
      <trkpt lat="45.01976" lon="3.30647">
        <ele>1378.24568</ele>
        <time>2021-07-09T13:34:00+0200</time>
      </trkpt>
      <trkpt lat="45.01971" lon="3.30649">
        <ele>1379.114948</ele>
        <time>2021-07-09T13:34:02+0200</time>
      </trkpt>
      <trkpt lat="45.01966" lon="3.30651">
        <ele>1380.270304</ele>
        <time>2021-07-09T13:34:04+0200</time>
      </trkpt>
      <trkpt lat="45.01962" lon="3.30654">
        <ele>1380.681342</ele>
        <time>2021-07-09T13:34:06+0200</time>
      </trkpt>
      <trkpt lat="45.01955" lon="3.30657">
        <ele>1381.329817</ele>
        <time>2021-07-09T13:34:09+0200</time>
      </trkpt>
      <trkpt lat="45.01951" lon="3.30659">
        <ele>1382.736596</ele>
        <time>2021-07-09T13:34:11+0200</time>
      </trkpt>
      <trkpt lat="45.01946" lon="3.30662">
        <ele>1383.597996</ele>
        <time>2021-07-09T13:34:13+0200</time>
      </trkpt>
      <trkpt lat="45.01942" lon="3.30664">
        <ele>1384.114643</ele>
        <time>2021-07-09T13:34:15+0200</time>
      </trkpt>
      <trkpt lat="45.01936" lon="3.30668">
        <ele>1383.000132</ele>
        <time>2021-07-09T13:34:18+0200</time>
      </trkpt>
      <trkpt lat="45.0193" lon="3.30671">
        <ele>1383.060349</ele>
        <time>2021-07-09T13:34:20+0200</time>
      </trkpt>
      <trkpt lat="45.01925" lon="3.30673">
        <ele>1382.56405</ele>
        <time>2021-07-09T13:34:22+0200</time>
      </trkpt>
      <trkpt lat="45.0192" lon="3.30675">
        <ele>1382.842753</ele>
        <time>2021-07-09T13:34:24+0200</time>
      </trkpt>
      <trkpt lat="45.01915" lon="3.30676">
        <ele>1383.472041</ele>
        <time>2021-07-09T13:34:26+0200</time>
      </trkpt>
      <trkpt lat="45.0191" lon="3.30678">
        <ele>1384.286514</ele>
        <time>2021-07-09T13:34:28+0200</time>
      </trkpt>
      <trkpt lat="45.01906" lon="3.30681">
        <ele>1384.133295</ele>
        <time>2021-07-09T13:34:30+0200</time>
      </trkpt>
      <trkpt lat="45.01901" lon="3.30683">
        <ele>1384.653119</ele>
        <time>2021-07-09T13:34:32+0200</time>
      </trkpt>
      <trkpt lat="45.01896" lon="3.30686">
        <ele>1384.822236</ele>
        <time>2021-07-09T13:34:35+0200</time>
      </trkpt>
      <trkpt lat="45.0189" lon="3.30688">
        <ele>1385.375782</ele>
        <time>2021-07-09T13:34:39+0200</time>
      </trkpt>
      <trkpt lat="45.01887" lon="3.30692">
        <ele>1385.131496</ele>
        <time>2021-07-09T13:34:41+0200</time>
      </trkpt>
      <trkpt lat="45.01882" lon="3.30696">
        <ele>1384.845164</ele>
        <time>2021-07-09T13:34:43+0200</time>
      </trkpt>
      <trkpt lat="45.01876" lon="3.307">
        <ele>1384.859838</ele>
        <time>2021-07-09T13:34:45+0200</time>
      </trkpt>
      <trkpt lat="45.01869" lon="3.30706">
        <ele>1385.224584</ele>
        <time>2021-07-09T13:34:47+0200</time>
      </trkpt>
      <trkpt lat="45.01863" lon="3.30713">
        <ele>1384.538235</ele>
        <time>2021-07-09T13:34:49+0200</time>
      </trkpt>
      <trkpt lat="45.01859" lon="3.30717">
        <ele>1384.276061</ele>
        <time>2021-07-09T13:34:50+0200</time>
      </trkpt>
      <trkpt lat="45.01855" lon="3.30721">
        <ele>1383.69909</ele>
        <time>2021-07-09T13:34:51+0200</time>
      </trkpt>
      <trkpt lat="45.0185" lon="3.30725">
        <ele>1382.942782</ele>
        <time>2021-07-09T13:34:52+0200</time>
      </trkpt>
      <trkpt lat="45.01846" lon="3.30729">
        <ele>1382.367516</ele>
        <time>2021-07-09T13:34:53+0200</time>
      </trkpt>
      <trkpt lat="45.01841" lon="3.30733">
        <ele>1382.283998</ele>
        <time>2021-07-09T13:34:54+0200</time>
      </trkpt>
      <trkpt lat="45.01836" lon="3.30737">
        <ele>1382.79551</ele>
        <time>2021-07-09T13:34:55+0200</time>
      </trkpt>
      <trkpt lat="45.01832" lon="3.30742">
        <ele>1382.904797</ele>
        <time>2021-07-09T13:34:56+0200</time>
      </trkpt>
      <trkpt lat="45.01828" lon="3.30746">
        <ele>1383.495863</ele>
        <time>2021-07-09T13:34:57+0200</time>
      </trkpt>
      <trkpt lat="45.01823" lon="3.3075">
        <ele>1383.594555</ele>
        <time>2021-07-09T13:34:58+0200</time>
      </trkpt>
      <trkpt lat="45.01819" lon="3.30754">
        <ele>1383.244146</ele>
        <time>2021-07-09T13:34:59+0200</time>
      </trkpt>
      <trkpt lat="45.01814" lon="3.30759">
        <ele>1384.232169</ele>
        <time>2021-07-09T13:35:00+0200</time>
      </trkpt>
      <trkpt lat="45.01809" lon="3.30762">
        <ele>1384.534291</ele>
        <time>2021-07-09T13:35:01+0200</time>
      </trkpt>
      <trkpt lat="45.01805" lon="3.30766">
        <ele>1384.487676</ele>
        <time>2021-07-09T13:35:02+0200</time>
      </trkpt>
      <trkpt lat="45.01801" lon="3.30769">
        <ele>1384.473152</ele>
        <time>2021-07-09T13:35:03+0200</time>
      </trkpt>
      <trkpt lat="45.01797" lon="3.30773">
        <ele>1383.651968</ele>
        <time>2021-07-09T13:35:04+0200</time>
      </trkpt>
      <trkpt lat="45.0179" lon="3.30779">
        <ele>1383.650324</ele>
        <time>2021-07-09T13:35:06+0200</time>
      </trkpt>
      <trkpt lat="45.01784" lon="3.30786">
        <ele>1383.282675</ele>
        <time>2021-07-09T13:35:08+0200</time>
      </trkpt>
      <trkpt lat="45.01778" lon="3.3079">
        <ele>1383.780976</ele>
        <time>2021-07-09T13:35:10+0200</time>
      </trkpt>
      <trkpt lat="45.01773" lon="3.30796">
        <ele>1384.046544</ele>
        <time>2021-07-09T13:35:12+0200</time>
      </trkpt>
      <trkpt lat="45.01768" lon="3.30802">
        <ele>1383.657802</ele>
        <time>2021-07-09T13:35:14+0200</time>
      </trkpt>
      <trkpt lat="45.01764" lon="3.30806">
        <ele>1383.457646</ele>
        <time>2021-07-09T13:35:16+0200</time>
      </trkpt>
      <trkpt lat="45.01759" lon="3.30808">
        <ele>1383.390918</ele>
        <time>2021-07-09T13:35:18+0200</time>
      </trkpt>
      <trkpt lat="45.01754" lon="3.30813">
        <ele>1384.873342</ele>
        <time>2021-07-09T13:35:21+0200</time>
      </trkpt>
      <trkpt lat="45.0175" lon="3.30817">
        <ele>1386.037995</ele>
        <time>2021-07-09T13:35:23+0200</time>
      </trkpt>
      <trkpt lat="45.01745" lon="3.30822">
        <ele>1386.322808</ele>
        <time>2021-07-09T13:35:26+0200</time>
      </trkpt>
      <trkpt lat="45.01739" lon="3.30826">
        <ele>1387.45356</ele>
        <time>2021-07-09T13:35:29+0200</time>
      </trkpt>
      <trkpt lat="45.01735" lon="3.3083">
        <ele>1388.569377</ele>
        <time>2021-07-09T13:35:31+0200</time>
      </trkpt>
      <trkpt lat="45.01729" lon="3.30835">
        <ele>1389.356654</ele>
        <time>2021-07-09T13:35:34+0200</time>
      </trkpt>
      <trkpt lat="45.01725" lon="3.30839">
        <ele>1389.593847</ele>
        <time>2021-07-09T13:35:36+0200</time>
      </trkpt>
      <trkpt lat="45.01721" lon="3.30842">
        <ele>1389.815306</ele>
        <time>2021-07-09T13:35:38+0200</time>
      </trkpt>
      <trkpt lat="45.01717" lon="3.30847">
        <ele>1389.607274</ele>
        <time>2021-07-09T13:35:40+0200</time>
      </trkpt>
      <trkpt lat="45.01713" lon="3.3085">
        <ele>1389.433347</ele>
        <time>2021-07-09T13:35:42+0200</time>
      </trkpt>
      <trkpt lat="45.01709" lon="3.30855">
        <ele>1389.85045</ele>
        <time>2021-07-09T13:35:44+0200</time>
      </trkpt>
      <trkpt lat="45.01704" lon="3.30857">
        <ele>1389.842964</ele>
        <time>2021-07-09T13:35:46+0200</time>
      </trkpt>
      <trkpt lat="45.01699" lon="3.3086">
        <ele>1390.402541</ele>
        <time>2021-07-09T13:35:48+0200</time>
      </trkpt>
      <trkpt lat="45.01695" lon="3.30863">
        <ele>1390.821951</ele>
        <time>2021-07-09T13:35:50+0200</time>
      </trkpt>
      <trkpt lat="45.0169" lon="3.30867">
        <ele>1391.251444</ele>
        <time>2021-07-09T13:35:53+0200</time>
      </trkpt>
      <trkpt lat="45.01684" lon="3.30873">
        <ele>1391.788258</ele>
        <time>2021-07-09T13:35:56+0200</time>
      </trkpt>
      <trkpt lat="45.0168" lon="3.30877">
        <ele>1391.577617</ele>
        <time>2021-07-09T13:35:58+0200</time>
      </trkpt>
      <trkpt lat="45.01675" lon="3.30879">
        <ele>1391.483634</ele>
        <time>2021-07-09T13:36:00+0200</time>
      </trkpt>
      <trkpt lat="45.01671" lon="3.30881">
        <ele>1392.723747</ele>
        <time>2021-07-09T13:36:02+0200</time>
      </trkpt>
      <trkpt lat="45.01666" lon="3.30883">
        <ele>1392.912106</ele>
        <time>2021-07-09T13:36:04+0200</time>
      </trkpt>
      <trkpt lat="45.01659" lon="3.30886">
        <ele>1394.009406</ele>
        <time>2021-07-09T13:36:07+0200</time>
      </trkpt>
      <trkpt lat="45.01655" lon="3.30888">
        <ele>1394.191403</ele>
        <time>2021-07-09T13:36:09+0200</time>
      </trkpt>
      <trkpt lat="45.0165" lon="3.3089">
        <ele>1394.770858</ele>
        <time>2021-07-09T13:36:11+0200</time>
      </trkpt>
      <trkpt lat="45.01645" lon="3.30891">
        <ele>1395.309944</ele>
        <time>2021-07-09T13:36:13+0200</time>
      </trkpt>
      <trkpt lat="45.01639" lon="3.30893">
        <ele>1395.665457</ele>
        <time>2021-07-09T13:36:16+0200</time>
      </trkpt>
      <trkpt lat="45.01634" lon="3.30895">
        <ele>1395.80748</ele>
        <time>2021-07-09T13:36:18+0200</time>
      </trkpt>
      <trkpt lat="45.01629" lon="3.30896">
        <ele>1396.194647</ele>
        <time>2021-07-09T13:36:20+0200</time>
      </trkpt>
      <trkpt lat="45.01624" lon="3.30897">
        <ele>1396.808032</ele>
        <time>2021-07-09T13:36:22+0200</time>
      </trkpt>
      <trkpt lat="45.01619" lon="3.30897">
        <ele>1397.341202</ele>
        <time>2021-07-09T13:36:24+0200</time>
      </trkpt>
      <trkpt lat="45.01614" lon="3.30899">
        <ele>1398.165623</ele>
        <time>2021-07-09T13:36:26+0200</time>
      </trkpt>
      <trkpt lat="45.01609" lon="3.309">
        <ele>1398.715066</ele>
        <time>2021-07-09T13:36:28+0200</time>
      </trkpt>
      <trkpt lat="45.01605" lon="3.30902">
        <ele>1398.594453</ele>
        <time>2021-07-09T13:36:30+0200</time>
      </trkpt>
      <trkpt lat="45.016" lon="3.30904">
        <ele>1399.285119</ele>
        <time>2021-07-09T13:36:32+0200</time>
      </trkpt>
      <trkpt lat="45.01595" lon="3.30906">
        <ele>1399.623388</ele>
        <time>2021-07-09T13:36:34+0200</time>
      </trkpt>
      <trkpt lat="45.0159" lon="3.30909">
        <ele>1400.173865</ele>
        <time>2021-07-09T13:36:36+0200</time>
      </trkpt>
      <trkpt lat="45.01586" lon="3.30912">
        <ele>1400.539235</ele>
        <time>2021-07-09T13:36:38+0200</time>
      </trkpt>
      <trkpt lat="45.0158" lon="3.30916">
        <ele>1401.348625</ele>
        <time>2021-07-09T13:36:41+0200</time>
      </trkpt>
      <trkpt lat="45.01576" lon="3.30919">
        <ele>1401.788977</ele>
        <time>2021-07-09T13:36:43+0200</time>
      </trkpt>
      <trkpt lat="45.01571" lon="3.30922">
        <ele>1401.90757</ele>
        <time>2021-07-09T13:36:45+0200</time>
      </trkpt>
      <trkpt lat="45.01567" lon="3.30926">
        <ele>1401.881495</ele>
        <time>2021-07-09T13:36:47+0200</time>
      </trkpt>
      <trkpt lat="45.01562" lon="3.30929">
        <ele>1402.056861</ele>
        <time>2021-07-09T13:36:49+0200</time>
      </trkpt>
      <trkpt lat="45.01558" lon="3.30933">
        <ele>1401.976206</ele>
        <time>2021-07-09T13:36:51+0200</time>
      </trkpt>
      <trkpt lat="45.01553" lon="3.30936">
        <ele>1402.344899</ele>
        <time>2021-07-09T13:36:53+0200</time>
      </trkpt>
      <trkpt lat="45.01547" lon="3.3094">
        <ele>1402.615803</ele>
        <time>2021-07-09T13:36:55+0200</time>
      </trkpt>
      <trkpt lat="45.01542" lon="3.30943">
        <ele>1402.484005</ele>
        <time>2021-07-09T13:36:57+0200</time>
      </trkpt>
      <trkpt lat="45.01536" lon="3.30946">
        <ele>1402.825453</ele>
        <time>2021-07-09T13:36:59+0200</time>
      </trkpt>
      <trkpt lat="45.01532" lon="3.30949">
        <ele>1402.955954</ele>
        <time>2021-07-09T13:37:01+0200</time>
      </trkpt>
      <trkpt lat="45.01527" lon="3.30952">
        <ele>1403.183246</ele>
        <time>2021-07-09T13:37:03+0200</time>
      </trkpt>
      <trkpt lat="45.01521" lon="3.30955">
        <ele>1403.328852</ele>
        <time>2021-07-09T13:37:05+0200</time>
      </trkpt>
      <trkpt lat="45.01516" lon="3.30958">
        <ele>1404.151176</ele>
        <time>2021-07-09T13:37:07+0200</time>
      </trkpt>
      <trkpt lat="45.01511" lon="3.30961">
        <ele>1404.187239</ele>
        <time>2021-07-09T13:37:09+0200</time>
      </trkpt>
      <trkpt lat="45.01506" lon="3.30964">
        <ele>1404.523324</ele>
        <time>2021-07-09T13:37:11+0200</time>
      </trkpt>
      <trkpt lat="45.015" lon="3.30967">
        <ele>1405.357193</ele>
        <time>2021-07-09T13:37:13+0200</time>
      </trkpt>
      <trkpt lat="45.01495" lon="3.30969">
        <ele>1405.976442</ele>
        <time>2021-07-09T13:37:15+0200</time>
      </trkpt>
      <trkpt lat="45.0149" lon="3.30972">
        <ele>1406.366151</ele>
        <time>2021-07-09T13:37:17+0200</time>
      </trkpt>
      <trkpt lat="45.01484" lon="3.30976">
        <ele>1406.414487</ele>
        <time>2021-07-09T13:37:19+0200</time>
      </trkpt>
      <trkpt lat="45.01479" lon="3.3098">
        <ele>1406.287868</ele>
        <time>2021-07-09T13:37:21+0200</time>
      </trkpt>
      <trkpt lat="45.01472" lon="3.30982">
        <ele>1406.546553</ele>
        <time>2021-07-09T13:37:23+0200</time>
      </trkpt>
      <trkpt lat="45.01466" lon="3.30986">
        <ele>1406.617018</ele>
        <time>2021-07-09T13:37:25+0200</time>
      </trkpt>
      <trkpt lat="45.0146" lon="3.30989">
        <ele>1406.641843</ele>
        <time>2021-07-09T13:37:27+0200</time>
      </trkpt>
      <trkpt lat="45.01455" lon="3.30991">
        <ele>1406.881961</ele>
        <time>2021-07-09T13:37:29+0200</time>
      </trkpt>
      <trkpt lat="45.01449" lon="3.30993">
        <ele>1407.603282</ele>
        <time>2021-07-09T13:37:31+0200</time>
      </trkpt>
      <trkpt lat="45.01443" lon="3.30996">
        <ele>1407.997062</ele>
        <time>2021-07-09T13:37:33+0200</time>
      </trkpt>
      <trkpt lat="45.01437" lon="3.31">
        <ele>1407.782534</ele>
        <time>2021-07-09T13:37:35+0200</time>
      </trkpt>
      <trkpt lat="45.01431" lon="3.31004">
        <ele>1408.162988</ele>
        <time>2021-07-09T13:37:37+0200</time>
      </trkpt>
      <trkpt lat="45.01424" lon="3.31008">
        <ele>1408.276572</ele>
        <time>2021-07-09T13:37:39+0200</time>
      </trkpt>
      <trkpt lat="45.01419" lon="3.31013">
        <ele>1408.303575</ele>
        <time>2021-07-09T13:37:41+0200</time>
      </trkpt>
      <trkpt lat="45.01413" lon="3.31017">
        <ele>1408.770845</ele>
        <time>2021-07-09T13:37:43+0200</time>
      </trkpt>
      <trkpt lat="45.01406" lon="3.31022">
        <ele>1409.175706</ele>
        <time>2021-07-09T13:37:45+0200</time>
      </trkpt>
      <trkpt lat="45.014" lon="3.31026">
        <ele>1409.186458</ele>
        <time>2021-07-09T13:37:47+0200</time>
      </trkpt>
      <trkpt lat="45.01394" lon="3.31032">
        <ele>1409.139858</ele>
        <time>2021-07-09T13:37:49+0200</time>
      </trkpt>
      <trkpt lat="45.01387" lon="3.31036">
        <ele>1408.997994</ele>
        <time>2021-07-09T13:37:51+0200</time>
      </trkpt>
      <trkpt lat="45.0138" lon="3.31042">
        <ele>1408.906813</ele>
        <time>2021-07-09T13:37:53+0200</time>
      </trkpt>
      <trkpt lat="45.01373" lon="3.31047">
        <ele>1409.140552</ele>
        <time>2021-07-09T13:37:55+0200</time>
      </trkpt>
      <trkpt lat="45.01367" lon="3.31053">
        <ele>1409.63948</ele>
        <time>2021-07-09T13:37:57+0200</time>
      </trkpt>
      <trkpt lat="45.0136" lon="3.31059">
        <ele>1409.651851</ele>
        <time>2021-07-09T13:37:59+0200</time>
      </trkpt>
      <trkpt lat="45.01353" lon="3.31066">
        <ele>1409.877616</ele>
        <time>2021-07-09T13:38:01+0200</time>
      </trkpt>
      <trkpt lat="45.01349" lon="3.31069">
        <ele>1410.073941</ele>
        <time>2021-07-09T13:38:02+0200</time>
      </trkpt>
      <trkpt lat="45.01342" lon="3.31076">
        <ele>1410.434136</ele>
        <time>2021-07-09T13:38:04+0200</time>
      </trkpt>
      <trkpt lat="45.01334" lon="3.3108">
        <ele>1410.153918</ele>
        <time>2021-07-09T13:38:06+0200</time>
      </trkpt>
      <trkpt lat="45.0133" lon="3.31083">
        <ele>1410.257198</ele>
        <time>2021-07-09T13:38:07+0200</time>
      </trkpt>
      <trkpt lat="45.01322" lon="3.31088">
        <ele>1410.053474</ele>
        <time>2021-07-09T13:38:09+0200</time>
      </trkpt>
      <trkpt lat="45.01315" lon="3.31092">
        <ele>1409.764279</ele>
        <time>2021-07-09T13:38:11+0200</time>
      </trkpt>
      <trkpt lat="45.01309" lon="3.31101">
        <ele>1410.008754</ele>
        <time>2021-07-09T13:38:13+0200</time>
      </trkpt>
      <trkpt lat="45.01307" lon="3.31107">
        <ele>1409.905422</ele>
        <time>2021-07-09T13:38:14+0200</time>
      </trkpt>
      <trkpt lat="45.01302" lon="3.31114">
        <ele>1410.105998</ele>
        <time>2021-07-09T13:38:16+0200</time>
      </trkpt>
      <trkpt lat="45.01296" lon="3.3112">
        <ele>1410.640579</ele>
        <time>2021-07-09T13:38:18+0200</time>
      </trkpt>
      <trkpt lat="45.01292" lon="3.31128">
        <ele>1410.854113</ele>
        <time>2021-07-09T13:38:20+0200</time>
      </trkpt>
      <trkpt lat="45.01286" lon="3.31136">
        <ele>1410.901517</ele>
        <time>2021-07-09T13:38:22+0200</time>
      </trkpt>
      <trkpt lat="45.01281" lon="3.31145">
        <ele>1410.785764</ele>
        <time>2021-07-09T13:38:24+0200</time>
      </trkpt>
      <trkpt lat="45.01276" lon="3.31154">
        <ele>1410.905846</ele>
        <time>2021-07-09T13:38:26+0200</time>
      </trkpt>
      <trkpt lat="45.01272" lon="3.31162">
        <ele>1411.254342</ele>
        <time>2021-07-09T13:38:28+0200</time>
      </trkpt>
      <trkpt lat="45.01268" lon="3.31171">
        <ele>1411.180698</ele>
        <time>2021-07-09T13:38:30+0200</time>
      </trkpt>
      <trkpt lat="45.01265" lon="3.31181">
        <ele>1412.061927</ele>
        <time>2021-07-09T13:38:32+0200</time>
      </trkpt>
      <trkpt lat="45.01263" lon="3.3119">
        <ele>1411.897439</ele>
        <time>2021-07-09T13:38:34+0200</time>
      </trkpt>
      <trkpt lat="45.01259" lon="3.312">
        <ele>1411.998532</ele>
        <time>2021-07-09T13:38:36+0200</time>
      </trkpt>
      <trkpt lat="45.01256" lon="3.3121">
        <ele>1412.436564</ele>
        <time>2021-07-09T13:38:38+0200</time>
      </trkpt>
      <trkpt lat="45.01254" lon="3.31219">
        <ele>1412.652868</ele>
        <time>2021-07-09T13:38:40+0200</time>
      </trkpt>
      <trkpt lat="45.01252" lon="3.31228">
        <ele>1412.574597</ele>
        <time>2021-07-09T13:38:42+0200</time>
      </trkpt>
      <trkpt lat="45.01249" lon="3.31237">
        <ele>1413.161839</ele>
        <time>2021-07-09T13:38:44+0200</time>
      </trkpt>
      <trkpt lat="45.01247" lon="3.31246">
        <ele>1413.533766</ele>
        <time>2021-07-09T13:38:46+0200</time>
      </trkpt>
      <trkpt lat="45.01245" lon="3.31256">
        <ele>1414.114251</ele>
        <time>2021-07-09T13:38:48+0200</time>
      </trkpt>
      <trkpt lat="45.01244" lon="3.31266">
        <ele>1414.950072</ele>
        <time>2021-07-09T13:38:50+0200</time>
      </trkpt>
      <trkpt lat="45.01242" lon="3.31274">
        <ele>1415.146979</ele>
        <time>2021-07-09T13:38:52+0200</time>
      </trkpt>
      <trkpt lat="45.01242" lon="3.31281">
        <ele>1414.635436</ele>
        <time>2021-07-09T13:38:54+0200</time>
      </trkpt>
      <trkpt lat="45.0124" lon="3.31289">
        <ele>1414.66206</ele>
        <time>2021-07-09T13:38:56+0200</time>
      </trkpt>
      <trkpt lat="45.01238" lon="3.31299">
        <ele>1415.474259</ele>
        <time>2021-07-09T13:38:58+0200</time>
      </trkpt>
      <trkpt lat="45.01237" lon="3.31305">
        <ele>1416.000625</ele>
        <time>2021-07-09T13:38:59+0200</time>
      </trkpt>
      <trkpt lat="45.01236" lon="3.31315">
        <ele>1416.607438</ele>
        <time>2021-07-09T13:39:01+0200</time>
      </trkpt>
      <trkpt lat="45.01234" lon="3.31324">
        <ele>1417.448201</ele>
        <time>2021-07-09T13:39:03+0200</time>
      </trkpt>
      <trkpt lat="45.01232" lon="3.31334">
        <ele>1417.477179</ele>
        <time>2021-07-09T13:39:05+0200</time>
      </trkpt>
      <trkpt lat="45.0123" lon="3.31343">
        <ele>1417.713478</ele>
        <time>2021-07-09T13:39:07+0200</time>
      </trkpt>
      <trkpt lat="45.01227" lon="3.31352">
        <ele>1418.021141</ele>
        <time>2021-07-09T13:39:09+0200</time>
      </trkpt>
      <trkpt lat="45.01225" lon="3.3136">
        <ele>1418.660162</ele>
        <time>2021-07-09T13:39:11+0200</time>
      </trkpt>
      <trkpt lat="45.01222" lon="3.31369">
        <ele>1418.756465</ele>
        <time>2021-07-09T13:39:13+0200</time>
      </trkpt>
      <trkpt lat="45.0122" lon="3.31378">
        <ele>1418.86999</ele>
        <time>2021-07-09T13:39:15+0200</time>
      </trkpt>
      <trkpt lat="45.01217" lon="3.31387">
        <ele>1418.92562</ele>
        <time>2021-07-09T13:39:17+0200</time>
      </trkpt>
      <trkpt lat="45.01214" lon="3.31396">
        <ele>1419.438563</ele>
        <time>2021-07-09T13:39:19+0200</time>
      </trkpt>
      <trkpt lat="45.01211" lon="3.31406">
        <ele>1419.430035</ele>
        <time>2021-07-09T13:39:21+0200</time>
      </trkpt>
      <trkpt lat="45.01208" lon="3.31416">
        <ele>1419.497719</ele>
        <time>2021-07-09T13:39:23+0200</time>
      </trkpt>
      <trkpt lat="45.01205" lon="3.31425">
        <ele>1419.485889</ele>
        <time>2021-07-09T13:39:25+0200</time>
      </trkpt>
      <trkpt lat="45.01202" lon="3.31434">
        <ele>1419.403421</ele>
        <time>2021-07-09T13:39:27+0200</time>
      </trkpt>
      <trkpt lat="45.01198" lon="3.31444">
        <ele>1419.93189</ele>
        <time>2021-07-09T13:39:29+0200</time>
      </trkpt>
      <trkpt lat="45.01197" lon="3.31455">
        <ele>1420.297099</ele>
        <time>2021-07-09T13:39:31+0200</time>
      </trkpt>
      <trkpt lat="45.01196" lon="3.31462">
        <ele>1420.617839</ele>
        <time>2021-07-09T13:39:32+0200</time>
      </trkpt>
      <trkpt lat="45.01193" lon="3.31472">
        <ele>1420.873005</ele>
        <time>2021-07-09T13:39:34+0200</time>
      </trkpt>
      <trkpt lat="45.01191" lon="3.31482">
        <ele>1421.234861</ele>
        <time>2021-07-09T13:39:36+0200</time>
      </trkpt>
      <trkpt lat="45.01188" lon="3.31487">
        <ele>1421.284559</ele>
        <time>2021-07-09T13:39:37+0200</time>
      </trkpt>
      <trkpt lat="45.01183" lon="3.31495">
        <ele>1421.451944</ele>
        <time>2021-07-09T13:39:39+0200</time>
      </trkpt>
      <trkpt lat="45.01182" lon="3.31506">
        <ele>1420.945439</ele>
        <time>2021-07-09T13:39:41+0200</time>
      </trkpt>
      <trkpt lat="45.0118" lon="3.31516">
        <ele>1420.564246</ele>
        <time>2021-07-09T13:39:43+0200</time>
      </trkpt>
      <trkpt lat="45.01177" lon="3.31528">
        <ele>1420.476697</ele>
        <time>2021-07-09T13:39:45+0200</time>
      </trkpt>
      <trkpt lat="45.01175" lon="3.31539">
        <ele>1420.578446</ele>
        <time>2021-07-09T13:39:47+0200</time>
      </trkpt>
      <trkpt lat="45.01172" lon="3.31544">
        <ele>1420.520975</ele>
        <time>2021-07-09T13:39:48+0200</time>
      </trkpt>
      <trkpt lat="45.01171" lon="3.31551">
        <ele>1420.757643</ele>
        <time>2021-07-09T13:39:49+0200</time>
      </trkpt>
      <trkpt lat="45.01169" lon="3.31563">
        <ele>1420.715103</ele>
        <time>2021-07-09T13:39:51+0200</time>
      </trkpt>
      <trkpt lat="45.01168" lon="3.31569">
        <ele>1420.603176</ele>
        <time>2021-07-09T13:39:52+0200</time>
      </trkpt>
      <trkpt lat="45.01165" lon="3.31576">
        <ele>1420.259635</ele>
        <time>2021-07-09T13:39:53+0200</time>
      </trkpt>
      <trkpt lat="45.01163" lon="3.31582">
        <ele>1419.83983</ele>
        <time>2021-07-09T13:39:54+0200</time>
      </trkpt>
      <trkpt lat="45.01162" lon="3.31589">
        <ele>1419.681187</ele>
        <time>2021-07-09T13:39:55+0200</time>
      </trkpt>
      <trkpt lat="45.01161" lon="3.31596">
        <ele>1419.730077</ele>
        <time>2021-07-09T13:39:56+0200</time>
      </trkpt>
      <trkpt lat="45.01158" lon="3.31602">
        <ele>1419.744389</ele>
        <time>2021-07-09T13:39:57+0200</time>
      </trkpt>
      <trkpt lat="45.01156" lon="3.31608">
        <ele>1419.807386</ele>
        <time>2021-07-09T13:39:58+0200</time>
      </trkpt>
      <trkpt lat="45.01153" lon="3.31615">
        <ele>1419.682258</ele>
        <time>2021-07-09T13:39:59+0200</time>
      </trkpt>
      <trkpt lat="45.01151" lon="3.31622">
        <ele>1419.668014</ele>
        <time>2021-07-09T13:40:00+0200</time>
      </trkpt>
      <trkpt lat="45.01149" lon="3.31629">
        <ele>1419.424143</ele>
        <time>2021-07-09T13:40:01+0200</time>
      </trkpt>
      <trkpt lat="45.01146" lon="3.31636">
        <ele>1419.539987</ele>
        <time>2021-07-09T13:40:02+0200</time>
      </trkpt>
      <trkpt lat="45.01144" lon="3.31643">
        <ele>1419.297229</ele>
        <time>2021-07-09T13:40:03+0200</time>
      </trkpt>
      <trkpt lat="45.01142" lon="3.31651">
        <ele>1419.16309</ele>
        <time>2021-07-09T13:40:04+0200</time>
      </trkpt>
      <trkpt lat="45.0114" lon="3.31658">
        <ele>1418.910403</ele>
        <time>2021-07-09T13:40:05+0200</time>
      </trkpt>
      <trkpt lat="45.01138" lon="3.31666">
        <ele>1418.510643</ele>
        <time>2021-07-09T13:40:06+0200</time>
      </trkpt>
      <trkpt lat="45.01135" lon="3.31674">
        <ele>1418.160788</ele>
        <time>2021-07-09T13:40:07+0200</time>
      </trkpt>
      <trkpt lat="45.01133" lon="3.31682">
        <ele>1417.863033</ele>
        <time>2021-07-09T13:40:08+0200</time>
      </trkpt>
      <trkpt lat="45.01132" lon="3.3169">
        <ele>1417.498023</ele>
        <time>2021-07-09T13:40:09+0200</time>
      </trkpt>
      <trkpt lat="45.0113" lon="3.31698">
        <ele>1417.574408</ele>
        <time>2021-07-09T13:40:10+0200</time>
      </trkpt>
      <trkpt lat="45.01127" lon="3.31706">
        <ele>1417.332457</ele>
        <time>2021-07-09T13:40:11+0200</time>
      </trkpt>
      <trkpt lat="45.01126" lon="3.31715">
        <ele>1417.564224</ele>
        <time>2021-07-09T13:40:12+0200</time>
      </trkpt>
      <trkpt lat="45.01125" lon="3.31723">
        <ele>1417.279477</ele>
        <time>2021-07-09T13:40:13+0200</time>
      </trkpt>
      <trkpt lat="45.01121" lon="3.3173">
        <ele>1418.29199</ele>
        <time>2021-07-09T13:40:14+0200</time>
      </trkpt>
      <trkpt lat="45.0112" lon="3.31736">
        <ele>1418.385143</ele>
        <time>2021-07-09T13:40:15+0200</time>
      </trkpt>
      <trkpt lat="45.0112" lon="3.31744">
        <ele>1418.462908</ele>
        <time>2021-07-09T13:40:16+0200</time>
      </trkpt>
      <trkpt lat="45.0112" lon="3.31751">
        <ele>1418.200169</ele>
        <time>2021-07-09T13:40:17+0200</time>
      </trkpt>
      <trkpt lat="45.01118" lon="3.31757">
        <ele>1418.532379</ele>
        <time>2021-07-09T13:40:18+0200</time>
      </trkpt>
      <trkpt lat="45.01115" lon="3.31764">
        <ele>1418.049302</ele>
        <time>2021-07-09T13:40:19+0200</time>
      </trkpt>
      <trkpt lat="45.01112" lon="3.31771">
        <ele>1417.825577</ele>
        <time>2021-07-09T13:40:20+0200</time>
      </trkpt>
      <trkpt lat="45.01111" lon="3.31777">
        <ele>1418.257269</ele>
        <time>2021-07-09T13:40:21+0200</time>
      </trkpt>
      <trkpt lat="45.01109" lon="3.31789">
        <ele>1418.51983</ele>
        <time>2021-07-09T13:40:23+0200</time>
      </trkpt>
      <trkpt lat="45.01106" lon="3.31801">
        <ele>1418.705463</ele>
        <time>2021-07-09T13:40:25+0200</time>
      </trkpt>
      <trkpt lat="45.01103" lon="3.31812">
        <ele>1419.329648</ele>
        <time>2021-07-09T13:40:27+0200</time>
      </trkpt>
      <trkpt lat="45.01102" lon="3.31824">
        <ele>1418.807002</ele>
        <time>2021-07-09T13:40:29+0200</time>
      </trkpt>
      <trkpt lat="45.01101" lon="3.31835">
        <ele>1418.652141</ele>
        <time>2021-07-09T13:40:31+0200</time>
      </trkpt>
      <trkpt lat="45.01098" lon="3.31847">
        <ele>1418.949328</ele>
        <time>2021-07-09T13:40:33+0200</time>
      </trkpt>
      <trkpt lat="45.01096" lon="3.31854">
        <ele>1419.092026</ele>
        <time>2021-07-09T13:40:34+0200</time>
      </trkpt>
      <trkpt lat="45.01095" lon="3.31861">
        <ele>1419.164112</ele>
        <time>2021-07-09T13:40:35+0200</time>
      </trkpt>
      <trkpt lat="45.01093" lon="3.31867">
        <ele>1419.100417</ele>
        <time>2021-07-09T13:40:36+0200</time>
      </trkpt>
      <trkpt lat="45.0109" lon="3.31879">
        <ele>1419.218045</ele>
        <time>2021-07-09T13:40:38+0200</time>
      </trkpt>
      <trkpt lat="45.01088" lon="3.31891">
        <ele>1419.558799</ele>
        <time>2021-07-09T13:40:40+0200</time>
      </trkpt>
      <trkpt lat="45.01087" lon="3.31897">
        <ele>1419.669045</ele>
        <time>2021-07-09T13:40:41+0200</time>
      </trkpt>
      <trkpt lat="45.01084" lon="3.31909">
        <ele>1419.957512</ele>
        <time>2021-07-09T13:40:43+0200</time>
      </trkpt>
      <trkpt lat="45.01081" lon="3.3192">
        <ele>1420.201415</ele>
        <time>2021-07-09T13:40:45+0200</time>
      </trkpt>
      <trkpt lat="45.01077" lon="3.31932">
        <ele>1420.21509</ele>
        <time>2021-07-09T13:40:47+0200</time>
      </trkpt>
      <trkpt lat="45.01076" lon="3.31938">
        <ele>1420.247954</ele>
        <time>2021-07-09T13:40:48+0200</time>
      </trkpt>
      <trkpt lat="45.01074" lon="3.31945">
        <ele>1420.656966</ele>
        <time>2021-07-09T13:40:49+0200</time>
      </trkpt>
      <trkpt lat="45.01072" lon="3.31951">
        <ele>1420.813961</ele>
        <time>2021-07-09T13:40:50+0200</time>
      </trkpt>
      <trkpt lat="45.01071" lon="3.31958">
        <ele>1420.838384</ele>
        <time>2021-07-09T13:40:51+0200</time>
      </trkpt>
      <trkpt lat="45.0107" lon="3.31964">
        <ele>1420.591359</ele>
        <time>2021-07-09T13:40:52+0200</time>
      </trkpt>
      <trkpt lat="45.01067" lon="3.31976">
        <ele>1420.853388</ele>
        <time>2021-07-09T13:40:54+0200</time>
      </trkpt>
      <trkpt lat="45.01066" lon="3.31983">
        <ele>1420.742523</ele>
        <time>2021-07-09T13:40:55+0200</time>
      </trkpt>
      <trkpt lat="45.01065" lon="3.31989">
        <ele>1420.781645</ele>
        <time>2021-07-09T13:40:56+0200</time>
      </trkpt>
      <trkpt lat="45.01063" lon="3.31995">
        <ele>1420.863048</ele>
        <time>2021-07-09T13:40:57+0200</time>
      </trkpt>
      <trkpt lat="45.01062" lon="3.32001">
        <ele>1420.706667</ele>
        <time>2021-07-09T13:40:58+0200</time>
      </trkpt>
      <trkpt lat="45.0106" lon="3.32008">
        <ele>1420.750662</ele>
        <time>2021-07-09T13:40:59+0200</time>
      </trkpt>
      <trkpt lat="45.01059" lon="3.32014">
        <ele>1420.631771</ele>
        <time>2021-07-09T13:41:00+0200</time>
      </trkpt>
      <trkpt lat="45.01055" lon="3.32025">
        <ele>1420.863029</ele>
        <time>2021-07-09T13:41:02+0200</time>
      </trkpt>
      <trkpt lat="45.01053" lon="3.32037">
        <ele>1420.854933</ele>
        <time>2021-07-09T13:41:04+0200</time>
      </trkpt>
      <trkpt lat="45.01052" lon="3.32043">
        <ele>1420.986149</ele>
        <time>2021-07-09T13:41:05+0200</time>
      </trkpt>
      <trkpt lat="45.0105" lon="3.32056">
        <ele>1420.848421</ele>
        <time>2021-07-09T13:41:07+0200</time>
      </trkpt>
      <trkpt lat="45.01048" lon="3.32067">
        <ele>1421.182971</ele>
        <time>2021-07-09T13:41:09+0200</time>
      </trkpt>
      <trkpt lat="45.01048" lon="3.32079">
        <ele>1421.656552</ele>
        <time>2021-07-09T13:41:11+0200</time>
      </trkpt>
      <trkpt lat="45.01047" lon="3.3209">
        <ele>1422.141007</ele>
        <time>2021-07-09T13:41:13+0200</time>
      </trkpt>
      <trkpt lat="45.01046" lon="3.321">
        <ele>1422.38853</ele>
        <time>2021-07-09T13:41:15+0200</time>
      </trkpt>
      <trkpt lat="45.01044" lon="3.32109">
        <ele>1422.883248</ele>
        <time>2021-07-09T13:41:17+0200</time>
      </trkpt>
      <trkpt lat="45.01044" lon="3.32119">
        <ele>1423.054229</ele>
        <time>2021-07-09T13:41:19+0200</time>
      </trkpt>
      <trkpt lat="45.01043" lon="3.32128">
        <ele>1423.428483</ele>
        <time>2021-07-09T13:41:21+0200</time>
      </trkpt>
      <trkpt lat="45.01042" lon="3.32136">
        <ele>1424.145901</ele>
        <time>2021-07-09T13:41:23+0200</time>
      </trkpt>
      <trkpt lat="45.01042" lon="3.32144">
        <ele>1424.485055</ele>
        <time>2021-07-09T13:41:25+0200</time>
      </trkpt>
      <trkpt lat="45.01041" lon="3.32152">
        <ele>1424.843775</ele>
        <time>2021-07-09T13:41:27+0200</time>
      </trkpt>
      <trkpt lat="45.0104" lon="3.32159">
        <ele>1424.605502</ele>
        <time>2021-07-09T13:41:29+0200</time>
      </trkpt>
      <trkpt lat="45.01039" lon="3.32167">
        <ele>1424.732649</ele>
        <time>2021-07-09T13:41:31+0200</time>
      </trkpt>
      <trkpt lat="45.01039" lon="3.32175">
        <ele>1424.895431</ele>
        <time>2021-07-09T13:41:33+0200</time>
      </trkpt>
      <trkpt lat="45.01038" lon="3.32182">
        <ele>1425.319251</ele>
        <time>2021-07-09T13:41:35+0200</time>
      </trkpt>
      <trkpt lat="45.01036" lon="3.32189">
        <ele>1425.530894</ele>
        <time>2021-07-09T13:41:37+0200</time>
      </trkpt>
      <trkpt lat="45.01035" lon="3.32198">
        <ele>1425.692046</ele>
        <time>2021-07-09T13:41:39+0200</time>
      </trkpt>
      <trkpt lat="45.01034" lon="3.32205">
        <ele>1426.384795</ele>
        <time>2021-07-09T13:41:41+0200</time>
      </trkpt>
      <trkpt lat="45.01033" lon="3.32212">
        <ele>1426.694196</ele>
        <time>2021-07-09T13:41:43+0200</time>
      </trkpt>
      <trkpt lat="45.01032" lon="3.3222">
        <ele>1427.157777</ele>
        <time>2021-07-09T13:41:45+0200</time>
      </trkpt>
      <trkpt lat="45.01031" lon="3.32227">
        <ele>1427.834051</ele>
        <time>2021-07-09T13:41:47+0200</time>
      </trkpt>
      <trkpt lat="45.0103" lon="3.32235">
        <ele>1428.348488</ele>
        <time>2021-07-09T13:41:49+0200</time>
      </trkpt>
      <trkpt lat="45.01029" lon="3.32242">
        <ele>1428.748863</ele>
        <time>2021-07-09T13:41:51+0200</time>
      </trkpt>
      <trkpt lat="45.01027" lon="3.32248">
        <ele>1429.314465</ele>
        <time>2021-07-09T13:41:53+0200</time>
      </trkpt>
      <trkpt lat="45.01027" lon="3.32255">
        <ele>1428.682966</ele>
        <time>2021-07-09T13:41:55+0200</time>
      </trkpt>
      <trkpt lat="45.01025" lon="3.32262">
        <ele>1429.449129</ele>
        <time>2021-07-09T13:41:57+0200</time>
      </trkpt>
      <trkpt lat="45.01023" lon="3.32269">
        <ele>1429.828556</ele>
        <time>2021-07-09T13:41:59+0200</time>
      </trkpt>
      <trkpt lat="45.01021" lon="3.32276">
        <ele>1430.735654</ele>
        <time>2021-07-09T13:42:01+0200</time>
      </trkpt>
      <trkpt lat="45.01019" lon="3.32283">
        <ele>1431.124242</ele>
        <time>2021-07-09T13:42:03+0200</time>
      </trkpt>
      <trkpt lat="45.01017" lon="3.3229">
        <ele>1431.215137</ele>
        <time>2021-07-09T13:42:05+0200</time>
      </trkpt>
      <trkpt lat="45.01016" lon="3.32298">
        <ele>1431.459671</ele>
        <time>2021-07-09T13:42:07+0200</time>
      </trkpt>
      <trkpt lat="45.01016" lon="3.32307">
        <ele>1431.912814</ele>
        <time>2021-07-09T13:42:09+0200</time>
      </trkpt>
      <trkpt lat="45.01015" lon="3.32316">
        <ele>1432.120079</ele>
        <time>2021-07-09T13:42:11+0200</time>
      </trkpt>
      <trkpt lat="45.01014" lon="3.32324">
        <ele>1432.377786</ele>
        <time>2021-07-09T13:42:13+0200</time>
      </trkpt>
      <trkpt lat="45.01012" lon="3.32333">
        <ele>1432.590852</ele>
        <time>2021-07-09T13:42:15+0200</time>
      </trkpt>
      <trkpt lat="45.01012" lon="3.32342">
        <ele>1432.906817</ele>
        <time>2021-07-09T13:42:17+0200</time>
      </trkpt>
      <trkpt lat="45.01011" lon="3.32352">
        <ele>1433.221579</ele>
        <time>2021-07-09T13:42:19+0200</time>
      </trkpt>
      <trkpt lat="45.0101" lon="3.32359">
        <ele>1433.423757</ele>
        <time>2021-07-09T13:42:21+0200</time>
      </trkpt>
      <trkpt lat="45.01009" lon="3.32366">
        <ele>1433.871252</ele>
        <time>2021-07-09T13:42:23+0200</time>
      </trkpt>
      <trkpt lat="45.01008" lon="3.32374">
        <ele>1433.750615</ele>
        <time>2021-07-09T13:42:25+0200</time>
      </trkpt>
      <trkpt lat="45.01007" lon="3.32382">
        <ele>1434.212992</ele>
        <time>2021-07-09T13:42:27+0200</time>
      </trkpt>
      <trkpt lat="45.01006" lon="3.3239">
        <ele>1434.22443</ele>
        <time>2021-07-09T13:42:29+0200</time>
      </trkpt>
      <trkpt lat="45.01005" lon="3.32396">
        <ele>1434.399435</ele>
        <time>2021-07-09T13:42:31+0200</time>
      </trkpt>
      <trkpt lat="45.01003" lon="3.32404">
        <ele>1434.425265</ele>
        <time>2021-07-09T13:42:34+0200</time>
      </trkpt>
      <trkpt lat="45.01003" lon="3.32411">
        <ele>1433.800356</ele>
        <time>2021-07-09T13:45:18+0200</time>
      </trkpt>
      <trkpt lat="45.01" lon="3.32417">
        <ele>1432.767632</ele>
        <time>2021-07-09T13:46:29+0200</time>
      </trkpt>
      <trkpt lat="45.00998" lon="3.32424">
        <ele>1433.461872</ele>
        <time>2021-07-09T13:46:31+0200</time>
      </trkpt>
      <trkpt lat="45.00997" lon="3.32433">
        <ele>1433.807773</ele>
        <time>2021-07-09T13:46:33+0200</time>
      </trkpt>
      <trkpt lat="45.00995" lon="3.32441">
        <ele>1433.561829</ele>
        <time>2021-07-09T13:46:35+0200</time>
      </trkpt>
      <trkpt lat="45.00993" lon="3.3245">
        <ele>1432.922584</ele>
        <time>2021-07-09T13:46:37+0200</time>
      </trkpt>
      <trkpt lat="45.00987" lon="3.32459">
        <ele>1433.44149</ele>
        <time>2021-07-09T13:46:39+0200</time>
      </trkpt>
      <trkpt lat="45.00984" lon="3.32466">
        <ele>1433.47871</ele>
        <time>2021-07-09T13:46:41+0200</time>
      </trkpt>
      <trkpt lat="45.00983" lon="3.32474">
        <ele>1433.352623</ele>
        <time>2021-07-09T13:46:43+0200</time>
      </trkpt>
      <trkpt lat="45.00983" lon="3.32482">
        <ele>1432.933236</ele>
        <time>2021-07-09T13:46:47+0200</time>
      </trkpt>
      <trkpt lat="45.0098" lon="3.32491">
        <ele>1431.17698</ele>
        <time>2021-07-09T13:47:51+0200</time>
      </trkpt>
      <trkpt lat="45.00977" lon="3.32501">
        <ele>1430.664527</ele>
        <time>2021-07-09T13:47:54+0200</time>
      </trkpt>
      <trkpt lat="45.00973" lon="3.32511">
        <ele>1431.106399</ele>
        <time>2021-07-09T13:47:56+0200</time>
      </trkpt>
      <trkpt lat="45.00971" lon="3.32518">
        <ele>1430.429627</ele>
        <time>2021-07-09T13:47:57+0200</time>
      </trkpt>
      <trkpt lat="45.00968" lon="3.32524">
        <ele>1430.105685</ele>
        <time>2021-07-09T13:47:59+0200</time>
      </trkpt>
      <trkpt lat="45.00965" lon="3.32532">
        <ele>1429.245685</ele>
        <time>2021-07-09T13:48:00+0200</time>
      </trkpt>
      <trkpt lat="45.00961" lon="3.32539">
        <ele>1428.443542</ele>
        <time>2021-07-09T13:48:01+0200</time>
      </trkpt>
      <trkpt lat="45.00958" lon="3.32548">
        <ele>1428.137161</ele>
        <time>2021-07-09T13:48:02+0200</time>
      </trkpt>
      <trkpt lat="45.00955" lon="3.32556">
        <ele>1427.375375</ele>
        <time>2021-07-09T13:48:03+0200</time>
      </trkpt>
      <trkpt lat="45.00951" lon="3.32565">
        <ele>1427.012222</ele>
        <time>2021-07-09T13:48:04+0200</time>
      </trkpt>
      <trkpt lat="45.00947" lon="3.32575">
        <ele>1426.524633</ele>
        <time>2021-07-09T13:48:05+0200</time>
      </trkpt>
      <trkpt lat="45.00945" lon="3.32586">
        <ele>1425.461657</ele>
        <time>2021-07-09T13:48:06+0200</time>
      </trkpt>
      <trkpt lat="45.00941" lon="3.32596">
        <ele>1424.685125</ele>
        <time>2021-07-09T13:48:07+0200</time>
      </trkpt>
      <trkpt lat="45.00937" lon="3.32607">
        <ele>1424.330514</ele>
        <time>2021-07-09T13:48:08+0200</time>
      </trkpt>
      <trkpt lat="45.00932" lon="3.32618">
        <ele>1423.351526</ele>
        <time>2021-07-09T13:48:09+0200</time>
      </trkpt>
      <trkpt lat="45.00929" lon="3.32628">
        <ele>1422.395077</ele>
        <time>2021-07-09T13:48:10+0200</time>
      </trkpt>
      <trkpt lat="45.00926" lon="3.32639">
        <ele>1421.491059</ele>
        <time>2021-07-09T13:48:11+0200</time>
      </trkpt>
      <trkpt lat="45.00923" lon="3.3265">
        <ele>1420.338039</ele>
        <time>2021-07-09T13:48:12+0200</time>
      </trkpt>
      <trkpt lat="45.00919" lon="3.32661">
        <ele>1419.106083</ele>
        <time>2021-07-09T13:48:13+0200</time>
      </trkpt>
      <trkpt lat="45.00914" lon="3.32671">
        <ele>1417.414242</ele>
        <time>2021-07-09T13:48:14+0200</time>
      </trkpt>
      <trkpt lat="45.00909" lon="3.32683">
        <ele>1416.496609</ele>
        <time>2021-07-09T13:48:15+0200</time>
      </trkpt>
      <trkpt lat="45.00905" lon="3.32694">
        <ele>1416.131775</ele>
        <time>2021-07-09T13:48:16+0200</time>
      </trkpt>
      <trkpt lat="45.009" lon="3.32706">
        <ele>1415.927725</ele>
        <time>2021-07-09T13:48:17+0200</time>
      </trkpt>
      <trkpt lat="45.00896" lon="3.32717">
        <ele>1415.265681</ele>
        <time>2021-07-09T13:48:18+0200</time>
      </trkpt>
      <trkpt lat="45.00891" lon="3.3273">
        <ele>1414.343015</ele>
        <time>2021-07-09T13:48:19+0200</time>
      </trkpt>
      <trkpt lat="45.00887" lon="3.32742">
        <ele>1413.46808</ele>
        <time>2021-07-09T13:48:20+0200</time>
      </trkpt>
      <trkpt lat="45.00882" lon="3.32753">
        <ele>1412.874682</ele>
        <time>2021-07-09T13:48:21+0200</time>
      </trkpt>
      <trkpt lat="45.00877" lon="3.32765">
        <ele>1412.078991</ele>
        <time>2021-07-09T13:48:22+0200</time>
      </trkpt>
      <trkpt lat="45.00874" lon="3.32778">
        <ele>1411.745662</ele>
        <time>2021-07-09T13:48:23+0200</time>
      </trkpt>
      <trkpt lat="45.00869" lon="3.32791">
        <ele>1411.249918</ele>
        <time>2021-07-09T13:48:24+0200</time>
      </trkpt>
      <trkpt lat="45.00863" lon="3.32803">
        <ele>1411.544549</ele>
        <time>2021-07-09T13:48:25+0200</time>
      </trkpt>
      <trkpt lat="45.00859" lon="3.32815">
        <ele>1411.450841</ele>
        <time>2021-07-09T13:48:26+0200</time>
      </trkpt>
      <trkpt lat="45.00856" lon="3.32827">
        <ele>1410.484361</ele>
        <time>2021-07-09T13:48:27+0200</time>
      </trkpt>
      <trkpt lat="45.00852" lon="3.32836">
        <ele>1410.72751</ele>
        <time>2021-07-09T13:48:28+0200</time>
      </trkpt>
      <trkpt lat="45.00848" lon="3.32846">
        <ele>1411.65238</ele>
        <time>2021-07-09T13:48:29+0200</time>
      </trkpt>
      <trkpt lat="45.00843" lon="3.32856">
        <ele>1412.108904</ele>
        <time>2021-07-09T13:48:30+0200</time>
      </trkpt>
      <trkpt lat="45.00839" lon="3.32866">
        <ele>1411.809015</ele>
        <time>2021-07-09T13:48:31+0200</time>
      </trkpt>
      <trkpt lat="45.00836" lon="3.32875">
        <ele>1412.057691</ele>
        <time>2021-07-09T13:48:32+0200</time>
      </trkpt>
      <trkpt lat="45.00834" lon="3.32885">
        <ele>1412.40787</ele>
        <time>2021-07-09T13:48:33+0200</time>
      </trkpt>
      <trkpt lat="45.0083" lon="3.32894">
        <ele>1412.734108</ele>
        <time>2021-07-09T13:48:34+0200</time>
      </trkpt>
      <trkpt lat="45.00826" lon="3.32904">
        <ele>1412.060391</ele>
        <time>2021-07-09T13:48:35+0200</time>
      </trkpt>
      <trkpt lat="45.00822" lon="3.32913">
        <ele>1412.515132</ele>
        <time>2021-07-09T13:48:36+0200</time>
      </trkpt>
      <trkpt lat="45.00817" lon="3.32922">
        <ele>1412.146965</ele>
        <time>2021-07-09T13:48:37+0200</time>
      </trkpt>
      <trkpt lat="45.00814" lon="3.32932">
        <ele>1412.529106</ele>
        <time>2021-07-09T13:48:38+0200</time>
      </trkpt>
      <trkpt lat="45.00812" lon="3.32942">
        <ele>1414.252128</ele>
        <time>2021-07-09T13:48:39+0200</time>
      </trkpt>
      <trkpt lat="45.00809" lon="3.32952">
        <ele>1415.001313</ele>
        <time>2021-07-09T13:48:40+0200</time>
      </trkpt>
      <trkpt lat="45.00805" lon="3.32961">
        <ele>1414.390291</ele>
        <time>2021-07-09T13:48:41+0200</time>
      </trkpt>
      <trkpt lat="45.00801" lon="3.32972">
        <ele>1412.732171</ele>
        <time>2021-07-09T13:48:42+0200</time>
      </trkpt>
      <trkpt lat="45.00797" lon="3.32981">
        <ele>1411.970801</ele>
        <time>2021-07-09T13:48:43+0200</time>
      </trkpt>
      <trkpt lat="45.00794" lon="3.32991">
        <ele>1411.977163</ele>
        <time>2021-07-09T13:48:44+0200</time>
      </trkpt>
      <trkpt lat="45.00791" lon="3.33002">
        <ele>1411.701287</ele>
        <time>2021-07-09T13:48:45+0200</time>
      </trkpt>
      <trkpt lat="45.00788" lon="3.33013">
        <ele>1409.369688</ele>
        <time>2021-07-09T13:48:46+0200</time>
      </trkpt>
      <trkpt lat="45.00784" lon="3.33025">
        <ele>1409.594724</ele>
        <time>2021-07-09T13:48:47+0200</time>
      </trkpt>
      <trkpt lat="45.00784" lon="3.33035">
        <ele>1408.89972</ele>
        <time>2021-07-09T13:48:48+0200</time>
      </trkpt>
      <trkpt lat="45.00787" lon="3.33048">
        <ele>1407.375283</ele>
        <time>2021-07-09T13:48:49+0200</time>
      </trkpt>
      <trkpt lat="45.0079" lon="3.33059">
        <ele>1406.55322</ele>
        <time>2021-07-09T13:48:50+0200</time>
      </trkpt>
      <trkpt lat="45.00795" lon="3.33067">
        <ele>1406.339</ele>
        <time>2021-07-09T13:48:51+0200</time>
      </trkpt>
      <trkpt lat="45.00799" lon="3.33077">
        <ele>1405.282446</ele>
        <time>2021-07-09T13:48:52+0200</time>
      </trkpt>
      <trkpt lat="45.00803" lon="3.33089">
        <ele>1404.5502</ele>
        <time>2021-07-09T13:48:53+0200</time>
      </trkpt>
      <trkpt lat="45.00808" lon="3.33099">
        <ele>1403.53524</ele>
        <time>2021-07-09T13:48:54+0200</time>
      </trkpt>
      <trkpt lat="45.00815" lon="3.33112">
        <ele>1401.113307</ele>
        <time>2021-07-09T13:48:55+0200</time>
      </trkpt>
      <trkpt lat="45.00821" lon="3.33124">
        <ele>1400.074236</ele>
        <time>2021-07-09T13:48:56+0200</time>
      </trkpt>
      <trkpt lat="45.00827" lon="3.33135">
        <ele>1398.826592</ele>
        <time>2021-07-09T13:48:57+0200</time>
      </trkpt>
      <trkpt lat="45.00831" lon="3.33145">
        <ele>1398.140784</ele>
        <time>2021-07-09T13:48:58+0200</time>
      </trkpt>
      <trkpt lat="45.00838" lon="3.33156">
        <ele>1397.471055</ele>
        <time>2021-07-09T13:48:59+0200</time>
      </trkpt>
      <trkpt lat="45.00844" lon="3.33165">
        <ele>1395.153883</ele>
        <time>2021-07-09T13:49:00+0200</time>
      </trkpt>
      <trkpt lat="45.00853" lon="3.3317">
        <ele>1394.795548</ele>
        <time>2021-07-09T13:49:01+0200</time>
      </trkpt>
      <trkpt lat="45.00862" lon="3.33173">
        <ele>1394.399522</ele>
        <time>2021-07-09T13:49:02+0200</time>
      </trkpt>
      <trkpt lat="45.0087" lon="3.33176">
        <ele>1393.482334</ele>
        <time>2021-07-09T13:49:03+0200</time>
      </trkpt>
      <trkpt lat="45.00879" lon="3.33179">
        <ele>1392.308655</ele>
        <time>2021-07-09T13:49:04+0200</time>
      </trkpt>
      <trkpt lat="45.00887" lon="3.33185">
        <ele>1391.793512</ele>
        <time>2021-07-09T13:49:05+0200</time>
      </trkpt>
      <trkpt lat="45.00896" lon="3.33191">
        <ele>1391.596397</ele>
        <time>2021-07-09T13:49:06+0200</time>
      </trkpt>
      <trkpt lat="45.00905" lon="3.33194">
        <ele>1389.943095</ele>
        <time>2021-07-09T13:49:07+0200</time>
      </trkpt>
      <trkpt lat="45.00913" lon="3.332">
        <ele>1389.749119</ele>
        <time>2021-07-09T13:49:08+0200</time>
      </trkpt>
      <trkpt lat="45.00921" lon="3.33205">
        <ele>1389.385172</ele>
        <time>2021-07-09T13:49:09+0200</time>
      </trkpt>
      <trkpt lat="45.0093" lon="3.3321">
        <ele>1387.93772</ele>
        <time>2021-07-09T13:49:10+0200</time>
      </trkpt>
      <trkpt lat="45.00939" lon="3.33214">
        <ele>1386.545082</ele>
        <time>2021-07-09T13:49:11+0200</time>
      </trkpt>
      <trkpt lat="45.00949" lon="3.33219">
        <ele>1385.633937</ele>
        <time>2021-07-09T13:49:12+0200</time>
      </trkpt>
      <trkpt lat="45.00957" lon="3.33224">
        <ele>1384.781336</ele>
        <time>2021-07-09T13:49:13+0200</time>
      </trkpt>
      <trkpt lat="45.00966" lon="3.33229">
        <ele>1383.494294</ele>
        <time>2021-07-09T13:49:14+0200</time>
      </trkpt>
      <trkpt lat="45.00976" lon="3.33234">
        <ele>1381.518725</ele>
        <time>2021-07-09T13:49:15+0200</time>
      </trkpt>
      <trkpt lat="45.00983" lon="3.3324">
        <ele>1380.962004</ele>
        <time>2021-07-09T13:49:16+0200</time>
      </trkpt>
      <trkpt lat="45.00992" lon="3.3325">
        <ele>1381.228672</ele>
        <time>2021-07-09T13:49:17+0200</time>
      </trkpt>
      <trkpt lat="45.00999" lon="3.33258">
        <ele>1378.453827</ele>
        <time>2021-07-09T13:49:18+0200</time>
      </trkpt>
      <trkpt lat="45.01005" lon="3.33266">
        <ele>1376.332793</ele>
        <time>2021-07-09T13:49:19+0200</time>
      </trkpt>
      <trkpt lat="45.01013" lon="3.33273">
        <ele>1375.157835</ele>
        <time>2021-07-09T13:49:20+0200</time>
      </trkpt>
      <trkpt lat="45.01019" lon="3.33282">
        <ele>1374.19857</ele>
        <time>2021-07-09T13:49:21+0200</time>
      </trkpt>
      <trkpt lat="45.01022" lon="3.33293">
        <ele>1373.108746</ele>
        <time>2021-07-09T13:49:22+0200</time>
      </trkpt>
      <trkpt lat="45.01027" lon="3.33302">
        <ele>1372.153223</ele>
        <time>2021-07-09T13:49:23+0200</time>
      </trkpt>
      <trkpt lat="45.01022" lon="3.3332">
        <ele>1373.117674</ele>
        <time>2021-07-09T13:49:24+0200</time>
      </trkpt>
      <trkpt lat="45.01023" lon="3.33333">
        <ele>1371.984729</ele>
        <time>2021-07-09T13:49:25+0200</time>
      </trkpt>
      <trkpt lat="45.01024" lon="3.33348">
        <ele>1371.036732</ele>
        <time>2021-07-09T13:49:26+0200</time>
      </trkpt>
      <trkpt lat="45.01027" lon="3.33361">
        <ele>1369.357923</ele>
        <time>2021-07-09T13:49:27+0200</time>
      </trkpt>
      <trkpt lat="45.01027" lon="3.33374">
        <ele>1367.913012</ele>
        <time>2021-07-09T13:49:28+0200</time>
      </trkpt>
      <trkpt lat="45.0103" lon="3.33386">
        <ele>1365.634372</ele>
        <time>2021-07-09T13:49:29+0200</time>
      </trkpt>
      <trkpt lat="45.01032" lon="3.33399">
        <ele>1363.102429</ele>
        <time>2021-07-09T13:49:30+0200</time>
      </trkpt>
      <trkpt lat="45.01034" lon="3.33412">
        <ele>1362.370818</ele>
        <time>2021-07-09T13:49:31+0200</time>
      </trkpt>
      <trkpt lat="45.01034" lon="3.33425">
        <ele>1361.336516</ele>
        <time>2021-07-09T13:49:32+0200</time>
      </trkpt>
      <trkpt lat="45.01034" lon="3.33437">
        <ele>1361.654299</ele>
        <time>2021-07-09T13:49:33+0200</time>
      </trkpt>
      <trkpt lat="45.01035" lon="3.3345">
        <ele>1361.07999</ele>
        <time>2021-07-09T13:49:34+0200</time>
      </trkpt>
      <trkpt lat="45.01035" lon="3.33463">
        <ele>1361.066482</ele>
        <time>2021-07-09T13:49:35+0200</time>
      </trkpt>
      <trkpt lat="45.01034" lon="3.33477">
        <ele>1360.484358</ele>
        <time>2021-07-09T13:49:36+0200</time>
      </trkpt>
      <trkpt lat="45.01035" lon="3.3349">
        <ele>1360.164448</ele>
        <time>2021-07-09T13:49:37+0200</time>
      </trkpt>
      <trkpt lat="45.01036" lon="3.33502">
        <ele>1358.848819</ele>
        <time>2021-07-09T13:49:38+0200</time>
      </trkpt>
      <trkpt lat="45.01036" lon="3.33514">
        <ele>1358.050779</ele>
        <time>2021-07-09T13:49:39+0200</time>
      </trkpt>
      <trkpt lat="45.01037" lon="3.33527">
        <ele>1358.104336</ele>
        <time>2021-07-09T13:49:39+0200</time>
      </trkpt>
      <trkpt lat="45.01037" lon="3.33539">
        <ele>1358.099521</ele>
        <time>2021-07-09T13:49:40+0200</time>
      </trkpt>
      <trkpt lat="45.01038" lon="3.33551">
        <ele>1357.932812</ele>
        <time>2021-07-09T13:49:41+0200</time>
      </trkpt>
      <trkpt lat="45.01036" lon="3.33565">
        <ele>1359.837988</ele>
        <time>2021-07-09T13:49:42+0200</time>
      </trkpt>
      <trkpt lat="45.01037" lon="3.33577">
        <ele>1360.077821</ele>
        <time>2021-07-09T13:49:43+0200</time>
      </trkpt>
      <trkpt lat="45.01038" lon="3.33589">
        <ele>1360.06544</ele>
        <time>2021-07-09T13:49:44+0200</time>
      </trkpt>
      <trkpt lat="45.01039" lon="3.33602">
        <ele>1359.515514</ele>
        <time>2021-07-09T13:49:45+0200</time>
      </trkpt>
      <trkpt lat="45.0104" lon="3.33613">
        <ele>1359.326105</ele>
        <time>2021-07-09T13:49:46+0200</time>
      </trkpt>
      <trkpt lat="45.0104" lon="3.33625">
        <ele>1358.903965</ele>
        <time>2021-07-09T13:49:47+0200</time>
      </trkpt>
      <trkpt lat="45.01042" lon="3.33637">
        <ele>1358.417441</ele>
        <time>2021-07-09T13:49:49+0200</time>
      </trkpt>
      <trkpt lat="45.01043" lon="3.33648">
        <ele>1357.620547</ele>
        <time>2021-07-09T13:49:49+0200</time>
      </trkpt>
      <trkpt lat="45.01044" lon="3.33659">
        <ele>1357.055952</ele>
        <time>2021-07-09T13:49:50+0200</time>
      </trkpt>
      <trkpt lat="45.01046" lon="3.33671">
        <ele>1356.469644</ele>
        <time>2021-07-09T13:49:51+0200</time>
      </trkpt>
      <trkpt lat="45.01048" lon="3.33681">
        <ele>1356.299189</ele>
        <time>2021-07-09T13:49:52+0200</time>
      </trkpt>
      <trkpt lat="45.01049" lon="3.33693">
        <ele>1356.386812</ele>
        <time>2021-07-09T13:49:53+0200</time>
      </trkpt>
      <trkpt lat="45.01051" lon="3.33703">
        <ele>1356.90064</ele>
        <time>2021-07-09T13:49:54+0200</time>
      </trkpt>
      <trkpt lat="45.01054" lon="3.33713">
        <ele>1357.107119</ele>
        <time>2021-07-09T13:49:56+0200</time>
      </trkpt>
      <trkpt lat="45.01056" lon="3.33723">
        <ele>1357.829505</ele>
        <time>2021-07-09T13:49:57+0200</time>
      </trkpt>
      <trkpt lat="45.01058" lon="3.33734">
        <ele>1358.379007</ele>
        <time>2021-07-09T13:49:57+0200</time>
      </trkpt>
      <trkpt lat="45.01061" lon="3.33743">
        <ele>1358.862573</ele>
        <time>2021-07-09T13:49:58+0200</time>
      </trkpt>
      <trkpt lat="45.01063" lon="3.33753">
        <ele>1358.867498</ele>
        <time>2021-07-09T13:49:59+0200</time>
      </trkpt>
      <trkpt lat="45.01064" lon="3.33764">
        <ele>1358.662816</ele>
        <time>2021-07-09T13:50:00+0200</time>
      </trkpt>
      <trkpt lat="45.01066" lon="3.33774">
        <ele>1358.144075</ele>
        <time>2021-07-09T13:50:01+0200</time>
      </trkpt>
      <trkpt lat="45.01068" lon="3.33784">
        <ele>1358.240812</ele>
        <time>2021-07-09T13:50:02+0200</time>
      </trkpt>
      <trkpt lat="45.01071" lon="3.33794">
        <ele>1358.405677</ele>
        <time>2021-07-09T13:50:03+0200</time>
      </trkpt>
      <trkpt lat="45.01073" lon="3.33805">
        <ele>1358.208862</ele>
        <time>2021-07-09T13:50:04+0200</time>
      </trkpt>
      <trkpt lat="45.01075" lon="3.33815">
        <ele>1357.47797</ele>
        <time>2021-07-09T13:50:05+0200</time>
      </trkpt>
      <trkpt lat="45.01076" lon="3.33826">
        <ele>1356.751144</ele>
        <time>2021-07-09T13:50:06+0200</time>
      </trkpt>
      <trkpt lat="45.01079" lon="3.33837">
        <ele>1356.798046</ele>
        <time>2021-07-09T13:50:08+0200</time>
      </trkpt>
      <trkpt lat="45.01082" lon="3.33846">
        <ele>1356.280992</ele>
        <time>2021-07-09T13:50:09+0200</time>
      </trkpt>
      <trkpt lat="45.01084" lon="3.33857">
        <ele>1356.42725</ele>
        <time>2021-07-09T13:50:10+0200</time>
      </trkpt>
      <trkpt lat="45.01087" lon="3.33866">
        <ele>1355.92627</ele>
        <time>2021-07-09T13:50:11+0200</time>
      </trkpt>
      <trkpt lat="45.01092" lon="3.33875">
        <ele>1354.275244</ele>
        <time>2021-07-09T13:50:12+0200</time>
      </trkpt>
      <trkpt lat="45.01097" lon="3.33882">
        <ele>1354.131067</ele>
        <time>2021-07-09T13:50:13+0200</time>
      </trkpt>
      <trkpt lat="45.01102" lon="3.33889">
        <ele>1352.887941</ele>
        <time>2021-07-09T13:50:14+0200</time>
      </trkpt>
      <trkpt lat="45.01106" lon="3.33898">
        <ele>1352.710451</ele>
        <time>2021-07-09T13:50:15+0200</time>
      </trkpt>
      <trkpt lat="45.01111" lon="3.33905">
        <ele>1352.138387</ele>
        <time>2021-07-09T13:50:16+0200</time>
      </trkpt>
      <trkpt lat="45.01115" lon="3.33912">
        <ele>1351.959181</ele>
        <time>2021-07-09T13:50:17+0200</time>
      </trkpt>
      <trkpt lat="45.01119" lon="3.3392">
        <ele>1351.665296</ele>
        <time>2021-07-09T13:50:18+0200</time>
      </trkpt>
      <trkpt lat="45.01124" lon="3.33927">
        <ele>1350.534417</ele>
        <time>2021-07-09T13:50:19+0200</time>
      </trkpt>
      <trkpt lat="45.01128" lon="3.33935">
        <ele>1350.085501</ele>
        <time>2021-07-09T13:50:20+0200</time>
      </trkpt>
      <trkpt lat="45.01131" lon="3.33944">
        <ele>1349.22794</ele>
        <time>2021-07-09T13:50:21+0200</time>
      </trkpt>
      <trkpt lat="45.01135" lon="3.33951">
        <ele>1348.983139</ele>
        <time>2021-07-09T13:50:22+0200</time>
      </trkpt>
      <trkpt lat="45.0114" lon="3.3396">
        <ele>1348.844804</ele>
        <time>2021-07-09T13:50:23+0200</time>
      </trkpt>
      <trkpt lat="45.01145" lon="3.33968">
        <ele>1348.230163</ele>
        <time>2021-07-09T13:50:24+0200</time>
      </trkpt>
      <trkpt lat="45.0115" lon="3.33976">
        <ele>1347.391656</ele>
        <time>2021-07-09T13:50:25+0200</time>
      </trkpt>
      <trkpt lat="45.01154" lon="3.33983">
        <ele>1346.17016</ele>
        <time>2021-07-09T13:50:26+0200</time>
      </trkpt>
      <trkpt lat="45.01159" lon="3.33991">
        <ele>1345.477464</ele>
        <time>2021-07-09T13:50:27+0200</time>
      </trkpt>
      <trkpt lat="45.01165" lon="3.33999">
        <ele>1344.720645</ele>
        <time>2021-07-09T13:50:28+0200</time>
      </trkpt>
      <trkpt lat="45.01171" lon="3.34007">
        <ele>1343.876903</ele>
        <time>2021-07-09T13:50:29+0200</time>
      </trkpt>
      <trkpt lat="45.01177" lon="3.34015">
        <ele>1342.768096</ele>
        <time>2021-07-09T13:50:30+0200</time>
      </trkpt>
      <trkpt lat="45.01182" lon="3.34022">
        <ele>1342.010849</ele>
        <time>2021-07-09T13:50:31+0200</time>
      </trkpt>
      <trkpt lat="45.01188" lon="3.3403">
        <ele>1342.142257</ele>
        <time>2021-07-09T13:50:32+0200</time>
      </trkpt>
      <trkpt lat="45.01193" lon="3.34038">
        <ele>1342.148526</ele>
        <time>2021-07-09T13:50:33+0200</time>
      </trkpt>
      <trkpt lat="45.01196" lon="3.34048">
        <ele>1341.569061</ele>
        <time>2021-07-09T13:50:34+0200</time>
      </trkpt>
      <trkpt lat="45.01199" lon="3.34058">
        <ele>1341.831429</ele>
        <time>2021-07-09T13:50:35+0200</time>
      </trkpt>
      <trkpt lat="45.01204" lon="3.34067">
        <ele>1341.493177</ele>
        <time>2021-07-09T13:50:36+0200</time>
      </trkpt>
      <trkpt lat="45.01207" lon="3.34078">
        <ele>1340.359304</ele>
        <time>2021-07-09T13:50:37+0200</time>
      </trkpt>
      <trkpt lat="45.01211" lon="3.34088">
        <ele>1339.384981</ele>
        <time>2021-07-09T13:50:38+0200</time>
      </trkpt>
      <trkpt lat="45.01216" lon="3.34097">
        <ele>1339.282997</ele>
        <time>2021-07-09T13:50:39+0200</time>
      </trkpt>
      <trkpt lat="45.0122" lon="3.34108">
        <ele>1339.647832</ele>
        <time>2021-07-09T13:50:40+0200</time>
      </trkpt>
      <trkpt lat="45.01224" lon="3.34117">
        <ele>1339.281154</ele>
        <time>2021-07-09T13:50:41+0200</time>
      </trkpt>
      <trkpt lat="45.01227" lon="3.34127">
        <ele>1338.802926</ele>
        <time>2021-07-09T13:50:42+0200</time>
      </trkpt>
      <trkpt lat="45.01231" lon="3.34137">
        <ele>1338.559391</ele>
        <time>2021-07-09T13:50:43+0200</time>
      </trkpt>
      <trkpt lat="45.01235" lon="3.34146">
        <ele>1338.249763</ele>
        <time>2021-07-09T13:50:44+0200</time>
      </trkpt>
      <trkpt lat="45.01238" lon="3.34155">
        <ele>1337.823875</ele>
        <time>2021-07-09T13:50:45+0200</time>
      </trkpt>
      <trkpt lat="45.01243" lon="3.34164">
        <ele>1337.687975</ele>
        <time>2021-07-09T13:50:46+0200</time>
      </trkpt>
      <trkpt lat="45.01247" lon="3.34172">
        <ele>1337.19628</ele>
        <time>2021-07-09T13:50:47+0200</time>
      </trkpt>
      <trkpt lat="45.01252" lon="3.34181">
        <ele>1335.995708</ele>
        <time>2021-07-09T13:50:48+0200</time>
      </trkpt>
      <trkpt lat="45.01257" lon="3.34189">
        <ele>1335.2184</ele>
        <time>2021-07-09T13:50:49+0200</time>
      </trkpt>
      <trkpt lat="45.0126" lon="3.34198">
        <ele>1334.805844</ele>
        <time>2021-07-09T13:50:50+0200</time>
      </trkpt>
      <trkpt lat="45.01264" lon="3.34207">
        <ele>1334.720134</ele>
        <time>2021-07-09T13:50:51+0200</time>
      </trkpt>
      <trkpt lat="45.01268" lon="3.34216">
        <ele>1334.352891</ele>
        <time>2021-07-09T13:50:52+0200</time>
      </trkpt>
      <trkpt lat="45.01273" lon="3.34226">
        <ele>1334.199974</ele>
        <time>2021-07-09T13:50:53+0200</time>
      </trkpt>
      <trkpt lat="45.01276" lon="3.34236">
        <ele>1333.690913</ele>
        <time>2021-07-09T13:50:54+0200</time>
      </trkpt>
      <trkpt lat="45.0128" lon="3.34245">
        <ele>1333.674037</ele>
        <time>2021-07-09T13:50:55+0200</time>
      </trkpt>
      <trkpt lat="45.01283" lon="3.34254">
        <ele>1333.730876</ele>
        <time>2021-07-09T13:50:56+0200</time>
      </trkpt>
      <trkpt lat="45.01286" lon="3.34263">
        <ele>1333.670309</ele>
        <time>2021-07-09T13:50:57+0200</time>
      </trkpt>
      <trkpt lat="45.01288" lon="3.34271">
        <ele>1332.748727</ele>
        <time>2021-07-09T13:50:58+0200</time>
      </trkpt>
      <trkpt lat="45.01291" lon="3.3428">
        <ele>1331.871584</ele>
        <time>2021-07-09T13:50:59+0200</time>
      </trkpt>
      <trkpt lat="45.01295" lon="3.34289">
        <ele>1331.534149</ele>
        <time>2021-07-09T13:51:00+0200</time>
      </trkpt>
      <trkpt lat="45.01299" lon="3.34296">
        <ele>1331.533095</ele>
        <time>2021-07-09T13:51:01+0200</time>
      </trkpt>
      <trkpt lat="45.01302" lon="3.34305">
        <ele>1331.130937</ele>
        <time>2021-07-09T13:51:02+0200</time>
      </trkpt>
      <trkpt lat="45.01305" lon="3.34313">
        <ele>1330.893297</ele>
        <time>2021-07-09T13:51:03+0200</time>
      </trkpt>
      <trkpt lat="45.01309" lon="3.34323">
        <ele>1330.122524</ele>
        <time>2021-07-09T13:51:04+0200</time>
      </trkpt>
      <trkpt lat="45.01313" lon="3.34332">
        <ele>1329.856527</ele>
        <time>2021-07-09T13:51:05+0200</time>
      </trkpt>
      <trkpt lat="45.01316" lon="3.34342">
        <ele>1330.15218</ele>
        <time>2021-07-09T13:51:06+0200</time>
      </trkpt>
      <trkpt lat="45.01321" lon="3.34351">
        <ele>1330.22895</ele>
        <time>2021-07-09T13:51:07+0200</time>
      </trkpt>
      <trkpt lat="45.01324" lon="3.3436">
        <ele>1330.791226</ele>
        <time>2021-07-09T13:51:08+0200</time>
      </trkpt>
      <trkpt lat="45.01327" lon="3.3437">
        <ele>1331.146862</ele>
        <time>2021-07-09T13:51:09+0200</time>
      </trkpt>
      <trkpt lat="45.0133" lon="3.3438">
        <ele>1330.983119</ele>
        <time>2021-07-09T13:51:10+0200</time>
      </trkpt>
      <trkpt lat="45.01334" lon="3.34388">
        <ele>1332.087126</ele>
        <time>2021-07-09T13:51:11+0200</time>
      </trkpt>
      <trkpt lat="45.01337" lon="3.34397">
        <ele>1331.559293</ele>
        <time>2021-07-09T13:51:12+0200</time>
      </trkpt>
      <trkpt lat="45.01341" lon="3.34407">
        <ele>1331.521403</ele>
        <time>2021-07-09T13:51:13+0200</time>
      </trkpt>
      <trkpt lat="45.01345" lon="3.34415">
        <ele>1330.438767</ele>
        <time>2021-07-09T13:51:14+0200</time>
      </trkpt>
      <trkpt lat="45.01349" lon="3.34424">
        <ele>1331.078506</ele>
        <time>2021-07-09T13:51:15+0200</time>
      </trkpt>
      <trkpt lat="45.01353" lon="3.34434">
        <ele>1330.296647</ele>
        <time>2021-07-09T13:51:16+0200</time>
      </trkpt>
      <trkpt lat="45.01356" lon="3.34444">
        <ele>1329.51078</ele>
        <time>2021-07-09T13:51:17+0200</time>
      </trkpt>
      <trkpt lat="45.01359" lon="3.34453">
        <ele>1329.530207</ele>
        <time>2021-07-09T13:51:18+0200</time>
      </trkpt>
      <trkpt lat="45.01363" lon="3.34462">
        <ele>1329.171863</ele>
        <time>2021-07-09T13:51:19+0200</time>
      </trkpt>
      <trkpt lat="45.01366" lon="3.34472">
        <ele>1328.816822</ele>
        <time>2021-07-09T13:51:20+0200</time>
      </trkpt>
      <trkpt lat="45.01369" lon="3.34482">
        <ele>1327.403174</ele>
        <time>2021-07-09T13:51:21+0200</time>
      </trkpt>
      <trkpt lat="45.01373" lon="3.3449">
        <ele>1326.989102</ele>
        <time>2021-07-09T13:51:22+0200</time>
      </trkpt>
      <trkpt lat="45.01376" lon="3.345">
        <ele>1326.111321</ele>
        <time>2021-07-09T13:51:23+0200</time>
      </trkpt>
      <trkpt lat="45.01379" lon="3.34509">
        <ele>1325.70814</ele>
        <time>2021-07-09T13:51:24+0200</time>
      </trkpt>
      <trkpt lat="45.01383" lon="3.34519">
        <ele>1325.757792</ele>
        <time>2021-07-09T13:51:25+0200</time>
      </trkpt>
      <trkpt lat="45.01386" lon="3.34528">
        <ele>1325.536473</ele>
        <time>2021-07-09T13:51:26+0200</time>
      </trkpt>
      <trkpt lat="45.01388" lon="3.34539">
        <ele>1324.881475</ele>
        <time>2021-07-09T13:51:27+0200</time>
      </trkpt>
      <trkpt lat="45.01392" lon="3.34548">
        <ele>1324.216383</ele>
        <time>2021-07-09T13:51:28+0200</time>
      </trkpt>
      <trkpt lat="45.01395" lon="3.34559">
        <ele>1323.36241</ele>
        <time>2021-07-09T13:51:29+0200</time>
      </trkpt>
      <trkpt lat="45.01397" lon="3.34569">
        <ele>1324.015089</ele>
        <time>2021-07-09T13:51:30+0200</time>
      </trkpt>
      <trkpt lat="45.01401" lon="3.34579">
        <ele>1324.176558</ele>
        <time>2021-07-09T13:51:31+0200</time>
      </trkpt>
      <trkpt lat="45.01404" lon="3.34589">
        <ele>1324.970291</ele>
        <time>2021-07-09T13:51:32+0200</time>
      </trkpt>
      <trkpt lat="45.01407" lon="3.34598">
        <ele>1325.311097</ele>
        <time>2021-07-09T13:51:33+0200</time>
      </trkpt>
      <trkpt lat="45.01411" lon="3.34607">
        <ele>1325.269097</ele>
        <time>2021-07-09T13:51:34+0200</time>
      </trkpt>
      <trkpt lat="45.01414" lon="3.34617">
        <ele>1324.994017</ele>
        <time>2021-07-09T13:51:35+0200</time>
      </trkpt>
      <trkpt lat="45.01416" lon="3.34628">
        <ele>1323.623478</ele>
        <time>2021-07-09T13:51:36+0200</time>
      </trkpt>
      <trkpt lat="45.01418" lon="3.3464">
        <ele>1322.993852</ele>
        <time>2021-07-09T13:51:37+0200</time>
      </trkpt>
      <trkpt lat="45.01421" lon="3.34649">
        <ele>1322.50093</ele>
        <time>2021-07-09T13:51:38+0200</time>
      </trkpt>
      <trkpt lat="45.01422" lon="3.34661">
        <ele>1321.609669</ele>
        <time>2021-07-09T13:51:39+0200</time>
      </trkpt>
      <trkpt lat="45.01425" lon="3.34671">
        <ele>1321.844784</ele>
        <time>2021-07-09T13:51:40+0200</time>
      </trkpt>
      <trkpt lat="45.01429" lon="3.34682">
        <ele>1321.430827</ele>
        <time>2021-07-09T13:51:41+0200</time>
      </trkpt>
      <trkpt lat="45.01431" lon="3.34693">
        <ele>1320.946634</ele>
        <time>2021-07-09T13:51:42+0200</time>
      </trkpt>
      <trkpt lat="45.01433" lon="3.34704">
        <ele>1321.025812</ele>
        <time>2021-07-09T13:51:43+0200</time>
      </trkpt>
      <trkpt lat="45.01435" lon="3.34714">
        <ele>1319.794587</ele>
        <time>2021-07-09T13:51:44+0200</time>
      </trkpt>
      <trkpt lat="45.01438" lon="3.34726">
        <ele>1318.288065</ele>
        <time>2021-07-09T13:51:45+0200</time>
      </trkpt>
      <trkpt lat="45.01439" lon="3.34736">
        <ele>1317.771557</ele>
        <time>2021-07-09T13:51:46+0200</time>
      </trkpt>
      <trkpt lat="45.01439" lon="3.34749">
        <ele>1317.335573</ele>
        <time>2021-07-09T13:51:47+0200</time>
      </trkpt>
      <trkpt lat="45.0144" lon="3.3476">
        <ele>1317.025919</ele>
        <time>2021-07-09T13:51:48+0200</time>
      </trkpt>
      <trkpt lat="45.0144" lon="3.34771">
        <ele>1316.762291</ele>
        <time>2021-07-09T13:51:49+0200</time>
      </trkpt>
      <trkpt lat="45.01441" lon="3.34782">
        <ele>1316.769605</ele>
        <time>2021-07-09T13:51:50+0200</time>
      </trkpt>
      <trkpt lat="45.01442" lon="3.34793">
        <ele>1317.011577</ele>
        <time>2021-07-09T13:51:51+0200</time>
      </trkpt>
      <trkpt lat="45.01444" lon="3.34805">
        <ele>1317.03018</ele>
        <time>2021-07-09T13:51:52+0200</time>
      </trkpt>
      <trkpt lat="45.01446" lon="3.34815">
        <ele>1316.954297</ele>
        <time>2021-07-09T13:51:53+0200</time>
      </trkpt>
      <trkpt lat="45.01449" lon="3.34825">
        <ele>1316.632689</ele>
        <time>2021-07-09T13:51:54+0200</time>
      </trkpt>
      <trkpt lat="45.01453" lon="3.34834">
        <ele>1317.197127</ele>
        <time>2021-07-09T13:51:55+0200</time>
      </trkpt>
      <trkpt lat="45.01458" lon="3.34843">
        <ele>1317.828626</ele>
        <time>2021-07-09T13:51:56+0200</time>
      </trkpt>
      <trkpt lat="45.01462" lon="3.34851">
        <ele>1317.268867</ele>
        <time>2021-07-09T13:51:57+0200</time>
      </trkpt>
      <trkpt lat="45.01468" lon="3.34858">
        <ele>1317.051074</ele>
        <time>2021-07-09T13:51:58+0200</time>
      </trkpt>
      <trkpt lat="45.01472" lon="3.34864">
        <ele>1316.096951</ele>
        <time>2021-07-09T13:51:59+0200</time>
      </trkpt>
      <trkpt lat="45.01476" lon="3.34871">
        <ele>1316.280071</ele>
        <time>2021-07-09T13:52:00+0200</time>
      </trkpt>
      <trkpt lat="45.0148" lon="3.34876">
        <ele>1316.049953</ele>
        <time>2021-07-09T13:52:01+0200</time>
      </trkpt>
      <trkpt lat="45.01484" lon="3.34881">
        <ele>1316.077655</ele>
        <time>2021-07-09T13:52:02+0200</time>
      </trkpt>
      <trkpt lat="45.01489" lon="3.34886">
        <ele>1316.866496</ele>
        <time>2021-07-09T13:52:03+0200</time>
      </trkpt>
      <trkpt lat="45.01491" lon="3.34894">
        <ele>1315.25935</ele>
        <time>2021-07-09T13:52:05+0200</time>
      </trkpt>
      <trkpt lat="45.01495" lon="3.349">
        <ele>1315.733657</ele>
        <time>2021-07-09T13:52:08+0200</time>
      </trkpt>
      <trkpt lat="45.01501" lon="3.34904">
        <ele>1315.353138</ele>
        <time>2021-07-09T13:52:11+0200</time>
      </trkpt>
      <trkpt lat="45.01505" lon="3.34911">
        <ele>1316.564414</ele>
        <time>2021-07-09T13:52:14+0200</time>
      </trkpt>
      <trkpt lat="45.01509" lon="3.3492">
        <ele>1314.97834</ele>
        <time>2021-07-09T13:52:17+0200</time>
      </trkpt>
      <trkpt lat="45.01513" lon="3.34926">
        <ele>1315.490019</ele>
        <time>2021-07-09T13:52:20+0200</time>
      </trkpt>
      <trkpt lat="45.01518" lon="3.34932">
        <ele>1316.275639</ele>
        <time>2021-07-09T13:52:23+0200</time>
      </trkpt>
      <trkpt lat="45.01522" lon="3.34936">
        <ele>1317.62948</ele>
        <time>2021-07-09T13:52:26+0200</time>
      </trkpt>
      <trkpt lat="45.01526" lon="3.34941">
        <ele>1317.812593</ele>
        <time>2021-07-09T13:52:29+0200</time>
      </trkpt>
      <trkpt lat="45.0153" lon="3.34948">
        <ele>1317.678941</ele>
        <time>2021-07-09T13:52:32+0200</time>
      </trkpt>
      <trkpt lat="45.01534" lon="3.34953">
        <ele>1318.401509</ele>
        <time>2021-07-09T13:52:34+0200</time>
      </trkpt>
      <trkpt lat="45.01537" lon="3.34959">
        <ele>1317.630559</ele>
        <time>2021-07-09T13:52:36+0200</time>
      </trkpt>
      <trkpt lat="45.01542" lon="3.34965">
        <ele>1318.235278</ele>
        <time>2021-07-09T13:52:39+0200</time>
      </trkpt>
      <trkpt lat="45.01545" lon="3.3497">
        <ele>1317.13999</ele>
        <time>2021-07-09T13:52:41+0200</time>
      </trkpt>
      <trkpt lat="45.01548" lon="3.34976">
        <ele>1316.136089</ele>
        <time>2021-07-09T13:52:43+0200</time>
      </trkpt>
      <trkpt lat="45.01554" lon="3.34983">
        <ele>1315.558674</ele>
        <time>2021-07-09T13:52:46+0200</time>
      </trkpt>
      <trkpt lat="45.01559" lon="3.34987">
        <ele>1315.061226</ele>
        <time>2021-07-09T13:52:48+0200</time>
      </trkpt>
      <trkpt lat="45.01564" lon="3.34993">
        <ele>1313.911099</ele>
        <time>2021-07-09T13:52:50+0200</time>
      </trkpt>
      <trkpt lat="45.01569" lon="3.34999">
        <ele>1313.558707</ele>
        <time>2021-07-09T13:52:52+0200</time>
      </trkpt>
      <trkpt lat="45.01575" lon="3.35004">
        <ele>1312.636582</ele>
        <time>2021-07-09T13:52:54+0200</time>
      </trkpt>
      <trkpt lat="45.0158" lon="3.35009">
        <ele>1311.728553</ele>
        <time>2021-07-09T13:52:56+0200</time>
      </trkpt>
      <trkpt lat="45.01585" lon="3.35014">
        <ele>1312.306213</ele>
        <time>2021-07-09T13:52:58+0200</time>
      </trkpt>
      <trkpt lat="45.0159" lon="3.3502">
        <ele>1312.415797</ele>
        <time>2021-07-09T13:53:00+0200</time>
      </trkpt>
      <trkpt lat="45.01596" lon="3.35023">
        <ele>1312.186597</ele>
        <time>2021-07-09T13:53:02+0200</time>
      </trkpt>
      <trkpt lat="45.01603" lon="3.35028">
        <ele>1312.402084</ele>
        <time>2021-07-09T13:53:04+0200</time>
      </trkpt>
      <trkpt lat="45.01608" lon="3.35034">
        <ele>1312.382663</ele>
        <time>2021-07-09T13:53:06+0200</time>
      </trkpt>
      <trkpt lat="45.01612" lon="3.3504">
        <ele>1312.193425</ele>
        <time>2021-07-09T13:53:08+0200</time>
      </trkpt>
      <trkpt lat="45.01618" lon="3.35045">
        <ele>1312.42483</ele>
        <time>2021-07-09T13:53:10+0200</time>
      </trkpt>
      <trkpt lat="45.01623" lon="3.35051">
        <ele>1312.717204</ele>
        <time>2021-07-09T13:53:12+0200</time>
      </trkpt>
      <trkpt lat="45.01628" lon="3.35057">
        <ele>1312.451674</ele>
        <time>2021-07-09T13:53:14+0200</time>
      </trkpt>
      <trkpt lat="45.01631" lon="3.35065">
        <ele>1312.658841</ele>
        <time>2021-07-09T13:53:16+0200</time>
      </trkpt>
      <trkpt lat="45.01635" lon="3.35071">
        <ele>1313.048379</ele>
        <time>2021-07-09T13:53:19+0200</time>
      </trkpt>
      <trkpt lat="45.01638" lon="3.3508">
        <ele>1307.614276</ele>
        <time>2021-07-09T13:55:51+0200</time>
      </trkpt>
      <trkpt lat="45.01644" lon="3.35081">
        <ele>1309.121899</ele>
        <time>2021-07-09T13:55:59+0200</time>
      </trkpt>
      <trkpt lat="45.01651" lon="3.35082">
        <ele>1309.547846</ele>
        <time>2021-07-09T13:56:01+0200</time>
      </trkpt>
      <trkpt lat="45.01659" lon="3.35086">
        <ele>1309.537819</ele>
        <time>2021-07-09T13:56:03+0200</time>
      </trkpt>
      <trkpt lat="45.01666" lon="3.35087">
        <ele>1310.082277</ele>
        <time>2021-07-09T13:56:05+0200</time>
      </trkpt>
      <trkpt lat="45.01673" lon="3.35089">
        <ele>1309.625515</ele>
        <time>2021-07-09T13:56:07+0200</time>
      </trkpt>
      <trkpt lat="45.01677" lon="3.35092">
        <ele>1309.548848</ele>
        <time>2021-07-09T13:56:08+0200</time>
      </trkpt>
      <trkpt lat="45.01684" lon="3.35096">
        <ele>1309.399748</ele>
        <time>2021-07-09T13:56:10+0200</time>
      </trkpt>
      <trkpt lat="45.01692" lon="3.35101">
        <ele>1309.110465</ele>
        <time>2021-07-09T13:56:12+0200</time>
      </trkpt>
      <trkpt lat="45.01699" lon="3.35106">
        <ele>1309.393212</ele>
        <time>2021-07-09T13:56:14+0200</time>
      </trkpt>
      <trkpt lat="45.01707" lon="3.3511">
        <ele>1309.738633</ele>
        <time>2021-07-09T13:56:16+0200</time>
      </trkpt>
      <trkpt lat="45.01715" lon="3.35114">
        <ele>1309.722532</ele>
        <time>2021-07-09T13:56:18+0200</time>
      </trkpt>
      <trkpt lat="45.01723" lon="3.35119">
        <ele>1310.585635</ele>
        <time>2021-07-09T13:56:20+0200</time>
      </trkpt>
      <trkpt lat="45.0173" lon="3.35124">
        <ele>1310.064746</ele>
        <time>2021-07-09T13:56:22+0200</time>
      </trkpt>
      <trkpt lat="45.01737" lon="3.3513">
        <ele>1310.367301</ele>
        <time>2021-07-09T13:56:24+0200</time>
      </trkpt>
      <trkpt lat="45.01745" lon="3.35134">
        <ele>1310.598202</ele>
        <time>2021-07-09T13:56:26+0200</time>
      </trkpt>
      <trkpt lat="45.01753" lon="3.35139">
        <ele>1310.057573</ele>
        <time>2021-07-09T13:56:28+0200</time>
      </trkpt>
      <trkpt lat="45.01761" lon="3.35144">
        <ele>1309.475205</ele>
        <time>2021-07-09T13:56:30+0200</time>
      </trkpt>
      <trkpt lat="45.01766" lon="3.35146">
        <ele>1309.412268</ele>
        <time>2021-07-09T13:56:31+0200</time>
      </trkpt>
      <trkpt lat="45.0177" lon="3.35149">
        <ele>1309.387725</ele>
        <time>2021-07-09T13:56:32+0200</time>
      </trkpt>
      <trkpt lat="45.01775" lon="3.35152">
        <ele>1309.250423</ele>
        <time>2021-07-09T13:56:33+0200</time>
      </trkpt>
      <trkpt lat="45.01779" lon="3.35155">
        <ele>1308.995402</ele>
        <time>2021-07-09T13:56:34+0200</time>
      </trkpt>
      <trkpt lat="45.01784" lon="3.35158">
        <ele>1308.946107</ele>
        <time>2021-07-09T13:56:35+0200</time>
      </trkpt>
      <trkpt lat="45.01789" lon="3.35161">
        <ele>1308.864815</ele>
        <time>2021-07-09T13:56:36+0200</time>
      </trkpt>
      <trkpt lat="45.01794" lon="3.35165">
        <ele>1308.571827</ele>
        <time>2021-07-09T13:56:37+0200</time>
      </trkpt>
      <trkpt lat="45.01798" lon="3.35169">
        <ele>1308.816137</ele>
        <time>2021-07-09T13:56:38+0200</time>
      </trkpt>
      <trkpt lat="45.01803" lon="3.35172">
        <ele>1308.72904</ele>
        <time>2021-07-09T13:56:39+0200</time>
      </trkpt>
      <trkpt lat="45.01808" lon="3.35176">
        <ele>1308.712213</ele>
        <time>2021-07-09T13:56:40+0200</time>
      </trkpt>
      <trkpt lat="45.01813" lon="3.3518">
        <ele>1307.508626</ele>
        <time>2021-07-09T13:56:41+0200</time>
      </trkpt>
      <trkpt lat="45.01818" lon="3.35184">
        <ele>1307.655092</ele>
        <time>2021-07-09T13:56:42+0200</time>
      </trkpt>
      <trkpt lat="45.01822" lon="3.35186">
        <ele>1307.688446</ele>
        <time>2021-07-09T13:56:43+0200</time>
      </trkpt>
      <trkpt lat="45.01826" lon="3.35189">
        <ele>1307.443492</ele>
        <time>2021-07-09T13:56:44+0200</time>
      </trkpt>
      <trkpt lat="45.01834" lon="3.35198">
        <ele>1307.328179</ele>
        <time>2021-07-09T13:56:46+0200</time>
      </trkpt>
      <trkpt lat="45.01838" lon="3.352">
        <ele>1306.986629</ele>
        <time>2021-07-09T13:56:47+0200</time>
      </trkpt>
      <trkpt lat="45.01843" lon="3.35203">
        <ele>1306.685995</ele>
        <time>2021-07-09T13:56:48+0200</time>
      </trkpt>
      <trkpt lat="45.01847" lon="3.35206">
        <ele>1306.59913</ele>
        <time>2021-07-09T13:56:49+0200</time>
      </trkpt>
      <trkpt lat="45.01855" lon="3.35211">
        <ele>1305.73293</ele>
        <time>2021-07-09T13:56:51+0200</time>
      </trkpt>
      <trkpt lat="45.01863" lon="3.35215">
        <ele>1306.121432</ele>
        <time>2021-07-09T13:56:53+0200</time>
      </trkpt>
      <trkpt lat="45.01867" lon="3.35216">
        <ele>1305.893975</ele>
        <time>2021-07-09T13:56:54+0200</time>
      </trkpt>
      <trkpt lat="45.01872" lon="3.35217">
        <ele>1305.497194</ele>
        <time>2021-07-09T13:56:55+0200</time>
      </trkpt>
      <trkpt lat="45.01877" lon="3.35219">
        <ele>1304.998922</ele>
        <time>2021-07-09T13:56:56+0200</time>
      </trkpt>
      <trkpt lat="45.01884" lon="3.35224">
        <ele>1304.181981</ele>
        <time>2021-07-09T13:56:58+0200</time>
      </trkpt>
      <trkpt lat="45.0189" lon="3.35228">
        <ele>1303.539782</ele>
        <time>2021-07-09T13:56:59+0200</time>
      </trkpt>
      <trkpt lat="45.01894" lon="3.35232">
        <ele>1303.747563</ele>
        <time>2021-07-09T13:57:00+0200</time>
      </trkpt>
      <trkpt lat="45.01897" lon="3.35236">
        <ele>1303.56154</ele>
        <time>2021-07-09T13:57:01+0200</time>
      </trkpt>
      <trkpt lat="45.01902" lon="3.35238">
        <ele>1303.264193</ele>
        <time>2021-07-09T13:57:02+0200</time>
      </trkpt>
      <trkpt lat="45.01906" lon="3.35242">
        <ele>1303.541706</ele>
        <time>2021-07-09T13:57:03+0200</time>
      </trkpt>
      <trkpt lat="45.0191" lon="3.35245">
        <ele>1303.407296</ele>
        <time>2021-07-09T13:57:04+0200</time>
      </trkpt>
      <trkpt lat="45.01915" lon="3.35247">
        <ele>1303.141946</ele>
        <time>2021-07-09T13:57:05+0200</time>
      </trkpt>
      <trkpt lat="45.0192" lon="3.3525">
        <ele>1303.14012</ele>
        <time>2021-07-09T13:57:06+0200</time>
      </trkpt>
      <trkpt lat="45.01925" lon="3.35252">
        <ele>1303.02559</ele>
        <time>2021-07-09T13:57:07+0200</time>
      </trkpt>
      <trkpt lat="45.0193" lon="3.35254">
        <ele>1302.761</ele>
        <time>2021-07-09T13:57:08+0200</time>
      </trkpt>
      <trkpt lat="45.01934" lon="3.35256">
        <ele>1302.442275</ele>
        <time>2021-07-09T13:57:09+0200</time>
      </trkpt>
      <trkpt lat="45.01941" lon="3.3526">
        <ele>1302.990748</ele>
        <time>2021-07-09T13:57:11+0200</time>
      </trkpt>
      <trkpt lat="45.01947" lon="3.35264">
        <ele>1302.319139</ele>
        <time>2021-07-09T13:57:13+0200</time>
      </trkpt>
      <trkpt lat="45.01953" lon="3.35269">
        <ele>1301.604534</ele>
        <time>2021-07-09T13:57:15+0200</time>
      </trkpt>
      <trkpt lat="45.0196" lon="3.35276">
        <ele>1301.823509</ele>
        <time>2021-07-09T13:57:17+0200</time>
      </trkpt>
      <trkpt lat="45.01967" lon="3.35281">
        <ele>1303.033199</ele>
        <time>2021-07-09T13:57:19+0200</time>
      </trkpt>
      <trkpt lat="45.01975" lon="3.35286">
        <ele>1301.103257</ele>
        <time>2021-07-09T13:57:21+0200</time>
      </trkpt>
      <trkpt lat="45.01982" lon="3.35293">
        <ele>1299.762061</ele>
        <time>2021-07-09T13:57:23+0200</time>
      </trkpt>
      <trkpt lat="45.01989" lon="3.35301">
        <ele>1299.949652</ele>
        <time>2021-07-09T13:57:25+0200</time>
      </trkpt>
      <trkpt lat="45.01996" lon="3.35307">
        <ele>1298.964466</ele>
        <time>2021-07-09T13:57:27+0200</time>
      </trkpt>
      <trkpt lat="45.02" lon="3.35312">
        <ele>1298.954422</ele>
        <time>2021-07-09T13:57:28+0200</time>
      </trkpt>
      <trkpt lat="45.02007" lon="3.35318">
        <ele>1297.766181</ele>
        <time>2021-07-09T13:57:30+0200</time>
      </trkpt>
      <trkpt lat="45.02011" lon="3.35322">
        <ele>1297.271028</ele>
        <time>2021-07-09T13:57:31+0200</time>
      </trkpt>
      <trkpt lat="45.02015" lon="3.35327">
        <ele>1297.023149</ele>
        <time>2021-07-09T13:57:32+0200</time>
      </trkpt>
      <trkpt lat="45.02019" lon="3.35331">
        <ele>1296.458798</ele>
        <time>2021-07-09T13:57:33+0200</time>
      </trkpt>
      <trkpt lat="45.02026" lon="3.35341">
        <ele>1296.532811</ele>
        <time>2021-07-09T13:57:35+0200</time>
      </trkpt>
      <trkpt lat="45.0203" lon="3.35346">
        <ele>1296.591329</ele>
        <time>2021-07-09T13:57:36+0200</time>
      </trkpt>
      <trkpt lat="45.02035" lon="3.35351">
        <ele>1295.083284</ele>
        <time>2021-07-09T13:57:37+0200</time>
      </trkpt>
      <trkpt lat="45.02039" lon="3.35354">
        <ele>1294.118907</ele>
        <time>2021-07-09T13:57:38+0200</time>
      </trkpt>
      <trkpt lat="45.02044" lon="3.35358">
        <ele>1292.584901</ele>
        <time>2021-07-09T13:57:39+0200</time>
      </trkpt>
      <trkpt lat="45.02048" lon="3.35363">
        <ele>1291.87431</ele>
        <time>2021-07-09T13:57:40+0200</time>
      </trkpt>
      <trkpt lat="45.02052" lon="3.35367">
        <ele>1292.033788</ele>
        <time>2021-07-09T13:57:41+0200</time>
      </trkpt>
      <trkpt lat="45.02059" lon="3.35374">
        <ele>1290.172017</ele>
        <time>2021-07-09T13:57:43+0200</time>
      </trkpt>
      <trkpt lat="45.02066" lon="3.35381">
        <ele>1285.966178</ele>
        <time>2021-07-09T13:57:45+0200</time>
      </trkpt>
      <trkpt lat="45.02072" lon="3.35387">
        <ele>1284.454672</ele>
        <time>2021-07-09T13:57:47+0200</time>
      </trkpt>
      <trkpt lat="45.02078" lon="3.35396">
        <ele>1284.613992</ele>
        <time>2021-07-09T13:57:49+0200</time>
      </trkpt>
      <trkpt lat="45.02083" lon="3.354">
        <ele>1285.245205</ele>
        <time>2021-07-09T13:57:50+0200</time>
      </trkpt>
      <trkpt lat="45.02087" lon="3.35406">
        <ele>1284.380921</ele>
        <time>2021-07-09T13:57:51+0200</time>
      </trkpt>
      <trkpt lat="45.02091" lon="3.3541">
        <ele>1283.966122</ele>
        <time>2021-07-09T13:57:52+0200</time>
      </trkpt>
      <trkpt lat="45.02094" lon="3.35415">
        <ele>1283.615372</ele>
        <time>2021-07-09T13:57:53+0200</time>
      </trkpt>
      <trkpt lat="45.02098" lon="3.35421">
        <ele>1283.5344</ele>
        <time>2021-07-09T13:57:54+0200</time>
      </trkpt>
      <trkpt lat="45.02101" lon="3.35427">
        <ele>1283.060165</ele>
        <time>2021-07-09T13:57:55+0200</time>
      </trkpt>
      <trkpt lat="45.02104" lon="3.35433">
        <ele>1283.199492</ele>
        <time>2021-07-09T13:57:56+0200</time>
      </trkpt>
      <trkpt lat="45.02107" lon="3.3544">
        <ele>1283.17759</ele>
        <time>2021-07-09T13:57:57+0200</time>
      </trkpt>
      <trkpt lat="45.0211" lon="3.35446">
        <ele>1283.676559</ele>
        <time>2021-07-09T13:57:58+0200</time>
      </trkpt>
      <trkpt lat="45.02112" lon="3.35453">
        <ele>1283.597233</ele>
        <time>2021-07-09T13:57:59+0200</time>
      </trkpt>
      <trkpt lat="45.02115" lon="3.35459">
        <ele>1283.338503</ele>
        <time>2021-07-09T13:58:00+0200</time>
      </trkpt>
      <trkpt lat="45.02119" lon="3.35466">
        <ele>1283.756441</ele>
        <time>2021-07-09T13:58:01+0200</time>
      </trkpt>
      <trkpt lat="45.02121" lon="3.35474">
        <ele>1283.586213</ele>
        <time>2021-07-09T13:58:02+0200</time>
      </trkpt>
      <trkpt lat="45.02124" lon="3.35481">
        <ele>1283.885024</ele>
        <time>2021-07-09T13:58:03+0200</time>
      </trkpt>
      <trkpt lat="45.02126" lon="3.35487">
        <ele>1283.147228</ele>
        <time>2021-07-09T13:58:04+0200</time>
      </trkpt>
      <trkpt lat="45.0213" lon="3.35495">
        <ele>1282.390949</ele>
        <time>2021-07-09T13:58:05+0200</time>
      </trkpt>
      <trkpt lat="45.02135" lon="3.35502">
        <ele>1282.113654</ele>
        <time>2021-07-09T13:58:06+0200</time>
      </trkpt>
      <trkpt lat="45.02139" lon="3.35508">
        <ele>1282.258926</ele>
        <time>2021-07-09T13:58:07+0200</time>
      </trkpt>
      <trkpt lat="45.02143" lon="3.35517">
        <ele>1281.801203</ele>
        <time>2021-07-09T13:58:08+0200</time>
      </trkpt>
      <trkpt lat="45.02146" lon="3.35524">
        <ele>1281.427783</ele>
        <time>2021-07-09T13:58:09+0200</time>
      </trkpt>
      <trkpt lat="45.02149" lon="3.35533">
        <ele>1281.556646</ele>
        <time>2021-07-09T13:58:10+0200</time>
      </trkpt>
      <trkpt lat="45.02151" lon="3.35541">
        <ele>1282.080681</ele>
        <time>2021-07-09T13:58:11+0200</time>
      </trkpt>
      <trkpt lat="45.02154" lon="3.35549">
        <ele>1281.844902</ele>
        <time>2021-07-09T13:58:12+0200</time>
      </trkpt>
      <trkpt lat="45.02157" lon="3.3556">
        <ele>1280.648021</ele>
        <time>2021-07-09T13:58:13+0200</time>
      </trkpt>
      <trkpt lat="45.0216" lon="3.3557">
        <ele>1280.767135</ele>
        <time>2021-07-09T13:58:14+0200</time>
      </trkpt>
      <trkpt lat="45.02162" lon="3.3558">
        <ele>1280.158732</ele>
        <time>2021-07-09T13:58:15+0200</time>
      </trkpt>
      <trkpt lat="45.02164" lon="3.35591">
        <ele>1279.298378</ele>
        <time>2021-07-09T13:58:16+0200</time>
      </trkpt>
      <trkpt lat="45.02164" lon="3.35602">
        <ele>1278.782027</ele>
        <time>2021-07-09T13:58:17+0200</time>
      </trkpt>
      <trkpt lat="45.02165" lon="3.35612">
        <ele>1279.660412</ele>
        <time>2021-07-09T13:58:18+0200</time>
      </trkpt>
      <trkpt lat="45.02165" lon="3.35623">
        <ele>1279.054894</ele>
        <time>2021-07-09T13:58:19+0200</time>
      </trkpt>
      <trkpt lat="45.02165" lon="3.35633">
        <ele>1279.369317</ele>
        <time>2021-07-09T13:58:20+0200</time>
      </trkpt>
      <trkpt lat="45.02165" lon="3.35642">
        <ele>1279.280177</ele>
        <time>2021-07-09T13:58:21+0200</time>
      </trkpt>
      <trkpt lat="45.02166" lon="3.35651">
        <ele>1278.488464</ele>
        <time>2021-07-09T13:58:22+0200</time>
      </trkpt>
      <trkpt lat="45.02167" lon="3.35662">
        <ele>1279.067763</ele>
        <time>2021-07-09T13:58:23+0200</time>
      </trkpt>
      <trkpt lat="45.02167" lon="3.35671">
        <ele>1280.158096</ele>
        <time>2021-07-09T13:58:24+0200</time>
      </trkpt>
      <trkpt lat="45.02166" lon="3.35681">
        <ele>1279.242956</ele>
        <time>2021-07-09T13:58:25+0200</time>
      </trkpt>
      <trkpt lat="45.02165" lon="3.35691">
        <ele>1278.141159</ele>
        <time>2021-07-09T13:58:26+0200</time>
      </trkpt>
      <trkpt lat="45.02164" lon="3.357">
        <ele>1278.581735</ele>
        <time>2021-07-09T13:58:27+0200</time>
      </trkpt>
      <trkpt lat="45.02164" lon="3.35709">
        <ele>1277.925937</ele>
        <time>2021-07-09T13:58:28+0200</time>
      </trkpt>
      <trkpt lat="45.02164" lon="3.35716">
        <ele>1277.758719</ele>
        <time>2021-07-09T13:58:29+0200</time>
      </trkpt>
      <trkpt lat="45.02164" lon="3.35724">
        <ele>1277.526663</ele>
        <time>2021-07-09T13:58:30+0200</time>
      </trkpt>
      <trkpt lat="45.02165" lon="3.35731">
        <ele>1277.084755</ele>
        <time>2021-07-09T13:58:31+0200</time>
      </trkpt>
      <trkpt lat="45.02164" lon="3.35738">
        <ele>1275.66278</ele>
        <time>2021-07-09T13:58:32+0200</time>
      </trkpt>
      <trkpt lat="45.02162" lon="3.35746">
        <ele>1275.394163</ele>
        <time>2021-07-09T13:58:33+0200</time>
      </trkpt>
      <trkpt lat="45.02163" lon="3.35755">
        <ele>1275.416907</ele>
        <time>2021-07-09T13:58:34+0200</time>
      </trkpt>
      <trkpt lat="45.02164" lon="3.35764">
        <ele>1275.139459</ele>
        <time>2021-07-09T13:58:35+0200</time>
      </trkpt>
      <trkpt lat="45.02163" lon="3.35771">
        <ele>1274.831274</ele>
        <time>2021-07-09T13:58:36+0200</time>
      </trkpt>
      <trkpt lat="45.02164" lon="3.35778">
        <ele>1274.174134</ele>
        <time>2021-07-09T13:58:37+0200</time>
      </trkpt>
      <trkpt lat="45.02167" lon="3.35789">
        <ele>1272.962325</ele>
        <time>2021-07-09T13:58:38+0200</time>
      </trkpt>
      <trkpt lat="45.02167" lon="3.35798">
        <ele>1273.702868</ele>
        <time>2021-07-09T13:58:39+0200</time>
      </trkpt>
      <trkpt lat="45.02166" lon="3.35806">
        <ele>1273.882711</ele>
        <time>2021-07-09T13:58:40+0200</time>
      </trkpt>
      <trkpt lat="45.02166" lon="3.35814">
        <ele>1273.485325</ele>
        <time>2021-07-09T13:58:41+0200</time>
      </trkpt>
      <trkpt lat="45.02167" lon="3.35821">
        <ele>1273.865766</ele>
        <time>2021-07-09T13:58:42+0200</time>
      </trkpt>
      <trkpt lat="45.02168" lon="3.35833">
        <ele>1273.072968</ele>
        <time>2021-07-09T13:58:44+0200</time>
      </trkpt>
      <trkpt lat="45.02172" lon="3.35842">
        <ele>1273.496361</ele>
        <time>2021-07-09T13:58:46+0200</time>
      </trkpt>
      <trkpt lat="45.02174" lon="3.35854">
        <ele>1272.41656</ele>
        <time>2021-07-09T13:58:48+0200</time>
      </trkpt>
      <trkpt lat="45.02179" lon="3.35864">
        <ele>1272.417303</ele>
        <time>2021-07-09T13:58:50+0200</time>
      </trkpt>
      <trkpt lat="45.02182" lon="3.3587">
        <ele>1272.619267</ele>
        <time>2021-07-09T13:58:51+0200</time>
      </trkpt>
      <trkpt lat="45.02185" lon="3.35875">
        <ele>1272.95893</ele>
        <time>2021-07-09T13:58:52+0200</time>
      </trkpt>
      <trkpt lat="45.02192" lon="3.35884">
        <ele>1274.666198</ele>
        <time>2021-07-09T13:58:54+0200</time>
      </trkpt>
      <trkpt lat="45.02196" lon="3.35891">
        <ele>1273.563241</ele>
        <time>2021-07-09T13:58:55+0200</time>
      </trkpt>
      <trkpt lat="45.02199" lon="3.35898">
        <ele>1272.52528</ele>
        <time>2021-07-09T13:58:56+0200</time>
      </trkpt>
      <trkpt lat="45.02204" lon="3.35906">
        <ele>1271.751322</ele>
        <time>2021-07-09T13:58:57+0200</time>
      </trkpt>
      <trkpt lat="45.02211" lon="3.35911">
        <ele>1270.786297</ele>
        <time>2021-07-09T13:58:58+0200</time>
      </trkpt>
      <trkpt lat="45.02218" lon="3.35919">
        <ele>1269.200671</ele>
        <time>2021-07-09T13:58:59+0200</time>
      </trkpt>
      <trkpt lat="45.02224" lon="3.35926">
        <ele>1268.352556</ele>
        <time>2021-07-09T13:59:00+0200</time>
      </trkpt>
      <trkpt lat="45.02229" lon="3.35934">
        <ele>1268.116315</ele>
        <time>2021-07-09T13:59:01+0200</time>
      </trkpt>
      <trkpt lat="45.02234" lon="3.35944">
        <ele>1268.426046</ele>
        <time>2021-07-09T13:59:02+0200</time>
      </trkpt>
      <trkpt lat="45.02237" lon="3.35952">
        <ele>1268.009192</ele>
        <time>2021-07-09T13:59:03+0200</time>
      </trkpt>
      <trkpt lat="45.02243" lon="3.35957">
        <ele>1267.769314</ele>
        <time>2021-07-09T13:59:04+0200</time>
      </trkpt>
      <trkpt lat="45.02248" lon="3.35961">
        <ele>1266.792412</ele>
        <time>2021-07-09T13:59:05+0200</time>
      </trkpt>
      <trkpt lat="45.02253" lon="3.35969">
        <ele>1265.18204</ele>
        <time>2021-07-09T13:59:06+0200</time>
      </trkpt>
      <trkpt lat="45.02258" lon="3.35975">
        <ele>1265.35313</ele>
        <time>2021-07-09T13:59:07+0200</time>
      </trkpt>
      <trkpt lat="45.02263" lon="3.35982">
        <ele>1264.439953</ele>
        <time>2021-07-09T13:59:08+0200</time>
      </trkpt>
      <trkpt lat="45.02271" lon="3.35986">
        <ele>1264.391568</ele>
        <time>2021-07-09T13:59:09+0200</time>
      </trkpt>
      <trkpt lat="45.02279" lon="3.35991">
        <ele>1263.092822</ele>
        <time>2021-07-09T13:59:10+0200</time>
      </trkpt>
      <trkpt lat="45.02285" lon="3.35996">
        <ele>1262.137536</ele>
        <time>2021-07-09T13:59:11+0200</time>
      </trkpt>
      <trkpt lat="45.0229" lon="3.36003">
        <ele>1260.977203</ele>
        <time>2021-07-09T13:59:12+0200</time>
      </trkpt>
      <trkpt lat="45.02294" lon="3.36007">
        <ele>1261.031537</ele>
        <time>2021-07-09T13:59:13+0200</time>
      </trkpt>
      <trkpt lat="45.02301" lon="3.36013">
        <ele>1260.924128</ele>
        <time>2021-07-09T13:59:15+0200</time>
      </trkpt>
      <trkpt lat="45.02306" lon="3.36017">
        <ele>1261.883556</ele>
        <time>2021-07-09T13:59:16+0200</time>
      </trkpt>
      <trkpt lat="45.02309" lon="3.36022">
        <ele>1261.966697</ele>
        <time>2021-07-09T13:59:17+0200</time>
      </trkpt>
      <trkpt lat="45.02316" lon="3.36032">
        <ele>1260.335717</ele>
        <time>2021-07-09T13:59:19+0200</time>
      </trkpt>
      <trkpt lat="45.02319" lon="3.36036">
        <ele>1259.582287</ele>
        <time>2021-07-09T13:59:20+0200</time>
      </trkpt>
      <trkpt lat="45.02326" lon="3.36044">
        <ele>1258.335313</ele>
        <time>2021-07-09T13:59:22+0200</time>
      </trkpt>
      <trkpt lat="45.02335" lon="3.36048">
        <ele>1257.892202</ele>
        <time>2021-07-09T13:59:24+0200</time>
      </trkpt>
      <trkpt lat="45.02339" lon="3.3605">
        <ele>1258.143015</ele>
        <time>2021-07-09T13:59:25+0200</time>
      </trkpt>
      <trkpt lat="45.02343" lon="3.36055">
        <ele>1258.972994</ele>
        <time>2021-07-09T13:59:26+0200</time>
      </trkpt>
      <trkpt lat="45.02347" lon="3.36061">
        <ele>1258.212437</ele>
        <time>2021-07-09T13:59:27+0200</time>
      </trkpt>
      <trkpt lat="45.02352" lon="3.36068">
        <ele>1257.733358</ele>
        <time>2021-07-09T13:59:28+0200</time>
      </trkpt>
      <trkpt lat="45.02355" lon="3.36075">
        <ele>1256.71291</ele>
        <time>2021-07-09T13:59:29+0200</time>
      </trkpt>
      <trkpt lat="45.02359" lon="3.36081">
        <ele>1256.663978</ele>
        <time>2021-07-09T13:59:30+0200</time>
      </trkpt>
      <trkpt lat="45.02362" lon="3.36088">
        <ele>1256.466902</ele>
        <time>2021-07-09T13:59:31+0200</time>
      </trkpt>
      <trkpt lat="45.02366" lon="3.36094">
        <ele>1256.166277</ele>
        <time>2021-07-09T13:59:32+0200</time>
      </trkpt>
      <trkpt lat="45.02369" lon="3.361">
        <ele>1255.369713</ele>
        <time>2021-07-09T13:59:33+0200</time>
      </trkpt>
      <trkpt lat="45.02372" lon="3.36106">
        <ele>1255.974516</ele>
        <time>2021-07-09T13:59:34+0200</time>
      </trkpt>
      <trkpt lat="45.02375" lon="3.36111">
        <ele>1255.901003</ele>
        <time>2021-07-09T13:59:35+0200</time>
      </trkpt>
      <trkpt lat="45.02378" lon="3.36118">
        <ele>1256.103691</ele>
        <time>2021-07-09T13:59:36+0200</time>
      </trkpt>
      <trkpt lat="45.02381" lon="3.36124">
        <ele>1255.919661</ele>
        <time>2021-07-09T13:59:37+0200</time>
      </trkpt>
      <trkpt lat="45.02387" lon="3.36135">
        <ele>1255.11107</ele>
        <time>2021-07-09T13:59:39+0200</time>
      </trkpt>
      <trkpt lat="45.02389" lon="3.36143">
        <ele>1253.618228</ele>
        <time>2021-07-09T13:59:40+0200</time>
      </trkpt>
      <trkpt lat="45.02394" lon="3.36148">
        <ele>1253.151603</ele>
        <time>2021-07-09T13:59:41+0200</time>
      </trkpt>
      <trkpt lat="45.02396" lon="3.36155">
        <ele>1251.616891</ele>
        <time>2021-07-09T13:59:42+0200</time>
      </trkpt>
      <trkpt lat="45.024" lon="3.36161">
        <ele>1250.950546</ele>
        <time>2021-07-09T13:59:43+0200</time>
      </trkpt>
      <trkpt lat="45.02404" lon="3.36168">
        <ele>1250.556409</ele>
        <time>2021-07-09T13:59:44+0200</time>
      </trkpt>
      <trkpt lat="45.02407" lon="3.36174">
        <ele>1249.328469</ele>
        <time>2021-07-09T13:59:45+0200</time>
      </trkpt>
      <trkpt lat="45.02409" lon="3.3618">
        <ele>1249.570779</ele>
        <time>2021-07-09T13:59:46+0200</time>
      </trkpt>
      <trkpt lat="45.02413" lon="3.36185">
        <ele>1250.30082</ele>
        <time>2021-07-09T13:59:47+0200</time>
      </trkpt>
      <trkpt lat="45.02418" lon="3.36197">
        <ele>1249.3764</ele>
        <time>2021-07-09T13:59:49+0200</time>
      </trkpt>
      <trkpt lat="45.0242" lon="3.36204">
        <ele>1249.409869</ele>
        <time>2021-07-09T13:59:50+0200</time>
      </trkpt>
      <trkpt lat="45.02425" lon="3.36214">
        <ele>1248.826786</ele>
        <time>2021-07-09T13:59:52+0200</time>
      </trkpt>
      <trkpt lat="45.02429" lon="3.36225">
        <ele>1250.180667</ele>
        <time>2021-07-09T13:59:54+0200</time>
      </trkpt>
      <trkpt lat="45.02431" lon="3.36231">
        <ele>1250.0537</ele>
        <time>2021-07-09T13:59:55+0200</time>
      </trkpt>
      <trkpt lat="45.02434" lon="3.36237">
        <ele>1251.344962</ele>
        <time>2021-07-09T13:59:56+0200</time>
      </trkpt>
      <trkpt lat="45.02437" lon="3.36242">
        <ele>1251.25176</ele>
        <time>2021-07-09T13:59:57+0200</time>
      </trkpt>
      <trkpt lat="45.0244" lon="3.36248">
        <ele>1251.078728</ele>
        <time>2021-07-09T13:59:58+0200</time>
      </trkpt>
      <trkpt lat="45.02443" lon="3.36253">
        <ele>1251.97244</ele>
        <time>2021-07-09T13:59:59+0200</time>
      </trkpt>
      <trkpt lat="45.02447" lon="3.36263">
        <ele>1250.721224</ele>
        <time>2021-07-09T14:00:01+0200</time>
      </trkpt>
      <trkpt lat="45.02452" lon="3.36275">
        <ele>1251.913745</ele>
        <time>2021-07-09T14:00:03+0200</time>
      </trkpt>
      <trkpt lat="45.02456" lon="3.36286">
        <ele>1253.904859</ele>
        <time>2021-07-09T14:00:05+0200</time>
      </trkpt>
      <trkpt lat="45.02459" lon="3.36291">
        <ele>1251.971944</ele>
        <time>2021-07-09T14:00:06+0200</time>
      </trkpt>
      <trkpt lat="45.02462" lon="3.36297">
        <ele>1250.991332</ele>
        <time>2021-07-09T14:00:07+0200</time>
      </trkpt>
      <trkpt lat="45.02466" lon="3.36301">
        <ele>1250.752271</ele>
        <time>2021-07-09T14:00:08+0200</time>
      </trkpt>
      <trkpt lat="45.0247" lon="3.36307">
        <ele>1248.8568</ele>
        <time>2021-07-09T14:00:09+0200</time>
      </trkpt>
      <trkpt lat="45.02474" lon="3.36312">
        <ele>1248.464595</ele>
        <time>2021-07-09T14:00:10+0200</time>
      </trkpt>
      <trkpt lat="45.02479" lon="3.36316">
        <ele>1246.610692</ele>
        <time>2021-07-09T14:00:11+0200</time>
      </trkpt>
      <trkpt lat="45.02483" lon="3.36321">
        <ele>1245.189498</ele>
        <time>2021-07-09T14:00:12+0200</time>
      </trkpt>
      <trkpt lat="45.02487" lon="3.36327">
        <ele>1244.434521</ele>
        <time>2021-07-09T14:00:13+0200</time>
      </trkpt>
      <trkpt lat="45.0249" lon="3.36333">
        <ele>1242.974356</ele>
        <time>2021-07-09T14:00:14+0200</time>
      </trkpt>
      <trkpt lat="45.02494" lon="3.36337">
        <ele>1242.74862</ele>
        <time>2021-07-09T14:00:15+0200</time>
      </trkpt>
      <trkpt lat="45.02498" lon="3.36342">
        <ele>1243.153071</ele>
        <time>2021-07-09T14:00:16+0200</time>
      </trkpt>
      <trkpt lat="45.02503" lon="3.36346">
        <ele>1243.664351</ele>
        <time>2021-07-09T14:00:17+0200</time>
      </trkpt>
      <trkpt lat="45.02507" lon="3.36352">
        <ele>1243.69681</ele>
        <time>2021-07-09T14:00:18+0200</time>
      </trkpt>
      <trkpt lat="45.02512" lon="3.36357">
        <ele>1243.586797</ele>
        <time>2021-07-09T14:00:19+0200</time>
      </trkpt>
      <trkpt lat="45.02515" lon="3.36361">
        <ele>1242.795519</ele>
        <time>2021-07-09T14:00:20+0200</time>
      </trkpt>
      <trkpt lat="45.0252" lon="3.36365">
        <ele>1241.615328</ele>
        <time>2021-07-09T14:00:21+0200</time>
      </trkpt>
      <trkpt lat="45.02522" lon="3.36371">
        <ele>1242.524229</ele>
        <time>2021-07-09T14:00:22+0200</time>
      </trkpt>
      <trkpt lat="45.02526" lon="3.36379">
        <ele>1243.472305</ele>
        <time>2021-07-09T14:00:24+0200</time>
      </trkpt>
      <trkpt lat="45.0253" lon="3.36385">
        <ele>1244.343097</ele>
        <time>2021-07-09T14:00:25+0200</time>
      </trkpt>
      <trkpt lat="45.02532" lon="3.36392">
        <ele>1243.156243</ele>
        <time>2021-07-09T14:00:26+0200</time>
      </trkpt>
      <trkpt lat="45.02537" lon="3.364">
        <ele>1243.521111</ele>
        <time>2021-07-09T14:00:27+0200</time>
      </trkpt>
      <trkpt lat="45.0254" lon="3.36406">
        <ele>1244.942184</ele>
        <time>2021-07-09T14:00:28+0200</time>
      </trkpt>
      <trkpt lat="45.02544" lon="3.3641">
        <ele>1245.125382</ele>
        <time>2021-07-09T14:00:29+0200</time>
      </trkpt>
      <trkpt lat="45.0255" lon="3.36417">
        <ele>1246.154296</ele>
        <time>2021-07-09T14:00:31+0200</time>
      </trkpt>
      <trkpt lat="45.02555" lon="3.36427">
        <ele>1247.3948</ele>
        <time>2021-07-09T14:00:33+0200</time>
      </trkpt>
      <trkpt lat="45.02559" lon="3.36432">
        <ele>1247.68306</ele>
        <time>2021-07-09T14:00:34+0200</time>
      </trkpt>
      <trkpt lat="45.02561" lon="3.36438">
        <ele>1246.245831</ele>
        <time>2021-07-09T14:00:35+0200</time>
      </trkpt>
      <trkpt lat="45.02565" lon="3.36444">
        <ele>1245.626116</ele>
        <time>2021-07-09T14:00:36+0200</time>
      </trkpt>
      <trkpt lat="45.02568" lon="3.36449">
        <ele>1245.539521</ele>
        <time>2021-07-09T14:00:37+0200</time>
      </trkpt>
      <trkpt lat="45.02572" lon="3.36454">
        <ele>1244.863825</ele>
        <time>2021-07-09T14:00:38+0200</time>
      </trkpt>
      <trkpt lat="45.02578" lon="3.36463">
        <ele>1244.633665</ele>
        <time>2021-07-09T14:00:40+0200</time>
      </trkpt>
      <trkpt lat="45.02582" lon="3.36469">
        <ele>1243.836749</ele>
        <time>2021-07-09T14:00:42+0200</time>
      </trkpt>
      <trkpt lat="45.02587" lon="3.36476">
        <ele>1243.428883</ele>
        <time>2021-07-09T14:00:44+0200</time>
      </trkpt>
      <trkpt lat="45.02593" lon="3.36484">
        <ele>1245.000552</ele>
        <time>2021-07-09T14:00:46+0200</time>
      </trkpt>
      <trkpt lat="45.02599" lon="3.36492">
        <ele>1247.406249</ele>
        <time>2021-07-09T14:00:48+0200</time>
      </trkpt>
      <trkpt lat="45.02605" lon="3.36501">
        <ele>1247.276387</ele>
        <time>2021-07-09T14:00:50+0200</time>
      </trkpt>
      <trkpt lat="45.02609" lon="3.36506">
        <ele>1246.705809</ele>
        <time>2021-07-09T14:00:51+0200</time>
      </trkpt>
      <trkpt lat="45.02613" lon="3.36511">
        <ele>1245.462704</ele>
        <time>2021-07-09T14:00:52+0200</time>
      </trkpt>
      <trkpt lat="45.02616" lon="3.36517">
        <ele>1245.170366</ele>
        <time>2021-07-09T14:00:53+0200</time>
      </trkpt>
      <trkpt lat="45.0262" lon="3.36521">
        <ele>1243.664473</ele>
        <time>2021-07-09T14:00:54+0200</time>
      </trkpt>
      <trkpt lat="45.02622" lon="3.36528">
        <ele>1243.997417</ele>
        <time>2021-07-09T14:00:55+0200</time>
      </trkpt>
      <trkpt lat="45.02627" lon="3.36533">
        <ele>1243.63374</ele>
        <time>2021-07-09T14:00:56+0200</time>
      </trkpt>
      <trkpt lat="45.0263" lon="3.36539">
        <ele>1243.148493</ele>
        <time>2021-07-09T14:00:57+0200</time>
      </trkpt>
      <trkpt lat="45.02635" lon="3.36545">
        <ele>1242.773918</ele>
        <time>2021-07-09T14:00:58+0200</time>
      </trkpt>
      <trkpt lat="45.02638" lon="3.36551">
        <ele>1242.256095</ele>
        <time>2021-07-09T14:00:59+0200</time>
      </trkpt>
      <trkpt lat="45.02643" lon="3.36555">
        <ele>1240.953</ele>
        <time>2021-07-09T14:01:00+0200</time>
      </trkpt>
      <trkpt lat="45.02647" lon="3.3656">
        <ele>1239.912693</ele>
        <time>2021-07-09T14:01:01+0200</time>
      </trkpt>
      <trkpt lat="45.0265" lon="3.36565">
        <ele>1238.563682</ele>
        <time>2021-07-09T14:01:02+0200</time>
      </trkpt>
      <trkpt lat="45.02653" lon="3.3657">
        <ele>1237.626013</ele>
        <time>2021-07-09T14:01:03+0200</time>
      </trkpt>
      <trkpt lat="45.0266" lon="3.36578">
        <ele>1237.596555</ele>
        <time>2021-07-09T14:01:05+0200</time>
      </trkpt>
      <trkpt lat="45.02664" lon="3.36583">
        <ele>1235.953</ele>
        <time>2021-07-09T14:01:06+0200</time>
      </trkpt>
      <trkpt lat="45.02669" lon="3.36589">
        <ele>1235.640576</ele>
        <time>2021-07-09T14:01:07+0200</time>
      </trkpt>
      <trkpt lat="45.02672" lon="3.36594">
        <ele>1235.374486</ele>
        <time>2021-07-09T14:01:08+0200</time>
      </trkpt>
      <trkpt lat="45.02677" lon="3.36601">
        <ele>1234.569936</ele>
        <time>2021-07-09T14:01:09+0200</time>
      </trkpt>
      <trkpt lat="45.02682" lon="3.36609">
        <ele>1234.98242</ele>
        <time>2021-07-09T14:01:10+0200</time>
      </trkpt>
      <trkpt lat="45.02686" lon="3.36617">
        <ele>1235.482574</ele>
        <time>2021-07-09T14:01:11+0200</time>
      </trkpt>
      <trkpt lat="45.02691" lon="3.36624">
        <ele>1235.998835</ele>
        <time>2021-07-09T14:01:12+0200</time>
      </trkpt>
      <trkpt lat="45.02695" lon="3.36631">
        <ele>1236.548571</ele>
        <time>2021-07-09T14:01:13+0200</time>
      </trkpt>
      <trkpt lat="45.02701" lon="3.36638">
        <ele>1235.15769</ele>
        <time>2021-07-09T14:01:14+0200</time>
      </trkpt>
      <trkpt lat="45.02706" lon="3.36646">
        <ele>1233.71597</ele>
        <time>2021-07-09T14:01:15+0200</time>
      </trkpt>
      <trkpt lat="45.0271" lon="3.36652">
        <ele>1233.243732</ele>
        <time>2021-07-09T14:01:16+0200</time>
      </trkpt>
      <trkpt lat="45.02714" lon="3.36657">
        <ele>1232.511143</ele>
        <time>2021-07-09T14:01:17+0200</time>
      </trkpt>
      <trkpt lat="45.0272" lon="3.36662">
        <ele>1231.808246</ele>
        <time>2021-07-09T14:01:18+0200</time>
      </trkpt>
      <trkpt lat="45.02726" lon="3.36667">
        <ele>1229.909738</ele>
        <time>2021-07-09T14:01:19+0200</time>
      </trkpt>
      <trkpt lat="45.02732" lon="3.36672">
        <ele>1227.140077</ele>
        <time>2021-07-09T14:01:20+0200</time>
      </trkpt>
      <trkpt lat="45.02735" lon="3.3668">
        <ele>1225.845398</ele>
        <time>2021-07-09T14:01:21+0200</time>
      </trkpt>
      <trkpt lat="45.02739" lon="3.36688">
        <ele>1225.26147</ele>
        <time>2021-07-09T14:01:22+0200</time>
      </trkpt>
      <trkpt lat="45.02742" lon="3.36694">
        <ele>1224.522147</ele>
        <time>2021-07-09T14:01:23+0200</time>
      </trkpt>
      <trkpt lat="45.02745" lon="3.367">
        <ele>1223.203185</ele>
        <time>2021-07-09T14:01:24+0200</time>
      </trkpt>
      <trkpt lat="45.02749" lon="3.36705">
        <ele>1223.63564</ele>
        <time>2021-07-09T14:01:25+0200</time>
      </trkpt>
      <trkpt lat="45.02753" lon="3.36711">
        <ele>1223.657184</ele>
        <time>2021-07-09T14:01:26+0200</time>
      </trkpt>
      <trkpt lat="45.02756" lon="3.36717">
        <ele>1223.538562</ele>
        <time>2021-07-09T14:01:27+0200</time>
      </trkpt>
      <trkpt lat="45.02764" lon="3.36726">
        <ele>1219.959038</ele>
        <time>2021-07-09T14:01:29+0200</time>
      </trkpt>
      <trkpt lat="45.02768" lon="3.3673">
        <ele>1218.043176</ele>
        <time>2021-07-09T14:01:30+0200</time>
      </trkpt>
      <trkpt lat="45.02773" lon="3.36734">
        <ele>1216.481708</ele>
        <time>2021-07-09T14:01:31+0200</time>
      </trkpt>
      <trkpt lat="45.02778" lon="3.3674">
        <ele>1214.762415</ele>
        <time>2021-07-09T14:01:32+0200</time>
      </trkpt>
      <trkpt lat="45.02781" lon="3.36745">
        <ele>1214.253016</ele>
        <time>2021-07-09T14:01:33+0200</time>
      </trkpt>
      <trkpt lat="45.02786" lon="3.36751">
        <ele>1213.456248</ele>
        <time>2021-07-09T14:01:34+0200</time>
      </trkpt>
      <trkpt lat="45.0279" lon="3.36756">
        <ele>1214.024644</ele>
        <time>2021-07-09T14:01:35+0200</time>
      </trkpt>
      <trkpt lat="45.02794" lon="3.36763">
        <ele>1215.564007</ele>
        <time>2021-07-09T14:01:36+0200</time>
      </trkpt>
      <trkpt lat="45.02799" lon="3.36766">
        <ele>1216.387899</ele>
        <time>2021-07-09T14:01:37+0200</time>
      </trkpt>
      <trkpt lat="45.02808" lon="3.36772">
        <ele>1214.915632</ele>
        <time>2021-07-09T14:01:39+0200</time>
      </trkpt>
      <trkpt lat="45.02815" lon="3.36776">
        <ele>1214.628088</ele>
        <time>2021-07-09T14:01:40+0200</time>
      </trkpt>
      <trkpt lat="45.0282" lon="3.3678">
        <ele>1214.205934</ele>
        <time>2021-07-09T14:01:41+0200</time>
      </trkpt>
      <trkpt lat="45.02824" lon="3.36784">
        <ele>1213.845514</ele>
        <time>2021-07-09T14:01:42+0200</time>
      </trkpt>
      <trkpt lat="45.02831" lon="3.36788">
        <ele>1212.717425</ele>
        <time>2021-07-09T14:01:43+0200</time>
      </trkpt>
      <trkpt lat="45.02836" lon="3.36793">
        <ele>1211.419268</ele>
        <time>2021-07-09T14:01:44+0200</time>
      </trkpt>
      <trkpt lat="45.02842" lon="3.36803">
        <ele>1211.610576</ele>
        <time>2021-07-09T14:01:45+0200</time>
      </trkpt>
      <trkpt lat="45.02848" lon="3.36812">
        <ele>1211.383737</ele>
        <time>2021-07-09T14:01:46+0200</time>
      </trkpt>
      <trkpt lat="45.02855" lon="3.36815">
        <ele>1210.286251</ele>
        <time>2021-07-09T14:01:47+0200</time>
      </trkpt>
      <trkpt lat="45.02861" lon="3.3682">
        <ele>1211.827727</ele>
        <time>2021-07-09T14:01:48+0200</time>
      </trkpt>
      <trkpt lat="45.02867" lon="3.36826">
        <ele>1212.766628</ele>
        <time>2021-07-09T14:01:49+0200</time>
      </trkpt>
      <trkpt lat="45.02874" lon="3.36831">
        <ele>1215.232238</ele>
        <time>2021-07-09T14:01:50+0200</time>
      </trkpt>
      <trkpt lat="45.0288" lon="3.36838">
        <ele>1215.124932</ele>
        <time>2021-07-09T14:01:51+0200</time>
      </trkpt>
      <trkpt lat="45.02886" lon="3.36845">
        <ele>1216.082805</ele>
        <time>2021-07-09T14:01:52+0200</time>
      </trkpt>
      <trkpt lat="45.02891" lon="3.3685">
        <ele>1216.152959</ele>
        <time>2021-07-09T14:01:53+0200</time>
      </trkpt>
      <trkpt lat="45.02897" lon="3.36854">
        <ele>1215.246334</ele>
        <time>2021-07-09T14:01:54+0200</time>
      </trkpt>
      <trkpt lat="45.02903" lon="3.36859">
        <ele>1215.646878</ele>
        <time>2021-07-09T14:01:55+0200</time>
      </trkpt>
      <trkpt lat="45.02909" lon="3.36864">
        <ele>1216.229524</ele>
        <time>2021-07-09T14:01:56+0200</time>
      </trkpt>
      <trkpt lat="45.02915" lon="3.36868">
        <ele>1215.80868</ele>
        <time>2021-07-09T14:01:57+0200</time>
      </trkpt>
      <trkpt lat="45.0292" lon="3.36873">
        <ele>1214.621285</ele>
        <time>2021-07-09T14:01:58+0200</time>
      </trkpt>
      <trkpt lat="45.02926" lon="3.36878">
        <ele>1214.911461</ele>
        <time>2021-07-09T14:01:59+0200</time>
      </trkpt>
      <trkpt lat="45.02931" lon="3.36885">
        <ele>1215.537052</ele>
        <time>2021-07-09T14:02:00+0200</time>
      </trkpt>
      <trkpt lat="45.02936" lon="3.3689">
        <ele>1215.793272</ele>
        <time>2021-07-09T14:02:01+0200</time>
      </trkpt>
      <trkpt lat="45.02941" lon="3.36895">
        <ele>1216.78614</ele>
        <time>2021-07-09T14:02:02+0200</time>
      </trkpt>
      <trkpt lat="45.02946" lon="3.36898">
        <ele>1217.135512</ele>
        <time>2021-07-09T14:02:03+0200</time>
      </trkpt>
      <trkpt lat="45.0295" lon="3.36902">
        <ele>1216.735587</ele>
        <time>2021-07-09T14:02:04+0200</time>
      </trkpt>
      <trkpt lat="45.02955" lon="3.36905">
        <ele>1216.074671</ele>
        <time>2021-07-09T14:02:05+0200</time>
      </trkpt>
      <trkpt lat="45.0296" lon="3.36909">
        <ele>1215.74715</ele>
        <time>2021-07-09T14:02:06+0200</time>
      </trkpt>
      <trkpt lat="45.02963" lon="3.36915">
        <ele>1216.56409</ele>
        <time>2021-07-09T14:02:07+0200</time>
      </trkpt>
      <trkpt lat="45.02968" lon="3.36918">
        <ele>1216.855138</ele>
        <time>2021-07-09T14:02:08+0200</time>
      </trkpt>
      <trkpt lat="45.02972" lon="3.36922">
        <ele>1218.323529</ele>
        <time>2021-07-09T14:02:09+0200</time>
      </trkpt>
      <trkpt lat="45.02976" lon="3.36927">
        <ele>1219.511487</ele>
        <time>2021-07-09T14:02:10+0200</time>
      </trkpt>
      <trkpt lat="45.02983" lon="3.36928">
        <ele>1220.19516</ele>
        <time>2021-07-09T14:02:12+0200</time>
      </trkpt>
      <trkpt lat="45.02985" lon="3.3692">
        <ele>1221.538219</ele>
        <time>2021-07-09T14:02:15+0200</time>
      </trkpt>
      <trkpt lat="45.02987" lon="3.36914">
        <ele>1222.391284</ele>
        <time>2021-07-09T14:02:19+0200</time>
      </trkpt>
      <trkpt lat="45.0299" lon="3.36907">
        <ele>1224.258655</ele>
        <time>2021-07-09T14:02:22+0200</time>
      </trkpt>
      <trkpt lat="45.02994" lon="3.369">
        <ele>1225.360691</ele>
        <time>2021-07-09T14:02:25+0200</time>
      </trkpt>
      <trkpt lat="45.02996" lon="3.36894">
        <ele>1226.235036</ele>
        <time>2021-07-09T14:02:28+0200</time>
      </trkpt>
      <trkpt lat="45.03" lon="3.36886">
        <ele>1225.150564</ele>
        <time>2021-07-09T14:02:31+0200</time>
      </trkpt>
      <trkpt lat="45.03003" lon="3.36879">
        <ele>1225.048876</ele>
        <time>2021-07-09T14:02:33+0200</time>
      </trkpt>
      <trkpt lat="45.03007" lon="3.36873">
        <ele>1225.21403</ele>
        <time>2021-07-09T14:02:35+0200</time>
      </trkpt>
      <trkpt lat="45.0301" lon="3.36865">
        <ele>1224.689458</ele>
        <time>2021-07-09T14:02:37+0200</time>
      </trkpt>
      <trkpt lat="45.03012" lon="3.36853">
        <ele>1224.463461</ele>
        <time>2021-07-09T14:02:39+0200</time>
      </trkpt>
      <trkpt lat="45.03016" lon="3.36845">
        <ele>1224.74388</ele>
        <time>2021-07-09T14:02:41+0200</time>
      </trkpt>
      <trkpt lat="45.03019" lon="3.36837">
        <ele>1225.580898</ele>
        <time>2021-07-09T14:02:43+0200</time>
      </trkpt>
      <trkpt lat="45.03022" lon="3.36827">
        <ele>1225.455951</ele>
        <time>2021-07-09T14:02:45+0200</time>
      </trkpt>
      <trkpt lat="45.03025" lon="3.36816">
        <ele>1226.544838</ele>
        <time>2021-07-09T14:02:47+0200</time>
      </trkpt>
      <trkpt lat="45.03027" lon="3.36807">
        <ele>1225.555654</ele>
        <time>2021-07-09T14:02:48+0200</time>
      </trkpt>
      <trkpt lat="45.03029" lon="3.368">
        <ele>1225.504618</ele>
        <time>2021-07-09T14:02:49+0200</time>
      </trkpt>
      <trkpt lat="45.03034" lon="3.36793">
        <ele>1224.350117</ele>
        <time>2021-07-09T14:02:50+0200</time>
      </trkpt>
      <trkpt lat="45.03037" lon="3.36786">
        <ele>1224.570315</ele>
        <time>2021-07-09T14:02:51+0200</time>
      </trkpt>
      <trkpt lat="45.03041" lon="3.36781">
        <ele>1224.456933</ele>
        <time>2021-07-09T14:02:52+0200</time>
      </trkpt>
      <trkpt lat="45.03045" lon="3.36775">
        <ele>1222.780754</ele>
        <time>2021-07-09T14:02:53+0200</time>
      </trkpt>
      <trkpt lat="45.03049" lon="3.36771">
        <ele>1222.033224</ele>
        <time>2021-07-09T14:02:54+0200</time>
      </trkpt>
      <trkpt lat="45.03054" lon="3.36767">
        <ele>1220.818847</ele>
        <time>2021-07-09T14:02:55+0200</time>
      </trkpt>
      <trkpt lat="45.03057" lon="3.3676">
        <ele>1220.458159</ele>
        <time>2021-07-09T14:02:56+0200</time>
      </trkpt>
      <trkpt lat="45.03062" lon="3.36753">
        <ele>1218.974548</ele>
        <time>2021-07-09T14:02:57+0200</time>
      </trkpt>
      <trkpt lat="45.03066" lon="3.36749">
        <ele>1218.36129</ele>
        <time>2021-07-09T14:02:58+0200</time>
      </trkpt>
      <trkpt lat="45.0307" lon="3.36743">
        <ele>1218.160396</ele>
        <time>2021-07-09T14:02:59+0200</time>
      </trkpt>
      <trkpt lat="45.03073" lon="3.36738">
        <ele>1218.30835</ele>
        <time>2021-07-09T14:03:00+0200</time>
      </trkpt>
      <trkpt lat="45.03077" lon="3.36732">
        <ele>1217.13293</ele>
        <time>2021-07-09T14:03:01+0200</time>
      </trkpt>
      <trkpt lat="45.03081" lon="3.36727">
        <ele>1216.979566</ele>
        <time>2021-07-09T14:03:02+0200</time>
      </trkpt>
      <trkpt lat="45.03085" lon="3.36721">
        <ele>1217.508454</ele>
        <time>2021-07-09T14:03:03+0200</time>
      </trkpt>
      <trkpt lat="45.03089" lon="3.36715">
        <ele>1217.690586</ele>
        <time>2021-07-09T14:03:04+0200</time>
      </trkpt>
      <trkpt lat="45.03092" lon="3.36709">
        <ele>1217.011267</ele>
        <time>2021-07-09T14:03:05+0200</time>
      </trkpt>
      <trkpt lat="45.03097" lon="3.36705">
        <ele>1217.030307</ele>
        <time>2021-07-09T14:03:06+0200</time>
      </trkpt>
      <trkpt lat="45.03101" lon="3.367">
        <ele>1215.504994</ele>
        <time>2021-07-09T14:03:07+0200</time>
      </trkpt>
      <trkpt lat="45.03106" lon="3.36695">
        <ele>1215.946413</ele>
        <time>2021-07-09T14:03:08+0200</time>
      </trkpt>
      <trkpt lat="45.0311" lon="3.36689">
        <ele>1216.169421</ele>
        <time>2021-07-09T14:03:09+0200</time>
      </trkpt>
      <trkpt lat="45.03113" lon="3.36684">
        <ele>1215.623314</ele>
        <time>2021-07-09T14:03:10+0200</time>
      </trkpt>
      <trkpt lat="45.03117" lon="3.36678">
        <ele>1215.440904</ele>
        <time>2021-07-09T14:03:11+0200</time>
      </trkpt>
      <trkpt lat="45.0312" lon="3.36673">
        <ele>1216.279808</ele>
        <time>2021-07-09T14:03:12+0200</time>
      </trkpt>
      <trkpt lat="45.03125" lon="3.36668">
        <ele>1216.968796</ele>
        <time>2021-07-09T14:03:13+0200</time>
      </trkpt>
      <trkpt lat="45.0313" lon="3.36663">
        <ele>1216.56725</ele>
        <time>2021-07-09T14:03:14+0200</time>
      </trkpt>
      <trkpt lat="45.03134" lon="3.36659">
        <ele>1216.221276</ele>
        <time>2021-07-09T14:03:15+0200</time>
      </trkpt>
      <trkpt lat="45.03138" lon="3.36654">
        <ele>1216.393707</ele>
        <time>2021-07-09T14:03:16+0200</time>
      </trkpt>
      <trkpt lat="45.03142" lon="3.36648">
        <ele>1216.825838</ele>
        <time>2021-07-09T14:03:17+0200</time>
      </trkpt>
      <trkpt lat="45.03146" lon="3.36642">
        <ele>1216.956449</ele>
        <time>2021-07-09T14:03:18+0200</time>
      </trkpt>
      <trkpt lat="45.03151" lon="3.36638">
        <ele>1217.965856</ele>
        <time>2021-07-09T14:03:19+0200</time>
      </trkpt>
      <trkpt lat="45.03155" lon="3.36634">
        <ele>1217.524603</ele>
        <time>2021-07-09T14:03:20+0200</time>
      </trkpt>
      <trkpt lat="45.0316" lon="3.36629">
        <ele>1217.553442</ele>
        <time>2021-07-09T14:03:21+0200</time>
      </trkpt>
      <trkpt lat="45.03164" lon="3.36624">
        <ele>1217.043081</ele>
        <time>2021-07-09T14:03:22+0200</time>
      </trkpt>
      <trkpt lat="45.03167" lon="3.36619">
        <ele>1217.324642</ele>
        <time>2021-07-09T14:03:23+0200</time>
      </trkpt>
      <trkpt lat="45.03171" lon="3.36613">
        <ele>1216.485424</ele>
        <time>2021-07-09T14:03:24+0200</time>
      </trkpt>
      <trkpt lat="45.03174" lon="3.36608">
        <ele>1216.001536</ele>
        <time>2021-07-09T14:03:25+0200</time>
      </trkpt>
      <trkpt lat="45.03178" lon="3.36604">
        <ele>1215.857743</ele>
        <time>2021-07-09T14:03:26+0200</time>
      </trkpt>
      <trkpt lat="45.03183" lon="3.36599">
        <ele>1216.836702</ele>
        <time>2021-07-09T14:03:27+0200</time>
      </trkpt>
      <trkpt lat="45.03186" lon="3.36594">
        <ele>1216.338169</ele>
        <time>2021-07-09T14:03:28+0200</time>
      </trkpt>
      <trkpt lat="45.03191" lon="3.3659">
        <ele>1216.081518</ele>
        <time>2021-07-09T14:03:29+0200</time>
      </trkpt>
      <trkpt lat="45.03195" lon="3.36586">
        <ele>1215.839412</ele>
        <time>2021-07-09T14:03:30+0200</time>
      </trkpt>
      <trkpt lat="45.03199" lon="3.36582">
        <ele>1216.316953</ele>
        <time>2021-07-09T14:03:31+0200</time>
      </trkpt>
      <trkpt lat="45.03204" lon="3.36579">
        <ele>1215.391987</ele>
        <time>2021-07-09T14:03:32+0200</time>
      </trkpt>
      <trkpt lat="45.03208" lon="3.36576">
        <ele>1215.769075</ele>
        <time>2021-07-09T14:03:33+0200</time>
      </trkpt>
      <trkpt lat="45.03216" lon="3.36571">
        <ele>1217.111395</ele>
        <time>2021-07-09T14:03:35+0200</time>
      </trkpt>
      <trkpt lat="45.0322" lon="3.36568">
        <ele>1217.869795</ele>
        <time>2021-07-09T14:03:36+0200</time>
      </trkpt>
      <trkpt lat="45.03225" lon="3.36567">
        <ele>1219.229525</ele>
        <time>2021-07-09T14:03:37+0200</time>
      </trkpt>
      <trkpt lat="45.03232" lon="3.36564">
        <ele>1222.699812</ele>
        <time>2021-07-09T14:03:39+0200</time>
      </trkpt>
      <trkpt lat="45.03241" lon="3.36564">
        <ele>1222.230917</ele>
        <time>2021-07-09T14:03:41+0200</time>
      </trkpt>
      <trkpt lat="45.03245" lon="3.36568">
        <ele>1221.104823</ele>
        <time>2021-07-09T14:03:42+0200</time>
      </trkpt>
      <trkpt lat="45.03246" lon="3.36577">
        <ele>1219.236711</ele>
        <time>2021-07-09T14:03:44+0200</time>
      </trkpt>
      <trkpt lat="45.03248" lon="3.36584">
        <ele>1219.462589</ele>
        <time>2021-07-09T14:03:46+0200</time>
      </trkpt>
      <trkpt lat="45.03247" lon="3.36591">
        <ele>1219.876594</ele>
        <time>2021-07-09T14:03:48+0200</time>
      </trkpt>
      <trkpt lat="45.03247" lon="3.36598">
        <ele>1220.875682</ele>
        <time>2021-07-09T14:03:50+0200</time>
      </trkpt>
      <trkpt lat="45.03247" lon="3.36608">
        <ele>1222.409557</ele>
        <time>2021-07-09T14:03:52+0200</time>
      </trkpt>
      <trkpt lat="45.03247" lon="3.36615">
        <ele>1223.33481</ele>
        <time>2021-07-09T14:03:54+0200</time>
      </trkpt>
      <trkpt lat="45.03248" lon="3.36623">
        <ele>1224.496168</ele>
        <time>2021-07-09T14:03:56+0200</time>
      </trkpt>
      <trkpt lat="45.03247" lon="3.36632">
        <ele>1225.054882</ele>
        <time>2021-07-09T14:03:58+0200</time>
      </trkpt>
      <trkpt lat="45.03248" lon="3.36642">
        <ele>1225.409908</ele>
        <time>2021-07-09T14:04:00+0200</time>
      </trkpt>
      <trkpt lat="45.03248" lon="3.36651">
        <ele>1225.305837</ele>
        <time>2021-07-09T14:04:02+0200</time>
      </trkpt>
      <trkpt lat="45.03249" lon="3.3666">
        <ele>1226.115957</ele>
        <time>2021-07-09T14:04:04+0200</time>
      </trkpt>
      <trkpt lat="45.03249" lon="3.3667">
        <ele>1226.436652</ele>
        <time>2021-07-09T14:04:06+0200</time>
      </trkpt>
      <trkpt lat="45.03247" lon="3.36679">
        <ele>1225.992966</ele>
        <time>2021-07-09T14:04:08+0200</time>
      </trkpt>
      <trkpt lat="45.03245" lon="3.36689">
        <ele>1223.74472</ele>
        <time>2021-07-09T14:04:10+0200</time>
      </trkpt>
      <trkpt lat="45.03245" lon="3.36698">
        <ele>1224.1539</ele>
        <time>2021-07-09T14:04:12+0200</time>
      </trkpt>
      <trkpt lat="45.03243" lon="3.36706">
        <ele>1224.15558</ele>
        <time>2021-07-09T14:04:14+0200</time>
      </trkpt>
      <trkpt lat="45.03242" lon="3.36716">
        <ele>1222.535891</ele>
        <time>2021-07-09T14:04:16+0200</time>
      </trkpt>
      <trkpt lat="45.03243" lon="3.36725">
        <ele>1219.5683</ele>
        <time>2021-07-09T14:04:18+0200</time>
      </trkpt>
      <trkpt lat="45.03244" lon="3.36732">
        <ele>1217.528935</ele>
        <time>2021-07-09T14:04:19+0200</time>
      </trkpt>
      <trkpt lat="45.03245" lon="3.3674">
        <ele>1216.583918</ele>
        <time>2021-07-09T14:04:20+0200</time>
      </trkpt>
      <trkpt lat="45.03246" lon="3.36749">
        <ele>1215.747414</ele>
        <time>2021-07-09T14:04:22+0200</time>
      </trkpt>
      <trkpt lat="45.03246" lon="3.36759">
        <ele>1211.192465</ele>
        <time>2021-07-09T14:04:24+0200</time>
      </trkpt>
      <trkpt lat="45.03247" lon="3.36772">
        <ele>1206.14942</ele>
        <time>2021-07-09T14:04:26+0200</time>
      </trkpt>
      <trkpt lat="45.03248" lon="3.36784">
        <ele>1204.503682</ele>
        <time>2021-07-09T14:04:28+0200</time>
      </trkpt>
      <trkpt lat="45.03249" lon="3.3679">
        <ele>1203.406283</ele>
        <time>2021-07-09T14:04:29+0200</time>
      </trkpt>
      <trkpt lat="45.0325" lon="3.36797">
        <ele>1202.677864</ele>
        <time>2021-07-09T14:04:30+0200</time>
      </trkpt>
      <trkpt lat="45.03251" lon="3.36805">
        <ele>1201.68203</ele>
        <time>2021-07-09T14:04:31+0200</time>
      </trkpt>
      <trkpt lat="45.03252" lon="3.36812">
        <ele>1201.269539</ele>
        <time>2021-07-09T14:04:32+0200</time>
      </trkpt>
      <trkpt lat="45.03253" lon="3.36823">
        <ele>1202.751006</ele>
        <time>2021-07-09T14:04:34+0200</time>
      </trkpt>
      <trkpt lat="45.03251" lon="3.36832">
        <ele>1202.913458</ele>
        <time>2021-07-09T14:04:36+0200</time>
      </trkpt>
      <trkpt lat="45.03252" lon="3.36841">
        <ele>1202.126342</ele>
        <time>2021-07-09T14:04:38+0200</time>
      </trkpt>
      <trkpt lat="45.03252" lon="3.36849">
        <ele>1202.320158</ele>
        <time>2021-07-09T14:04:40+0200</time>
      </trkpt>
      <trkpt lat="45.03252" lon="3.36862">
        <ele>1200.013646</ele>
        <time>2021-07-09T14:04:42+0200</time>
      </trkpt>
      <trkpt lat="45.03253" lon="3.36873">
        <ele>1199.515206</ele>
        <time>2021-07-09T14:04:44+0200</time>
      </trkpt>
      <trkpt lat="45.03252" lon="3.36884">
        <ele>1196.920203</ele>
        <time>2021-07-09T14:04:46+0200</time>
      </trkpt>
      <trkpt lat="45.03253" lon="3.36892">
        <ele>1199.449513</ele>
        <time>2021-07-09T14:04:47+0200</time>
      </trkpt>
      <trkpt lat="45.03254" lon="3.36903">
        <ele>1202.76612</ele>
        <time>2021-07-09T14:04:49+0200</time>
      </trkpt>
      <trkpt lat="45.03254" lon="3.3691">
        <ele>1200.533641</ele>
        <time>2021-07-09T14:04:50+0200</time>
      </trkpt>
      <trkpt lat="45.03254" lon="3.36919">
        <ele>1198.665072</ele>
        <time>2021-07-09T14:04:52+0200</time>
      </trkpt>
      <trkpt lat="45.03254" lon="3.36929">
        <ele>1197.896965</ele>
        <time>2021-07-09T14:04:54+0200</time>
      </trkpt>
      <trkpt lat="45.03257" lon="3.36938">
        <ele>1198.791343</ele>
        <time>2021-07-09T14:04:56+0200</time>
      </trkpt>
      <trkpt lat="45.03258" lon="3.36948">
        <ele>1200.552651</ele>
        <time>2021-07-09T14:04:58+0200</time>
      </trkpt>
      <trkpt lat="45.03261" lon="3.36958">
        <ele>1198.696664</ele>
        <time>2021-07-09T14:05:00+0200</time>
      </trkpt>
      <trkpt lat="45.03263" lon="3.3697">
        <ele>1198.008199</ele>
        <time>2021-07-09T14:05:02+0200</time>
      </trkpt>
      <trkpt lat="45.03266" lon="3.36981">
        <ele>1197.925916</ele>
        <time>2021-07-09T14:05:04+0200</time>
      </trkpt>
      <trkpt lat="45.0327" lon="3.3699">
        <ele>1198.036947</ele>
        <time>2021-07-09T14:05:06+0200</time>
      </trkpt>
      <trkpt lat="45.03272" lon="3.37">
        <ele>1197.057096</ele>
        <time>2021-07-09T14:05:08+0200</time>
      </trkpt>
      <trkpt lat="45.03274" lon="3.37011">
        <ele>1196.661003</ele>
        <time>2021-07-09T14:05:10+0200</time>
      </trkpt>
      <trkpt lat="45.03277" lon="3.3702">
        <ele>1196.943615</ele>
        <time>2021-07-09T14:05:12+0200</time>
      </trkpt>
      <trkpt lat="45.0328" lon="3.37031">
        <ele>1197.424068</ele>
        <time>2021-07-09T14:05:14+0200</time>
      </trkpt>
      <trkpt lat="45.03283" lon="3.37042">
        <ele>1198.907271</ele>
        <time>2021-07-09T14:05:16+0200</time>
      </trkpt>
      <trkpt lat="45.03285" lon="3.37053">
        <ele>1200.434992</ele>
        <time>2021-07-09T14:05:18+0200</time>
      </trkpt>
      <trkpt lat="45.03286" lon="3.37059">
        <ele>1200.023007</ele>
        <time>2021-07-09T14:05:19+0200</time>
      </trkpt>
      <trkpt lat="45.03288" lon="3.3707">
        <ele>1199.048016</ele>
        <time>2021-07-09T14:05:21+0200</time>
      </trkpt>
      <trkpt lat="45.03291" lon="3.3708">
        <ele>1199.179128</ele>
        <time>2021-07-09T14:05:23+0200</time>
      </trkpt>
      <trkpt lat="45.03295" lon="3.3709">
        <ele>1200.392007</ele>
        <time>2021-07-09T14:05:25+0200</time>
      </trkpt>
      <trkpt lat="45.03298" lon="3.371">
        <ele>1202.1638</ele>
        <time>2021-07-09T14:05:27+0200</time>
      </trkpt>
      <trkpt lat="45.033" lon="3.3711">
        <ele>1202.976153</ele>
        <time>2021-07-09T14:05:29+0200</time>
      </trkpt>
      <trkpt lat="45.03303" lon="3.37119">
        <ele>1202.875958</ele>
        <time>2021-07-09T14:05:31+0200</time>
      </trkpt>
      <trkpt lat="45.03307" lon="3.37127">
        <ele>1203.438352</ele>
        <time>2021-07-09T14:05:33+0200</time>
      </trkpt>
      <trkpt lat="45.03309" lon="3.37136">
        <ele>1203.751378</ele>
        <time>2021-07-09T14:05:35+0200</time>
      </trkpt>
      <trkpt lat="45.03313" lon="3.37145">
        <ele>1202.88423</ele>
        <time>2021-07-09T14:05:37+0200</time>
      </trkpt>
      <trkpt lat="45.03316" lon="3.37155">
        <ele>1203.466775</ele>
        <time>2021-07-09T14:05:39+0200</time>
      </trkpt>
      <trkpt lat="45.03319" lon="3.37167">
        <ele>1203.14055</ele>
        <time>2021-07-09T14:05:41+0200</time>
      </trkpt>
      <trkpt lat="45.03322" lon="3.37176">
        <ele>1199.910507</ele>
        <time>2021-07-09T14:05:43+0200</time>
      </trkpt>
      <trkpt lat="45.03324" lon="3.37186">
        <ele>1201.615474</ele>
        <time>2021-07-09T14:05:45+0200</time>
      </trkpt>
      <trkpt lat="45.03327" lon="3.37197">
        <ele>1200.281347</ele>
        <time>2021-07-09T14:05:47+0200</time>
      </trkpt>
      <trkpt lat="45.03331" lon="3.37206">
        <ele>1197.557195</ele>
        <time>2021-07-09T14:05:49+0200</time>
      </trkpt>
      <trkpt lat="45.03334" lon="3.37216">
        <ele>1198.130562</ele>
        <time>2021-07-09T14:05:51+0200</time>
      </trkpt>
      <trkpt lat="45.03336" lon="3.37226">
        <ele>1198.532737</ele>
        <time>2021-07-09T14:05:53+0200</time>
      </trkpt>
      <trkpt lat="45.03338" lon="3.37236">
        <ele>1199.364056</ele>
        <time>2021-07-09T14:05:55+0200</time>
      </trkpt>
      <trkpt lat="45.03341" lon="3.37246">
        <ele>1201.542833</ele>
        <time>2021-07-09T14:05:57+0200</time>
      </trkpt>
      <trkpt lat="45.03343" lon="3.37257">
        <ele>1201.949982</ele>
        <time>2021-07-09T14:05:59+0200</time>
      </trkpt>
      <trkpt lat="45.03346" lon="3.37266">
        <ele>1200.195217</ele>
        <time>2021-07-09T14:06:01+0200</time>
      </trkpt>
      <trkpt lat="45.03348" lon="3.37278">
        <ele>1199.617741</ele>
        <time>2021-07-09T14:06:03+0200</time>
      </trkpt>
      <trkpt lat="45.03351" lon="3.37285">
        <ele>1199.732096</ele>
        <time>2021-07-09T14:06:04+0200</time>
      </trkpt>
      <trkpt lat="45.03353" lon="3.37296">
        <ele>1199.255086</ele>
        <time>2021-07-09T14:06:06+0200</time>
      </trkpt>
      <trkpt lat="45.03355" lon="3.37302">
        <ele>1198.912071</ele>
        <time>2021-07-09T14:06:07+0200</time>
      </trkpt>
      <trkpt lat="45.03359" lon="3.37314">
        <ele>1197.947544</ele>
        <time>2021-07-09T14:06:09+0200</time>
      </trkpt>
      <trkpt lat="45.0336" lon="3.37325">
        <ele>1198.689414</ele>
        <time>2021-07-09T14:06:11+0200</time>
      </trkpt>
      <trkpt lat="45.03361" lon="3.37336">
        <ele>1198.806699</ele>
        <time>2021-07-09T14:06:13+0200</time>
      </trkpt>
      <trkpt lat="45.03364" lon="3.37347">
        <ele>1198.158554</ele>
        <time>2021-07-09T14:06:15+0200</time>
      </trkpt>
      <trkpt lat="45.03366" lon="3.37359">
        <ele>1197.318554</ele>
        <time>2021-07-09T14:06:17+0200</time>
      </trkpt>
      <trkpt lat="45.03368" lon="3.37365">
        <ele>1196.085889</ele>
        <time>2021-07-09T14:06:18+0200</time>
      </trkpt>
      <trkpt lat="45.0337" lon="3.37377">
        <ele>1193.549432</ele>
        <time>2021-07-09T14:06:20+0200</time>
      </trkpt>
      <trkpt lat="45.03373" lon="3.37387">
        <ele>1194.642229</ele>
        <time>2021-07-09T14:06:22+0200</time>
      </trkpt>
      <trkpt lat="45.03375" lon="3.37397">
        <ele>1195.559208</ele>
        <time>2021-07-09T14:06:24+0200</time>
      </trkpt>
      <trkpt lat="45.03374" lon="3.37405">
        <ele>1196.633312</ele>
        <time>2021-07-09T14:06:26+0200</time>
      </trkpt>
      <trkpt lat="45.03373" lon="3.37413">
        <ele>1197.221874</ele>
        <time>2021-07-09T14:06:28+0200</time>
      </trkpt>
      <trkpt lat="45.03373" lon="3.37421">
        <ele>1198.268916</ele>
        <time>2021-07-09T14:06:30+0200</time>
      </trkpt>
      <trkpt lat="45.03373" lon="3.37429">
        <ele>1198.71747</ele>
        <time>2021-07-09T14:06:32+0200</time>
      </trkpt>
      <trkpt lat="45.03373" lon="3.37438">
        <ele>1198.67176</ele>
        <time>2021-07-09T14:06:34+0200</time>
      </trkpt>
      <trkpt lat="45.03373" lon="3.37445">
        <ele>1198.626213</ele>
        <time>2021-07-09T14:06:36+0200</time>
      </trkpt>
      <trkpt lat="45.03374" lon="3.37453">
        <ele>1198.826443</ele>
        <time>2021-07-09T14:06:38+0200</time>
      </trkpt>
      <trkpt lat="45.03375" lon="3.37462">
        <ele>1198.955689</ele>
        <time>2021-07-09T14:06:40+0200</time>
      </trkpt>
      <trkpt lat="45.03375" lon="3.37471">
        <ele>1198.941552</ele>
        <time>2021-07-09T14:06:42+0200</time>
      </trkpt>
      <trkpt lat="45.03375" lon="3.37479">
        <ele>1198.891709</ele>
        <time>2021-07-09T14:06:44+0200</time>
      </trkpt>
      <trkpt lat="45.03374" lon="3.37487">
        <ele>1199.461054</ele>
        <time>2021-07-09T14:06:46+0200</time>
      </trkpt>
      <trkpt lat="45.03374" lon="3.37496">
        <ele>1199.798754</ele>
        <time>2021-07-09T14:06:48+0200</time>
      </trkpt>
      <trkpt lat="45.03374" lon="3.37504">
        <ele>1199.695123</ele>
        <time>2021-07-09T14:06:50+0200</time>
      </trkpt>
      <trkpt lat="45.03374" lon="3.37512">
        <ele>1200.277155</ele>
        <time>2021-07-09T14:06:52+0200</time>
      </trkpt>
      <trkpt lat="45.03372" lon="3.3752">
        <ele>1200.329448</ele>
        <time>2021-07-09T14:06:54+0200</time>
      </trkpt>
      <trkpt lat="45.03372" lon="3.37528">
        <ele>1200.512263</ele>
        <time>2021-07-09T14:06:56+0200</time>
      </trkpt>
      <trkpt lat="45.03371" lon="3.37538">
        <ele>1200.898463</ele>
        <time>2021-07-09T14:06:58+0200</time>
      </trkpt>
      <trkpt lat="45.03371" lon="3.37547">
        <ele>1200.581464</ele>
        <time>2021-07-09T14:07:00+0200</time>
      </trkpt>
      <trkpt lat="45.03371" lon="3.37555">
        <ele>1200.909285</ele>
        <time>2021-07-09T14:07:02+0200</time>
      </trkpt>
      <trkpt lat="45.0337" lon="3.37564">
        <ele>1201.114653</ele>
        <time>2021-07-09T14:07:04+0200</time>
      </trkpt>
      <trkpt lat="45.0337" lon="3.37573">
        <ele>1201.22608</ele>
        <time>2021-07-09T14:07:06+0200</time>
      </trkpt>
      <trkpt lat="45.03369" lon="3.37581">
        <ele>1201.48489</ele>
        <time>2021-07-09T14:07:08+0200</time>
      </trkpt>
      <trkpt lat="45.03369" lon="3.37589">
        <ele>1200.913615</ele>
        <time>2021-07-09T14:07:10+0200</time>
      </trkpt>
      <trkpt lat="45.03368" lon="3.37597">
        <ele>1200.323772</ele>
        <time>2021-07-09T14:07:12+0200</time>
      </trkpt>
      <trkpt lat="45.03367" lon="3.37607">
        <ele>1200.046142</ele>
        <time>2021-07-09T14:07:14+0200</time>
      </trkpt>
      <trkpt lat="45.03366" lon="3.37615">
        <ele>1200.307674</ele>
        <time>2021-07-09T14:07:16+0200</time>
      </trkpt>
      <trkpt lat="45.03365" lon="3.37622">
        <ele>1200.173879</ele>
        <time>2021-07-09T14:07:18+0200</time>
      </trkpt>
      <trkpt lat="45.03364" lon="3.37629">
        <ele>1200.134345</ele>
        <time>2021-07-09T14:07:21+0200</time>
      </trkpt>
      <trkpt lat="45.03364" lon="3.37636">
        <ele>1199.75484</ele>
        <time>2021-07-09T14:07:24+0200</time>
      </trkpt>
      <trkpt lat="45.03367" lon="3.37642">
        <ele>1198.44439</ele>
        <time>2021-07-09T14:07:28+0200</time>
      </trkpt>
      <trkpt lat="45.03369" lon="3.37649">
        <ele>1198.06696</ele>
        <time>2021-07-09T14:07:30+0200</time>
      </trkpt>
      <trkpt lat="45.03371" lon="3.37657">
        <ele>1197.114217</ele>
        <time>2021-07-09T14:07:33+0200</time>
      </trkpt>
      <trkpt lat="45.03374" lon="3.37663">
        <ele>1196.931294</ele>
        <time>2021-07-09T14:07:35+0200</time>
      </trkpt>
      <trkpt lat="45.03375" lon="3.37673">
        <ele>1197.303822</ele>
        <time>2021-07-09T14:07:37+0200</time>
      </trkpt>
      <trkpt lat="45.03374" lon="3.37683">
        <ele>1196.787271</ele>
        <time>2021-07-09T14:07:39+0200</time>
      </trkpt>
      <trkpt lat="45.03374" lon="3.37693">
        <ele>1195.954957</ele>
        <time>2021-07-09T14:07:41+0200</time>
      </trkpt>
      <trkpt lat="45.03372" lon="3.37703">
        <ele>1195.761919</ele>
        <time>2021-07-09T14:07:43+0200</time>
      </trkpt>
      <trkpt lat="45.03371" lon="3.37712">
        <ele>1195.643445</ele>
        <time>2021-07-09T14:07:45+0200</time>
      </trkpt>
      <trkpt lat="45.03371" lon="3.37722">
        <ele>1195.735216</ele>
        <time>2021-07-09T14:07:47+0200</time>
      </trkpt>
      <trkpt lat="45.03371" lon="3.37733">
        <ele>1195.178822</ele>
        <time>2021-07-09T14:07:49+0200</time>
      </trkpt>
      <trkpt lat="45.03371" lon="3.37744">
        <ele>1194.357496</ele>
        <time>2021-07-09T14:07:51+0200</time>
      </trkpt>
      <trkpt lat="45.03371" lon="3.37754">
        <ele>1193.765974</ele>
        <time>2021-07-09T14:07:53+0200</time>
      </trkpt>
      <trkpt lat="45.03371" lon="3.37762">
        <ele>1192.85489</ele>
        <time>2021-07-09T14:07:55+0200</time>
      </trkpt>
      <trkpt lat="45.03371" lon="3.3777">
        <ele>1192.152415</ele>
        <time>2021-07-09T14:07:58+0200</time>
      </trkpt>
      <trkpt lat="45.03374" lon="3.37775">
        <ele>1191.549854</ele>
        <time>2021-07-09T14:08:01+0200</time>
      </trkpt>
      <trkpt lat="45.03378" lon="3.37779">
        <ele>1190.981601</ele>
        <time>2021-07-09T14:08:03+0200</time>
      </trkpt>
      <trkpt lat="45.03383" lon="3.37785">
        <ele>1189.849885</ele>
        <time>2021-07-09T14:08:05+0200</time>
      </trkpt>
      <trkpt lat="45.03389" lon="3.37791">
        <ele>1189.713237</ele>
        <time>2021-07-09T14:08:07+0200</time>
      </trkpt>
      <trkpt lat="45.03396" lon="3.37797">
        <ele>1189.174348</ele>
        <time>2021-07-09T14:08:09+0200</time>
      </trkpt>
      <trkpt lat="45.03404" lon="3.37803">
        <ele>1188.956788</ele>
        <time>2021-07-09T14:08:11+0200</time>
      </trkpt>
      <trkpt lat="45.03411" lon="3.3781">
        <ele>1189.066198</ele>
        <time>2021-07-09T14:08:13+0200</time>
      </trkpt>
      <trkpt lat="45.03417" lon="3.37818">
        <ele>1188.928757</ele>
        <time>2021-07-09T14:08:15+0200</time>
      </trkpt>
      <trkpt lat="45.03423" lon="3.37827">
        <ele>1188.562149</ele>
        <time>2021-07-09T14:08:17+0200</time>
      </trkpt>
      <trkpt lat="45.0343" lon="3.37835">
        <ele>1188.141185</ele>
        <time>2021-07-09T14:08:19+0200</time>
      </trkpt>
      <trkpt lat="45.03433" lon="3.37839">
        <ele>1188.131924</ele>
        <time>2021-07-09T14:08:20+0200</time>
      </trkpt>
      <trkpt lat="45.03441" lon="3.37846">
        <ele>1187.487639</ele>
        <time>2021-07-09T14:08:22+0200</time>
      </trkpt>
      <trkpt lat="45.03445" lon="3.3785">
        <ele>1187.088756</ele>
        <time>2021-07-09T14:08:23+0200</time>
      </trkpt>
      <trkpt lat="45.0345" lon="3.37854">
        <ele>1186.65701</ele>
        <time>2021-07-09T14:08:24+0200</time>
      </trkpt>
      <trkpt lat="45.03454" lon="3.37857">
        <ele>1186.069421</ele>
        <time>2021-07-09T14:08:25+0200</time>
      </trkpt>
      <trkpt lat="45.0346" lon="3.37861">
        <ele>1185.835562</ele>
        <time>2021-07-09T14:08:26+0200</time>
      </trkpt>
      <trkpt lat="45.03464" lon="3.37866">
        <ele>1185.459453</ele>
        <time>2021-07-09T14:08:27+0200</time>
      </trkpt>
      <trkpt lat="45.03468" lon="3.37871">
        <ele>1185.264796</ele>
        <time>2021-07-09T14:08:28+0200</time>
      </trkpt>
      <trkpt lat="45.03472" lon="3.37875">
        <ele>1184.709523</ele>
        <time>2021-07-09T14:08:29+0200</time>
      </trkpt>
      <trkpt lat="45.03476" lon="3.37881">
        <ele>1184.16772</ele>
        <time>2021-07-09T14:08:30+0200</time>
      </trkpt>
      <trkpt lat="45.0348" lon="3.37887">
        <ele>1183.786429</ele>
        <time>2021-07-09T14:08:31+0200</time>
      </trkpt>
      <trkpt lat="45.03483" lon="3.37893">
        <ele>1183.670215</ele>
        <time>2021-07-09T14:08:32+0200</time>
      </trkpt>
      <trkpt lat="45.03487" lon="3.37899">
        <ele>1183.01891</ele>
        <time>2021-07-09T14:08:33+0200</time>
      </trkpt>
      <trkpt lat="45.03491" lon="3.37908">
        <ele>1182.062979</ele>
        <time>2021-07-09T14:08:34+0200</time>
      </trkpt>
      <trkpt lat="45.03495" lon="3.37916">
        <ele>1181.539989</ele>
        <time>2021-07-09T14:08:35+0200</time>
      </trkpt>
      <trkpt lat="45.035" lon="3.37924">
        <ele>1181.645926</ele>
        <time>2021-07-09T14:08:36+0200</time>
      </trkpt>
      <trkpt lat="45.03505" lon="3.37934">
        <ele>1180.54347</ele>
        <time>2021-07-09T14:08:37+0200</time>
      </trkpt>
      <trkpt lat="45.03509" lon="3.37945">
        <ele>1179.104064</ele>
        <time>2021-07-09T14:08:38+0200</time>
      </trkpt>
      <trkpt lat="45.03515" lon="3.37956">
        <ele>1178.081271</ele>
        <time>2021-07-09T14:08:39+0200</time>
      </trkpt>
      <trkpt lat="45.0352" lon="3.37967">
        <ele>1176.738656</ele>
        <time>2021-07-09T14:08:40+0200</time>
      </trkpt>
      <trkpt lat="45.03526" lon="3.37979">
        <ele>1176.118417</ele>
        <time>2021-07-09T14:08:41+0200</time>
      </trkpt>
      <trkpt lat="45.03531" lon="3.37989">
        <ele>1175.0367</ele>
        <time>2021-07-09T14:08:42+0200</time>
      </trkpt>
      <trkpt lat="45.03537" lon="3.38001">
        <ele>1173.792856</ele>
        <time>2021-07-09T14:08:43+0200</time>
      </trkpt>
      <trkpt lat="45.03543" lon="3.38013">
        <ele>1172.456977</ele>
        <time>2021-07-09T14:08:44+0200</time>
      </trkpt>
      <trkpt lat="45.03549" lon="3.38025">
        <ele>1171.532661</ele>
        <time>2021-07-09T14:08:45+0200</time>
      </trkpt>
      <trkpt lat="45.03555" lon="3.38037">
        <ele>1169.967611</ele>
        <time>2021-07-09T14:08:46+0200</time>
      </trkpt>
      <trkpt lat="45.03561" lon="3.38049">
        <ele>1168.781916</ele>
        <time>2021-07-09T14:08:47+0200</time>
      </trkpt>
      <trkpt lat="45.03566" lon="3.38061">
        <ele>1167.298159</ele>
        <time>2021-07-09T14:08:48+0200</time>
      </trkpt>
      <trkpt lat="45.03572" lon="3.38072">
        <ele>1166.020928</ele>
        <time>2021-07-09T14:08:49+0200</time>
      </trkpt>
      <trkpt lat="45.03579" lon="3.38083">
        <ele>1165.988415</ele>
        <time>2021-07-09T14:08:50+0200</time>
      </trkpt>
      <trkpt lat="45.03585" lon="3.38094">
        <ele>1164.632118</ele>
        <time>2021-07-09T14:08:51+0200</time>
      </trkpt>
      <trkpt lat="45.03591" lon="3.38106">
        <ele>1162.851662</ele>
        <time>2021-07-09T14:08:52+0200</time>
      </trkpt>
      <trkpt lat="45.03598" lon="3.38117">
        <ele>1160.917561</ele>
        <time>2021-07-09T14:08:53+0200</time>
      </trkpt>
      <trkpt lat="45.03604" lon="3.38129">
        <ele>1159.775913</ele>
        <time>2021-07-09T14:08:54+0200</time>
      </trkpt>
      <trkpt lat="45.0361" lon="3.3814">
        <ele>1158.451172</ele>
        <time>2021-07-09T14:08:55+0200</time>
      </trkpt>
      <trkpt lat="45.03617" lon="3.38151">
        <ele>1158.014349</ele>
        <time>2021-07-09T14:08:56+0200</time>
      </trkpt>
      <trkpt lat="45.03623" lon="3.38162">
        <ele>1157.555633</ele>
        <time>2021-07-09T14:08:57+0200</time>
      </trkpt>
      <trkpt lat="45.03627" lon="3.38174">
        <ele>1157.110957</ele>
        <time>2021-07-09T14:08:58+0200</time>
      </trkpt>
      <trkpt lat="45.03631" lon="3.38187">
        <ele>1158.567513</ele>
        <time>2021-07-09T14:08:59+0200</time>
      </trkpt>
      <trkpt lat="45.03636" lon="3.38198">
        <ele>1159.562487</ele>
        <time>2021-07-09T14:09:00+0200</time>
      </trkpt>
      <trkpt lat="45.0364" lon="3.38209">
        <ele>1160.073395</ele>
        <time>2021-07-09T14:09:01+0200</time>
      </trkpt>
      <trkpt lat="45.03643" lon="3.38221">
        <ele>1160.132103</ele>
        <time>2021-07-09T14:09:02+0200</time>
      </trkpt>
      <trkpt lat="45.03648" lon="3.38231">
        <ele>1160.30157</ele>
        <time>2021-07-09T14:09:03+0200</time>
      </trkpt>
      <trkpt lat="45.03652" lon="3.38241">
        <ele>1160.61211</ele>
        <time>2021-07-09T14:09:04+0200</time>
      </trkpt>
      <trkpt lat="45.03655" lon="3.38252">
        <ele>1160.226637</ele>
        <time>2021-07-09T14:09:05+0200</time>
      </trkpt>
      <trkpt lat="45.03659" lon="3.38263">
        <ele>1160.54853</ele>
        <time>2021-07-09T14:09:06+0200</time>
      </trkpt>
      <trkpt lat="45.03663" lon="3.38274">
        <ele>1161.255845</ele>
        <time>2021-07-09T14:09:07+0200</time>
      </trkpt>
      <trkpt lat="45.03666" lon="3.38284">
        <ele>1162.859069</ele>
        <time>2021-07-09T14:09:08+0200</time>
      </trkpt>
      <trkpt lat="45.03669" lon="3.38296">
        <ele>1162.918347</ele>
        <time>2021-07-09T14:09:09+0200</time>
      </trkpt>
      <trkpt lat="45.03672" lon="3.38307">
        <ele>1162.683241</ele>
        <time>2021-07-09T14:09:10+0200</time>
      </trkpt>
      <trkpt lat="45.03676" lon="3.38318">
        <ele>1163.974438</ele>
        <time>2021-07-09T14:09:11+0200</time>
      </trkpt>
      <trkpt lat="45.03679" lon="3.38329">
        <ele>1164.017579</ele>
        <time>2021-07-09T14:09:12+0200</time>
      </trkpt>
      <trkpt lat="45.03681" lon="3.38341">
        <ele>1164.099905</ele>
        <time>2021-07-09T14:09:13+0200</time>
      </trkpt>
      <trkpt lat="45.03684" lon="3.38352">
        <ele>1164.51153</ele>
        <time>2021-07-09T14:09:14+0200</time>
      </trkpt>
      <trkpt lat="45.03686" lon="3.38362">
        <ele>1165.368242</ele>
        <time>2021-07-09T14:09:15+0200</time>
      </trkpt>
      <trkpt lat="45.03689" lon="3.38372">
        <ele>1164.947817</ele>
        <time>2021-07-09T14:09:16+0200</time>
      </trkpt>
      <trkpt lat="45.03692" lon="3.38382">
        <ele>1165.9745</ele>
        <time>2021-07-09T14:09:17+0200</time>
      </trkpt>
      <trkpt lat="45.03696" lon="3.38393">
        <ele>1165.865722</ele>
        <time>2021-07-09T14:09:18+0200</time>
      </trkpt>
      <trkpt lat="45.03698" lon="3.38404">
        <ele>1165.080084</ele>
        <time>2021-07-09T14:09:19+0200</time>
      </trkpt>
      <trkpt lat="45.03701" lon="3.38415">
        <ele>1164.697997</ele>
        <time>2021-07-09T14:09:20+0200</time>
      </trkpt>
      <trkpt lat="45.03704" lon="3.38426">
        <ele>1164.750291</ele>
        <time>2021-07-09T14:09:21+0200</time>
      </trkpt>
      <trkpt lat="45.03706" lon="3.38437">
        <ele>1164.640018</ele>
        <time>2021-07-09T14:09:22+0200</time>
      </trkpt>
      <trkpt lat="45.03708" lon="3.38449">
        <ele>1164.231958</ele>
        <time>2021-07-09T14:09:23+0200</time>
      </trkpt>
      <trkpt lat="45.03709" lon="3.38461">
        <ele>1164.267609</ele>
        <time>2021-07-09T14:09:24+0200</time>
      </trkpt>
      <trkpt lat="45.03711" lon="3.38471">
        <ele>1163.357312</ele>
        <time>2021-07-09T14:09:25+0200</time>
      </trkpt>
      <trkpt lat="45.03712" lon="3.38482">
        <ele>1162.581222</ele>
        <time>2021-07-09T14:09:26+0200</time>
      </trkpt>
      <trkpt lat="45.03715" lon="3.38492">
        <ele>1162.198126</ele>
        <time>2021-07-09T14:09:27+0200</time>
      </trkpt>
      <trkpt lat="45.03717" lon="3.38503">
        <ele>1162.146265</ele>
        <time>2021-07-09T14:09:28+0200</time>
      </trkpt>
      <trkpt lat="45.0372" lon="3.38512">
        <ele>1161.504267</ele>
        <time>2021-07-09T14:09:29+0200</time>
      </trkpt>
      <trkpt lat="45.03722" lon="3.38522">
        <ele>1161.118077</ele>
        <time>2021-07-09T14:09:30+0200</time>
      </trkpt>
      <trkpt lat="45.03724" lon="3.38532">
        <ele>1162.168933</ele>
        <time>2021-07-09T14:09:31+0200</time>
      </trkpt>
      <trkpt lat="45.03727" lon="3.38542">
        <ele>1162.028191</ele>
        <time>2021-07-09T14:09:32+0200</time>
      </trkpt>
      <trkpt lat="45.0373" lon="3.38551">
        <ele>1161.572934</ele>
        <time>2021-07-09T14:09:33+0200</time>
      </trkpt>
      <trkpt lat="45.03732" lon="3.3856">
        <ele>1162.212987</ele>
        <time>2021-07-09T14:09:34+0200</time>
      </trkpt>
      <trkpt lat="45.03735" lon="3.38569">
        <ele>1162.824499</ele>
        <time>2021-07-09T14:09:35+0200</time>
      </trkpt>
      <trkpt lat="45.03738" lon="3.38577">
        <ele>1162.284771</ele>
        <time>2021-07-09T14:09:36+0200</time>
      </trkpt>
      <trkpt lat="45.03742" lon="3.38586">
        <ele>1162.511319</ele>
        <time>2021-07-09T14:09:37+0200</time>
      </trkpt>
      <trkpt lat="45.03745" lon="3.38594">
        <ele>1162.299211</ele>
        <time>2021-07-09T14:09:38+0200</time>
      </trkpt>
      <trkpt lat="45.03749" lon="3.38602">
        <ele>1161.249868</ele>
        <time>2021-07-09T14:09:39+0200</time>
      </trkpt>
      <trkpt lat="45.03752" lon="3.3861">
        <ele>1160.696951</ele>
        <time>2021-07-09T14:09:40+0200</time>
      </trkpt>
      <trkpt lat="45.03755" lon="3.38619">
        <ele>1161.241558</ele>
        <time>2021-07-09T14:09:41+0200</time>
      </trkpt>
      <trkpt lat="45.03758" lon="3.38627">
        <ele>1161.135852</ele>
        <time>2021-07-09T14:09:42+0200</time>
      </trkpt>
      <trkpt lat="45.03763" lon="3.38636">
        <ele>1159.320114</ele>
        <time>2021-07-09T14:09:43+0200</time>
      </trkpt>
      <trkpt lat="45.03768" lon="3.38643">
        <ele>1157.757999</ele>
        <time>2021-07-09T14:09:44+0200</time>
      </trkpt>
      <trkpt lat="45.03772" lon="3.38651">
        <ele>1156.669412</ele>
        <time>2021-07-09T14:09:45+0200</time>
      </trkpt>
      <trkpt lat="45.03775" lon="3.38658">
        <ele>1156.677689</ele>
        <time>2021-07-09T14:09:46+0200</time>
      </trkpt>
      <trkpt lat="45.03778" lon="3.38667">
        <ele>1156.389193</ele>
        <time>2021-07-09T14:09:47+0200</time>
      </trkpt>
      <trkpt lat="45.03781" lon="3.38675">
        <ele>1156.425264</ele>
        <time>2021-07-09T14:09:48+0200</time>
      </trkpt>
      <trkpt lat="45.03785" lon="3.38683">
        <ele>1157.554278</ele>
        <time>2021-07-09T14:09:49+0200</time>
      </trkpt>
      <trkpt lat="45.03787" lon="3.38691">
        <ele>1157.347542</ele>
        <time>2021-07-09T14:09:50+0200</time>
      </trkpt>
      <trkpt lat="45.0379" lon="3.387">
        <ele>1157.620501</ele>
        <time>2021-07-09T14:09:51+0200</time>
      </trkpt>
      <trkpt lat="45.03793" lon="3.38708">
        <ele>1158.249093</ele>
        <time>2021-07-09T14:09:52+0200</time>
      </trkpt>
      <trkpt lat="45.03795" lon="3.38716">
        <ele>1158.375824</ele>
        <time>2021-07-09T14:09:53+0200</time>
      </trkpt>
      <trkpt lat="45.03798" lon="3.38723">
        <ele>1157.059066</ele>
        <time>2021-07-09T14:09:54+0200</time>
      </trkpt>
      <trkpt lat="45.03801" lon="3.38731">
        <ele>1156.77238</ele>
        <time>2021-07-09T14:09:55+0200</time>
      </trkpt>
      <trkpt lat="45.03804" lon="3.38739">
        <ele>1157.326522</ele>
        <time>2021-07-09T14:09:56+0200</time>
      </trkpt>
      <trkpt lat="45.03806" lon="3.38746">
        <ele>1157.771005</ele>
        <time>2021-07-09T14:09:57+0200</time>
      </trkpt>
      <trkpt lat="45.03808" lon="3.38754">
        <ele>1158.308447</ele>
        <time>2021-07-09T14:09:58+0200</time>
      </trkpt>
      <trkpt lat="45.03811" lon="3.38761">
        <ele>1158.219467</ele>
        <time>2021-07-09T14:09:59+0200</time>
      </trkpt>
      <trkpt lat="45.03813" lon="3.38769">
        <ele>1158.687273</ele>
        <time>2021-07-09T14:10:00+0200</time>
      </trkpt>
      <trkpt lat="45.03814" lon="3.38776">
        <ele>1159.52539</ele>
        <time>2021-07-09T14:10:01+0200</time>
      </trkpt>
      <trkpt lat="45.03815" lon="3.38784">
        <ele>1158.768287</ele>
        <time>2021-07-09T14:10:02+0200</time>
      </trkpt>
      <trkpt lat="45.03818" lon="3.38793">
        <ele>1158.787312</ele>
        <time>2021-07-09T14:10:03+0200</time>
      </trkpt>
      <trkpt lat="45.0382" lon="3.38802">
        <ele>1157.290769</ele>
        <time>2021-07-09T14:10:04+0200</time>
      </trkpt>
      <trkpt lat="45.03822" lon="3.38811">
        <ele>1157.734947</ele>
        <time>2021-07-09T14:10:05+0200</time>
      </trkpt>
      <trkpt lat="45.03823" lon="3.3882">
        <ele>1156.885809</ele>
        <time>2021-07-09T14:10:06+0200</time>
      </trkpt>
      <trkpt lat="45.03825" lon="3.38828">
        <ele>1157.427065</ele>
        <time>2021-07-09T14:10:07+0200</time>
      </trkpt>
      <trkpt lat="45.03826" lon="3.38837">
        <ele>1157.498789</ele>
        <time>2021-07-09T14:10:08+0200</time>
      </trkpt>
      <trkpt lat="45.03827" lon="3.38845">
        <ele>1157.304494</ele>
        <time>2021-07-09T14:10:09+0200</time>
      </trkpt>
      <trkpt lat="45.03829" lon="3.38853">
        <ele>1157.231086</ele>
        <time>2021-07-09T14:10:10+0200</time>
      </trkpt>
      <trkpt lat="45.0383" lon="3.3886">
        <ele>1155.874043</ele>
        <time>2021-07-09T14:10:11+0200</time>
      </trkpt>
      <trkpt lat="45.03833" lon="3.38867">
        <ele>1155.728498</ele>
        <time>2021-07-09T14:10:12+0200</time>
      </trkpt>
      <trkpt lat="45.03835" lon="3.38875">
        <ele>1155.516874</ele>
        <time>2021-07-09T14:10:13+0200</time>
      </trkpt>
      <trkpt lat="45.03838" lon="3.38883">
        <ele>1155.773127</ele>
        <time>2021-07-09T14:10:14+0200</time>
      </trkpt>
      <trkpt lat="45.0384" lon="3.38891">
        <ele>1155.768451</ele>
        <time>2021-07-09T14:10:15+0200</time>
      </trkpt>
      <trkpt lat="45.03843" lon="3.389">
        <ele>1154.330847</ele>
        <time>2021-07-09T14:10:16+0200</time>
      </trkpt>
      <trkpt lat="45.03846" lon="3.38908">
        <ele>1153.14535</ele>
        <time>2021-07-09T14:10:17+0200</time>
      </trkpt>
      <trkpt lat="45.0385" lon="3.38917">
        <ele>1152.711515</ele>
        <time>2021-07-09T14:10:18+0200</time>
      </trkpt>
      <trkpt lat="45.03854" lon="3.38927">
        <ele>1152.583604</ele>
        <time>2021-07-09T14:10:19+0200</time>
      </trkpt>
      <trkpt lat="45.03858" lon="3.38936">
        <ele>1152.52337</ele>
        <time>2021-07-09T14:10:20+0200</time>
      </trkpt>
      <trkpt lat="45.03862" lon="3.38945">
        <ele>1152.040193</ele>
        <time>2021-07-09T14:10:21+0200</time>
      </trkpt>
      <trkpt lat="45.03866" lon="3.38956">
        <ele>1152.370759</ele>
        <time>2021-07-09T14:10:22+0200</time>
      </trkpt>
      <trkpt lat="45.03869" lon="3.38965">
        <ele>1151.330049</ele>
        <time>2021-07-09T14:10:23+0200</time>
      </trkpt>
      <trkpt lat="45.03874" lon="3.38973">
        <ele>1150.707461</ele>
        <time>2021-07-09T14:10:24+0200</time>
      </trkpt>
      <trkpt lat="45.03878" lon="3.38982">
        <ele>1149.869821</ele>
        <time>2021-07-09T14:10:25+0200</time>
      </trkpt>
      <trkpt lat="45.03882" lon="3.38989">
        <ele>1149.018519</ele>
        <time>2021-07-09T14:10:26+0200</time>
      </trkpt>
      <trkpt lat="45.03887" lon="3.38997">
        <ele>1148.817557</ele>
        <time>2021-07-09T14:10:27+0200</time>
      </trkpt>
      <trkpt lat="45.03891" lon="3.39004">
        <ele>1148.613552</ele>
        <time>2021-07-09T14:10:28+0200</time>
      </trkpt>
      <trkpt lat="45.03895" lon="3.39012">
        <ele>1148.332408</ele>
        <time>2021-07-09T14:10:29+0200</time>
      </trkpt>
      <trkpt lat="45.03898" lon="3.39019">
        <ele>1147.987626</ele>
        <time>2021-07-09T14:10:30+0200</time>
      </trkpt>
      <trkpt lat="45.03902" lon="3.39026">
        <ele>1148.287635</ele>
        <time>2021-07-09T14:10:31+0200</time>
      </trkpt>
      <trkpt lat="45.03905" lon="3.39035">
        <ele>1148.800672</ele>
        <time>2021-07-09T14:10:32+0200</time>
      </trkpt>
      <trkpt lat="45.03907" lon="3.39043">
        <ele>1148.446771</ele>
        <time>2021-07-09T14:10:33+0200</time>
      </trkpt>
      <trkpt lat="45.0391" lon="3.3905">
        <ele>1148.237091</ele>
        <time>2021-07-09T14:10:34+0200</time>
      </trkpt>
      <trkpt lat="45.03913" lon="3.39057">
        <ele>1147.860972</ele>
        <time>2021-07-09T14:10:35+0200</time>
      </trkpt>
      <trkpt lat="45.03917" lon="3.39064">
        <ele>1147.850958</ele>
        <time>2021-07-09T14:10:36+0200</time>
      </trkpt>
      <trkpt lat="45.0392" lon="3.39072">
        <ele>1147.599419</ele>
        <time>2021-07-09T14:10:37+0200</time>
      </trkpt>
      <trkpt lat="45.03922" lon="3.39079">
        <ele>1147.308793</ele>
        <time>2021-07-09T14:10:38+0200</time>
      </trkpt>
      <trkpt lat="45.03925" lon="3.39086">
        <ele>1147.195642</ele>
        <time>2021-07-09T14:10:39+0200</time>
      </trkpt>
      <trkpt lat="45.03927" lon="3.39093">
        <ele>1147.116708</ele>
        <time>2021-07-09T14:10:40+0200</time>
      </trkpt>
      <trkpt lat="45.0393" lon="3.39099">
        <ele>1147.370265</ele>
        <time>2021-07-09T14:10:41+0200</time>
      </trkpt>
      <trkpt lat="45.03933" lon="3.39106">
        <ele>1147.539717</ele>
        <time>2021-07-09T14:10:42+0200</time>
      </trkpt>
      <trkpt lat="45.03935" lon="3.39113">
        <ele>1147.848247</ele>
        <time>2021-07-09T14:10:43+0200</time>
      </trkpt>
      <trkpt lat="45.03937" lon="3.3912">
        <ele>1148.02003</ele>
        <time>2021-07-09T14:10:44+0200</time>
      </trkpt>
      <trkpt lat="45.03939" lon="3.39127">
        <ele>1148.302215</ele>
        <time>2021-07-09T14:10:45+0200</time>
      </trkpt>
      <trkpt lat="45.03941" lon="3.39134">
        <ele>1148.383015</ele>
        <time>2021-07-09T14:10:46+0200</time>
      </trkpt>
      <trkpt lat="45.03944" lon="3.3914">
        <ele>1148.479466</ele>
        <time>2021-07-09T14:10:47+0200</time>
      </trkpt>
      <trkpt lat="45.03945" lon="3.39147">
        <ele>1148.019961</ele>
        <time>2021-07-09T14:10:48+0200</time>
      </trkpt>
      <trkpt lat="45.03947" lon="3.39153">
        <ele>1147.765606</ele>
        <time>2021-07-09T14:10:49+0200</time>
      </trkpt>
      <trkpt lat="45.0395" lon="3.3916">
        <ele>1148.003378</ele>
        <time>2021-07-09T14:10:50+0200</time>
      </trkpt>
      <trkpt lat="45.03951" lon="3.39166">
        <ele>1148.255562</ele>
        <time>2021-07-09T14:10:51+0200</time>
      </trkpt>
      <trkpt lat="45.03952" lon="3.39174">
        <ele>1148.520276</ele>
        <time>2021-07-09T14:10:52+0200</time>
      </trkpt>
      <trkpt lat="45.03953" lon="3.39181">
        <ele>1148.543043</ele>
        <time>2021-07-09T14:10:53+0200</time>
      </trkpt>
      <trkpt lat="45.03955" lon="3.39187">
        <ele>1148.455329</ele>
        <time>2021-07-09T14:10:54+0200</time>
      </trkpt>
      <trkpt lat="45.03956" lon="3.39194">
        <ele>1148.350051</ele>
        <time>2021-07-09T14:10:55+0200</time>
      </trkpt>
      <trkpt lat="45.03958" lon="3.392">
        <ele>1148.290111</ele>
        <time>2021-07-09T14:10:56+0200</time>
      </trkpt>
      <trkpt lat="45.03959" lon="3.39207">
        <ele>1148.219544</ele>
        <time>2021-07-09T14:10:57+0200</time>
      </trkpt>
      <trkpt lat="45.03961" lon="3.39214">
        <ele>1148.310661</ele>
        <time>2021-07-09T14:10:58+0200</time>
      </trkpt>
      <trkpt lat="45.03962" lon="3.3922">
        <ele>1148.256042</ele>
        <time>2021-07-09T14:10:59+0200</time>
      </trkpt>
      <trkpt lat="45.03963" lon="3.39226">
        <ele>1148.157403</ele>
        <time>2021-07-09T14:11:00+0200</time>
      </trkpt>
      <trkpt lat="45.03965" lon="3.39233">
        <ele>1148.096503</ele>
        <time>2021-07-09T14:11:01+0200</time>
      </trkpt>
      <trkpt lat="45.03966" lon="3.3924">
        <ele>1147.846529</ele>
        <time>2021-07-09T14:11:02+0200</time>
      </trkpt>
      <trkpt lat="45.03967" lon="3.39246">
        <ele>1147.966565</ele>
        <time>2021-07-09T14:11:03+0200</time>
      </trkpt>
      <trkpt lat="45.03968" lon="3.39253">
        <ele>1147.987042</ele>
        <time>2021-07-09T14:11:04+0200</time>
      </trkpt>
      <trkpt lat="45.0397" lon="3.39265">
        <ele>1148.427738</ele>
        <time>2021-07-09T14:11:06+0200</time>
      </trkpt>
      <trkpt lat="45.03972" lon="3.39276">
        <ele>1148.780422</ele>
        <time>2021-07-09T14:11:08+0200</time>
      </trkpt>
      <trkpt lat="45.03974" lon="3.39288">
        <ele>1149.154296</ele>
        <time>2021-07-09T14:11:10+0200</time>
      </trkpt>
      <trkpt lat="45.03977" lon="3.393">
        <ele>1149.170257</ele>
        <time>2021-07-09T14:11:12+0200</time>
      </trkpt>
      <trkpt lat="45.03978" lon="3.39311">
        <ele>1149.900713</ele>
        <time>2021-07-09T14:11:14+0200</time>
      </trkpt>
      <trkpt lat="45.0398" lon="3.39322">
        <ele>1150.582862</ele>
        <time>2021-07-09T14:11:16+0200</time>
      </trkpt>
      <trkpt lat="45.03982" lon="3.39333">
        <ele>1151.322622</ele>
        <time>2021-07-09T14:11:18+0200</time>
      </trkpt>
      <trkpt lat="45.03984" lon="3.39344">
        <ele>1151.275219</ele>
        <time>2021-07-09T14:11:20+0200</time>
      </trkpt>
      <trkpt lat="45.03986" lon="3.39355">
        <ele>1151.497873</ele>
        <time>2021-07-09T14:11:22+0200</time>
      </trkpt>
      <trkpt lat="45.03988" lon="3.39366">
        <ele>1151.868223</ele>
        <time>2021-07-09T14:11:24+0200</time>
      </trkpt>
      <trkpt lat="45.03991" lon="3.39378">
        <ele>1151.652744</ele>
        <time>2021-07-09T14:11:26+0200</time>
      </trkpt>
      <trkpt lat="45.03993" lon="3.39389">
        <ele>1151.750001</ele>
        <time>2021-07-09T14:11:28+0200</time>
      </trkpt>
      <trkpt lat="45.03995" lon="3.39401">
        <ele>1151.366091</ele>
        <time>2021-07-09T14:11:30+0200</time>
      </trkpt>
      <trkpt lat="45.03997" lon="3.39407">
        <ele>1151.083243</ele>
        <time>2021-07-09T14:11:31+0200</time>
      </trkpt>
      <trkpt lat="45.04" lon="3.39418">
        <ele>1151.368147</ele>
        <time>2021-07-09T14:11:33+0200</time>
      </trkpt>
      <trkpt lat="45.04003" lon="3.39429">
        <ele>1151.594398</ele>
        <time>2021-07-09T14:11:35+0200</time>
      </trkpt>
      <trkpt lat="45.04007" lon="3.3944">
        <ele>1151.931036</ele>
        <time>2021-07-09T14:11:37+0200</time>
      </trkpt>
      <trkpt lat="45.04009" lon="3.39452">
        <ele>1152.197265</ele>
        <time>2021-07-09T14:11:39+0200</time>
      </trkpt>
      <trkpt lat="45.04013" lon="3.39462">
        <ele>1152.324509</ele>
        <time>2021-07-09T14:11:41+0200</time>
      </trkpt>
      <trkpt lat="45.04014" lon="3.39468">
        <ele>1152.184932</ele>
        <time>2021-07-09T14:11:42+0200</time>
      </trkpt>
      <trkpt lat="45.04017" lon="3.3948">
        <ele>1152.396109</ele>
        <time>2021-07-09T14:11:44+0200</time>
      </trkpt>
      <trkpt lat="45.0402" lon="3.39491">
        <ele>1152.667167</ele>
        <time>2021-07-09T14:11:46+0200</time>
      </trkpt>
      <trkpt lat="45.04023" lon="3.39502">
        <ele>1153.655205</ele>
        <time>2021-07-09T14:11:48+0200</time>
      </trkpt>
      <trkpt lat="45.04025" lon="3.39513">
        <ele>1152.469261</ele>
        <time>2021-07-09T14:11:50+0200</time>
      </trkpt>
      <trkpt lat="45.04028" lon="3.39525">
        <ele>1151.690599</ele>
        <time>2021-07-09T14:11:52+0200</time>
      </trkpt>
      <trkpt lat="45.0403" lon="3.39532">
        <ele>1151.928783</ele>
        <time>2021-07-09T14:11:53+0200</time>
      </trkpt>
      <trkpt lat="45.0403" lon="3.39538">
        <ele>1152.534032</ele>
        <time>2021-07-09T14:11:54+0200</time>
      </trkpt>
      <trkpt lat="45.04031" lon="3.39545">
        <ele>1152.98136</ele>
        <time>2021-07-09T14:11:55+0200</time>
      </trkpt>
      <trkpt lat="45.04032" lon="3.39552">
        <ele>1153.244119</ele>
        <time>2021-07-09T14:11:56+0200</time>
      </trkpt>
      <trkpt lat="45.04032" lon="3.39558">
        <ele>1153.253415</ele>
        <time>2021-07-09T14:11:57+0200</time>
      </trkpt>
      <trkpt lat="45.04031" lon="3.39565">
        <ele>1153.608961</ele>
        <time>2021-07-09T14:11:58+0200</time>
      </trkpt>
      <trkpt lat="45.04032" lon="3.39572">
        <ele>1153.33002</ele>
        <time>2021-07-09T14:11:59+0200</time>
      </trkpt>
      <trkpt lat="45.04032" lon="3.3958">
        <ele>1153.719203</ele>
        <time>2021-07-09T14:12:00+0200</time>
      </trkpt>
      <trkpt lat="45.04032" lon="3.39588">
        <ele>1153.343396</ele>
        <time>2021-07-09T14:12:01+0200</time>
      </trkpt>
      <trkpt lat="45.04032" lon="3.39596">
        <ele>1152.9101</ele>
        <time>2021-07-09T14:12:02+0200</time>
      </trkpt>
      <trkpt lat="45.04032" lon="3.39603">
        <ele>1152.388864</ele>
        <time>2021-07-09T14:12:03+0200</time>
      </trkpt>
      <trkpt lat="45.04032" lon="3.39612">
        <ele>1151.851916</ele>
        <time>2021-07-09T14:12:04+0200</time>
      </trkpt>
      <trkpt lat="45.04033" lon="3.39619">
        <ele>1152.10949</ele>
        <time>2021-07-09T14:12:05+0200</time>
      </trkpt>
      <trkpt lat="45.04032" lon="3.39627">
        <ele>1152.407658</ele>
        <time>2021-07-09T14:12:06+0200</time>
      </trkpt>
      <trkpt lat="45.04032" lon="3.39636">
        <ele>1152.206489</ele>
        <time>2021-07-09T14:12:07+0200</time>
      </trkpt>
      <trkpt lat="45.04032" lon="3.39643">
        <ele>1151.446719</ele>
        <time>2021-07-09T14:12:08+0200</time>
      </trkpt>
      <trkpt lat="45.04032" lon="3.39651">
        <ele>1151.061692</ele>
        <time>2021-07-09T14:12:09+0200</time>
      </trkpt>
      <trkpt lat="45.04032" lon="3.39658">
        <ele>1151.192479</ele>
        <time>2021-07-09T14:12:10+0200</time>
      </trkpt>
      <trkpt lat="45.04032" lon="3.39666">
        <ele>1151.051115</ele>
        <time>2021-07-09T14:12:11+0200</time>
      </trkpt>
      <trkpt lat="45.04032" lon="3.39673">
        <ele>1150.365898</ele>
        <time>2021-07-09T14:12:12+0200</time>
      </trkpt>
      <trkpt lat="45.04033" lon="3.39682">
        <ele>1150.377732</ele>
        <time>2021-07-09T14:12:13+0200</time>
      </trkpt>
      <trkpt lat="45.04033" lon="3.39689">
        <ele>1150.483138</ele>
        <time>2021-07-09T14:12:14+0200</time>
      </trkpt>
      <trkpt lat="45.04033" lon="3.39697">
        <ele>1149.886571</ele>
        <time>2021-07-09T14:12:15+0200</time>
      </trkpt>
      <trkpt lat="45.04034" lon="3.39706">
        <ele>1150.128425</ele>
        <time>2021-07-09T14:12:16+0200</time>
      </trkpt>
      <trkpt lat="45.04034" lon="3.39714">
        <ele>1150.345349</ele>
        <time>2021-07-09T14:12:17+0200</time>
      </trkpt>
      <trkpt lat="45.04034" lon="3.39722">
        <ele>1150.192099</ele>
        <time>2021-07-09T14:12:18+0200</time>
      </trkpt>
      <trkpt lat="45.04034" lon="3.3973">
        <ele>1149.961782</ele>
        <time>2021-07-09T14:12:19+0200</time>
      </trkpt>
      <trkpt lat="45.04034" lon="3.39739">
        <ele>1149.931899</ele>
        <time>2021-07-09T14:12:20+0200</time>
      </trkpt>
      <trkpt lat="45.04035" lon="3.39747">
        <ele>1150.040611</ele>
        <time>2021-07-09T14:12:21+0200</time>
      </trkpt>
      <trkpt lat="45.04035" lon="3.39756">
        <ele>1149.972535</ele>
        <time>2021-07-09T14:12:22+0200</time>
      </trkpt>
      <trkpt lat="45.04035" lon="3.39764">
        <ele>1149.206885</ele>
        <time>2021-07-09T14:12:23+0200</time>
      </trkpt>
      <trkpt lat="45.04036" lon="3.39772">
        <ele>1149.064892</ele>
        <time>2021-07-09T14:12:24+0200</time>
      </trkpt>
      <trkpt lat="45.04037" lon="3.39781">
        <ele>1149.190973</ele>
        <time>2021-07-09T14:12:25+0200</time>
      </trkpt>
      <trkpt lat="45.04038" lon="3.39789">
        <ele>1148.534535</ele>
        <time>2021-07-09T14:12:26+0200</time>
      </trkpt>
      <trkpt lat="45.04037" lon="3.39798">
        <ele>1148.289933</ele>
        <time>2021-07-09T14:12:27+0200</time>
      </trkpt>
      <trkpt lat="45.04037" lon="3.39806">
        <ele>1148.472588</ele>
        <time>2021-07-09T14:12:28+0200</time>
      </trkpt>
      <trkpt lat="45.04037" lon="3.39814">
        <ele>1148.361324</ele>
        <time>2021-07-09T14:12:29+0200</time>
      </trkpt>
      <trkpt lat="45.04037" lon="3.39821">
        <ele>1147.32054</ele>
        <time>2021-07-09T14:12:30+0200</time>
      </trkpt>
      <trkpt lat="45.04038" lon="3.3983">
        <ele>1146.439243</ele>
        <time>2021-07-09T14:12:31+0200</time>
      </trkpt>
      <trkpt lat="45.04039" lon="3.39838">
        <ele>1146.319</ele>
        <time>2021-07-09T14:12:32+0200</time>
      </trkpt>
      <trkpt lat="45.04038" lon="3.39847">
        <ele>1145.761633</ele>
        <time>2021-07-09T14:12:33+0200</time>
      </trkpt>
      <trkpt lat="45.04038" lon="3.39856">
        <ele>1145.510577</ele>
        <time>2021-07-09T14:12:34+0200</time>
      </trkpt>
      <trkpt lat="45.04039" lon="3.39865">
        <ele>1145.484109</ele>
        <time>2021-07-09T14:12:35+0200</time>
      </trkpt>
      <trkpt lat="45.04039" lon="3.39873">
        <ele>1144.732544</ele>
        <time>2021-07-09T14:12:36+0200</time>
      </trkpt>
      <trkpt lat="45.04039" lon="3.3988">
        <ele>1144.482425</ele>
        <time>2021-07-09T14:12:37+0200</time>
      </trkpt>
      <trkpt lat="45.04039" lon="3.39888">
        <ele>1143.708679</ele>
        <time>2021-07-09T14:12:38+0200</time>
      </trkpt>
      <trkpt lat="45.0404" lon="3.39895">
        <ele>1143.485886</ele>
        <time>2021-07-09T14:12:39+0200</time>
      </trkpt>
      <trkpt lat="45.04041" lon="3.39903">
        <ele>1143.193452</ele>
        <time>2021-07-09T14:12:40+0200</time>
      </trkpt>
      <trkpt lat="45.04042" lon="3.39911">
        <ele>1142.958071</ele>
        <time>2021-07-09T14:12:41+0200</time>
      </trkpt>
      <trkpt lat="45.04043" lon="3.39918">
        <ele>1142.908127</ele>
        <time>2021-07-09T14:12:42+0200</time>
      </trkpt>
      <trkpt lat="45.04044" lon="3.39926">
        <ele>1142.491543</ele>
        <time>2021-07-09T14:12:43+0200</time>
      </trkpt>
      <trkpt lat="45.04044" lon="3.39933">
        <ele>1142.648796</ele>
        <time>2021-07-09T14:12:44+0200</time>
      </trkpt>
      <trkpt lat="45.04046" lon="3.3994">
        <ele>1142.053572</ele>
        <time>2021-07-09T14:12:45+0200</time>
      </trkpt>
      <trkpt lat="45.04046" lon="3.39949">
        <ele>1142.066351</ele>
        <time>2021-07-09T14:12:46+0200</time>
      </trkpt>
      <trkpt lat="45.04048" lon="3.39956">
        <ele>1141.429539</ele>
        <time>2021-07-09T14:12:47+0200</time>
      </trkpt>
      <trkpt lat="45.04049" lon="3.39964">
        <ele>1142.415406</ele>
        <time>2021-07-09T14:12:48+0200</time>
      </trkpt>
      <trkpt lat="45.0405" lon="3.39972">
        <ele>1143.152089</ele>
        <time>2021-07-09T14:12:49+0200</time>
      </trkpt>
      <trkpt lat="45.04051" lon="3.3998">
        <ele>1143.396424</ele>
        <time>2021-07-09T14:12:50+0200</time>
      </trkpt>
      <trkpt lat="45.04052" lon="3.39988">
        <ele>1144.023452</ele>
        <time>2021-07-09T14:12:51+0200</time>
      </trkpt>
      <trkpt lat="45.04052" lon="3.39996">
        <ele>1143.639581</ele>
        <time>2021-07-09T14:12:52+0200</time>
      </trkpt>
      <trkpt lat="45.04051" lon="3.40002">
        <ele>1143.353007</ele>
        <time>2021-07-09T14:12:53+0200</time>
      </trkpt>
      <trkpt lat="45.04052" lon="3.4001">
        <ele>1144.025513</ele>
        <time>2021-07-09T14:12:54+0200</time>
      </trkpt>
      <trkpt lat="45.04053" lon="3.40017">
        <ele>1144.982543</ele>
        <time>2021-07-09T14:12:55+0200</time>
      </trkpt>
      <trkpt lat="45.04053" lon="3.40024">
        <ele>1145.673992</ele>
        <time>2021-07-09T14:12:56+0200</time>
      </trkpt>
      <trkpt lat="45.04054" lon="3.40032">
        <ele>1145.753461</ele>
        <time>2021-07-09T14:12:57+0200</time>
      </trkpt>
      <trkpt lat="45.04055" lon="3.40039">
        <ele>1146.042166</ele>
        <time>2021-07-09T14:12:58+0200</time>
      </trkpt>
      <trkpt lat="45.04055" lon="3.40047">
        <ele>1147.00725</ele>
        <time>2021-07-09T14:12:59+0200</time>
      </trkpt>
      <trkpt lat="45.04055" lon="3.40054">
        <ele>1147.503087</ele>
        <time>2021-07-09T14:13:00+0200</time>
      </trkpt>
      <trkpt lat="45.04055" lon="3.40062">
        <ele>1147.583742</ele>
        <time>2021-07-09T14:13:01+0200</time>
      </trkpt>
      <trkpt lat="45.04057" lon="3.40069">
        <ele>1147.312579</ele>
        <time>2021-07-09T14:13:02+0200</time>
      </trkpt>
      <trkpt lat="45.04057" lon="3.40077">
        <ele>1147.790717</ele>
        <time>2021-07-09T14:13:03+0200</time>
      </trkpt>
      <trkpt lat="45.04057" lon="3.40085">
        <ele>1148.56021</ele>
        <time>2021-07-09T14:13:04+0200</time>
      </trkpt>
      <trkpt lat="45.04057" lon="3.40092">
        <ele>1148.751094</ele>
        <time>2021-07-09T14:13:05+0200</time>
      </trkpt>
      <trkpt lat="45.04056" lon="3.401">
        <ele>1149.024698</ele>
        <time>2021-07-09T14:13:06+0200</time>
      </trkpt>
      <trkpt lat="45.04055" lon="3.40107">
        <ele>1149.224799</ele>
        <time>2021-07-09T14:13:07+0200</time>
      </trkpt>
      <trkpt lat="45.04055" lon="3.40115">
        <ele>1149.130273</ele>
        <time>2021-07-09T14:13:08+0200</time>
      </trkpt>
      <trkpt lat="45.04055" lon="3.40123">
        <ele>1148.836702</ele>
        <time>2021-07-09T14:13:09+0200</time>
      </trkpt>
      <trkpt lat="45.04056" lon="3.40131">
        <ele>1148.526368</ele>
        <time>2021-07-09T14:13:10+0200</time>
      </trkpt>
      <trkpt lat="45.04058" lon="3.40138">
        <ele>1148.342737</ele>
        <time>2021-07-09T14:13:11+0200</time>
      </trkpt>
      <trkpt lat="45.04057" lon="3.40145">
        <ele>1147.566688</ele>
        <time>2021-07-09T14:13:12+0200</time>
      </trkpt>
      <trkpt lat="45.04058" lon="3.40153">
        <ele>1147.139487</ele>
        <time>2021-07-09T14:13:13+0200</time>
      </trkpt>
      <trkpt lat="45.04059" lon="3.4016">
        <ele>1146.350929</ele>
        <time>2021-07-09T14:13:14+0200</time>
      </trkpt>
      <trkpt lat="45.0406" lon="3.40168">
        <ele>1145.492265</ele>
        <time>2021-07-09T14:13:15+0200</time>
      </trkpt>
      <trkpt lat="45.0406" lon="3.40176">
        <ele>1145.091469</ele>
        <time>2021-07-09T14:13:16+0200</time>
      </trkpt>
      <trkpt lat="45.04061" lon="3.40183">
        <ele>1144.818525</ele>
        <time>2021-07-09T14:13:17+0200</time>
      </trkpt>
      <trkpt lat="45.04062" lon="3.40189">
        <ele>1144.959051</ele>
        <time>2021-07-09T14:13:18+0200</time>
      </trkpt>
      <trkpt lat="45.04064" lon="3.40196">
        <ele>1145.000667</ele>
        <time>2021-07-09T14:13:19+0200</time>
      </trkpt>
      <trkpt lat="45.04064" lon="3.40204">
        <ele>1144.958265</ele>
        <time>2021-07-09T14:13:20+0200</time>
      </trkpt>
      <trkpt lat="45.04066" lon="3.40211">
        <ele>1143.968601</ele>
        <time>2021-07-09T14:13:21+0200</time>
      </trkpt>
      <trkpt lat="45.04067" lon="3.40218">
        <ele>1144.022695</ele>
        <time>2021-07-09T14:13:22+0200</time>
      </trkpt>
      <trkpt lat="45.04067" lon="3.40225">
        <ele>1143.258141</ele>
        <time>2021-07-09T14:13:23+0200</time>
      </trkpt>
      <trkpt lat="45.04069" lon="3.40232">
        <ele>1142.667521</ele>
        <time>2021-07-09T14:13:24+0200</time>
      </trkpt>
      <trkpt lat="45.04069" lon="3.40239">
        <ele>1143.260268</ele>
        <time>2021-07-09T14:13:25+0200</time>
      </trkpt>
      <trkpt lat="45.04071" lon="3.40246">
        <ele>1142.193829</ele>
        <time>2021-07-09T14:13:26+0200</time>
      </trkpt>
      <trkpt lat="45.04072" lon="3.40254">
        <ele>1141.476949</ele>
        <time>2021-07-09T14:13:27+0200</time>
      </trkpt>
      <trkpt lat="45.04072" lon="3.40262">
        <ele>1141.294178</ele>
        <time>2021-07-09T14:13:28+0200</time>
      </trkpt>
      <trkpt lat="45.04073" lon="3.40269">
        <ele>1140.831186</ele>
        <time>2021-07-09T14:13:29+0200</time>
      </trkpt>
      <trkpt lat="45.04074" lon="3.40277">
        <ele>1140.728804</ele>
        <time>2021-07-09T14:13:30+0200</time>
      </trkpt>
      <trkpt lat="45.04074" lon="3.40284">
        <ele>1141.304786</ele>
        <time>2021-07-09T14:13:31+0200</time>
      </trkpt>
      <trkpt lat="45.04074" lon="3.40292">
        <ele>1142.306009</ele>
        <time>2021-07-09T14:13:32+0200</time>
      </trkpt>
      <trkpt lat="45.04076" lon="3.40299">
        <ele>1142.602882</ele>
        <time>2021-07-09T14:13:33+0200</time>
      </trkpt>
      <trkpt lat="45.04078" lon="3.40307">
        <ele>1142.921667</ele>
        <time>2021-07-09T14:13:34+0200</time>
      </trkpt>
      <trkpt lat="45.04079" lon="3.40315">
        <ele>1143.190475</ele>
        <time>2021-07-09T14:13:35+0200</time>
      </trkpt>
      <trkpt lat="45.04081" lon="3.40323">
        <ele>1142.18034</ele>
        <time>2021-07-09T14:13:36+0200</time>
      </trkpt>
      <trkpt lat="45.04083" lon="3.40331">
        <ele>1140.994091</ele>
        <time>2021-07-09T14:13:37+0200</time>
      </trkpt>
      <trkpt lat="45.04085" lon="3.40339">
        <ele>1139.57104</ele>
        <time>2021-07-09T14:13:38+0200</time>
      </trkpt>
      <trkpt lat="45.04088" lon="3.40347">
        <ele>1138.126261</ele>
        <time>2021-07-09T14:13:39+0200</time>
      </trkpt>
      <trkpt lat="45.0409" lon="3.40355">
        <ele>1137.291891</ele>
        <time>2021-07-09T14:13:40+0200</time>
      </trkpt>
      <trkpt lat="45.04091" lon="3.40364">
        <ele>1137.507621</ele>
        <time>2021-07-09T14:13:41+0200</time>
      </trkpt>
      <trkpt lat="45.04092" lon="3.40372">
        <ele>1137.627975</ele>
        <time>2021-07-09T14:13:42+0200</time>
      </trkpt>
      <trkpt lat="45.04093" lon="3.4038">
        <ele>1136.476808</ele>
        <time>2021-07-09T14:13:43+0200</time>
      </trkpt>
      <trkpt lat="45.04095" lon="3.40387">
        <ele>1136.255754</ele>
        <time>2021-07-09T14:13:44+0200</time>
      </trkpt>
      <trkpt lat="45.04096" lon="3.40395">
        <ele>1135.862022</ele>
        <time>2021-07-09T14:13:45+0200</time>
      </trkpt>
      <trkpt lat="45.04096" lon="3.40403">
        <ele>1135.827264</ele>
        <time>2021-07-09T14:13:46+0200</time>
      </trkpt>
      <trkpt lat="45.04097" lon="3.40412">
        <ele>1135.825398</ele>
        <time>2021-07-09T14:13:47+0200</time>
      </trkpt>
      <trkpt lat="45.04098" lon="3.40419">
        <ele>1136.082492</ele>
        <time>2021-07-09T14:13:48+0200</time>
      </trkpt>
      <trkpt lat="45.041" lon="3.40427">
        <ele>1136.816805</ele>
        <time>2021-07-09T14:13:49+0200</time>
      </trkpt>
      <trkpt lat="45.04101" lon="3.40436">
        <ele>1135.498013</ele>
        <time>2021-07-09T14:13:50+0200</time>
      </trkpt>
      <trkpt lat="45.04102" lon="3.40444">
        <ele>1134.195345</ele>
        <time>2021-07-09T14:13:51+0200</time>
      </trkpt>
      <trkpt lat="45.04103" lon="3.40453">
        <ele>1133.674057</ele>
        <time>2021-07-09T14:13:52+0200</time>
      </trkpt>
      <trkpt lat="45.04103" lon="3.40463">
        <ele>1134.224486</ele>
        <time>2021-07-09T14:13:53+0200</time>
      </trkpt>
      <trkpt lat="45.04104" lon="3.4047">
        <ele>1134.107594</ele>
        <time>2021-07-09T14:13:54+0200</time>
      </trkpt>
      <trkpt lat="45.04105" lon="3.4048">
        <ele>1135.079644</ele>
        <time>2021-07-09T14:13:55+0200</time>
      </trkpt>
      <trkpt lat="45.04105" lon="3.40489">
        <ele>1135.109364</ele>
        <time>2021-07-09T14:13:56+0200</time>
      </trkpt>
      <trkpt lat="45.04106" lon="3.40498">
        <ele>1135.582313</ele>
        <time>2021-07-09T14:13:57+0200</time>
      </trkpt>
      <trkpt lat="45.04106" lon="3.40507">
        <ele>1135.808297</ele>
        <time>2021-07-09T14:13:58+0200</time>
      </trkpt>
      <trkpt lat="45.04105" lon="3.40515">
        <ele>1136.406344</ele>
        <time>2021-07-09T14:13:59+0200</time>
      </trkpt>
      <trkpt lat="45.04105" lon="3.40523">
        <ele>1136.205527</ele>
        <time>2021-07-09T14:14:00+0200</time>
      </trkpt>
      <trkpt lat="45.04105" lon="3.40531">
        <ele>1136.214893</ele>
        <time>2021-07-09T14:14:01+0200</time>
      </trkpt>
      <trkpt lat="45.04105" lon="3.4054">
        <ele>1136.468556</ele>
        <time>2021-07-09T14:14:02+0200</time>
      </trkpt>
      <trkpt lat="45.04105" lon="3.40549">
        <ele>1136.389314</ele>
        <time>2021-07-09T14:14:03+0200</time>
      </trkpt>
      <trkpt lat="45.04106" lon="3.40558">
        <ele>1135.515965</ele>
        <time>2021-07-09T14:14:04+0200</time>
      </trkpt>
      <trkpt lat="45.04106" lon="3.40568">
        <ele>1134.945071</ele>
        <time>2021-07-09T14:14:05+0200</time>
      </trkpt>
      <trkpt lat="45.04102" lon="3.40578">
        <ele>1136.236103</ele>
        <time>2021-07-09T14:14:06+0200</time>
      </trkpt>
      <trkpt lat="45.04102" lon="3.40587">
        <ele>1136.67482</ele>
        <time>2021-07-09T14:14:07+0200</time>
      </trkpt>
      <trkpt lat="45.04103" lon="3.40596">
        <ele>1136.793495</ele>
        <time>2021-07-09T14:14:08+0200</time>
      </trkpt>
      <trkpt lat="45.04103" lon="3.40606">
        <ele>1137.336872</ele>
        <time>2021-07-09T14:14:09+0200</time>
      </trkpt>
      <trkpt lat="45.04103" lon="3.40615">
        <ele>1137.865389</ele>
        <time>2021-07-09T14:14:10+0200</time>
      </trkpt>
      <trkpt lat="45.04103" lon="3.40624">
        <ele>1137.880148</ele>
        <time>2021-07-09T14:14:11+0200</time>
      </trkpt>
      <trkpt lat="45.04102" lon="3.40634">
        <ele>1138.007237</ele>
        <time>2021-07-09T14:14:12+0200</time>
      </trkpt>
      <trkpt lat="45.041" lon="3.40645">
        <ele>1137.303825</ele>
        <time>2021-07-09T14:14:13+0200</time>
      </trkpt>
      <trkpt lat="45.04098" lon="3.40655">
        <ele>1136.894071</ele>
        <time>2021-07-09T14:14:14+0200</time>
      </trkpt>
      <trkpt lat="45.041" lon="3.40667">
        <ele>1135.314104</ele>
        <time>2021-07-09T14:14:15+0200</time>
      </trkpt>
      <trkpt lat="45.04096" lon="3.40681">
        <ele>1133.700883</ele>
        <time>2021-07-09T14:14:16+0200</time>
      </trkpt>
      <trkpt lat="45.04095" lon="3.40693">
        <ele>1133.825942</ele>
        <time>2021-07-09T14:14:17+0200</time>
      </trkpt>
      <trkpt lat="45.04095" lon="3.40704">
        <ele>1133.305491</ele>
        <time>2021-07-09T14:14:18+0200</time>
      </trkpt>
      <trkpt lat="45.04095" lon="3.40715">
        <ele>1133.426824</ele>
        <time>2021-07-09T14:14:19+0200</time>
      </trkpt>
      <trkpt lat="45.04095" lon="3.40726">
        <ele>1133.585134</ele>
        <time>2021-07-09T14:14:20+0200</time>
      </trkpt>
      <trkpt lat="45.04096" lon="3.40735">
        <ele>1132.245824</ele>
        <time>2021-07-09T14:14:21+0200</time>
      </trkpt>
      <trkpt lat="45.04097" lon="3.40745">
        <ele>1131.412612</ele>
        <time>2021-07-09T14:14:22+0200</time>
      </trkpt>
      <trkpt lat="45.04099" lon="3.40755">
        <ele>1130.359116</ele>
        <time>2021-07-09T14:14:23+0200</time>
      </trkpt>
      <trkpt lat="45.041" lon="3.40766">
        <ele>1128.904551</ele>
        <time>2021-07-09T14:14:24+0200</time>
      </trkpt>
      <trkpt lat="45.04101" lon="3.40776">
        <ele>1128.584299</ele>
        <time>2021-07-09T14:14:25+0200</time>
      </trkpt>
      <trkpt lat="45.04101" lon="3.40786">
        <ele>1127.928485</ele>
        <time>2021-07-09T14:14:26+0200</time>
      </trkpt>
      <trkpt lat="45.04102" lon="3.40795">
        <ele>1127.147705</ele>
        <time>2021-07-09T14:14:27+0200</time>
      </trkpt>
      <trkpt lat="45.04103" lon="3.40804">
        <ele>1126.10555</ele>
        <time>2021-07-09T14:14:28+0200</time>
      </trkpt>
      <trkpt lat="45.04104" lon="3.40813">
        <ele>1124.784941</ele>
        <time>2021-07-09T14:14:29+0200</time>
      </trkpt>
      <trkpt lat="45.04105" lon="3.40822">
        <ele>1125.070113</ele>
        <time>2021-07-09T14:14:30+0200</time>
      </trkpt>
      <trkpt lat="45.04107" lon="3.40832">
        <ele>1125.718664</ele>
        <time>2021-07-09T14:14:31+0200</time>
      </trkpt>
      <trkpt lat="45.04107" lon="3.40841">
        <ele>1125.338895</ele>
        <time>2021-07-09T14:14:32+0200</time>
      </trkpt>
      <trkpt lat="45.04107" lon="3.4085">
        <ele>1126.118938</ele>
        <time>2021-07-09T14:14:33+0200</time>
      </trkpt>
      <trkpt lat="45.04108" lon="3.4086">
        <ele>1126.451322</ele>
        <time>2021-07-09T14:14:34+0200</time>
      </trkpt>
      <trkpt lat="45.04108" lon="3.40869">
        <ele>1127.16551</ele>
        <time>2021-07-09T14:14:35+0200</time>
      </trkpt>
      <trkpt lat="45.04108" lon="3.40878">
        <ele>1127.820238</ele>
        <time>2021-07-09T14:14:36+0200</time>
      </trkpt>
      <trkpt lat="45.04107" lon="3.40886">
        <ele>1128.604006</ele>
        <time>2021-07-09T14:14:37+0200</time>
      </trkpt>
      <trkpt lat="45.04108" lon="3.40895">
        <ele>1129.198046</ele>
        <time>2021-07-09T14:14:38+0200</time>
      </trkpt>
      <trkpt lat="45.04108" lon="3.40904">
        <ele>1129.840701</ele>
        <time>2021-07-09T14:14:39+0200</time>
      </trkpt>
      <trkpt lat="45.04107" lon="3.40914">
        <ele>1129.379168</ele>
        <time>2021-07-09T14:14:40+0200</time>
      </trkpt>
      <trkpt lat="45.04106" lon="3.40923">
        <ele>1128.252146</ele>
        <time>2021-07-09T14:14:41+0200</time>
      </trkpt>
      <trkpt lat="45.04106" lon="3.40932">
        <ele>1128.235093</ele>
        <time>2021-07-09T14:14:42+0200</time>
      </trkpt>
      <trkpt lat="45.04105" lon="3.40941">
        <ele>1128.153893</ele>
        <time>2021-07-09T14:14:43+0200</time>
      </trkpt>
      <trkpt lat="45.04104" lon="3.40949">
        <ele>1128.749833</ele>
        <time>2021-07-09T14:14:44+0200</time>
      </trkpt>
      <trkpt lat="45.04102" lon="3.40959">
        <ele>1128.858099</ele>
        <time>2021-07-09T14:14:45+0200</time>
      </trkpt>
      <trkpt lat="45.04102" lon="3.40968">
        <ele>1128.520153</ele>
        <time>2021-07-09T14:14:46+0200</time>
      </trkpt>
      <trkpt lat="45.04101" lon="3.40978">
        <ele>1128.380614</ele>
        <time>2021-07-09T14:14:47+0200</time>
      </trkpt>
      <trkpt lat="45.04099" lon="3.40987">
        <ele>1128.003181</ele>
        <time>2021-07-09T14:14:48+0200</time>
      </trkpt>
      <trkpt lat="45.04098" lon="3.40996">
        <ele>1127.478103</ele>
        <time>2021-07-09T14:14:49+0200</time>
      </trkpt>
      <trkpt lat="45.04096" lon="3.41005">
        <ele>1126.73028</ele>
        <time>2021-07-09T14:14:50+0200</time>
      </trkpt>
      <trkpt lat="45.04093" lon="3.41014">
        <ele>1125.402516</ele>
        <time>2021-07-09T14:14:51+0200</time>
      </trkpt>
      <trkpt lat="45.04092" lon="3.41026">
        <ele>1125.029681</ele>
        <time>2021-07-09T14:14:52+0200</time>
      </trkpt>
      <trkpt lat="45.0409" lon="3.41037">
        <ele>1124.348619</ele>
        <time>2021-07-09T14:14:53+0200</time>
      </trkpt>
      <trkpt lat="45.04085" lon="3.41048">
        <ele>1122.768498</ele>
        <time>2021-07-09T14:14:54+0200</time>
      </trkpt>
      <trkpt lat="45.04082" lon="3.41059">
        <ele>1120.763862</ele>
        <time>2021-07-09T14:14:55+0200</time>
      </trkpt>
      <trkpt lat="45.04079" lon="3.41071">
        <ele>1120.307428</ele>
        <time>2021-07-09T14:14:56+0200</time>
      </trkpt>
      <trkpt lat="45.04075" lon="3.41083">
        <ele>1120.503385</ele>
        <time>2021-07-09T14:14:57+0200</time>
      </trkpt>
      <trkpt lat="45.04071" lon="3.41094">
        <ele>1120.682553</ele>
        <time>2021-07-09T14:14:58+0200</time>
      </trkpt>
      <trkpt lat="45.04068" lon="3.41106">
        <ele>1120.112576</ele>
        <time>2021-07-09T14:14:59+0200</time>
      </trkpt>
      <trkpt lat="45.04065" lon="3.41116">
        <ele>1120.240947</ele>
        <time>2021-07-09T14:15:00+0200</time>
      </trkpt>
      <trkpt lat="45.04063" lon="3.41127">
        <ele>1119.374016</ele>
        <time>2021-07-09T14:15:01+0200</time>
      </trkpt>
      <trkpt lat="45.04061" lon="3.41139">
        <ele>1118.829188</ele>
        <time>2021-07-09T14:15:02+0200</time>
      </trkpt>
      <trkpt lat="45.04059" lon="3.41151">
        <ele>1117.486111</ele>
        <time>2021-07-09T14:15:03+0200</time>
      </trkpt>
      <trkpt lat="45.04056" lon="3.41163">
        <ele>1117.338845</ele>
        <time>2021-07-09T14:15:04+0200</time>
      </trkpt>
      <trkpt lat="45.04053" lon="3.41175">
        <ele>1117.186622</ele>
        <time>2021-07-09T14:15:05+0200</time>
      </trkpt>
      <trkpt lat="45.04048" lon="3.41187">
        <ele>1117.447466</ele>
        <time>2021-07-09T14:15:06+0200</time>
      </trkpt>
      <trkpt lat="45.04044" lon="3.41198">
        <ele>1117.214051</ele>
        <time>2021-07-09T14:15:07+0200</time>
      </trkpt>
      <trkpt lat="45.04039" lon="3.41209">
        <ele>1116.686221</ele>
        <time>2021-07-09T14:15:08+0200</time>
      </trkpt>
      <trkpt lat="45.04034" lon="3.4122">
        <ele>1116.699258</ele>
        <time>2021-07-09T14:15:09+0200</time>
      </trkpt>
      <trkpt lat="45.04027" lon="3.4123">
        <ele>1115.613928</ele>
        <time>2021-07-09T14:15:10+0200</time>
      </trkpt>
      <trkpt lat="45.0402" lon="3.4124">
        <ele>1114.119899</ele>
        <time>2021-07-09T14:15:11+0200</time>
      </trkpt>
      <trkpt lat="45.04012" lon="3.4125">
        <ele>1111.102973</ele>
        <time>2021-07-09T14:15:12+0200</time>
      </trkpt>
      <trkpt lat="45.04005" lon="3.41259">
        <ele>1109.410688</ele>
        <time>2021-07-09T14:15:13+0200</time>
      </trkpt>
      <trkpt lat="45.03998" lon="3.41267">
        <ele>1109.22712</ele>
        <time>2021-07-09T14:15:14+0200</time>
      </trkpt>
      <trkpt lat="45.0399" lon="3.41274">
        <ele>1108.580354</ele>
        <time>2021-07-09T14:15:15+0200</time>
      </trkpt>
      <trkpt lat="45.03983" lon="3.41282">
        <ele>1108.647033</ele>
        <time>2021-07-09T14:15:16+0200</time>
      </trkpt>
      <trkpt lat="45.03974" lon="3.41287">
        <ele>1109.025479</ele>
        <time>2021-07-09T14:15:17+0200</time>
      </trkpt>
      <trkpt lat="45.03966" lon="3.41295">
        <ele>1108.070239</ele>
        <time>2021-07-09T14:15:18+0200</time>
      </trkpt>
      <trkpt lat="45.03957" lon="3.41299">
        <ele>1106.963137</ele>
        <time>2021-07-09T14:15:19+0200</time>
      </trkpt>
      <trkpt lat="45.03948" lon="3.41303">
        <ele>1107.117998</ele>
        <time>2021-07-09T14:15:20+0200</time>
      </trkpt>
      <trkpt lat="45.0394" lon="3.41308">
        <ele>1106.774142</ele>
        <time>2021-07-09T14:15:21+0200</time>
      </trkpt>
      <trkpt lat="45.03932" lon="3.41313">
        <ele>1106.123624</ele>
        <time>2021-07-09T14:15:22+0200</time>
      </trkpt>
      <trkpt lat="45.03924" lon="3.41319">
        <ele>1105.490702</ele>
        <time>2021-07-09T14:15:23+0200</time>
      </trkpt>
      <trkpt lat="45.03916" lon="3.41324">
        <ele>1105.649697</ele>
        <time>2021-07-09T14:15:24+0200</time>
      </trkpt>
      <trkpt lat="45.03909" lon="3.41334">
        <ele>1105.689527</ele>
        <time>2021-07-09T14:15:25+0200</time>
      </trkpt>
      <trkpt lat="45.03904" lon="3.41345">
        <ele>1104.250895</ele>
        <time>2021-07-09T14:15:26+0200</time>
      </trkpt>
      <trkpt lat="45.039" lon="3.41355">
        <ele>1103.06185</ele>
        <time>2021-07-09T14:15:27+0200</time>
      </trkpt>
      <trkpt lat="45.039" lon="3.41367">
        <ele>1103.14698</ele>
        <time>2021-07-09T14:15:28+0200</time>
      </trkpt>
      <trkpt lat="45.03901" lon="3.4138">
        <ele>1102.968309</ele>
        <time>2021-07-09T14:15:29+0200</time>
      </trkpt>
      <trkpt lat="45.03902" lon="3.41392">
        <ele>1102.555418</ele>
        <time>2021-07-09T14:15:30+0200</time>
      </trkpt>
      <trkpt lat="45.03907" lon="3.414">
        <ele>1102.797831</ele>
        <time>2021-07-09T14:15:31+0200</time>
      </trkpt>
      <trkpt lat="45.03912" lon="3.41409">
        <ele>1103.067385</ele>
        <time>2021-07-09T14:15:32+0200</time>
      </trkpt>
      <trkpt lat="45.03918" lon="3.41417">
        <ele>1101.394447</ele>
        <time>2021-07-09T14:15:33+0200</time>
      </trkpt>
      <trkpt lat="45.03924" lon="3.41425">
        <ele>1100.145138</ele>
        <time>2021-07-09T14:15:34+0200</time>
      </trkpt>
      <trkpt lat="45.03928" lon="3.41432">
        <ele>1099.892804</ele>
        <time>2021-07-09T14:15:35+0200</time>
      </trkpt>
      <trkpt lat="45.03931" lon="3.41437">
        <ele>1099.962519</ele>
        <time>2021-07-09T14:15:36+0200</time>
      </trkpt>
      <trkpt lat="45.03935" lon="3.41445">
        <ele>1099.961796</ele>
        <time>2021-07-09T14:15:38+0200</time>
      </trkpt>
      <trkpt lat="45.03941" lon="3.41453">
        <ele>1097.29213</ele>
        <time>2021-07-09T14:15:40+0200</time>
      </trkpt>
      <trkpt lat="45.03947" lon="3.41461">
        <ele>1096.131263</ele>
        <time>2021-07-09T14:15:42+0200</time>
      </trkpt>
      <trkpt lat="45.03952" lon="3.41469">
        <ele>1096.461275</ele>
        <time>2021-07-09T14:15:44+0200</time>
      </trkpt>
      <trkpt lat="45.03957" lon="3.41474">
        <ele>1097.279661</ele>
        <time>2021-07-09T14:15:46+0200</time>
      </trkpt>
      <trkpt lat="45.03962" lon="3.41481">
        <ele>1097.953919</ele>
        <time>2021-07-09T14:15:48+0200</time>
      </trkpt>
      <trkpt lat="45.03965" lon="3.41493">
        <ele>1100.471059</ele>
        <time>2021-07-09T14:15:50+0200</time>
      </trkpt>
      <trkpt lat="45.03969" lon="3.41505">
        <ele>1101.203032</ele>
        <time>2021-07-09T14:15:52+0200</time>
      </trkpt>
      <trkpt lat="45.03974" lon="3.41516">
        <ele>1101.800712</ele>
        <time>2021-07-09T14:15:54+0200</time>
      </trkpt>
      <trkpt lat="45.03976" lon="3.41523">
        <ele>1101.967944</ele>
        <time>2021-07-09T14:15:55+0200</time>
      </trkpt>
      <trkpt lat="45.03978" lon="3.4153">
        <ele>1102.098128</ele>
        <time>2021-07-09T14:15:56+0200</time>
      </trkpt>
      <trkpt lat="45.0398" lon="3.41536">
        <ele>1101.79743</ele>
        <time>2021-07-09T14:15:57+0200</time>
      </trkpt>
      <trkpt lat="45.03981" lon="3.41544">
        <ele>1102.135874</ele>
        <time>2021-07-09T14:15:58+0200</time>
      </trkpt>
      <trkpt lat="45.03982" lon="3.41552">
        <ele>1102.103366</ele>
        <time>2021-07-09T14:15:59+0200</time>
      </trkpt>
      <trkpt lat="45.03983" lon="3.41559">
        <ele>1101.662931</ele>
        <time>2021-07-09T14:16:00+0200</time>
      </trkpt>
      <trkpt lat="45.03983" lon="3.41567">
        <ele>1101.07669</ele>
        <time>2021-07-09T14:16:01+0200</time>
      </trkpt>
      <trkpt lat="45.03984" lon="3.41576">
        <ele>1099.889191</ele>
        <time>2021-07-09T14:16:02+0200</time>
      </trkpt>
      <trkpt lat="45.03984" lon="3.41584">
        <ele>1099.119813</ele>
        <time>2021-07-09T14:16:03+0200</time>
      </trkpt>
      <trkpt lat="45.03983" lon="3.41593">
        <ele>1098.609853</ele>
        <time>2021-07-09T14:16:04+0200</time>
      </trkpt>
      <trkpt lat="45.03983" lon="3.41605">
        <ele>1098.108995</ele>
        <time>2021-07-09T14:16:05+0200</time>
      </trkpt>
      <trkpt lat="45.03983" lon="3.41616">
        <ele>1097.648351</ele>
        <time>2021-07-09T14:16:06+0200</time>
      </trkpt>
      <trkpt lat="45.03982" lon="3.41626">
        <ele>1097.862746</ele>
        <time>2021-07-09T14:16:07+0200</time>
      </trkpt>
      <trkpt lat="45.03982" lon="3.41636">
        <ele>1098.02519</ele>
        <time>2021-07-09T14:16:08+0200</time>
      </trkpt>
      <trkpt lat="45.03981" lon="3.41646">
        <ele>1097.199712</ele>
        <time>2021-07-09T14:16:09+0200</time>
      </trkpt>
      <trkpt lat="45.03981" lon="3.41656">
        <ele>1096.459111</ele>
        <time>2021-07-09T14:16:10+0200</time>
      </trkpt>
      <trkpt lat="45.03981" lon="3.41666">
        <ele>1095.918793</ele>
        <time>2021-07-09T14:16:11+0200</time>
      </trkpt>
      <trkpt lat="45.03979" lon="3.41675">
        <ele>1096.212709</ele>
        <time>2021-07-09T14:16:12+0200</time>
      </trkpt>
      <trkpt lat="45.03979" lon="3.41685">
        <ele>1096.302935</ele>
        <time>2021-07-09T14:16:13+0200</time>
      </trkpt>
      <trkpt lat="45.03978" lon="3.41694">
        <ele>1096.314963</ele>
        <time>2021-07-09T14:16:14+0200</time>
      </trkpt>
      <trkpt lat="45.03977" lon="3.41704">
        <ele>1096.296927</ele>
        <time>2021-07-09T14:16:15+0200</time>
      </trkpt>
      <trkpt lat="45.03976" lon="3.41714">
        <ele>1096.692488</ele>
        <time>2021-07-09T14:16:16+0200</time>
      </trkpt>
      <trkpt lat="45.03976" lon="3.41723">
        <ele>1096.247456</ele>
        <time>2021-07-09T14:16:17+0200</time>
      </trkpt>
      <trkpt lat="45.03975" lon="3.41733">
        <ele>1096.178876</ele>
        <time>2021-07-09T14:16:18+0200</time>
      </trkpt>
      <trkpt lat="45.03974" lon="3.41741">
        <ele>1096.299425</ele>
        <time>2021-07-09T14:16:19+0200</time>
      </trkpt>
      <trkpt lat="45.03973" lon="3.41749">
        <ele>1096.34286</ele>
        <time>2021-07-09T14:16:20+0200</time>
      </trkpt>
      <trkpt lat="45.03973" lon="3.41758">
        <ele>1096.967683</ele>
        <time>2021-07-09T14:16:21+0200</time>
      </trkpt>
      <trkpt lat="45.03971" lon="3.41767">
        <ele>1097.325576</ele>
        <time>2021-07-09T14:16:22+0200</time>
      </trkpt>
      <trkpt lat="45.0397" lon="3.41777">
        <ele>1097.891973</ele>
        <time>2021-07-09T14:16:23+0200</time>
      </trkpt>
      <trkpt lat="45.0397" lon="3.41786">
        <ele>1098.231261</ele>
        <time>2021-07-09T14:16:24+0200</time>
      </trkpt>
      <trkpt lat="45.0397" lon="3.41795">
        <ele>1098.236524</ele>
        <time>2021-07-09T14:16:25+0200</time>
      </trkpt>
      <trkpt lat="45.03969" lon="3.41804">
        <ele>1098.52999</ele>
        <time>2021-07-09T14:16:26+0200</time>
      </trkpt>
      <trkpt lat="45.03969" lon="3.41812">
        <ele>1099.165955</ele>
        <time>2021-07-09T14:16:27+0200</time>
      </trkpt>
      <trkpt lat="45.03968" lon="3.4182">
        <ele>1098.812705</ele>
        <time>2021-07-09T14:16:28+0200</time>
      </trkpt>
      <trkpt lat="45.03968" lon="3.41829">
        <ele>1098.089832</ele>
        <time>2021-07-09T14:16:29+0200</time>
      </trkpt>
      <trkpt lat="45.03968" lon="3.41837">
        <ele>1098.394301</ele>
        <time>2021-07-09T14:16:30+0200</time>
      </trkpt>
      <trkpt lat="45.03969" lon="3.41845">
        <ele>1097.857136</ele>
        <time>2021-07-09T14:16:31+0200</time>
      </trkpt>
      <trkpt lat="45.0397" lon="3.41853">
        <ele>1097.589812</ele>
        <time>2021-07-09T14:16:32+0200</time>
      </trkpt>
      <trkpt lat="45.0397" lon="3.41861">
        <ele>1096.620688</ele>
        <time>2021-07-09T14:16:33+0200</time>
      </trkpt>
      <trkpt lat="45.03971" lon="3.41869">
        <ele>1096.255123</ele>
        <time>2021-07-09T14:16:34+0200</time>
      </trkpt>
      <trkpt lat="45.03972" lon="3.41877">
        <ele>1096.774133</ele>
        <time>2021-07-09T14:16:35+0200</time>
      </trkpt>
      <trkpt lat="45.03974" lon="3.41884">
        <ele>1096.585284</ele>
        <time>2021-07-09T14:16:36+0200</time>
      </trkpt>
      <trkpt lat="45.03976" lon="3.41891">
        <ele>1096.148225</ele>
        <time>2021-07-09T14:16:37+0200</time>
      </trkpt>
      <trkpt lat="45.03978" lon="3.41899">
        <ele>1096.076974</ele>
        <time>2021-07-09T14:16:38+0200</time>
      </trkpt>
      <trkpt lat="45.0398" lon="3.41906">
        <ele>1095.063575</ele>
        <time>2021-07-09T14:16:39+0200</time>
      </trkpt>
      <trkpt lat="45.03983" lon="3.41914">
        <ele>1095.358147</ele>
        <time>2021-07-09T14:16:40+0200</time>
      </trkpt>
      <trkpt lat="45.03986" lon="3.41921">
        <ele>1094.478392</ele>
        <time>2021-07-09T14:16:41+0200</time>
      </trkpt>
      <trkpt lat="45.03987" lon="3.41929">
        <ele>1094.285126</ele>
        <time>2021-07-09T14:16:42+0200</time>
      </trkpt>
      <trkpt lat="45.03988" lon="3.41937">
        <ele>1094.781074</ele>
        <time>2021-07-09T14:16:43+0200</time>
      </trkpt>
      <trkpt lat="45.0399" lon="3.41944">
        <ele>1094.604096</ele>
        <time>2021-07-09T14:16:44+0200</time>
      </trkpt>
      <trkpt lat="45.03992" lon="3.41951">
        <ele>1094.738033</ele>
        <time>2021-07-09T14:16:45+0200</time>
      </trkpt>
      <trkpt lat="45.03994" lon="3.41959">
        <ele>1094.313312</ele>
        <time>2021-07-09T14:16:46+0200</time>
      </trkpt>
      <trkpt lat="45.03995" lon="3.41967">
        <ele>1094.152915</ele>
        <time>2021-07-09T14:16:47+0200</time>
      </trkpt>
      <trkpt lat="45.03996" lon="3.41975">
        <ele>1094.027927</ele>
        <time>2021-07-09T14:16:48+0200</time>
      </trkpt>
      <trkpt lat="45.03998" lon="3.41983">
        <ele>1094.004072</ele>
        <time>2021-07-09T14:16:49+0200</time>
      </trkpt>
      <trkpt lat="45.03999" lon="3.4199">
        <ele>1093.88836</ele>
        <time>2021-07-09T14:16:50+0200</time>
      </trkpt>
      <trkpt lat="45.04001" lon="3.41998">
        <ele>1093.603708</ele>
        <time>2021-07-09T14:16:51+0200</time>
      </trkpt>
      <trkpt lat="45.04001" lon="3.42005">
        <ele>1093.267792</ele>
        <time>2021-07-09T14:16:52+0200</time>
      </trkpt>
      <trkpt lat="45.04002" lon="3.42014">
        <ele>1093.175193</ele>
        <time>2021-07-09T14:16:53+0200</time>
      </trkpt>
      <trkpt lat="45.04003" lon="3.42021">
        <ele>1092.47282</ele>
        <time>2021-07-09T14:16:54+0200</time>
      </trkpt>
      <trkpt lat="45.04004" lon="3.42028">
        <ele>1092.490825</ele>
        <time>2021-07-09T14:16:55+0200</time>
      </trkpt>
      <trkpt lat="45.04005" lon="3.42035">
        <ele>1091.922178</ele>
        <time>2021-07-09T14:16:56+0200</time>
      </trkpt>
      <trkpt lat="45.04005" lon="3.42043">
        <ele>1091.870392</ele>
        <time>2021-07-09T14:16:57+0200</time>
      </trkpt>
      <trkpt lat="45.04004" lon="3.4205">
        <ele>1091.618625</ele>
        <time>2021-07-09T14:16:58+0200</time>
      </trkpt>
      <trkpt lat="45.04005" lon="3.42057">
        <ele>1092.069749</ele>
        <time>2021-07-09T14:16:59+0200</time>
      </trkpt>
      <trkpt lat="45.04006" lon="3.42064">
        <ele>1092.024396</ele>
        <time>2021-07-09T14:17:00+0200</time>
      </trkpt>
      <trkpt lat="45.04006" lon="3.42071">
        <ele>1091.605874</ele>
        <time>2021-07-09T14:17:01+0200</time>
      </trkpt>
      <trkpt lat="45.04007" lon="3.42077">
        <ele>1090.959789</ele>
        <time>2021-07-09T14:17:02+0200</time>
      </trkpt>
      <trkpt lat="45.04006" lon="3.42085">
        <ele>1091.304405</ele>
        <time>2021-07-09T14:17:03+0200</time>
      </trkpt>
      <trkpt lat="45.04008" lon="3.42097">
        <ele>1093.008338</ele>
        <time>2021-07-09T14:17:05+0200</time>
      </trkpt>
      <trkpt lat="45.0401" lon="3.42105">
        <ele>1092.484438</ele>
        <time>2021-07-09T14:17:06+0200</time>
      </trkpt>
      <trkpt lat="45.04011" lon="3.42113">
        <ele>1091.483341</ele>
        <time>2021-07-09T14:17:07+0200</time>
      </trkpt>
      <trkpt lat="45.04012" lon="3.42121">
        <ele>1091.777268</ele>
        <time>2021-07-09T14:17:08+0200</time>
      </trkpt>
      <trkpt lat="45.04013" lon="3.42129">
        <ele>1091.321846</ele>
        <time>2021-07-09T14:17:09+0200</time>
      </trkpt>
      <trkpt lat="45.04011" lon="3.42136">
        <ele>1090.519349</ele>
        <time>2021-07-09T14:17:10+0200</time>
      </trkpt>
      <trkpt lat="45.04009" lon="3.42143">
        <ele>1089.989862</ele>
        <time>2021-07-09T14:17:11+0200</time>
      </trkpt>
      <trkpt lat="45.0401" lon="3.42162">
        <ele>1086.859107</ele>
        <time>2021-07-09T14:17:13+0200</time>
      </trkpt>
      <trkpt lat="45.0401" lon="3.42168">
        <ele>1086.61559</ele>
        <time>2021-07-09T14:17:14+0200</time>
      </trkpt>
      <trkpt lat="45.04013" lon="3.42176">
        <ele>1086.131198</ele>
        <time>2021-07-09T14:17:15+0200</time>
      </trkpt>
      <trkpt lat="45.04015" lon="3.42185">
        <ele>1085.778076</ele>
        <time>2021-07-09T14:17:16+0200</time>
      </trkpt>
      <trkpt lat="45.04017" lon="3.42193">
        <ele>1084.887321</ele>
        <time>2021-07-09T14:17:17+0200</time>
      </trkpt>
      <trkpt lat="45.0402" lon="3.42201">
        <ele>1084.106887</ele>
        <time>2021-07-09T14:17:18+0200</time>
      </trkpt>
      <trkpt lat="45.04024" lon="3.4221">
        <ele>1083.895544</ele>
        <time>2021-07-09T14:17:19+0200</time>
      </trkpt>
      <trkpt lat="45.04026" lon="3.42218">
        <ele>1083.327056</ele>
        <time>2021-07-09T14:17:20+0200</time>
      </trkpt>
      <trkpt lat="45.04029" lon="3.42225">
        <ele>1082.7475</ele>
        <time>2021-07-09T14:17:21+0200</time>
      </trkpt>
      <trkpt lat="45.04031" lon="3.42232">
        <ele>1082.792691</ele>
        <time>2021-07-09T14:17:22+0200</time>
      </trkpt>
      <trkpt lat="45.04033" lon="3.4224">
        <ele>1083.861305</ele>
        <time>2021-07-09T14:17:23+0200</time>
      </trkpt>
      <trkpt lat="45.04036" lon="3.42247">
        <ele>1083.962741</ele>
        <time>2021-07-09T14:17:24+0200</time>
      </trkpt>
      <trkpt lat="45.04039" lon="3.42253">
        <ele>1083.670701</ele>
        <time>2021-07-09T14:17:25+0200</time>
      </trkpt>
      <trkpt lat="45.04041" lon="3.4226">
        <ele>1083.380406</ele>
        <time>2021-07-09T14:17:26+0200</time>
      </trkpt>
      <trkpt lat="45.04043" lon="3.42267">
        <ele>1083.144567</ele>
        <time>2021-07-09T14:17:27+0200</time>
      </trkpt>
      <trkpt lat="45.04046" lon="3.42273">
        <ele>1083.687325</ele>
        <time>2021-07-09T14:17:28+0200</time>
      </trkpt>
      <trkpt lat="45.04048" lon="3.4228">
        <ele>1084.017169</ele>
        <time>2021-07-09T14:17:29+0200</time>
      </trkpt>
      <trkpt lat="45.04051" lon="3.42286">
        <ele>1082.83873</ele>
        <time>2021-07-09T14:17:30+0200</time>
      </trkpt>
      <trkpt lat="45.04054" lon="3.42293">
        <ele>1083.284285</ele>
        <time>2021-07-09T14:17:31+0200</time>
      </trkpt>
      <trkpt lat="45.04056" lon="3.423">
        <ele>1083.408106</ele>
        <time>2021-07-09T14:17:32+0200</time>
      </trkpt>
      <trkpt lat="45.0406" lon="3.42307">
        <ele>1083.525981</ele>
        <time>2021-07-09T14:17:33+0200</time>
      </trkpt>
      <trkpt lat="45.04062" lon="3.42315">
        <ele>1083.847996</ele>
        <time>2021-07-09T14:17:34+0200</time>
      </trkpt>
      <trkpt lat="45.04065" lon="3.42322">
        <ele>1084.132814</ele>
        <time>2021-07-09T14:17:35+0200</time>
      </trkpt>
      <trkpt lat="45.04069" lon="3.42329">
        <ele>1084.133888</ele>
        <time>2021-07-09T14:17:36+0200</time>
      </trkpt>
      <trkpt lat="45.04072" lon="3.42335">
        <ele>1083.782192</ele>
        <time>2021-07-09T14:17:37+0200</time>
      </trkpt>
      <trkpt lat="45.04074" lon="3.42343">
        <ele>1084.166876</ele>
        <time>2021-07-09T14:17:38+0200</time>
      </trkpt>
      <trkpt lat="45.04077" lon="3.4235">
        <ele>1084.309472</ele>
        <time>2021-07-09T14:17:39+0200</time>
      </trkpt>
      <trkpt lat="45.04079" lon="3.42358">
        <ele>1084.696508</ele>
        <time>2021-07-09T14:17:40+0200</time>
      </trkpt>
      <trkpt lat="45.04082" lon="3.42365">
        <ele>1084.824954</ele>
        <time>2021-07-09T14:17:41+0200</time>
      </trkpt>
      <trkpt lat="45.04085" lon="3.42372">
        <ele>1084.582053</ele>
        <time>2021-07-09T14:17:42+0200</time>
      </trkpt>
      <trkpt lat="45.04087" lon="3.4238">
        <ele>1084.466897</ele>
        <time>2021-07-09T14:17:43+0200</time>
      </trkpt>
      <trkpt lat="45.0409" lon="3.42387">
        <ele>1084.571306</ele>
        <time>2021-07-09T14:17:44+0200</time>
      </trkpt>
      <trkpt lat="45.04092" lon="3.42395">
        <ele>1084.740223</ele>
        <time>2021-07-09T14:17:45+0200</time>
      </trkpt>
      <trkpt lat="45.04094" lon="3.42402">
        <ele>1084.609043</ele>
        <time>2021-07-09T14:17:46+0200</time>
      </trkpt>
      <trkpt lat="45.04097" lon="3.42409">
        <ele>1084.31372</ele>
        <time>2021-07-09T14:17:47+0200</time>
      </trkpt>
      <trkpt lat="45.04099" lon="3.42417">
        <ele>1084.056184</ele>
        <time>2021-07-09T14:17:48+0200</time>
      </trkpt>
      <trkpt lat="45.04101" lon="3.42424">
        <ele>1083.498547</ele>
        <time>2021-07-09T14:17:49+0200</time>
      </trkpt>
      <trkpt lat="45.04103" lon="3.42431">
        <ele>1083.207155</ele>
        <time>2021-07-09T14:17:50+0200</time>
      </trkpt>
      <trkpt lat="45.04105" lon="3.42438">
        <ele>1083.284303</ele>
        <time>2021-07-09T14:17:51+0200</time>
      </trkpt>
      <trkpt lat="45.04106" lon="3.42446">
        <ele>1083.718186</ele>
        <time>2021-07-09T14:17:52+0200</time>
      </trkpt>
      <trkpt lat="45.04108" lon="3.42453">
        <ele>1082.702249</ele>
        <time>2021-07-09T14:17:53+0200</time>
      </trkpt>
      <trkpt lat="45.04109" lon="3.4246">
        <ele>1082.615648</ele>
        <time>2021-07-09T14:17:54+0200</time>
      </trkpt>
      <trkpt lat="45.04111" lon="3.42467">
        <ele>1082.841761</ele>
        <time>2021-07-09T14:17:55+0200</time>
      </trkpt>
      <trkpt lat="45.04113" lon="3.42474">
        <ele>1083.013594</ele>
        <time>2021-07-09T14:17:56+0200</time>
      </trkpt>
      <trkpt lat="45.04114" lon="3.42481">
        <ele>1083.292372</ele>
        <time>2021-07-09T14:17:57+0200</time>
      </trkpt>
      <trkpt lat="45.04115" lon="3.42489">
        <ele>1083.317945</ele>
        <time>2021-07-09T14:17:58+0200</time>
      </trkpt>
      <trkpt lat="45.04116" lon="3.42496">
        <ele>1083.308264</ele>
        <time>2021-07-09T14:17:59+0200</time>
      </trkpt>
      <trkpt lat="45.04118" lon="3.42505">
        <ele>1082.794382</ele>
        <time>2021-07-09T14:18:00+0200</time>
      </trkpt>
      <trkpt lat="45.04119" lon="3.42513">
        <ele>1082.492172</ele>
        <time>2021-07-09T14:18:01+0200</time>
      </trkpt>
      <trkpt lat="45.0412" lon="3.42522">
        <ele>1082.27945</ele>
        <time>2021-07-09T14:18:02+0200</time>
      </trkpt>
      <trkpt lat="45.0412" lon="3.4253">
        <ele>1081.848198</ele>
        <time>2021-07-09T14:18:03+0200</time>
      </trkpt>
      <trkpt lat="45.0412" lon="3.4254">
        <ele>1081.619257</ele>
        <time>2021-07-09T14:18:04+0200</time>
      </trkpt>
      <trkpt lat="45.04121" lon="3.42551">
        <ele>1081.096787</ele>
        <time>2021-07-09T14:18:05+0200</time>
      </trkpt>
      <trkpt lat="45.04121" lon="3.42562">
        <ele>1080.312</ele>
        <time>2021-07-09T14:18:06+0200</time>
      </trkpt>
      <trkpt lat="45.04121" lon="3.42574">
        <ele>1079.281107</ele>
        <time>2021-07-09T14:18:07+0200</time>
      </trkpt>
      <trkpt lat="45.04121" lon="3.42585">
        <ele>1078.622367</ele>
        <time>2021-07-09T14:18:08+0200</time>
      </trkpt>
      <trkpt lat="45.04121" lon="3.42595">
        <ele>1078.535607</ele>
        <time>2021-07-09T14:18:09+0200</time>
      </trkpt>
      <trkpt lat="45.04121" lon="3.42605">
        <ele>1078.158648</ele>
        <time>2021-07-09T14:18:10+0200</time>
      </trkpt>
      <trkpt lat="45.0412" lon="3.42615">
        <ele>1077.598196</ele>
        <time>2021-07-09T14:18:11+0200</time>
      </trkpt>
      <trkpt lat="45.0412" lon="3.42625">
        <ele>1076.768141</ele>
        <time>2021-07-09T14:18:12+0200</time>
      </trkpt>
      <trkpt lat="45.0412" lon="3.42635">
        <ele>1076.208571</ele>
        <time>2021-07-09T14:18:13+0200</time>
      </trkpt>
      <trkpt lat="45.0412" lon="3.42645">
        <ele>1075.378334</ele>
        <time>2021-07-09T14:18:14+0200</time>
      </trkpt>
      <trkpt lat="45.04119" lon="3.42655">
        <ele>1074.45263</ele>
        <time>2021-07-09T14:18:15+0200</time>
      </trkpt>
      <trkpt lat="45.04118" lon="3.42668">
        <ele>1073.976636</ele>
        <time>2021-07-09T14:18:16+0200</time>
      </trkpt>
      <trkpt lat="45.04117" lon="3.42679">
        <ele>1073.070067</ele>
        <time>2021-07-09T14:18:17+0200</time>
      </trkpt>
      <trkpt lat="45.04117" lon="3.42691">
        <ele>1072.967478</ele>
        <time>2021-07-09T14:18:18+0200</time>
      </trkpt>
      <trkpt lat="45.04117" lon="3.42703">
        <ele>1072.48315</ele>
        <time>2021-07-09T14:18:19+0200</time>
      </trkpt>
      <trkpt lat="45.04116" lon="3.42714">
        <ele>1071.501323</ele>
        <time>2021-07-09T14:18:20+0200</time>
      </trkpt>
      <trkpt lat="45.04115" lon="3.42726">
        <ele>1070.871748</ele>
        <time>2021-07-09T14:18:21+0200</time>
      </trkpt>
      <trkpt lat="45.04113" lon="3.42738">
        <ele>1071.29854</ele>
        <time>2021-07-09T14:18:22+0200</time>
      </trkpt>
      <trkpt lat="45.04113" lon="3.42751">
        <ele>1070.704809</ele>
        <time>2021-07-09T14:18:23+0200</time>
      </trkpt>
      <trkpt lat="45.04112" lon="3.42764">
        <ele>1070.101025</ele>
        <time>2021-07-09T14:18:24+0200</time>
      </trkpt>
      <trkpt lat="45.04112" lon="3.42777">
        <ele>1069.846587</ele>
        <time>2021-07-09T14:18:25+0200</time>
      </trkpt>
      <trkpt lat="45.04112" lon="3.4279">
        <ele>1069.314551</ele>
        <time>2021-07-09T14:18:26+0200</time>
      </trkpt>
      <trkpt lat="45.04113" lon="3.42802">
        <ele>1068.980999</ele>
        <time>2021-07-09T14:18:27+0200</time>
      </trkpt>
      <trkpt lat="45.04114" lon="3.42815">
        <ele>1068.539424</ele>
        <time>2021-07-09T14:18:28+0200</time>
      </trkpt>
      <trkpt lat="45.04115" lon="3.42828">
        <ele>1068.353553</ele>
        <time>2021-07-09T14:18:29+0200</time>
      </trkpt>
      <trkpt lat="45.04116" lon="3.42841">
        <ele>1067.749613</ele>
        <time>2021-07-09T14:18:30+0200</time>
      </trkpt>
      <trkpt lat="45.04117" lon="3.42853">
        <ele>1067.178859</ele>
        <time>2021-07-09T14:18:31+0200</time>
      </trkpt>
      <trkpt lat="45.04118" lon="3.42866">
        <ele>1066.745014</ele>
        <time>2021-07-09T14:18:32+0200</time>
      </trkpt>
      <trkpt lat="45.04119" lon="3.4288">
        <ele>1066.914069</ele>
        <time>2021-07-09T14:18:33+0200</time>
      </trkpt>
      <trkpt lat="45.0412" lon="3.42893">
        <ele>1066.414296</ele>
        <time>2021-07-09T14:18:34+0200</time>
      </trkpt>
      <trkpt lat="45.04121" lon="3.42906">
        <ele>1065.84382</ele>
        <time>2021-07-09T14:18:35+0200</time>
      </trkpt>
      <trkpt lat="45.04123" lon="3.42918">
        <ele>1065.333049</ele>
        <time>2021-07-09T14:18:36+0200</time>
      </trkpt>
      <trkpt lat="45.04125" lon="3.4293">
        <ele>1064.926416</ele>
        <time>2021-07-09T14:18:37+0200</time>
      </trkpt>
      <trkpt lat="45.04127" lon="3.42942">
        <ele>1064.53623</ele>
        <time>2021-07-09T14:18:38+0200</time>
      </trkpt>
      <trkpt lat="45.0413" lon="3.42954">
        <ele>1064.298603</ele>
        <time>2021-07-09T14:18:39+0200</time>
      </trkpt>
      <trkpt lat="45.04132" lon="3.42967">
        <ele>1064.007179</ele>
        <time>2021-07-09T14:18:40+0200</time>
      </trkpt>
      <trkpt lat="45.04135" lon="3.42979">
        <ele>1063.221884</ele>
        <time>2021-07-09T14:18:41+0200</time>
      </trkpt>
      <trkpt lat="45.04137" lon="3.4299">
        <ele>1062.941233</ele>
        <time>2021-07-09T14:18:42+0200</time>
      </trkpt>
      <trkpt lat="45.0414" lon="3.43001">
        <ele>1062.090703</ele>
        <time>2021-07-09T14:18:43+0200</time>
      </trkpt>
      <trkpt lat="45.04144" lon="3.43012">
        <ele>1061.050226</ele>
        <time>2021-07-09T14:18:44+0200</time>
      </trkpt>
      <trkpt lat="45.04148" lon="3.43023">
        <ele>1060.356559</ele>
        <time>2021-07-09T14:18:45+0200</time>
      </trkpt>
      <trkpt lat="45.04154" lon="3.43034">
        <ele>1059.338933</ele>
        <time>2021-07-09T14:18:46+0200</time>
      </trkpt>
      <trkpt lat="45.0416" lon="3.43045">
        <ele>1058.600613</ele>
        <time>2021-07-09T14:18:47+0200</time>
      </trkpt>
      <trkpt lat="45.04166" lon="3.43055">
        <ele>1057.695658</ele>
        <time>2021-07-09T14:18:48+0200</time>
      </trkpt>
      <trkpt lat="45.04173" lon="3.43064">
        <ele>1057.201521</ele>
        <time>2021-07-09T14:18:49+0200</time>
      </trkpt>
      <trkpt lat="45.0418" lon="3.43073">
        <ele>1056.675105</ele>
        <time>2021-07-09T14:18:50+0200</time>
      </trkpt>
      <trkpt lat="45.04186" lon="3.43081">
        <ele>1055.355071</ele>
        <time>2021-07-09T14:18:51+0200</time>
      </trkpt>
      <trkpt lat="45.04194" lon="3.4309">
        <ele>1054.230456</ele>
        <time>2021-07-09T14:18:52+0200</time>
      </trkpt>
      <trkpt lat="45.042" lon="3.43097">
        <ele>1053.608319</ele>
        <time>2021-07-09T14:18:53+0200</time>
      </trkpt>
      <trkpt lat="45.04206" lon="3.43105">
        <ele>1053.237661</ele>
        <time>2021-07-09T14:18:54+0200</time>
      </trkpt>
      <trkpt lat="45.04213" lon="3.43114">
        <ele>1052.061081</ele>
        <time>2021-07-09T14:18:55+0200</time>
      </trkpt>
      <trkpt lat="45.0422" lon="3.4312">
        <ele>1051.139582</ele>
        <time>2021-07-09T14:18:56+0200</time>
      </trkpt>
      <trkpt lat="45.04226" lon="3.43128">
        <ele>1049.453549</ele>
        <time>2021-07-09T14:18:57+0200</time>
      </trkpt>
      <trkpt lat="45.04234" lon="3.43133">
        <ele>1048.531687</ele>
        <time>2021-07-09T14:18:58+0200</time>
      </trkpt>
      <trkpt lat="45.04242" lon="3.43139">
        <ele>1046.885374</ele>
        <time>2021-07-09T14:18:59+0200</time>
      </trkpt>
      <trkpt lat="45.0425" lon="3.43144">
        <ele>1046.117551</ele>
        <time>2021-07-09T14:19:00+0200</time>
      </trkpt>
      <trkpt lat="45.04258" lon="3.43148">
        <ele>1044.371345</ele>
        <time>2021-07-09T14:19:01+0200</time>
      </trkpt>
      <trkpt lat="45.04265" lon="3.43153">
        <ele>1042.684016</ele>
        <time>2021-07-09T14:19:02+0200</time>
      </trkpt>
      <trkpt lat="45.04274" lon="3.43156">
        <ele>1041.827532</ele>
        <time>2021-07-09T14:19:03+0200</time>
      </trkpt>
      <trkpt lat="45.04281" lon="3.4316">
        <ele>1040.866186</ele>
        <time>2021-07-09T14:19:04+0200</time>
      </trkpt>
      <trkpt lat="45.04289" lon="3.43164">
        <ele>1040.227444</ele>
        <time>2021-07-09T14:19:05+0200</time>
      </trkpt>
      <trkpt lat="45.04297" lon="3.43168">
        <ele>1039.314893</ele>
        <time>2021-07-09T14:19:06+0200</time>
      </trkpt>
      <trkpt lat="45.04306" lon="3.43172">
        <ele>1039.33859</ele>
        <time>2021-07-09T14:19:07+0200</time>
      </trkpt>
      <trkpt lat="45.04314" lon="3.43178">
        <ele>1038.622458</ele>
        <time>2021-07-09T14:19:08+0200</time>
      </trkpt>
      <trkpt lat="45.04322" lon="3.43184">
        <ele>1037.663942</ele>
        <time>2021-07-09T14:19:09+0200</time>
      </trkpt>
      <trkpt lat="45.04331" lon="3.43189">
        <ele>1037.228066</ele>
        <time>2021-07-09T14:19:10+0200</time>
      </trkpt>
      <trkpt lat="45.0434" lon="3.43196">
        <ele>1035.638021</ele>
        <time>2021-07-09T14:19:11+0200</time>
      </trkpt>
      <trkpt lat="45.04348" lon="3.43202">
        <ele>1034.041168</ele>
        <time>2021-07-09T14:19:12+0200</time>
      </trkpt>
      <trkpt lat="45.04356" lon="3.43208">
        <ele>1032.841547</ele>
        <time>2021-07-09T14:19:13+0200</time>
      </trkpt>
      <trkpt lat="45.04364" lon="3.43215">
        <ele>1032.690781</ele>
        <time>2021-07-09T14:19:14+0200</time>
      </trkpt>
      <trkpt lat="45.04371" lon="3.43223">
        <ele>1031.517779</ele>
        <time>2021-07-09T14:19:15+0200</time>
      </trkpt>
      <trkpt lat="45.04379" lon="3.43231">
        <ele>1030.690689</ele>
        <time>2021-07-09T14:19:16+0200</time>
      </trkpt>
      <trkpt lat="45.04387" lon="3.43239">
        <ele>1029.966839</ele>
        <time>2021-07-09T14:19:17+0200</time>
      </trkpt>
      <trkpt lat="45.04394" lon="3.43248">
        <ele>1029.544411</ele>
        <time>2021-07-09T14:19:18+0200</time>
      </trkpt>
      <trkpt lat="45.04399" lon="3.43257">
        <ele>1028.864993</ele>
        <time>2021-07-09T14:19:19+0200</time>
      </trkpt>
      <trkpt lat="45.04406" lon="3.43266">
        <ele>1028.712084</ele>
        <time>2021-07-09T14:19:20+0200</time>
      </trkpt>
      <trkpt lat="45.04412" lon="3.43275">
        <ele>1028.191624</ele>
        <time>2021-07-09T14:19:21+0200</time>
      </trkpt>
      <trkpt lat="45.04416" lon="3.43284">
        <ele>1027.795476</ele>
        <time>2021-07-09T14:19:22+0200</time>
      </trkpt>
      <trkpt lat="45.0442" lon="3.43293">
        <ele>1027.234184</ele>
        <time>2021-07-09T14:19:23+0200</time>
      </trkpt>
      <trkpt lat="45.04423" lon="3.43302">
        <ele>1026.862354</ele>
        <time>2021-07-09T14:19:24+0200</time>
      </trkpt>
      <trkpt lat="45.04427" lon="3.43308">
        <ele>1026.541667</ele>
        <time>2021-07-09T14:19:25+0200</time>
      </trkpt>
      <trkpt lat="45.04429" lon="3.43315">
        <ele>1026.400075</ele>
        <time>2021-07-09T14:19:26+0200</time>
      </trkpt>
      <trkpt lat="45.04431" lon="3.43325">
        <ele>1025.282916</ele>
        <time>2021-07-09T14:19:28+0200</time>
      </trkpt>
      <trkpt lat="45.04435" lon="3.43325">
        <ele>1024.254907</ele>
        <time>2021-07-09T14:19:57+0200</time>
      </trkpt>
      <trkpt lat="45.04439" lon="3.43332">
        <ele>1025.963916</ele>
        <time>2021-07-09T14:20:03+0200</time>
      </trkpt>
      <trkpt lat="45.0444" lon="3.43341">
        <ele>1025.756236</ele>
        <time>2021-07-09T14:20:06+0200</time>
      </trkpt>
      <trkpt lat="45.04444" lon="3.4335">
        <ele>1025.504734</ele>
        <time>2021-07-09T14:20:08+0200</time>
      </trkpt>
      <trkpt lat="45.04447" lon="3.43359">
        <ele>1024.64986</ele>
        <time>2021-07-09T14:20:10+0200</time>
      </trkpt>
      <trkpt lat="45.04451" lon="3.43367">
        <ele>1023.78678</ele>
        <time>2021-07-09T14:20:12+0200</time>
      </trkpt>
      <trkpt lat="45.04456" lon="3.43376">
        <ele>1023.065862</ele>
        <time>2021-07-09T14:20:14+0200</time>
      </trkpt>
      <trkpt lat="45.04462" lon="3.43383">
        <ele>1022.872368</ele>
        <time>2021-07-09T14:20:16+0200</time>
      </trkpt>
      <trkpt lat="45.04469" lon="3.43389">
        <ele>1022.311465</ele>
        <time>2021-07-09T14:20:18+0200</time>
      </trkpt>
      <trkpt lat="45.04477" lon="3.43394">
        <ele>1022.451988</ele>
        <time>2021-07-09T14:20:20+0200</time>
      </trkpt>
      <trkpt lat="45.04485" lon="3.43399">
        <ele>1022.323841</ele>
        <time>2021-07-09T14:20:22+0200</time>
      </trkpt>
      <trkpt lat="45.04493" lon="3.43404">
        <ele>1022.750684</ele>
        <time>2021-07-09T14:20:24+0200</time>
      </trkpt>
      <trkpt lat="45.045" lon="3.43409">
        <ele>1023.862216</ele>
        <time>2021-07-09T14:20:26+0200</time>
      </trkpt>
      <trkpt lat="45.04509" lon="3.43414">
        <ele>1024.194047</ele>
        <time>2021-07-09T14:20:28+0200</time>
      </trkpt>
      <trkpt lat="45.04513" lon="3.43416">
        <ele>1024.364899</ele>
        <time>2021-07-09T14:20:29+0200</time>
      </trkpt>
      <trkpt lat="45.04518" lon="3.43419">
        <ele>1024.434862</ele>
        <time>2021-07-09T14:20:30+0200</time>
      </trkpt>
      <trkpt lat="45.04523" lon="3.43422">
        <ele>1024.730595</ele>
        <time>2021-07-09T14:20:31+0200</time>
      </trkpt>
      <trkpt lat="45.04528" lon="3.43424">
        <ele>1024.820961</ele>
        <time>2021-07-09T14:20:32+0200</time>
      </trkpt>
      <trkpt lat="45.04533" lon="3.43426">
        <ele>1025.017596</ele>
        <time>2021-07-09T14:20:33+0200</time>
      </trkpt>
      <trkpt lat="45.04538" lon="3.43429">
        <ele>1024.790367</ele>
        <time>2021-07-09T14:20:34+0200</time>
      </trkpt>
      <trkpt lat="45.04543" lon="3.43432">
        <ele>1024.807662</ele>
        <time>2021-07-09T14:20:35+0200</time>
      </trkpt>
      <trkpt lat="45.04549" lon="3.43434">
        <ele>1024.658746</ele>
        <time>2021-07-09T14:20:36+0200</time>
      </trkpt>
      <trkpt lat="45.04554" lon="3.43436">
        <ele>1024.627777</ele>
        <time>2021-07-09T14:20:37+0200</time>
      </trkpt>
      <trkpt lat="45.0456" lon="3.43438">
        <ele>1024.714845</ele>
        <time>2021-07-09T14:20:38+0200</time>
      </trkpt>
      <trkpt lat="45.04565" lon="3.4344">
        <ele>1024.640084</ele>
        <time>2021-07-09T14:20:39+0200</time>
      </trkpt>
      <trkpt lat="45.0457" lon="3.43442">
        <ele>1024.793114</ele>
        <time>2021-07-09T14:20:40+0200</time>
      </trkpt>
      <trkpt lat="45.04576" lon="3.43443">
        <ele>1024.715452</ele>
        <time>2021-07-09T14:20:41+0200</time>
      </trkpt>
      <trkpt lat="45.04581" lon="3.43446">
        <ele>1024.754318</ele>
        <time>2021-07-09T14:20:42+0200</time>
      </trkpt>
      <trkpt lat="45.04586" lon="3.43451">
        <ele>1024.907108</ele>
        <time>2021-07-09T14:20:43+0200</time>
      </trkpt>
      <trkpt lat="45.0459" lon="3.43457">
        <ele>1025.336566</ele>
        <time>2021-07-09T14:20:44+0200</time>
      </trkpt>
      <trkpt lat="45.04595" lon="3.43461">
        <ele>1025.082808</ele>
        <time>2021-07-09T14:20:45+0200</time>
      </trkpt>
      <trkpt lat="45.046" lon="3.43465">
        <ele>1025.050635</ele>
        <time>2021-07-09T14:20:46+0200</time>
      </trkpt>
      <trkpt lat="45.04604" lon="3.4347">
        <ele>1025.37222</ele>
        <time>2021-07-09T14:20:47+0200</time>
      </trkpt>
      <trkpt lat="45.04607" lon="3.43474">
        <ele>1025.595091</ele>
        <time>2021-07-09T14:20:48+0200</time>
      </trkpt>
      <trkpt lat="45.04614" lon="3.43481">
        <ele>1025.784419</ele>
        <time>2021-07-09T14:20:50+0200</time>
      </trkpt>
      <trkpt lat="45.0462" lon="3.43489">
        <ele>1025.57185</ele>
        <time>2021-07-09T14:20:52+0200</time>
      </trkpt>
      <trkpt lat="45.04625" lon="3.43498">
        <ele>1025.413517</ele>
        <time>2021-07-09T14:20:54+0200</time>
      </trkpt>
      <trkpt lat="45.04631" lon="3.43507">
        <ele>1024.734567</ele>
        <time>2021-07-09T14:20:56+0200</time>
      </trkpt>
      <trkpt lat="45.04633" lon="3.43512">
        <ele>1024.388856</ele>
        <time>2021-07-09T14:20:57+0200</time>
      </trkpt>
      <trkpt lat="45.04636" lon="3.43518">
        <ele>1023.758266</ele>
        <time>2021-07-09T14:20:58+0200</time>
      </trkpt>
      <trkpt lat="45.04641" lon="3.43528">
        <ele>1022.853253</ele>
        <time>2021-07-09T14:21:00+0200</time>
      </trkpt>
      <trkpt lat="45.04644" lon="3.43534">
        <ele>1022.498567</ele>
        <time>2021-07-09T14:21:01+0200</time>
      </trkpt>
      <trkpt lat="45.04647" lon="3.43539">
        <ele>1022.150582</ele>
        <time>2021-07-09T14:21:02+0200</time>
      </trkpt>
      <trkpt lat="45.0465" lon="3.43544">
        <ele>1022.125863</ele>
        <time>2021-07-09T14:21:03+0200</time>
      </trkpt>
      <trkpt lat="45.04656" lon="3.43553">
        <ele>1022.04867</ele>
        <time>2021-07-09T14:21:05+0200</time>
      </trkpt>
      <trkpt lat="45.04661" lon="3.43559">
        <ele>1022.428996</ele>
        <time>2021-07-09T14:21:07+0200</time>
      </trkpt>
      <trkpt lat="45.04665" lon="3.43567">
        <ele>1022.096449</ele>
        <time>2021-07-09T14:21:09+0200</time>
      </trkpt>
      <trkpt lat="45.04669" lon="3.43575">
        <ele>1022.003507</ele>
        <time>2021-07-09T14:21:11+0200</time>
      </trkpt>
      <trkpt lat="45.04674" lon="3.43581">
        <ele>1022.374329</ele>
        <time>2021-07-09T14:21:13+0200</time>
      </trkpt>
      <trkpt lat="45.04678" lon="3.43586">
        <ele>1022.666378</ele>
        <time>2021-07-09T14:21:15+0200</time>
      </trkpt>
      <trkpt lat="45.04683" lon="3.43591">
        <ele>1022.350601</ele>
        <time>2021-07-09T14:21:17+0200</time>
      </trkpt>
      <trkpt lat="45.04688" lon="3.43599">
        <ele>1022.788423</ele>
        <time>2021-07-09T14:21:19+0200</time>
      </trkpt>
      <trkpt lat="45.04692" lon="3.43605">
        <ele>1023.103601</ele>
        <time>2021-07-09T14:21:21+0200</time>
      </trkpt>
      <trkpt lat="45.04696" lon="3.4361">
        <ele>1023.173908</ele>
        <time>2021-07-09T14:21:23+0200</time>
      </trkpt>
      <trkpt lat="45.047" lon="3.43615">
        <ele>1023.209233</ele>
        <time>2021-07-09T14:21:25+0200</time>
      </trkpt>
      <trkpt lat="45.04704" lon="3.43621">
        <ele>1023.488824</ele>
        <time>2021-07-09T14:21:27+0200</time>
      </trkpt>
      <trkpt lat="45.04708" lon="3.43627">
        <ele>1023.491993</ele>
        <time>2021-07-09T14:21:29+0200</time>
      </trkpt>
      <trkpt lat="45.04711" lon="3.43633">
        <ele>1023.412876</ele>
        <time>2021-07-09T14:21:31+0200</time>
      </trkpt>
      <trkpt lat="45.04714" lon="3.4364">
        <ele>1023.336275</ele>
        <time>2021-07-09T14:21:33+0200</time>
      </trkpt>
      <trkpt lat="45.04717" lon="3.43646">
        <ele>1023.850055</ele>
        <time>2021-07-09T14:21:35+0200</time>
      </trkpt>
      <trkpt lat="45.0472" lon="3.43654">
        <ele>1024.285215</ele>
        <time>2021-07-09T14:21:37+0200</time>
      </trkpt>
      <trkpt lat="45.04723" lon="3.43661">
        <ele>1024.22899</ele>
        <time>2021-07-09T14:21:39+0200</time>
      </trkpt>
      <trkpt lat="45.04727" lon="3.4367">
        <ele>1024.631889</ele>
        <time>2021-07-09T14:21:41+0200</time>
      </trkpt>
      <trkpt lat="45.0473" lon="3.43677">
        <ele>1024.036692</ele>
        <time>2021-07-09T14:21:43+0200</time>
      </trkpt>
      <trkpt lat="45.04731" lon="3.43686">
        <ele>1024.455203</ele>
        <time>2021-07-09T14:21:45+0200</time>
      </trkpt>
      <trkpt lat="45.04734" lon="3.43694">
        <ele>1023.812734</ele>
        <time>2021-07-09T14:21:47+0200</time>
      </trkpt>
      <trkpt lat="45.04737" lon="3.43702">
        <ele>1023.747731</ele>
        <time>2021-07-09T14:21:49+0200</time>
      </trkpt>
      <trkpt lat="45.04741" lon="3.43711">
        <ele>1023.533589</ele>
        <time>2021-07-09T14:21:51+0200</time>
      </trkpt>
      <trkpt lat="45.04744" lon="3.43721">
        <ele>1023.436444</ele>
        <time>2021-07-09T14:21:53+0200</time>
      </trkpt>
      <trkpt lat="45.04746" lon="3.43731">
        <ele>1023.391443</ele>
        <time>2021-07-09T14:21:55+0200</time>
      </trkpt>
      <trkpt lat="45.0475" lon="3.43741">
        <ele>1023.615894</ele>
        <time>2021-07-09T14:21:57+0200</time>
      </trkpt>
      <trkpt lat="45.04753" lon="3.43751">
        <ele>1023.459334</ele>
        <time>2021-07-09T14:21:59+0200</time>
      </trkpt>
      <trkpt lat="45.04755" lon="3.43762">
        <ele>1023.692133</ele>
        <time>2021-07-09T14:22:01+0200</time>
      </trkpt>
      <trkpt lat="45.04759" lon="3.43771">
        <ele>1023.346067</ele>
        <time>2021-07-09T14:22:03+0200</time>
      </trkpt>
      <trkpt lat="45.0476" lon="3.43781">
        <ele>1022.818845</ele>
        <time>2021-07-09T14:22:05+0200</time>
      </trkpt>
      <trkpt lat="45.04764" lon="3.4379">
        <ele>1022.002255</ele>
        <time>2021-07-09T14:22:07+0200</time>
      </trkpt>
      <trkpt lat="45.04768" lon="3.43799">
        <ele>1021.26524</ele>
        <time>2021-07-09T14:22:09+0200</time>
      </trkpt>
      <trkpt lat="45.04771" lon="3.43809">
        <ele>1020.795755</ele>
        <time>2021-07-09T14:22:11+0200</time>
      </trkpt>
      <trkpt lat="45.04776" lon="3.43819">
        <ele>1020.196118</ele>
        <time>2021-07-09T14:22:13+0200</time>
      </trkpt>
      <trkpt lat="45.04778" lon="3.43825">
        <ele>1020.140543</ele>
        <time>2021-07-09T14:22:14+0200</time>
      </trkpt>
      <trkpt lat="45.0478" lon="3.43831">
        <ele>1020.508372</ele>
        <time>2021-07-09T14:22:15+0200</time>
      </trkpt>
      <trkpt lat="45.04782" lon="3.43837">
        <ele>1020.228072</ele>
        <time>2021-07-09T14:22:16+0200</time>
      </trkpt>
      <trkpt lat="45.04786" lon="3.43843">
        <ele>1020.935418</ele>
        <time>2021-07-09T14:22:17+0200</time>
      </trkpt>
      <trkpt lat="45.04791" lon="3.43854">
        <ele>1019.335356</ele>
        <time>2021-07-09T14:22:19+0200</time>
      </trkpt>
      <trkpt lat="45.04795" lon="3.43859">
        <ele>1018.389035</ele>
        <time>2021-07-09T14:22:20+0200</time>
      </trkpt>
      <trkpt lat="45.04799" lon="3.43863">
        <ele>1018.152708</ele>
        <time>2021-07-09T14:22:21+0200</time>
      </trkpt>
      <trkpt lat="45.04803" lon="3.43868">
        <ele>1017.720767</ele>
        <time>2021-07-09T14:22:22+0200</time>
      </trkpt>
      <trkpt lat="45.04807" lon="3.43874">
        <ele>1017.139919</ele>
        <time>2021-07-09T14:22:23+0200</time>
      </trkpt>
      <trkpt lat="45.04811" lon="3.43878">
        <ele>1017.275331</ele>
        <time>2021-07-09T14:22:24+0200</time>
      </trkpt>
      <trkpt lat="45.04817" lon="3.43886">
        <ele>1016.208984</ele>
        <time>2021-07-09T14:22:26+0200</time>
      </trkpt>
      <trkpt lat="45.04822" lon="3.43897">
        <ele>1014.192096</ele>
        <time>2021-07-09T14:22:28+0200</time>
      </trkpt>
      <trkpt lat="45.04827" lon="3.43904">
        <ele>1012.631198</ele>
        <time>2021-07-09T14:22:30+0200</time>
      </trkpt>
      <trkpt lat="45.0483" lon="3.43909">
        <ele>1011.006879</ele>
        <time>2021-07-09T14:22:31+0200</time>
      </trkpt>
      <trkpt lat="45.04835" lon="3.43919">
        <ele>1006.426304</ele>
        <time>2021-07-09T14:22:33+0200</time>
      </trkpt>
      <trkpt lat="45.04841" lon="3.43928">
        <ele>1004.986175</ele>
        <time>2021-07-09T14:22:35+0200</time>
      </trkpt>
      <trkpt lat="45.04844" lon="3.43934">
        <ele>1004.919585</ele>
        <time>2021-07-09T14:22:36+0200</time>
      </trkpt>
      <trkpt lat="45.04846" lon="3.4394">
        <ele>1004.001129</ele>
        <time>2021-07-09T14:22:37+0200</time>
      </trkpt>
      <trkpt lat="45.04849" lon="3.4395">
        <ele>1003.68248</ele>
        <time>2021-07-09T14:22:39+0200</time>
      </trkpt>
      <trkpt lat="45.04853" lon="3.43957">
        <ele>1003.408388</ele>
        <time>2021-07-09T14:22:40+0200</time>
      </trkpt>
      <trkpt lat="45.04858" lon="3.43963">
        <ele>1004.674944</ele>
        <time>2021-07-09T14:22:41+0200</time>
      </trkpt>
      <trkpt lat="45.0486" lon="3.43969">
        <ele>1005.587326</ele>
        <time>2021-07-09T14:22:42+0200</time>
      </trkpt>
      <trkpt lat="45.04865" lon="3.43975">
        <ele>1005.109442</ele>
        <time>2021-07-09T14:22:43+0200</time>
      </trkpt>
      <trkpt lat="45.0487" lon="3.4398">
        <ele>1004.249694</ele>
        <time>2021-07-09T14:22:44+0200</time>
      </trkpt>
      <trkpt lat="45.04876" lon="3.43989">
        <ele>1002.932731</ele>
        <time>2021-07-09T14:22:46+0200</time>
      </trkpt>
      <trkpt lat="45.0488" lon="3.44001">
        <ele>1001.656082</ele>
        <time>2021-07-09T14:22:48+0200</time>
      </trkpt>
      <trkpt lat="45.04883" lon="3.44006">
        <ele>1001.410534</ele>
        <time>2021-07-09T14:22:49+0200</time>
      </trkpt>
      <trkpt lat="45.04884" lon="3.44013">
        <ele>1002.698894</ele>
        <time>2021-07-09T14:22:50+0200</time>
      </trkpt>
      <trkpt lat="45.04883" lon="3.4402">
        <ele>1005.304644</ele>
        <time>2021-07-09T14:22:51+0200</time>
      </trkpt>
      <trkpt lat="45.04882" lon="3.44027">
        <ele>1009.656031</ele>
        <time>2021-07-09T14:23:02+0200</time>
      </trkpt>
      <trkpt lat="45.04879" lon="3.44032">
        <ele>1013.631666</ele>
        <time>2021-07-09T14:23:12+0200</time>
      </trkpt>
      <trkpt lat="45.04881" lon="3.4404">
        <ele>1015.846858</ele>
        <time>2021-07-09T14:23:22+0200</time>
      </trkpt>
      <trkpt lat="45.04881" lon="3.44047">
        <ele>1015.697778</ele>
        <time>2021-07-09T14:23:24+0200</time>
      </trkpt>
      <trkpt lat="45.0488" lon="3.44055">
        <ele>1016.447963</ele>
        <time>2021-07-09T14:23:26+0200</time>
      </trkpt>
      <trkpt lat="45.0488" lon="3.44063">
        <ele>1015.518682</ele>
        <time>2021-07-09T14:23:28+0200</time>
      </trkpt>
      <trkpt lat="45.04879" lon="3.44072">
        <ele>1013.942783</ele>
        <time>2021-07-09T14:23:30+0200</time>
      </trkpt>
      <trkpt lat="45.04881" lon="3.44082">
        <ele>1012.240463</ele>
        <time>2021-07-09T14:23:32+0200</time>
      </trkpt>
      <trkpt lat="45.04882" lon="3.44094">
        <ele>1010.476191</ele>
        <time>2021-07-09T14:23:34+0200</time>
      </trkpt>
      <trkpt lat="45.04883" lon="3.441">
        <ele>1009.753218</ele>
        <time>2021-07-09T14:23:35+0200</time>
      </trkpt>
      <trkpt lat="45.04886" lon="3.44112">
        <ele>1009.399986</ele>
        <time>2021-07-09T14:23:37+0200</time>
      </trkpt>
      <trkpt lat="45.04887" lon="3.44119">
        <ele>1008.990467</ele>
        <time>2021-07-09T14:23:38+0200</time>
      </trkpt>
      <trkpt lat="45.04888" lon="3.44125">
        <ele>1008.816554</ele>
        <time>2021-07-09T14:23:39+0200</time>
      </trkpt>
      <trkpt lat="45.04889" lon="3.44132">
        <ele>1007.903624</ele>
        <time>2021-07-09T14:23:40+0200</time>
      </trkpt>
      <trkpt lat="45.0489" lon="3.44139">
        <ele>1007.179303</ele>
        <time>2021-07-09T14:23:41+0200</time>
      </trkpt>
      <trkpt lat="45.04891" lon="3.44146">
        <ele>1006.522239</ele>
        <time>2021-07-09T14:23:42+0200</time>
      </trkpt>
      <trkpt lat="45.04892" lon="3.44154">
        <ele>1006.699169</ele>
        <time>2021-07-09T14:23:43+0200</time>
      </trkpt>
      <trkpt lat="45.04894" lon="3.44162">
        <ele>1006.392696</ele>
        <time>2021-07-09T14:23:44+0200</time>
      </trkpt>
      <trkpt lat="45.04896" lon="3.4417">
        <ele>1006.265473</ele>
        <time>2021-07-09T14:23:45+0200</time>
      </trkpt>
      <trkpt lat="45.04897" lon="3.44178">
        <ele>1006.063597</ele>
        <time>2021-07-09T14:23:46+0200</time>
      </trkpt>
      <trkpt lat="45.04896" lon="3.44186">
        <ele>1005.343295</ele>
        <time>2021-07-09T14:23:47+0200</time>
      </trkpt>
      <trkpt lat="45.04899" lon="3.44193">
        <ele>1004.871525</ele>
        <time>2021-07-09T14:23:48+0200</time>
      </trkpt>
      <trkpt lat="45.049" lon="3.44201">
        <ele>1004.717179</ele>
        <time>2021-07-09T14:23:49+0200</time>
      </trkpt>
      <trkpt lat="45.04902" lon="3.44209">
        <ele>1004.720196</ele>
        <time>2021-07-09T14:23:50+0200</time>
      </trkpt>
      <trkpt lat="45.04902" lon="3.44218">
        <ele>1004.64989</ele>
        <time>2021-07-09T14:23:51+0200</time>
      </trkpt>
      <trkpt lat="45.04905" lon="3.44226">
        <ele>1004.241793</ele>
        <time>2021-07-09T14:23:52+0200</time>
      </trkpt>
      <trkpt lat="45.04907" lon="3.44234">
        <ele>1003.983438</ele>
        <time>2021-07-09T14:23:53+0200</time>
      </trkpt>
      <trkpt lat="45.04908" lon="3.44243">
        <ele>1003.802897</ele>
        <time>2021-07-09T14:23:54+0200</time>
      </trkpt>
      <trkpt lat="45.0491" lon="3.44251">
        <ele>1003.940333</ele>
        <time>2021-07-09T14:23:55+0200</time>
      </trkpt>
      <trkpt lat="45.04912" lon="3.4426">
        <ele>1003.661039</ele>
        <time>2021-07-09T14:23:56+0200</time>
      </trkpt>
      <trkpt lat="45.04913" lon="3.44268">
        <ele>1003.738591</ele>
        <time>2021-07-09T14:23:57+0200</time>
      </trkpt>
      <trkpt lat="45.04914" lon="3.44276">
        <ele>1003.362573</ele>
        <time>2021-07-09T14:23:58+0200</time>
      </trkpt>
      <trkpt lat="45.04916" lon="3.44285">
        <ele>1002.630045</ele>
        <time>2021-07-09T14:23:59+0200</time>
      </trkpt>
      <trkpt lat="45.04919" lon="3.44293">
        <ele>1002.287901</ele>
        <time>2021-07-09T14:24:00+0200</time>
      </trkpt>
      <trkpt lat="45.04922" lon="3.44301">
        <ele>1002.434278</ele>
        <time>2021-07-09T14:24:01+0200</time>
      </trkpt>
      <trkpt lat="45.04925" lon="3.44308">
        <ele>1001.814382</ele>
        <time>2021-07-09T14:24:02+0200</time>
      </trkpt>
      <trkpt lat="45.04929" lon="3.44314">
        <ele>1001.679602</ele>
        <time>2021-07-09T14:24:03+0200</time>
      </trkpt>
      <trkpt lat="45.04933" lon="3.44321">
        <ele>1001.539115</ele>
        <time>2021-07-09T14:24:04+0200</time>
      </trkpt>
      <trkpt lat="45.04938" lon="3.44327">
        <ele>1001.062359</ele>
        <time>2021-07-09T14:24:05+0200</time>
      </trkpt>
      <trkpt lat="45.04943" lon="3.44332">
        <ele>1000.608299</ele>
        <time>2021-07-09T14:24:06+0200</time>
      </trkpt>
      <trkpt lat="45.04948" lon="3.44337">
        <ele>1000.356623</ele>
        <time>2021-07-09T14:24:07+0200</time>
      </trkpt>
      <trkpt lat="45.04954" lon="3.44341">
        <ele>1000.933039</ele>
        <time>2021-07-09T14:24:08+0200</time>
      </trkpt>
      <trkpt lat="45.0496" lon="3.44345">
        <ele>1000.156428</ele>
        <time>2021-07-09T14:24:09+0200</time>
      </trkpt>
      <trkpt lat="45.04965" lon="3.44348">
        <ele>1000.38802</ele>
        <time>2021-07-09T14:24:10+0200</time>
      </trkpt>
      <trkpt lat="45.04971" lon="3.44352">
        <ele>1000.559047</ele>
        <time>2021-07-09T14:24:11+0200</time>
      </trkpt>
      <trkpt lat="45.04976" lon="3.44356">
        <ele>1000.353029</ele>
        <time>2021-07-09T14:24:12+0200</time>
      </trkpt>
      <trkpt lat="45.04982" lon="3.4436">
        <ele>1000.249266</ele>
        <time>2021-07-09T14:24:13+0200</time>
      </trkpt>
      <trkpt lat="45.04988" lon="3.44364">
        <ele>1000.050313</ele>
        <time>2021-07-09T14:24:14+0200</time>
      </trkpt>
      <trkpt lat="45.04993" lon="3.44368">
        <ele>999.787922</ele>
        <time>2021-07-09T14:24:15+0200</time>
      </trkpt>
      <trkpt lat="45.04999" lon="3.44373">
        <ele>999.363744</ele>
        <time>2021-07-09T14:24:16+0200</time>
      </trkpt>
      <trkpt lat="45.05005" lon="3.44379">
        <ele>999.07339</ele>
        <time>2021-07-09T14:24:17+0200</time>
      </trkpt>
      <trkpt lat="45.0501" lon="3.44384">
        <ele>998.044889</ele>
        <time>2021-07-09T14:24:18+0200</time>
      </trkpt>
      <trkpt lat="45.05015" lon="3.4439">
        <ele>997.781445</ele>
        <time>2021-07-09T14:24:19+0200</time>
      </trkpt>
      <trkpt lat="45.0502" lon="3.44396">
        <ele>997.138584</ele>
        <time>2021-07-09T14:24:20+0200</time>
      </trkpt>
      <trkpt lat="45.05025" lon="3.44402">
        <ele>996.380129</ele>
        <time>2021-07-09T14:24:21+0200</time>
      </trkpt>
      <trkpt lat="45.05029" lon="3.44409">
        <ele>995.598048</ele>
        <time>2021-07-09T14:24:22+0200</time>
      </trkpt>
      <trkpt lat="45.05034" lon="3.44416">
        <ele>994.882683</ele>
        <time>2021-07-09T14:24:23+0200</time>
      </trkpt>
      <trkpt lat="45.05038" lon="3.44424">
        <ele>995.640566</ele>
        <time>2021-07-09T14:24:24+0200</time>
      </trkpt>
      <trkpt lat="45.05043" lon="3.4443">
        <ele>995.789058</ele>
        <time>2021-07-09T14:24:25+0200</time>
      </trkpt>
      <trkpt lat="45.05048" lon="3.44436">
        <ele>995.785897</ele>
        <time>2021-07-09T14:24:26+0200</time>
      </trkpt>
      <trkpt lat="45.05054" lon="3.4444">
        <ele>995.626302</ele>
        <time>2021-07-09T14:24:27+0200</time>
      </trkpt>
      <trkpt lat="45.0506" lon="3.44444">
        <ele>995.731242</ele>
        <time>2021-07-09T14:24:28+0200</time>
      </trkpt>
      <trkpt lat="45.05066" lon="3.44449">
        <ele>995.598988</ele>
        <time>2021-07-09T14:24:29+0200</time>
      </trkpt>
      <trkpt lat="45.05071" lon="3.44454">
        <ele>995.867507</ele>
        <time>2021-07-09T14:24:30+0200</time>
      </trkpt>
      <trkpt lat="45.05077" lon="3.44458">
        <ele>995.48587</ele>
        <time>2021-07-09T14:24:31+0200</time>
      </trkpt>
      <trkpt lat="45.05083" lon="3.44463">
        <ele>995.889937</ele>
        <time>2021-07-09T14:24:32+0200</time>
      </trkpt>
      <trkpt lat="45.05088" lon="3.44466">
        <ele>996.183995</ele>
        <time>2021-07-09T14:24:33+0200</time>
      </trkpt>
      <trkpt lat="45.05093" lon="3.4447">
        <ele>996.424472</ele>
        <time>2021-07-09T14:24:34+0200</time>
      </trkpt>
      <trkpt lat="45.05099" lon="3.44474">
        <ele>996.286172</ele>
        <time>2021-07-09T14:24:35+0200</time>
      </trkpt>
      <trkpt lat="45.05103" lon="3.44477">
        <ele>996.506069</ele>
        <time>2021-07-09T14:24:36+0200</time>
      </trkpt>
      <trkpt lat="45.05108" lon="3.44481">
        <ele>996.578583</ele>
        <time>2021-07-09T14:24:37+0200</time>
      </trkpt>
      <trkpt lat="45.05113" lon="3.44484">
        <ele>997.439598</ele>
        <time>2021-07-09T14:24:38+0200</time>
      </trkpt>
      <trkpt lat="45.05118" lon="3.44487">
        <ele>997.923224</ele>
        <time>2021-07-09T14:24:39+0200</time>
      </trkpt>
      <trkpt lat="45.05122" lon="3.4449">
        <ele>998.136229</ele>
        <time>2021-07-09T14:24:40+0200</time>
      </trkpt>
      <trkpt lat="45.05128" lon="3.44492">
        <ele>998.527141</ele>
        <time>2021-07-09T14:24:41+0200</time>
      </trkpt>
      <trkpt lat="45.05133" lon="3.44494">
        <ele>999.392157</ele>
        <time>2021-07-09T14:24:42+0200</time>
      </trkpt>
      <trkpt lat="45.05138" lon="3.44498">
        <ele>999.801253</ele>
        <time>2021-07-09T14:24:43+0200</time>
      </trkpt>
      <trkpt lat="45.05143" lon="3.44501">
        <ele>1000.181558</ele>
        <time>2021-07-09T14:24:44+0200</time>
      </trkpt>
      <trkpt lat="45.05148" lon="3.44505">
        <ele>1000.159307</ele>
        <time>2021-07-09T14:24:45+0200</time>
      </trkpt>
      <trkpt lat="45.05152" lon="3.44509">
        <ele>1000.517308</ele>
        <time>2021-07-09T14:24:46+0200</time>
      </trkpt>
      <trkpt lat="45.05156" lon="3.44513">
        <ele>1001.427729</ele>
        <time>2021-07-09T14:24:47+0200</time>
      </trkpt>
      <trkpt lat="45.0516" lon="3.44518">
        <ele>1001.176655</ele>
        <time>2021-07-09T14:24:48+0200</time>
      </trkpt>
      <trkpt lat="45.05164" lon="3.44523">
        <ele>1000.482484</ele>
        <time>2021-07-09T14:24:49+0200</time>
      </trkpt>
      <trkpt lat="45.05169" lon="3.44529">
        <ele>1000.170921</ele>
        <time>2021-07-09T14:24:50+0200</time>
      </trkpt>
      <trkpt lat="45.05174" lon="3.44534">
        <ele>999.777752</ele>
        <time>2021-07-09T14:24:51+0200</time>
      </trkpt>
      <trkpt lat="45.05179" lon="3.44537">
        <ele>998.796371</ele>
        <time>2021-07-09T14:24:52+0200</time>
      </trkpt>
      <trkpt lat="45.05183" lon="3.44542">
        <ele>998.167237</ele>
        <time>2021-07-09T14:24:53+0200</time>
      </trkpt>
      <trkpt lat="45.05186" lon="3.44547">
        <ele>997.383714</ele>
        <time>2021-07-09T14:24:54+0200</time>
      </trkpt>
      <trkpt lat="45.0519" lon="3.44553">
        <ele>996.854049</ele>
        <time>2021-07-09T14:24:55+0200</time>
      </trkpt>
      <trkpt lat="45.05197" lon="3.44561">
        <ele>995.824415</ele>
        <time>2021-07-09T14:24:57+0200</time>
      </trkpt>
      <trkpt lat="45.05204" lon="3.44567">
        <ele>997.637293</ele>
        <time>2021-07-09T14:24:59+0200</time>
      </trkpt>
      <trkpt lat="45.05209" lon="3.4457">
        <ele>997.781065</ele>
        <time>2021-07-09T14:25:00+0200</time>
      </trkpt>
      <trkpt lat="45.05214" lon="3.44571">
        <ele>998.990678</ele>
        <time>2021-07-09T14:25:01+0200</time>
      </trkpt>
      <trkpt lat="45.05222" lon="3.44573">
        <ele>1001.880731</ele>
        <time>2021-07-09T14:25:03+0200</time>
      </trkpt>
      <trkpt lat="45.05229" lon="3.44572">
        <ele>1004.283784</ele>
        <time>2021-07-09T14:25:05+0200</time>
      </trkpt>
      <trkpt lat="45.05234" lon="3.44571">
        <ele>1005.734577</ele>
        <time>2021-07-09T14:25:06+0200</time>
      </trkpt>
      <trkpt lat="45.05239" lon="3.44572">
        <ele>1006.469511</ele>
        <time>2021-07-09T14:25:07+0200</time>
      </trkpt>
      <trkpt lat="45.05245" lon="3.44572">
        <ele>1007.446143</ele>
        <time>2021-07-09T14:25:08+0200</time>
      </trkpt>
      <trkpt lat="45.05252" lon="3.44573">
        <ele>1006.93916</ele>
        <time>2021-07-09T14:25:09+0200</time>
      </trkpt>
      <trkpt lat="45.05258" lon="3.44573">
        <ele>1006.128969</ele>
        <time>2021-07-09T14:25:10+0200</time>
      </trkpt>
      <trkpt lat="45.05262" lon="3.44573">
        <ele>1005.905615</ele>
        <time>2021-07-09T14:25:11+0200</time>
      </trkpt>
      <trkpt lat="45.05269" lon="3.44572">
        <ele>1006.988344</ele>
        <time>2021-07-09T14:25:13+0200</time>
      </trkpt>
      <trkpt lat="45.05277" lon="3.44573">
        <ele>1006.999062</ele>
        <time>2021-07-09T14:25:15+0200</time>
      </trkpt>
      <trkpt lat="45.05285" lon="3.44574">
        <ele>1006.199916</ele>
        <time>2021-07-09T14:25:17+0200</time>
      </trkpt>
      <trkpt lat="45.05292" lon="3.44577">
        <ele>1005.398972</ele>
        <time>2021-07-09T14:25:19+0200</time>
      </trkpt>
      <trkpt lat="45.05299" lon="3.44581">
        <ele>1004.097109</ele>
        <time>2021-07-09T14:25:21+0200</time>
      </trkpt>
      <trkpt lat="45.05305" lon="3.44584">
        <ele>1003.233104</ele>
        <time>2021-07-09T14:25:23+0200</time>
      </trkpt>
      <trkpt lat="45.05311" lon="3.44589">
        <ele>1003.145733</ele>
        <time>2021-07-09T14:25:25+0200</time>
      </trkpt>
      <trkpt lat="45.05316" lon="3.44595">
        <ele>1003.429789</ele>
        <time>2021-07-09T14:25:27+0200</time>
      </trkpt>
      <trkpt lat="45.05322" lon="3.446">
        <ele>1004.278183</ele>
        <time>2021-07-09T14:25:29+0200</time>
      </trkpt>
      <trkpt lat="45.05327" lon="3.44607">
        <ele>1004.710877</ele>
        <time>2021-07-09T14:25:31+0200</time>
      </trkpt>
      <trkpt lat="45.05333" lon="3.44614">
        <ele>1005.309586</ele>
        <time>2021-07-09T14:25:33+0200</time>
      </trkpt>
      <trkpt lat="45.05341" lon="3.44619">
        <ele>1004.54276</ele>
        <time>2021-07-09T14:25:35+0200</time>
      </trkpt>
      <trkpt lat="45.05347" lon="3.44625">
        <ele>1004.893645</ele>
        <time>2021-07-09T14:25:37+0200</time>
      </trkpt>
      <trkpt lat="45.05355" lon="3.4463">
        <ele>1004.215003</ele>
        <time>2021-07-09T14:25:39+0200</time>
      </trkpt>
      <trkpt lat="45.05359" lon="3.44631">
        <ele>1003.766415</ele>
        <time>2021-07-09T14:25:40+0200</time>
      </trkpt>
      <trkpt lat="45.05366" lon="3.44634">
        <ele>1004.274452</ele>
        <time>2021-07-09T14:25:42+0200</time>
      </trkpt>
      <trkpt lat="45.05374" lon="3.44636">
        <ele>1005.852463</ele>
        <time>2021-07-09T14:25:44+0200</time>
      </trkpt>
      <trkpt lat="45.05381" lon="3.44638">
        <ele>1006.301003</ele>
        <time>2021-07-09T14:25:46+0200</time>
      </trkpt>
      <trkpt lat="45.05387" lon="3.44639">
        <ele>1007.901578</ele>
        <time>2021-07-09T14:25:48+0200</time>
      </trkpt>
      <trkpt lat="45.05394" lon="3.44641">
        <ele>1008.841281</ele>
        <time>2021-07-09T14:25:50+0200</time>
      </trkpt>
      <trkpt lat="45.05399" lon="3.44641">
        <ele>1007.951477</ele>
        <time>2021-07-09T14:25:51+0200</time>
      </trkpt>
      <trkpt lat="45.05406" lon="3.44642">
        <ele>1009.828995</ele>
        <time>2021-07-09T14:25:53+0200</time>
      </trkpt>
      <trkpt lat="45.05412" lon="3.44642">
        <ele>1009.699568</ele>
        <time>2021-07-09T14:25:54+0200</time>
      </trkpt>
      <trkpt lat="45.05417" lon="3.44644">
        <ele>1009.330275</ele>
        <time>2021-07-09T14:25:55+0200</time>
      </trkpt>
      <trkpt lat="45.05422" lon="3.44644">
        <ele>1008.723485</ele>
        <time>2021-07-09T14:25:56+0200</time>
      </trkpt>
      <trkpt lat="45.05428" lon="3.44644">
        <ele>1008.101091</ele>
        <time>2021-07-09T14:25:57+0200</time>
      </trkpt>
      <trkpt lat="45.05433" lon="3.44644">
        <ele>1007.808206</ele>
        <time>2021-07-09T14:25:58+0200</time>
      </trkpt>
      <trkpt lat="45.05439" lon="3.44644">
        <ele>1008.743475</ele>
        <time>2021-07-09T14:25:59+0200</time>
      </trkpt>
      <trkpt lat="45.05445" lon="3.44645">
        <ele>1007.059114</ele>
        <time>2021-07-09T14:26:00+0200</time>
      </trkpt>
      <trkpt lat="45.0545" lon="3.44647">
        <ele>1007.168317</ele>
        <time>2021-07-09T14:26:01+0200</time>
      </trkpt>
      <trkpt lat="45.05456" lon="3.44649">
        <ele>1007.061035</ele>
        <time>2021-07-09T14:26:02+0200</time>
      </trkpt>
      <trkpt lat="45.05461" lon="3.44651">
        <ele>1007.376977</ele>
        <time>2021-07-09T14:26:03+0200</time>
      </trkpt>
      <trkpt lat="45.05467" lon="3.44653">
        <ele>1007.070532</ele>
        <time>2021-07-09T14:26:04+0200</time>
      </trkpt>
      <trkpt lat="45.05474" lon="3.44654">
        <ele>1006.743258</ele>
        <time>2021-07-09T14:26:05+0200</time>
      </trkpt>
      <trkpt lat="45.05481" lon="3.44656">
        <ele>1005.462265</ele>
        <time>2021-07-09T14:26:06+0200</time>
      </trkpt>
      <trkpt lat="45.05487" lon="3.44658">
        <ele>1004.954877</ele>
        <time>2021-07-09T14:26:07+0200</time>
      </trkpt>
      <trkpt lat="45.05493" lon="3.4466">
        <ele>1004.964504</ele>
        <time>2021-07-09T14:26:08+0200</time>
      </trkpt>
      <trkpt lat="45.05499" lon="3.44662">
        <ele>1003.763295</ele>
        <time>2021-07-09T14:26:09+0200</time>
      </trkpt>
      <trkpt lat="45.05507" lon="3.44663">
        <ele>1001.700921</ele>
        <time>2021-07-09T14:26:10+0200</time>
      </trkpt>
      <trkpt lat="45.05514" lon="3.44666">
        <ele>999.262322</ele>
        <time>2021-07-09T14:26:11+0200</time>
      </trkpt>
      <trkpt lat="45.05521" lon="3.4467">
        <ele>997.866344</ele>
        <time>2021-07-09T14:26:12+0200</time>
      </trkpt>
      <trkpt lat="45.05528" lon="3.44674">
        <ele>996.217168</ele>
        <time>2021-07-09T14:26:13+0200</time>
      </trkpt>
      <trkpt lat="45.05535" lon="3.44678">
        <ele>994.592034</ele>
        <time>2021-07-09T14:26:14+0200</time>
      </trkpt>
      <trkpt lat="45.05543" lon="3.44682">
        <ele>992.379985</ele>
        <time>2021-07-09T14:26:15+0200</time>
      </trkpt>
      <trkpt lat="45.05551" lon="3.44686">
        <ele>990.483873</ele>
        <time>2021-07-09T14:26:16+0200</time>
      </trkpt>
      <trkpt lat="45.05558" lon="3.44689">
        <ele>988.863317</ele>
        <time>2021-07-09T14:26:17+0200</time>
      </trkpt>
      <trkpt lat="45.05566" lon="3.44693">
        <ele>987.048258</ele>
        <time>2021-07-09T14:26:18+0200</time>
      </trkpt>
      <trkpt lat="45.05573" lon="3.44699">
        <ele>985.468589</ele>
        <time>2021-07-09T14:26:19+0200</time>
      </trkpt>
      <trkpt lat="45.05582" lon="3.44704">
        <ele>984.380087</ele>
        <time>2021-07-09T14:26:20+0200</time>
      </trkpt>
      <trkpt lat="45.0559" lon="3.44709">
        <ele>983.50312</ele>
        <time>2021-07-09T14:26:21+0200</time>
      </trkpt>
      <trkpt lat="45.05599" lon="3.44716">
        <ele>982.266158</ele>
        <time>2021-07-09T14:26:22+0200</time>
      </trkpt>
      <trkpt lat="45.05606" lon="3.44724">
        <ele>981.228336</ele>
        <time>2021-07-09T14:26:23+0200</time>
      </trkpt>
      <trkpt lat="45.05614" lon="3.44731">
        <ele>980.531001</ele>
        <time>2021-07-09T14:26:24+0200</time>
      </trkpt>
      <trkpt lat="45.05622" lon="3.44738">
        <ele>979.14059</ele>
        <time>2021-07-09T14:26:25+0200</time>
      </trkpt>
      <trkpt lat="45.05628" lon="3.44745">
        <ele>978.406361</ele>
        <time>2021-07-09T14:26:26+0200</time>
      </trkpt>
      <trkpt lat="45.05637" lon="3.44751">
        <ele>978.833022</ele>
        <time>2021-07-09T14:26:27+0200</time>
      </trkpt>
      <trkpt lat="45.05644" lon="3.44756">
        <ele>979.055806</ele>
        <time>2021-07-09T14:26:28+0200</time>
      </trkpt>
      <trkpt lat="45.0565" lon="3.44761">
        <ele>979.155629</ele>
        <time>2021-07-09T14:26:29+0200</time>
      </trkpt>
      <trkpt lat="45.05657" lon="3.44765">
        <ele>978.620534</ele>
        <time>2021-07-09T14:26:30+0200</time>
      </trkpt>
      <trkpt lat="45.05663" lon="3.4477">
        <ele>979.289371</ele>
        <time>2021-07-09T14:26:31+0200</time>
      </trkpt>
      <trkpt lat="45.05668" lon="3.44775">
        <ele>979.063343</ele>
        <time>2021-07-09T14:26:32+0200</time>
      </trkpt>
      <trkpt lat="45.05673" lon="3.4478">
        <ele>979.332399</ele>
        <time>2021-07-09T14:26:33+0200</time>
      </trkpt>
      <trkpt lat="45.05677" lon="3.44785">
        <ele>979.383531</ele>
        <time>2021-07-09T14:26:34+0200</time>
      </trkpt>
      <trkpt lat="45.05682" lon="3.4479">
        <ele>979.586298</ele>
        <time>2021-07-09T14:26:35+0200</time>
      </trkpt>
      <trkpt lat="45.05686" lon="3.44794">
        <ele>980.281302</ele>
        <time>2021-07-09T14:26:36+0200</time>
      </trkpt>
      <trkpt lat="45.05694" lon="3.448">
        <ele>981.352065</ele>
        <time>2021-07-09T14:26:38+0200</time>
      </trkpt>
      <trkpt lat="45.05699" lon="3.44801">
        <ele>981.499903</ele>
        <time>2021-07-09T14:26:39+0200</time>
      </trkpt>
      <trkpt lat="45.05704" lon="3.44802">
        <ele>981.979529</ele>
        <time>2021-07-09T14:26:40+0200</time>
      </trkpt>
      <trkpt lat="45.05709" lon="3.44803">
        <ele>982.898134</ele>
        <time>2021-07-09T14:26:41+0200</time>
      </trkpt>
      <trkpt lat="45.0572" lon="3.44803">
        <ele>982.083688</ele>
        <time>2021-07-09T14:26:43+0200</time>
      </trkpt>
      <trkpt lat="45.05727" lon="3.44805">
        <ele>981.280746</ele>
        <time>2021-07-09T14:26:44+0200</time>
      </trkpt>
      <trkpt lat="45.05733" lon="3.44805">
        <ele>981.214536</ele>
        <time>2021-07-09T14:26:45+0200</time>
      </trkpt>
      <trkpt lat="45.05739" lon="3.44805">
        <ele>981.063191</ele>
        <time>2021-07-09T14:26:46+0200</time>
      </trkpt>
      <trkpt lat="45.05745" lon="3.44807">
        <ele>980.623362</ele>
        <time>2021-07-09T14:26:47+0200</time>
      </trkpt>
      <trkpt lat="45.0575" lon="3.44809">
        <ele>980.211568</ele>
        <time>2021-07-09T14:26:48+0200</time>
      </trkpt>
      <trkpt lat="45.05757" lon="3.44812">
        <ele>978.601804</ele>
        <time>2021-07-09T14:26:49+0200</time>
      </trkpt>
      <trkpt lat="45.05764" lon="3.44812">
        <ele>977.75675</ele>
        <time>2021-07-09T14:26:50+0200</time>
      </trkpt>
      <trkpt lat="45.05771" lon="3.44814">
        <ele>976.916502</ele>
        <time>2021-07-09T14:26:51+0200</time>
      </trkpt>
      <trkpt lat="45.05779" lon="3.44815">
        <ele>975.78408</ele>
        <time>2021-07-09T14:26:52+0200</time>
      </trkpt>
      <trkpt lat="45.05786" lon="3.44817">
        <ele>975.261627</ele>
        <time>2021-07-09T14:26:53+0200</time>
      </trkpt>
      <trkpt lat="45.05794" lon="3.4482">
        <ele>974.579435</ele>
        <time>2021-07-09T14:26:54+0200</time>
      </trkpt>
      <trkpt lat="45.05802" lon="3.44822">
        <ele>973.503588</ele>
        <time>2021-07-09T14:26:55+0200</time>
      </trkpt>
      <trkpt lat="45.0581" lon="3.44825">
        <ele>972.531114</ele>
        <time>2021-07-09T14:26:56+0200</time>
      </trkpt>
      <trkpt lat="45.05816" lon="3.44828">
        <ele>970.607957</ele>
        <time>2021-07-09T14:26:57+0200</time>
      </trkpt>
      <trkpt lat="45.05824" lon="3.44833">
        <ele>967.776103</ele>
        <time>2021-07-09T14:26:58+0200</time>
      </trkpt>
      <trkpt lat="45.0583" lon="3.44838">
        <ele>966.484889</ele>
        <time>2021-07-09T14:26:59+0200</time>
      </trkpt>
      <trkpt lat="45.05836" lon="3.44844">
        <ele>965.608396</ele>
        <time>2021-07-09T14:27:00+0200</time>
      </trkpt>
      <trkpt lat="45.05843" lon="3.44849">
        <ele>965.171682</ele>
        <time>2021-07-09T14:27:01+0200</time>
      </trkpt>
      <trkpt lat="45.0585" lon="3.44856">
        <ele>965.627822</ele>
        <time>2021-07-09T14:27:02+0200</time>
      </trkpt>
      <trkpt lat="45.05855" lon="3.44861">
        <ele>965.170425</ele>
        <time>2021-07-09T14:27:03+0200</time>
      </trkpt>
      <trkpt lat="45.05861" lon="3.44867">
        <ele>964.56455</ele>
        <time>2021-07-09T14:27:04+0200</time>
      </trkpt>
      <trkpt lat="45.05866" lon="3.44873">
        <ele>963.704751</ele>
        <time>2021-07-09T14:27:05+0200</time>
      </trkpt>
      <trkpt lat="45.05872" lon="3.44879">
        <ele>962.879419</ele>
        <time>2021-07-09T14:27:06+0200</time>
      </trkpt>
      <trkpt lat="45.05876" lon="3.44885">
        <ele>961.8239</ele>
        <time>2021-07-09T14:27:07+0200</time>
      </trkpt>
      <trkpt lat="45.05881" lon="3.44892">
        <ele>960.904399</ele>
        <time>2021-07-09T14:27:08+0200</time>
      </trkpt>
      <trkpt lat="45.05886" lon="3.44896">
        <ele>960.867059</ele>
        <time>2021-07-09T14:27:09+0200</time>
      </trkpt>
      <trkpt lat="45.05889" lon="3.44901">
        <ele>960.743519</ele>
        <time>2021-07-09T14:27:10+0200</time>
      </trkpt>
      <trkpt lat="45.05892" lon="3.44909">
        <ele>959.686975</ele>
        <time>2021-07-09T14:27:12+0200</time>
      </trkpt>
      <trkpt lat="45.05896" lon="3.44909">
        <ele>963.179939</ele>
        <time>2021-07-09T14:27:57+0200</time>
      </trkpt>
      <trkpt lat="45.05902" lon="3.44903">
        <ele>963.114911</ele>
        <time>2021-07-09T14:28:00+0200</time>
      </trkpt>
      <trkpt lat="45.05908" lon="3.44903">
        <ele>963.332207</ele>
        <time>2021-07-09T14:28:02+0200</time>
      </trkpt>
      <trkpt lat="45.05914" lon="3.44905">
        <ele>963.444159</ele>
        <time>2021-07-09T14:28:04+0200</time>
      </trkpt>
      <trkpt lat="45.0592" lon="3.44908">
        <ele>964.292463</ele>
        <time>2021-07-09T14:28:06+0200</time>
      </trkpt>
      <trkpt lat="45.05926" lon="3.44914">
        <ele>964.239719</ele>
        <time>2021-07-09T14:28:08+0200</time>
      </trkpt>
      <trkpt lat="45.05933" lon="3.44919">
        <ele>964.203181</ele>
        <time>2021-07-09T14:28:10+0200</time>
      </trkpt>
      <trkpt lat="45.05938" lon="3.44927">
        <ele>963.604067</ele>
        <time>2021-07-09T14:28:12+0200</time>
      </trkpt>
      <trkpt lat="45.05944" lon="3.44934">
        <ele>962.824017</ele>
        <time>2021-07-09T14:28:14+0200</time>
      </trkpt>
      <trkpt lat="45.0595" lon="3.44939">
        <ele>962.877504</ele>
        <time>2021-07-09T14:28:16+0200</time>
      </trkpt>
      <trkpt lat="45.05958" lon="3.44938">
        <ele>962.344397</ele>
        <time>2021-07-09T14:28:18+0200</time>
      </trkpt>
      <trkpt lat="45.05964" lon="3.44931">
        <ele>962.59732</ele>
        <time>2021-07-09T14:28:20+0200</time>
      </trkpt>
      <trkpt lat="45.05968" lon="3.44923">
        <ele>963.679299</ele>
        <time>2021-07-09T14:28:22+0200</time>
      </trkpt>
      <trkpt lat="45.05973" lon="3.44917">
        <ele>964.870252</ele>
        <time>2021-07-09T14:28:24+0200</time>
      </trkpt>
      <trkpt lat="45.05978" lon="3.44911">
        <ele>965.6652</ele>
        <time>2021-07-09T14:28:26+0200</time>
      </trkpt>
      <trkpt lat="45.05981" lon="3.44904">
        <ele>965.597944</ele>
        <time>2021-07-09T14:28:28+0200</time>
      </trkpt>
      <trkpt lat="45.05986" lon="3.44896">
        <ele>965.090625</ele>
        <time>2021-07-09T14:28:30+0200</time>
      </trkpt>
      <trkpt lat="45.05991" lon="3.44889">
        <ele>965.658469</ele>
        <time>2021-07-09T14:28:32+0200</time>
      </trkpt>
      <trkpt lat="45.05996" lon="3.44882">
        <ele>966.173267</ele>
        <time>2021-07-09T14:28:34+0200</time>
      </trkpt>
      <trkpt lat="45.06003" lon="3.44876">
        <ele>966.890181</ele>
        <time>2021-07-09T14:28:36+0200</time>
      </trkpt>
      <trkpt lat="45.06009" lon="3.44871">
        <ele>966.627433</ele>
        <time>2021-07-09T14:28:38+0200</time>
      </trkpt>
      <trkpt lat="45.06015" lon="3.44866">
        <ele>966.998012</ele>
        <time>2021-07-09T14:28:40+0200</time>
      </trkpt>
      <trkpt lat="45.06022" lon="3.44864">
        <ele>967.011595</ele>
        <time>2021-07-09T14:28:42+0200</time>
      </trkpt>
      <trkpt lat="45.06029" lon="3.4486">
        <ele>967.076583</ele>
        <time>2021-07-09T14:28:44+0200</time>
      </trkpt>
      <trkpt lat="45.06035" lon="3.44858">
        <ele>967.342005</ele>
        <time>2021-07-09T14:28:46+0200</time>
      </trkpt>
      <trkpt lat="45.06041" lon="3.44856">
        <ele>968.229278</ele>
        <time>2021-07-09T14:28:48+0200</time>
      </trkpt>
      <trkpt lat="45.06047" lon="3.44853">
        <ele>968.956662</ele>
        <time>2021-07-09T14:28:50+0200</time>
      </trkpt>
      <trkpt lat="45.06054" lon="3.44852">
        <ele>969.164966</ele>
        <time>2021-07-09T14:28:52+0200</time>
      </trkpt>
      <trkpt lat="45.06061" lon="3.44851">
        <ele>970.339351</ele>
        <time>2021-07-09T14:28:54+0200</time>
      </trkpt>
      <trkpt lat="45.06068" lon="3.4485">
        <ele>970.503328</ele>
        <time>2021-07-09T14:28:56+0200</time>
      </trkpt>
      <trkpt lat="45.06075" lon="3.44847">
        <ele>970.93829</ele>
        <time>2021-07-09T14:28:58+0200</time>
      </trkpt>
      <trkpt lat="45.06083" lon="3.44847">
        <ele>971.821934</ele>
        <time>2021-07-09T14:29:00+0200</time>
      </trkpt>
      <trkpt lat="45.0609" lon="3.44846">
        <ele>971.780062</ele>
        <time>2021-07-09T14:29:02+0200</time>
      </trkpt>
      <trkpt lat="45.06097" lon="3.44846">
        <ele>971.68422</ele>
        <time>2021-07-09T14:29:04+0200</time>
      </trkpt>
      <trkpt lat="45.06104" lon="3.44846">
        <ele>973.001122</ele>
        <time>2021-07-09T14:29:06+0200</time>
      </trkpt>
      <trkpt lat="45.0611" lon="3.44846">
        <ele>973.522404</ele>
        <time>2021-07-09T14:29:08+0200</time>
      </trkpt>
      <trkpt lat="45.06119" lon="3.44847">
        <ele>973.213324</ele>
        <time>2021-07-09T14:29:10+0200</time>
      </trkpt>
      <trkpt lat="45.06124" lon="3.44849">
        <ele>972.99794</ele>
        <time>2021-07-09T14:29:11+0200</time>
      </trkpt>
      <trkpt lat="45.06129" lon="3.44851">
        <ele>972.957342</ele>
        <time>2021-07-09T14:29:12+0200</time>
      </trkpt>
      <trkpt lat="45.06134" lon="3.44853">
        <ele>972.648907</ele>
        <time>2021-07-09T14:29:13+0200</time>
      </trkpt>
      <trkpt lat="45.06138" lon="3.44855">
        <ele>972.98928</ele>
        <time>2021-07-09T14:29:14+0200</time>
      </trkpt>
      <trkpt lat="45.06143" lon="3.44857">
        <ele>972.706168</ele>
        <time>2021-07-09T14:29:15+0200</time>
      </trkpt>
      <trkpt lat="45.06148" lon="3.44859">
        <ele>972.555665</ele>
        <time>2021-07-09T14:29:16+0200</time>
      </trkpt>
      <trkpt lat="45.06153" lon="3.4486">
        <ele>972.571957</ele>
        <time>2021-07-09T14:29:17+0200</time>
      </trkpt>
      <trkpt lat="45.06159" lon="3.44861">
        <ele>972.770163</ele>
        <time>2021-07-09T14:29:18+0200</time>
      </trkpt>
      <trkpt lat="45.06164" lon="3.44864">
        <ele>972.894064</ele>
        <time>2021-07-09T14:29:19+0200</time>
      </trkpt>
      <trkpt lat="45.0617" lon="3.44866">
        <ele>972.813499</ele>
        <time>2021-07-09T14:29:20+0200</time>
      </trkpt>
      <trkpt lat="45.06176" lon="3.44868">
        <ele>972.396858</ele>
        <time>2021-07-09T14:29:21+0200</time>
      </trkpt>
      <trkpt lat="45.06181" lon="3.44871">
        <ele>972.149541</ele>
        <time>2021-07-09T14:29:22+0200</time>
      </trkpt>
      <trkpt lat="45.06187" lon="3.44874">
        <ele>971.975947</ele>
        <time>2021-07-09T14:29:23+0200</time>
      </trkpt>
      <trkpt lat="45.06192" lon="3.44878">
        <ele>971.894986</ele>
        <time>2021-07-09T14:29:24+0200</time>
      </trkpt>
      <trkpt lat="45.06198" lon="3.44882">
        <ele>971.610931</ele>
        <time>2021-07-09T14:29:25+0200</time>
      </trkpt>
      <trkpt lat="45.06203" lon="3.44886">
        <ele>971.243536</ele>
        <time>2021-07-09T14:29:26+0200</time>
      </trkpt>
      <trkpt lat="45.06209" lon="3.44891">
        <ele>970.534998</ele>
        <time>2021-07-09T14:29:27+0200</time>
      </trkpt>
      <trkpt lat="45.06215" lon="3.44895">
        <ele>969.628415</ele>
        <time>2021-07-09T14:29:28+0200</time>
      </trkpt>
      <trkpt lat="45.06222" lon="3.44898">
        <ele>968.582071</ele>
        <time>2021-07-09T14:29:29+0200</time>
      </trkpt>
      <trkpt lat="45.06229" lon="3.44903">
        <ele>967.882481</ele>
        <time>2021-07-09T14:29:30+0200</time>
      </trkpt>
      <trkpt lat="45.06237" lon="3.44907">
        <ele>967.211803</ele>
        <time>2021-07-09T14:29:31+0200</time>
      </trkpt>
      <trkpt lat="45.06246" lon="3.4491">
        <ele>966.778391</ele>
        <time>2021-07-09T14:29:32+0200</time>
      </trkpt>
      <trkpt lat="45.06255" lon="3.44911">
        <ele>966.556775</ele>
        <time>2021-07-09T14:29:33+0200</time>
      </trkpt>
      <trkpt lat="45.06264" lon="3.44909">
        <ele>965.741688</ele>
        <time>2021-07-09T14:29:34+0200</time>
      </trkpt>
      <trkpt lat="45.06272" lon="3.44904">
        <ele>965.224454</ele>
        <time>2021-07-09T14:29:35+0200</time>
      </trkpt>
      <trkpt lat="45.0628" lon="3.44895">
        <ele>964.445232</ele>
        <time>2021-07-09T14:29:36+0200</time>
      </trkpt>
      <trkpt lat="45.06287" lon="3.44886">
        <ele>964.11243</ele>
        <time>2021-07-09T14:29:37+0200</time>
      </trkpt>
      <trkpt lat="45.06294" lon="3.44878">
        <ele>964.117967</ele>
        <time>2021-07-09T14:29:38+0200</time>
      </trkpt>
      <trkpt lat="45.063" lon="3.4487">
        <ele>964.01705</ele>
        <time>2021-07-09T14:29:39+0200</time>
      </trkpt>
      <trkpt lat="45.06306" lon="3.44861">
        <ele>964.10705</ele>
        <time>2021-07-09T14:29:40+0200</time>
      </trkpt>
      <trkpt lat="45.06311" lon="3.44851">
        <ele>964.02069</ele>
        <time>2021-07-09T14:29:41+0200</time>
      </trkpt>
      <trkpt lat="45.06316" lon="3.44843">
        <ele>964.034817</ele>
        <time>2021-07-09T14:29:42+0200</time>
      </trkpt>
      <trkpt lat="45.0632" lon="3.44835">
        <ele>963.933276</ele>
        <time>2021-07-09T14:29:43+0200</time>
      </trkpt>
      <trkpt lat="45.06323" lon="3.44828">
        <ele>964.283904</ele>
        <time>2021-07-09T14:29:44+0200</time>
      </trkpt>
      <trkpt lat="45.06326" lon="3.44822">
        <ele>964.373896</ele>
        <time>2021-07-09T14:29:45+0200</time>
      </trkpt>
      <trkpt lat="45.06329" lon="3.44816">
        <ele>963.688241</ele>
        <time>2021-07-09T14:29:46+0200</time>
      </trkpt>
      <trkpt lat="45.06331" lon="3.4481">
        <ele>963.244372</ele>
        <time>2021-07-09T14:29:47+0200</time>
      </trkpt>
      <trkpt lat="45.06336" lon="3.448">
        <ele>962.771138</ele>
        <time>2021-07-09T14:29:49+0200</time>
      </trkpt>
      <trkpt lat="45.06341" lon="3.4479">
        <ele>962.974713</ele>
        <time>2021-07-09T14:29:51+0200</time>
      </trkpt>
      <trkpt lat="45.06346" lon="3.44781">
        <ele>962.687126</ele>
        <time>2021-07-09T14:29:53+0200</time>
      </trkpt>
      <trkpt lat="45.0635" lon="3.44772">
        <ele>962.796504</ele>
        <time>2021-07-09T14:29:55+0200</time>
      </trkpt>
      <trkpt lat="45.06354" lon="3.44763">
        <ele>963.054214</ele>
        <time>2021-07-09T14:29:57+0200</time>
      </trkpt>
      <trkpt lat="45.06359" lon="3.44754">
        <ele>963.271013</ele>
        <time>2021-07-09T14:29:59+0200</time>
      </trkpt>
      <trkpt lat="45.06363" lon="3.44746">
        <ele>963.174402</ele>
        <time>2021-07-09T14:30:01+0200</time>
      </trkpt>
      <trkpt lat="45.06368" lon="3.44739">
        <ele>962.967127</ele>
        <time>2021-07-09T14:30:03+0200</time>
      </trkpt>
      <trkpt lat="45.06372" lon="3.4473">
        <ele>962.992208</ele>
        <time>2021-07-09T14:30:05+0200</time>
      </trkpt>
      <trkpt lat="45.06377" lon="3.44722">
        <ele>963.680527</ele>
        <time>2021-07-09T14:30:07+0200</time>
      </trkpt>
      <trkpt lat="45.06382" lon="3.44714">
        <ele>963.600403</ele>
        <time>2021-07-09T14:30:09+0200</time>
      </trkpt>
      <trkpt lat="45.06388" lon="3.44709">
        <ele>964.33116</ele>
        <time>2021-07-09T14:30:11+0200</time>
      </trkpt>
      <trkpt lat="45.06394" lon="3.44716">
        <ele>964.614873</ele>
        <time>2021-07-09T14:30:13+0200</time>
      </trkpt>
      <trkpt lat="45.06399" lon="3.44724">
        <ele>965.129681</ele>
        <time>2021-07-09T14:30:15+0200</time>
      </trkpt>
      <trkpt lat="45.06404" lon="3.44732">
        <ele>965.40959</ele>
        <time>2021-07-09T14:30:17+0200</time>
      </trkpt>
      <trkpt lat="45.0641" lon="3.44739">
        <ele>966.035419</ele>
        <time>2021-07-09T14:30:19+0200</time>
      </trkpt>
      <trkpt lat="45.06415" lon="3.44747">
        <ele>966.031616</ele>
        <time>2021-07-09T14:30:21+0200</time>
      </trkpt>
      <trkpt lat="45.0642" lon="3.44753">
        <ele>965.933268</ele>
        <time>2021-07-09T14:30:23+0200</time>
      </trkpt>
      <trkpt lat="45.06426" lon="3.44761">
        <ele>965.36383</ele>
        <time>2021-07-09T14:30:25+0200</time>
      </trkpt>
      <trkpt lat="45.0643" lon="3.44769">
        <ele>965.039057</ele>
        <time>2021-07-09T14:30:27+0200</time>
      </trkpt>
      <trkpt lat="45.06436" lon="3.44776">
        <ele>965.357128</ele>
        <time>2021-07-09T14:30:29+0200</time>
      </trkpt>
      <trkpt lat="45.06441" lon="3.4478">
        <ele>965.269685</ele>
        <time>2021-07-09T14:30:31+0200</time>
      </trkpt>
      <trkpt lat="45.06448" lon="3.44785">
        <ele>964.849727</ele>
        <time>2021-07-09T14:30:33+0200</time>
      </trkpt>
      <trkpt lat="45.06455" lon="3.44789">
        <ele>964.620467</ele>
        <time>2021-07-09T14:30:35+0200</time>
      </trkpt>
      <trkpt lat="45.06462" lon="3.44794">
        <ele>964.705172</ele>
        <time>2021-07-09T14:30:37+0200</time>
      </trkpt>
      <trkpt lat="45.06469" lon="3.44798">
        <ele>964.452458</ele>
        <time>2021-07-09T14:30:39+0200</time>
      </trkpt>
      <trkpt lat="45.06476" lon="3.44803">
        <ele>964.633705</ele>
        <time>2021-07-09T14:30:41+0200</time>
      </trkpt>
      <trkpt lat="45.06482" lon="3.44809">
        <ele>964.76951</ele>
        <time>2021-07-09T14:30:43+0200</time>
      </trkpt>
      <trkpt lat="45.06487" lon="3.44816">
        <ele>965.20228</ele>
        <time>2021-07-09T14:30:45+0200</time>
      </trkpt>
      <trkpt lat="45.06494" lon="3.44823">
        <ele>965.68962</ele>
        <time>2021-07-09T14:30:47+0200</time>
      </trkpt>
      <trkpt lat="45.06497" lon="3.44827">
        <ele>965.630007</ele>
        <time>2021-07-09T14:30:48+0200</time>
      </trkpt>
      <trkpt lat="45.06504" lon="3.44835">
        <ele>965.926482</ele>
        <time>2021-07-09T14:30:50+0200</time>
      </trkpt>
      <trkpt lat="45.06509" lon="3.44842">
        <ele>966.302289</ele>
        <time>2021-07-09T14:30:52+0200</time>
      </trkpt>
      <trkpt lat="45.06515" lon="3.44848">
        <ele>966.187885</ele>
        <time>2021-07-09T14:30:54+0200</time>
      </trkpt>
      <trkpt lat="45.06521" lon="3.44853">
        <ele>966.860941</ele>
        <time>2021-07-09T14:30:56+0200</time>
      </trkpt>
      <trkpt lat="45.06527" lon="3.44858">
        <ele>966.416439</ele>
        <time>2021-07-09T14:30:58+0200</time>
      </trkpt>
      <trkpt lat="45.06533" lon="3.44861">
        <ele>965.811109</ele>
        <time>2021-07-09T14:31:00+0200</time>
      </trkpt>
      <trkpt lat="45.0654" lon="3.44862">
        <ele>966.144094</ele>
        <time>2021-07-09T14:31:02+0200</time>
      </trkpt>
      <trkpt lat="45.06548" lon="3.44864">
        <ele>965.148195</ele>
        <time>2021-07-09T14:31:04+0200</time>
      </trkpt>
      <trkpt lat="45.06553" lon="3.44864">
        <ele>964.588196</ele>
        <time>2021-07-09T14:31:05+0200</time>
      </trkpt>
      <trkpt lat="45.06558" lon="3.44866">
        <ele>964.463667</ele>
        <time>2021-07-09T14:31:06+0200</time>
      </trkpt>
      <trkpt lat="45.06564" lon="3.44867">
        <ele>964.061023</ele>
        <time>2021-07-09T14:31:07+0200</time>
      </trkpt>
      <trkpt lat="45.06568" lon="3.44868">
        <ele>963.677724</ele>
        <time>2021-07-09T14:31:08+0200</time>
      </trkpt>
      <trkpt lat="45.06574" lon="3.4487">
        <ele>963.73845</ele>
        <time>2021-07-09T14:31:09+0200</time>
      </trkpt>
      <trkpt lat="45.06579" lon="3.44872">
        <ele>963.665577</ele>
        <time>2021-07-09T14:31:10+0200</time>
      </trkpt>
      <trkpt lat="45.06585" lon="3.44873">
        <ele>963.317108</ele>
        <time>2021-07-09T14:31:11+0200</time>
      </trkpt>
      <trkpt lat="45.06591" lon="3.44873">
        <ele>962.743698</ele>
        <time>2021-07-09T14:31:12+0200</time>
      </trkpt>
      <trkpt lat="45.06597" lon="3.4487">
        <ele>962.176898</ele>
        <time>2021-07-09T14:31:13+0200</time>
      </trkpt>
      <trkpt lat="45.06605" lon="3.44869">
        <ele>960.937624</ele>
        <time>2021-07-09T14:31:14+0200</time>
      </trkpt>
      <trkpt lat="45.06611" lon="3.44871">
        <ele>960.222743</ele>
        <time>2021-07-09T14:31:15+0200</time>
      </trkpt>
      <trkpt lat="45.06617" lon="3.44876">
        <ele>959.498885</ele>
        <time>2021-07-09T14:31:16+0200</time>
      </trkpt>
      <trkpt lat="45.06622" lon="3.44884">
        <ele>959.705855</ele>
        <time>2021-07-09T14:31:17+0200</time>
      </trkpt>
      <trkpt lat="45.06625" lon="3.44892">
        <ele>959.319025</ele>
        <time>2021-07-09T14:31:18+0200</time>
      </trkpt>
      <trkpt lat="45.06629" lon="3.449">
        <ele>958.252186</ele>
        <time>2021-07-09T14:31:19+0200</time>
      </trkpt>
      <trkpt lat="45.06633" lon="3.44909">
        <ele>957.611717</ele>
        <time>2021-07-09T14:31:20+0200</time>
      </trkpt>
      <trkpt lat="45.06637" lon="3.44918">
        <ele>956.62796</ele>
        <time>2021-07-09T14:31:21+0200</time>
      </trkpt>
      <trkpt lat="45.06642" lon="3.44926">
        <ele>955.730247</ele>
        <time>2021-07-09T14:31:22+0200</time>
      </trkpt>
      <trkpt lat="45.06648" lon="3.44934">
        <ele>954.623031</ele>
        <time>2021-07-09T14:31:23+0200</time>
      </trkpt>
      <trkpt lat="45.06653" lon="3.44944">
        <ele>954.152159</ele>
        <time>2021-07-09T14:31:24+0200</time>
      </trkpt>
      <trkpt lat="45.06657" lon="3.44954">
        <ele>953.731652</ele>
        <time>2021-07-09T14:31:25+0200</time>
      </trkpt>
      <trkpt lat="45.06663" lon="3.44961">
        <ele>953.266072</ele>
        <time>2021-07-09T14:31:26+0200</time>
      </trkpt>
      <trkpt lat="45.0667" lon="3.44967">
        <ele>953.08455</ele>
        <time>2021-07-09T14:31:27+0200</time>
      </trkpt>
      <trkpt lat="45.06677" lon="3.44971">
        <ele>953.399848</ele>
        <time>2021-07-09T14:31:28+0200</time>
      </trkpt>
      <trkpt lat="45.06683" lon="3.44974">
        <ele>953.413877</ele>
        <time>2021-07-09T14:31:29+0200</time>
      </trkpt>
      <trkpt lat="45.0669" lon="3.44977">
        <ele>953.611778</ele>
        <time>2021-07-09T14:31:30+0200</time>
      </trkpt>
      <trkpt lat="45.06697" lon="3.4498">
        <ele>953.806611</ele>
        <time>2021-07-09T14:31:31+0200</time>
      </trkpt>
      <trkpt lat="45.06704" lon="3.44984">
        <ele>953.629583</ele>
        <time>2021-07-09T14:31:32+0200</time>
      </trkpt>
      <trkpt lat="45.0671" lon="3.44987">
        <ele>953.182465</ele>
        <time>2021-07-09T14:31:33+0200</time>
      </trkpt>
      <trkpt lat="45.06716" lon="3.4499">
        <ele>953.101375</ele>
        <time>2021-07-09T14:31:34+0200</time>
      </trkpt>
      <trkpt lat="45.06722" lon="3.44995">
        <ele>952.705326</ele>
        <time>2021-07-09T14:31:35+0200</time>
      </trkpt>
      <trkpt lat="45.06727" lon="3.44999">
        <ele>952.922902</ele>
        <time>2021-07-09T14:31:36+0200</time>
      </trkpt>
      <trkpt lat="45.06732" lon="3.45005">
        <ele>952.628122</ele>
        <time>2021-07-09T14:31:37+0200</time>
      </trkpt>
      <trkpt lat="45.06736" lon="3.4501">
        <ele>952.666348</ele>
        <time>2021-07-09T14:31:38+0200</time>
      </trkpt>
      <trkpt lat="45.0674" lon="3.45015">
        <ele>952.784652</ele>
        <time>2021-07-09T14:31:39+0200</time>
      </trkpt>
      <trkpt lat="45.06745" lon="3.45019">
        <ele>952.803667</ele>
        <time>2021-07-09T14:31:40+0200</time>
      </trkpt>
      <trkpt lat="45.0675" lon="3.45018">
        <ele>953.242472</ele>
        <time>2021-07-09T14:31:41+0200</time>
      </trkpt>
      <trkpt lat="45.06754" lon="3.45016">
        <ele>952.910274</ele>
        <time>2021-07-09T14:31:42+0200</time>
      </trkpt>
      <trkpt lat="45.06762" lon="3.45012">
        <ele>952.729889</ele>
        <time>2021-07-09T14:31:44+0200</time>
      </trkpt>
      <trkpt lat="45.06768" lon="3.45011">
        <ele>953.18415</ele>
        <time>2021-07-09T14:31:46+0200</time>
      </trkpt>
      <trkpt lat="45.06773" lon="3.45012">
        <ele>953.023899</ele>
        <time>2021-07-09T14:31:50+0200</time>
      </trkpt>
      <trkpt lat="45.06779" lon="3.45011">
        <ele>953.709732</ele>
        <time>2021-07-09T14:32:03+0200</time>
      </trkpt>
      <trkpt lat="45.06785" lon="3.45012">
        <ele>953.463541</ele>
        <time>2021-07-09T14:32:06+0200</time>
      </trkpt>
      <trkpt lat="45.06791" lon="3.45013">
        <ele>953.931599</ele>
        <time>2021-07-09T14:32:08+0200</time>
      </trkpt>
      <trkpt lat="45.06797" lon="3.45014">
        <ele>953.850183</ele>
        <time>2021-07-09T14:32:10+0200</time>
      </trkpt>
      <trkpt lat="45.06802" lon="3.45016">
        <ele>954.154399</ele>
        <time>2021-07-09T14:32:12+0200</time>
      </trkpt>
      <trkpt lat="45.06808" lon="3.45017">
        <ele>954.342676</ele>
        <time>2021-07-09T14:32:14+0200</time>
      </trkpt>
      <trkpt lat="45.06813" lon="3.4502">
        <ele>954.866035</ele>
        <time>2021-07-09T14:32:16+0200</time>
      </trkpt>
      <trkpt lat="45.06819" lon="3.45022">
        <ele>955.123869</ele>
        <time>2021-07-09T14:32:18+0200</time>
      </trkpt>
      <trkpt lat="45.06825" lon="3.45024">
        <ele>955.635981</ele>
        <time>2021-07-09T14:32:20+0200</time>
      </trkpt>
      <trkpt lat="45.06831" lon="3.45027">
        <ele>955.630693</ele>
        <time>2021-07-09T14:32:22+0200</time>
      </trkpt>
      <trkpt lat="45.06837" lon="3.45029">
        <ele>955.804774</ele>
        <time>2021-07-09T14:32:24+0200</time>
      </trkpt>
      <trkpt lat="45.06843" lon="3.45031">
        <ele>955.753517</ele>
        <time>2021-07-09T14:32:26+0200</time>
      </trkpt>
      <trkpt lat="45.0685" lon="3.45031">
        <ele>956.053321</ele>
        <time>2021-07-09T14:32:28+0200</time>
      </trkpt>
      <trkpt lat="45.06857" lon="3.45032">
        <ele>956.099666</ele>
        <time>2021-07-09T14:32:30+0200</time>
      </trkpt>
      <trkpt lat="45.06864" lon="3.45034">
        <ele>956.335227</ele>
        <time>2021-07-09T14:32:32+0200</time>
      </trkpt>
      <trkpt lat="45.06872" lon="3.45036">
        <ele>956.594202</ele>
        <time>2021-07-09T14:32:34+0200</time>
      </trkpt>
      <trkpt lat="45.06879" lon="3.45039">
        <ele>956.062165</ele>
        <time>2021-07-09T14:32:36+0200</time>
      </trkpt>
      <trkpt lat="45.06887" lon="3.45038">
        <ele>956.242016</ele>
        <time>2021-07-09T14:32:38+0200</time>
      </trkpt>
      <trkpt lat="45.06895" lon="3.45038">
        <ele>956.712338</ele>
        <time>2021-07-09T14:32:40+0200</time>
      </trkpt>
      <trkpt lat="45.06903" lon="3.45038">
        <ele>956.316733</ele>
        <time>2021-07-09T14:32:42+0200</time>
      </trkpt>
      <trkpt lat="45.06912" lon="3.45037">
        <ele>956.162645</ele>
        <time>2021-07-09T14:32:44+0200</time>
      </trkpt>
      <trkpt lat="45.06916" lon="3.45037">
        <ele>955.892739</ele>
        <time>2021-07-09T14:32:45+0200</time>
      </trkpt>
      <trkpt lat="45.06925" lon="3.45036">
        <ele>955.784092</ele>
        <time>2021-07-09T14:32:47+0200</time>
      </trkpt>
      <trkpt lat="45.0693" lon="3.45035">
        <ele>955.756655</ele>
        <time>2021-07-09T14:32:48+0200</time>
      </trkpt>
      <trkpt lat="45.06939" lon="3.45033">
        <ele>954.830187</ele>
        <time>2021-07-09T14:32:50+0200</time>
      </trkpt>
      <trkpt lat="45.06944" lon="3.45032">
        <ele>955.029833</ele>
        <time>2021-07-09T14:32:51+0200</time>
      </trkpt>
      <trkpt lat="45.06949" lon="3.45031">
        <ele>955.086335</ele>
        <time>2021-07-09T14:32:52+0200</time>
      </trkpt>
      <trkpt lat="45.06954" lon="3.4503">
        <ele>955.018837</ele>
        <time>2021-07-09T14:32:53+0200</time>
      </trkpt>
      <trkpt lat="45.06958" lon="3.45029">
        <ele>954.799665</ele>
        <time>2021-07-09T14:32:54+0200</time>
      </trkpt>
      <trkpt lat="45.06963" lon="3.45028">
        <ele>954.641437</ele>
        <time>2021-07-09T14:32:55+0200</time>
      </trkpt>
      <trkpt lat="45.06967" lon="3.45027">
        <ele>954.895834</ele>
        <time>2021-07-09T14:32:56+0200</time>
      </trkpt>
      <trkpt lat="45.06972" lon="3.45025">
        <ele>954.728316</ele>
        <time>2021-07-09T14:32:57+0200</time>
      </trkpt>
      <trkpt lat="45.06977" lon="3.45024">
        <ele>954.612181</ele>
        <time>2021-07-09T14:32:58+0200</time>
      </trkpt>
      <trkpt lat="45.06982" lon="3.45022">
        <ele>954.271699</ele>
        <time>2021-07-09T14:32:59+0200</time>
      </trkpt>
      <trkpt lat="45.06987" lon="3.4502">
        <ele>954.196972</ele>
        <time>2021-07-09T14:33:00+0200</time>
      </trkpt>
      <trkpt lat="45.06991" lon="3.45018">
        <ele>953.923743</ele>
        <time>2021-07-09T14:33:01+0200</time>
      </trkpt>
      <trkpt lat="45.06996" lon="3.45015">
        <ele>953.976383</ele>
        <time>2021-07-09T14:33:02+0200</time>
      </trkpt>
      <trkpt lat="45.07003" lon="3.45012">
        <ele>954.01708</ele>
        <time>2021-07-09T14:33:04+0200</time>
      </trkpt>
      <trkpt lat="45.07011" lon="3.45008">
        <ele>954.515624</ele>
        <time>2021-07-09T14:33:06+0200</time>
      </trkpt>
      <trkpt lat="45.07018" lon="3.45001">
        <ele>954.366231</ele>
        <time>2021-07-09T14:33:08+0200</time>
      </trkpt>
      <trkpt lat="45.07022" lon="3.44999">
        <ele>953.772951</ele>
        <time>2021-07-09T14:33:09+0200</time>
      </trkpt>
      <trkpt lat="45.07027" lon="3.44998">
        <ele>953.544847</ele>
        <time>2021-07-09T14:33:10+0200</time>
      </trkpt>
      <trkpt lat="45.07032" lon="3.44998">
        <ele>953.501434</ele>
        <time>2021-07-09T14:33:11+0200</time>
      </trkpt>
      <trkpt lat="45.07037" lon="3.44997">
        <ele>953.638899</ele>
        <time>2021-07-09T14:33:12+0200</time>
      </trkpt>
      <trkpt lat="45.07042" lon="3.44997">
        <ele>953.530012</ele>
        <time>2021-07-09T14:33:13+0200</time>
      </trkpt>
      <trkpt lat="45.07047" lon="3.44997">
        <ele>953.329616</ele>
        <time>2021-07-09T14:33:14+0200</time>
      </trkpt>
      <trkpt lat="45.07053" lon="3.44997">
        <ele>953.244112</ele>
        <time>2021-07-09T14:33:15+0200</time>
      </trkpt>
      <trkpt lat="45.07058" lon="3.44997">
        <ele>953.205356</ele>
        <time>2021-07-09T14:33:16+0200</time>
      </trkpt>
      <trkpt lat="45.07067" lon="3.44996">
        <ele>953.330462</ele>
        <time>2021-07-09T14:33:18+0200</time>
      </trkpt>
      <trkpt lat="45.07072" lon="3.44994">
        <ele>953.237234</ele>
        <time>2021-07-09T14:33:19+0200</time>
      </trkpt>
      <trkpt lat="45.07076" lon="3.44993">
        <ele>953.035475</ele>
        <time>2021-07-09T14:33:20+0200</time>
      </trkpt>
      <trkpt lat="45.07081" lon="3.44991">
        <ele>952.938867</ele>
        <time>2021-07-09T14:33:21+0200</time>
      </trkpt>
      <trkpt lat="45.0709" lon="3.44987">
        <ele>952.502806</ele>
        <time>2021-07-09T14:33:23+0200</time>
      </trkpt>
      <trkpt lat="45.07097" lon="3.44984">
        <ele>951.531307</ele>
        <time>2021-07-09T14:33:25+0200</time>
      </trkpt>
      <trkpt lat="45.07106" lon="3.44981">
        <ele>950.898726</ele>
        <time>2021-07-09T14:33:27+0200</time>
      </trkpt>
      <trkpt lat="45.07113" lon="3.4498">
        <ele>951.139545</ele>
        <time>2021-07-09T14:33:29+0200</time>
      </trkpt>
      <trkpt lat="45.07118" lon="3.44979">
        <ele>951.344585</ele>
        <time>2021-07-09T14:33:30+0200</time>
      </trkpt>
      <trkpt lat="45.07125" lon="3.44978">
        <ele>951.142183</ele>
        <time>2021-07-09T14:33:32+0200</time>
      </trkpt>
      <trkpt lat="45.07134" lon="3.44976">
        <ele>950.505999</ele>
        <time>2021-07-09T14:33:34+0200</time>
      </trkpt>
      <trkpt lat="45.07139" lon="3.44976">
        <ele>950.219108</ele>
        <time>2021-07-09T14:33:35+0200</time>
      </trkpt>
      <trkpt lat="45.07145" lon="3.44976">
        <ele>949.832294</ele>
        <time>2021-07-09T14:33:36+0200</time>
      </trkpt>
      <trkpt lat="45.07149" lon="3.44976">
        <ele>949.729091</ele>
        <time>2021-07-09T14:33:37+0200</time>
      </trkpt>
      <trkpt lat="45.07154" lon="3.44975">
        <ele>949.679254</ele>
        <time>2021-07-09T14:33:38+0200</time>
      </trkpt>
      <trkpt lat="45.07159" lon="3.44974">
        <ele>949.519924</ele>
        <time>2021-07-09T14:33:39+0200</time>
      </trkpt>
      <trkpt lat="45.07164" lon="3.44973">
        <ele>949.798856</ele>
        <time>2021-07-09T14:33:40+0200</time>
      </trkpt>
      <trkpt lat="45.07169" lon="3.44972">
        <ele>949.738516</ele>
        <time>2021-07-09T14:33:41+0200</time>
      </trkpt>
      <trkpt lat="45.07174" lon="3.44971">
        <ele>949.873983</ele>
        <time>2021-07-09T14:33:42+0200</time>
      </trkpt>
      <trkpt lat="45.07178" lon="3.4497">
        <ele>950.25814</ele>
        <time>2021-07-09T14:33:43+0200</time>
      </trkpt>
      <trkpt lat="45.07187" lon="3.44969">
        <ele>950.487496</ele>
        <time>2021-07-09T14:33:45+0200</time>
      </trkpt>
      <trkpt lat="45.07195" lon="3.44966">
        <ele>950.535823</ele>
        <time>2021-07-09T14:33:47+0200</time>
      </trkpt>
      <trkpt lat="45.07199" lon="3.44965">
        <ele>950.822406</ele>
        <time>2021-07-09T14:33:48+0200</time>
      </trkpt>
      <trkpt lat="45.07207" lon="3.44963">
        <ele>950.385101</ele>
        <time>2021-07-09T14:33:50+0200</time>
      </trkpt>
      <trkpt lat="45.07215" lon="3.44959">
        <ele>950.280176</ele>
        <time>2021-07-09T14:33:52+0200</time>
      </trkpt>
      <trkpt lat="45.07222" lon="3.44955">
        <ele>950.394514</ele>
        <time>2021-07-09T14:33:54+0200</time>
      </trkpt>
      <trkpt lat="45.0723" lon="3.44951">
        <ele>949.497859</ele>
        <time>2021-07-09T14:33:56+0200</time>
      </trkpt>
      <trkpt lat="45.07235" lon="3.44949">
        <ele>949.381413</ele>
        <time>2021-07-09T14:33:57+0200</time>
      </trkpt>
      <trkpt lat="45.07242" lon="3.44946">
        <ele>949.070621</ele>
        <time>2021-07-09T14:33:59+0200</time>
      </trkpt>
      <trkpt lat="45.07249" lon="3.44943">
        <ele>948.346426</ele>
        <time>2021-07-09T14:34:01+0200</time>
      </trkpt>
      <trkpt lat="45.07256" lon="3.44941">
        <ele>948.263788</ele>
        <time>2021-07-09T14:34:03+0200</time>
      </trkpt>
      <trkpt lat="45.07263" lon="3.44938">
        <ele>947.417606</ele>
        <time>2021-07-09T14:34:05+0200</time>
      </trkpt>
      <trkpt lat="45.07271" lon="3.44936">
        <ele>947.436581</ele>
        <time>2021-07-09T14:34:07+0200</time>
      </trkpt>
      <trkpt lat="45.07278" lon="3.44934">
        <ele>946.904528</ele>
        <time>2021-07-09T14:34:09+0200</time>
      </trkpt>
      <trkpt lat="45.07286" lon="3.44932">
        <ele>946.455739</ele>
        <time>2021-07-09T14:34:11+0200</time>
      </trkpt>
      <trkpt lat="45.07293" lon="3.44931">
        <ele>945.963976</ele>
        <time>2021-07-09T14:34:13+0200</time>
      </trkpt>
      <trkpt lat="45.073" lon="3.44929">
        <ele>946.167534</ele>
        <time>2021-07-09T14:34:15+0200</time>
      </trkpt>
      <trkpt lat="45.07307" lon="3.44929">
        <ele>946.026706</ele>
        <time>2021-07-09T14:34:17+0200</time>
      </trkpt>
      <trkpt lat="45.07315" lon="3.44929">
        <ele>946.371468</ele>
        <time>2021-07-09T14:34:19+0200</time>
      </trkpt>
      <trkpt lat="45.07322" lon="3.44928">
        <ele>946.815899</ele>
        <time>2021-07-09T14:34:21+0200</time>
      </trkpt>
      <trkpt lat="45.07329" lon="3.44928">
        <ele>947.314837</ele>
        <time>2021-07-09T14:34:23+0200</time>
      </trkpt>
      <trkpt lat="45.07336" lon="3.44928">
        <ele>947.4626</ele>
        <time>2021-07-09T14:34:25+0200</time>
      </trkpt>
      <trkpt lat="45.07343" lon="3.44928">
        <ele>946.9266</ele>
        <time>2021-07-09T14:34:27+0200</time>
      </trkpt>
      <trkpt lat="45.07351" lon="3.44927">
        <ele>946.572907</ele>
        <time>2021-07-09T14:34:29+0200</time>
      </trkpt>
      <trkpt lat="45.07358" lon="3.44927">
        <ele>946.364802</ele>
        <time>2021-07-09T14:34:31+0200</time>
      </trkpt>
      <trkpt lat="45.07365" lon="3.44928">
        <ele>946.585401</ele>
        <time>2021-07-09T14:34:33+0200</time>
      </trkpt>
      <trkpt lat="45.07372" lon="3.44928">
        <ele>946.474527</ele>
        <time>2021-07-09T14:34:35+0200</time>
      </trkpt>
      <trkpt lat="45.07379" lon="3.4493">
        <ele>945.942808</ele>
        <time>2021-07-09T14:34:37+0200</time>
      </trkpt>
      <trkpt lat="45.07387" lon="3.44933">
        <ele>945.324665</ele>
        <time>2021-07-09T14:34:39+0200</time>
      </trkpt>
      <trkpt lat="45.07391" lon="3.44935">
        <ele>945.046229</ele>
        <time>2021-07-09T14:34:40+0200</time>
      </trkpt>
      <trkpt lat="45.07396" lon="3.44938">
        <ele>944.299766</ele>
        <time>2021-07-09T14:34:41+0200</time>
      </trkpt>
      <trkpt lat="45.07401" lon="3.44942">
        <ele>943.506346</ele>
        <time>2021-07-09T14:34:42+0200</time>
      </trkpt>
      <trkpt lat="45.07407" lon="3.44946">
        <ele>942.710657</ele>
        <time>2021-07-09T14:34:43+0200</time>
      </trkpt>
      <trkpt lat="45.07413" lon="3.4495">
        <ele>941.814365</ele>
        <time>2021-07-09T14:34:44+0200</time>
      </trkpt>
      <trkpt lat="45.07419" lon="3.44955">
        <ele>940.775743</ele>
        <time>2021-07-09T14:34:45+0200</time>
      </trkpt>
      <trkpt lat="45.07425" lon="3.44958">
        <ele>940.118412</ele>
        <time>2021-07-09T14:34:46+0200</time>
      </trkpt>
      <trkpt lat="45.07431" lon="3.4496">
        <ele>939.03978</ele>
        <time>2021-07-09T14:34:47+0200</time>
      </trkpt>
      <trkpt lat="45.07437" lon="3.44961">
        <ele>938.223276</ele>
        <time>2021-07-09T14:34:48+0200</time>
      </trkpt>
      <trkpt lat="45.07444" lon="3.44962">
        <ele>938.031243</ele>
        <time>2021-07-09T14:34:49+0200</time>
      </trkpt>
      <trkpt lat="45.0745" lon="3.44964">
        <ele>938.135941</ele>
        <time>2021-07-09T14:34:50+0200</time>
      </trkpt>
      <trkpt lat="45.07456" lon="3.44965">
        <ele>938.088292</ele>
        <time>2021-07-09T14:34:51+0200</time>
      </trkpt>
      <trkpt lat="45.07462" lon="3.44967">
        <ele>937.815108</ele>
        <time>2021-07-09T14:34:52+0200</time>
      </trkpt>
      <trkpt lat="45.07469" lon="3.44969">
        <ele>937.468427</ele>
        <time>2021-07-09T14:34:53+0200</time>
      </trkpt>
      <trkpt lat="45.07476" lon="3.4497">
        <ele>936.504401</ele>
        <time>2021-07-09T14:34:54+0200</time>
      </trkpt>
      <trkpt lat="45.07484" lon="3.44972">
        <ele>935.307862</ele>
        <time>2021-07-09T14:34:55+0200</time>
      </trkpt>
      <trkpt lat="45.07492" lon="3.44971">
        <ele>934.297484</ele>
        <time>2021-07-09T14:34:56+0200</time>
      </trkpt>
      <trkpt lat="45.075" lon="3.44972">
        <ele>933.270778</ele>
        <time>2021-07-09T14:34:57+0200</time>
      </trkpt>
      <trkpt lat="45.07509" lon="3.44972">
        <ele>932.26199</ele>
        <time>2021-07-09T14:34:58+0200</time>
      </trkpt>
      <trkpt lat="45.07517" lon="3.44972">
        <ele>931.728832</ele>
        <time>2021-07-09T14:34:59+0200</time>
      </trkpt>
      <trkpt lat="45.07526" lon="3.44972">
        <ele>931.082997</ele>
        <time>2021-07-09T14:35:00+0200</time>
      </trkpt>
      <trkpt lat="45.07534" lon="3.44974">
        <ele>930.622726</ele>
        <time>2021-07-09T14:35:01+0200</time>
      </trkpt>
      <trkpt lat="45.07542" lon="3.44979">
        <ele>929.127044</ele>
        <time>2021-07-09T14:35:02+0200</time>
      </trkpt>
      <trkpt lat="45.07549" lon="3.44987">
        <ele>928.293645</ele>
        <time>2021-07-09T14:35:03+0200</time>
      </trkpt>
      <trkpt lat="45.07555" lon="3.44994">
        <ele>927.783473</ele>
        <time>2021-07-09T14:35:04+0200</time>
      </trkpt>
      <trkpt lat="45.07561" lon="3.45001">
        <ele>927.438614</ele>
        <time>2021-07-09T14:35:05+0200</time>
      </trkpt>
      <trkpt lat="45.07565" lon="3.45004">
        <ele>927.171054</ele>
        <time>2021-07-09T14:35:06+0200</time>
      </trkpt>
      <trkpt lat="45.0757" lon="3.4501">
        <ele>929.597786</ele>
        <time>2021-07-09T14:37:02+0200</time>
      </trkpt>
      <trkpt lat="45.07574" lon="3.45017">
        <ele>928.032611</ele>
        <time>2021-07-09T14:37:04+0200</time>
      </trkpt>
      <trkpt lat="45.07578" lon="3.45024">
        <ele>926.363301</ele>
        <time>2021-07-09T14:37:06+0200</time>
      </trkpt>
      <trkpt lat="45.0758" lon="3.45034">
        <ele>925.069309</ele>
        <time>2021-07-09T14:37:08+0200</time>
      </trkpt>
      <trkpt lat="45.07581" lon="3.4504">
        <ele>924.194819</ele>
        <time>2021-07-09T14:37:09+0200</time>
      </trkpt>
      <trkpt lat="45.07581" lon="3.45047">
        <ele>923.787306</ele>
        <time>2021-07-09T14:37:10+0200</time>
      </trkpt>
      <trkpt lat="45.07581" lon="3.45055">
        <ele>923.044431</ele>
        <time>2021-07-09T14:37:11+0200</time>
      </trkpt>
      <trkpt lat="45.07583" lon="3.45063">
        <ele>922.385426</ele>
        <time>2021-07-09T14:37:12+0200</time>
      </trkpt>
      <trkpt lat="45.07584" lon="3.45072">
        <ele>921.631569</ele>
        <time>2021-07-09T14:37:13+0200</time>
      </trkpt>
      <trkpt lat="45.07586" lon="3.45081">
        <ele>921.029094</ele>
        <time>2021-07-09T14:37:14+0200</time>
      </trkpt>
      <trkpt lat="45.07587" lon="3.45091">
        <ele>920.721643</ele>
        <time>2021-07-09T14:37:15+0200</time>
      </trkpt>
      <trkpt lat="45.07589" lon="3.45101">
        <ele>920.456345</ele>
        <time>2021-07-09T14:37:16+0200</time>
      </trkpt>
      <trkpt lat="45.0759" lon="3.45108">
        <ele>920.228883</ele>
        <time>2021-07-09T14:37:17+0200</time>
      </trkpt>
      <trkpt lat="45.07591" lon="3.45116">
        <ele>919.8224</ele>
        <time>2021-07-09T14:37:18+0200</time>
      </trkpt>
      <trkpt lat="45.07592" lon="3.45126">
        <ele>919.493134</ele>
        <time>2021-07-09T14:37:19+0200</time>
      </trkpt>
      <trkpt lat="45.07593" lon="3.45135">
        <ele>918.914475</ele>
        <time>2021-07-09T14:37:20+0200</time>
      </trkpt>
      <trkpt lat="45.07595" lon="3.45145">
        <ele>918.305209</ele>
        <time>2021-07-09T14:37:21+0200</time>
      </trkpt>
      <trkpt lat="45.07596" lon="3.45154">
        <ele>917.737642</ele>
        <time>2021-07-09T14:37:22+0200</time>
      </trkpt>
      <trkpt lat="45.07597" lon="3.45164">
        <ele>917.063668</ele>
        <time>2021-07-09T14:37:23+0200</time>
      </trkpt>
      <trkpt lat="45.07598" lon="3.45173">
        <ele>916.671016</ele>
        <time>2021-07-09T14:37:24+0200</time>
      </trkpt>
      <trkpt lat="45.076" lon="3.45182">
        <ele>916.293777</ele>
        <time>2021-07-09T14:37:25+0200</time>
      </trkpt>
      <trkpt lat="45.07601" lon="3.4519">
        <ele>915.94747</ele>
        <time>2021-07-09T14:37:26+0200</time>
      </trkpt>
      <trkpt lat="45.07602" lon="3.45199">
        <ele>915.312127</ele>
        <time>2021-07-09T14:37:27+0200</time>
      </trkpt>
      <trkpt lat="45.07603" lon="3.45207">
        <ele>914.929792</ele>
        <time>2021-07-09T14:37:28+0200</time>
      </trkpt>
      <trkpt lat="45.07604" lon="3.45214">
        <ele>914.511592</ele>
        <time>2021-07-09T14:37:29+0200</time>
      </trkpt>
      <trkpt lat="45.07605" lon="3.4522">
        <ele>914.37838</ele>
        <time>2021-07-09T14:37:30+0200</time>
      </trkpt>
      <trkpt lat="45.07607" lon="3.45227">
        <ele>914.152252</ele>
        <time>2021-07-09T14:37:31+0200</time>
      </trkpt>
      <trkpt lat="45.07609" lon="3.45234">
        <ele>913.7567</ele>
        <time>2021-07-09T14:37:32+0200</time>
      </trkpt>
      <trkpt lat="45.07612" lon="3.45239">
        <ele>913.276938</ele>
        <time>2021-07-09T14:37:33+0200</time>
      </trkpt>
      <trkpt lat="45.07619" lon="3.45245">
        <ele>911.933046</ele>
        <time>2021-07-09T14:37:35+0200</time>
      </trkpt>
      <trkpt lat="45.07624" lon="3.45248">
        <ele>911.672961</ele>
        <time>2021-07-09T14:37:36+0200</time>
      </trkpt>
      <trkpt lat="45.07629" lon="3.45251">
        <ele>911.122876</ele>
        <time>2021-07-09T14:37:37+0200</time>
      </trkpt>
      <trkpt lat="45.07634" lon="3.45253">
        <ele>910.47345</ele>
        <time>2021-07-09T14:37:38+0200</time>
      </trkpt>
      <trkpt lat="45.07638" lon="3.45256">
        <ele>909.901816</ele>
        <time>2021-07-09T14:37:39+0200</time>
      </trkpt>
      <trkpt lat="45.07643" lon="3.45259">
        <ele>909.433234</ele>
        <time>2021-07-09T14:37:40+0200</time>
      </trkpt>
      <trkpt lat="45.07649" lon="3.45264">
        <ele>908.343519</ele>
        <time>2021-07-09T14:37:42+0200</time>
      </trkpt>
      <trkpt lat="45.07653" lon="3.45267">
        <ele>907.754966</ele>
        <time>2021-07-09T14:37:44+0200</time>
      </trkpt>
      <trkpt lat="45.07659" lon="3.45266">
        <ele>904.896694</ele>
        <time>2021-07-09T14:38:28+0200</time>
      </trkpt>
      <trkpt lat="45.07663" lon="3.45261">
        <ele>905.643163</ele>
        <time>2021-07-09T14:38:30+0200</time>
      </trkpt>
      <trkpt lat="45.07666" lon="3.45255">
        <ele>906.499115</ele>
        <time>2021-07-09T14:38:32+0200</time>
      </trkpt>
      <trkpt lat="45.07671" lon="3.4525">
        <ele>906.765814</ele>
        <time>2021-07-09T14:38:34+0200</time>
      </trkpt>
      <trkpt lat="45.07676" lon="3.45246">
        <ele>907.334191</ele>
        <time>2021-07-09T14:38:36+0200</time>
      </trkpt>
      <trkpt lat="45.07681" lon="3.45239">
        <ele>907.438549</ele>
        <time>2021-07-09T14:38:38+0200</time>
      </trkpt>
      <trkpt lat="45.07685" lon="3.45233">
        <ele>907.937206</ele>
        <time>2021-07-09T14:38:40+0200</time>
      </trkpt>
      <trkpt lat="45.07689" lon="3.45228">
        <ele>909.045124</ele>
        <time>2021-07-09T14:38:42+0200</time>
      </trkpt>
      <trkpt lat="45.07694" lon="3.45223">
        <ele>909.790793</ele>
        <time>2021-07-09T14:38:44+0200</time>
      </trkpt>
      <trkpt lat="45.077" lon="3.45219">
        <ele>909.44431</ele>
        <time>2021-07-09T14:38:46+0200</time>
      </trkpt>
      <trkpt lat="45.07705" lon="3.45215">
        <ele>910.341452</ele>
        <time>2021-07-09T14:38:48+0200</time>
      </trkpt>
      <trkpt lat="45.0771" lon="3.4521">
        <ele>910.501789</ele>
        <time>2021-07-09T14:38:50+0200</time>
      </trkpt>
      <trkpt lat="45.07714" lon="3.45205">
        <ele>911.718522</ele>
        <time>2021-07-09T14:38:52+0200</time>
      </trkpt>
      <trkpt lat="45.07719" lon="3.45202">
        <ele>912.870307</ele>
        <time>2021-07-09T14:38:54+0200</time>
      </trkpt>
      <trkpt lat="45.07725" lon="3.45199">
        <ele>913.109283</ele>
        <time>2021-07-09T14:38:57+0200</time>
      </trkpt>
      <trkpt lat="45.07729" lon="3.45199">
        <ele>913.417403</ele>
        <time>2021-07-09T14:38:59+0200</time>
      </trkpt>
      <trkpt lat="45.07736" lon="3.45199">
        <ele>914.878212</ele>
        <time>2021-07-09T14:39:02+0200</time>
      </trkpt>
      <trkpt lat="45.0774" lon="3.45198">
        <ele>915.460102</ele>
        <time>2021-07-09T14:39:04+0200</time>
      </trkpt>
      <trkpt lat="45.07745" lon="3.45196">
        <ele>915.171604</ele>
        <time>2021-07-09T14:39:06+0200</time>
      </trkpt>
      <trkpt lat="45.07751" lon="3.45191">
        <ele>915.609402</ele>
        <time>2021-07-09T14:39:09+0200</time>
      </trkpt>
      <trkpt lat="45.07756" lon="3.45185">
        <ele>916.646465</ele>
        <time>2021-07-09T14:39:12+0200</time>
      </trkpt>
      <trkpt lat="45.0776" lon="3.4518">
        <ele>917.34725</ele>
        <time>2021-07-09T14:39:14+0200</time>
      </trkpt>
      <trkpt lat="45.07763" lon="3.45174">
        <ele>917.78055</ele>
        <time>2021-07-09T14:39:16+0200</time>
      </trkpt>
      <trkpt lat="45.07766" lon="3.45168">
        <ele>917.304641</ele>
        <time>2021-07-09T14:39:18+0200</time>
      </trkpt>
      <trkpt lat="45.0777" lon="3.45162">
        <ele>917.180497</ele>
        <time>2021-07-09T14:39:20+0200</time>
      </trkpt>
      <trkpt lat="45.07774" lon="3.45159">
        <ele>917.179999</ele>
        <time>2021-07-09T14:39:22+0200</time>
      </trkpt>
      <trkpt lat="45.07779" lon="3.45153">
        <ele>917.064223</ele>
        <time>2021-07-09T14:39:24+0200</time>
      </trkpt>
      <trkpt lat="45.07785" lon="3.45149">
        <ele>916.525242</ele>
        <time>2021-07-09T14:39:26+0200</time>
      </trkpt>
      <trkpt lat="45.07791" lon="3.45145">
        <ele>916.304281</ele>
        <time>2021-07-09T14:39:28+0200</time>
      </trkpt>
      <trkpt lat="45.07799" lon="3.45142">
        <ele>915.996171</ele>
        <time>2021-07-09T14:39:30+0200</time>
      </trkpt>
      <trkpt lat="45.07804" lon="3.4514">
        <ele>915.432741</ele>
        <time>2021-07-09T14:39:31+0200</time>
      </trkpt>
      <trkpt lat="45.07809" lon="3.45137">
        <ele>914.841409</ele>
        <time>2021-07-09T14:39:32+0200</time>
      </trkpt>
      <trkpt lat="45.07814" lon="3.45136">
        <ele>914.486125</ele>
        <time>2021-07-09T14:39:33+0200</time>
      </trkpt>
      <trkpt lat="45.07819" lon="3.45135">
        <ele>914.433173</ele>
        <time>2021-07-09T14:39:34+0200</time>
      </trkpt>
      <trkpt lat="45.07824" lon="3.45135">
        <ele>914.34341</ele>
        <time>2021-07-09T14:39:35+0200</time>
      </trkpt>
      <trkpt lat="45.07829" lon="3.45135">
        <ele>914.401998</ele>
        <time>2021-07-09T14:39:36+0200</time>
      </trkpt>
      <trkpt lat="45.07834" lon="3.45136">
        <ele>914.265467</ele>
        <time>2021-07-09T14:39:37+0200</time>
      </trkpt>
      <trkpt lat="45.07838" lon="3.45138">
        <ele>913.903655</ele>
        <time>2021-07-09T14:39:38+0200</time>
      </trkpt>
      <trkpt lat="45.07843" lon="3.4514">
        <ele>914.114731</ele>
        <time>2021-07-09T14:39:39+0200</time>
      </trkpt>
      <trkpt lat="45.07848" lon="3.45139">
        <ele>914.071787</ele>
        <time>2021-07-09T14:39:40+0200</time>
      </trkpt>
      <trkpt lat="45.07856" lon="3.4514">
        <ele>913.82883</ele>
        <time>2021-07-09T14:39:42+0200</time>
      </trkpt>
      <trkpt lat="45.07865" lon="3.45138">
        <ele>913.769487</ele>
        <time>2021-07-09T14:39:44+0200</time>
      </trkpt>
      <trkpt lat="45.07873" lon="3.45138">
        <ele>913.793571</ele>
        <time>2021-07-09T14:39:46+0200</time>
      </trkpt>
      <trkpt lat="45.07879" lon="3.45139">
        <ele>913.315874</ele>
        <time>2021-07-09T14:39:48+0200</time>
      </trkpt>
      <trkpt lat="45.07883" lon="3.45144">
        <ele>913.817788</ele>
        <time>2021-07-09T14:39:57+0200</time>
      </trkpt>
      <trkpt lat="45.0789" lon="3.45148">
        <ele>912.940163</ele>
        <time>2021-07-09T14:39:59+0200</time>
      </trkpt>
      <trkpt lat="45.07898" lon="3.45154">
        <ele>911.772502</ele>
        <time>2021-07-09T14:40:01+0200</time>
      </trkpt>
      <trkpt lat="45.07906" lon="3.4516">
        <ele>910.760839</ele>
        <time>2021-07-09T14:40:03+0200</time>
      </trkpt>
      <trkpt lat="45.0791" lon="3.45165">
        <ele>910.271408</ele>
        <time>2021-07-09T14:40:04+0200</time>
      </trkpt>
      <trkpt lat="45.07915" lon="3.4517">
        <ele>909.713367</ele>
        <time>2021-07-09T14:40:05+0200</time>
      </trkpt>
      <trkpt lat="45.07919" lon="3.45176">
        <ele>909.193301</ele>
        <time>2021-07-09T14:40:06+0200</time>
      </trkpt>
      <trkpt lat="45.07923" lon="3.45181">
        <ele>908.680307</ele>
        <time>2021-07-09T14:40:07+0200</time>
      </trkpt>
      <trkpt lat="45.07928" lon="3.45185">
        <ele>908.216444</ele>
        <time>2021-07-09T14:40:08+0200</time>
      </trkpt>
      <trkpt lat="45.07933" lon="3.4519">
        <ele>907.952321</ele>
        <time>2021-07-09T14:40:09+0200</time>
      </trkpt>
      <trkpt lat="45.07938" lon="3.45194">
        <ele>907.549376</ele>
        <time>2021-07-09T14:40:10+0200</time>
      </trkpt>
      <trkpt lat="45.07942" lon="3.45199">
        <ele>907.259027</ele>
        <time>2021-07-09T14:40:11+0200</time>
      </trkpt>
      <trkpt lat="45.07947" lon="3.45203">
        <ele>906.913176</ele>
        <time>2021-07-09T14:40:12+0200</time>
      </trkpt>
      <trkpt lat="45.07952" lon="3.45207">
        <ele>906.59935</ele>
        <time>2021-07-09T14:40:13+0200</time>
      </trkpt>
      <trkpt lat="45.07956" lon="3.45211">
        <ele>906.155676</ele>
        <time>2021-07-09T14:40:14+0200</time>
      </trkpt>
      <trkpt lat="45.0796" lon="3.45215">
        <ele>905.762347</ele>
        <time>2021-07-09T14:40:15+0200</time>
      </trkpt>
      <trkpt lat="45.07965" lon="3.4522">
        <ele>905.448932</ele>
        <time>2021-07-09T14:40:16+0200</time>
      </trkpt>
      <trkpt lat="45.07969" lon="3.45224">
        <ele>905.359688</ele>
        <time>2021-07-09T14:40:17+0200</time>
      </trkpt>
      <trkpt lat="45.07973" lon="3.45228">
        <ele>905.274784</ele>
        <time>2021-07-09T14:40:18+0200</time>
      </trkpt>
      <trkpt lat="45.07978" lon="3.45232">
        <ele>905.268899</ele>
        <time>2021-07-09T14:40:19+0200</time>
      </trkpt>
      <trkpt lat="45.07982" lon="3.45236">
        <ele>905.155271</ele>
        <time>2021-07-09T14:40:20+0200</time>
      </trkpt>
      <trkpt lat="45.07985" lon="3.4524">
        <ele>905.01933</ele>
        <time>2021-07-09T14:40:21+0200</time>
      </trkpt>
      <trkpt lat="45.07992" lon="3.45247">
        <ele>905.151306</ele>
        <time>2021-07-09T14:40:23+0200</time>
      </trkpt>
      <trkpt lat="45.07997" lon="3.45251">
        <ele>905.420572</ele>
        <time>2021-07-09T14:40:25+0200</time>
      </trkpt>
      <trkpt lat="45.08003" lon="3.45256">
        <ele>906.007431</ele>
        <time>2021-07-09T14:40:27+0200</time>
      </trkpt>
      <trkpt lat="45.08007" lon="3.45259">
        <ele>906.300075</ele>
        <time>2021-07-09T14:40:29+0200</time>
      </trkpt>
      <trkpt lat="45.08012" lon="3.45261">
        <ele>906.347947</ele>
        <time>2021-07-09T14:40:31+0200</time>
      </trkpt>
      <trkpt lat="45.08017" lon="3.45266">
        <ele>906.422417</ele>
        <time>2021-07-09T14:41:04+0200</time>
      </trkpt>
      <trkpt lat="45.0802" lon="3.4527">
        <ele>903.746896</ele>
        <time>2021-07-09T14:41:15+0200</time>
      </trkpt>
      <trkpt lat="45.08023" lon="3.45277">
        <ele>904.55789</ele>
        <time>2021-07-09T14:41:17+0200</time>
      </trkpt>
      <trkpt lat="45.08024" lon="3.45286">
        <ele>903.78388</ele>
        <time>2021-07-09T14:41:19+0200</time>
      </trkpt>
      <trkpt lat="45.08029" lon="3.45292">
        <ele>902.480423</ele>
        <time>2021-07-09T14:41:21+0200</time>
      </trkpt>
      <trkpt lat="45.08035" lon="3.453">
        <ele>902.888094</ele>
        <time>2021-07-09T14:41:23+0200</time>
      </trkpt>
      <trkpt lat="45.08037" lon="3.45306">
        <ele>903.08854</ele>
        <time>2021-07-09T14:41:24+0200</time>
      </trkpt>
      <trkpt lat="45.08038" lon="3.45313">
        <ele>903.004959</ele>
        <time>2021-07-09T14:41:25+0200</time>
      </trkpt>
      <trkpt lat="45.0804" lon="3.45319">
        <ele>902.439397</ele>
        <time>2021-07-09T14:41:26+0200</time>
      </trkpt>
      <trkpt lat="45.08042" lon="3.45325">
        <ele>902.94456</ele>
        <time>2021-07-09T14:41:27+0200</time>
      </trkpt>
      <trkpt lat="45.08043" lon="3.45332">
        <ele>902.259862</ele>
        <time>2021-07-09T14:41:28+0200</time>
      </trkpt>
      <trkpt lat="45.08042" lon="3.45344">
        <ele>901.194987</ele>
        <time>2021-07-09T14:41:30+0200</time>
      </trkpt>
      <trkpt lat="45.08044" lon="3.45351">
        <ele>901.455932</ele>
        <time>2021-07-09T14:41:31+0200</time>
      </trkpt>
      <trkpt lat="45.08046" lon="3.45358">
        <ele>901.55094</ele>
        <time>2021-07-09T14:41:32+0200</time>
      </trkpt>
      <trkpt lat="45.08049" lon="3.45365">
        <ele>900.978262</ele>
        <time>2021-07-09T14:41:33+0200</time>
      </trkpt>
      <trkpt lat="45.08051" lon="3.45372">
        <ele>901.091072</ele>
        <time>2021-07-09T14:41:34+0200</time>
      </trkpt>
      <trkpt lat="45.08055" lon="3.45382">
        <ele>900.233277</ele>
        <time>2021-07-09T14:41:36+0200</time>
      </trkpt>
      <trkpt lat="45.0806" lon="3.45389">
        <ele>898.890563</ele>
        <time>2021-07-09T14:41:38+0200</time>
      </trkpt>
      <trkpt lat="45.08063" lon="3.45395">
        <ele>897.380562</ele>
        <time>2021-07-09T14:41:39+0200</time>
      </trkpt>
      <trkpt lat="45.08065" lon="3.45406">
        <ele>893.838614</ele>
        <time>2021-07-09T14:41:41+0200</time>
      </trkpt>
      <trkpt lat="45.08067" lon="3.45416">
        <ele>892.381605</ele>
        <time>2021-07-09T14:41:43+0200</time>
      </trkpt>
      <trkpt lat="45.08071" lon="3.45423">
        <ele>891.742397</ele>
        <time>2021-07-09T14:41:45+0200</time>
      </trkpt>
      <trkpt lat="45.08074" lon="3.45429">
        <ele>890.711257</ele>
        <time>2021-07-09T14:41:47+0200</time>
      </trkpt>
      <trkpt lat="45.08077" lon="3.45434">
        <ele>889.349155</ele>
        <time>2021-07-09T14:41:49+0200</time>
      </trkpt>
      <trkpt lat="45.08084" lon="3.45437">
        <ele>886.601361</ele>
        <time>2021-07-09T14:41:51+0200</time>
      </trkpt>
      <trkpt lat="45.08089" lon="3.45445">
        <ele>886.668872</ele>
        <time>2021-07-09T14:41:53+0200</time>
      </trkpt>
      <trkpt lat="45.08093" lon="3.45451">
        <ele>886.291389</ele>
        <time>2021-07-09T14:41:55+0200</time>
      </trkpt>
      <trkpt lat="45.08096" lon="3.45459">
        <ele>884.325386</ele>
        <time>2021-07-09T14:41:57+0200</time>
      </trkpt>
      <trkpt lat="45.08098" lon="3.45465">
        <ele>884.240803</ele>
        <time>2021-07-09T14:41:58+0200</time>
      </trkpt>
      <trkpt lat="45.08101" lon="3.45472">
        <ele>881.961003</ele>
        <time>2021-07-09T14:42:00+0200</time>
      </trkpt>
      <trkpt lat="45.08105" lon="3.45476">
        <ele>881.804472</ele>
        <time>2021-07-09T14:42:01+0200</time>
      </trkpt>
      <trkpt lat="45.08109" lon="3.45482">
        <ele>881.412128</ele>
        <time>2021-07-09T14:42:03+0200</time>
      </trkpt>
      <trkpt lat="45.08115" lon="3.45491">
        <ele>881.02496</ele>
        <time>2021-07-09T14:42:05+0200</time>
      </trkpt>
      <trkpt lat="45.08119" lon="3.45498">
        <ele>880.127327</ele>
        <time>2021-07-09T14:42:08+0200</time>
      </trkpt>
      <trkpt lat="45.08124" lon="3.45507">
        <ele>880.249292</ele>
        <time>2021-07-09T14:42:11+0200</time>
      </trkpt>
      <trkpt lat="45.08128" lon="3.45513">
        <ele>877.026338</ele>
        <time>2021-07-09T14:42:13+0200</time>
      </trkpt>
      <trkpt lat="45.08131" lon="3.45519">
        <ele>874.987403</ele>
        <time>2021-07-09T14:42:15+0200</time>
      </trkpt>
      <trkpt lat="45.08133" lon="3.45527">
        <ele>873.468377</ele>
        <time>2021-07-09T14:42:17+0200</time>
      </trkpt>
      <trkpt lat="45.08133" lon="3.45535">
        <ele>872.72412</ele>
        <time>2021-07-09T14:42:19+0200</time>
      </trkpt>
      <trkpt lat="45.08134" lon="3.45545">
        <ele>873.174331</ele>
        <time>2021-07-09T14:42:21+0200</time>
      </trkpt>
      <trkpt lat="45.08133" lon="3.45552">
        <ele>869.925493</ele>
        <time>2021-07-09T14:42:23+0200</time>
      </trkpt>
      <trkpt lat="45.08135" lon="3.45561">
        <ele>867.660689</ele>
        <time>2021-07-09T14:42:25+0200</time>
      </trkpt>
      <trkpt lat="45.08135" lon="3.45569">
        <ele>866.131538</ele>
        <time>2021-07-09T14:42:27+0200</time>
      </trkpt>
      <trkpt lat="45.08134" lon="3.45578">
        <ele>864.288185</ele>
        <time>2021-07-09T14:42:30+0200</time>
      </trkpt>
      <trkpt lat="45.08133" lon="3.45589">
        <ele>863.430331</ele>
        <time>2021-07-09T14:42:32+0200</time>
      </trkpt>
      <trkpt lat="45.08128" lon="3.45599">
        <ele>860.516608</ele>
        <time>2021-07-09T14:42:34+0200</time>
      </trkpt>
      <trkpt lat="45.08125" lon="3.45606">
        <ele>860.012207</ele>
        <time>2021-07-09T14:42:35+0200</time>
      </trkpt>
      <trkpt lat="45.08124" lon="3.45615">
        <ele>859.556158</ele>
        <time>2021-07-09T14:42:36+0200</time>
      </trkpt>
      <trkpt lat="45.08123" lon="3.45622">
        <ele>857.727495</ele>
        <time>2021-07-09T14:42:37+0200</time>
      </trkpt>
      <trkpt lat="45.08121" lon="3.45629">
        <ele>856.390431</ele>
        <time>2021-07-09T14:42:38+0200</time>
      </trkpt>
      <trkpt lat="45.0812" lon="3.45636">
        <ele>855.603841</ele>
        <time>2021-07-09T14:42:39+0200</time>
      </trkpt>
      <trkpt lat="45.08119" lon="3.45643">
        <ele>855.177887</ele>
        <time>2021-07-09T14:42:40+0200</time>
      </trkpt>
      <trkpt lat="45.08116" lon="3.45649">
        <ele>854.707666</ele>
        <time>2021-07-09T14:42:41+0200</time>
      </trkpt>
      <trkpt lat="45.08111" lon="3.4566">
        <ele>853.353569</ele>
        <time>2021-07-09T14:42:43+0200</time>
      </trkpt>
      <trkpt lat="45.08108" lon="3.45666">
        <ele>851.156976</ele>
        <time>2021-07-09T14:42:44+0200</time>
      </trkpt>
      <trkpt lat="45.08105" lon="3.45671">
        <ele>848.954198</ele>
        <time>2021-07-09T14:42:45+0200</time>
      </trkpt>
      <trkpt lat="45.08103" lon="3.45678">
        <ele>846.452417</ele>
        <time>2021-07-09T14:42:46+0200</time>
      </trkpt>
      <trkpt lat="45.08101" lon="3.45688">
        <ele>846.216539</ele>
        <time>2021-07-09T14:42:47+0200</time>
      </trkpt>
      <trkpt lat="45.08099" lon="3.45698">
        <ele>846.928941</ele>
        <time>2021-07-09T14:42:48+0200</time>
      </trkpt>
      <trkpt lat="45.08095" lon="3.45705">
        <ele>847.541226</ele>
        <time>2021-07-09T14:42:49+0200</time>
      </trkpt>
      <trkpt lat="45.08093" lon="3.45712">
        <ele>847.712587</ele>
        <time>2021-07-09T14:42:50+0200</time>
      </trkpt>
      <trkpt lat="45.08091" lon="3.45718">
        <ele>848.663746</ele>
        <time>2021-07-09T14:42:51+0200</time>
      </trkpt>
      <trkpt lat="45.08085" lon="3.45726">
        <ele>850.660911</ele>
        <time>2021-07-09T14:42:53+0200</time>
      </trkpt>
      <trkpt lat="45.08082" lon="3.45731">
        <ele>851.453062</ele>
        <time>2021-07-09T14:42:55+0200</time>
      </trkpt>
      <trkpt lat="45.08077" lon="3.45735">
        <ele>854.638197</ele>
        <time>2021-07-09T14:43:10+0200</time>
      </trkpt>
      <trkpt lat="45.08073" lon="3.45742">
        <ele>853.169447</ele>
        <time>2021-07-09T14:43:12+0200</time>
      </trkpt>
      <trkpt lat="45.08068" lon="3.45751">
        <ele>850.958752</ele>
        <time>2021-07-09T14:43:14+0200</time>
      </trkpt>
      <trkpt lat="45.08066" lon="3.45757">
        <ele>850.261896</ele>
        <time>2021-07-09T14:43:15+0200</time>
      </trkpt>
      <trkpt lat="45.08062" lon="3.45767">
        <ele>849.871552</ele>
        <time>2021-07-09T14:43:17+0200</time>
      </trkpt>
      <trkpt lat="45.08054" lon="3.45767">
        <ele>850.39203</ele>
        <time>2021-07-09T14:43:19+0200</time>
      </trkpt>
      <trkpt lat="45.0805" lon="3.45777">
        <ele>849.481469</ele>
        <time>2021-07-09T14:43:21+0200</time>
      </trkpt>
      <trkpt lat="45.08051" lon="3.45787">
        <ele>848.497955</ele>
        <time>2021-07-09T14:43:23+0200</time>
      </trkpt>
      <trkpt lat="45.0805" lon="3.45797">
        <ele>845.385312</ele>
        <time>2021-07-09T14:43:25+0200</time>
      </trkpt>
      <trkpt lat="45.08054" lon="3.45804">
        <ele>845.832484</ele>
        <time>2021-07-09T14:43:27+0200</time>
      </trkpt>
      <trkpt lat="45.0806" lon="3.4581">
        <ele>844.964103</ele>
        <time>2021-07-09T14:43:29+0200</time>
      </trkpt>
      <trkpt lat="45.08065" lon="3.45814">
        <ele>842.485054</ele>
        <time>2021-07-09T14:43:31+0200</time>
      </trkpt>
      <trkpt lat="45.08071" lon="3.45815">
        <ele>843.310748</ele>
        <time>2021-07-09T14:43:32+0200</time>
      </trkpt>
      <trkpt lat="45.08076" lon="3.45818">
        <ele>844.261401</ele>
        <time>2021-07-09T14:43:33+0200</time>
      </trkpt>
      <trkpt lat="45.08081" lon="3.45821">
        <ele>842.959108</ele>
        <time>2021-07-09T14:43:34+0200</time>
      </trkpt>
      <trkpt lat="45.08089" lon="3.45823">
        <ele>843.381154</ele>
        <time>2021-07-09T14:43:36+0200</time>
      </trkpt>
      <trkpt lat="45.08095" lon="3.45823">
        <ele>841.272675</ele>
        <time>2021-07-09T14:43:38+0200</time>
      </trkpt>
      <trkpt lat="45.08102" lon="3.45821">
        <ele>839.40963</ele>
        <time>2021-07-09T14:43:40+0200</time>
      </trkpt>
      <trkpt lat="45.08111" lon="3.45818">
        <ele>837.304137</ele>
        <time>2021-07-09T14:43:42+0200</time>
      </trkpt>
      <trkpt lat="45.08118" lon="3.45818">
        <ele>835.802364</ele>
        <time>2021-07-09T14:43:44+0200</time>
      </trkpt>
      <trkpt lat="45.08124" lon="3.45818">
        <ele>835.831354</ele>
        <time>2021-07-09T14:43:45+0200</time>
      </trkpt>
      <trkpt lat="45.08128" lon="3.45816">
        <ele>835.447138</ele>
        <time>2021-07-09T14:43:46+0200</time>
      </trkpt>
      <trkpt lat="45.08133" lon="3.45813">
        <ele>836.142753</ele>
        <time>2021-07-09T14:43:47+0200</time>
      </trkpt>
      <trkpt lat="45.08139" lon="3.45811">
        <ele>835.416562</ele>
        <time>2021-07-09T14:43:48+0200</time>
      </trkpt>
      <trkpt lat="45.08145" lon="3.45808">
        <ele>834.940604</ele>
        <time>2021-07-09T14:43:49+0200</time>
      </trkpt>
      <trkpt lat="45.08149" lon="3.45805">
        <ele>834.079856</ele>
        <time>2021-07-09T14:43:50+0200</time>
      </trkpt>
      <trkpt lat="45.08158" lon="3.45802">
        <ele>832.840443</ele>
        <time>2021-07-09T14:43:52+0200</time>
      </trkpt>
      <trkpt lat="45.08165" lon="3.45799">
        <ele>830.507821</ele>
        <time>2021-07-09T14:43:54+0200</time>
      </trkpt>
      <trkpt lat="45.08172" lon="3.45802">
        <ele>827.882692</ele>
        <time>2021-07-09T14:43:56+0200</time>
      </trkpt>
      <trkpt lat="45.0818" lon="3.45804">
        <ele>828.119692</ele>
        <time>2021-07-09T14:43:58+0200</time>
      </trkpt>
      <trkpt lat="45.08186" lon="3.45804">
        <ele>826.358821</ele>
        <time>2021-07-09T14:44:00+0200</time>
      </trkpt>
      <trkpt lat="45.08192" lon="3.45805">
        <ele>825.150783</ele>
        <time>2021-07-09T14:44:02+0200</time>
      </trkpt>
      <trkpt lat="45.08195" lon="3.4581">
        <ele>826.763014</ele>
        <time>2021-07-09T14:44:17+0200</time>
      </trkpt>
      <trkpt lat="45.08193" lon="3.45816">
        <ele>824.732927</ele>
        <time>2021-07-09T14:44:20+0200</time>
      </trkpt>
      <trkpt lat="45.08189" lon="3.45823">
        <ele>823.181133</ele>
        <time>2021-07-09T14:44:23+0200</time>
      </trkpt>
      <trkpt lat="45.08188" lon="3.45831">
        <ele>823.562043</ele>
        <time>2021-07-09T14:44:25+0200</time>
      </trkpt>
      <trkpt lat="45.08192" lon="3.45837">
        <ele>819.057702</ele>
        <time>2021-07-09T14:44:40+0200</time>
      </trkpt>
      <trkpt lat="45.08198" lon="3.45834">
        <ele>818.518007</ele>
        <time>2021-07-09T14:44:42+0200</time>
      </trkpt>
      <trkpt lat="45.08203" lon="3.45828">
        <ele>818.614595</ele>
        <time>2021-07-09T14:44:44+0200</time>
      </trkpt>
      <trkpt lat="45.08207" lon="3.45825">
        <ele>818.328379</ele>
        <time>2021-07-09T14:44:45+0200</time>
      </trkpt>
      <trkpt lat="45.08214" lon="3.45818">
        <ele>818.283188</ele>
        <time>2021-07-09T14:44:47+0200</time>
      </trkpt>
      <trkpt lat="45.08221" lon="3.45812">
        <ele>817.722972</ele>
        <time>2021-07-09T14:44:49+0200</time>
      </trkpt>
      <trkpt lat="45.08229" lon="3.45816">
        <ele>816.206041</ele>
        <time>2021-07-09T14:44:51+0200</time>
      </trkpt>
      <trkpt lat="45.08233" lon="3.45821">
        <ele>815.319891</ele>
        <time>2021-07-09T14:44:52+0200</time>
      </trkpt>
      <trkpt lat="45.08237" lon="3.45828">
        <ele>814.308245</ele>
        <time>2021-07-09T14:44:53+0200</time>
      </trkpt>
      <trkpt lat="45.08241" lon="3.45835">
        <ele>813.614544</ele>
        <time>2021-07-09T14:44:54+0200</time>
      </trkpt>
      <trkpt lat="45.08245" lon="3.45844">
        <ele>812.137988</ele>
        <time>2021-07-09T14:44:56+0200</time>
      </trkpt>
      <trkpt lat="45.0825" lon="3.45845">
        <ele>812.251654</ele>
        <time>2021-07-09T14:45:05+0200</time>
      </trkpt>
      <trkpt lat="45.08251" lon="3.45853">
        <ele>812.749083</ele>
        <time>2021-07-09T14:45:10+0200</time>
      </trkpt>
      <trkpt lat="45.08256" lon="3.4586">
        <ele>811.92568</ele>
        <time>2021-07-09T14:45:12+0200</time>
      </trkpt>
      <trkpt lat="45.08259" lon="3.45866">
        <ele>811.015008</ele>
        <time>2021-07-09T14:45:14+0200</time>
      </trkpt>
      <trkpt lat="45.08263" lon="3.45871">
        <ele>812.615774</ele>
        <time>2021-07-09T14:45:18+0200</time>
      </trkpt>
      <trkpt lat="45.08268" lon="3.45875">
        <ele>812.895382</ele>
        <time>2021-07-09T14:45:20+0200</time>
      </trkpt>
      <trkpt lat="45.08272" lon="3.45877">
        <ele>812.253847</ele>
        <time>2021-07-09T14:45:22+0200</time>
      </trkpt>
      <trkpt lat="45.08278" lon="3.4588">
        <ele>815.257859</ele>
        <time>2021-07-09T14:45:25+0200</time>
      </trkpt>
      <trkpt lat="45.08282" lon="3.45883">
        <ele>815.161857</ele>
        <time>2021-07-09T14:45:27+0200</time>
      </trkpt>
      <trkpt lat="45.08289" lon="3.45885">
        <ele>818.868794</ele>
        <time>2021-07-09T14:45:30+0200</time>
      </trkpt>
      <trkpt lat="45.08295" lon="3.45888">
        <ele>820.025333</ele>
        <time>2021-07-09T14:45:32+0200</time>
      </trkpt>
      <trkpt lat="45.083" lon="3.45888">
        <ele>822.157055</ele>
        <time>2021-07-09T14:45:34+0200</time>
      </trkpt>
      <trkpt lat="45.08306" lon="3.45892">
        <ele>824.462166</ele>
        <time>2021-07-09T14:45:36+0200</time>
      </trkpt>
      <trkpt lat="45.08312" lon="3.45895">
        <ele>824.828598</ele>
        <time>2021-07-09T14:45:38+0200</time>
      </trkpt>
      <trkpt lat="45.08319" lon="3.459">
        <ele>824.217261</ele>
        <time>2021-07-09T14:45:40+0200</time>
      </trkpt>
      <trkpt lat="45.08326" lon="3.45904">
        <ele>823.121422</ele>
        <time>2021-07-09T14:45:42+0200</time>
      </trkpt>
      <trkpt lat="45.08334" lon="3.45912">
        <ele>822.824241</ele>
        <time>2021-07-09T14:45:44+0200</time>
      </trkpt>
      <trkpt lat="45.08338" lon="3.45917">
        <ele>822.19502</ele>
        <time>2021-07-09T14:45:45+0200</time>
      </trkpt>
      <trkpt lat="45.0834" lon="3.45925">
        <ele>820.088231</ele>
        <time>2021-07-09T14:45:46+0200</time>
      </trkpt>
      <trkpt lat="45.08342" lon="3.45934">
        <ele>820.74851</ele>
        <time>2021-07-09T14:45:47+0200</time>
      </trkpt>
      <trkpt lat="45.08342" lon="3.45942">
        <ele>820.014146</ele>
        <time>2021-07-09T14:45:48+0200</time>
      </trkpt>
      <trkpt lat="45.08344" lon="3.4595">
        <ele>818.910506</ele>
        <time>2021-07-09T14:45:49+0200</time>
      </trkpt>
      <trkpt lat="45.08346" lon="3.45956">
        <ele>818.882064</ele>
        <time>2021-07-09T14:45:50+0200</time>
      </trkpt>
      <trkpt lat="45.08346" lon="3.45964">
        <ele>818.963456</ele>
        <time>2021-07-09T14:45:51+0200</time>
      </trkpt>
      <trkpt lat="45.08349" lon="3.4597">
        <ele>819.811474</ele>
        <time>2021-07-09T14:45:52+0200</time>
      </trkpt>
      <trkpt lat="45.08352" lon="3.45975">
        <ele>819.356173</ele>
        <time>2021-07-09T14:45:53+0200</time>
      </trkpt>
      <trkpt lat="45.08357" lon="3.45979">
        <ele>820.235381</ele>
        <time>2021-07-09T14:45:54+0200</time>
      </trkpt>
      <trkpt lat="45.08364" lon="3.45988">
        <ele>819.358068</ele>
        <time>2021-07-09T14:45:56+0200</time>
      </trkpt>
      <trkpt lat="45.08368" lon="3.45992">
        <ele>818.838899</ele>
        <time>2021-07-09T14:45:57+0200</time>
      </trkpt>
      <trkpt lat="45.08373" lon="3.45996">
        <ele>817.550988</ele>
        <time>2021-07-09T14:45:58+0200</time>
      </trkpt>
      <trkpt lat="45.0838" lon="3.45999">
        <ele>815.875006</ele>
        <time>2021-07-09T14:45:59+0200</time>
      </trkpt>
      <trkpt lat="45.08385" lon="3.46001">
        <ele>815.619969</ele>
        <time>2021-07-09T14:46:00+0200</time>
      </trkpt>
      <trkpt lat="45.08391" lon="3.46004">
        <ele>815.153697</ele>
        <time>2021-07-09T14:46:01+0200</time>
      </trkpt>
      <trkpt lat="45.08397" lon="3.46007">
        <ele>815.704224</ele>
        <time>2021-07-09T14:46:02+0200</time>
      </trkpt>
      <trkpt lat="45.08403" lon="3.46009">
        <ele>815.114451</ele>
        <time>2021-07-09T14:46:03+0200</time>
      </trkpt>
      <trkpt lat="45.08409" lon="3.46009">
        <ele>813.679491</ele>
        <time>2021-07-09T14:46:04+0200</time>
      </trkpt>
      <trkpt lat="45.08415" lon="3.46011">
        <ele>812.967668</ele>
        <time>2021-07-09T14:46:05+0200</time>
      </trkpt>
      <trkpt lat="45.08422" lon="3.46014">
        <ele>813.373608</ele>
        <time>2021-07-09T14:46:06+0200</time>
      </trkpt>
      <trkpt lat="45.08428" lon="3.46016">
        <ele>813.197671</ele>
        <time>2021-07-09T14:46:07+0200</time>
      </trkpt>
      <trkpt lat="45.08435" lon="3.46017">
        <ele>811.67844</ele>
        <time>2021-07-09T14:46:08+0200</time>
      </trkpt>
      <trkpt lat="45.08441" lon="3.46018">
        <ele>810.92548</ele>
        <time>2021-07-09T14:46:09+0200</time>
      </trkpt>
      <trkpt lat="45.08447" lon="3.46019">
        <ele>810.751503</ele>
        <time>2021-07-09T14:46:10+0200</time>
      </trkpt>
      <trkpt lat="45.08454" lon="3.4602">
        <ele>809.123743</ele>
        <time>2021-07-09T14:46:11+0200</time>
      </trkpt>
      <trkpt lat="45.08459" lon="3.46023">
        <ele>807.147282</ele>
        <time>2021-07-09T14:46:12+0200</time>
      </trkpt>
      <trkpt lat="45.08465" lon="3.46023">
        <ele>807.564955</ele>
        <time>2021-07-09T14:46:13+0200</time>
      </trkpt>
      <trkpt lat="45.08471" lon="3.46024">
        <ele>807.260728</ele>
        <time>2021-07-09T14:46:14+0200</time>
      </trkpt>
      <trkpt lat="45.08476" lon="3.46025">
        <ele>806.210029</ele>
        <time>2021-07-09T14:46:15+0200</time>
      </trkpt>
      <trkpt lat="45.08481" lon="3.46025">
        <ele>805.980676</ele>
        <time>2021-07-09T14:46:16+0200</time>
      </trkpt>
      <trkpt lat="45.08486" lon="3.46024">
        <ele>806.397358</ele>
        <time>2021-07-09T14:46:17+0200</time>
      </trkpt>
      <trkpt lat="45.08493" lon="3.46024">
        <ele>807.438282</ele>
        <time>2021-07-09T14:46:18+0200</time>
      </trkpt>
      <trkpt lat="45.08499" lon="3.46024">
        <ele>808.813209</ele>
        <time>2021-07-09T14:46:19+0200</time>
      </trkpt>
      <trkpt lat="45.08505" lon="3.46022">
        <ele>810.126133</ele>
        <time>2021-07-09T14:46:20+0200</time>
      </trkpt>
      <trkpt lat="45.0851" lon="3.46021">
        <ele>809.785792</ele>
        <time>2021-07-09T14:46:21+0200</time>
      </trkpt>
      <trkpt lat="45.08514" lon="3.4602">
        <ele>810.692392</ele>
        <time>2021-07-09T14:46:22+0200</time>
      </trkpt>
      <trkpt lat="45.0852" lon="3.4602">
        <ele>810.764143</ele>
        <time>2021-07-09T14:46:23+0200</time>
      </trkpt>
      <trkpt lat="45.08524" lon="3.46021">
        <ele>810.34458</ele>
        <time>2021-07-09T14:46:24+0200</time>
      </trkpt>
      <trkpt lat="45.08531" lon="3.46023">
        <ele>810.478907</ele>
        <time>2021-07-09T14:46:25+0200</time>
      </trkpt>
      <trkpt lat="45.08536" lon="3.46028">
        <ele>810.406235</ele>
        <time>2021-07-09T14:46:26+0200</time>
      </trkpt>
      <trkpt lat="45.08541" lon="3.46031">
        <ele>811.705771</ele>
        <time>2021-07-09T14:46:27+0200</time>
      </trkpt>
      <trkpt lat="45.08546" lon="3.46037">
        <ele>811.956035</ele>
        <time>2021-07-09T14:46:28+0200</time>
      </trkpt>
      <trkpt lat="45.0855" lon="3.46042">
        <ele>811.307611</ele>
        <time>2021-07-09T14:46:29+0200</time>
      </trkpt>
      <trkpt lat="45.08556" lon="3.46051">
        <ele>811.93958</ele>
        <time>2021-07-09T14:46:31+0200</time>
      </trkpt>
      <trkpt lat="45.08559" lon="3.46056">
        <ele>810.031012</ele>
        <time>2021-07-09T14:46:32+0200</time>
      </trkpt>
      <trkpt lat="45.08562" lon="3.4606">
        <ele>808.73529</ele>
        <time>2021-07-09T14:46:33+0200</time>
      </trkpt>
      <trkpt lat="45.08566" lon="3.46066">
        <ele>808.347957</ele>
        <time>2021-07-09T14:46:34+0200</time>
      </trkpt>
      <trkpt lat="45.0857" lon="3.4607">
        <ele>809.037421</ele>
        <time>2021-07-09T14:46:35+0200</time>
      </trkpt>
      <trkpt lat="45.08573" lon="3.46075">
        <ele>809.14123</ele>
        <time>2021-07-09T14:46:36+0200</time>
      </trkpt>
      <trkpt lat="45.08576" lon="3.46081">
        <ele>808.863119</ele>
        <time>2021-07-09T14:46:37+0200</time>
      </trkpt>
      <trkpt lat="45.08582" lon="3.46091">
        <ele>808.413243</ele>
        <time>2021-07-09T14:46:39+0200</time>
      </trkpt>
      <trkpt lat="45.08587" lon="3.46101">
        <ele>808.32448</ele>
        <time>2021-07-09T14:46:41+0200</time>
      </trkpt>
      <trkpt lat="45.08589" lon="3.46107">
        <ele>808.741189</ele>
        <time>2021-07-09T14:46:42+0200</time>
      </trkpt>
      <trkpt lat="45.08593" lon="3.46116">
        <ele>808.601156</ele>
        <time>2021-07-09T14:46:44+0200</time>
      </trkpt>
      <trkpt lat="45.08596" lon="3.46121">
        <ele>809.235259</ele>
        <time>2021-07-09T14:46:45+0200</time>
      </trkpt>
      <trkpt lat="45.08601" lon="3.46129">
        <ele>809.317268</ele>
        <time>2021-07-09T14:46:47+0200</time>
      </trkpt>
      <trkpt lat="45.08605" lon="3.46137">
        <ele>810.631285</ele>
        <time>2021-07-09T14:46:49+0200</time>
      </trkpt>
      <trkpt lat="45.08608" lon="3.46143">
        <ele>810.107493</ele>
        <time>2021-07-09T14:46:50+0200</time>
      </trkpt>
      <trkpt lat="45.0861" lon="3.46149">
        <ele>809.751138</ele>
        <time>2021-07-09T14:46:51+0200</time>
      </trkpt>
      <trkpt lat="45.08614" lon="3.4616">
        <ele>808.212859</ele>
        <time>2021-07-09T14:46:53+0200</time>
      </trkpt>
      <trkpt lat="45.08616" lon="3.46167">
        <ele>808.133855</ele>
        <time>2021-07-09T14:46:54+0200</time>
      </trkpt>
      <trkpt lat="45.08618" lon="3.46173">
        <ele>808.462241</ele>
        <time>2021-07-09T14:46:55+0200</time>
      </trkpt>
      <trkpt lat="45.08621" lon="3.46184">
        <ele>808.573316</ele>
        <time>2021-07-09T14:46:57+0200</time>
      </trkpt>
      <trkpt lat="45.08619" lon="3.4619">
        <ele>809.870019</ele>
        <time>2021-07-09T14:47:04+0200</time>
      </trkpt>
      <trkpt lat="45.08622" lon="3.46199">
        <ele>809.493086</ele>
        <time>2021-07-09T14:47:06+0200</time>
      </trkpt>
      <trkpt lat="45.08625" lon="3.46207">
        <ele>807.900336</ele>
        <time>2021-07-09T14:47:08+0200</time>
      </trkpt>
      <trkpt lat="45.08629" lon="3.46218">
        <ele>805.711586</ele>
        <time>2021-07-09T14:47:10+0200</time>
      </trkpt>
      <trkpt lat="45.0863" lon="3.46225">
        <ele>805.28728</ele>
        <time>2021-07-09T14:47:11+0200</time>
      </trkpt>
      <trkpt lat="45.08632" lon="3.46232">
        <ele>804.602434</ele>
        <time>2021-07-09T14:47:12+0200</time>
      </trkpt>
      <trkpt lat="45.08635" lon="3.46243">
        <ele>803.180419</ele>
        <time>2021-07-09T14:47:14+0200</time>
      </trkpt>
      <trkpt lat="45.08636" lon="3.46255">
        <ele>800.992188</ele>
        <time>2021-07-09T14:47:16+0200</time>
      </trkpt>
      <trkpt lat="45.08638" lon="3.46261">
        <ele>800.442177</ele>
        <time>2021-07-09T14:47:17+0200</time>
      </trkpt>
      <trkpt lat="45.0864" lon="3.46266">
        <ele>799.879757</ele>
        <time>2021-07-09T14:47:18+0200</time>
      </trkpt>
      <trkpt lat="45.08643" lon="3.46272">
        <ele>799.124745</ele>
        <time>2021-07-09T14:47:19+0200</time>
      </trkpt>
      <trkpt lat="45.08645" lon="3.46278">
        <ele>797.90421</ele>
        <time>2021-07-09T14:47:20+0200</time>
      </trkpt>
      <trkpt lat="45.08649" lon="3.46282">
        <ele>796.995427</ele>
        <time>2021-07-09T14:47:21+0200</time>
      </trkpt>
      <trkpt lat="45.08653" lon="3.46287">
        <ele>796.016526</ele>
        <time>2021-07-09T14:47:22+0200</time>
      </trkpt>
      <trkpt lat="45.08658" lon="3.46292">
        <ele>795.051358</ele>
        <time>2021-07-09T14:47:23+0200</time>
      </trkpt>
      <trkpt lat="45.08663" lon="3.46297">
        <ele>794.338712</ele>
        <time>2021-07-09T14:47:24+0200</time>
      </trkpt>
      <trkpt lat="45.08667" lon="3.46303">
        <ele>792.921262</ele>
        <time>2021-07-09T14:47:25+0200</time>
      </trkpt>
      <trkpt lat="45.08672" lon="3.4631">
        <ele>792.198316</ele>
        <time>2021-07-09T14:47:26+0200</time>
      </trkpt>
      <trkpt lat="45.08678" lon="3.46316">
        <ele>791.470548</ele>
        <time>2021-07-09T14:47:27+0200</time>
      </trkpt>
      <trkpt lat="45.08684" lon="3.46321">
        <ele>789.37695</ele>
        <time>2021-07-09T14:47:28+0200</time>
      </trkpt>
      <trkpt lat="45.08688" lon="3.46329">
        <ele>788.198542</ele>
        <time>2021-07-09T14:47:29+0200</time>
      </trkpt>
      <trkpt lat="45.08694" lon="3.46336">
        <ele>788.009709</ele>
        <time>2021-07-09T14:47:30+0200</time>
      </trkpt>
      <trkpt lat="45.08698" lon="3.46343">
        <ele>787.032806</ele>
        <time>2021-07-09T14:47:31+0200</time>
      </trkpt>
      <trkpt lat="45.08704" lon="3.46348">
        <ele>785.575397</ele>
        <time>2021-07-09T14:47:32+0200</time>
      </trkpt>
      <trkpt lat="45.0871" lon="3.46354">
        <ele>784.538758</ele>
        <time>2021-07-09T14:47:33+0200</time>
      </trkpt>
      <trkpt lat="45.08715" lon="3.4636">
        <ele>783.730112</ele>
        <time>2021-07-09T14:47:34+0200</time>
      </trkpt>
      <trkpt lat="45.08721" lon="3.46366">
        <ele>782.841143</ele>
        <time>2021-07-09T14:47:35+0200</time>
      </trkpt>
      <trkpt lat="45.08727" lon="3.46371">
        <ele>782.294219</ele>
        <time>2021-07-09T14:47:36+0200</time>
      </trkpt>
      <trkpt lat="45.08732" lon="3.46375">
        <ele>782.001488</ele>
        <time>2021-07-09T14:47:37+0200</time>
      </trkpt>
      <trkpt lat="45.08737" lon="3.46381">
        <ele>780.841745</ele>
        <time>2021-07-09T14:47:38+0200</time>
      </trkpt>
      <trkpt lat="45.08742" lon="3.46386">
        <ele>779.947021</ele>
        <time>2021-07-09T14:47:39+0200</time>
      </trkpt>
      <trkpt lat="45.08747" lon="3.46394">
        <ele>779.232352</ele>
        <time>2021-07-09T14:47:40+0200</time>
      </trkpt>
      <trkpt lat="45.08753" lon="3.464">
        <ele>777.636571</ele>
        <time>2021-07-09T14:47:41+0200</time>
      </trkpt>
      <trkpt lat="45.08759" lon="3.46405">
        <ele>776.482476</ele>
        <time>2021-07-09T14:47:42+0200</time>
      </trkpt>
      <trkpt lat="45.08765" lon="3.4641">
        <ele>775.514215</ele>
        <time>2021-07-09T14:47:43+0200</time>
      </trkpt>
      <trkpt lat="45.08771" lon="3.46416">
        <ele>774.210369</ele>
        <time>2021-07-09T14:47:44+0200</time>
      </trkpt>
      <trkpt lat="45.08776" lon="3.46422">
        <ele>773.262199</ele>
        <time>2021-07-09T14:47:45+0200</time>
      </trkpt>
      <trkpt lat="45.08781" lon="3.46429">
        <ele>772.590242</ele>
        <time>2021-07-09T14:47:46+0200</time>
      </trkpt>
      <trkpt lat="45.08786" lon="3.46436">
        <ele>772.778527</ele>
        <time>2021-07-09T14:47:47+0200</time>
      </trkpt>
      <trkpt lat="45.08792" lon="3.46441">
        <ele>771.129339</ele>
        <time>2021-07-09T14:47:48+0200</time>
      </trkpt>
      <trkpt lat="45.08797" lon="3.46445">
        <ele>771.004673</ele>
        <time>2021-07-09T14:47:49+0200</time>
      </trkpt>
      <trkpt lat="45.08801" lon="3.46449">
        <ele>770.640084</ele>
        <time>2021-07-09T14:47:50+0200</time>
      </trkpt>
      <trkpt lat="45.08807" lon="3.46452">
        <ele>770.302073</ele>
        <time>2021-07-09T14:47:51+0200</time>
      </trkpt>
      <trkpt lat="45.08814" lon="3.46457">
        <ele>769.393727</ele>
        <time>2021-07-09T14:47:52+0200</time>
      </trkpt>
      <trkpt lat="45.08821" lon="3.46463">
        <ele>766.758112</ele>
        <time>2021-07-09T14:47:53+0200</time>
      </trkpt>
      <trkpt lat="45.08828" lon="3.4647">
        <ele>764.384655</ele>
        <time>2021-07-09T14:47:54+0200</time>
      </trkpt>
      <trkpt lat="45.08834" lon="3.46476">
        <ele>762.919727</ele>
        <time>2021-07-09T14:47:55+0200</time>
      </trkpt>
      <trkpt lat="45.08839" lon="3.46484">
        <ele>761.055625</ele>
        <time>2021-07-09T14:47:56+0200</time>
      </trkpt>
      <trkpt lat="45.08845" lon="3.4649">
        <ele>759.698192</ele>
        <time>2021-07-09T14:47:57+0200</time>
      </trkpt>
      <trkpt lat="45.08851" lon="3.46498">
        <ele>758.533722</ele>
        <time>2021-07-09T14:47:58+0200</time>
      </trkpt>
      <trkpt lat="45.08858" lon="3.46503">
        <ele>757.85903</ele>
        <time>2021-07-09T14:47:59+0200</time>
      </trkpt>
      <trkpt lat="45.08864" lon="3.46508">
        <ele>756.808151</ele>
        <time>2021-07-09T14:48:00+0200</time>
      </trkpt>
      <trkpt lat="45.0887" lon="3.46514">
        <ele>755.609657</ele>
        <time>2021-07-09T14:48:01+0200</time>
      </trkpt>
      <trkpt lat="45.08876" lon="3.46517">
        <ele>755.48112</ele>
        <time>2021-07-09T14:48:02+0200</time>
      </trkpt>
      <trkpt lat="45.08882" lon="3.4652">
        <ele>754.627193</ele>
        <time>2021-07-09T14:48:03+0200</time>
      </trkpt>
      <trkpt lat="45.08889" lon="3.46523">
        <ele>753.381767</ele>
        <time>2021-07-09T14:48:04+0200</time>
      </trkpt>
      <trkpt lat="45.08895" lon="3.46526">
        <ele>752.196092</ele>
        <time>2021-07-09T14:48:05+0200</time>
      </trkpt>
      <trkpt lat="45.08901" lon="3.46528">
        <ele>751.361596</ele>
        <time>2021-07-09T14:48:06+0200</time>
      </trkpt>
      <trkpt lat="45.08906" lon="3.46529">
        <ele>750.280103</ele>
        <time>2021-07-09T14:48:07+0200</time>
      </trkpt>
      <trkpt lat="45.08912" lon="3.4653">
        <ele>749.998769</ele>
        <time>2021-07-09T14:48:08+0200</time>
      </trkpt>
      <trkpt lat="45.08917" lon="3.46534">
        <ele>750.878284</ele>
        <time>2021-07-09T14:48:09+0200</time>
      </trkpt>
      <trkpt lat="45.08923" lon="3.46536">
        <ele>749.296376</ele>
        <time>2021-07-09T14:48:10+0200</time>
      </trkpt>
      <trkpt lat="45.0893" lon="3.46541">
        <ele>746.88581</ele>
        <time>2021-07-09T14:48:11+0200</time>
      </trkpt>
      <trkpt lat="45.08935" lon="3.46545">
        <ele>744.886699</ele>
        <time>2021-07-09T14:48:12+0200</time>
      </trkpt>
      <trkpt lat="45.0894" lon="3.46552">
        <ele>743.314556</ele>
        <time>2021-07-09T14:48:13+0200</time>
      </trkpt>
      <trkpt lat="45.08946" lon="3.46562">
        <ele>742.818768</ele>
        <time>2021-07-09T14:48:14+0200</time>
      </trkpt>
      <trkpt lat="45.0895" lon="3.46569">
        <ele>742.021323</ele>
        <time>2021-07-09T14:48:15+0200</time>
      </trkpt>
      <trkpt lat="45.08955" lon="3.46577">
        <ele>739.937884</ele>
        <time>2021-07-09T14:48:16+0200</time>
      </trkpt>
      <trkpt lat="45.08959" lon="3.46585">
        <ele>737.710185</ele>
        <time>2021-07-09T14:48:17+0200</time>
      </trkpt>
      <trkpt lat="45.08964" lon="3.46593">
        <ele>736.39693</ele>
        <time>2021-07-09T14:48:18+0200</time>
      </trkpt>
      <trkpt lat="45.08967" lon="3.466">
        <ele>736.286457</ele>
        <time>2021-07-09T14:48:19+0200</time>
      </trkpt>
      <trkpt lat="45.08971" lon="3.46606">
        <ele>734.852983</ele>
        <time>2021-07-09T14:48:20+0200</time>
      </trkpt>
      <trkpt lat="45.08976" lon="3.46611">
        <ele>733.758516</ele>
        <time>2021-07-09T14:48:21+0200</time>
      </trkpt>
      <trkpt lat="45.0898" lon="3.46616">
        <ele>733.246976</ele>
        <time>2021-07-09T14:48:22+0200</time>
      </trkpt>
      <trkpt lat="45.08984" lon="3.46621">
        <ele>732.828461</ele>
        <time>2021-07-09T14:48:23+0200</time>
      </trkpt>
      <trkpt lat="45.08988" lon="3.46627">
        <ele>732.030586</ele>
        <time>2021-07-09T14:48:24+0200</time>
      </trkpt>
      <trkpt lat="45.08993" lon="3.46633">
        <ele>731.427657</ele>
        <time>2021-07-09T14:48:25+0200</time>
      </trkpt>
      <trkpt lat="45.08998" lon="3.46639">
        <ele>730.569541</ele>
        <time>2021-07-09T14:48:26+0200</time>
      </trkpt>
      <trkpt lat="45.09002" lon="3.46644">
        <ele>729.880469</ele>
        <time>2021-07-09T14:48:27+0200</time>
      </trkpt>
      <trkpt lat="45.09007" lon="3.46651">
        <ele>729.291286</ele>
        <time>2021-07-09T14:48:28+0200</time>
      </trkpt>
      <trkpt lat="45.0901" lon="3.46659">
        <ele>727.899291</ele>
        <time>2021-07-09T14:48:29+0200</time>
      </trkpt>
      <trkpt lat="45.09015" lon="3.46662">
        <ele>726.46762</ele>
        <time>2021-07-09T14:48:30+0200</time>
      </trkpt>
      <trkpt lat="45.0902" lon="3.46668">
        <ele>725.26808</ele>
        <time>2021-07-09T14:48:31+0200</time>
      </trkpt>
      <trkpt lat="45.09025" lon="3.46673">
        <ele>724.614067</ele>
        <time>2021-07-09T14:48:32+0200</time>
      </trkpt>
      <trkpt lat="45.09029" lon="3.4668">
        <ele>724.321446</ele>
        <time>2021-07-09T14:48:33+0200</time>
      </trkpt>
      <trkpt lat="45.09034" lon="3.46684">
        <ele>723.891982</ele>
        <time>2021-07-09T14:48:34+0200</time>
      </trkpt>
      <trkpt lat="45.09038" lon="3.46687">
        <ele>723.124289</ele>
        <time>2021-07-09T14:48:35+0200</time>
      </trkpt>
      <trkpt lat="45.09044" lon="3.46689">
        <ele>722.373318</ele>
        <time>2021-07-09T14:48:36+0200</time>
      </trkpt>
      <trkpt lat="45.0905" lon="3.46692">
        <ele>722.062167</ele>
        <time>2021-07-09T14:48:37+0200</time>
      </trkpt>
      <trkpt lat="45.09054" lon="3.46695">
        <ele>721.917679</ele>
        <time>2021-07-09T14:48:38+0200</time>
      </trkpt>
      <trkpt lat="45.09059" lon="3.46699">
        <ele>721.247056</ele>
        <time>2021-07-09T14:48:39+0200</time>
      </trkpt>
      <trkpt lat="45.09064" lon="3.46702">
        <ele>720.105594</ele>
        <time>2021-07-09T14:48:40+0200</time>
      </trkpt>
      <trkpt lat="45.0907" lon="3.46706">
        <ele>719.305041</ele>
        <time>2021-07-09T14:48:41+0200</time>
      </trkpt>
      <trkpt lat="45.09075" lon="3.46709">
        <ele>717.04544</ele>
        <time>2021-07-09T14:48:42+0200</time>
      </trkpt>
      <trkpt lat="45.0908" lon="3.46713">
        <ele>716.323969</ele>
        <time>2021-07-09T14:48:43+0200</time>
      </trkpt>
      <trkpt lat="45.09083" lon="3.46721">
        <ele>715.971648</ele>
        <time>2021-07-09T14:48:44+0200</time>
      </trkpt>
      <trkpt lat="45.09088" lon="3.46726">
        <ele>715.221878</ele>
        <time>2021-07-09T14:48:45+0200</time>
      </trkpt>
      <trkpt lat="45.09092" lon="3.46733">
        <ele>714.613629</ele>
        <time>2021-07-09T14:48:46+0200</time>
      </trkpt>
      <trkpt lat="45.09095" lon="3.4674">
        <ele>713.30802</ele>
        <time>2021-07-09T14:48:47+0200</time>
      </trkpt>
      <trkpt lat="45.091" lon="3.46743">
        <ele>712.035977</ele>
        <time>2021-07-09T14:48:48+0200</time>
      </trkpt>
      <trkpt lat="45.09105" lon="3.46747">
        <ele>711.118696</ele>
        <time>2021-07-09T14:48:49+0200</time>
      </trkpt>
      <trkpt lat="45.0911" lon="3.46749">
        <ele>709.437444</ele>
        <time>2021-07-09T14:48:50+0200</time>
      </trkpt>
      <trkpt lat="45.09114" lon="3.46752">
        <ele>708.431048</ele>
        <time>2021-07-09T14:48:51+0200</time>
      </trkpt>
      <trkpt lat="45.09119" lon="3.46756">
        <ele>707.241827</ele>
        <time>2021-07-09T14:48:52+0200</time>
      </trkpt>
      <trkpt lat="45.09124" lon="3.46761">
        <ele>706.510622</ele>
        <time>2021-07-09T14:48:53+0200</time>
      </trkpt>
      <trkpt lat="45.0913" lon="3.46767">
        <ele>705.972222</ele>
        <time>2021-07-09T14:48:54+0200</time>
      </trkpt>
      <trkpt lat="45.09133" lon="3.46774">
        <ele>705.359076</ele>
        <time>2021-07-09T14:48:55+0200</time>
      </trkpt>
      <trkpt lat="45.09137" lon="3.46782">
        <ele>704.464039</ele>
        <time>2021-07-09T14:48:56+0200</time>
      </trkpt>
      <trkpt lat="45.09141" lon="3.4679">
        <ele>703.639822</ele>
        <time>2021-07-09T14:48:57+0200</time>
      </trkpt>
      <trkpt lat="45.09143" lon="3.46797">
        <ele>701.972758</ele>
        <time>2021-07-09T14:48:58+0200</time>
      </trkpt>
      <trkpt lat="45.09144" lon="3.46807">
        <ele>701.188529</ele>
        <time>2021-07-09T14:48:59+0200</time>
      </trkpt>
      <trkpt lat="45.09147" lon="3.46814">
        <ele>699.872085</ele>
        <time>2021-07-09T14:49:00+0200</time>
      </trkpt>
      <trkpt lat="45.09148" lon="3.46823">
        <ele>699.914246</ele>
        <time>2021-07-09T14:49:01+0200</time>
      </trkpt>
      <trkpt lat="45.09152" lon="3.46829">
        <ele>699.232672</ele>
        <time>2021-07-09T14:49:02+0200</time>
      </trkpt>
      <trkpt lat="45.09155" lon="3.46835">
        <ele>698.287087</ele>
        <time>2021-07-09T14:49:03+0200</time>
      </trkpt>
      <trkpt lat="45.09159" lon="3.46842">
        <ele>697.305434</ele>
        <time>2021-07-09T14:49:04+0200</time>
      </trkpt>
      <trkpt lat="45.09164" lon="3.46848">
        <ele>696.624499</ele>
        <time>2021-07-09T14:49:05+0200</time>
      </trkpt>
      <trkpt lat="45.09169" lon="3.46851">
        <ele>694.827611</ele>
        <time>2021-07-09T14:49:06+0200</time>
      </trkpt>
      <trkpt lat="45.09175" lon="3.46854">
        <ele>693.887707</ele>
        <time>2021-07-09T14:49:07+0200</time>
      </trkpt>
      <trkpt lat="45.09181" lon="3.46857">
        <ele>692.800123</ele>
        <time>2021-07-09T14:49:08+0200</time>
      </trkpt>
      <trkpt lat="45.09187" lon="3.46858">
        <ele>692.067479</ele>
        <time>2021-07-09T14:49:09+0200</time>
      </trkpt>
      <trkpt lat="45.09193" lon="3.46859">
        <ele>691.210025</ele>
        <time>2021-07-09T14:49:10+0200</time>
      </trkpt>
      <trkpt lat="45.09197" lon="3.4686">
        <ele>690.919199</ele>
        <time>2021-07-09T14:49:11+0200</time>
      </trkpt>
      <trkpt lat="45.09203" lon="3.46859">
        <ele>690.331817</ele>
        <time>2021-07-09T14:49:12+0200</time>
      </trkpt>
      <trkpt lat="45.0921" lon="3.4686">
        <ele>689.899345</ele>
        <time>2021-07-09T14:49:14+0200</time>
      </trkpt>
      <trkpt lat="45.09206" lon="3.46858">
        <ele>688.273102</ele>
        <time>2021-07-09T14:49:25+0200</time>
      </trkpt>
      <trkpt lat="45.09207" lon="3.46866">
        <ele>688.225332</ele>
        <time>2021-07-09T14:49:47+0200</time>
      </trkpt>
      <trkpt lat="45.09202" lon="3.46872">
        <ele>687.192926</ele>
        <time>2021-07-09T14:49:49+0200</time>
      </trkpt>
      <trkpt lat="45.09193" lon="3.46876">
        <ele>685.938538</ele>
        <time>2021-07-09T14:49:51+0200</time>
      </trkpt>
      <trkpt lat="45.09188" lon="3.46877">
        <ele>686.316948</ele>
        <time>2021-07-09T14:49:52+0200</time>
      </trkpt>
      <trkpt lat="45.09184" lon="3.46879">
        <ele>685.608673</ele>
        <time>2021-07-09T14:49:53+0200</time>
      </trkpt>
      <trkpt lat="45.09178" lon="3.46882">
        <ele>685.405021</ele>
        <time>2021-07-09T14:49:54+0200</time>
      </trkpt>
      <trkpt lat="45.09175" lon="3.46887">
        <ele>685.308127</ele>
        <time>2021-07-09T14:49:55+0200</time>
      </trkpt>
      <trkpt lat="45.09171" lon="3.46892">
        <ele>684.67421</ele>
        <time>2021-07-09T14:49:56+0200</time>
      </trkpt>
      <trkpt lat="45.09169" lon="3.46902">
        <ele>683.714781</ele>
        <time>2021-07-09T14:49:58+0200</time>
      </trkpt>
      <trkpt lat="45.09171" lon="3.4691">
        <ele>681.703428</ele>
        <time>2021-07-09T14:50:00+0200</time>
      </trkpt>
      <trkpt lat="45.09179" lon="3.46917">
        <ele>680.869235</ele>
        <time>2021-07-09T14:50:02+0200</time>
      </trkpt>
      <trkpt lat="45.09184" lon="3.46919">
        <ele>680.481103</ele>
        <time>2021-07-09T14:50:03+0200</time>
      </trkpt>
      <trkpt lat="45.0919" lon="3.46921">
        <ele>680.122688</ele>
        <time>2021-07-09T14:50:04+0200</time>
      </trkpt>
      <trkpt lat="45.09197" lon="3.46925">
        <ele>679.550474</ele>
        <time>2021-07-09T14:50:05+0200</time>
      </trkpt>
      <trkpt lat="45.09203" lon="3.46931">
        <ele>678.134429</ele>
        <time>2021-07-09T14:50:06+0200</time>
      </trkpt>
      <trkpt lat="45.09209" lon="3.46938">
        <ele>677.288102</ele>
        <time>2021-07-09T14:50:07+0200</time>
      </trkpt>
      <trkpt lat="45.09215" lon="3.46944">
        <ele>676.814431</ele>
        <time>2021-07-09T14:50:08+0200</time>
      </trkpt>
      <trkpt lat="45.09221" lon="3.46951">
        <ele>676.919037</ele>
        <time>2021-07-09T14:50:09+0200</time>
      </trkpt>
      <trkpt lat="45.09227" lon="3.46959">
        <ele>676.541517</ele>
        <time>2021-07-09T14:50:10+0200</time>
      </trkpt>
      <trkpt lat="45.09232" lon="3.46966">
        <ele>675.843513</ele>
        <time>2021-07-09T14:50:11+0200</time>
      </trkpt>
      <trkpt lat="45.09235" lon="3.46972">
        <ele>675.765219</ele>
        <time>2021-07-09T14:50:12+0200</time>
      </trkpt>
      <trkpt lat="45.09235" lon="3.46964">
        <ele>677.443447</ele>
        <time>2021-07-09T14:50:45+0200</time>
      </trkpt>
      <trkpt lat="45.0924" lon="3.46965">
        <ele>677.162722</ele>
        <time>2021-07-09T14:50:49+0200</time>
      </trkpt>
      <trkpt lat="45.09247" lon="3.46967">
        <ele>675.606656</ele>
        <time>2021-07-09T14:50:52+0200</time>
      </trkpt>
      <trkpt lat="45.09253" lon="3.46971">
        <ele>676.429747</ele>
        <time>2021-07-09T14:50:55+0200</time>
      </trkpt>
      <trkpt lat="45.09259" lon="3.4697">
        <ele>675.539588</ele>
        <time>2021-07-09T14:50:57+0200</time>
      </trkpt>
      <trkpt lat="45.09264" lon="3.46974">
        <ele>676.381345</ele>
        <time>2021-07-09T14:50:59+0200</time>
      </trkpt>
      <trkpt lat="45.09271" lon="3.46977">
        <ele>676.292985</ele>
        <time>2021-07-09T14:51:01+0200</time>
      </trkpt>
      <trkpt lat="45.09278" lon="3.46982">
        <ele>676.218174</ele>
        <time>2021-07-09T14:51:03+0200</time>
      </trkpt>
      <trkpt lat="45.09283" lon="3.46985">
        <ele>675.663175</ele>
        <time>2021-07-09T14:51:05+0200</time>
      </trkpt>
      <trkpt lat="45.0929" lon="3.4699">
        <ele>674.992075</ele>
        <time>2021-07-09T14:51:07+0200</time>
      </trkpt>
      <trkpt lat="45.09295" lon="3.46995">
        <ele>673.151353</ele>
        <time>2021-07-09T14:51:09+0200</time>
      </trkpt>
      <trkpt lat="45.09299" lon="3.46998">
        <ele>672.793102</ele>
        <time>2021-07-09T14:51:11+0200</time>
      </trkpt>
      <trkpt lat="45.0931" lon="3.47001">
        <ele>672.846358</ele>
        <time>2021-07-09T14:51:13+0200</time>
      </trkpt>
      <trkpt lat="45.09314" lon="3.47002">
        <ele>672.046241</ele>
        <time>2021-07-09T14:51:14+0200</time>
      </trkpt>
      <trkpt lat="45.09321" lon="3.47012">
        <ele>672.105043</ele>
        <time>2021-07-09T14:51:16+0200</time>
      </trkpt>
      <trkpt lat="45.09328" lon="3.47018">
        <ele>672.519129</ele>
        <time>2021-07-09T14:51:18+0200</time>
      </trkpt>
      <trkpt lat="45.09334" lon="3.47019">
        <ele>672.485427</ele>
        <time>2021-07-09T14:51:19+0200</time>
      </trkpt>
      <trkpt lat="45.0934" lon="3.47023">
        <ele>670.716833</ele>
        <time>2021-07-09T14:51:20+0200</time>
      </trkpt>
      <trkpt lat="45.09346" lon="3.47029">
        <ele>668.534174</ele>
        <time>2021-07-09T14:51:21+0200</time>
      </trkpt>
      <trkpt lat="45.09351" lon="3.47035">
        <ele>666.231593</ele>
        <time>2021-07-09T14:51:22+0200</time>
      </trkpt>
      <trkpt lat="45.09357" lon="3.47042">
        <ele>664.075189</ele>
        <time>2021-07-09T14:51:23+0200</time>
      </trkpt>
      <trkpt lat="45.09362" lon="3.47051">
        <ele>663.0697</ele>
        <time>2021-07-09T14:51:24+0200</time>
      </trkpt>
      <trkpt lat="45.09368" lon="3.47059">
        <ele>661.077454</ele>
        <time>2021-07-09T14:51:25+0200</time>
      </trkpt>
      <trkpt lat="45.09375" lon="3.47066">
        <ele>660.958395</ele>
        <time>2021-07-09T14:51:26+0200</time>
      </trkpt>
      <trkpt lat="45.09381" lon="3.47074">
        <ele>661.995944</ele>
        <time>2021-07-09T14:51:27+0200</time>
      </trkpt>
      <trkpt lat="45.09387" lon="3.47079">
        <ele>662.678223</ele>
        <time>2021-07-09T14:51:28+0200</time>
      </trkpt>
      <trkpt lat="45.09394" lon="3.47083">
        <ele>662.443158</ele>
        <time>2021-07-09T14:51:29+0200</time>
      </trkpt>
      <trkpt lat="45.09399" lon="3.47087">
        <ele>662.415896</ele>
        <time>2021-07-09T14:51:30+0200</time>
      </trkpt>
      <trkpt lat="45.09405" lon="3.47091">
        <ele>662.343912</ele>
        <time>2021-07-09T14:51:31+0200</time>
      </trkpt>
      <trkpt lat="45.0941" lon="3.47097">
        <ele>662.279091</ele>
        <time>2021-07-09T14:51:32+0200</time>
      </trkpt>
      <trkpt lat="45.09416" lon="3.47105">
        <ele>662.517775</ele>
        <time>2021-07-09T14:51:33+0200</time>
      </trkpt>
      <trkpt lat="45.09422" lon="3.47118">
        <ele>661.841099</ele>
        <time>2021-07-09T14:51:34+0200</time>
      </trkpt>
      <trkpt lat="45.09427" lon="3.47128">
        <ele>661.035331</ele>
        <time>2021-07-09T14:51:35+0200</time>
      </trkpt>
      <trkpt lat="45.0943" lon="3.47138">
        <ele>661.230863</ele>
        <time>2021-07-09T14:51:36+0200</time>
      </trkpt>
      <trkpt lat="45.09433" lon="3.47148">
        <ele>662.229024</ele>
        <time>2021-07-09T14:51:37+0200</time>
      </trkpt>
      <trkpt lat="45.09435" lon="3.47158">
        <ele>661.844351</ele>
        <time>2021-07-09T14:51:38+0200</time>
      </trkpt>
      <trkpt lat="45.09438" lon="3.47167">
        <ele>661.313493</ele>
        <time>2021-07-09T14:51:39+0200</time>
      </trkpt>
      <trkpt lat="45.09441" lon="3.47175">
        <ele>661.295558</ele>
        <time>2021-07-09T14:51:40+0200</time>
      </trkpt>
      <trkpt lat="45.09445" lon="3.47181">
        <ele>660.483609</ele>
        <time>2021-07-09T14:51:41+0200</time>
      </trkpt>
      <trkpt lat="45.0945" lon="3.47187">
        <ele>659.765348</ele>
        <time>2021-07-09T14:51:42+0200</time>
      </trkpt>
      <trkpt lat="45.09454" lon="3.47191">
        <ele>659.007835</ele>
        <time>2021-07-09T14:51:43+0200</time>
      </trkpt>
      <trkpt lat="45.0946" lon="3.47197">
        <ele>658.183639</ele>
        <time>2021-07-09T14:51:45+0200</time>
      </trkpt>
      <trkpt lat="45.09464" lon="3.47201">
        <ele>658.18636</ele>
        <time>2021-07-09T14:51:46+0200</time>
      </trkpt>
      <trkpt lat="45.09471" lon="3.47208">
        <ele>658.264131</ele>
        <time>2021-07-09T14:51:48+0200</time>
      </trkpt>
      <trkpt lat="45.09475" lon="3.47211">
        <ele>657.745123</ele>
        <time>2021-07-09T14:51:49+0200</time>
      </trkpt>
      <trkpt lat="45.09479" lon="3.47215">
        <ele>656.764441</ele>
        <time>2021-07-09T14:51:50+0200</time>
      </trkpt>
      <trkpt lat="45.09483" lon="3.47219">
        <ele>656.549977</ele>
        <time>2021-07-09T14:51:51+0200</time>
      </trkpt>
      <trkpt lat="45.09488" lon="3.47225">
        <ele>656.540982</ele>
        <time>2021-07-09T14:51:52+0200</time>
      </trkpt>
      <trkpt lat="45.09493" lon="3.47229">
        <ele>657.149139</ele>
        <time>2021-07-09T14:51:53+0200</time>
      </trkpt>
      <trkpt lat="45.09497" lon="3.47233">
        <ele>657.010331</ele>
        <time>2021-07-09T14:51:54+0200</time>
      </trkpt>
      <trkpt lat="45.09501" lon="3.47239">
        <ele>657.034583</ele>
        <time>2021-07-09T14:51:55+0200</time>
      </trkpt>
      <trkpt lat="45.09506" lon="3.47242">
        <ele>656.633013</ele>
        <time>2021-07-09T14:51:56+0200</time>
      </trkpt>
      <trkpt lat="45.09511" lon="3.47247">
        <ele>656.154519</ele>
        <time>2021-07-09T14:51:57+0200</time>
      </trkpt>
      <trkpt lat="45.09516" lon="3.47255">
        <ele>655.142695</ele>
        <time>2021-07-09T14:51:58+0200</time>
      </trkpt>
      <trkpt lat="45.09521" lon="3.47261">
        <ele>654.725222</ele>
        <time>2021-07-09T14:51:59+0200</time>
      </trkpt>
      <trkpt lat="45.09526" lon="3.47268">
        <ele>654.138342</ele>
        <time>2021-07-09T14:52:00+0200</time>
      </trkpt>
      <trkpt lat="45.09532" lon="3.47275">
        <ele>653.236683</ele>
        <time>2021-07-09T14:52:01+0200</time>
      </trkpt>
      <trkpt lat="45.09537" lon="3.47282">
        <ele>652.060542</ele>
        <time>2021-07-09T14:52:02+0200</time>
      </trkpt>
      <trkpt lat="45.09542" lon="3.47288">
        <ele>650.890774</ele>
        <time>2021-07-09T14:52:03+0200</time>
      </trkpt>
      <trkpt lat="45.09548" lon="3.47297">
        <ele>650.272676</ele>
        <time>2021-07-09T14:52:04+0200</time>
      </trkpt>
      <trkpt lat="45.09553" lon="3.47304">
        <ele>649.822672</ele>
        <time>2021-07-09T14:52:05+0200</time>
      </trkpt>
      <trkpt lat="45.09559" lon="3.47311">
        <ele>649.255493</ele>
        <time>2021-07-09T14:52:06+0200</time>
      </trkpt>
      <trkpt lat="45.09566" lon="3.47319">
        <ele>648.891153</ele>
        <time>2021-07-09T14:52:07+0200</time>
      </trkpt>
      <trkpt lat="45.09573" lon="3.47331">
        <ele>647.436049</ele>
        <time>2021-07-09T14:52:08+0200</time>
      </trkpt>
      <trkpt lat="45.09578" lon="3.47339">
        <ele>646.767584</ele>
        <time>2021-07-09T14:52:09+0200</time>
      </trkpt>
      <trkpt lat="45.09582" lon="3.4735">
        <ele>646.52067</ele>
        <time>2021-07-09T14:52:10+0200</time>
      </trkpt>
      <trkpt lat="45.09586" lon="3.47362">
        <ele>646.72377</ele>
        <time>2021-07-09T14:52:11+0200</time>
      </trkpt>
      <trkpt lat="45.09589" lon="3.47374">
        <ele>646.505419</ele>
        <time>2021-07-09T14:52:12+0200</time>
      </trkpt>
      <trkpt lat="45.09594" lon="3.47388">
        <ele>646.038144</ele>
        <time>2021-07-09T14:52:13+0200</time>
      </trkpt>
      <trkpt lat="45.09598" lon="3.47401">
        <ele>645.729589</ele>
        <time>2021-07-09T14:52:14+0200</time>
      </trkpt>
      <trkpt lat="45.09601" lon="3.47414">
        <ele>644.808452</ele>
        <time>2021-07-09T14:52:15+0200</time>
      </trkpt>
      <trkpt lat="45.09605" lon="3.47426">
        <ele>643.522961</ele>
        <time>2021-07-09T14:52:16+0200</time>
      </trkpt>
      <trkpt lat="45.09608" lon="3.47439">
        <ele>642.792929</ele>
        <time>2021-07-09T14:52:17+0200</time>
      </trkpt>
      <trkpt lat="45.09611" lon="3.47452">
        <ele>642.538855</ele>
        <time>2021-07-09T14:52:18+0200</time>
      </trkpt>
      <trkpt lat="45.09612" lon="3.47467">
        <ele>641.075427</ele>
        <time>2021-07-09T14:52:19+0200</time>
      </trkpt>
      <trkpt lat="45.09615" lon="3.47482">
        <ele>642.047084</ele>
        <time>2021-07-09T14:52:20+0200</time>
      </trkpt>
      <trkpt lat="45.09618" lon="3.47496">
        <ele>641.144313</ele>
        <time>2021-07-09T14:52:21+0200</time>
      </trkpt>
      <trkpt lat="45.09621" lon="3.4751">
        <ele>640.319525</ele>
        <time>2021-07-09T14:52:22+0200</time>
      </trkpt>
      <trkpt lat="45.09625" lon="3.47525">
        <ele>639.773992</ele>
        <time>2021-07-09T14:52:23+0200</time>
      </trkpt>
      <trkpt lat="45.09629" lon="3.4754">
        <ele>639.960915</ele>
        <time>2021-07-09T14:52:24+0200</time>
      </trkpt>
      <trkpt lat="45.09631" lon="3.47555">
        <ele>639.646252</ele>
        <time>2021-07-09T14:52:25+0200</time>
      </trkpt>
      <trkpt lat="45.09634" lon="3.47568">
        <ele>638.154185</ele>
        <time>2021-07-09T14:52:26+0200</time>
      </trkpt>
      <trkpt lat="45.09636" lon="3.4758">
        <ele>635.799169</ele>
        <time>2021-07-09T14:52:27+0200</time>
      </trkpt>
      <trkpt lat="45.09636" lon="3.47592">
        <ele>634.640654</ele>
        <time>2021-07-09T14:52:28+0200</time>
      </trkpt>
      <trkpt lat="45.09637" lon="3.47604">
        <ele>632.641259</ele>
        <time>2021-07-09T14:52:29+0200</time>
      </trkpt>
      <trkpt lat="45.09639" lon="3.47614">
        <ele>631.658671</ele>
        <time>2021-07-09T14:52:30+0200</time>
      </trkpt>
      <trkpt lat="45.0964" lon="3.47625">
        <ele>631.587944</ele>
        <time>2021-07-09T14:52:31+0200</time>
      </trkpt>
      <trkpt lat="45.09642" lon="3.47636">
        <ele>630.695713</ele>
        <time>2021-07-09T14:52:32+0200</time>
      </trkpt>
      <trkpt lat="45.09644" lon="3.47647">
        <ele>630.33412</ele>
        <time>2021-07-09T14:52:33+0200</time>
      </trkpt>
      <trkpt lat="45.09645" lon="3.47659">
        <ele>629.462725</ele>
        <time>2021-07-09T14:52:34+0200</time>
      </trkpt>
      <trkpt lat="45.09645" lon="3.47671">
        <ele>628.317307</ele>
        <time>2021-07-09T14:52:35+0200</time>
      </trkpt>
      <trkpt lat="45.09646" lon="3.47682">
        <ele>626.728064</ele>
        <time>2021-07-09T14:52:36+0200</time>
      </trkpt>
      <trkpt lat="45.09646" lon="3.47695">
        <ele>625.116243</ele>
        <time>2021-07-09T14:52:37+0200</time>
      </trkpt>
      <trkpt lat="45.09647" lon="3.47706">
        <ele>624.413758</ele>
        <time>2021-07-09T14:52:38+0200</time>
      </trkpt>
      <trkpt lat="45.09651" lon="3.47716">
        <ele>623.50998</ele>
        <time>2021-07-09T14:52:39+0200</time>
      </trkpt>
      <trkpt lat="45.09656" lon="3.47725">
        <ele>622.958723</ele>
        <time>2021-07-09T14:52:40+0200</time>
      </trkpt>
      <trkpt lat="45.09662" lon="3.47734">
        <ele>621.546025</ele>
        <time>2021-07-09T14:52:41+0200</time>
      </trkpt>
      <trkpt lat="45.09668" lon="3.47741">
        <ele>620.87578</ele>
        <time>2021-07-09T14:52:42+0200</time>
      </trkpt>
      <trkpt lat="45.09673" lon="3.47748">
        <ele>619.874412</ele>
        <time>2021-07-09T14:52:43+0200</time>
      </trkpt>
      <trkpt lat="45.09678" lon="3.47756">
        <ele>619.228241</ele>
        <time>2021-07-09T14:52:44+0200</time>
      </trkpt>
      <trkpt lat="45.09681" lon="3.47765">
        <ele>618.748762</ele>
        <time>2021-07-09T14:52:45+0200</time>
      </trkpt>
      <trkpt lat="45.09684" lon="3.47775">
        <ele>618.366285</ele>
        <time>2021-07-09T14:52:46+0200</time>
      </trkpt>
      <trkpt lat="45.09688" lon="3.47783">
        <ele>618.467086</ele>
        <time>2021-07-09T14:52:47+0200</time>
      </trkpt>
      <trkpt lat="45.09691" lon="3.47793">
        <ele>617.341997</ele>
        <time>2021-07-09T14:52:48+0200</time>
      </trkpt>
      <trkpt lat="45.09694" lon="3.47802">
        <ele>616.418335</ele>
        <time>2021-07-09T14:52:49+0200</time>
      </trkpt>
      <trkpt lat="45.09698" lon="3.47811">
        <ele>614.213198</ele>
        <time>2021-07-09T14:52:50+0200</time>
      </trkpt>
      <trkpt lat="45.09703" lon="3.4782">
        <ele>613.534614</ele>
        <time>2021-07-09T14:52:51+0200</time>
      </trkpt>
      <trkpt lat="45.09707" lon="3.47828">
        <ele>612.867523</ele>
        <time>2021-07-09T14:52:52+0200</time>
      </trkpt>
      <trkpt lat="45.09712" lon="3.47836">
        <ele>611.187381</ele>
        <time>2021-07-09T14:52:53+0200</time>
      </trkpt>
      <trkpt lat="45.09716" lon="3.47845">
        <ele>610.018046</ele>
        <time>2021-07-09T14:52:54+0200</time>
      </trkpt>
      <trkpt lat="45.0972" lon="3.47854">
        <ele>607.85498</ele>
        <time>2021-07-09T14:52:55+0200</time>
      </trkpt>
      <trkpt lat="45.09723" lon="3.47863">
        <ele>606.921696</ele>
        <time>2021-07-09T14:52:56+0200</time>
      </trkpt>
      <trkpt lat="45.09725" lon="3.47872">
        <ele>606.103285</ele>
        <time>2021-07-09T14:52:57+0200</time>
      </trkpt>
      <trkpt lat="45.09727" lon="3.4788">
        <ele>605.362448</ele>
        <time>2021-07-09T14:52:58+0200</time>
      </trkpt>
      <trkpt lat="45.0973" lon="3.47888">
        <ele>602.994708</ele>
        <time>2021-07-09T14:52:59+0200</time>
      </trkpt>
      <trkpt lat="45.09733" lon="3.47897">
        <ele>601.115138</ele>
        <time>2021-07-09T14:53:00+0200</time>
      </trkpt>
      <trkpt lat="45.09736" lon="3.47904">
        <ele>599.562188</ele>
        <time>2021-07-09T14:53:01+0200</time>
      </trkpt>
      <trkpt lat="45.09739" lon="3.47912">
        <ele>599.239527</ele>
        <time>2021-07-09T14:53:02+0200</time>
      </trkpt>
      <trkpt lat="45.09742" lon="3.47922">
        <ele>598.769088</ele>
        <time>2021-07-09T14:53:03+0200</time>
      </trkpt>
      <trkpt lat="45.09743" lon="3.47932">
        <ele>597.154426</ele>
        <time>2021-07-09T14:53:04+0200</time>
      </trkpt>
      <trkpt lat="45.09745" lon="3.47943">
        <ele>595.651885</ele>
        <time>2021-07-09T14:53:05+0200</time>
      </trkpt>
      <trkpt lat="45.09745" lon="3.47953">
        <ele>595.082149</ele>
        <time>2021-07-09T14:53:06+0200</time>
      </trkpt>
      <trkpt lat="45.09745" lon="3.47962">
        <ele>595.350742</ele>
        <time>2021-07-09T14:53:07+0200</time>
      </trkpt>
      <trkpt lat="45.09745" lon="3.47971">
        <ele>594.364724</ele>
        <time>2021-07-09T14:53:08+0200</time>
      </trkpt>
      <trkpt lat="45.09746" lon="3.47981">
        <ele>592.943157</ele>
        <time>2021-07-09T14:53:09+0200</time>
      </trkpt>
      <trkpt lat="45.09743" lon="3.47993">
        <ele>590.819802</ele>
        <time>2021-07-09T14:53:10+0200</time>
      </trkpt>
      <trkpt lat="45.0974" lon="3.48004">
        <ele>589.388522</ele>
        <time>2021-07-09T14:53:11+0200</time>
      </trkpt>
      <trkpt lat="45.0974" lon="3.48017">
        <ele>587.845651</ele>
        <time>2021-07-09T14:53:12+0200</time>
      </trkpt>
      <trkpt lat="45.09741" lon="3.4803">
        <ele>586.46536</ele>
        <time>2021-07-09T14:53:13+0200</time>
      </trkpt>
      <trkpt lat="45.09743" lon="3.48044">
        <ele>585.926664</ele>
        <time>2021-07-09T14:53:14+0200</time>
      </trkpt>
      <trkpt lat="45.09745" lon="3.48056">
        <ele>585.751251</ele>
        <time>2021-07-09T14:53:15+0200</time>
      </trkpt>
      <trkpt lat="45.09748" lon="3.48069">
        <ele>586.480931</ele>
        <time>2021-07-09T14:53:16+0200</time>
      </trkpt>
      <trkpt lat="45.09751" lon="3.48081">
        <ele>587.813481</ele>
        <time>2021-07-09T14:53:17+0200</time>
      </trkpt>
      <trkpt lat="45.09753" lon="3.48092">
        <ele>588.465871</ele>
        <time>2021-07-09T14:53:18+0200</time>
      </trkpt>
      <trkpt lat="45.09755" lon="3.48102">
        <ele>587.841278</ele>
        <time>2021-07-09T14:53:19+0200</time>
      </trkpt>
      <trkpt lat="45.09757" lon="3.48112">
        <ele>587.742853</ele>
        <time>2021-07-09T14:53:20+0200</time>
      </trkpt>
      <trkpt lat="45.09758" lon="3.48122">
        <ele>588.047735</ele>
        <time>2021-07-09T14:53:21+0200</time>
      </trkpt>
      <trkpt lat="45.0976" lon="3.48133">
        <ele>588.501322</ele>
        <time>2021-07-09T14:53:22+0200</time>
      </trkpt>
      <trkpt lat="45.09761" lon="3.48143">
        <ele>588.228883</ele>
        <time>2021-07-09T14:53:23+0200</time>
      </trkpt>
      <trkpt lat="45.09763" lon="3.48153">
        <ele>588.255971</ele>
        <time>2021-07-09T14:53:24+0200</time>
      </trkpt>
      <trkpt lat="45.09765" lon="3.48162">
        <ele>588.355193</ele>
        <time>2021-07-09T14:53:25+0200</time>
      </trkpt>
      <trkpt lat="45.09766" lon="3.48171">
        <ele>588.046774</ele>
        <time>2021-07-09T14:53:26+0200</time>
      </trkpt>
      <trkpt lat="45.09768" lon="3.4818">
        <ele>587.811361</ele>
        <time>2021-07-09T14:53:27+0200</time>
      </trkpt>
      <trkpt lat="45.09769" lon="3.48189">
        <ele>587.995041</ele>
        <time>2021-07-09T14:53:28+0200</time>
      </trkpt>
      <trkpt lat="45.09771" lon="3.48197">
        <ele>587.957205</ele>
        <time>2021-07-09T14:53:29+0200</time>
      </trkpt>
      <trkpt lat="45.09773" lon="3.48207">
        <ele>587.775307</ele>
        <time>2021-07-09T14:53:30+0200</time>
      </trkpt>
      <trkpt lat="45.09775" lon="3.48215">
        <ele>587.364923</ele>
        <time>2021-07-09T14:53:31+0200</time>
      </trkpt>
      <trkpt lat="45.09776" lon="3.48225">
        <ele>587.165114</ele>
        <time>2021-07-09T14:53:32+0200</time>
      </trkpt>
      <trkpt lat="45.09778" lon="3.48234">
        <ele>586.318641</ele>
        <time>2021-07-09T14:53:33+0200</time>
      </trkpt>
      <trkpt lat="45.09781" lon="3.48243">
        <ele>585.605465</ele>
        <time>2021-07-09T14:53:34+0200</time>
      </trkpt>
      <trkpt lat="45.09784" lon="3.48252">
        <ele>585.320861</ele>
        <time>2021-07-09T14:53:35+0200</time>
      </trkpt>
      <trkpt lat="45.09787" lon="3.4826">
        <ele>585.565553</ele>
        <time>2021-07-09T14:53:36+0200</time>
      </trkpt>
      <trkpt lat="45.0979" lon="3.48269">
        <ele>584.76731</ele>
        <time>2021-07-09T14:53:37+0200</time>
      </trkpt>
      <trkpt lat="45.09792" lon="3.48278">
        <ele>584.351621</ele>
        <time>2021-07-09T14:53:38+0200</time>
      </trkpt>
      <trkpt lat="45.09794" lon="3.48287">
        <ele>583.400873</ele>
        <time>2021-07-09T14:53:39+0200</time>
      </trkpt>
      <trkpt lat="45.09795" lon="3.48298">
        <ele>582.326909</ele>
        <time>2021-07-09T14:53:40+0200</time>
      </trkpt>
      <trkpt lat="45.09796" lon="3.48308">
        <ele>582.049015</ele>
        <time>2021-07-09T14:53:41+0200</time>
      </trkpt>
      <trkpt lat="45.09797" lon="3.48318">
        <ele>581.469841</ele>
        <time>2021-07-09T14:53:42+0200</time>
      </trkpt>
      <trkpt lat="45.09796" lon="3.48327">
        <ele>581.236703</ele>
        <time>2021-07-09T14:53:43+0200</time>
      </trkpt>
      <trkpt lat="45.09796" lon="3.48336">
        <ele>580.399488</ele>
        <time>2021-07-09T14:53:44+0200</time>
      </trkpt>
      <trkpt lat="45.09795" lon="3.48346">
        <ele>578.868932</ele>
        <time>2021-07-09T14:53:45+0200</time>
      </trkpt>
      <trkpt lat="45.09793" lon="3.48356">
        <ele>577.381317</ele>
        <time>2021-07-09T14:53:46+0200</time>
      </trkpt>
      <trkpt lat="45.09793" lon="3.48364">
        <ele>575.357421</ele>
        <time>2021-07-09T14:53:47+0200</time>
      </trkpt>
      <trkpt lat="45.09793" lon="3.48372">
        <ele>574.876936</ele>
        <time>2021-07-09T14:53:48+0200</time>
      </trkpt>
      <trkpt lat="45.09791" lon="3.48379">
        <ele>573.691999</ele>
        <time>2021-07-09T14:53:49+0200</time>
      </trkpt>
      <trkpt lat="45.09792" lon="3.4839">
        <ele>572.547506</ele>
        <time>2021-07-09T14:53:51+0200</time>
      </trkpt>
      <trkpt lat="45.09799" lon="3.48394">
        <ele>571.404122</ele>
        <time>2021-07-09T14:53:53+0200</time>
      </trkpt>
      <trkpt lat="45.09806" lon="3.48388">
        <ele>568.426705</ele>
        <time>2021-07-09T14:53:55+0200</time>
      </trkpt>
      <trkpt lat="45.0981" lon="3.48384">
        <ele>566.899916</ele>
        <time>2021-07-09T14:53:56+0200</time>
      </trkpt>
      <trkpt lat="45.09813" lon="3.48378">
        <ele>565.428431</ele>
        <time>2021-07-09T14:53:57+0200</time>
      </trkpt>
      <trkpt lat="45.09816" lon="3.48371">
        <ele>565.179053</ele>
        <time>2021-07-09T14:53:58+0200</time>
      </trkpt>
      <trkpt lat="45.09821" lon="3.48367">
        <ele>565.429605</ele>
        <time>2021-07-09T14:53:59+0200</time>
      </trkpt>
      <trkpt lat="45.09825" lon="3.48364">
        <ele>565.748107</ele>
        <time>2021-07-09T14:54:00+0200</time>
      </trkpt>
      <trkpt lat="45.09834" lon="3.48368">
        <ele>564.755984</ele>
        <time>2021-07-09T14:54:02+0200</time>
      </trkpt>
      <trkpt lat="45.09838" lon="3.48377">
        <ele>563.950309</ele>
        <time>2021-07-09T14:54:03+0200</time>
      </trkpt>
      <trkpt lat="45.0984" lon="3.48387">
        <ele>563.491472</ele>
        <time>2021-07-09T14:54:04+0200</time>
      </trkpt>
      <trkpt lat="45.09841" lon="3.48397">
        <ele>562.696784</ele>
        <time>2021-07-09T14:54:05+0200</time>
      </trkpt>
      <trkpt lat="45.09842" lon="3.48407">
        <ele>562.071078</ele>
        <time>2021-07-09T14:54:06+0200</time>
      </trkpt>
      <trkpt lat="45.09842" lon="3.48418">
        <ele>560.80182</ele>
        <time>2021-07-09T14:54:07+0200</time>
      </trkpt>
      <trkpt lat="45.09842" lon="3.48428">
        <ele>560.075153</ele>
        <time>2021-07-09T14:54:08+0200</time>
      </trkpt>
      <trkpt lat="45.09842" lon="3.48438">
        <ele>559.315059</ele>
        <time>2021-07-09T14:54:09+0200</time>
      </trkpt>
      <trkpt lat="45.09842" lon="3.48448">
        <ele>558.331182</ele>
        <time>2021-07-09T14:54:10+0200</time>
      </trkpt>
      <trkpt lat="45.0984" lon="3.48457">
        <ele>556.989176</ele>
        <time>2021-07-09T14:54:11+0200</time>
      </trkpt>
      <trkpt lat="45.0984" lon="3.48466">
        <ele>555.957536</ele>
        <time>2021-07-09T14:54:12+0200</time>
      </trkpt>
      <trkpt lat="45.09839" lon="3.48476">
        <ele>554.809857</ele>
        <time>2021-07-09T14:54:13+0200</time>
      </trkpt>
      <trkpt lat="45.09838" lon="3.48485">
        <ele>553.930278</ele>
        <time>2021-07-09T14:54:14+0200</time>
      </trkpt>
      <trkpt lat="45.09837" lon="3.48496">
        <ele>552.768977</ele>
        <time>2021-07-09T14:54:15+0200</time>
      </trkpt>
      <trkpt lat="45.09836" lon="3.48506">
        <ele>551.398783</ele>
        <time>2021-07-09T14:54:16+0200</time>
      </trkpt>
      <trkpt lat="45.09836" lon="3.48515">
        <ele>550.794688</ele>
        <time>2021-07-09T14:54:17+0200</time>
      </trkpt>
      <trkpt lat="45.09837" lon="3.48524">
        <ele>549.848547</ele>
        <time>2021-07-09T14:54:18+0200</time>
      </trkpt>
      <trkpt lat="45.09838" lon="3.48534">
        <ele>548.452299</ele>
        <time>2021-07-09T14:54:19+0200</time>
      </trkpt>
      <trkpt lat="45.0984" lon="3.48545">
        <ele>546.85571</ele>
        <time>2021-07-09T14:54:20+0200</time>
      </trkpt>
      <trkpt lat="45.09842" lon="3.48557">
        <ele>545.063739</ele>
        <time>2021-07-09T14:54:21+0200</time>
      </trkpt>
      <trkpt lat="45.09843" lon="3.48569">
        <ele>543.434362</ele>
        <time>2021-07-09T14:54:22+0200</time>
      </trkpt>
      <trkpt lat="45.09842" lon="3.48579">
        <ele>540.242167</ele>
        <time>2021-07-09T14:54:23+0200</time>
      </trkpt>
      <trkpt lat="45.09843" lon="3.48591">
        <ele>538.942573</ele>
        <time>2021-07-09T14:54:24+0200</time>
      </trkpt>
      <trkpt lat="45.09843" lon="3.48602">
        <ele>536.963085</ele>
        <time>2021-07-09T14:54:25+0200</time>
      </trkpt>
      <trkpt lat="45.09843" lon="3.48611">
        <ele>535.294545</ele>
        <time>2021-07-09T14:54:26+0200</time>
      </trkpt>
      <trkpt lat="45.09847" lon="3.48619">
        <ele>533.873619</ele>
        <time>2021-07-09T14:54:27+0200</time>
      </trkpt>
      <trkpt lat="45.09852" lon="3.48625">
        <ele>532.198236</ele>
        <time>2021-07-09T14:54:28+0200</time>
      </trkpt>
      <trkpt lat="45.0986" lon="3.48632">
        <ele>529.924762</ele>
        <time>2021-07-09T14:54:29+0200</time>
      </trkpt>
      <trkpt lat="45.09868" lon="3.48637">
        <ele>529.119132</ele>
        <time>2021-07-09T14:54:30+0200</time>
      </trkpt>
      <trkpt lat="45.09875" lon="3.48644">
        <ele>528.203563</ele>
        <time>2021-07-09T14:54:31+0200</time>
      </trkpt>
      <trkpt lat="45.09881" lon="3.48649">
        <ele>526.739539</ele>
        <time>2021-07-09T14:54:32+0200</time>
      </trkpt>
      <trkpt lat="45.09885" lon="3.48655">
        <ele>525.578278</ele>
        <time>2021-07-09T14:54:33+0200</time>
      </trkpt>
      <trkpt lat="45.09889" lon="3.48662">
        <ele>526.088626</ele>
        <time>2021-07-09T14:54:34+0200</time>
      </trkpt>
      <trkpt lat="45.09891" lon="3.48672">
        <ele>525.455197</ele>
        <time>2021-07-09T14:54:35+0200</time>
      </trkpt>
      <trkpt lat="45.09893" lon="3.48682">
        <ele>525.251414</ele>
        <time>2021-07-09T14:54:36+0200</time>
      </trkpt>
      <trkpt lat="45.09895" lon="3.48692">
        <ele>525.3927</ele>
        <time>2021-07-09T14:54:37+0200</time>
      </trkpt>
      <trkpt lat="45.09897" lon="3.48701">
        <ele>525.087529</ele>
        <time>2021-07-09T14:54:38+0200</time>
      </trkpt>
      <trkpt lat="45.099" lon="3.4871">
        <ele>524.932368</ele>
        <time>2021-07-09T14:54:39+0200</time>
      </trkpt>
      <trkpt lat="45.09902" lon="3.48717">
        <ele>524.692458</ele>
        <time>2021-07-09T14:54:40+0200</time>
      </trkpt>
      <trkpt lat="45.09903" lon="3.48724">
        <ele>524.827468</ele>
        <time>2021-07-09T14:54:41+0200</time>
      </trkpt>
      <trkpt lat="45.09905" lon="3.48731">
        <ele>525.320651</ele>
        <time>2021-07-09T14:54:42+0200</time>
      </trkpt>
      <trkpt lat="45.09906" lon="3.48739">
        <ele>526.388362</ele>
        <time>2021-07-09T14:54:44+0200</time>
      </trkpt>
      <trkpt lat="45.09908" lon="3.48748">
        <ele>526.554264</ele>
        <time>2021-07-09T14:54:47+0200</time>
      </trkpt>
      <trkpt lat="45.09906" lon="3.48758">
        <ele>525.840624</ele>
        <time>2021-07-09T14:54:49+0200</time>
      </trkpt>
      <trkpt lat="45.09906" lon="3.4877">
        <ele>525.199411</ele>
        <time>2021-07-09T14:54:51+0200</time>
      </trkpt>
      <trkpt lat="45.09905" lon="3.48777">
        <ele>524.363699</ele>
        <time>2021-07-09T14:54:52+0200</time>
      </trkpt>
      <trkpt lat="45.09903" lon="3.48784">
        <ele>524.322588</ele>
        <time>2021-07-09T14:54:53+0200</time>
      </trkpt>
      <trkpt lat="45.09902" lon="3.4879">
        <ele>524.110716</ele>
        <time>2021-07-09T14:54:54+0200</time>
      </trkpt>
      <trkpt lat="45.099" lon="3.48798">
        <ele>523.670033</ele>
        <time>2021-07-09T14:54:55+0200</time>
      </trkpt>
      <trkpt lat="45.099" lon="3.48805">
        <ele>523.202953</ele>
        <time>2021-07-09T14:54:56+0200</time>
      </trkpt>
      <trkpt lat="45.09899" lon="3.48813">
        <ele>522.735469</ele>
        <time>2021-07-09T14:54:57+0200</time>
      </trkpt>
      <trkpt lat="45.09898" lon="3.48821">
        <ele>522.370207</ele>
        <time>2021-07-09T14:54:58+0200</time>
      </trkpt>
      <trkpt lat="45.09896" lon="3.48828">
        <ele>522.149585</ele>
        <time>2021-07-09T14:54:59+0200</time>
      </trkpt>
      <trkpt lat="45.09894" lon="3.48836">
        <ele>521.861273</ele>
        <time>2021-07-09T14:55:00+0200</time>
      </trkpt>
      <trkpt lat="45.09892" lon="3.48844">
        <ele>521.595407</ele>
        <time>2021-07-09T14:55:01+0200</time>
      </trkpt>
      <trkpt lat="45.09891" lon="3.48852">
        <ele>521.224645</ele>
        <time>2021-07-09T14:55:02+0200</time>
      </trkpt>
      <trkpt lat="45.09889" lon="3.4886">
        <ele>521.084031</ele>
        <time>2021-07-09T14:55:03+0200</time>
      </trkpt>
      <trkpt lat="45.09889" lon="3.48869">
        <ele>520.74845</ele>
        <time>2021-07-09T14:55:04+0200</time>
      </trkpt>
      <trkpt lat="45.09888" lon="3.48878">
        <ele>520.426879</ele>
        <time>2021-07-09T14:55:05+0200</time>
      </trkpt>
      <trkpt lat="45.09887" lon="3.48888">
        <ele>520.01568</ele>
        <time>2021-07-09T14:55:06+0200</time>
      </trkpt>
      <trkpt lat="45.09886" lon="3.48898">
        <ele>519.620676</ele>
        <time>2021-07-09T14:55:07+0200</time>
      </trkpt>
      <trkpt lat="45.09885" lon="3.48908">
        <ele>519.030317</ele>
        <time>2021-07-09T14:55:08+0200</time>
      </trkpt>
      <trkpt lat="45.09884" lon="3.48919">
        <ele>518.576151</ele>
        <time>2021-07-09T14:55:09+0200</time>
      </trkpt>
      <trkpt lat="45.09882" lon="3.48928">
        <ele>517.991684</ele>
        <time>2021-07-09T14:55:10+0200</time>
      </trkpt>
      <trkpt lat="45.0988" lon="3.48938">
        <ele>517.214627</ele>
        <time>2021-07-09T14:55:11+0200</time>
      </trkpt>
      <trkpt lat="45.09878" lon="3.48948">
        <ele>517.27559</ele>
        <time>2021-07-09T14:55:12+0200</time>
      </trkpt>
      <trkpt lat="45.09876" lon="3.48957">
        <ele>516.8753</ele>
        <time>2021-07-09T14:55:13+0200</time>
      </trkpt>
      <trkpt lat="45.09875" lon="3.48966">
        <ele>516.480688</ele>
        <time>2021-07-09T14:55:14+0200</time>
      </trkpt>
      <trkpt lat="45.09873" lon="3.48976">
        <ele>516.497772</ele>
        <time>2021-07-09T14:55:15+0200</time>
      </trkpt>
      <trkpt lat="45.09871" lon="3.48985">
        <ele>516.265576</ele>
        <time>2021-07-09T14:55:16+0200</time>
      </trkpt>
      <trkpt lat="45.0987" lon="3.48994">
        <ele>515.832012</ele>
        <time>2021-07-09T14:55:17+0200</time>
      </trkpt>
      <trkpt lat="45.09869" lon="3.49004">
        <ele>515.562174</ele>
        <time>2021-07-09T14:55:18+0200</time>
      </trkpt>
      <trkpt lat="45.09867" lon="3.49013">
        <ele>515.90013</ele>
        <time>2021-07-09T14:55:19+0200</time>
      </trkpt>
      <trkpt lat="45.09867" lon="3.49023">
        <ele>515.997553</ele>
        <time>2021-07-09T14:55:20+0200</time>
      </trkpt>
      <trkpt lat="45.09867" lon="3.49034">
        <ele>516.027589</ele>
        <time>2021-07-09T14:55:21+0200</time>
      </trkpt>
      <trkpt lat="45.09868" lon="3.49043">
        <ele>516.120593</ele>
        <time>2021-07-09T14:55:22+0200</time>
      </trkpt>
      <trkpt lat="45.09869" lon="3.49053">
        <ele>516.610723</ele>
        <time>2021-07-09T14:55:23+0200</time>
      </trkpt>
      <trkpt lat="45.09869" lon="3.49062">
        <ele>516.719115</ele>
        <time>2021-07-09T14:55:24+0200</time>
      </trkpt>
      <trkpt lat="45.0987" lon="3.49072">
        <ele>516.663056</ele>
        <time>2021-07-09T14:55:25+0200</time>
      </trkpt>
      <trkpt lat="45.0987" lon="3.49082">
        <ele>516.169931</ele>
        <time>2021-07-09T14:55:26+0200</time>
      </trkpt>
      <trkpt lat="45.09871" lon="3.49091">
        <ele>516.552493</ele>
        <time>2021-07-09T14:55:27+0200</time>
      </trkpt>
      <trkpt lat="45.09872" lon="3.491">
        <ele>516.792491</ele>
        <time>2021-07-09T14:55:28+0200</time>
      </trkpt>
      <trkpt lat="45.09873" lon="3.49107">
        <ele>517.126255</ele>
        <time>2021-07-09T14:55:29+0200</time>
      </trkpt>
      <trkpt lat="45.09873" lon="3.49115">
        <ele>517.290349</ele>
        <time>2021-07-09T14:55:30+0200</time>
      </trkpt>
      <trkpt lat="45.09873" lon="3.49122">
        <ele>517.288058</ele>
        <time>2021-07-09T14:55:31+0200</time>
      </trkpt>
      <trkpt lat="45.09874" lon="3.49133">
        <ele>517.612568</ele>
        <time>2021-07-09T14:55:33+0200</time>
      </trkpt>
      <trkpt lat="45.09874" lon="3.49144">
        <ele>517.591309</ele>
        <time>2021-07-09T14:55:35+0200</time>
      </trkpt>
      <trkpt lat="45.09875" lon="3.49154">
        <ele>517.109645</ele>
        <time>2021-07-09T14:55:37+0200</time>
      </trkpt>
      <trkpt lat="45.09875" lon="3.49161">
        <ele>515.882789</ele>
        <time>2021-07-09T14:55:39+0200</time>
      </trkpt>
      <trkpt lat="45.09876" lon="3.49153">
        <ele>516.227274</ele>
        <time>2021-07-09T14:55:49+0200</time>
      </trkpt>
      <trkpt lat="45.09873" lon="3.49146">
        <ele>517.061377</ele>
        <time>2021-07-09T14:55:51+0200</time>
      </trkpt>
      <trkpt lat="45.09877" lon="3.49141">
        <ele>520.75664</ele>
        <time>2021-07-09T14:55:58+0200</time>
      </trkpt>
      <trkpt lat="45.09885" lon="3.49141">
        <ele>520.977115</ele>
        <time>2021-07-09T14:56:01+0200</time>
      </trkpt>
      <trkpt lat="45.09893" lon="3.49139">
        <ele>520.511847</ele>
        <time>2021-07-09T14:56:03+0200</time>
      </trkpt>
      <trkpt lat="45.09898" lon="3.49135">
        <ele>520.20824</ele>
        <time>2021-07-09T14:56:04+0200</time>
      </trkpt>
      <trkpt lat="45.09906" lon="3.49132">
        <ele>519.565628</ele>
        <time>2021-07-09T14:56:06+0200</time>
      </trkpt>
      <trkpt lat="45.09914" lon="3.49129">
        <ele>519.472409</ele>
        <time>2021-07-09T14:56:08+0200</time>
      </trkpt>
      <trkpt lat="45.09922" lon="3.49127">
        <ele>519.360923</ele>
        <time>2021-07-09T14:56:10+0200</time>
      </trkpt>
      <trkpt lat="45.09926" lon="3.49126">
        <ele>519.122062</ele>
        <time>2021-07-09T14:56:11+0200</time>
      </trkpt>
      <trkpt lat="45.09935" lon="3.49123">
        <ele>518.251641</ele>
        <time>2021-07-09T14:56:13+0200</time>
      </trkpt>
      <trkpt lat="45.09944" lon="3.49121">
        <ele>517.871109</ele>
        <time>2021-07-09T14:56:15+0200</time>
      </trkpt>
      <trkpt lat="45.09952" lon="3.49117">
        <ele>517.847085</ele>
        <time>2021-07-09T14:56:17+0200</time>
      </trkpt>
      <trkpt lat="45.0996" lon="3.49114">
        <ele>518.122365</ele>
        <time>2021-07-09T14:56:19+0200</time>
      </trkpt>
      <trkpt lat="45.09968" lon="3.49112">
        <ele>518.634721</ele>
        <time>2021-07-09T14:56:21+0200</time>
      </trkpt>
      <trkpt lat="45.09975" lon="3.49109">
        <ele>517.593785</ele>
        <time>2021-07-09T14:56:23+0200</time>
      </trkpt>
      <trkpt lat="45.09982" lon="3.49107">
        <ele>517.129778</ele>
        <time>2021-07-09T14:56:25+0200</time>
      </trkpt>
      <trkpt lat="45.09989" lon="3.49104">
        <ele>517.404599</ele>
        <time>2021-07-09T14:56:27+0200</time>
      </trkpt>
      <trkpt lat="45.09997" lon="3.49102">
        <ele>517.779115</ele>
        <time>2021-07-09T14:56:29+0200</time>
      </trkpt>
      <trkpt lat="45.10005" lon="3.49099">
        <ele>517.495112</ele>
        <time>2021-07-09T14:56:31+0200</time>
      </trkpt>
      <trkpt lat="45.10012" lon="3.49098">
        <ele>517.778935</ele>
        <time>2021-07-09T14:56:33+0200</time>
      </trkpt>
      <trkpt lat="45.1002" lon="3.49094">
        <ele>518.053656</ele>
        <time>2021-07-09T14:56:35+0200</time>
      </trkpt>
      <trkpt lat="45.10028" lon="3.49091">
        <ele>518.30968</ele>
        <time>2021-07-09T14:56:37+0200</time>
      </trkpt>
      <trkpt lat="45.10035" lon="3.49088">
        <ele>518.236291</ele>
        <time>2021-07-09T14:56:39+0200</time>
      </trkpt>
      <trkpt lat="45.10044" lon="3.49086">
        <ele>518.071243</ele>
        <time>2021-07-09T14:56:41+0200</time>
      </trkpt>
      <trkpt lat="45.10052" lon="3.49083">
        <ele>517.628322</ele>
        <time>2021-07-09T14:56:43+0200</time>
      </trkpt>
      <trkpt lat="45.1006" lon="3.49081">
        <ele>517.741119</ele>
        <time>2021-07-09T14:56:45+0200</time>
      </trkpt>
      <trkpt lat="45.10067" lon="3.49078">
        <ele>517.499157</ele>
        <time>2021-07-09T14:56:47+0200</time>
      </trkpt>
      <trkpt lat="45.10075" lon="3.49076">
        <ele>517.448413</ele>
        <time>2021-07-09T14:56:49+0200</time>
      </trkpt>
      <trkpt lat="45.10081" lon="3.49075">
        <ele>517.216168</ele>
        <time>2021-07-09T14:56:51+0200</time>
      </trkpt>
      <trkpt lat="45.10086" lon="3.49073">
        <ele>517.054386</ele>
        <time>2021-07-09T14:56:53+0200</time>
      </trkpt>
      <trkpt lat="45.10091" lon="3.49072">
        <ele>517.304176</ele>
        <time>2021-07-09T14:56:55+0200</time>
      </trkpt>
      <trkpt lat="45.10095" lon="3.49069">
        <ele>517.463792</ele>
        <time>2021-07-09T14:56:57+0200</time>
      </trkpt>
      <trkpt lat="45.10102" lon="3.49068">
        <ele>517.360745</ele>
        <time>2021-07-09T14:57:00+0200</time>
      </trkpt>
      <trkpt lat="45.10107" lon="3.49064">
        <ele>518.127778</ele>
        <time>2021-07-09T14:57:03+0200</time>
      </trkpt>
      <trkpt lat="45.10111" lon="3.49063">
        <ele>518.949117</ele>
        <time>2021-07-09T14:57:09+0200</time>
      </trkpt>
      <trkpt lat="45.10116" lon="3.49058">
        <ele>519.024502</ele>
        <time>2021-07-09T14:57:12+0200</time>
      </trkpt>
      <trkpt lat="45.10122" lon="3.49054">
        <ele>516.757316</ele>
        <time>2021-07-09T14:57:15+0200</time>
      </trkpt>
      <trkpt lat="45.10127" lon="3.49049">
        <ele>516.843666</ele>
        <time>2021-07-09T14:57:20+0200</time>
      </trkpt>
      <trkpt lat="45.10128" lon="3.49058">
        <ele>513.988938</ele>
        <time>2021-07-09T14:57:26+0200</time>
      </trkpt>
      <trkpt lat="45.10127" lon="3.49064">
        <ele>513.580867</ele>
        <time>2021-07-09T14:57:28+0200</time>
      </trkpt>
      <trkpt lat="45.10127" lon="3.49071">
        <ele>509.893547</ele>
        <time>2021-07-09T14:57:30+0200</time>
      </trkpt>
      <trkpt lat="45.10125" lon="3.49079">
        <ele>512.954639</ele>
        <time>2021-07-09T14:57:32+0200</time>
      </trkpt>
      <trkpt lat="45.10121" lon="3.49086">
        <ele>514.465398</ele>
        <time>2021-07-09T14:57:35+0200</time>
      </trkpt>
      <trkpt lat="45.10119" lon="3.49092">
        <ele>519.035783</ele>
        <time>2021-07-09T14:57:38+0200</time>
      </trkpt>
      <trkpt lat="45.10116" lon="3.49098">
        <ele>524.283556</ele>
        <time>2021-07-09T14:57:41+0200</time>
      </trkpt>
    </trkseg>
  </trk>
</gpx>